<?xml version='1.0' encoding='UTF-8'?><gpx version="1.1" creator="JPX - https://github.com/jenetics/jpx" xmlns="http://www.topografix.com/GPX/1/1"><trk><trkseg><trkpt lat="42.769412978729164" lon="10.312381273889718"><ele>43.00000000000001</ele><time>2026-04-25T06:39:39Z</time></trkpt><trkpt lat="42.76940658096063" lon="10.312469161384126"><ele>43.0</ele><time>2026-04-25T06:40:45.001Z</time></trkpt><trkpt lat="42.76947676498292" lon="10.31240013324799"><ele>43.0</ele><time>2026-04-25T06:40:52.003Z</time></trkpt><trkpt lat="42.76954121808381" lon="10.312421878504525"><ele>43.0</ele><time>2026-04-25T06:40:57.002Z</time></trkpt><trkpt lat="42.769562375014935" lon="10.31251666704467"><ele>43.0</ele><time>2026-04-25T06:41:02.002Z</time></trkpt><trkpt lat="42.769549727733335" lon="10.31261395163054"><ele>43.00000000000001</ele><time>2026-04-25T06:41:08.001Z</time></trkpt><trkpt lat="42.769531317230495" lon="10.312710327367784"><ele>43.0</ele><time>2026-04-25T06:41:14.001Z</time></trkpt><trkpt lat="42.7695100601914" lon="10.312792566201122"><ele>43.00000000000001</ele><time>2026-04-25T06:41:38Z</time></trkpt><trkpt lat="42.769524271575904" lon="10.312900956387896"><ele>43.0</ele><time>2026-04-25T06:41:51Z</time></trkpt><trkpt lat="42.769462911122204" lon="10.31292584842541"><ele>43.0</ele><time>2026-04-25T06:42:03Z</time></trkpt><trkpt lat="42.7694696278802" lon="10.31284012103077"><ele>43.0</ele><time>2026-04-25T06:42:19Z</time></trkpt><trkpt lat="42.76949288583192" lon="10.312746773568222"><ele>43.0</ele><time>2026-04-25T06:42:24Z</time></trkpt><trkpt lat="42.769527909686715" lon="10.31267027018876"><ele>43.00000000000001</ele><time>2026-04-25T06:42:33Z</time></trkpt><trkpt lat="42.76950892639179" lon="10.312583716388023"><ele>43.0</ele><time>2026-04-25T06:42:38Z</time></trkpt><trkpt lat="42.769497338401244" lon="10.312491611030984"><ele>43.0</ele><time>2026-04-25T06:42:45Z</time></trkpt><trkpt lat="42.7695047155685" lon="10.312397550546635"><ele>43.0</ele><time>2026-04-25T06:42:52Z</time></trkpt><trkpt lat="42.76953289484218" lon="10.312266748503204"><ele>43.0</ele><time>2026-04-25T06:44:22Z</time></trkpt><trkpt lat="42.76946947081703" lon="10.312264043899091"><ele>43.0</ele><time>2026-04-25T06:44:30Z</time></trkpt><trkpt lat="42.76950268267495" lon="10.312166472133745"><ele>43.0</ele><time>2026-04-25T06:45:17Z</time></trkpt><trkpt lat="42.76942661854374" lon="10.312151200541626"><ele>43.0</ele><time>2026-04-25T06:45:22Z</time></trkpt><trkpt lat="42.769363195120484" lon="10.31220407425345"><ele>42.28571428571429</ele><time>2026-04-25T06:45:25Z</time></trkpt><trkpt lat="42.769301049861994" lon="10.312262035449637"><ele>41.57142857142857</ele><time>2026-04-25T06:45:27Z</time></trkpt><trkpt lat="42.76922691620658" lon="10.312301784035338"><ele>40.85714285714286</ele><time>2026-04-25T06:45:29Z</time></trkpt><trkpt lat="42.76916005130211" lon="10.312342863316365"><ele>40.142857142857146</ele><time>2026-04-25T06:45:31Z</time></trkpt><trkpt lat="42.76909870800969" lon="10.312389123650966"><ele>39.42857142857143</ele><time>2026-04-25T06:45:33Z</time></trkpt><trkpt lat="42.769059113148856" lon="10.312472020073233"><ele>38.714285714285715</ele><time>2026-04-25T06:45:35Z</time></trkpt><trkpt lat="42.76906786289058" lon="10.312569134522606"><ele>38.0</ele><time>2026-04-25T06:45:38Z</time></trkpt><trkpt lat="42.76907652053723" lon="10.312667783446352"><ele>38.0</ele><time>2026-04-25T06:46:19.001Z</time></trkpt><trkpt lat="42.76906367993397" lon="10.312816631265841"><ele>38.0</ele><time>2026-04-25T06:47:11.001Z</time></trkpt><trkpt lat="42.769087343307504" lon="10.312731405392297"><ele>38.0</ele><time>2026-04-25T06:54:23.001Z</time></trkpt><trkpt lat="42.76908004736609" lon="10.31281866036668"><ele>38.0</ele><time>2026-04-25T07:04:13.027Z</time></trkpt><trkpt lat="42.76901758630917" lon="10.312879163638751"><ele>38.0</ele><time>2026-04-25T07:11:16.035Z</time></trkpt><trkpt lat="42.768991484664795" lon="10.312966838195317"><ele>38.0</ele><time>2026-04-25T07:11:19.035Z</time></trkpt><trkpt lat="42.768954565224426" lon="10.313047722149268"><ele>38.166666666666664</ele><time>2026-04-25T07:12:44.037Z</time></trkpt><trkpt lat="42.76894490795965" lon="10.313142047746288"><ele>38.33333333333333</ele><time>2026-04-25T07:12:48.037Z</time></trkpt><trkpt lat="42.768888146986725" lon="10.313218967976209"><ele>38.5</ele><time>2026-04-25T07:12:50.037Z</time></trkpt><trkpt lat="42.768804816845254" lon="10.313236198262553"><ele>38.666666666666664</ele><time>2026-04-25T07:12:51.037Z</time></trkpt><trkpt lat="42.76868863423743" lon="10.31325525448489"><ele>38.833333333333336</ele><time>2026-04-25T07:12:52.037Z</time></trkpt><trkpt lat="42.76860487798146" lon="10.313263084587955"><ele>39.0</ele><time>2026-04-25T07:12:53.037Z</time></trkpt><trkpt lat="42.76851076345455" lon="10.313263090889238"><ele>38.2</ele><time>2026-04-25T07:12:54.037Z</time></trkpt><trkpt lat="42.768418752758905" lon="10.313264132422619"><ele>37.4</ele><time>2026-04-25T07:12:55.037Z</time></trkpt><trkpt lat="42.768318675441556" lon="10.313276491931578"><ele>36.6</ele><time>2026-04-25T07:12:56.037Z</time></trkpt><trkpt lat="42.76823893326116" lon="10.313285222949581"><ele>35.8</ele><time>2026-04-25T07:12:57.037Z</time></trkpt><trkpt lat="42.7681267427041" lon="10.313302552385359"><ele>35.0</ele><time>2026-04-25T07:12:58.037Z</time></trkpt><trkpt lat="42.768018083053974" lon="10.313310586778398"><ele>35.0</ele><time>2026-04-25T07:12:59.037Z</time></trkpt><trkpt lat="42.767909493277315" lon="10.313321670635997"><ele>35.0</ele><time>2026-04-25T07:13:00.037Z</time></trkpt><trkpt lat="42.76779483824843" lon="10.313336290179706"><ele>35.0</ele><time>2026-04-25T07:13:01.037Z</time></trkpt><trkpt lat="42.76766604267601" lon="10.313356934685842"><ele>35.0</ele><time>2026-04-25T07:13:02.037Z</time></trkpt><trkpt lat="42.767547076584826" lon="10.313387241216354"><ele>33.5</ele><time>2026-04-25T07:13:03.037Z</time></trkpt><trkpt lat="42.76742544909688" lon="10.313425784362822"><ele>32.0</ele><time>2026-04-25T07:13:04.037Z</time></trkpt><trkpt lat="42.76731254864157" lon="10.313469812139044"><ele>30.5</ele><time>2026-04-25T07:13:05.037Z</time></trkpt><trkpt lat="42.76720070311049" lon="10.31351254718223"><ele>29.0</ele><time>2026-04-25T07:13:06.037Z</time></trkpt><trkpt lat="42.76708831565022" lon="10.313552087163666"><ele>29.0</ele><time>2026-04-25T07:13:07.037Z</time></trkpt><trkpt lat="42.76698240460796" lon="10.31358321364381"><ele>29.0</ele><time>2026-04-25T07:13:08.037Z</time></trkpt><trkpt lat="42.7668667915781" lon="10.31360879246568"><ele>29.0</ele><time>2026-04-25T07:13:09.037Z</time></trkpt><trkpt lat="42.76674695397407" lon="10.313617960029802"><ele>29.0</ele><time>2026-04-25T07:13:10.037Z</time></trkpt><trkpt lat="42.76662070910478" lon="10.313637934256045"><ele>27.5</ele><time>2026-04-25T07:13:11.037Z</time></trkpt><trkpt lat="42.7664969527231" lon="10.313653613052148"><ele>26.0</ele><time>2026-04-25T07:13:12.037Z</time></trkpt><trkpt lat="42.76636215286945" lon="10.313667113082927"><ele>24.5</ele><time>2026-04-25T07:13:13.037Z</time></trkpt><trkpt lat="42.76622058363754" lon="10.313678851206554"><ele>23.0</ele><time>2026-04-25T07:13:14.037Z</time></trkpt><trkpt lat="42.7660907924277" lon="10.313695304207089"><ele>22.2</ele><time>2026-04-25T07:13:15.037Z</time></trkpt><trkpt lat="42.76597384800867" lon="10.313705829363514"><ele>21.4</ele><time>2026-04-25T07:13:16.037Z</time></trkpt><trkpt lat="42.76587738028437" lon="10.313707653193468"><ele>20.599999999999998</ele><time>2026-04-25T07:13:17.037Z</time></trkpt><trkpt lat="42.765792962307984" lon="10.313693994297699"><ele>19.799999999999997</ele><time>2026-04-25T07:13:18.037Z</time></trkpt><trkpt lat="42.76571276770489" lon="10.313679535874583"><ele>19.0</ele><time>2026-04-25T07:13:19.037Z</time></trkpt><trkpt lat="42.765637237993424" lon="10.313661961465211"><ele>19.0</ele><time>2026-04-25T07:13:20.037Z</time></trkpt><trkpt lat="42.7655738983395" lon="10.313656621223366"><ele>19.0</ele><time>2026-04-25T07:13:21.037Z</time></trkpt><trkpt lat="42.76548974900016" lon="10.313706653168124"><ele>19.0</ele><time>2026-04-25T07:13:23.037Z</time></trkpt><trkpt lat="42.765443307508576" lon="10.313878781348295"><ele>19.0</ele><time>2026-04-25T07:13:25.037Z</time></trkpt><trkpt lat="42.76539638574349" lon="10.314012742927444"><ele>19.0</ele><time>2026-04-25T07:13:26.037Z</time></trkpt><trkpt lat="42.76533516443858" lon="10.31418164426424"><ele>20.0</ele><time>2026-04-25T07:13:27.037Z</time></trkpt><trkpt lat="42.765269314156306" lon="10.314366871779496"><ele>21.0</ele><time>2026-04-25T07:13:28.037Z</time></trkpt><trkpt lat="42.765203091673506" lon="10.314554318524157"><ele>22.0</ele><time>2026-04-25T07:13:29.037Z</time></trkpt><trkpt lat="42.76514802733065" lon="10.314741794388288"><ele>22.0</ele><time>2026-04-25T07:13:30.037Z</time></trkpt><trkpt lat="42.765079412536046" lon="10.314924335115483"><ele>22.0</ele><time>2026-04-25T07:13:31.037Z</time></trkpt><trkpt lat="42.76501041742197" lon="10.315106497218988"><ele>22.0</ele><time>2026-04-25T07:13:32.037Z</time></trkpt><trkpt lat="42.76494911988731" lon="10.315294849692634"><ele>22.0</ele><time>2026-04-25T07:13:33.037Z</time></trkpt><trkpt lat="42.76488414849211" lon="10.315473217163639"><ele>22.0</ele><time>2026-04-25T07:13:34.037Z</time></trkpt><trkpt lat="42.76482115737728" lon="10.315641963933137"><ele>22.0</ele><time>2026-04-25T07:13:35.037Z</time></trkpt><trkpt lat="42.76476036565862" lon="10.315809486714357"><ele>22.0</ele><time>2026-04-25T07:13:36.037Z</time></trkpt><trkpt lat="42.76470294481398" lon="10.315977114189621"><ele>22.75</ele><time>2026-04-25T07:13:37.037Z</time></trkpt><trkpt lat="42.76464142099299" lon="10.316143324787435"><ele>23.5</ele><time>2026-04-25T07:13:38.037Z</time></trkpt><trkpt lat="42.76458589685242" lon="10.316296245550195"><ele>24.25</ele><time>2026-04-25T07:13:39.037Z</time></trkpt><trkpt lat="42.76453286805424" lon="10.316439144267829"><ele>25.0</ele><time>2026-04-25T07:13:40.037Z</time></trkpt><trkpt lat="42.764484290527506" lon="10.316573064454634"><ele>25.6</ele><time>2026-04-25T07:13:41.037Z</time></trkpt><trkpt lat="42.76444346961183" lon="10.316695136224048"><ele>26.2</ele><time>2026-04-25T07:13:42.037Z</time></trkpt><trkpt lat="42.764411853115654" lon="10.316791987389863"><ele>26.799999999999997</ele><time>2026-04-25T07:13:43.037Z</time></trkpt><trkpt lat="42.76437447016242" lon="10.31694603298224"><ele>27.4</ele><time>2026-04-25T07:13:45.037Z</time></trkpt><trkpt lat="42.76434740670942" lon="10.317078442969551"><ele>28.0</ele><time>2026-04-25T07:13:47.037Z</time></trkpt><trkpt lat="42.764315666658966" lon="10.317219187578452"><ele>28.285714285714285</ele><time>2026-04-25T07:13:49.037Z</time></trkpt><trkpt lat="42.76435718599109" lon="10.317310000313903"><ele>28.57142857142857</ele><time>2026-04-25T07:13:50.037Z</time></trkpt><trkpt lat="42.764381904506706" lon="10.31739580841649"><ele>28.857142857142858</ele><time>2026-04-25T07:13:51.037Z</time></trkpt><trkpt lat="42.76441412620418" lon="10.31747534002536"><ele>29.142857142857142</ele><time>2026-04-25T07:13:52.037Z</time></trkpt><trkpt lat="42.76443968208551" lon="10.317555074460367"><ele>29.428571428571427</ele><time>2026-04-25T07:13:53.037Z</time></trkpt><trkpt lat="42.76447526660324" lon="10.317634719135533"><ele>29.714285714285715</ele><time>2026-04-25T07:13:54.037Z</time></trkpt><trkpt lat="42.7645163795931" lon="10.317705430665605"><ele>30.0</ele><time>2026-04-25T07:13:55.037Z</time></trkpt><trkpt lat="42.764569907517014" lon="10.317769031787668"><ele>30.0</ele><time>2026-04-25T07:13:56.037Z</time></trkpt><trkpt lat="42.76462093931789" lon="10.31783160761499"><ele>30.0</ele><time>2026-04-25T07:13:57.037Z</time></trkpt><trkpt lat="42.76467221104319" lon="10.31788696003848"><ele>30.0</ele><time>2026-04-25T07:13:58.037Z</time></trkpt><trkpt lat="42.764760653192354" lon="10.317992929092132"><ele>30.0</ele><time>2026-04-25T07:14:00.037Z</time></trkpt><trkpt lat="42.764815424505855" lon="10.318148866822462"><ele>30.0</ele><time>2026-04-25T07:14:02.037Z</time></trkpt><trkpt lat="42.76482294566113" lon="10.318247565399284"><ele>29.8</ele><time>2026-04-25T07:14:03.037Z</time></trkpt><trkpt lat="42.76481904628005" lon="10.318353876851909"><ele>29.6</ele><time>2026-04-25T07:14:04.037Z</time></trkpt><trkpt lat="42.764802875896315" lon="10.318474442535296"><ele>29.4</ele><time>2026-04-25T07:14:05.037Z</time></trkpt><trkpt lat="42.764775052363554" lon="10.318602282823182"><ele>29.2</ele><time>2026-04-25T07:14:06.037Z</time></trkpt><trkpt lat="42.764742172285594" lon="10.318740225965254"><ele>29.0</ele><time>2026-04-25T07:14:07.037Z</time></trkpt><trkpt lat="42.7647143429802" lon="10.318880958616804"><ele>29.2</ele><time>2026-04-25T07:14:08.037Z</time></trkpt><trkpt lat="42.76469482969735" lon="10.319030795643576"><ele>29.4</ele><time>2026-04-25T07:14:09.037Z</time></trkpt><trkpt lat="42.764690372514785" lon="10.319177049583947"><ele>29.6</ele><time>2026-04-25T07:14:10.037Z</time></trkpt><trkpt lat="42.76470119115089" lon="10.31931737517994"><ele>29.8</ele><time>2026-04-25T07:14:11.037Z</time></trkpt><trkpt lat="42.76473767277785" lon="10.31944872386247"><ele>30.0</ele><time>2026-04-25T07:14:12.037Z</time></trkpt><trkpt lat="42.76479674973233" lon="10.319569676251321"><ele>30.0</ele><time>2026-04-25T07:14:13.037Z</time></trkpt><trkpt lat="42.764880927774605" lon="10.319677339173195"><ele>30.0</ele><time>2026-04-25T07:14:14.037Z</time></trkpt><trkpt lat="42.764980137045704" lon="10.319777185343876"><ele>30.0</ele><time>2026-04-25T07:14:15.037Z</time></trkpt><trkpt lat="42.76507294040767" lon="10.31986271566817"><ele>30.0</ele><time>2026-04-25T07:14:16.037Z</time></trkpt><trkpt lat="42.76516050555459" lon="10.31993693967211"><ele>31.5</ele><time>2026-04-25T07:14:17.037Z</time></trkpt><trkpt lat="42.765255113276545" lon="10.320010526060901"><ele>33.0</ele><time>2026-04-25T07:14:18.037Z</time></trkpt><trkpt lat="42.76535208243524" lon="10.320094527467234"><ele>34.5</ele><time>2026-04-25T07:14:19.037Z</time></trkpt><trkpt lat="42.76545012835255" lon="10.320180853503384"><ele>36.0</ele><time>2026-04-25T07:14:20.037Z</time></trkpt><trkpt lat="42.765545607264436" lon="10.320294877282581"><ele>36.0</ele><time>2026-04-25T07:14:21.039Z</time></trkpt><trkpt lat="42.765639185590516" lon="10.320428811145224"><ele>36.0</ele><time>2026-04-25T07:14:22.039Z</time></trkpt><trkpt lat="42.7657295534377" lon="10.320574528185977"><ele>36.0</ele><time>2026-04-25T07:14:23.039Z</time></trkpt><trkpt lat="42.76581797710782" lon="10.320701673531389"><ele>36.0</ele><time>2026-04-25T07:14:24.04Z</time></trkpt><trkpt lat="42.76590635198951" lon="10.320805048381418"><ele>36.0</ele><time>2026-04-25T07:14:25.04Z</time></trkpt><trkpt lat="42.76599522152958" lon="10.320909508642693"><ele>36.0</ele><time>2026-04-25T07:14:26.04Z</time></trkpt><trkpt lat="42.76607638291406" lon="10.321015150077683"><ele>36.0</ele><time>2026-04-25T07:14:27.04Z</time></trkpt><trkpt lat="42.76614650310668" lon="10.321130939553148"><ele>36.0</ele><time>2026-04-25T07:14:28.04Z</time></trkpt><trkpt lat="42.76621392304741" lon="10.321270893997745"><ele>36.8</ele><time>2026-04-25T07:14:29.04Z</time></trkpt><trkpt lat="42.76627503537793" lon="10.32140522002366"><ele>37.6</ele><time>2026-04-25T07:14:30.04Z</time></trkpt><trkpt lat="42.766332912349434" lon="10.321536470506151"><ele>38.4</ele><time>2026-04-25T07:14:31.04Z</time></trkpt><trkpt lat="42.76638641324649" lon="10.321661603061433"><ele>39.2</ele><time>2026-04-25T07:14:32.04Z</time></trkpt><trkpt lat="42.76644181087835" lon="10.321776489656427"><ele>40.0</ele><time>2026-04-25T07:14:33.04Z</time></trkpt><trkpt lat="42.76649277245377" lon="10.321885554460792"><ele>40.0</ele><time>2026-04-25T07:14:34.04Z</time></trkpt><trkpt lat="42.76653058969438" lon="10.321994365314339"><ele>40.0</ele><time>2026-04-25T07:14:35.04Z</time></trkpt><trkpt lat="42.76653054934535" lon="10.322109305550915"><ele>40.0</ele><time>2026-04-25T07:14:36.04Z</time></trkpt><trkpt lat="42.76649655109833" lon="10.322209509641832"><ele>40.0</ele><time>2026-04-25T07:14:37.04Z</time></trkpt><trkpt lat="42.76642625943993" lon="10.322298350784795"><ele>40.0</ele><time>2026-04-25T07:14:38.04Z</time></trkpt><trkpt lat="42.76632323482294" lon="10.322372116175533"><ele>39.6</ele><time>2026-04-25T07:14:39.04Z</time></trkpt><trkpt lat="42.766223447686556" lon="10.32244026940428"><ele>39.2</ele><time>2026-04-25T07:14:40.04Z</time></trkpt><trkpt lat="42.76613551863519" lon="10.322515956951047"><ele>38.8</ele><time>2026-04-25T07:14:41.04Z</time></trkpt><trkpt lat="42.766067133462165" lon="10.322614618776324"><ele>38.4</ele><time>2026-04-25T07:14:42.04Z</time></trkpt><trkpt lat="42.766038631295345" lon="10.322733544400625"><ele>38.0</ele><time>2026-04-25T07:14:43.04Z</time></trkpt><trkpt lat="42.76604312773569" lon="10.322882120395285"><ele>38.25</ele><time>2026-04-25T07:14:44.04Z</time></trkpt><trkpt lat="42.76600340247041" lon="10.323141801792861"><ele>38.5</ele><time>2026-04-25T07:14:46.04Z</time></trkpt><trkpt lat="42.76595114844429" lon="10.323224627004787"><ele>38.75</ele><time>2026-04-25T07:14:47.04Z</time></trkpt><trkpt lat="42.7658615604566" lon="10.323281556255866"><ele>39.0</ele><time>2026-04-25T07:14:48.04Z</time></trkpt><trkpt lat="42.76574656463616" lon="10.323333311473238"><ele>39.0</ele><time>2026-04-25T07:14:49.04Z</time></trkpt><trkpt lat="42.765619751292164" lon="10.32336868650813"><ele>39.0</ele><time>2026-04-25T07:14:50.04Z</time></trkpt><trkpt lat="42.765492462867535" lon="10.323415094755056"><ele>39.0</ele><time>2026-04-25T07:14:51.04Z</time></trkpt><trkpt lat="42.76538065445951" lon="10.323459250530375"><ele>39.0</ele><time>2026-04-25T07:14:52.04Z</time></trkpt><trkpt lat="42.76528252823091" lon="10.323512374054593"><ele>39.0</ele><time>2026-04-25T07:14:53.04Z</time></trkpt><trkpt lat="42.765206859861635" lon="10.323591009898305"><ele>39.0</ele><time>2026-04-25T07:14:54.04Z</time></trkpt><trkpt lat="42.76517704914441" lon="10.323695891764247"><ele>39.0</ele><time>2026-04-25T07:14:55.04Z</time></trkpt><trkpt lat="42.76517885637498" lon="10.323807593657488"><ele>39.0</ele><time>2026-04-25T07:14:56.04Z</time></trkpt><trkpt lat="42.765226489673225" lon="10.323906150634816"><ele>39.0</ele><time>2026-04-25T07:14:57.04Z</time></trkpt><trkpt lat="42.76529318689269" lon="10.323991573051844"><ele>39.0</ele><time>2026-04-25T07:14:58.04Z</time></trkpt><trkpt lat="42.76537566091966" lon="10.324040911698885"><ele>38.333333333333336</ele><time>2026-04-25T07:14:59.04Z</time></trkpt><trkpt lat="42.76543635709039" lon="10.32410228307205"><ele>37.666666666666664</ele><time>2026-04-25T07:15:00.04Z</time></trkpt><trkpt lat="42.76545723531339" lon="10.324194919218952"><ele>37.0</ele><time>2026-04-25T07:15:01.04Z</time></trkpt><trkpt lat="42.76543498564399" lon="10.324293725452398"><ele>36.33333333333333</ele><time>2026-04-25T07:15:02.04Z</time></trkpt><trkpt lat="42.76537253912664" lon="10.324377813349368"><ele>35.666666666666664</ele><time>2026-04-25T07:15:03.04Z</time></trkpt><trkpt lat="42.7652800278841" lon="10.324446183128417"><ele>35.0</ele><time>2026-04-25T07:15:04.04Z</time></trkpt><trkpt lat="42.76518047380196" lon="10.324471749531765"><ele>35.0</ele><time>2026-04-25T07:15:05.04Z</time></trkpt><trkpt lat="42.765087054014266" lon="10.324510576889548"><ele>35.0</ele><time>2026-04-25T07:15:06.04Z</time></trkpt><trkpt lat="42.765023074018124" lon="10.324575930496238"><ele>35.0</ele><time>2026-04-25T07:15:07.04Z</time></trkpt><trkpt lat="42.76497704553884" lon="10.324635752280361"><ele>35.0</ele><time>2026-04-25T07:15:08.04Z</time></trkpt><trkpt lat="42.76491270694485" lon="10.324751181949509"><ele>35.0</ele><time>2026-04-25T07:15:10.04Z</time></trkpt><trkpt lat="42.764888294523196" lon="10.324871068347637"><ele>35.0</ele><time>2026-04-25T07:15:12.04Z</time></trkpt><trkpt lat="42.76486764648917" lon="10.32495818406907"><ele>36.666666666666664</ele><time>2026-04-25T07:15:14.04Z</time></trkpt><trkpt lat="42.764848893698705" lon="10.325042339711162"><ele>38.33333333333333</ele><time>2026-04-25T07:15:16.04Z</time></trkpt><trkpt lat="42.76483408608161" lon="10.32512666883295"><ele>40.0</ele><time>2026-04-25T07:15:19.04Z</time></trkpt><trkpt lat="42.76493369643232" lon="10.325076607923876"><ele>41.666666666666664</ele><time>2026-04-25T07:15:24.04Z</time></trkpt><trkpt lat="42.76497648105807" lon="10.325012073623775"><ele>43.333333333333336</ele><time>2026-04-25T07:15:26.04Z</time></trkpt><trkpt lat="42.76503802993676" lon="10.324912596332082"><ele>45.0</ele><time>2026-04-25T07:15:29.04Z</time></trkpt><trkpt lat="42.7651065934967" lon="10.324885816038782"><ele>45.0</ele><time>2026-04-25T07:15:58.04Z</time></trkpt><trkpt lat="42.76518611308098" lon="10.32488808206173"><ele>45.0</ele><time>2026-04-25T07:16:02.04Z</time></trkpt><trkpt lat="42.76525467900714" lon="10.3249340607268"><ele>45.0</ele><time>2026-04-25T07:16:04.04Z</time></trkpt><trkpt lat="42.76531960043968" lon="10.32499816755353"><ele>45.0</ele><time>2026-04-25T07:16:07.04Z</time></trkpt><trkpt lat="42.76534299295663" lon="10.3250893864314"><ele>45.0</ele><time>2026-04-25T07:16:09.04Z</time></trkpt><trkpt lat="42.76540470578467" lon="10.325152567164547"><ele>45.0</ele><time>2026-04-25T07:16:12.04Z</time></trkpt><trkpt lat="42.765484175341264" lon="10.325207828655506"><ele>46.166666666666664</ele><time>2026-04-25T07:16:15.04Z</time></trkpt><trkpt lat="42.76554061487396" lon="10.325302264860763"><ele>47.33333333333333</ele><time>2026-04-25T07:16:18.04Z</time></trkpt><trkpt lat="42.76559088028389" lon="10.325397651691189"><ele>48.5</ele><time>2026-04-25T07:16:21.04Z</time></trkpt><trkpt lat="42.76561470391663" lon="10.325491042632036"><ele>49.666666666666664</ele><time>2026-04-25T07:16:25.04Z</time></trkpt><trkpt lat="42.765626662984964" lon="10.325575743064121"><ele>50.83333333333333</ele><time>2026-04-25T07:16:28.042Z</time></trkpt><trkpt lat="42.76560879871989" lon="10.325685258420542"><ele>52.0</ele><time>2026-04-25T07:16:31.042Z</time></trkpt><trkpt lat="42.765612762178876" lon="10.325776050247255"><ele>53.99999999999999</ele><time>2026-04-25T07:16:34.043Z</time></trkpt><trkpt lat="42.76561112457048" lon="10.32588634073073"><ele>56.0</ele><time>2026-04-25T07:16:37.042Z</time></trkpt><trkpt lat="42.76560544529649" lon="10.32599525308118"><ele>58.0</ele><time>2026-04-25T07:16:40.042Z</time></trkpt><trkpt lat="42.765600568833584" lon="10.326087744654274"><ele>60.0</ele><time>2026-04-25T07:16:42.042Z</time></trkpt><trkpt lat="42.76560798442519" lon="10.326220735967127"><ele>61.99999999999999</ele><time>2026-04-25T07:16:44.042Z</time></trkpt><trkpt lat="42.76562796367779" lon="10.326302080170855"><ele>64.0</ele><time>2026-04-25T07:16:47.042Z</time></trkpt><trkpt lat="42.76563579683216" lon="10.326401414404776"><ele>66.33333333333333</ele><time>2026-04-25T07:16:50.042Z</time></trkpt><trkpt lat="42.76562108102409" lon="10.326502964941044"><ele>68.66666666666666</ele><time>2026-04-25T07:16:53.042Z</time></trkpt><trkpt lat="42.76563611489219" lon="10.32661679318231"><ele>71.0</ele><time>2026-04-25T07:16:56.042Z</time></trkpt><trkpt lat="42.765606809347965" lon="10.32672874815627"><ele>73.33333333333333</ele><time>2026-04-25T07:16:59.042Z</time></trkpt><trkpt lat="42.76558881520841" lon="10.326856531898452"><ele>75.66666666666667</ele><time>2026-04-25T07:17:02.042Z</time></trkpt><trkpt lat="42.765581053176604" lon="10.32696548831655"><ele>78.0</ele><time>2026-04-25T07:17:05.042Z</time></trkpt><trkpt lat="42.7655987329646" lon="10.327068118851008"><ele>78.0</ele><time>2026-04-25T07:17:08.042Z</time></trkpt><trkpt lat="42.76559566305671" lon="10.327190030599986"><ele>78.0</ele><time>2026-04-25T07:17:11.042Z</time></trkpt><trkpt lat="42.765589227226656" lon="10.327332759373048"><ele>78.0</ele><time>2026-04-25T07:17:14.042Z</time></trkpt><trkpt lat="42.765597084758305" lon="10.327425568222942"><ele>78.0</ele><time>2026-04-25T07:17:15.042Z</time></trkpt><trkpt lat="42.76560854320397" lon="10.327517677733669"><ele>78.0</ele><time>2026-04-25T07:17:16.042Z</time></trkpt><trkpt lat="42.76561939426386" lon="10.327603610782385"><ele>78.0</ele><time>2026-04-25T07:17:17.042Z</time></trkpt><trkpt lat="42.76561497774077" lon="10.327697397649287"><ele>80.2</ele><time>2026-04-25T07:17:18.042Z</time></trkpt><trkpt lat="42.76561457212813" lon="10.327849676200533"><ele>82.4</ele><time>2026-04-25T07:17:20.042Z</time></trkpt><trkpt lat="42.76565694216616" lon="10.327966363890235"><ele>84.60000000000001</ele><time>2026-04-25T07:17:22.043Z</time></trkpt><trkpt lat="42.7656674484253" lon="10.328062962623386"><ele>86.8</ele><time>2026-04-25T07:17:23.043Z</time></trkpt><trkpt lat="42.76568046790935" lon="10.32821873826455"><ele>89.0</ele><time>2026-04-25T07:17:25.043Z</time></trkpt><trkpt lat="42.76569851341601" lon="10.32838063953262"><ele>91.5</ele><time>2026-04-25T07:17:27.043Z</time></trkpt><trkpt lat="42.765716459061466" lon="10.328480109578546"><ele>94.0</ele><time>2026-04-25T07:17:28.043Z</time></trkpt><trkpt lat="42.765720987336714" lon="10.328582279815674"><ele>96.5</ele><time>2026-04-25T07:17:29.043Z</time></trkpt><trkpt lat="42.765716665813606" lon="10.328723699352027"><ele>99.0</ele><time>2026-04-25T07:17:31.043Z</time></trkpt><trkpt lat="42.76573548432072" lon="10.328808146776511"><ele>101.49999999999999</ele><time>2026-04-25T07:17:33.043Z</time></trkpt><trkpt lat="42.76575195516759" lon="10.328945018987342"><ele>104.0</ele><time>2026-04-25T07:20:59.047Z</time></trkpt><trkpt lat="42.76577199989732" lon="10.329028265625766"><ele>105.0</ele><time>2026-04-25T07:21:01.047Z</time></trkpt><trkpt lat="42.76586026770905" lon="10.329192921746296"><ele>106.0</ele><time>2026-04-25T07:21:03.047Z</time></trkpt><trkpt lat="42.76594347209653" lon="10.32925430511764"><ele>107.0</ele><time>2026-04-25T07:21:04.047Z</time></trkpt><trkpt lat="42.766020014150634" lon="10.329307739051128"><ele>108.0</ele><time>2026-04-25T07:21:05.047Z</time></trkpt><trkpt lat="42.7660988083381" lon="10.32937578518683"><ele>109.0</ele><time>2026-04-25T07:21:06.047Z</time></trkpt><trkpt lat="42.76616174722573" lon="10.329454331997955"><ele>113.50000000000001</ele><time>2026-04-25T07:21:07.047Z</time></trkpt><trkpt lat="42.76621350612302" lon="10.329524904781874"><ele>118.0</ele><time>2026-04-25T07:21:08.047Z</time></trkpt><trkpt lat="42.766284598629284" lon="10.329585295246128"><ele>122.5</ele><time>2026-04-25T07:21:10.047Z</time></trkpt><trkpt lat="42.76629719569804" lon="10.32946340543213"><ele>127.0</ele><time>2026-04-25T07:21:12.047Z</time></trkpt><trkpt lat="42.76625301392145" lon="10.329392054385789"><ele>131.5</ele><time>2026-04-25T07:21:13.047Z</time></trkpt><trkpt lat="42.766190893110554" lon="10.329339170115434"><ele>136.0</ele><time>2026-04-25T07:21:14.047Z</time></trkpt><trkpt lat="42.76613367383227" lon="10.329251139961093"><ele>136.0</ele><time>2026-04-25T07:21:15.047Z</time></trkpt><trkpt lat="42.76611501919973" lon="10.329158888720652"><ele>136.0</ele><time>2026-04-25T07:21:16.047Z</time></trkpt><trkpt lat="42.76609597876393" lon="10.329065334036407"><ele>136.0</ele><time>2026-04-25T07:21:17.046Z</time></trkpt><trkpt lat="42.76609080551792" lon="10.328947498553248"><ele>136.0</ele><time>2026-04-25T07:21:18.046Z</time></trkpt><trkpt lat="42.766107081319795" lon="10.32884242461341"><ele>136.0</ele><time>2026-04-25T07:21:19.045Z</time></trkpt><trkpt lat="42.766178115664516" lon="10.328780589857413"><ele>136.0</ele><time>2026-04-25T07:21:20.045Z</time></trkpt><trkpt lat="42.766252102792365" lon="10.328757845250509"><ele>132.8</ele><time>2026-04-25T07:21:21.044Z</time></trkpt><trkpt lat="42.766344492490234" lon="10.328743127819877"><ele>129.6</ele><time>2026-04-25T07:21:22.044Z</time></trkpt><trkpt lat="42.76645578405134" lon="10.328740247555876"><ele>126.4</ele><time>2026-04-25T07:21:23.043Z</time></trkpt><trkpt lat="42.76655227117394" lon="10.328749339203888"><ele>123.2</ele><time>2026-04-25T07:21:24.043Z</time></trkpt><trkpt lat="42.766647119620366" lon="10.328725836892511"><ele>120.0</ele><time>2026-04-25T07:21:25.042Z</time></trkpt><trkpt lat="42.76673880894539" lon="10.328708348754432"><ele>120.0</ele><time>2026-04-25T07:21:26.042Z</time></trkpt><trkpt lat="42.766815157579884" lon="10.328720149288328"><ele>120.0</ele><time>2026-04-25T07:21:27.042Z</time></trkpt><trkpt lat="42.76688359221734" lon="10.328768281924848"><ele>120.0</ele><time>2026-04-25T07:21:28.041Z</time></trkpt><trkpt lat="42.766947850499925" lon="10.328837665499494"><ele>120.0</ele><time>2026-04-25T07:21:29.041Z</time></trkpt><trkpt lat="42.76697552425007" lon="10.32896282211455"><ele>120.0</ele><time>2026-04-25T07:21:31.04Z</time></trkpt><trkpt lat="42.76686489945467" lon="10.329015703096369"><ele>120.0</ele><time>2026-04-25T07:21:33.04Z</time></trkpt><trkpt lat="42.76677682202855" lon="10.3290266769675"><ele>123.2</ele><time>2026-04-25T07:21:35.039Z</time></trkpt><trkpt lat="42.766755361993894" lon="10.329122783003909"><ele>126.4</ele><time>2026-04-25T07:21:37.039Z</time></trkpt><trkpt lat="42.766847445238724" lon="10.329232542807317"><ele>129.6</ele><time>2026-04-25T07:21:39.039Z</time></trkpt><trkpt lat="42.76692186900596" lon="10.329280660130012"><ele>132.8</ele><time>2026-04-25T07:21:40.039Z</time></trkpt><trkpt lat="42.767000601952844" lon="10.32934440473772"><ele>136.0</ele><time>2026-04-25T07:21:41.038Z</time></trkpt><trkpt lat="42.767089677718175" lon="10.32943465086118"><ele>137.5</ele><time>2026-04-25T07:21:42.038Z</time></trkpt><trkpt lat="42.76720238918317" lon="10.329528207942525"><ele>139.0</ele><time>2026-04-25T07:21:43.038Z</time></trkpt><trkpt lat="42.767301070642326" lon="10.329627044687742"><ele>140.5</ele><time>2026-04-25T07:21:44.038Z</time></trkpt><trkpt lat="42.76739722714591" lon="10.329681278323292"><ele>142.0</ele><time>2026-04-25T07:21:45.038Z</time></trkpt><trkpt lat="42.76747653094352" lon="10.32975846514823"><ele>145.0</ele><time>2026-04-25T07:21:46.038Z</time></trkpt><trkpt lat="42.7675540409964" lon="10.329838791146432"><ele>148.0</ele><time>2026-04-25T07:21:47.038Z</time></trkpt><trkpt lat="42.767632201609295" lon="10.329965971058241"><ele>151.0</ele><time>2026-04-25T07:21:48.038Z</time></trkpt><trkpt lat="42.76771580057759" lon="10.330096337750797"><ele>154.0</ele><time>2026-04-25T07:21:49.037Z</time></trkpt><trkpt lat="42.76777698643592" lon="10.330218193632938"><ele>157.75</ele><time>2026-04-25T07:21:50.037Z</time></trkpt><trkpt lat="42.76783611056361" lon="10.330318574887889"><ele>161.5</ele><time>2026-04-25T07:21:51.037Z</time></trkpt><trkpt lat="42.76791520035044" lon="10.330433997653971"><ele>165.25</ele><time>2026-04-25T07:21:52.037Z</time></trkpt><trkpt lat="42.767986368889815" lon="10.330550522057175"><ele>169.0</ele><time>2026-04-25T07:21:53.037Z</time></trkpt><trkpt lat="42.76805761410715" lon="10.33070241740155"><ele>170.83333333333334</ele><time>2026-04-25T07:21:54.037Z</time></trkpt><trkpt lat="42.76811555351608" lon="10.330845833916918"><ele>172.66666666666669</ele><time>2026-04-25T07:21:55.037Z</time></trkpt><trkpt lat="42.76814927340091" lon="10.330970391721596"><ele>174.5</ele><time>2026-04-25T07:21:56.037Z</time></trkpt><trkpt lat="42.7681534153179" lon="10.331066615924158"><ele>176.33333333333334</ele><time>2026-04-25T07:21:57.037Z</time></trkpt><trkpt lat="42.768117144653935" lon="10.33114553332843"><ele>178.16666666666666</ele><time>2026-04-25T07:21:58.037Z</time></trkpt><trkpt lat="42.768077020960945" lon="10.331238970466316"><ele>180.0</ele><time>2026-04-25T07:21:59.037Z</time></trkpt><trkpt lat="42.76803318147788" lon="10.331385302887114"><ele>181.0</ele><time>2026-04-25T07:22:00.037Z</time></trkpt><trkpt lat="42.76801174580772" lon="10.331530686610005"><ele>182.0</ele><time>2026-04-25T07:22:01.037Z</time></trkpt><trkpt lat="42.76800650166169" lon="10.331680056032553"><ele>183.0</ele><time>2026-04-25T07:22:02.037Z</time></trkpt><trkpt lat="42.76802004930514" lon="10.331876543999162"><ele>184.0</ele><time>2026-04-25T07:22:03.037Z</time></trkpt><trkpt lat="42.768044505815176" lon="10.3320402374243"><ele>184.0</ele><time>2026-04-25T07:22:04.037Z</time></trkpt><trkpt lat="42.76807168998588" lon="10.332148966288019"><ele>184.0</ele><time>2026-04-25T07:22:05.037Z</time></trkpt><trkpt lat="42.76810926859253" lon="10.332238720191022"><ele>184.0</ele><time>2026-04-25T07:22:06.037Z</time></trkpt><trkpt lat="42.7681655833574" lon="10.332329046876835"><ele>184.0</ele><time>2026-04-25T07:22:07.037Z</time></trkpt><trkpt lat="42.76824022998403" lon="10.332400548337773"><ele>184.0</ele><time>2026-04-25T07:22:08.036Z</time></trkpt><trkpt lat="42.768312420956256" lon="10.332449238943278"><ele>184.0</ele><time>2026-04-25T07:22:09.036Z</time></trkpt><trkpt lat="42.768436667960046" lon="10.332395670119542"><ele>184.0</ele><time>2026-04-25T07:22:11.036Z</time></trkpt><trkpt lat="42.76846941610446" lon="10.332318866143423"><ele>184.0</ele><time>2026-04-25T07:22:12.036Z</time></trkpt><trkpt lat="42.76842066115907" lon="10.332166073930017"><ele>184.0</ele><time>2026-04-25T07:22:14.036Z</time></trkpt><trkpt lat="42.76836506202806" lon="10.332056350671287"><ele>184.0</ele><time>2026-04-25T07:22:15.036Z</time></trkpt><trkpt lat="42.76832024736245" lon="10.331926921781399"><ele>184.0</ele><time>2026-04-25T07:22:16.036Z</time></trkpt><trkpt lat="42.768310800811705" lon="10.331795309424207"><ele>184.0</ele><time>2026-04-25T07:22:17.036Z</time></trkpt><trkpt lat="42.76832800152995" lon="10.33167383159603"><ele>184.0</ele><time>2026-04-25T07:22:18.036Z</time></trkpt><trkpt lat="42.768376803004266" lon="10.3315788198949"><ele>184.0</ele><time>2026-04-25T07:22:19.036Z</time></trkpt><trkpt lat="42.76845392129319" lon="10.33148536690918"><ele>184.0</ele><time>2026-04-25T07:22:20.036Z</time></trkpt><trkpt lat="42.76856683050447" lon="10.331365763919921"><ele>184.0</ele><time>2026-04-25T07:22:21.036Z</time></trkpt><trkpt lat="42.768694316600666" lon="10.331243990354894"><ele>186.2</ele><time>2026-04-25T07:22:22.036Z</time></trkpt><trkpt lat="42.76882158398058" lon="10.331111559495271"><ele>188.39999999999998</ele><time>2026-04-25T07:22:23.036Z</time></trkpt><trkpt lat="42.7688964055045" lon="10.331025455105461"><ele>190.6</ele><time>2026-04-25T07:22:24.036Z</time></trkpt><trkpt lat="42.768989817690596" lon="10.331072078021586"><ele>192.8</ele><time>2026-04-25T07:22:26.036Z</time></trkpt><trkpt lat="42.769040957194676" lon="10.331151657270057"><ele>195.0</ele><time>2026-04-25T07:22:27.036Z</time></trkpt><trkpt lat="42.76912360233852" lon="10.33122760696572"><ele>195.0</ele><time>2026-04-25T07:22:28.036Z</time></trkpt><trkpt lat="42.76924142840802" lon="10.331313171309517"><ele>195.0</ele><time>2026-04-25T07:22:29.036Z</time></trkpt><trkpt lat="42.76936520574099" lon="10.331404036443024"><ele>195.0</ele><time>2026-04-25T07:22:30.036Z</time></trkpt><trkpt lat="42.76950735153749" lon="10.331505375095777"><ele>195.0</ele><time>2026-04-25T07:22:31.036Z</time></trkpt><trkpt lat="42.76961867821752" lon="10.33157923905545"><ele>197.16666666666666</ele><time>2026-04-25T07:22:32.036Z</time></trkpt><trkpt lat="42.769704434182366" lon="10.331628169602716"><ele>199.33333333333331</ele><time>2026-04-25T07:22:33.036Z</time></trkpt><trkpt lat="42.76977457006291" lon="10.331665949810787"><ele>201.5</ele><time>2026-04-25T07:22:34.036Z</time></trkpt><trkpt lat="42.769839190748726" lon="10.331699711434947"><ele>203.66666666666666</ele><time>2026-04-25T07:22:35.036Z</time></trkpt><trkpt lat="42.76994052762173" lon="10.33173371717449"><ele>205.83333333333331</ele><time>2026-04-25T07:22:37.036Z</time></trkpt><trkpt lat="42.77003007927544" lon="10.331757234841605"><ele>208.0</ele><time>2026-04-25T07:22:39.036Z</time></trkpt><trkpt lat="42.77016700103091" lon="10.33151985972656"><ele>210.83333333333331</ele><time>2026-04-25T07:23:00.038Z</time></trkpt><trkpt lat="42.77023994841973" lon="10.331411088079731"><ele>213.66666666666666</ele><time>2026-04-25T07:23:02.038Z</time></trkpt><trkpt lat="42.770306877367425" lon="10.331348286710849"><ele>216.5</ele><time>2026-04-25T07:23:03.038Z</time></trkpt><trkpt lat="42.770382068557815" lon="10.3312973047481"><ele>219.33333333333331</ele><time>2026-04-25T07:23:04.038Z</time></trkpt><trkpt lat="42.770472845395126" lon="10.331250471723832"><ele>222.16666666666666</ele><time>2026-04-25T07:23:05.038Z</time></trkpt><trkpt lat="42.77053917492338" lon="10.33120051703606"><ele>225.0</ele><time>2026-04-25T07:23:06.038Z</time></trkpt><trkpt lat="42.770619593593345" lon="10.331159857652183"><ele>226.0</ele><time>2026-04-25T07:23:07.038Z</time></trkpt><trkpt lat="42.77067496381117" lon="10.331112019717946"><ele>227.0</ele><time>2026-04-25T07:23:08.038Z</time></trkpt><trkpt lat="42.77076234582413" lon="10.331027040685994"><ele>228.0</ele><time>2026-04-25T07:23:10.038Z</time></trkpt><trkpt lat="42.77077954893191" lon="10.330932783419508"><ele>229.0</ele><time>2026-04-25T07:23:13.038Z</time></trkpt><trkpt lat="42.77076981620384" lon="10.330813935449344"><ele>230.0</ele><time>2026-04-25T07:23:17.038Z</time></trkpt><trkpt lat="42.770775186604375" lon="10.330643108179526"><ele>230.33333333333334</ele><time>2026-04-25T07:23:20.038Z</time></trkpt><trkpt lat="42.77079205652976" lon="10.330540511720688"><ele>230.66666666666669</ele><time>2026-04-25T07:23:21.038Z</time></trkpt><trkpt lat="42.77080020738148" lon="10.330442200732955"><ele>231.0</ele><time>2026-04-25T07:23:22.038Z</time></trkpt><trkpt lat="42.77078791888394" lon="10.330332746944572"><ele>231.33333333333331</ele><time>2026-04-25T07:23:23.038Z</time></trkpt><trkpt lat="42.770750642592134" lon="10.330253076979444"><ele>231.66666666666666</ele><time>2026-04-25T07:23:24.038Z</time></trkpt><trkpt lat="42.77069523534732" lon="10.330146653076843"><ele>232.0</ele><time>2026-04-25T07:23:25.038Z</time></trkpt><trkpt lat="42.77062967140263" lon="10.330042986544028"><ele>232.0</ele><time>2026-04-25T07:23:26.038Z</time></trkpt><trkpt lat="42.77057151166998" lon="10.329904811721331"><ele>232.0</ele><time>2026-04-25T07:23:27.038Z</time></trkpt><trkpt lat="42.77053232944185" lon="10.329764605060245"><ele>232.0</ele><time>2026-04-25T07:23:28.038Z</time></trkpt><trkpt lat="42.77049417573683" lon="10.329607584187304"><ele>232.0</ele><time>2026-04-25T07:23:29.038Z</time></trkpt><trkpt lat="42.770467523875645" lon="10.329439365819635"><ele>230.99999999999997</ele><time>2026-04-25T07:23:30.038Z</time></trkpt><trkpt lat="42.77045303414936" lon="10.329284062833027"><ele>230.0</ele><time>2026-04-25T07:23:31.038Z</time></trkpt><trkpt lat="42.77045361657286" lon="10.329142548521908"><ele>229.0</ele><time>2026-04-25T07:23:32.038Z</time></trkpt><trkpt lat="42.770453759494366" lon="10.329023074974991"><ele>228.0</ele><time>2026-04-25T07:23:33.038Z</time></trkpt><trkpt lat="42.77045503370455" lon="10.32893670785015"><ele>226.99999999999997</ele><time>2026-04-25T07:23:34.038Z</time></trkpt><trkpt lat="42.77049586204242" lon="10.328851700533912"><ele>226.0</ele><time>2026-04-25T07:23:35.038Z</time></trkpt><trkpt lat="42.7705433928494" lon="10.328786372831864"><ele>221.20000000000002</ele><time>2026-04-25T07:23:36.038Z</time></trkpt><trkpt lat="42.77060796563539" lon="10.328747104907302"><ele>216.40000000000003</ele><time>2026-04-25T07:23:37.038Z</time></trkpt><trkpt lat="42.77069175723271" lon="10.328743987195466"><ele>211.6</ele><time>2026-04-25T07:23:38.038Z</time></trkpt><trkpt lat="42.770784426726124" lon="10.328769360398892"><ele>206.8</ele><time>2026-04-25T07:23:39.038Z</time></trkpt><trkpt lat="42.77090433099949" lon="10.328824787044757"><ele>202.0</ele><time>2026-04-25T07:23:40.038Z</time></trkpt><trkpt lat="42.77105019478881" lon="10.328890997105711"><ele>208.75</ele><time>2026-04-25T07:23:41.038Z</time></trkpt><trkpt lat="42.77118602005626" lon="10.328930489883389"><ele>215.5</ele><time>2026-04-25T07:23:42.038Z</time></trkpt><trkpt lat="42.77132103470301" lon="10.328970283275543"><ele>222.25</ele><time>2026-04-25T07:23:43.038Z</time></trkpt><trkpt lat="42.77143805423861" lon="10.329005862526792"><ele>229.0</ele><time>2026-04-25T07:23:44.038Z</time></trkpt><trkpt lat="42.7715411796393" lon="10.329062599294378"><ele>228.99999999999997</ele><time>2026-04-25T07:23:45.038Z</time></trkpt><trkpt lat="42.77162188611909" lon="10.32907955353938"><ele>229.0</ele><time>2026-04-25T07:23:46.038Z</time></trkpt><trkpt lat="42.77170952579271" lon="10.329115350869257"><ele>229.0</ele><time>2026-04-25T07:23:47.038Z</time></trkpt><trkpt lat="42.7717813583358" lon="10.32913559502367"><ele>229.0</ele><time>2026-04-25T07:23:48.038Z</time></trkpt><trkpt lat="42.77186615631788" lon="10.329151341056374"><ele>228.99999999999997</ele><time>2026-04-25T07:23:49.038Z</time></trkpt><trkpt lat="42.77194809664232" lon="10.32912075353549"><ele>229.0</ele><time>2026-04-25T07:23:50.038Z</time></trkpt><trkpt lat="42.77204664790973" lon="10.329057815578018"><ele>228.5</ele><time>2026-04-25T07:23:51.038Z</time></trkpt><trkpt lat="42.77215219971118" lon="10.328989776915849"><ele>228.0</ele><time>2026-04-25T07:23:52.038Z</time></trkpt><trkpt lat="42.77226905410371" lon="10.328947188099662"><ele>227.5</ele><time>2026-04-25T07:23:53.038Z</time></trkpt><trkpt lat="42.772387329728744" lon="10.328912821257207"><ele>227.0</ele><time>2026-04-25T07:23:54.038Z</time></trkpt><trkpt lat="42.77249579348949" lon="10.328876736621684"><ele>227.0</ele><time>2026-04-25T07:23:55.038Z</time></trkpt><trkpt lat="42.77260489201504" lon="10.328836073429633"><ele>227.0</ele><time>2026-04-25T07:23:56.038Z</time></trkpt><trkpt lat="42.77270870787409" lon="10.328810804033928"><ele>227.0</ele><time>2026-04-25T07:23:57.038Z</time></trkpt><trkpt lat="42.77281291606726" lon="10.328810289822083"><ele>227.0</ele><time>2026-04-25T07:23:58.038Z</time></trkpt><trkpt lat="42.77289840936643" lon="10.328831463903065"><ele>227.0</ele><time>2026-04-25T07:23:59.038Z</time></trkpt><trkpt lat="42.7729644329363" lon="10.328855234205907"><ele>230.50000000000003</ele><time>2026-04-25T07:24:00.038Z</time></trkpt><trkpt lat="42.77302805780358" lon="10.328891351217985"><ele>234.0</ele><time>2026-04-25T07:24:01.038Z</time></trkpt><trkpt lat="42.77308953798592" lon="10.328934195580842"><ele>237.5</ele><time>2026-04-25T07:24:02.038Z</time></trkpt><trkpt lat="42.77317171646331" lon="10.32887090801422"><ele>241.0</ele><time>2026-04-25T07:24:04.038Z</time></trkpt><trkpt lat="42.77317771706202" lon="10.3287815158646"><ele>244.50000000000003</ele><time>2026-04-25T07:24:05.038Z</time></trkpt><trkpt lat="42.77315109056479" lon="10.328665669308"><ele>248.0</ele><time>2026-04-25T07:24:06.038Z</time></trkpt><trkpt lat="42.77310160692867" lon="10.328536419552778"><ele>248.0</ele><time>2026-04-25T07:24:07.038Z</time></trkpt><trkpt lat="42.77302938596109" lon="10.328430078365415"><ele>248.0</ele><time>2026-04-25T07:24:08.038Z</time></trkpt><trkpt lat="42.77297684211293" lon="10.328354551192287"><ele>248.0</ele><time>2026-04-25T07:24:09.038Z</time></trkpt><trkpt lat="42.772994600827055" lon="10.328237237731553"><ele>248.0</ele><time>2026-04-25T07:24:11.038Z</time></trkpt><trkpt lat="42.773108910063904" lon="10.328239232182328"><ele>248.0</ele><time>2026-04-25T07:24:13.038Z</time></trkpt><trkpt lat="42.77320301134257" lon="10.328257866908043"><ele>248.0</ele><time>2026-04-25T07:24:14.038Z</time></trkpt><trkpt lat="42.773322019440926" lon="10.32826133208554"><ele>248.0</ele><time>2026-04-25T07:24:15.038Z</time></trkpt><trkpt lat="42.77342232234077" lon="10.328228683879988"><ele>248.0</ele><time>2026-04-25T07:24:16.038Z</time></trkpt><trkpt lat="42.77351880037281" lon="10.328180105713844"><ele>248.0</ele><time>2026-04-25T07:24:17.038Z</time></trkpt><trkpt lat="42.773586457099626" lon="10.328128599203273"><ele>248.0</ele><time>2026-04-25T07:24:18.038Z</time></trkpt><trkpt lat="42.773662868673256" lon="10.328035213594765"><ele>251.60000000000002</ele><time>2026-04-25T07:24:19.038Z</time></trkpt><trkpt lat="42.77373047946517" lon="10.327915443302569"><ele>255.20000000000002</ele><time>2026-04-25T07:24:20.038Z</time></trkpt><trkpt lat="42.77378768000052" lon="10.327781179696197"><ele>258.8</ele><time>2026-04-25T07:24:21.038Z</time></trkpt><trkpt lat="42.77382289996116" lon="10.327632391619675"><ele>262.40000000000003</ele><time>2026-04-25T07:24:22.038Z</time></trkpt><trkpt lat="42.77384316515796" lon="10.327496420592384"><ele>266.0</ele><time>2026-04-25T07:24:23.038Z</time></trkpt><trkpt lat="42.77385414337171" lon="10.327353943657865"><ele>265.0</ele><time>2026-04-25T07:24:24.038Z</time></trkpt><trkpt lat="42.77388238284226" lon="10.327194431339976"><ele>264.0</ele><time>2026-04-25T07:24:25.038Z</time></trkpt><trkpt lat="42.77391919801516" lon="10.327043998964408"><ele>263.0</ele><time>2026-04-25T07:24:26.038Z</time></trkpt><trkpt lat="42.773952432512225" lon="10.326909070928753"><ele>262.0</ele><time>2026-04-25T07:24:27.038Z</time></trkpt><trkpt lat="42.77397449298716" lon="10.326794979840846"><ele>261.0</ele><time>2026-04-25T07:24:28.038Z</time></trkpt><trkpt lat="42.77397650541108" lon="10.326650748297407"><ele>261.0</ele><time>2026-04-25T07:24:29.038Z</time></trkpt><trkpt lat="42.77398472002313" lon="10.326488434493418"><ele>261.0</ele><time>2026-04-25T07:24:30.038Z</time></trkpt><trkpt lat="42.77399529765235" lon="10.326320847824043"><ele>261.0</ele><time>2026-04-25T07:24:31.038Z</time></trkpt><trkpt lat="42.774000174114185" lon="10.326159088134643"><ele>261.0</ele><time>2026-04-25T07:24:32.038Z</time></trkpt><trkpt lat="42.77401843927285" lon="10.326028444367203"><ele>259.75</ele><time>2026-04-25T07:24:33.038Z</time></trkpt><trkpt lat="42.77405019375162" lon="10.325907827344587"><ele>258.5</ele><time>2026-04-25T07:24:34.038Z</time></trkpt><trkpt lat="42.774105080835696" lon="10.325771376311973"><ele>257.25</ele><time>2026-04-25T07:24:35.038Z</time></trkpt><trkpt lat="42.77417018546794" lon="10.325625681447686"><ele>256.0</ele><time>2026-04-25T07:24:36.038Z</time></trkpt><trkpt lat="42.774258780090435" lon="10.325474629870904"><ele>251.75</ele><time>2026-04-25T07:24:37.038Z</time></trkpt><trkpt lat="42.77434682482467" lon="10.325319281012005"><ele>247.5</ele><time>2026-04-25T07:24:38.038Z</time></trkpt><trkpt lat="42.77442824092016" lon="10.325176394795442"><ele>243.25</ele><time>2026-04-25T07:24:39.038Z</time></trkpt><trkpt lat="42.774500943175845" lon="10.325042440623314"><ele>239.0</ele><time>2026-04-25T07:24:40.038Z</time></trkpt><trkpt lat="42.77457694196945" lon="10.324906537662837"><ele>244.75</ele><time>2026-04-25T07:24:41.038Z</time></trkpt><trkpt lat="42.7746655067093" lon="10.324777297806085"><ele>250.5</ele><time>2026-04-25T07:24:42.038Z</time></trkpt><trkpt lat="42.774759239196406" lon="10.32465900982583"><ele>256.25</ele><time>2026-04-25T07:24:43.038Z</time></trkpt><trkpt lat="42.7748453918187" lon="10.324554838776798"><ele>262.0</ele><time>2026-04-25T07:24:44.038Z</time></trkpt><trkpt lat="42.77491731007676" lon="10.324444500505953"><ele>262.0</ele><time>2026-04-25T07:24:45.038Z</time></trkpt><trkpt lat="42.774977892755054" lon="10.324377290753855"><ele>262.0</ele><time>2026-04-25T07:24:46.038Z</time></trkpt><trkpt lat="42.77506952836767" lon="10.324316034761257"><ele>262.0</ele><time>2026-04-25T07:24:48.038Z</time></trkpt><trkpt lat="42.77514222609696" lon="10.324327757513878"><ele>262.0</ele><time>2026-04-25T07:24:49.038Z</time></trkpt><trkpt lat="42.77524254183728" lon="10.324330664595037"><ele>262.0</ele><time>2026-04-25T07:24:50.038Z</time></trkpt><trkpt lat="42.775339867303146" lon="10.32430656194035"><ele>266.8333333333333</ele><time>2026-04-25T07:24:51.041Z</time></trkpt><trkpt lat="42.77544640172434" lon="10.32426649702813"><ele>271.66666666666663</ele><time>2026-04-25T07:24:52.04Z</time></trkpt><trkpt lat="42.77554192364548" lon="10.324228789359255"><ele>276.5</ele><time>2026-04-25T07:24:53.04Z</time></trkpt><trkpt lat="42.77561793082139" lon="10.324193148498095"><ele>281.3333333333333</ele><time>2026-04-25T07:24:54.041Z</time></trkpt><trkpt lat="42.77569135314932" lon="10.32416607972594"><ele>286.1666666666667</ele><time>2026-04-25T07:24:55.04Z</time></trkpt><trkpt lat="42.77576388175483" lon="10.324136870776513"><ele>291.0</ele><time>2026-04-25T07:24:56.04Z</time></trkpt><trkpt lat="42.77587086303767" lon="10.324083223021963"><ele>291.0</ele><time>2026-04-25T07:24:58.04Z</time></trkpt><trkpt lat="42.77594078956509" lon="10.32407874909076"><ele>291.0</ele><time>2026-04-25T07:24:59.04Z</time></trkpt><trkpt lat="42.77601717800519" lon="10.324080487969017"><ele>291.0</ele><time>2026-04-25T07:25:00.041Z</time></trkpt><trkpt lat="42.77613128224569" lon="10.324054049248636"><ele>291.0</ele><time>2026-04-25T07:25:01.04Z</time></trkpt><trkpt lat="42.776215145444574" lon="10.324038737939564"><ele>291.0</ele><time>2026-04-25T07:25:02.04Z</time></trkpt><trkpt lat="42.77633064983927" lon="10.324006734108622"><ele>293.0</ele><time>2026-04-25T07:25:03.041Z</time></trkpt><trkpt lat="42.77643575292193" lon="10.323990382185253"><ele>295.0</ele><time>2026-04-25T07:25:04.041Z</time></trkpt><trkpt lat="42.77653431409627" lon="10.323967592227142"><ele>297.0</ele><time>2026-04-25T07:25:05.041Z</time></trkpt><trkpt lat="42.77661792392202" lon="10.323959777498589"><ele>299.0</ele><time>2026-04-25T07:25:06.041Z</time></trkpt><trkpt lat="42.776693717250446" lon="10.324002053861795"><ele>301.0</ele><time>2026-04-25T07:25:09.041Z</time></trkpt><trkpt lat="42.77678956185591" lon="10.324041431571917"><ele>300.5</ele><time>2026-04-25T07:25:11.041Z</time></trkpt><trkpt lat="42.77685490243324" lon="10.324042930368865"><ele>300.0</ele><time>2026-04-25T07:25:17.041Z</time></trkpt><trkpt lat="42.77696203097049" lon="10.324074015417029"><ele>299.5</ele><time>2026-04-25T07:25:44.041Z</time></trkpt><trkpt lat="42.77703353303838" lon="10.32408902621092"><ele>299.0</ele><time>2026-04-25T07:25:45.041Z</time></trkpt><trkpt lat="42.77711041671144" lon="10.324114054394872"><ele>298.5</ele><time>2026-04-25T07:25:46.041Z</time></trkpt><trkpt lat="42.7771938594693" lon="10.324126889983642"><ele>298.0</ele><time>2026-04-25T07:25:47.041Z</time></trkpt><trkpt lat="42.77729634415035" lon="10.324117335270206"><ele>298.0</ele><time>2026-04-25T07:25:48.041Z</time></trkpt><trkpt lat="42.7774019964844" lon="10.324051450537882"><ele>298.0</ele><time>2026-04-25T07:25:49.041Z</time></trkpt><trkpt lat="42.777488988714836" lon="10.323977170982035"><ele>298.0</ele><time>2026-04-25T07:25:50.041Z</time></trkpt><trkpt lat="42.77755576125646" lon="10.323916263342152"><ele>298.0</ele><time>2026-04-25T07:25:51.041Z</time></trkpt><trkpt lat="42.777702278677815" lon="10.323895398860357"><ele>298.0</ele><time>2026-04-25T07:25:53.041Z</time></trkpt><trkpt lat="42.777793457186725" lon="10.32391894174575"><ele>300.2</ele><time>2026-04-25T07:25:54.041Z</time></trkpt><trkpt lat="42.77790162141248" lon="10.323971862506452"><ele>302.4</ele><time>2026-04-25T07:25:55.041Z</time></trkpt><trkpt lat="42.77799196113089" lon="10.323981573368794"><ele>304.59999999999997</ele><time>2026-04-25T07:25:56.041Z</time></trkpt><trkpt lat="42.778070382329275" lon="10.323943064258966"><ele>306.8</ele><time>2026-04-25T07:25:57.041Z</time></trkpt><trkpt lat="42.77816145708178" lon="10.323877111865924"><ele>309.0</ele><time>2026-04-25T07:25:58.041Z</time></trkpt><trkpt lat="42.778262366384546" lon="10.323809903035603"><ele>309.0</ele><time>2026-04-25T07:25:59.041Z</time></trkpt><trkpt lat="42.77837252534409" lon="10.323772351018333"><ele>309.0</ele><time>2026-04-25T07:26:00.041Z</time></trkpt><trkpt lat="42.7784656182515" lon="10.32372669094006"><ele>309.0</ele><time>2026-04-25T07:26:01.041Z</time></trkpt><trkpt lat="42.778567181153036" lon="10.323715555317667"><ele>309.0</ele><time>2026-04-25T07:26:02.041Z</time></trkpt><trkpt lat="42.778664968435166" lon="10.323691479089005"><ele>309.0</ele><time>2026-04-25T07:26:03.041Z</time></trkpt><trkpt lat="42.7787477625762" lon="10.323658682993912"><ele>308.8</ele><time>2026-04-25T07:26:04.041Z</time></trkpt><trkpt lat="42.778833174162884" lon="10.32363974504364"><ele>308.59999999999997</ele><time>2026-04-25T07:26:05.041Z</time></trkpt><trkpt lat="42.77891113421145" lon="10.323654852488815"><ele>308.4</ele><time>2026-04-25T07:26:06.041Z</time></trkpt><trkpt lat="42.778961919332296" lon="10.323713841845981"><ele>308.2</ele><time>2026-04-25T07:26:07.041Z</time></trkpt><trkpt lat="42.77901099270217" lon="10.323819578808065"><ele>308.0</ele><time>2026-04-25T07:26:08.041Z</time></trkpt><trkpt lat="42.779043559478524" lon="10.323986976620382"><ele>303.0</ele><time>2026-04-25T07:26:09.041Z</time></trkpt><trkpt lat="42.77907451371728" lon="10.324160076844883"><ele>298.0</ele><time>2026-04-25T07:26:10.041Z</time></trkpt><trkpt lat="42.7791159777631" lon="10.324325751023059"><ele>293.0</ele><time>2026-04-25T07:26:11.041Z</time></trkpt><trkpt lat="42.77915516441818" lon="10.32447072049658"><ele>288.0</ele><time>2026-04-25T07:26:12.041Z</time></trkpt><trkpt lat="42.77918934410429" lon="10.324586232715427"><ele>288.0</ele><time>2026-04-25T07:26:13.041Z</time></trkpt><trkpt lat="42.779227208781286" lon="10.324666217717127"><ele>288.0</ele><time>2026-04-25T07:26:14.041Z</time></trkpt><trkpt lat="42.779267751306854" lon="10.32475439910059"><ele>288.0</ele><time>2026-04-25T07:26:15.041Z</time></trkpt><trkpt lat="42.77939545939887" lon="10.324814982769524"><ele>288.0</ele><time>2026-04-25T07:26:17.041Z</time></trkpt><trkpt lat="42.779521328856355" lon="10.32476109122711"><ele>288.0</ele><time>2026-04-25T07:26:18.041Z</time></trkpt><trkpt lat="42.779646543328546" lon="10.324735150324049"><ele>288.4</ele><time>2026-04-25T07:26:19.041Z</time></trkpt><trkpt lat="42.77973604314255" lon="10.324749047482888"><ele>288.8</ele><time>2026-04-25T07:26:20.041Z</time></trkpt><trkpt lat="42.77982316205015" lon="10.324895998202289"><ele>289.2</ele><time>2026-04-25T07:26:22.041Z</time></trkpt><trkpt lat="42.779838476110214" lon="10.325043859319363"><ele>289.6</ele><time>2026-04-25T07:26:23.041Z</time></trkpt><trkpt lat="42.779866581435904" lon="10.325144363978394"><ele>290.0</ele><time>2026-04-25T07:26:24.041Z</time></trkpt><trkpt lat="42.779889153196635" lon="10.325259666712517"><ele>290.0</ele><time>2026-04-25T07:26:26.041Z</time></trkpt><trkpt lat="42.77989648377783" lon="10.325360180429254"><ele>290.0</ele><time>2026-04-25T07:26:30.041Z</time></trkpt><trkpt lat="42.779914723541076" lon="10.32546445158522"><ele>290.0</ele><time>2026-04-25T07:26:31.041Z</time></trkpt><trkpt lat="42.779959761972016" lon="10.325646966932643"><ele>290.0</ele><time>2026-04-25T07:26:32.041Z</time></trkpt><trkpt lat="42.780015363916384" lon="10.325782491864272"><ele>290.0</ele><time>2026-04-25T07:26:33.041Z</time></trkpt><trkpt lat="42.780083507189275" lon="10.325909300970782"><ele>288.6666666666667</ele><time>2026-04-25T07:26:34.041Z</time></trkpt><trkpt lat="42.78016167278314" lon="10.325941812638337"><ele>287.33333333333337</ele><time>2026-04-25T07:26:40.041Z</time></trkpt><trkpt lat="42.7801697068625" lon="10.325856119947145"><ele>286.0</ele><time>2026-04-25T07:26:42.041Z</time></trkpt><trkpt lat="42.78023406582415" lon="10.325737243253545"><ele>284.6666666666667</ele><time>2026-04-25T07:26:44.041Z</time></trkpt><trkpt lat="42.78024804703886" lon="10.325641691504975"><ele>283.3333333333333</ele><time>2026-04-25T07:26:45.041Z</time></trkpt><trkpt lat="42.78025150114173" lon="10.325543830335297"><ele>282.0</ele><time>2026-04-25T07:26:46.041Z</time></trkpt><trkpt lat="42.78019636450183" lon="10.325373744608015"><ele>283.3333333333333</ele><time>2026-04-25T07:26:48.041Z</time></trkpt><trkpt lat="42.78017641793852" lon="10.325267537552026"><ele>284.6666666666667</ele><time>2026-04-25T07:26:49.041Z</time></trkpt><trkpt lat="42.78017598643687" lon="10.325090513659722"><ele>286.0</ele><time>2026-04-25T07:26:51.041Z</time></trkpt><trkpt lat="42.7801900107387" lon="10.324981565214557"><ele>287.33333333333337</ele><time>2026-04-25T07:26:52.041Z</time></trkpt><trkpt lat="42.7802000045692" lon="10.32489012852394"><ele>288.6666666666667</ele><time>2026-04-25T07:26:53.041Z</time></trkpt><trkpt lat="42.7802155779294" lon="10.324791568312477"><ele>290.0</ele><time>2026-04-25T07:26:54.041Z</time></trkpt><trkpt lat="42.78025904755315" lon="10.324667962709496"><ele>293.0</ele><time>2026-04-25T07:26:55.041Z</time></trkpt><trkpt lat="42.780288063147566" lon="10.324549292735579"><ele>296.0</ele><time>2026-04-25T07:26:56.041Z</time></trkpt><trkpt lat="42.78029264816353" lon="10.324432748728672"><ele>299.0</ele><time>2026-04-25T07:26:57.042Z</time></trkpt><trkpt lat="42.78028814551101" lon="10.324327512013808"><ele>302.0</ele><time>2026-04-25T07:26:58.042Z</time></trkpt><trkpt lat="42.78027627698933" lon="10.32421947539799"><ele>305.0</ele><time>2026-04-25T07:26:59.042Z</time></trkpt><trkpt lat="42.780219298757935" lon="10.32411963778106"><ele>308.0</ele><time>2026-04-25T07:27:00.042Z</time></trkpt><trkpt lat="42.780120241707536" lon="10.32401603571598"><ele>308.0</ele><time>2026-04-25T07:27:01.042Z</time></trkpt><trkpt lat="42.78002444033718" lon="10.323944247291791"><ele>308.0</ele><time>2026-04-25T07:27:02.042Z</time></trkpt><trkpt lat="42.77994959568574" lon="10.323841813432185"><ele>308.0</ele><time>2026-04-25T07:27:03.042Z</time></trkpt><trkpt lat="42.77990292183858" lon="10.323773603843478"><ele>308.0</ele><time>2026-04-25T07:27:04.042Z</time></trkpt><trkpt lat="42.77984511283974" lon="10.323624267896221"><ele>308.0</ele><time>2026-04-25T07:27:06.042Z</time></trkpt><trkpt lat="42.77982092147055" lon="10.323518839877533"><ele>312.0</ele><time>2026-04-25T07:27:07.043Z</time></trkpt><trkpt lat="42.779808671631045" lon="10.323423808922183"><ele>316.0</ele><time>2026-04-25T07:27:08.043Z</time></trkpt><trkpt lat="42.77978673487138" lon="10.323317939497953"><ele>320.0</ele><time>2026-04-25T07:27:09.043Z</time></trkpt><trkpt lat="42.77975971957041" lon="10.323148545947001"><ele>324.0</ele><time>2026-04-25T07:27:10.042Z</time></trkpt><trkpt lat="42.77974005711007" lon="10.32298986237247"><ele>328.0</ele><time>2026-04-25T07:27:11.042Z</time></trkpt><trkpt lat="42.77973636905703" lon="10.322846847772396"><ele>331.79999999999995</ele><time>2026-04-25T07:27:12.042Z</time></trkpt><trkpt lat="42.7797197087155" lon="10.322731982193908"><ele>335.6</ele><time>2026-04-25T07:27:13.042Z</time></trkpt><trkpt lat="42.77967221939728" lon="10.322590704292132"><ele>339.4</ele><time>2026-04-25T07:27:14.042Z</time></trkpt><trkpt lat="42.77962112232339" lon="10.322493849171526"><ele>343.20000000000005</ele><time>2026-04-25T07:27:15.042Z</time></trkpt><trkpt lat="42.77954646253553" lon="10.322392300391444"><ele>347.0</ele><time>2026-04-25T07:27:16.042Z</time></trkpt><trkpt lat="42.77947736965929" lon="10.322320726067204"><ele>349.6</ele><time>2026-04-25T07:27:17.042Z</time></trkpt><trkpt lat="42.77941059342146" lon="10.322212373643023"><ele>352.20000000000005</ele><time>2026-04-25T07:27:18.042Z</time></trkpt><trkpt lat="42.779349464510275" lon="10.32212924090117"><ele>354.8</ele><time>2026-04-25T07:27:19.042Z</time></trkpt><trkpt lat="42.77927618191794" lon="10.32211588032902"><ele>357.4</ele><time>2026-04-25T07:27:20.042Z</time></trkpt><trkpt lat="42.77917962159017" lon="10.322053767621707"><ele>360.0</ele><time>2026-04-25T07:27:21.042Z</time></trkpt><trkpt lat="42.77905855444254" lon="10.322021635366916"><ele>360.0</ele><time>2026-04-25T07:27:22.042Z</time></trkpt><trkpt lat="42.77894544132839" lon="10.321999707593745"><ele>360.0</ele><time>2026-04-25T07:27:23.042Z</time></trkpt><trkpt lat="42.77883261639162" lon="10.321964320851684"><ele>360.0</ele><time>2026-04-25T07:27:24.042Z</time></trkpt><trkpt lat="42.77872564401981" lon="10.321931546965226"><ele>360.0</ele><time>2026-04-25T07:27:25.042Z</time></trkpt><trkpt lat="42.778638599135306" lon="10.321902866570264"><ele>360.0</ele><time>2026-04-25T07:27:27.042Z</time></trkpt><trkpt lat="42.77866459948392" lon="10.321820001749236"><ele>360.0</ele><time>2026-04-25T07:27:30.042Z</time></trkpt><trkpt lat="42.77872788573761" lon="10.321751366975171"><ele>360.0</ele><time>2026-04-25T07:27:32.042Z</time></trkpt><trkpt lat="42.77878993010673" lon="10.321709627211476"><ele>360.0</ele><time>2026-04-25T07:27:33.042Z</time></trkpt><trkpt lat="42.77886143851874" lon="10.321656591414717"><ele>360.0</ele><time>2026-04-25T07:27:34.042Z</time></trkpt><trkpt lat="42.77893285355129" lon="10.321594672132315"><ele>360.0</ele><time>2026-04-25T07:27:35.042Z</time></trkpt><trkpt lat="42.77905378317556" lon="10.321533400277083"><ele>360.0</ele><time>2026-04-25T07:27:36.042Z</time></trkpt><trkpt lat="42.77916264423727" lon="10.321480512471433"><ele>360.0</ele><time>2026-04-25T07:27:37.042Z</time></trkpt><trkpt lat="42.779266957066234" lon="10.321459432825577"><ele>360.0</ele><time>2026-04-25T07:27:38.042Z</time></trkpt><trkpt lat="42.77935934363034" lon="10.321446257174795"><ele>360.0</ele><time>2026-04-25T07:27:39.042Z</time></trkpt><trkpt lat="42.77942650175851" lon="10.321441170478213"><ele>360.0</ele><time>2026-04-25T07:27:40.042Z</time></trkpt><trkpt lat="42.77950192345364" lon="10.321479186597704"><ele>360.0</ele><time>2026-04-25T07:27:41.042Z</time></trkpt><trkpt lat="42.779632755953074" lon="10.321513953798066"><ele>361.0</ele><time>2026-04-25T07:27:42.042Z</time></trkpt><trkpt lat="42.77973846482825" lon="10.321560938461843"><ele>362.0</ele><time>2026-04-25T07:27:43.042Z</time></trkpt><trkpt lat="42.77981585571858" lon="10.321593529950679"><ele>363.0</ele><time>2026-04-25T07:27:44.042Z</time></trkpt><trkpt lat="42.779894578502905" lon="10.321623216930442"><ele>364.0</ele><time>2026-04-25T07:27:45.042Z</time></trkpt><trkpt lat="42.77997900094295" lon="10.321660675804662"><ele>365.0</ele><time>2026-04-25T07:27:46.042Z</time></trkpt><trkpt lat="42.78009913018165" lon="10.321686198950843"><ele>365.0</ele><time>2026-04-25T07:27:48.042Z</time></trkpt><trkpt lat="42.78013400938752" lon="10.321570338254203"><ele>365.0</ele><time>2026-04-25T07:27:52.042Z</time></trkpt><trkpt lat="42.78012779188627" lon="10.321465452025615"><ele>365.0</ele><time>2026-04-25T07:27:53.042Z</time></trkpt><trkpt lat="42.78012032003921" lon="10.321341611041134"><ele>365.0</ele><time>2026-04-25T07:27:54.042Z</time></trkpt><trkpt lat="42.780031545679854" lon="10.321271914105116"><ele>365.0</ele><time>2026-04-25T07:27:56.042Z</time></trkpt><trkpt lat="42.77996066580491" lon="10.321287733681325"><ele>365.0</ele><time>2026-04-25T07:27:57.042Z</time></trkpt><trkpt lat="42.7798901143477" lon="10.321273074523479"><ele>365.1666666666667</ele><time>2026-04-25T07:27:58.042Z</time></trkpt><trkpt lat="42.77982703075408" lon="10.32124984027463"><ele>365.33333333333337</ele><time>2026-04-25T07:27:59.042Z</time></trkpt><trkpt lat="42.779747549951715" lon="10.321201896171308"><ele>365.5</ele><time>2026-04-25T07:28:01.042Z</time></trkpt><trkpt lat="42.779686530037814" lon="10.321159988052242"><ele>365.6666666666667</ele><time>2026-04-25T07:28:03.042Z</time></trkpt><trkpt lat="42.77962308875486" lon="10.321134552521478"><ele>365.8333333333333</ele><time>2026-04-25T07:28:04.042Z</time></trkpt><trkpt lat="42.77953011313705" lon="10.321110078539595"><ele>366.0</ele><time>2026-04-25T07:28:05.042Z</time></trkpt><trkpt lat="42.77942403281544" lon="10.321082862691048"><ele>367.0</ele><time>2026-04-25T07:28:06.042Z</time></trkpt><trkpt lat="42.7792860727645" lon="10.321043085881453"><ele>368.0</ele><time>2026-04-25T07:28:07.042Z</time></trkpt><trkpt lat="42.7791320561864" lon="10.320985400572479"><ele>369.0</ele><time>2026-04-25T07:28:08.042Z</time></trkpt><trkpt lat="42.779013665956455" lon="10.32093224923405"><ele>370.0</ele><time>2026-04-25T07:28:09.042Z</time></trkpt><trkpt lat="42.77892688707401" lon="10.320904035157273"><ele>370.0</ele><time>2026-04-25T07:28:10.042Z</time></trkpt><trkpt lat="42.778851525261246" lon="10.320900029762747"><ele>370.0</ele><time>2026-04-25T07:28:11.042Z</time></trkpt><trkpt lat="42.77876847623292" lon="10.320912288708879"><ele>370.0</ele><time>2026-04-25T07:28:13.042Z</time></trkpt><trkpt lat="42.77869073671255" lon="10.32093767468396"><ele>370.0</ele><time>2026-04-25T07:28:46.042Z</time></trkpt><trkpt lat="42.778663882696534" lon="10.32103806225044"><ele>370.0</ele><time>2026-04-25T07:28:48.042Z</time></trkpt><trkpt lat="42.778637543638226" lon="10.321132306629567"><ele>370.0</ele><time>2026-04-25T07:28:50.042Z</time></trkpt><trkpt lat="42.77859527196824" lon="10.321261108755882"><ele>370.0</ele><time>2026-04-25T07:28:52.042Z</time></trkpt><trkpt lat="42.778542176196176" lon="10.321387907240911"><ele>370.0</ele><time>2026-04-25T07:28:54.042Z</time></trkpt><trkpt lat="42.77850899460702" lon="10.321477871407946"><ele>370.0</ele><time>2026-04-25T07:28:55.042Z</time></trkpt><trkpt lat="42.77846657973918" lon="10.32157193413135"><ele>370.0</ele><time>2026-04-25T07:28:56.042Z</time></trkpt><trkpt lat="42.7784157088936" lon="10.321659831914603"><ele>370.0</ele><time>2026-04-25T07:28:57.042Z</time></trkpt><trkpt lat="42.77837792753426" lon="10.321754202598287"><ele>370.0</ele><time>2026-04-25T07:28:58.042Z</time></trkpt><trkpt lat="42.77833218369265" lon="10.321848073768281"><ele>366.8333333333333</ele><time>2026-04-25T07:28:59.042Z</time></trkpt><trkpt lat="42.77828746005059" lon="10.3219386011008"><ele>363.66666666666663</ele><time>2026-04-25T07:29:00.042Z</time></trkpt><trkpt lat="42.77824414140916" lon="10.322037069964928"><ele>360.5</ele><time>2026-04-25T07:29:01.042Z</time></trkpt><trkpt lat="42.778202619566564" lon="10.322128626688151"><ele>357.3333333333333</ele><time>2026-04-25T07:29:02.042Z</time></trkpt><trkpt lat="42.77814726082962" lon="10.322202257488465"><ele>354.1666666666667</ele><time>2026-04-25T07:29:03.044Z</time></trkpt><trkpt lat="42.77810047814981" lon="10.322270925934818"><ele>351.0</ele><time>2026-04-25T07:29:04.044Z</time></trkpt><trkpt lat="42.778032919699605" lon="10.322320922932313"><ele>347.20000000000005</ele><time>2026-04-25T07:29:05.044Z</time></trkpt><trkpt lat="42.77794913722758" lon="10.322388736277306"><ele>343.40000000000003</ele><time>2026-04-25T07:29:07.044Z</time></trkpt><trkpt lat="42.7778692379379" lon="10.322475966660857"><ele>339.6</ele><time>2026-04-25T07:29:09.044Z</time></trkpt><trkpt lat="42.777833176588885" lon="10.322550611432915"><ele>335.8</ele><time>2026-04-25T07:29:10.044Z</time></trkpt><trkpt lat="42.77775411194366" lon="10.322681729165879"><ele>332.0</ele><time>2026-04-25T07:29:12.044Z</time></trkpt><trkpt lat="42.777707685281726" lon="10.322827447734085"><ele>329.1666666666667</ele><time>2026-04-25T07:29:14.044Z</time></trkpt><trkpt lat="42.77766613790565" lon="10.322908464065135"><ele>326.33333333333337</ele><time>2026-04-25T07:29:15.044Z</time></trkpt><trkpt lat="42.77764024055322" lon="10.322996717390625"><ele>323.5</ele><time>2026-04-25T07:29:16.044Z</time></trkpt><trkpt lat="42.77760323122337" lon="10.323091179306305"><ele>320.6666666666667</ele><time>2026-04-25T07:29:17.044Z</time></trkpt><trkpt lat="42.77755111895969" lon="10.323194736030448"><ele>317.8333333333333</ele><time>2026-04-25T07:29:18.044Z</time></trkpt><trkpt lat="42.777488282010005" lon="10.323293587297382"><ele>315.0</ele><time>2026-04-25T07:29:19.044Z</time></trkpt><trkpt lat="42.77742071670245" lon="10.32339727893092"><ele>314.0</ele><time>2026-04-25T07:29:20.044Z</time></trkpt><trkpt lat="42.77733405440283" lon="10.323524617037396"><ele>313.0</ele><time>2026-04-25T07:29:21.044Z</time></trkpt><trkpt lat="42.77725957941588" lon="10.323629962919505"><ele>312.0</ele><time>2026-04-25T07:29:22.044Z</time></trkpt><trkpt lat="42.777180024366594" lon="10.323724438809604"><ele>311.0</ele><time>2026-04-25T07:29:23.044Z</time></trkpt><trkpt lat="42.77711064822486" lon="10.323809975745503"><ele>310.0</ele><time>2026-04-25T07:29:24.044Z</time></trkpt><trkpt lat="42.77703658734369" lon="10.32390423113762"><ele>308.2</ele><time>2026-04-25T07:29:25.044Z</time></trkpt><trkpt lat="42.776984120651086" lon="10.323998361155926"><ele>306.4</ele><time>2026-04-25T07:29:26.044Z</time></trkpt><trkpt lat="42.77691803579473" lon="10.32410307665251"><ele>304.6</ele><time>2026-04-25T07:29:27.044Z</time></trkpt><trkpt lat="42.77686804209751" lon="10.324179911631434"><ele>302.8</ele><time>2026-04-25T07:29:28.044Z</time></trkpt><trkpt lat="42.776803169901775" lon="10.324274781044442"><ele>301.0</ele><time>2026-04-25T07:29:29.044Z</time></trkpt><trkpt lat="42.776731272532096" lon="10.324369507286875"><ele>301.0</ele><time>2026-04-25T07:29:30.044Z</time></trkpt><trkpt lat="42.77664840457616" lon="10.324454425930597"><ele>301.0</ele><time>2026-04-25T07:29:31.044Z</time></trkpt><trkpt lat="42.776586200966975" lon="10.324536424050299"><ele>301.0</ele><time>2026-04-25T07:29:32.044Z</time></trkpt><trkpt lat="42.77650060378859" lon="10.324617057817735"><ele>301.0</ele><time>2026-04-25T07:29:33.044Z</time></trkpt><trkpt lat="42.776434210341144" lon="10.324715228467024"><ele>301.0</ele><time>2026-04-25T07:29:34.044Z</time></trkpt><trkpt lat="42.77635820689824" lon="10.324820895693142"><ele>302.0</ele><time>2026-04-25T07:29:35.044Z</time></trkpt><trkpt lat="42.77626339322957" lon="10.324907950283242"><ele>303.0</ele><time>2026-04-25T07:29:36.044Z</time></trkpt><trkpt lat="42.776173876728116" lon="10.325005443898858"><ele>304.0</ele><time>2026-04-25T07:29:37.044Z</time></trkpt><trkpt lat="42.77608810481927" lon="10.32508263387282"><ele>305.0</ele><time>2026-04-25T07:29:38.044Z</time></trkpt><trkpt lat="42.776023057689734" lon="10.32514080482908"><ele>306.0</ele><time>2026-04-25T07:29:39.044Z</time></trkpt><trkpt lat="42.77596710561213" lon="10.325188623709298"><ele>307.0</ele><time>2026-04-25T07:29:40.044Z</time></trkpt><trkpt lat="42.77589663112787" lon="10.325325632732413"><ele>308.0</ele><time>2026-04-25T07:29:42.044Z</time></trkpt><trkpt lat="42.775875502218156" lon="10.325411187684434"><ele>309.0</ele><time>2026-04-25T07:29:43.044Z</time></trkpt><trkpt lat="42.77584568578756" lon="10.325491496809866"><ele>310.0</ele><time>2026-04-25T07:29:44.044Z</time></trkpt><trkpt lat="42.775797813866845" lon="10.325594326131249"><ele>311.0</ele><time>2026-04-25T07:29:45.044Z</time></trkpt><trkpt lat="42.7757453807742" lon="10.325715478039697"><ele>312.0</ele><time>2026-04-25T07:29:46.044Z</time></trkpt><trkpt lat="42.77568820372248" lon="10.325816263229635"><ele>312.2857142857143</ele><time>2026-04-25T07:29:47.044Z</time></trkpt><trkpt lat="42.77563789900166" lon="10.325904862856632"><ele>312.57142857142856</ele><time>2026-04-25T07:29:48.044Z</time></trkpt><trkpt lat="42.77558796740116" lon="10.325983279333025"><ele>312.85714285714283</ele><time>2026-04-25T07:29:49.044Z</time></trkpt><trkpt lat="42.77553327362721" lon="10.326052679276941"><ele>313.1428571428571</ele><time>2026-04-25T07:29:50.044Z</time></trkpt><trkpt lat="42.77548297149458" lon="10.326114040334533"><ele>313.42857142857144</ele><time>2026-04-25T07:29:51.044Z</time></trkpt><trkpt lat="42.77543182791085" lon="10.326181755451719"><ele>313.71428571428567</ele><time>2026-04-25T07:29:52.044Z</time></trkpt><trkpt lat="42.77537356910156" lon="10.326237446418952"><ele>314.0</ele><time>2026-04-25T07:29:53.044Z</time></trkpt><trkpt lat="42.775306612714836" lon="10.326307359008963"><ele>312.0</ele><time>2026-04-25T07:29:54.044Z</time></trkpt><trkpt lat="42.77523547685775" lon="10.32639842606767"><ele>310.0</ele><time>2026-04-25T07:29:55.044Z</time></trkpt><trkpt lat="42.7751674570962" lon="10.326488976476726"><ele>308.0</ele><time>2026-04-25T07:29:56.044Z</time></trkpt><trkpt lat="42.77510338226987" lon="10.326586973461719"><ele>306.0</ele><time>2026-04-25T07:29:57.044Z</time></trkpt><trkpt lat="42.77504728869347" lon="10.326699000924977"><ele>304.0</ele><time>2026-04-25T07:29:58.044Z</time></trkpt><trkpt lat="42.7749868805272" lon="10.326810452651612"><ele>302.8</ele><time>2026-04-25T07:29:59.044Z</time></trkpt><trkpt lat="42.77494826414988" lon="10.326928143933236"><ele>301.59999999999997</ele><time>2026-04-25T07:30:00.044Z</time></trkpt><trkpt lat="42.77489155908075" lon="10.327038892023788"><ele>300.4</ele><time>2026-04-25T07:30:01.044Z</time></trkpt><trkpt lat="42.77483323253937" lon="10.3271445654986"><ele>299.2</ele><time>2026-04-25T07:30:02.044Z</time></trkpt><trkpt lat="42.774775088667646" lon="10.327251189129344"><ele>298.0</ele><time>2026-04-25T07:30:03.044Z</time></trkpt><trkpt lat="42.77473257436351" lon="10.32736570792833"><ele>295.8</ele><time>2026-04-25T07:30:04.044Z</time></trkpt><trkpt lat="42.774685958669544" lon="10.327460451708415"><ele>293.6</ele><time>2026-04-25T07:30:05.044Z</time></trkpt><trkpt lat="42.774639516638416" lon="10.32757201361453"><ele>291.4</ele><time>2026-04-25T07:30:06.044Z</time></trkpt><trkpt lat="42.774589776698896" lon="10.327683604358326"><ele>289.2</ele><time>2026-04-25T07:30:07.044Z</time></trkpt><trkpt lat="42.774530812553095" lon="10.327804187020424"><ele>287.0</ele><time>2026-04-25T07:30:08.044Z</time></trkpt><trkpt lat="42.774484298197244" lon="10.327937756559837"><ele>284.0</ele><time>2026-04-25T07:30:09.044Z</time></trkpt><trkpt lat="42.77443445644388" lon="10.32807443121427"><ele>281.0</ele><time>2026-04-25T07:30:10.044Z</time></trkpt><trkpt lat="42.77438785467016" lon="10.328212082236341"><ele>278.0</ele><time>2026-04-25T07:30:11.044Z</time></trkpt><trkpt lat="42.77434644193688" lon="10.328352362535481"><ele>275.0</ele><time>2026-04-25T07:30:12.044Z</time></trkpt><trkpt lat="42.77431047825596" lon="10.328492356261672"><ele>272.0</ele><time>2026-04-25T07:30:13.044Z</time></trkpt><trkpt lat="42.7742649849297" lon="10.328642936158348"><ele>272.0</ele><time>2026-04-25T07:30:14.044Z</time></trkpt><trkpt lat="42.77423504808666" lon="10.328791989420736"><ele>272.0</ele><time>2026-04-25T07:30:15.044Z</time></trkpt><trkpt lat="42.774205853226384" lon="10.328931898372344"><ele>272.0</ele><time>2026-04-25T07:30:16.044Z</time></trkpt><trkpt lat="42.77418191953485" lon="10.329045653259112"><ele>272.0</ele><time>2026-04-25T07:30:17.044Z</time></trkpt><trkpt lat="42.77417542905834" lon="10.329214341989749"><ele>272.0</ele><time>2026-04-25T07:30:19.044Z</time></trkpt><trkpt lat="42.774173735425734" lon="10.329302683166475"><ele>271.83333333333337</ele><time>2026-04-25T07:30:20.044Z</time></trkpt><trkpt lat="42.774158350558785" lon="10.329407123208544"><ele>271.6666666666667</ele><time>2026-04-25T07:30:21.044Z</time></trkpt><trkpt lat="42.774134614465844" lon="10.32951938098173"><ele>271.5</ele><time>2026-04-25T07:30:22.044Z</time></trkpt><trkpt lat="42.77411283972433" lon="10.329641332699389"><ele>271.3333333333333</ele><time>2026-04-25T07:30:23.044Z</time></trkpt><trkpt lat="42.77409731778255" lon="10.3297724603131"><ele>271.16666666666663</ele><time>2026-04-25T07:30:24.044Z</time></trkpt><trkpt lat="42.77406630219406" lon="10.329862556483711"><ele>271.0</ele><time>2026-04-25T07:30:25.044Z</time></trkpt><trkpt lat="42.77403703366928" lon="10.329965488905207"><ele>270.0</ele><time>2026-04-25T07:30:26.044Z</time></trkpt><trkpt lat="42.77399661847507" lon="10.3300401879031"><ele>269.0</ele><time>2026-04-25T07:30:27.044Z</time></trkpt><trkpt lat="42.77391591201342" lon="10.33020224648322"><ele>268.0</ele><time>2026-04-25T07:30:29.044Z</time></trkpt><trkpt lat="42.77382779731175" lon="10.330311353139903"><ele>267.0</ele><time>2026-04-25T07:30:31.044Z</time></trkpt><trkpt lat="42.77376817719528" lon="10.33036618762044"><ele>266.0</ele><time>2026-04-25T07:30:32.044Z</time></trkpt><trkpt lat="42.77363741652852" lon="10.330407915673577"><ele>266.0</ele><time>2026-04-25T07:30:34.044Z</time></trkpt><trkpt lat="42.77355972804815" lon="10.330396748105818"><ele>266.0</ele><time>2026-04-25T07:30:35.044Z</time></trkpt><trkpt lat="42.773482329482086" lon="10.33040283768011"><ele>266.0</ele><time>2026-04-25T07:30:36.044Z</time></trkpt><trkpt lat="42.77339637566939" lon="10.330411270052002"><ele>266.0</ele><time>2026-04-25T07:30:37.044Z</time></trkpt><trkpt lat="42.773300286455836" lon="10.330412685418581"><ele>266.0</ele><time>2026-04-25T07:30:38.044Z</time></trkpt><trkpt lat="42.77317311149858" lon="10.330397488558804"><ele>265.83333333333337</ele><time>2026-04-25T07:30:39.044Z</time></trkpt><trkpt lat="42.77307129844918" lon="10.330400864485139"><ele>265.6666666666667</ele><time>2026-04-25T07:30:40.044Z</time></trkpt><trkpt lat="42.77297546942238" lon="10.330397666427094"><ele>265.5</ele><time>2026-04-25T07:30:41.044Z</time></trkpt><trkpt lat="42.772912625659885" lon="10.330412733446506"><ele>265.3333333333333</ele><time>2026-04-25T07:30:42.044Z</time></trkpt><trkpt lat="42.7728348066708" lon="10.330432268842983"><ele>265.16666666666663</ele><time>2026-04-25T07:30:43.044Z</time></trkpt><trkpt lat="42.77275321530372" lon="10.330457424292115"><ele>265.0</ele><time>2026-04-25T07:30:44.044Z</time></trkpt><trkpt lat="42.772682763451705" lon="10.330516623522465"><ele>267.0</ele><time>2026-04-25T07:30:45.044Z</time></trkpt><trkpt lat="42.772603078466894" lon="10.330574759551377"><ele>269.0</ele><time>2026-04-25T07:30:46.044Z</time></trkpt><trkpt lat="42.77255370615837" lon="10.330642498532557"><ele>271.0</ele><time>2026-04-25T07:30:47.044Z</time></trkpt><trkpt lat="42.772449889988025" lon="10.330770094464475"><ele>273.0</ele><time>2026-04-25T07:30:49.044Z</time></trkpt><trkpt lat="42.772409397683035" lon="10.330851566421522"><ele>275.0</ele><time>2026-04-25T07:30:50.044Z</time></trkpt><trkpt lat="42.77236789337703" lon="10.330931144007113"><ele>277.0</ele><time>2026-04-25T07:30:51.044Z</time></trkpt><trkpt lat="42.772340740228664" lon="10.331048815916882"><ele>277.0</ele><time>2026-04-25T07:30:53.044Z</time></trkpt><trkpt lat="42.77233284188998" lon="10.331183269366605"><ele>277.0</ele><time>2026-04-25T07:30:55.044Z</time></trkpt><trkpt lat="42.77230675492844" lon="10.331316012805306"><ele>277.0</ele><time>2026-04-25T07:30:57.044Z</time></trkpt><trkpt lat="42.77228495288253" lon="10.331440823045607"><ele>277.0</ele><time>2026-04-25T07:30:59.044Z</time></trkpt><trkpt lat="42.77231858596258" lon="10.33155047385075"><ele>277.0</ele><time>2026-04-25T07:31:01.044Z</time></trkpt><trkpt lat="42.77237962251942" lon="10.331652628276986"><ele>275.2</ele><time>2026-04-25T07:31:03.044Z</time></trkpt><trkpt lat="42.77246215132319" lon="10.331796869294411"><ele>273.4</ele><time>2026-04-25T07:31:05.044Z</time></trkpt><trkpt lat="42.77251354169541" lon="10.331867140030797"><ele>271.6</ele><time>2026-04-25T07:31:06.044Z</time></trkpt><trkpt lat="42.772564935779734" lon="10.331947378991165"><ele>269.8</ele><time>2026-04-25T07:31:07.044Z</time></trkpt><trkpt lat="42.77261830244082" lon="10.332017864251938"><ele>268.0</ele><time>2026-04-25T07:31:08.046Z</time></trkpt><trkpt lat="42.77266796193765" lon="10.332130758513765"><ele>264.8333333333333</ele><time>2026-04-25T07:31:09.046Z</time></trkpt><trkpt lat="42.77271059928881" lon="10.33223708340035"><ele>261.66666666666663</ele><time>2026-04-25T07:31:10.046Z</time></trkpt><trkpt lat="42.77276226054271" lon="10.332325749745058"><ele>258.5</ele><time>2026-04-25T07:31:11.046Z</time></trkpt><trkpt lat="42.77281972271771" lon="10.332419104666657"><ele>255.33333333333331</ele><time>2026-04-25T07:31:12.046Z</time></trkpt><trkpt lat="42.77285822394887" lon="10.332491703833503"><ele>252.16666666666666</ele><time>2026-04-25T07:31:13.046Z</time></trkpt><trkpt lat="42.77290958598232" lon="10.332546440695172"><ele>249.0</ele><time>2026-04-25T07:31:14.046Z</time></trkpt><trkpt lat="42.77299704474548" lon="10.33264457832249"><ele>249.0</ele><time>2026-04-25T07:31:16.046Z</time></trkpt><trkpt lat="42.77304967466181" lon="10.3327030152603"><ele>248.99999999999997</ele><time>2026-04-25T07:31:17.045Z</time></trkpt><trkpt lat="42.773097311396654" lon="10.332759915684973"><ele>249.0</ele><time>2026-04-25T07:31:18.046Z</time></trkpt><trkpt lat="42.773154394345724" lon="10.332833505845846"><ele>249.0</ele><time>2026-04-25T07:31:19.046Z</time></trkpt><trkpt lat="42.773208123842295" lon="10.332908311123912"><ele>248.99999999999997</ele><time>2026-04-25T07:31:20.046Z</time></trkpt><trkpt lat="42.77326662776135" lon="10.332980355914332"><ele>249.0</ele><time>2026-04-25T07:31:21.046Z</time></trkpt><trkpt lat="42.77332032458199" lon="10.333049209680972"><ele>249.0</ele><time>2026-04-25T07:31:22.046Z</time></trkpt><trkpt lat="42.77338108117721" lon="10.333124573245634"><ele>249.2</ele><time>2026-04-25T07:31:23.046Z</time></trkpt><trkpt lat="42.77344790447055" lon="10.333213560870917"><ele>249.39999999999998</ele><time>2026-04-25T07:31:24.046Z</time></trkpt><trkpt lat="42.773531624398835" lon="10.333324806466754"><ele>249.6</ele><time>2026-04-25T07:31:25.046Z</time></trkpt><trkpt lat="42.77361599496845" lon="10.333446408158462"><ele>249.8</ele><time>2026-04-25T07:31:26.046Z</time></trkpt><trkpt lat="42.7736821347529" lon="10.333556567704102"><ele>250.0</ele><time>2026-04-25T07:31:27.046Z</time></trkpt><trkpt lat="42.77374767692563" lon="10.333687267402578"><ele>249.99999999999997</ele><time>2026-04-25T07:31:28.046Z</time></trkpt><trkpt lat="42.77379233853327" lon="10.333790918970346"><ele>250.0</ele><time>2026-04-25T07:31:29.046Z</time></trkpt><trkpt lat="42.773834161783206" lon="10.33388677751496"><ele>250.0</ele><time>2026-04-25T07:31:31.046Z</time></trkpt><trkpt lat="42.77383663867195" lon="10.333995822645406"><ele>250.0</ele><time>2026-04-25T07:31:33.046Z</time></trkpt><trkpt lat="42.77379633196455" lon="10.334103233252199"><ele>249.99999999999997</ele><time>2026-04-25T07:31:35.046Z</time></trkpt><trkpt lat="42.77376236092288" lon="10.334220773366518"><ele>250.0</ele><time>2026-04-25T07:31:37.046Z</time></trkpt><trkpt lat="42.77371289051553" lon="10.33434139270771"><ele>249.0</ele><time>2026-04-25T07:31:39.046Z</time></trkpt><trkpt lat="42.77368507686505" lon="10.3344314752006"><ele>248.0</ele><time>2026-04-25T07:31:40.046Z</time></trkpt><trkpt lat="42.7736415942879" lon="10.334529002710187"><ele>247.0</ele><time>2026-04-25T07:31:41.046Z</time></trkpt><trkpt lat="42.77358117473554" lon="10.334646723184843"><ele>246.0</ele><time>2026-04-25T07:31:42.046Z</time></trkpt><trkpt lat="42.77353973388174" lon="10.334748539898579"><ele>245.0</ele><time>2026-04-25T07:31:43.046Z</time></trkpt><trkpt lat="42.7734719360506" lon="10.33485962895257"><ele>243.2</ele><time>2026-04-25T07:31:44.046Z</time></trkpt><trkpt lat="42.77342488821504" lon="10.334982815375511"><ele>241.4</ele><time>2026-04-25T07:31:45.046Z</time></trkpt><trkpt lat="42.77337972067885" lon="10.33510176723787"><ele>239.60000000000002</ele><time>2026-04-25T07:31:46.046Z</time></trkpt><trkpt lat="42.773340053768884" lon="10.335222328732826"><ele>237.8</ele><time>2026-04-25T07:31:47.046Z</time></trkpt><trkpt lat="42.773292606025905" lon="10.335343130266947"><ele>236.0</ele><time>2026-04-25T07:31:48.046Z</time></trkpt><trkpt lat="42.773246426389186" lon="10.335457100484598"><ele>233.50000000000003</ele><time>2026-04-25T07:31:49.046Z</time></trkpt><trkpt lat="42.77320285818714" lon="10.335562435299279"><ele>231.0</ele><time>2026-04-25T07:31:50.046Z</time></trkpt><trkpt lat="42.77315647678136" lon="10.335652176914833"><ele>228.5</ele><time>2026-04-25T07:31:51.046Z</time></trkpt><trkpt lat="42.77312546298149" lon="10.33574065053761"><ele>226.0</ele><time>2026-04-25T07:31:52.046Z</time></trkpt><trkpt lat="42.773085601972625" lon="10.335816185272312"><ele>223.50000000000003</ele><time>2026-04-25T07:31:53.046Z</time></trkpt><trkpt lat="42.773055350394024" lon="10.335896582481492"><ele>221.0</ele><time>2026-04-25T07:31:54.046Z</time></trkpt><trkpt lat="42.77300467649552" lon="10.33604670581359"><ele>221.0</ele><time>2026-04-25T07:31:56.046Z</time></trkpt><trkpt lat="42.77297778743661" lon="10.336223301432913"><ele>221.00000000000003</ele><time>2026-04-25T07:31:58.046Z</time></trkpt><trkpt lat="42.77296063067791" lon="10.336330452364775"><ele>221.00000000000003</ele><time>2026-04-25T07:31:59.046Z</time></trkpt><trkpt lat="42.77293030389065" lon="10.336441301839736"><ele>221.0</ele><time>2026-04-25T07:32:00.046Z</time></trkpt><trkpt lat="42.77290133816272" lon="10.336553375059296"><ele>221.0</ele><time>2026-04-25T07:32:01.046Z</time></trkpt><trkpt lat="42.772863082321145" lon="10.336667776124848"><ele>218.0</ele><time>2026-04-25T07:32:02.046Z</time></trkpt><trkpt lat="42.7728238703217" lon="10.33678875906592"><ele>215.00000000000003</ele><time>2026-04-25T07:32:03.046Z</time></trkpt><trkpt lat="42.772785947089076" lon="10.336913614465919"><ele>212.0</ele><time>2026-04-25T07:32:04.046Z</time></trkpt><trkpt lat="42.772746615181276" lon="10.337051106897464"><ele>209.0</ele><time>2026-04-25T07:32:05.046Z</time></trkpt><trkpt lat="42.77271639397229" lon="10.337194263336963"><ele>206.0</ele><time>2026-04-25T07:32:06.046Z</time></trkpt><trkpt lat="42.77268744265751" lon="10.33732985528392"><ele>205.50000000000003</ele><time>2026-04-25T07:32:07.046Z</time></trkpt><trkpt lat="42.77265508095735" lon="10.337440105917835"><ele>205.0</ele><time>2026-04-25T07:32:08.046Z</time></trkpt><trkpt lat="42.77262419984237" lon="10.33754355621486"><ele>204.5</ele><time>2026-04-25T07:32:09.046Z</time></trkpt><trkpt lat="42.77259545612024" lon="10.337633974638113"><ele>204.0</ele><time>2026-04-25T07:32:10.046Z</time></trkpt><trkpt lat="42.77256213352715" lon="10.337727641142779"><ele>203.50000000000003</ele><time>2026-04-25T07:32:11.046Z</time></trkpt><trkpt lat="42.77252559157802" lon="10.337833692908339"><ele>203.0</ele><time>2026-04-25T07:32:12.046Z</time></trkpt><trkpt lat="42.772491441322344" lon="10.337948272086981"><ele>201.0</ele><time>2026-04-25T07:32:13.046Z</time></trkpt><trkpt lat="42.77244825879843" lon="10.338074260784381"><ele>199.0</ele><time>2026-04-25T07:32:14.046Z</time></trkpt><trkpt lat="42.77240450257682" lon="10.33820827695032"><ele>197.0</ele><time>2026-04-25T07:32:15.046Z</time></trkpt><trkpt lat="42.77235767885259" lon="10.338338433778798"><ele>195.0</ele><time>2026-04-25T07:32:16.046Z</time></trkpt><trkpt lat="42.77230884567365" lon="10.338460307100698"><ele>193.0</ele><time>2026-04-25T07:32:17.046Z</time></trkpt><trkpt lat="42.77226417145024" lon="10.338545242127042"><ele>192.99999999999997</ele><time>2026-04-25T07:32:18.046Z</time></trkpt><trkpt lat="42.772227129965785" lon="10.338635220198457"><ele>193.0</ele><time>2026-04-25T07:32:20.046Z</time></trkpt><trkpt lat="42.77224540342927" lon="10.338717592938545"><ele>193.0</ele><time>2026-04-25T07:32:55.046Z</time></trkpt><trkpt lat="42.77229553400317" lon="10.338811468056859"><ele>193.0</ele><time>2026-04-25T07:32:58.046Z</time></trkpt><trkpt lat="42.7723586211074" lon="10.338929478128989"><ele>192.99999999999997</ele><time>2026-04-25T07:33:00.046Z</time></trkpt><trkpt lat="42.772389473764235" lon="10.339007231597868"><ele>193.0</ele><time>2026-04-25T07:33:01.046Z</time></trkpt><trkpt lat="42.772422998643435" lon="10.339082553717839"><ele>191.49999999999997</ele><time>2026-04-25T07:33:02.046Z</time></trkpt><trkpt lat="42.77244442798946" lon="10.339166084355575"><ele>190.0</ele><time>2026-04-25T07:33:03.046Z</time></trkpt><trkpt lat="42.77245810057901" lon="10.339258376520577"><ele>188.5</ele><time>2026-04-25T07:33:04.046Z</time></trkpt><trkpt lat="42.772496587314656" lon="10.339382630552402"><ele>187.0</ele><time>2026-04-25T07:33:06.046Z</time></trkpt><trkpt lat="42.772575608541594" lon="10.339410195590668"><ele>185.5</ele><time>2026-04-25T07:33:08.046Z</time></trkpt><trkpt lat="42.77261123787681" lon="10.339496145272662"><ele>184.0</ele><time>2026-04-25T07:33:09.046Z</time></trkpt><trkpt lat="42.772629560697155" lon="10.339639824484275"><ele>180.16666666666669</ele><time>2026-04-25T07:33:11.046Z</time></trkpt><trkpt lat="42.77271949551773" lon="10.339700759103787"><ele>176.33333333333334</ele><time>2026-04-25T07:33:14.047Z</time></trkpt><trkpt lat="42.77279166208291" lon="10.339753550552015"><ele>172.5</ele><time>2026-04-25T07:33:16.047Z</time></trkpt><trkpt lat="42.77289242792296" lon="10.33983758876561"><ele>168.66666666666666</ele><time>2026-04-25T07:33:18.047Z</time></trkpt><trkpt lat="42.7729152264428" lon="10.339947632589274"><ele>164.83333333333331</ele><time>2026-04-25T07:33:20.048Z</time></trkpt><trkpt lat="42.77293146762488" lon="10.34003331639351"><ele>161.0</ele><time>2026-04-25T07:33:22.048Z</time></trkpt><trkpt lat="42.77299140961157" lon="10.340108185875993"><ele>160.0</ele><time>2026-04-25T07:33:24.048Z</time></trkpt><trkpt lat="42.77308441594338" lon="10.340175801945145"><ele>159.0</ele><time>2026-04-25T07:33:26.048Z</time></trkpt><trkpt lat="42.773126807339395" lon="10.340259409934557"><ele>158.0</ele><time>2026-04-25T07:33:28.048Z</time></trkpt><trkpt lat="42.77312387911849" lon="10.340407960343924"><ele>157.0</ele><time>2026-04-25T07:33:30.048Z</time></trkpt><trkpt lat="42.77313843765042" lon="10.340504342784303"><ele>156.0</ele><time>2026-04-25T07:33:31.048Z</time></trkpt><trkpt lat="42.773163336388436" lon="10.340643393162201"><ele>154.8</ele><time>2026-04-25T07:33:33.048Z</time></trkpt><trkpt lat="42.77321089373608" lon="10.340780013698845"><ele>153.6</ele><time>2026-04-25T07:33:35.048Z</time></trkpt><trkpt lat="42.77324995515128" lon="10.34085216202888"><ele>152.4</ele><time>2026-04-25T07:33:36.048Z</time></trkpt><trkpt lat="42.77322786955389" lon="10.340992100320083"><ele>151.2</ele><time>2026-04-25T07:33:38.048Z</time></trkpt><trkpt lat="42.77321924408283" lon="10.341080302279698"><ele>150.0</ele><time>2026-04-25T07:33:39.048Z</time></trkpt><trkpt lat="42.77326534100488" lon="10.341205995499282"><ele>150.0</ele><time>2026-04-25T07:33:41.048Z</time></trkpt><trkpt lat="42.77332185771823" lon="10.341245322970048"><ele>150.0</ele><time>2026-04-25T07:33:42.048Z</time></trkpt><trkpt lat="42.77343373884731" lon="10.341275578905975"><ele>150.0</ele><time>2026-04-25T07:33:44.047Z</time></trkpt><trkpt lat="42.77352482115024" lon="10.341278807990992"><ele>150.0</ele><time>2026-04-25T07:33:47.047Z</time></trkpt><trkpt lat="42.77359292368811" lon="10.341296170124517"><ele>150.0</ele><time>2026-04-25T07:33:49.047Z</time></trkpt><trkpt lat="42.77365027791368" lon="10.341347456597813"><ele>150.0</ele><time>2026-04-25T07:33:51.047Z</time></trkpt><trkpt lat="42.77370287704894" lon="10.341407542872455"><ele>146.28571428571428</ele><time>2026-04-25T07:33:55.047Z</time></trkpt><trkpt lat="42.77376750367952" lon="10.341467103043971"><ele>142.57142857142856</ele><time>2026-04-25T07:34:01.047Z</time></trkpt><trkpt lat="42.7738304105051" lon="10.34147462992276"><ele>138.85714285714286</ele><time>2026-04-25T07:34:03.047Z</time></trkpt><trkpt lat="42.77390314089585" lon="10.341486863120805"><ele>135.14285714285714</ele><time>2026-04-25T07:34:05.047Z</time></trkpt><trkpt lat="42.77396246025788" lon="10.3415277753583"><ele>131.42857142857144</ele><time>2026-04-25T07:34:07.047Z</time></trkpt><trkpt lat="42.77402073678409" lon="10.34157604977246"><ele>127.71428571428572</ele><time>2026-04-25T07:34:09.047Z</time></trkpt><trkpt lat="42.77409411674219" lon="10.34159186313277"><ele>124.0</ele><time>2026-04-25T07:34:12.047Z</time></trkpt><trkpt lat="42.774160982739104" lon="10.341550531955594"><ele>124.00000000000001</ele><time>2026-04-25T07:34:15.047Z</time></trkpt><trkpt lat="42.774227260606125" lon="10.341559598073534"><ele>124.0</ele><time>2026-04-25T07:34:17.047Z</time></trkpt><trkpt lat="42.774332460462745" lon="10.341556989671098"><ele>124.0</ele><time>2026-04-25T07:34:19.047Z</time></trkpt><trkpt lat="42.774395707404274" lon="10.341573468591637"><ele>124.0</ele><time>2026-04-25T07:34:20.047Z</time></trkpt><trkpt lat="42.77449793036107" lon="10.341575457244131"><ele>124.00000000000001</ele><time>2026-04-25T07:34:22.047Z</time></trkpt><trkpt lat="42.77459866742668" lon="10.341590836121"><ele>124.0</ele><time>2026-04-25T07:34:24.047Z</time></trkpt><trkpt lat="42.77471272607938" lon="10.341587473187385"><ele>120.0</ele><time>2026-04-25T07:34:26.047Z</time></trkpt><trkpt lat="42.77482452537702" lon="10.34162140430604"><ele>116.0</ele><time>2026-04-25T07:34:28.047Z</time></trkpt><trkpt lat="42.77492632768537" lon="10.341688354673195"><ele>112.0</ele><time>2026-04-25T07:34:30.047Z</time></trkpt><trkpt lat="42.77500440594025" lon="10.341756500024289"><ele>108.0</ele><time>2026-04-25T07:34:32.047Z</time></trkpt><trkpt lat="42.77509446029091" lon="10.341737909142603"><ele>104.0</ele><time>2026-04-25T07:34:35.047Z</time></trkpt><trkpt lat="42.77516407691929" lon="10.34173970294088"><ele>101.14285714285714</ele><time>2026-04-25T07:34:37.047Z</time></trkpt><trkpt lat="42.77522946650352" lon="10.341712434447933"><ele>98.28571428571429</ele><time>2026-04-25T07:34:40.047Z</time></trkpt><trkpt lat="42.77527586702634" lon="10.34162265906968"><ele>95.42857142857143</ele><time>2026-04-25T07:34:43.047Z</time></trkpt><trkpt lat="42.775321005424026" lon="10.341558801613612"><ele>92.57142857142857</ele><time>2026-04-25T07:34:45.047Z</time></trkpt><trkpt lat="42.77538894114865" lon="10.341589341335542"><ele>89.71428571428572</ele><time>2026-04-25T07:34:47.047Z</time></trkpt><trkpt lat="42.77544617859916" lon="10.341641440159083"><ele>86.85714285714286</ele><time>2026-04-25T07:34:49.047Z</time></trkpt><trkpt lat="42.77546726257179" lon="10.341734134427828"><ele>84.0</ele><time>2026-04-25T07:34:52.047Z</time></trkpt><trkpt lat="42.77550392961956" lon="10.341814637700214"><ele>84.0</ele><time>2026-04-25T07:34:55.047Z</time></trkpt><trkpt lat="42.775583709904694" lon="10.341874419846416"><ele>84.0</ele><time>2026-04-25T07:34:58.047Z</time></trkpt><trkpt lat="42.775648111866374" lon="10.341955003813831"><ele>84.0</ele><time>2026-04-25T07:35:01.047Z</time></trkpt><trkpt lat="42.77570188600747" lon="10.342028089278147"><ele>84.0</ele><time>2026-04-25T07:35:04.047Z</time></trkpt><trkpt lat="42.7757407352053" lon="10.34211175975449"><ele>84.0</ele><time>2026-04-25T07:35:07.047Z</time></trkpt><trkpt lat="42.77578231890221" lon="10.342179559749093"><ele>84.0</ele><time>2026-04-25T07:35:12.047Z</time></trkpt><trkpt lat="42.77583333891041" lon="10.342269879672816"><ele>83.71428571428571</ele><time>2026-04-25T07:35:16.047Z</time></trkpt><trkpt lat="42.77589744814588" lon="10.342296463464798"><ele>83.42857142857143</ele><time>2026-04-25T07:35:19.047Z</time></trkpt><trkpt lat="42.77598493893711" lon="10.34229765385146"><ele>83.14285714285714</ele><time>2026-04-25T07:35:22.049Z</time></trkpt><trkpt lat="42.77603980600083" lon="10.342352742929322"><ele>82.85714285714286</ele><time>2026-04-25T07:35:24.049Z</time></trkpt><trkpt lat="42.77609250311673" lon="10.342429914040425"><ele>82.57142857142857</ele><time>2026-04-25T07:35:28.05Z</time></trkpt><trkpt lat="42.776148933919146" lon="10.342468314924325"><ele>82.28571428571428</ele><time>2026-04-25T07:35:31.049Z</time></trkpt><trkpt lat="42.77621659866844" lon="10.342474143728932"><ele>82.0</ele><time>2026-04-25T07:35:34.05Z</time></trkpt><trkpt lat="42.77627125829858" lon="10.342416399615583"><ele>80.5</ele><time>2026-04-25T07:35:38.05Z</time></trkpt><trkpt lat="42.77633957947043" lon="10.34240415334702"><ele>79.0</ele><time>2026-04-25T07:35:49.05Z</time></trkpt><trkpt lat="42.77643660533212" lon="10.34232245804974"><ele>77.5</ele><time>2026-04-25T07:36:14.05Z</time></trkpt><trkpt lat="42.776504737497525" lon="10.3423124133439"><ele>76.0</ele><time>2026-04-25T07:36:19.05Z</time></trkpt><trkpt lat="42.77652631759111" lon="10.342218525900655"><ele>74.5</ele><time>2026-04-25T07:36:40.049Z</time></trkpt><trkpt lat="42.776511352663796" lon="10.342113958835705"><ele>73.0</ele><time>2026-04-25T07:36:43.049Z</time></trkpt><trkpt lat="42.776511839150544" lon="10.342018833113329"><ele>73.0</ele><time>2026-04-25T07:36:46.049Z</time></trkpt><trkpt lat="42.776574825910316" lon="10.342017388553842"><ele>73.0</ele><time>2026-04-25T07:36:52.049Z</time></trkpt><trkpt lat="42.77665269539227" lon="10.34207745265692"><ele>73.0</ele><time>2026-04-25T07:36:56.049Z</time></trkpt><trkpt lat="42.77671425300768" lon="10.342130962866422"><ele>73.0</ele><time>2026-04-25T07:36:59.049Z</time></trkpt><trkpt lat="42.776786173243934" lon="10.342168542426256"><ele>73.0</ele><time>2026-04-25T07:37:02.049Z</time></trkpt><trkpt lat="42.77683946252071" lon="10.342224000181792"><ele>73.0</ele><time>2026-04-25T07:37:04.049Z</time></trkpt><trkpt lat="42.776899334648746" lon="10.342326854136472"><ele>72.6</ele><time>2026-04-25T07:37:07.049Z</time></trkpt><trkpt lat="42.776922706037695" lon="10.342415512771892"><ele>72.19999999999999</ele><time>2026-04-25T07:37:09.049Z</time></trkpt><trkpt lat="42.77692511358239" lon="10.342575162023158"><ele>71.8</ele><time>2026-04-25T07:37:11.049Z</time></trkpt><trkpt lat="42.7769794709443" lon="10.34270814649561"><ele>71.39999999999999</ele><time>2026-04-25T07:37:13.049Z</time></trkpt><trkpt lat="42.77705907966138" lon="10.342820289568735"><ele>71.0</ele><time>2026-04-25T07:37:15.049Z</time></trkpt><trkpt lat="42.77711955682473" lon="10.342891732068924"><ele>71.0</ele><time>2026-04-25T07:37:16.049Z</time></trkpt><trkpt lat="42.77717406148382" lon="10.342969352855432"><ele>71.0</ele><time>2026-04-25T07:37:17.049Z</time></trkpt><trkpt lat="42.77725230274266" lon="10.343045981136356"><ele>71.0</ele><time>2026-04-25T07:37:18.049Z</time></trkpt><trkpt lat="42.777325643378056" lon="10.343125460396493"><ele>71.0</ele><time>2026-04-25T07:37:19.049Z</time></trkpt><trkpt lat="42.777390148682336" lon="10.343205090303947"><ele>71.0</ele><time>2026-04-25T07:37:20.049Z</time></trkpt><trkpt lat="42.7774444991143" lon="10.34327090468372"><ele>71.0</ele><time>2026-04-25T07:37:21.049Z</time></trkpt><trkpt lat="42.777488831213844" lon="10.343334572260119"><ele>69.39999999999999</ele><time>2026-04-25T07:37:22.049Z</time></trkpt><trkpt lat="42.777517006290836" lon="10.34347767137076"><ele>67.8</ele><time>2026-04-25T07:37:24.049Z</time></trkpt><trkpt lat="42.77756326756635" lon="10.34360679270121"><ele>66.19999999999999</ele><time>2026-04-25T07:37:25.049Z</time></trkpt><trkpt lat="42.777601285745305" lon="10.343727951774769"><ele>64.6</ele><time>2026-04-25T07:37:26.051Z</time></trkpt><trkpt lat="42.777662742076096" lon="10.343842210916877"><ele>63.0</ele><time>2026-04-25T07:37:27.051Z</time></trkpt><trkpt lat="42.77772759212311" lon="10.343955918715894"><ele>62.333333333333336</ele><time>2026-04-25T07:37:28.051Z</time></trkpt><trkpt lat="42.77778499472577" lon="10.344046785868999"><ele>61.66666666666667</ele><time>2026-04-25T07:37:29.051Z</time></trkpt><trkpt lat="42.77784264041822" lon="10.344111185723232"><ele>61.0</ele><time>2026-04-25T07:37:30.052Z</time></trkpt><trkpt lat="42.77789147121074" lon="10.344195962779366"><ele>60.333333333333336</ele><time>2026-04-25T07:37:31.052Z</time></trkpt><trkpt lat="42.777936402418064" lon="10.34428883023981"><ele>59.66666666666667</ele><time>2026-04-25T07:37:32.052Z</time></trkpt><trkpt lat="42.77797959019933" lon="10.344376560726072"><ele>59.0</ele><time>2026-04-25T07:37:33.051Z</time></trkpt><trkpt lat="42.778024290200285" lon="10.344460083110393"><ele>59.0</ele><time>2026-04-25T07:37:34.051Z</time></trkpt><trkpt lat="42.77807057082015" lon="10.344549121909209"><ele>59.0</ele><time>2026-04-25T07:37:35.051Z</time></trkpt><trkpt lat="42.778113830599374" lon="10.344616545599795"><ele>59.0</ele><time>2026-04-25T07:37:36.051Z</time></trkpt><trkpt lat="42.77816134707621" lon="10.344706416033693"><ele>59.0</ele><time>2026-04-25T07:37:37.051Z</time></trkpt><trkpt lat="42.7782067599543" lon="10.344776059400857"><ele>59.0</ele><time>2026-04-25T07:37:38.051Z</time></trkpt><trkpt lat="42.77825277537449" lon="10.344840960719724"><ele>59.0</ele><time>2026-04-25T07:37:39.051Z</time></trkpt><trkpt lat="42.77829369736808" lon="10.344908091601507"><ele>59.0</ele><time>2026-04-25T07:37:40.051Z</time></trkpt><trkpt lat="42.7783869725431" lon="10.34502862211355"><ele>58.00000000000001</ele><time>2026-04-25T07:37:42.051Z</time></trkpt><trkpt lat="42.778431274420896" lon="10.345104143285715"><ele>57.0</ele><time>2026-04-25T07:37:43.051Z</time></trkpt><trkpt lat="42.77850607324209" lon="10.34525746014211"><ele>56.0</ele><time>2026-04-25T07:37:45.051Z</time></trkpt><trkpt lat="42.778543181479456" lon="10.345337789395828"><ele>55.0</ele><time>2026-04-25T07:37:46.051Z</time></trkpt><trkpt lat="42.77857766538912" lon="10.345423512672811"><ele>54.00000000000001</ele><time>2026-04-25T07:37:47.051Z</time></trkpt><trkpt lat="42.77857083177828" lon="10.345555384851922"><ele>53.0</ele><time>2026-04-25T07:37:49.051Z</time></trkpt><trkpt lat="42.778489425867065" lon="10.34563812374157"><ele>52.333333333333336</ele><time>2026-04-25T07:37:51.051Z</time></trkpt><trkpt lat="42.7784140502869" lon="10.345710556491985"><ele>51.66666666666667</ele><time>2026-04-25T07:37:53.051Z</time></trkpt><trkpt lat="42.778351778898625" lon="10.345769219332556"><ele>51.0</ele><time>2026-04-25T07:37:55.051Z</time></trkpt><trkpt lat="42.778294936498106" lon="10.345827677986748"><ele>50.33333333333333</ele><time>2026-04-25T07:37:57.051Z</time></trkpt><trkpt lat="42.778293673736044" lon="10.345947386777912"><ele>49.666666666666664</ele><time>2026-04-25T07:38:00.051Z</time></trkpt><trkpt lat="42.778359963480796" lon="10.346048501819167"><ele>49.0</ele><time>2026-04-25T07:38:02.051Z</time></trkpt><trkpt lat="42.77845234039647" lon="10.346164560445539"><ele>48.99999999999999</ele><time>2026-04-25T07:38:04.051Z</time></trkpt><trkpt lat="42.778504585183136" lon="10.346242569194391"><ele>49.0</ele><time>2026-04-25T07:38:05.051Z</time></trkpt><trkpt lat="42.778563349414924" lon="10.346321008205356"><ele>49.0</ele><time>2026-04-25T07:38:06.051Z</time></trkpt><trkpt lat="42.77862498279699" lon="10.346382473343574"><ele>49.0</ele><time>2026-04-25T07:38:07.051Z</time></trkpt><trkpt lat="42.77869479320827" lon="10.346448071370592"><ele>48.99999999999999</ele><time>2026-04-25T07:38:08.051Z</time></trkpt><trkpt lat="42.77876184540964" lon="10.346499565602596"><ele>49.0</ele><time>2026-04-25T07:38:09.051Z</time></trkpt><trkpt lat="42.77883058806809" lon="10.346559220436154"><ele>48.666666666666664</ele><time>2026-04-25T07:38:10.051Z</time></trkpt><trkpt lat="42.7788825127227" lon="10.346633041685445"><ele>48.33333333333333</ele><time>2026-04-25T07:38:11.051Z</time></trkpt><trkpt lat="42.77892683778683" lon="10.346718275111082"><ele>48.0</ele><time>2026-04-25T07:38:12.051Z</time></trkpt><trkpt lat="42.77895905166389" lon="10.346795690124921"><ele>47.666666666666664</ele><time>2026-04-25T07:38:13.051Z</time></trkpt><trkpt lat="42.77898284488667" lon="10.346897135800324"><ele>47.33333333333333</ele><time>2026-04-25T07:38:14.051Z</time></trkpt><trkpt lat="42.77902552382853" lon="10.34703247356566"><ele>47.0</ele><time>2026-04-25T07:38:16.051Z</time></trkpt><trkpt lat="42.779068426182064" lon="10.347123483464566"><ele>47.2</ele><time>2026-04-25T07:38:26.051Z</time></trkpt><trkpt lat="42.7790201215927" lon="10.34729497068396"><ele>47.400000000000006</ele><time>2026-04-25T07:38:29.051Z</time></trkpt><trkpt lat="42.7789796342071" lon="10.347412212035161"><ele>47.599999999999994</ele><time>2026-04-25T07:38:30.051Z</time></trkpt><trkpt lat="42.77892736509005" lon="10.347532106644524"><ele>47.8</ele><time>2026-04-25T07:38:31.051Z</time></trkpt><trkpt lat="42.77887795535744" lon="10.347645877849908"><ele>48.0</ele><time>2026-04-25T07:38:32.051Z</time></trkpt><trkpt lat="42.77882875001521" lon="10.347752359709839"><ele>48.0</ele><time>2026-04-25T07:38:33.051Z</time></trkpt><trkpt lat="42.77878799680262" lon="10.347858643348289"><ele>48.0</ele><time>2026-04-25T07:38:34.051Z</time></trkpt><trkpt lat="42.77874693101074" lon="10.347966860388253"><ele>48.0</ele><time>2026-04-25T07:38:35.051Z</time></trkpt><trkpt lat="42.778706892970696" lon="10.348091593707496"><ele>48.0</ele><time>2026-04-25T07:38:36.051Z</time></trkpt><trkpt lat="42.77866810440149" lon="10.34820467323672"><ele>48.0</ele><time>2026-04-25T07:38:37.051Z</time></trkpt><trkpt lat="42.77862141136146" lon="10.348318911967663"><ele>47.833333333333336</ele><time>2026-04-25T07:38:38.051Z</time></trkpt><trkpt lat="42.77857333913074" lon="10.348412952092891"><ele>47.666666666666664</ele><time>2026-04-25T07:38:39.051Z</time></trkpt><trkpt lat="42.77851294120552" lon="10.348510531883358"><ele>47.5</ele><time>2026-04-25T07:38:41.051Z</time></trkpt><trkpt lat="42.77847358988899" lon="10.348585476811015"><ele>47.33333333333333</ele><time>2026-04-25T07:38:43.051Z</time></trkpt><trkpt lat="42.778443685595924" lon="10.348688954003723"><ele>47.166666666666664</ele><time>2026-04-25T07:38:45.051Z</time></trkpt><trkpt lat="42.77843750108241" lon="10.348779023051634"><ele>47.0</ele><time>2026-04-25T07:38:46.051Z</time></trkpt><trkpt lat="42.778426198003515" lon="10.348899610627946"><ele>45.2</ele><time>2026-04-25T07:38:47.051Z</time></trkpt><trkpt lat="42.77839148964398" lon="10.34903034079446"><ele>43.400000000000006</ele><time>2026-04-25T07:38:48.051Z</time></trkpt><trkpt lat="42.778351660524024" lon="10.349140781869723"><ele>41.599999999999994</ele><time>2026-04-25T07:38:49.051Z</time></trkpt><trkpt lat="42.77829522539357" lon="10.349269686671262"><ele>39.8</ele><time>2026-04-25T07:38:50.05Z</time></trkpt><trkpt lat="42.77824423532942" lon="10.349372623344083"><ele>38.0</ele><time>2026-04-25T07:38:51.05Z</time></trkpt><trkpt lat="42.778192099855794" lon="10.349452698396917"><ele>38.0</ele><time>2026-04-25T07:38:52.05Z</time></trkpt><trkpt lat="42.778145047075746" lon="10.349519928932907"><ele>38.0</ele><time>2026-04-25T07:38:53.05Z</time></trkpt><trkpt lat="42.77811761729179" lon="10.349601827614118"><ele>38.0</ele><time>2026-04-25T07:38:56.05Z</time></trkpt><trkpt lat="42.77813633026598" lon="10.349700717474253"><ele>38.0</ele><time>2026-04-25T07:39:49.052Z</time></trkpt><trkpt lat="42.778171870023485" lon="10.349789107478099"><ele>38.0</ele><time>2026-04-25T07:39:51.052Z</time></trkpt><trkpt lat="42.77819272026779" lon="10.349918492674485"><ele>38.0</ele><time>2026-04-25T07:39:53.052Z</time></trkpt><trkpt lat="42.778240401618795" lon="10.3500102273724"><ele>38.199999999999996</ele><time>2026-04-25T07:39:55.052Z</time></trkpt><trkpt lat="42.778274626359305" lon="10.350093751500781"><ele>38.4</ele><time>2026-04-25T07:39:56.052Z</time></trkpt><trkpt lat="42.77830753096332" lon="10.350242796232735"><ele>38.599999999999994</ele><time>2026-04-25T07:39:58.052Z</time></trkpt><trkpt lat="42.77837582776199" lon="10.350355297758034"><ele>38.8</ele><time>2026-04-25T07:40:00.052Z</time></trkpt><trkpt lat="42.778479202348926" lon="10.350434510198678"><ele>39.0</ele><time>2026-04-25T07:40:02.052Z</time></trkpt><trkpt lat="42.77854652092695" lon="10.350481576633447"><ele>38.6</ele><time>2026-04-25T07:40:03.052Z</time></trkpt><trkpt lat="42.778601427418344" lon="10.350569078920833"><ele>38.2</ele><time>2026-04-25T07:40:04.052Z</time></trkpt><trkpt lat="42.77866950150603" lon="10.35070569030528"><ele>37.800000000000004</ele><time>2026-04-25T07:40:06.052Z</time></trkpt><trkpt lat="42.77872700373965" lon="10.350789816376498"><ele>37.4</ele><time>2026-04-25T07:40:07.052Z</time></trkpt><trkpt lat="42.77877280902246" lon="10.350903516960834"><ele>37.0</ele><time>2026-04-25T07:40:08.052Z</time></trkpt><trkpt lat="42.77881257967796" lon="10.350979479710226"><ele>37.0</ele><time>2026-04-25T07:40:09.052Z</time></trkpt><trkpt lat="42.77884572724505" lon="10.35110830804523"><ele>37.0</ele><time>2026-04-25T07:40:10.052Z</time></trkpt><trkpt lat="42.778886029697645" lon="10.351214945193698"><ele>37.0</ele><time>2026-04-25T07:40:11.052Z</time></trkpt><trkpt lat="42.77892932578489" lon="10.351299965985104"><ele>37.0</ele><time>2026-04-25T07:40:12.052Z</time></trkpt><trkpt lat="42.77897384514836" lon="10.351463963728529"><ele>37.0</ele><time>2026-04-25T07:40:14.052Z</time></trkpt><trkpt lat="42.77901427333853" lon="10.35153301471905"><ele>37.8</ele><time>2026-04-25T07:40:15.052Z</time></trkpt><trkpt lat="42.77903165841421" lon="10.351651889506668"><ele>38.6</ele><time>2026-04-25T07:40:17.052Z</time></trkpt><trkpt lat="42.77895511776005" lon="10.351601697922197"><ele>39.4</ele><time>2026-04-25T07:40:21.052Z</time></trkpt><trkpt lat="42.778912297181485" lon="10.351516303033709"><ele>40.199999999999996</ele><time>2026-04-25T07:40:23.052Z</time></trkpt><trkpt lat="42.778816762683434" lon="10.35143317213218"><ele>41.0</ele><time>2026-04-25T07:40:25.052Z</time></trkpt><trkpt lat="42.77871741362508" lon="10.351388829297422"><ele>41.0</ele><time>2026-04-25T07:40:27.052Z</time></trkpt><trkpt lat="42.77861495748033" lon="10.351409223636455"><ele>41.0</ele><time>2026-04-25T07:40:29.052Z</time></trkpt><trkpt lat="42.778494739744275" lon="10.351424869806037"><ele>41.0</ele><time>2026-04-25T07:40:31.052Z</time></trkpt><trkpt lat="42.778415857551785" lon="10.351449395795342"><ele>41.0</ele><time>2026-04-25T07:40:32.052Z</time></trkpt><trkpt lat="42.77833879530886" lon="10.351459628468856"><ele>41.0</ele><time>2026-04-25T07:40:33.052Z</time></trkpt><trkpt lat="42.778273531833044" lon="10.351478967096826"><ele>41.0</ele><time>2026-04-25T07:40:34.052Z</time></trkpt><trkpt lat="42.77819076800269" lon="10.351559343648482"><ele>41.0</ele><time>2026-04-25T07:40:36.052Z</time></trkpt><trkpt lat="42.77818549240913" lon="10.35165124103654"><ele>41.0</ele><time>2026-04-25T07:40:39.052Z</time></trkpt><trkpt lat="42.7782505260371" lon="10.351673299893164"><ele>41.0</ele><time>2026-04-25T07:40:41.052Z</time></trkpt><trkpt lat="42.778333341631345" lon="10.351684430640281"><ele>41.0</ele><time>2026-04-25T07:40:43.052Z</time></trkpt><trkpt lat="42.77844288875842" lon="10.351698508368091"><ele>41.0</ele><time>2026-04-25T07:40:45.052Z</time></trkpt><trkpt lat="42.77851928859933" lon="10.351712943422234"><ele>41.0</ele><time>2026-04-25T07:40:47.052Z</time></trkpt><trkpt lat="42.778598181329016" lon="10.351768043611164"><ele>41.0</ele><time>2026-04-25T07:40:49.052Z</time></trkpt><trkpt lat="42.778678799109734" lon="10.351865988373477"><ele>41.0</ele><time>2026-04-25T07:40:52.052Z</time></trkpt><trkpt lat="42.77869350575024" lon="10.351964713549707"><ele>41.0</ele><time>2026-04-25T07:40:55.052Z</time></trkpt><trkpt lat="42.778659616502665" lon="10.352040384772277"><ele>41.0</ele><time>2026-04-25T07:41:00.052Z</time></trkpt><trkpt lat="42.77859038242114" lon="10.352068982100402"><ele>41.0</ele><time>2026-04-25T07:41:03.052Z</time></trkpt><trkpt lat="42.77854402450957" lon="10.352141766605262"><ele>41.0</ele><time>2026-04-25T07:41:05.052Z</time></trkpt><trkpt lat="42.77850942221683" lon="10.352229292362638"><ele>45.0</ele><time>2026-04-25T07:41:07.052Z</time></trkpt><trkpt lat="42.778475043378016" lon="10.352369311321533"><ele>49.0</ele><time>2026-04-25T07:41:10.052Z</time></trkpt><trkpt lat="42.77844202735897" lon="10.35248819710114"><ele>53.0</ele><time>2026-04-25T07:41:12.052Z</time></trkpt><trkpt lat="42.7783973286723" lon="10.352616690499403"><ele>57.0</ele><time>2026-04-25T07:41:15.052Z</time></trkpt><trkpt lat="42.778354069598265" lon="10.35268492221137"><ele>61.00000000000001</ele><time>2026-04-25T07:41:17.052Z</time></trkpt><trkpt lat="42.778302603200615" lon="10.352746734439826"><ele>65.0</ele><time>2026-04-25T07:41:19.052Z</time></trkpt><trkpt lat="42.77823124899915" lon="10.352828379455625"><ele>65.0</ele><time>2026-04-25T07:41:24.052Z</time></trkpt><trkpt lat="42.77820360821819" lon="10.352921148079199"><ele>65.0</ele><time>2026-04-25T07:41:26.052Z</time></trkpt><trkpt lat="42.778167685466066" lon="10.353010247647395"><ele>65.0</ele><time>2026-04-25T07:41:29.052Z</time></trkpt><trkpt lat="42.77812381620881" lon="10.353071928148479"><ele>65.0</ele><time>2026-04-25T07:41:31.052Z</time></trkpt><trkpt lat="42.77805120984232" lon="10.353118894982305"><ele>65.0</ele><time>2026-04-25T07:41:33.052Z</time></trkpt><trkpt lat="42.777974446670854" lon="10.353179675903169"><ele>65.0</ele><time>2026-04-25T07:41:35.052Z</time></trkpt><trkpt lat="42.77794145598427" lon="10.353290404059159"><ele>67.0</ele><time>2026-04-25T07:41:37.052Z</time></trkpt><trkpt lat="42.77791050569622" lon="10.353407170628286"><ele>69.0</ele><time>2026-04-25T07:41:39.054Z</time></trkpt><trkpt lat="42.77787182184349" lon="10.353532806093115"><ele>71.0</ele><time>2026-04-25T07:41:43.054Z</time></trkpt><trkpt lat="42.77783149077922" lon="10.353651702437071"><ele>73.0</ele><time>2026-04-25T07:41:44.055Z</time></trkpt><trkpt lat="42.77778799443923" lon="10.353795399447405"><ele>75.0</ele><time>2026-04-25T07:41:46.054Z</time></trkpt><trkpt lat="42.77780790966334" lon="10.353915826208421"><ele>75.6</ele><time>2026-04-25T07:41:48.055Z</time></trkpt><trkpt lat="42.777805473559134" lon="10.354005165005699"><ele>76.2</ele><time>2026-04-25T07:41:49.055Z</time></trkpt><trkpt lat="42.777789196228355" lon="10.35413511431581"><ele>76.8</ele><time>2026-04-25T07:41:51.054Z</time></trkpt><trkpt lat="42.777808917577616" lon="10.354266492671272"><ele>77.4</ele><time>2026-04-25T07:41:53.054Z</time></trkpt><trkpt lat="42.77779005936983" lon="10.35440655972221"><ele>78.0</ele><time>2026-04-25T07:41:55.054Z</time></trkpt><trkpt lat="42.77775547842117" lon="10.354535705624137"><ele>78.0</ele><time>2026-04-25T07:41:57.054Z</time></trkpt><trkpt lat="42.77777968296239" lon="10.354649360506071"><ele>78.0</ele><time>2026-04-25T07:41:59.054Z</time></trkpt><trkpt lat="42.77780171051102" lon="10.354787608998521"><ele>78.0</ele><time>2026-04-25T07:42:53.054Z</time></trkpt><trkpt lat="42.77784307152379" lon="10.354853868816264"><ele>78.0</ele><time>2026-04-25T07:42:57.054Z</time></trkpt><trkpt lat="42.77792300222077" lon="10.35493309658717"><ele>78.0</ele><time>2026-04-25T07:43:00.054Z</time></trkpt><trkpt lat="42.77800135993129" lon="10.355068776047608"><ele>78.2</ele><time>2026-04-25T07:43:02.054Z</time></trkpt><trkpt lat="42.77805691900385" lon="10.35513774169481"><ele>78.4</ele><time>2026-04-25T07:43:03.054Z</time></trkpt><trkpt lat="42.77812249339934" lon="10.355191295487064"><ele>78.60000000000001</ele><time>2026-04-25T07:43:04.054Z</time></trkpt><trkpt lat="42.77822367377716" lon="10.355261645013213"><ele>78.8</ele><time>2026-04-25T07:43:06.054Z</time></trkpt><trkpt lat="42.77830009384991" lon="10.355371208217049"><ele>79.0</ele><time>2026-04-25T07:43:08.054Z</time></trkpt><trkpt lat="42.778358613834456" lon="10.355463289984064"><ele>77.83333333333333</ele><time>2026-04-25T07:43:09.054Z</time></trkpt><trkpt lat="42.77841876524375" lon="10.355540415056852"><ele>76.66666666666666</ele><time>2026-04-25T07:43:10.054Z</time></trkpt><trkpt lat="42.778479685407376" lon="10.355642377986216"><ele>75.5</ele><time>2026-04-25T07:43:11.054Z</time></trkpt><trkpt lat="42.77853430159849" lon="10.355745709325149"><ele>74.33333333333333</ele><time>2026-04-25T07:43:12.054Z</time></trkpt><trkpt lat="42.778584549981126" lon="10.35583562144984"><ele>73.16666666666667</ele><time>2026-04-25T07:43:13.054Z</time></trkpt><trkpt lat="42.77862789951177" lon="10.355931707487677"><ele>72.0</ele><time>2026-04-25T07:43:14.054Z</time></trkpt><trkpt lat="42.77867852589893" lon="10.356009073051855"><ele>70.5</ele><time>2026-04-25T07:43:15.054Z</time></trkpt><trkpt lat="42.778716703824855" lon="10.356080026977853"><ele>69.0</ele><time>2026-04-25T07:43:16.054Z</time></trkpt><trkpt lat="42.77874183001217" lon="10.35616478662785"><ele>67.5</ele><time>2026-04-25T07:43:17.054Z</time></trkpt><trkpt lat="42.77875889708185" lon="10.356269271085704"><ele>66.0</ele><time>2026-04-25T07:43:18.054Z</time></trkpt><trkpt lat="42.77875148139189" lon="10.356364912840537"><ele>64.5</ele><time>2026-04-25T07:43:19.054Z</time></trkpt><trkpt lat="42.77876143862045" lon="10.356507282963085"><ele>63.0</ele><time>2026-04-25T07:43:20.054Z</time></trkpt><trkpt lat="42.77875985344901" lon="10.35662088099772"><ele>63.0</ele><time>2026-04-25T07:43:21.054Z</time></trkpt><trkpt lat="42.77876215203072" lon="10.35675238285396"><ele>63.0</ele><time>2026-04-25T07:43:22.054Z</time></trkpt><trkpt lat="42.77876046773232" lon="10.356873925383205"><ele>63.0</ele><time>2026-04-25T07:43:23.054Z</time></trkpt><trkpt lat="42.77877301879152" lon="10.356996660613676"><ele>63.0</ele><time>2026-04-25T07:43:24.054Z</time></trkpt><trkpt lat="42.77879793762001" lon="10.357116366617296"><ele>63.0</ele><time>2026-04-25T07:43:25.054Z</time></trkpt><trkpt lat="42.77882459323288" lon="10.357231605494889"><ele>62.833333333333336</ele><time>2026-04-25T07:43:26.054Z</time></trkpt><trkpt lat="42.77883897391236" lon="10.3573482036692"><ele>62.66666666666667</ele><time>2026-04-25T07:43:27.054Z</time></trkpt><trkpt lat="42.77883503706647" lon="10.357456043315658"><ele>62.5</ele><time>2026-04-25T07:43:28.054Z</time></trkpt><trkpt lat="42.77883397520522" lon="10.357554070146998"><ele>62.333333333333336</ele><time>2026-04-25T07:43:29.054Z</time></trkpt><trkpt lat="42.77882811350529" lon="10.357655112360796"><ele>62.16666666666667</ele><time>2026-04-25T07:43:30.054Z</time></trkpt><trkpt lat="42.77882748897349" lon="10.357776058066097"><ele>62.0</ele><time>2026-04-25T07:43:31.054Z</time></trkpt><trkpt lat="42.77882748391349" lon="10.357882782965882"><ele>62.00000000000001</ele><time>2026-04-25T07:43:32.054Z</time></trkpt><trkpt lat="42.77882914780366" lon="10.357986550147553"><ele>62.0</ele><time>2026-04-25T07:43:33.054Z</time></trkpt><trkpt lat="42.778816774807005" lon="10.358120449625924"><ele>62.0</ele><time>2026-04-25T07:43:35.054Z</time></trkpt><trkpt lat="42.778751302487656" lon="10.35811523114696"><ele>62.0</ele><time>2026-04-25T07:43:38.054Z</time></trkpt><trkpt lat="42.778692307257515" lon="10.358016773637363"><ele>62.00000000000001</ele><time>2026-04-25T07:43:40.054Z</time></trkpt><trkpt lat="42.778640675452706" lon="10.357932739729467"><ele>62.0</ele><time>2026-04-25T07:43:41.054Z</time></trkpt><trkpt lat="42.77857533364771" lon="10.35786077949536"><ele>61.66666666666667</ele><time>2026-04-25T07:43:42.054Z</time></trkpt><trkpt lat="42.77850691314432" lon="10.357779209870108"><ele>61.333333333333336</ele><time>2026-04-25T07:43:43.054Z</time></trkpt><trkpt lat="42.77843793435203" lon="10.357694902896315"><ele>61.0</ele><time>2026-04-25T07:43:44.057Z</time></trkpt><trkpt lat="42.778379362652146" lon="10.357614414763638"><ele>60.66666666666667</ele><time>2026-04-25T07:43:45.056Z</time></trkpt><trkpt lat="42.778331123797685" lon="10.35750834655604"><ele>60.333333333333336</ele><time>2026-04-25T07:43:46.056Z</time></trkpt><trkpt lat="42.778305135692406" lon="10.357400601045757"><ele>60.0</ele><time>2026-04-25T07:43:47.057Z</time></trkpt><trkpt lat="42.778299124442086" lon="10.357282120195682"><ele>60.333333333333336</ele><time>2026-04-25T07:43:48.056Z</time></trkpt><trkpt lat="42.77830259705671" lon="10.357156447949823"><ele>60.66666666666667</ele><time>2026-04-25T07:43:49.056Z</time></trkpt><trkpt lat="42.77831002093261" lon="10.357068301172035"><ele>61.0</ele><time>2026-04-25T07:43:50.057Z</time></trkpt><trkpt lat="42.77827165796513" lon="10.35694889668116"><ele>61.333333333333336</ele><time>2026-04-25T07:43:52.057Z</time></trkpt><trkpt lat="42.7782049873124" lon="10.356916462864296"><ele>61.66666666666667</ele><time>2026-04-25T07:43:53.057Z</time></trkpt><trkpt lat="42.77813634586182" lon="10.356911031350993"><ele>62.0</ele><time>2026-04-25T07:43:54.056Z</time></trkpt><trkpt lat="42.77805500869493" lon="10.356894619181336"><ele>62.0</ele><time>2026-04-25T07:43:55.056Z</time></trkpt><trkpt lat="42.777961668635115" lon="10.35687371620866"><ele>62.0</ele><time>2026-04-25T07:43:56.056Z</time></trkpt><trkpt lat="42.777862833071296" lon="10.356837541615613"><ele>62.0</ele><time>2026-04-25T07:43:57.057Z</time></trkpt><trkpt lat="42.777754648338124" lon="10.356803078077938"><ele>62.0</ele><time>2026-04-25T07:43:58.057Z</time></trkpt><trkpt lat="42.77764541902042" lon="10.356754702314934"><ele>62.0</ele><time>2026-04-25T07:43:59.057Z</time></trkpt><trkpt lat="42.777544004301866" lon="10.35672778887789"><ele>59.6</ele><time>2026-04-25T07:44:00.057Z</time></trkpt><trkpt lat="42.77745193007324" lon="10.356695918530004"><ele>57.2</ele><time>2026-04-25T07:44:01.057Z</time></trkpt><trkpt lat="42.77735452861373" lon="10.35667278647011"><ele>54.8</ele><time>2026-04-25T07:44:02.057Z</time></trkpt><trkpt lat="42.77726379229647" lon="10.356651322778434"><ele>52.4</ele><time>2026-04-25T07:44:03.057Z</time></trkpt><trkpt lat="42.777176488527104" lon="10.35663452620087"><ele>50.0</ele><time>2026-04-25T07:44:04.057Z</time></trkpt><trkpt lat="42.77709812594409" lon="10.356627094674211"><ele>50.0</ele><time>2026-04-25T07:44:05.057Z</time></trkpt><trkpt lat="42.77702171218742" lon="10.356609189212838"><ele>50.0</ele><time>2026-04-25T07:44:06.057Z</time></trkpt><trkpt lat="42.77693773400447" lon="10.356583862875997"><ele>50.0</ele><time>2026-04-25T07:44:07.057Z</time></trkpt><trkpt lat="42.776842445039094" lon="10.356560707135896"><ele>50.0</ele><time>2026-04-25T07:44:08.057Z</time></trkpt><trkpt lat="42.776739175846814" lon="10.356522923816732"><ele>50.0</ele><time>2026-04-25T07:44:09.057Z</time></trkpt><trkpt lat="42.776640129587854" lon="10.356486667827204"><ele>49.16666666666667</ele><time>2026-04-25T07:44:10.057Z</time></trkpt><trkpt lat="42.77656169457483" lon="10.356452864776278"><ele>48.333333333333336</ele><time>2026-04-25T07:44:11.057Z</time></trkpt><trkpt lat="42.77649479611647" lon="10.356428804070415"><ele>47.5</ele><time>2026-04-25T07:44:12.057Z</time></trkpt><trkpt lat="42.77637911295857" lon="10.356387881231612"><ele>46.66666666666667</ele><time>2026-04-25T07:44:14.057Z</time></trkpt><trkpt lat="42.7763078599701" lon="10.356368049022455"><ele>45.833333333333336</ele><time>2026-04-25T07:44:15.057Z</time></trkpt><trkpt lat="42.77622798992122" lon="10.356342304639242"><ele>45.0</ele><time>2026-04-25T07:44:16.057Z</time></trkpt><trkpt lat="42.776154613186996" lon="10.356313629592936"><ele>45.4</ele><time>2026-04-25T07:44:17.057Z</time></trkpt><trkpt lat="42.77607994099287" lon="10.356285491618156"><ele>45.8</ele><time>2026-04-25T07:44:18.057Z</time></trkpt><trkpt lat="42.776000495604684" lon="10.356259115608394"><ele>46.2</ele><time>2026-04-25T07:44:19.057Z</time></trkpt><trkpt lat="42.77592935387711" lon="10.356232236650605"><ele>46.6</ele><time>2026-04-25T07:44:20.057Z</time></trkpt><trkpt lat="42.77580998962042" lon="10.35620068827806"><ele>47.0</ele><time>2026-04-25T07:44:22.057Z</time></trkpt><trkpt lat="42.775704546673005" lon="10.356164314839559"><ele>47.0</ele><time>2026-04-25T07:44:24.057Z</time></trkpt><trkpt lat="42.775627468726945" lon="10.356172979721713"><ele>47.0</ele><time>2026-04-25T07:44:26.057Z</time></trkpt><trkpt lat="42.77558298146221" lon="10.356268030325996"><ele>47.0</ele><time>2026-04-25T07:44:28.057Z</time></trkpt><trkpt lat="42.775539634173214" lon="10.356345620789337"><ele>47.0</ele><time>2026-04-25T07:44:29.057Z</time></trkpt><trkpt lat="42.77548565038985" lon="10.356425834961986"><ele>47.0</ele><time>2026-04-25T07:44:30.057Z</time></trkpt><trkpt lat="42.77543253841679" lon="10.356498394626616"><ele>47.0</ele><time>2026-04-25T07:44:31.057Z</time></trkpt><trkpt lat="42.775380784487034" lon="10.356620525251552"><ele>45.666666666666664</ele><time>2026-04-25T07:44:33.057Z</time></trkpt><trkpt lat="42.7754085934527" lon="10.356723054466158"><ele>44.33333333333333</ele><time>2026-04-25T07:44:35.057Z</time></trkpt><trkpt lat="42.77547664430972" lon="10.356768889214964"><ele>43.0</ele><time>2026-04-25T07:44:36.057Z</time></trkpt><trkpt lat="42.775558422686785" lon="10.356828256422435"><ele>41.666666666666664</ele><time>2026-04-25T07:44:37.057Z</time></trkpt><trkpt lat="42.77562748399402" lon="10.356881638166318"><ele>40.333333333333336</ele><time>2026-04-25T07:44:38.057Z</time></trkpt><trkpt lat="42.77568982074939" lon="10.356935022581364"><ele>39.0</ele><time>2026-04-25T07:44:39.057Z</time></trkpt><trkpt lat="42.77574109483812" lon="10.35698650886461"><ele>39.0</ele><time>2026-04-25T07:44:40.057Z</time></trkpt><trkpt lat="42.77579804858699" lon="10.357038534363669"><ele>39.0</ele><time>2026-04-25T07:44:41.057Z</time></trkpt><trkpt lat="42.77585639410145" lon="10.357093539407117"><ele>39.0</ele><time>2026-04-25T07:44:42.057Z</time></trkpt><trkpt lat="42.775904080858304" lon="10.357150376618089"><ele>39.0</ele><time>2026-04-25T07:44:43.057Z</time></trkpt><trkpt lat="42.77598424513954" lon="10.357282535636006"><ele>39.0</ele><time>2026-04-25T07:44:45.057Z</time></trkpt><trkpt lat="42.77600764932104" lon="10.357380446863322"><ele>39.0</ele><time>2026-04-25T07:44:46.057Z</time></trkpt><trkpt lat="42.77601288995641" lon="10.357488443943582"><ele>38.0</ele><time>2026-04-25T07:44:47.057Z</time></trkpt><trkpt lat="42.77600144931573" lon="10.357591697934282"><ele>37.0</ele><time>2026-04-25T07:44:48.057Z</time></trkpt><trkpt lat="42.77597070918236" lon="10.357695144787272"><ele>36.0</ele><time>2026-04-25T07:44:49.057Z</time></trkpt><trkpt lat="42.775920283520655" lon="10.357780200725001"><ele>35.0</ele><time>2026-04-25T07:44:50.057Z</time></trkpt><trkpt lat="42.77587706812285" lon="10.357900306923007"><ele>34.0</ele><time>2026-04-25T07:44:51.057Z</time></trkpt><trkpt lat="42.775822244014826" lon="10.358031823777207"><ele>33.0</ele><time>2026-04-25T07:44:52.057Z</time></trkpt><trkpt lat="42.775773630827516" lon="10.358137603472882"><ele>33.0</ele><time>2026-04-25T07:44:53.057Z</time></trkpt><trkpt lat="42.77572943794309" lon="10.358222589236519"><ele>33.0</ele><time>2026-04-25T07:44:54.057Z</time></trkpt><trkpt lat="42.775678362196246" lon="10.358315825480858"><ele>33.0</ele><time>2026-04-25T07:44:55.057Z</time></trkpt><trkpt lat="42.77562972592144" lon="10.358416886744488"><ele>33.0</ele><time>2026-04-25T07:44:56.057Z</time></trkpt><trkpt lat="42.77557880995134" lon="10.35851695349829"><ele>33.0</ele><time>2026-04-25T07:44:57.057Z</time></trkpt><trkpt lat="42.775540023445465" lon="10.358620506502747"><ele>33.0</ele><time>2026-04-25T07:44:58.057Z</time></trkpt><trkpt lat="42.7754872310111" lon="10.358708351821916"><ele>33.0</ele><time>2026-04-25T07:44:59.057Z</time></trkpt><trkpt lat="42.77544645568317" lon="10.358797986431574"><ele>33.0</ele><time>2026-04-25T07:45:00.057Z</time></trkpt><trkpt lat="42.775394718709734" lon="10.358920519384007"><ele>33.0</ele><time>2026-04-25T07:45:02.057Z</time></trkpt><trkpt lat="42.7752956323235" lon="10.358946799004904"><ele>33.0</ele><time>2026-04-25T07:45:04.057Z</time></trkpt><trkpt lat="42.775229950279176" lon="10.35892830139301"><ele>33.0</ele><time>2026-04-25T07:45:05.057Z</time></trkpt><trkpt lat="42.77515254545814" lon="10.35889947531278"><ele>33.0</ele><time>2026-04-25T07:45:06.057Z</time></trkpt><trkpt lat="42.77508182151102" lon="10.358874622771765"><ele>33.333333333333336</ele><time>2026-04-25T07:45:07.057Z</time></trkpt><trkpt lat="42.77501729815197" lon="10.35886373690067"><ele>33.666666666666664</ele><time>2026-04-25T07:45:08.057Z</time></trkpt><trkpt lat="42.77493692485964" lon="10.358901838274203"><ele>34.0</ele><time>2026-04-25T07:45:10.057Z</time></trkpt><trkpt lat="42.77487653914794" lon="10.359017927069175"><ele>34.33333333333333</ele><time>2026-04-25T07:45:12.057Z</time></trkpt><trkpt lat="42.774834841248335" lon="10.359085682090122"><ele>34.666666666666664</ele><time>2026-04-25T07:45:13.057Z</time></trkpt><trkpt lat="42.77481986927191" lon="10.359174111877195"><ele>35.0</ele><time>2026-04-25T07:45:14.057Z</time></trkpt><trkpt lat="42.77482867241191" lon="10.359277805355198"><ele>35.0</ele><time>2026-04-25T07:45:15.057Z</time></trkpt><trkpt lat="42.774837871521" lon="10.359393915377558"><ele>35.0</ele><time>2026-04-25T07:45:16.057Z</time></trkpt><trkpt lat="42.77484852474275" lon="10.359513734699567"><ele>35.0</ele><time>2026-04-25T07:45:17.057Z</time></trkpt><trkpt lat="42.774841099008455" lon="10.359602684458865"><ele>35.0</ele><time>2026-04-25T07:45:18.057Z</time></trkpt><trkpt lat="42.774773272014144" lon="10.359644407750391"><ele>35.0</ele><time>2026-04-25T07:45:20.057Z</time></trkpt><trkpt lat="42.774729752666175" lon="10.35971058266779"><ele>35.0</ele><time>2026-04-25T07:45:21.057Z</time></trkpt><trkpt lat="42.774720142338964" lon="10.359823500376406"><ele>35.6</ele><time>2026-04-25T07:45:22.057Z</time></trkpt><trkpt lat="42.77472308018089" lon="10.359969113113719"><ele>36.2</ele><time>2026-04-25T07:45:23.057Z</time></trkpt><trkpt lat="42.77473265302526" lon="10.360147055666811"><ele>36.8</ele><time>2026-04-25T07:45:24.057Z</time></trkpt><trkpt lat="42.77473350637813" lon="10.360287359887106"><ele>37.4</ele><time>2026-04-25T07:45:25.057Z</time></trkpt><trkpt lat="42.774737348774515" lon="10.360429897724746"><ele>38.0</ele><time>2026-04-25T07:45:26.057Z</time></trkpt><trkpt lat="42.77474538855512" lon="10.36054281828702"><ele>39.0</ele><time>2026-04-25T07:45:27.057Z</time></trkpt><trkpt lat="42.77471392936912" lon="10.360624812220733"><ele>40.0</ele><time>2026-04-25T07:45:28.057Z</time></trkpt><trkpt lat="42.77468088955728" lon="10.360734964537636"><ele>41.0</ele><time>2026-04-25T07:45:29.057Z</time></trkpt><trkpt lat="42.774642018482005" lon="10.360899394618304"><ele>42.0</ele><time>2026-04-25T07:45:30.057Z</time></trkpt><trkpt lat="42.7746055429657" lon="10.361051733839771"><ele>43.0</ele><time>2026-04-25T07:45:31.057Z</time></trkpt><trkpt lat="42.77456092453184" lon="10.361159796908243"><ele>43.0</ele><time>2026-04-25T07:45:32.057Z</time></trkpt><trkpt lat="42.77452003811373" lon="10.361266989302443"><ele>43.0</ele><time>2026-04-25T07:45:33.057Z</time></trkpt><trkpt lat="42.77446713825812" lon="10.361370964118512"><ele>43.0</ele><time>2026-04-25T07:45:34.057Z</time></trkpt><trkpt lat="42.77440847956328" lon="10.361463449119363"><ele>43.0</ele><time>2026-04-25T07:45:35.057Z</time></trkpt><trkpt lat="42.774352935756795" lon="10.36154395494204"><ele>43.0</ele><time>2026-04-25T07:45:36.057Z</time></trkpt><trkpt lat="42.77431469676703" lon="10.361620959311914"><ele>43.0</ele><time>2026-04-25T07:45:37.057Z</time></trkpt><trkpt lat="42.774284668140844" lon="10.36171819071479"><ele>45.2</ele><time>2026-04-25T07:45:38.057Z</time></trkpt><trkpt lat="42.774231257298204" lon="10.361815319059879"><ele>47.4</ele><time>2026-04-25T07:45:39.057Z</time></trkpt><trkpt lat="42.774179130369426" lon="10.36191083248468"><ele>49.60000000000001</ele><time>2026-04-25T07:45:40.057Z</time></trkpt><trkpt lat="42.7741230353384" lon="10.362022947691337"><ele>51.800000000000004</ele><time>2026-04-25T07:45:41.057Z</time></trkpt><trkpt lat="42.774070058673914" lon="10.362128585244559"><ele>54.0</ele><time>2026-04-25T07:45:42.057Z</time></trkpt><trkpt lat="42.7740142372573" lon="10.362232397852003"><ele>55.833333333333336</ele><time>2026-04-25T07:45:43.057Z</time></trkpt><trkpt lat="42.773963850913965" lon="10.362317266764196"><ele>57.66666666666667</ele><time>2026-04-25T07:45:44.057Z</time></trkpt><trkpt lat="42.77390936382346" lon="10.362412032135872"><ele>59.5</ele><time>2026-04-25T07:45:45.057Z</time></trkpt><trkpt lat="42.773847465854296" lon="10.36251470619402"><ele>61.333333333333336</ele><time>2026-04-25T07:45:46.057Z</time></trkpt><trkpt lat="42.77378852876331" lon="10.362596244572192"><ele>63.16666666666667</ele><time>2026-04-25T07:45:47.057Z</time></trkpt><trkpt lat="42.773731897216834" lon="10.3626631920321"><ele>65.0</ele><time>2026-04-25T07:45:48.057Z</time></trkpt><trkpt lat="42.77365545925147" lon="10.362806704922635"><ele>65.0</ele><time>2026-04-25T07:45:50.058Z</time></trkpt><trkpt lat="42.7736016239516" lon="10.362893297878566"><ele>65.0</ele><time>2026-04-25T07:45:51.058Z</time></trkpt><trkpt lat="42.77355563046007" lon="10.362974067417857"><ele>65.0</ele><time>2026-04-25T07:45:52.058Z</time></trkpt><trkpt lat="42.77345678514222" lon="10.36302256086447"><ele>65.0</ele><time>2026-04-25T07:45:54.058Z</time></trkpt><trkpt lat="42.77347282752309" lon="10.363134394572715"><ele>65.0</ele><time>2026-04-25T07:46:00.058Z</time></trkpt><trkpt lat="42.77351949064736" lon="10.363196255927392"><ele>65.0</ele><time>2026-04-25T07:46:08.058Z</time></trkpt><trkpt lat="42.77359288346107" lon="10.363272801222527"><ele>67.8</ele><time>2026-04-25T07:46:24.058Z</time></trkpt><trkpt lat="42.77366395034777" lon="10.363331741291942"><ele>70.6</ele><time>2026-04-25T07:46:26.058Z</time></trkpt><trkpt lat="42.77378234968429" lon="10.363407607412158"><ele>73.4</ele><time>2026-04-25T07:46:28.058Z</time></trkpt><trkpt lat="42.77385603569501" lon="10.363448236792824"><ele>76.2</ele><time>2026-04-25T07:46:29.058Z</time></trkpt><trkpt lat="42.77391360350253" lon="10.363578514928546"><ele>79.0</ele><time>2026-04-25T07:46:30.058Z</time></trkpt><trkpt lat="42.77399651815103" lon="10.36362711832494"><ele>79.0</ele><time>2026-04-25T07:46:30.995Z</time></trkpt><trkpt lat="42.774109830770925" lon="10.36369399853449"><ele>79.0</ele><time>2026-04-25T07:46:31.995Z</time></trkpt><trkpt lat="42.77421855455258" lon="10.363738381574619"><ele>79.0</ele><time>2026-04-25T07:46:32.996Z</time></trkpt><trkpt lat="42.77430499027092" lon="10.363795233594118"><ele>79.0</ele><time>2026-04-25T07:46:33.996Z</time></trkpt><trkpt lat="42.77438993471937" lon="10.363873818109484"><ele>79.0</ele><time>2026-04-25T07:46:34.996Z</time></trkpt><trkpt lat="42.774491466234565" lon="10.363937624204349"><ele>81.2</ele><time>2026-04-25T07:46:35.996Z</time></trkpt><trkpt lat="42.774605638979224" lon="10.363973241988047"><ele>83.4</ele><time>2026-04-25T07:46:36.996Z</time></trkpt><trkpt lat="42.77470327029736" lon="10.364020494417234"><ele>85.6</ele><time>2026-04-25T07:46:37.996Z</time></trkpt><trkpt lat="42.77479648839916" lon="10.364096759400997"><ele>87.8</ele><time>2026-04-25T07:46:38.996Z</time></trkpt><trkpt lat="42.77489155924031" lon="10.364167489526533"><ele>90.0</ele><time>2026-04-25T07:46:39.996Z</time></trkpt><trkpt lat="42.77499422752598" lon="10.364230445798773"><ele>90.0</ele><time>2026-04-25T07:46:40.996Z</time></trkpt><trkpt lat="42.77508514505179" lon="10.364316278395204"><ele>90.0</ele><time>2026-04-25T07:46:41.996Z</time></trkpt><trkpt lat="42.775180879605756" lon="10.364417464396384"><ele>90.0</ele><time>2026-04-25T07:46:42.996Z</time></trkpt><trkpt lat="42.77526887774319" lon="10.364516480404804"><ele>90.0</ele><time>2026-04-25T07:46:43.996Z</time></trkpt><trkpt lat="42.775361623524326" lon="10.364611553906482"><ele>93.4</ele><time>2026-04-25T07:46:44.996Z</time></trkpt><trkpt lat="42.77545674527568" lon="10.364714187040502"><ele>96.8</ele><time>2026-04-25T07:46:45.996Z</time></trkpt><trkpt lat="42.77554705241492" lon="10.364806281077023"><ele>100.19999999999999</ele><time>2026-04-25T07:46:46.996Z</time></trkpt><trkpt lat="42.7756260787534" lon="10.364880577919314"><ele>103.6</ele><time>2026-04-25T07:46:47.996Z</time></trkpt><trkpt lat="42.775696177420464" lon="10.36493802455627"><ele>107.0</ele><time>2026-04-25T07:46:48.996Z</time></trkpt><trkpt lat="42.77576318581604" lon="10.364994422346015"><ele>107.0</ele><time>2026-04-25T07:46:49.996Z</time></trkpt><trkpt lat="42.77583357891038" lon="10.365045766457046"><ele>106.99999999999999</ele><time>2026-04-25T07:46:50.996Z</time></trkpt><trkpt lat="42.77589741658353" lon="10.365051437866901"><ele>106.99999999999999</ele><time>2026-04-25T07:46:51.996Z</time></trkpt><trkpt lat="42.77596246736768" lon="10.365050692488028"><ele>107.0</ele><time>2026-04-25T07:46:52.996Z</time></trkpt><trkpt lat="42.776094543070634" lon="10.365146828658132"><ele>107.0</ele><time>2026-04-25T07:46:54.996Z</time></trkpt><trkpt lat="42.77616774761569" lon="10.365225663622734"><ele>107.16666666666666</ele><time>2026-04-25T07:46:55.996Z</time></trkpt><trkpt lat="42.776214972528464" lon="10.36528775387701"><ele>107.33333333333333</ele><time>2026-04-25T07:46:56.996Z</time></trkpt><trkpt lat="42.77626198421018" lon="10.365356990275364"><ele>107.5</ele><time>2026-04-25T07:46:57.996Z</time></trkpt><trkpt lat="42.776333236912144" lon="10.365465658608572"><ele>107.66666666666666</ele><time>2026-04-25T07:46:59.996Z</time></trkpt><trkpt lat="42.776428518566696" lon="10.365520719295766"><ele>107.83333333333333</ele><time>2026-04-25T07:47:01.996Z</time></trkpt><trkpt lat="42.77652241765108" lon="10.365533970894088"><ele>108.0</ele><time>2026-04-25T07:47:03.996Z</time></trkpt><trkpt lat="42.776608654002196" lon="10.365595460860176"><ele>110.16666666666667</ele><time>2026-04-25T07:47:05.996Z</time></trkpt><trkpt lat="42.776671316129736" lon="10.36567770597745"><ele>112.33333333333334</ele><time>2026-04-25T07:47:07.996Z</time></trkpt><trkpt lat="42.776760824884285" lon="10.365752721681531"><ele>114.5</ele><time>2026-04-25T07:47:09.996Z</time></trkpt><trkpt lat="42.77682301951124" lon="10.365830953283654"><ele>116.66666666666667</ele><time>2026-04-25T07:47:11.996Z</time></trkpt><trkpt lat="42.77688865283701" lon="10.365902353180136"><ele>118.83333333333334</ele><time>2026-04-25T07:47:13.996Z</time></trkpt><trkpt lat="42.77694526900078" lon="10.365954017178671"><ele>121.0</ele><time>2026-04-25T07:47:15.996Z</time></trkpt><trkpt lat="42.777012820658314" lon="10.365995039289734"><ele>123.16666666666667</ele><time>2026-04-25T07:47:17.996Z</time></trkpt><trkpt lat="42.77705842625198" lon="10.366058585984002"><ele>125.33333333333334</ele><time>2026-04-25T07:47:19.996Z</time></trkpt><trkpt lat="42.777105674479316" lon="10.366164921406941"><ele>127.5</ele><time>2026-04-25T07:47:21.996Z</time></trkpt><trkpt lat="42.77719318175742" lon="10.366190993965516"><ele>129.66666666666666</ele><time>2026-04-25T07:47:24.996Z</time></trkpt><trkpt lat="42.77723393449808" lon="10.366266568301594"><ele>131.83333333333331</ele><time>2026-04-25T07:48:44.997Z</time></trkpt><trkpt lat="42.777273865176284" lon="10.366337405039527"><ele>134.0</ele><time>2026-04-25T07:48:49.996Z</time></trkpt><trkpt lat="42.77734391864498" lon="10.366387021103733"><ele>136.0</ele><time>2026-04-25T07:48:52.996Z</time></trkpt><trkpt lat="42.777400181985165" lon="10.366435313413488"><ele>138.0</ele><time>2026-04-25T07:48:54.996Z</time></trkpt><trkpt lat="42.77746595036222" lon="10.366527624770324"><ele>140.0</ele><time>2026-04-25T07:48:57.996Z</time></trkpt><trkpt lat="42.77752528432929" lon="10.36658592198585"><ele>142.0</ele><time>2026-04-25T07:48:59.996Z</time></trkpt><trkpt lat="42.77760394386709" lon="10.366607898577493"><ele>144.0</ele><time>2026-04-25T07:49:02.996Z</time></trkpt><trkpt lat="42.77766725719077" lon="10.366627408054283"><ele>146.0</ele><time>2026-04-25T07:49:04.996Z</time></trkpt><trkpt lat="42.77771958539739" lon="10.366703907792537"><ele>146.66666666666666</ele><time>2026-04-25T07:49:06.996Z</time></trkpt><trkpt lat="42.77780186107038" lon="10.366747995053565"><ele>147.33333333333331</ele><time>2026-04-25T07:49:09.996Z</time></trkpt><trkpt lat="42.77784501084266" lon="10.366825278112676"><ele>148.0</ele><time>2026-04-25T07:49:11.996Z</time></trkpt><trkpt lat="42.777914872030806" lon="10.366947574295459"><ele>148.66666666666666</ele><time>2026-04-25T07:49:13.996Z</time></trkpt><trkpt lat="42.777952967066646" lon="10.367019886658074"><ele>149.33333333333334</ele><time>2026-04-25T07:49:14.996Z</time></trkpt><trkpt lat="42.77800948968587" lon="10.367149125851938"><ele>150.0</ele><time>2026-04-25T07:49:16.996Z</time></trkpt><trkpt lat="42.778053378456654" lon="10.367268787609035"><ele>152.2</ele><time>2026-04-25T07:49:18.996Z</time></trkpt><trkpt lat="42.77810794432663" lon="10.367376010762941"><ele>154.4</ele><time>2026-04-25T07:49:20.996Z</time></trkpt><trkpt lat="42.778166599919075" lon="10.367476739334029"><ele>156.60000000000002</ele><time>2026-04-25T07:49:22.996Z</time></trkpt><trkpt lat="42.77820998831655" lon="10.367561675794082"><ele>158.8</ele><time>2026-04-25T07:49:24.996Z</time></trkpt><trkpt lat="42.77825705500561" lon="10.367667960238538"><ele>161.0</ele><time>2026-04-25T07:49:26.996Z</time></trkpt><trkpt lat="42.7783042921839" lon="10.367789848743339"><ele>161.0</ele><time>2026-04-25T07:49:28.996Z</time></trkpt><trkpt lat="42.77835694554094" lon="10.367905511010585"><ele>161.0</ele><time>2026-04-25T07:49:30.996Z</time></trkpt><trkpt lat="42.77842108426429" lon="10.36800844455154"><ele>161.0</ele><time>2026-04-25T07:49:32.995Z</time></trkpt><trkpt lat="42.77845257055254" lon="10.36810831203757"><ele>161.0</ele><time>2026-04-25T07:49:34.995Z</time></trkpt><trkpt lat="42.778500338658915" lon="10.368218758718042"><ele>161.0</ele><time>2026-04-25T07:49:36.995Z</time></trkpt><trkpt lat="42.778551117769624" lon="10.368316888041367"><ele>162.20000000000002</ele><time>2026-04-25T07:49:39.995Z</time></trkpt><trkpt lat="42.778604239802256" lon="10.36840938979047"><ele>163.4</ele><time>2026-04-25T07:49:41.995Z</time></trkpt><trkpt lat="42.77865606195656" lon="10.368473953657604"><ele>164.6</ele><time>2026-04-25T07:49:43.995Z</time></trkpt><trkpt lat="42.778688852256494" lon="10.368549654957457"><ele>165.8</ele><time>2026-04-25T07:49:44.995Z</time></trkpt><trkpt lat="42.77878058205901" lon="10.368674558458064"><ele>167.0</ele><time>2026-04-25T07:49:46.995Z</time></trkpt><trkpt lat="42.77884027585446" lon="10.368810790598285"><ele>169.8</ele><time>2026-04-25T07:49:48.995Z</time></trkpt><trkpt lat="42.77888894480031" lon="10.368950618968128"><ele>172.6</ele><time>2026-04-25T07:49:50.995Z</time></trkpt><trkpt lat="42.778923572736424" lon="10.369069279369542"><ele>175.4</ele><time>2026-04-25T07:49:52.995Z</time></trkpt><trkpt lat="42.778940574685116" lon="10.369217403786946"><ele>178.20000000000002</ele><time>2026-04-25T07:49:54.995Z</time></trkpt><trkpt lat="42.77897810763293" lon="10.369339305751767"><ele>181.0</ele><time>2026-04-25T07:49:56.995Z</time></trkpt><trkpt lat="42.77900633899313" lon="10.369420028280652"><ele>181.0</ele><time>2026-04-25T07:49:57.995Z</time></trkpt><trkpt lat="42.779055988100154" lon="10.369551690930281"><ele>181.0</ele><time>2026-04-25T07:49:59.995Z</time></trkpt><trkpt lat="42.779091079219654" lon="10.369630494540386"><ele>181.0</ele><time>2026-04-25T07:50:00.995Z</time></trkpt><trkpt lat="42.7791706453177" lon="10.36974268997025"><ele>181.0</ele><time>2026-04-25T07:50:02.997Z</time></trkpt><trkpt lat="42.77924947411708" lon="10.369854644619613"><ele>181.0</ele><time>2026-04-25T07:50:04.997Z</time></trkpt><trkpt lat="42.779330885671" lon="10.369975978913248"><ele>181.20000000000002</ele><time>2026-04-25T07:50:06.997Z</time></trkpt><trkpt lat="42.77940901064089" lon="10.370082179515656"><ele>181.4</ele><time>2026-04-25T07:50:08.997Z</time></trkpt><trkpt lat="42.77943376451139" lon="10.370203960712661"><ele>181.6</ele><time>2026-04-25T07:50:10.996Z</time></trkpt><trkpt lat="42.77948311087788" lon="10.370309496615207"><ele>181.8</ele><time>2026-04-25T07:50:12.996Z</time></trkpt><trkpt lat="42.779568654019336" lon="10.37041386311485"><ele>182.0</ele><time>2026-04-25T07:50:14.997Z</time></trkpt><trkpt lat="42.779621276535735" lon="10.370507842375396"><ele>184.39999999999998</ele><time>2026-04-25T07:50:16.997Z</time></trkpt><trkpt lat="42.77969003838738" lon="10.370634079840372"><ele>186.79999999999998</ele><time>2026-04-25T07:50:18.997Z</time></trkpt><trkpt lat="42.77973451389353" lon="10.370700647149851"><ele>189.2</ele><time>2026-04-25T07:50:19.997Z</time></trkpt><trkpt lat="42.77979574229836" lon="10.370837610023564"><ele>191.6</ele><time>2026-04-25T07:50:21.997Z</time></trkpt><trkpt lat="42.77983703748187" lon="10.370995830305436"><ele>194.0</ele><time>2026-04-25T07:50:23.997Z</time></trkpt><trkpt lat="42.779865915352396" lon="10.371082031055993"><ele>194.0</ele><time>2026-04-25T07:50:24.997Z</time></trkpt><trkpt lat="42.779931635581995" lon="10.371231871161543"><ele>194.0</ele><time>2026-04-25T07:50:26.997Z</time></trkpt><trkpt lat="42.779958828812646" lon="10.371322285550603"><ele>194.0</ele><time>2026-04-25T07:50:27.997Z</time></trkpt><trkpt lat="42.77999582682948" lon="10.371464442550591"><ele>194.0</ele><time>2026-04-25T07:50:29.996Z</time></trkpt><trkpt lat="42.780057465873234" lon="10.371598631746945"><ele>194.0</ele><time>2026-04-25T07:50:31.996Z</time></trkpt><trkpt lat="42.78006945663402" lon="10.371727408874175"><ele>195.14285714285714</ele><time>2026-04-25T07:50:33.996Z</time></trkpt><trkpt lat="42.78003440667359" lon="10.37183523033399"><ele>196.2857142857143</ele><time>2026-04-25T07:50:35.996Z</time></trkpt><trkpt lat="42.780017572698405" lon="10.371918261382495"><ele>197.42857142857144</ele><time>2026-04-25T07:50:37.996Z</time></trkpt><trkpt lat="42.780004630541" lon="10.372003554952007"><ele>198.57142857142856</ele><time>2026-04-25T07:50:41.996Z</time></trkpt><trkpt lat="42.780002546895496" lon="10.372097816970307"><ele>199.71428571428572</ele><time>2026-04-25T07:50:44.996Z</time></trkpt><trkpt lat="42.78000075013296" lon="10.372185434271314"><ele>200.85714285714286</ele><time>2026-04-25T07:56:50.999Z</time></trkpt><trkpt lat="42.780049403868325" lon="10.372253276731586"><ele>202.0</ele><time>2026-04-25T07:56:52.999Z</time></trkpt><trkpt lat="42.78010104933939" lon="10.372323245847525"><ele>202.66666666666666</ele><time>2026-04-25T07:57:36.998Z</time></trkpt><trkpt lat="42.780149807628455" lon="10.37239464160112"><ele>203.33333333333331</ele><time>2026-04-25T07:58:06.997Z</time></trkpt><trkpt lat="42.78021891599675" lon="10.372473358019562"><ele>204.0</ele><time>2026-04-25T07:58:08.997Z</time></trkpt><trkpt lat="42.78029085635138" lon="10.37253028893142"><ele>204.66666666666669</ele><time>2026-04-25T07:58:10.997Z</time></trkpt><trkpt lat="42.780363946334774" lon="10.372603161130725"><ele>205.33333333333334</ele><time>2026-04-25T07:58:12.997Z</time></trkpt><trkpt lat="42.78042215819631" lon="10.372687411464135"><ele>206.0</ele><time>2026-04-25T07:58:14.997Z</time></trkpt><trkpt lat="42.78046049231305" lon="10.372772412745128"><ele>208.0</ele><time>2026-04-25T07:58:16.997Z</time></trkpt><trkpt lat="42.78050051594915" lon="10.372922140338467"><ele>210.0</ele><time>2026-04-25T07:58:18.997Z</time></trkpt><trkpt lat="42.7805035165947" lon="10.373074619408966"><ele>212.00000000000003</ele><time>2026-04-25T07:58:20.997Z</time></trkpt><trkpt lat="42.7805093287837" lon="10.373201894835326"><ele>214.0</ele><time>2026-04-25T07:58:22.997Z</time></trkpt><trkpt lat="42.78051506379398" lon="10.373324937374864"><ele>216.0</ele><time>2026-04-25T07:58:24.997Z</time></trkpt><trkpt lat="42.78052939416694" lon="10.373435894249798"><ele>218.33333333333334</ele><time>2026-04-25T07:58:26.999Z</time></trkpt><trkpt lat="42.780535957206844" lon="10.373548738483633"><ele>220.66666666666669</ele><time>2026-04-25T07:58:28.999Z</time></trkpt><trkpt lat="42.780534865795275" lon="10.373634650975465"><ele>223.0</ele><time>2026-04-25T07:58:30.999Z</time></trkpt><trkpt lat="42.7805389594514" lon="10.37377402711834"><ele>225.33333333333334</ele><time>2026-04-25T07:58:32.999Z</time></trkpt><trkpt lat="42.780539286945405" lon="10.373871128390808"><ele>227.66666666666669</ele><time>2026-04-25T07:58:33.999Z</time></trkpt><trkpt lat="42.78053001644817" lon="10.373999419685518"><ele>230.0</ele><time>2026-04-25T07:58:34.999Z</time></trkpt><trkpt lat="42.780502426897314" lon="10.374128509827418"><ele>232.0</ele><time>2026-04-25T07:58:35.999Z</time></trkpt><trkpt lat="42.780462465175404" lon="10.374247584700102"><ele>234.0</ele><time>2026-04-25T07:58:36.999Z</time></trkpt><trkpt lat="42.78043374246723" lon="10.374375808460066"><ele>236.0</ele><time>2026-04-25T07:58:37.999Z</time></trkpt><trkpt lat="42.78036347431021" lon="10.374481076876672"><ele>238.0</ele><time>2026-04-25T07:58:38.999Z</time></trkpt><trkpt lat="42.7803158913546" lon="10.374597796839526"><ele>240.0</ele><time>2026-04-25T07:58:39.999Z</time></trkpt><trkpt lat="42.78026862956221" lon="10.374714803247418"><ele>241.0</ele><time>2026-04-25T07:58:40.999Z</time></trkpt><trkpt lat="42.78023301172917" lon="10.374839838199213"><ele>242.0</ele><time>2026-04-25T07:58:41.999Z</time></trkpt><trkpt lat="42.780211407066226" lon="10.374957083344167"><ele>243.0</ele><time>2026-04-25T07:58:42.999Z</time></trkpt><trkpt lat="42.78020137616385" lon="10.37507189973832"><ele>244.0</ele><time>2026-04-25T07:58:43.999Z</time></trkpt><trkpt lat="42.78020910179508" lon="10.375184954308438"><ele>245.0</ele><time>2026-04-25T07:58:44.999Z</time></trkpt><trkpt lat="42.78021452742277" lon="10.375291395300893"><ele>246.0</ele><time>2026-04-25T07:58:45.999Z</time></trkpt><trkpt lat="42.78019498627571" lon="10.37537501586389"><ele>245.60000000000002</ele><time>2026-04-25T07:58:46.999Z</time></trkpt><trkpt lat="42.780147815756536" lon="10.37544967286862"><ele>245.20000000000002</ele><time>2026-04-25T07:58:47.999Z</time></trkpt><trkpt lat="42.78008362270008" lon="10.375528125979004"><ele>244.79999999999998</ele><time>2026-04-25T07:58:48.999Z</time></trkpt><trkpt lat="42.78001203327741" lon="10.375612313691951"><ele>244.39999999999998</ele><time>2026-04-25T07:58:49.999Z</time></trkpt><trkpt lat="42.77992471315033" lon="10.375708980381347"><ele>244.0</ele><time>2026-04-25T07:58:50.999Z</time></trkpt><trkpt lat="42.77984187186224" lon="10.375810593608463"><ele>244.0</ele><time>2026-04-25T07:58:51.999Z</time></trkpt><trkpt lat="42.77976056875825" lon="10.375898927186762"><ele>243.99999999999997</ele><time>2026-04-25T07:58:52.999Z</time></trkpt><trkpt lat="42.77967416019501" lon="10.375968400441618"><ele>243.99999999999997</ele><time>2026-04-25T07:58:53.999Z</time></trkpt><trkpt lat="42.779589070114994" lon="10.376002813722664"><ele>244.0</ele><time>2026-04-25T07:58:54.999Z</time></trkpt><trkpt lat="42.77949801180206" lon="10.376022819736876"><ele>244.0</ele><time>2026-04-25T07:58:55.999Z</time></trkpt><trkpt lat="42.77941661365217" lon="10.376056844017583"><ele>243.99999999999997</ele><time>2026-04-25T07:58:56.999Z</time></trkpt><trkpt lat="42.779327610743486" lon="10.37609228435462"><ele>244.0</ele><time>2026-04-25T07:58:57.999Z</time></trkpt><trkpt lat="42.779268419266316" lon="10.376143093193534"><ele>244.0</ele><time>2026-04-25T07:58:58.999Z</time></trkpt><trkpt lat="42.779216517063944" lon="10.376215813732294"><ele>244.0</ele><time>2026-04-25T07:58:59.999Z</time></trkpt><trkpt lat="42.77918962054349" lon="10.37631995055424"><ele>243.99999999999997</ele><time>2026-04-25T07:59:00.999Z</time></trkpt><trkpt lat="42.779182708680665" lon="10.376474870615908"><ele>244.0</ele><time>2026-04-25T07:59:02.999Z</time></trkpt><trkpt lat="42.77921299962972" lon="10.376607429526969"><ele>243.99999999999997</ele><time>2026-04-25T07:59:04.999Z</time></trkpt><trkpt lat="42.779239539051616" lon="10.376713865450851"><ele>244.0</ele><time>2026-04-25T07:59:07.999Z</time></trkpt><trkpt lat="42.77926878238365" lon="10.376794591801403"><ele>244.0</ele><time>2026-04-25T07:59:10.999Z</time></trkpt><trkpt lat="42.77933566381218" lon="10.37692250947663"><ele>244.0</ele><time>2026-04-25T07:59:13.999Z</time></trkpt><trkpt lat="42.77936977400556" lon="10.376999188843222"><ele>243.99999999999997</ele><time>2026-04-25T07:59:14.999Z</time></trkpt><trkpt lat="42.779358066537505" lon="10.377126589342662"><ele>244.0</ele><time>2026-04-25T07:59:16.999Z</time></trkpt><trkpt lat="42.77926461125509" lon="10.377145169098311"><ele>243.99999999999997</ele><time>2026-04-25T07:59:18.998Z</time></trkpt><trkpt lat="42.77919155118475" lon="10.377178972775898"><ele>244.0</ele><time>2026-04-25T07:59:19.998Z</time></trkpt><trkpt lat="42.77910583682021" lon="10.37719756632949"><ele>244.0</ele><time>2026-04-25T07:59:20.998Z</time></trkpt><trkpt lat="42.77901434783901" lon="10.377232414694648"><ele>244.0</ele><time>2026-04-25T07:59:21.998Z</time></trkpt><trkpt lat="42.778936233122266" lon="10.377256377999487"><ele>243.99999999999997</ele><time>2026-04-25T07:59:22.998Z</time></trkpt><trkpt lat="42.77886139500629" lon="10.377286078977463"><ele>244.0</ele><time>2026-04-25T07:59:23.998Z</time></trkpt><trkpt lat="42.77880106261428" lon="10.377319415782171"><ele>243.33333333333331</ele><time>2026-04-25T07:59:24.998Z</time></trkpt><trkpt lat="42.77874497605432" lon="10.37736499647599"><ele>242.66666666666666</ele><time>2026-04-25T07:59:25.998Z</time></trkpt><trkpt lat="42.77868132215527" lon="10.377422752969395"><ele>242.0</ele><time>2026-04-25T07:59:27.998Z</time></trkpt><trkpt lat="42.778588032112594" lon="10.377483630227617"><ele>241.33333333333331</ele><time>2026-04-25T07:59:29.998Z</time></trkpt><trkpt lat="42.77851756119214" lon="10.377523911197153"><ele>240.66666666666666</ele><time>2026-04-25T07:59:30.998Z</time></trkpt><trkpt lat="42.778461121988286" lon="10.377570554950337"><ele>240.0</ele><time>2026-04-25T07:59:31.998Z</time></trkpt><trkpt lat="42.77836904538057" lon="10.377665683484105"><ele>240.0</ele><time>2026-04-25T07:59:33.998Z</time></trkpt><trkpt lat="42.77828305455739" lon="10.377732646623446"><ele>240.0</ele><time>2026-04-25T07:59:35.998Z</time></trkpt><trkpt lat="42.77821974234433" lon="10.377758893898521"><ele>240.0</ele><time>2026-04-25T07:59:37.998Z</time></trkpt><trkpt lat="42.77815065002733" lon="10.377771194842538"><ele>240.0</ele><time>2026-04-25T07:59:40.998Z</time></trkpt><trkpt lat="42.77807571279606" lon="10.377798561301903"><ele>240.0</ele><time>2026-04-25T07:59:43.998Z</time></trkpt><trkpt lat="42.77800832045917" lon="10.377819576798158"><ele>240.0</ele><time>2026-04-25T07:59:49.998Z</time></trkpt><trkpt lat="42.777951900525814" lon="10.377867703823416"><ele>240.0</ele><time>2026-04-25T08:00:09.998Z</time></trkpt><trkpt lat="42.7778767467447" lon="10.377973013043436"><ele>239.66666666666666</ele><time>2026-04-25T08:00:11.997Z</time></trkpt><trkpt lat="42.7778455582456" lon="10.378054932509407"><ele>239.33333333333331</ele><time>2026-04-25T08:00:13.997Z</time></trkpt><trkpt lat="42.777802878989306" lon="10.378192509453859"><ele>239.0</ele><time>2026-04-25T08:00:16.997Z</time></trkpt><trkpt lat="42.77772766865772" lon="10.378265292434262"><ele>238.66666666666666</ele><time>2026-04-25T08:00:19.997Z</time></trkpt><trkpt lat="42.77766745210508" lon="10.378314462461931"><ele>238.33333333333331</ele><time>2026-04-25T08:00:21.997Z</time></trkpt><trkpt lat="42.777600094177224" lon="10.37835905784456"><ele>238.0</ele><time>2026-04-25T08:00:23.997Z</time></trkpt><trkpt lat="42.77751509070628" lon="10.378410357379092"><ele>238.0</ele><time>2026-04-25T08:00:25.997Z</time></trkpt><trkpt lat="42.77741224936628" lon="10.378472216307404"><ele>238.0</ele><time>2026-04-25T08:00:27.997Z</time></trkpt><trkpt lat="42.7773343233226" lon="10.378524213000462"><ele>238.0</ele><time>2026-04-25T08:00:29.997Z</time></trkpt><trkpt lat="42.777259925401665" lon="10.378563641537317"><ele>238.0</ele><time>2026-04-25T08:00:31.999Z</time></trkpt><trkpt lat="42.77719298741726" lon="10.378574425971276"><ele>238.0</ele><time>2026-04-25T08:00:33.999Z</time></trkpt><trkpt lat="42.77709877276997" lon="10.378634296756559"><ele>238.0</ele><time>2026-04-25T08:00:35.999Z</time></trkpt><trkpt lat="42.77702572012256" lon="10.378657696688036"><ele>238.0</ele><time>2026-04-25T08:00:36.999Z</time></trkpt><trkpt lat="42.77694829259123" lon="10.3786902224484"><ele>238.0</ele><time>2026-04-25T08:00:37.999Z</time></trkpt><trkpt lat="42.77688072110584" lon="10.378711262408103"><ele>238.0</ele><time>2026-04-25T08:00:38.999Z</time></trkpt><trkpt lat="42.77681514770518" lon="10.378736169528567"><ele>238.0</ele><time>2026-04-25T08:00:39.999Z</time></trkpt><trkpt lat="42.77674545356739" lon="10.378754650165517"><ele>238.0</ele><time>2026-04-25T08:00:40.999Z</time></trkpt><trkpt lat="42.77667858596379" lon="10.378778753004104"><ele>238.0</ele><time>2026-04-25T08:00:41.999Z</time></trkpt><trkpt lat="42.77660307593539" lon="10.378798680592203"><ele>238.2</ele><time>2026-04-25T08:00:42.999Z</time></trkpt><trkpt lat="42.77649043701813" lon="10.378839013355785"><ele>238.4</ele><time>2026-04-25T08:00:44.999Z</time></trkpt><trkpt lat="42.77635700527067" lon="10.378891961530353"><ele>238.59999999999997</ele><time>2026-04-25T08:00:46.999Z</time></trkpt><trkpt lat="42.77627467058806" lon="10.378916544889533"><ele>238.79999999999998</ele><time>2026-04-25T08:00:47.999Z</time></trkpt><trkpt lat="42.77617585195595" lon="10.378975022876935"><ele>239.0</ele><time>2026-04-25T08:00:49.999Z</time></trkpt><trkpt lat="42.776111078879154" lon="10.379026456221702"><ele>234.5</ele><time>2026-04-25T08:00:50.999Z</time></trkpt><trkpt lat="42.776012150723766" lon="10.379074341635341"><ele>230.0</ele><time>2026-04-25T08:00:52.999Z</time></trkpt><trkpt lat="42.7759232151946" lon="10.37910641019288"><ele>225.5</ele><time>2026-04-25T08:00:54.999Z</time></trkpt><trkpt lat="42.7757820112575" lon="10.379112772675116"><ele>221.0</ele><time>2026-04-25T08:00:56.999Z</time></trkpt><trkpt lat="42.77565914599889" lon="10.37912925483206"><ele>221.0</ele><time>2026-04-25T08:00:57.999Z</time></trkpt><trkpt lat="42.775531713567425" lon="10.379174866337273"><ele>221.0</ele><time>2026-04-25T08:00:58.999Z</time></trkpt><trkpt lat="42.77540431091458" lon="10.379201253287896"><ele>221.0</ele><time>2026-04-25T08:00:59.999Z</time></trkpt><trkpt lat="42.77528064326047" lon="10.3792427494027"><ele>221.0</ele><time>2026-04-25T08:01:00.999Z</time></trkpt><trkpt lat="42.77517467678207" lon="10.379258476600876"><ele>220.20000000000002</ele><time>2026-04-25T08:01:01.999Z</time></trkpt><trkpt lat="42.77509541695688" lon="10.379279008653532"><ele>219.40000000000003</ele><time>2026-04-25T08:01:02.999Z</time></trkpt><trkpt lat="42.77502963484934" lon="10.379300450308742"><ele>218.6</ele><time>2026-04-25T08:01:03.999Z</time></trkpt><trkpt lat="42.7749613171318" lon="10.379296797918222"><ele>217.8</ele><time>2026-04-25T08:01:04.999Z</time></trkpt><trkpt lat="42.774833222096554" lon="10.37928598656798"><ele>217.0</ele><time>2026-04-25T08:01:06.999Z</time></trkpt><trkpt lat="42.77470096972771" lon="10.379302159084448"><ele>216.99999999999997</ele><time>2026-04-25T08:01:08.999Z</time></trkpt><trkpt lat="42.774607142299345" lon="10.379323828201379"><ele>217.0</ele><time>2026-04-25T08:01:10.999Z</time></trkpt><trkpt lat="42.774523620899984" lon="10.379335126623644"><ele>217.0</ele><time>2026-04-25T08:01:12.999Z</time></trkpt><trkpt lat="42.77443487739125" lon="10.379360759291373"><ele>217.0</ele><time>2026-04-25T08:01:14.999Z</time></trkpt><trkpt lat="42.77437009284755" lon="10.379383893885015"><ele>216.99999999999997</ele><time>2026-04-25T08:01:15.999Z</time></trkpt><trkpt lat="42.77430775813258" lon="10.379432364855875"><ele>217.0</ele><time>2026-04-25T08:01:16.999Z</time></trkpt><trkpt lat="42.7742053331339" lon="10.379497660960011"><ele>214.99999999999997</ele><time>2026-04-25T08:01:18.999Z</time></trkpt><trkpt lat="42.77414790517362" lon="10.379533807442048"><ele>213.0</ele><time>2026-04-25T08:01:19.999Z</time></trkpt><trkpt lat="42.77409020493943" lon="10.379574221385276"><ele>211.0</ele><time>2026-04-25T08:01:20.999Z</time></trkpt><trkpt lat="42.77399277750467" lon="10.379658035556512"><ele>209.0</ele><time>2026-04-25T08:01:22.999Z</time></trkpt><trkpt lat="42.77392677455323" lon="10.379700916909057"><ele>206.99999999999997</ele><time>2026-04-25T08:01:23.999Z</time></trkpt><trkpt lat="42.773813855538094" lon="10.379730013028778"><ele>205.0</ele><time>2026-04-25T08:01:25.999Z</time></trkpt><trkpt lat="42.773710652209544" lon="10.3797557067905"><ele>200.2</ele><time>2026-04-25T08:01:27.998Z</time></trkpt><trkpt lat="42.773595494393675" lon="10.37975671823302"><ele>195.4</ele><time>2026-04-25T08:01:29.998Z</time></trkpt><trkpt lat="42.773513240945036" lon="10.379786763270388"><ele>190.60000000000002</ele><time>2026-04-25T08:01:31.998Z</time></trkpt><trkpt lat="42.77344012273266" lon="10.37979667938872"><ele>185.8</ele><time>2026-04-25T08:01:33.998Z</time></trkpt><trkpt lat="42.773348422619335" lon="10.379818439356837"><ele>181.0</ele><time>2026-04-25T08:01:35.998Z</time></trkpt><trkpt lat="42.773252371814436" lon="10.379827798600262"><ele>179.8</ele><time>2026-04-25T08:01:37.998Z</time></trkpt><trkpt lat="42.77316992693406" lon="10.37982020549953"><ele>178.60000000000002</ele><time>2026-04-25T08:01:39.998Z</time></trkpt><trkpt lat="42.77307155271085" lon="10.379820380220524"><ele>177.4</ele><time>2026-04-25T08:01:41.998Z</time></trkpt><trkpt lat="42.772981853920214" lon="10.379808263011274"><ele>176.2</ele><time>2026-04-25T08:01:43.998Z</time></trkpt><trkpt lat="42.772877863009" lon="10.379821666497541"><ele>175.0</ele><time>2026-04-25T08:01:45.998Z</time></trkpt><trkpt lat="42.772771781603545" lon="10.379834015096609"><ele>175.0</ele><time>2026-04-25T08:01:47.998Z</time></trkpt><trkpt lat="42.772706412928315" lon="10.379804518155694"><ele>175.0</ele><time>2026-04-25T08:01:49.998Z</time></trkpt><trkpt lat="42.772643258477416" lon="10.37977347670542"><ele>175.0</ele><time>2026-04-25T08:01:51.998Z</time></trkpt><trkpt lat="42.77255724739174" lon="10.379743788654714"><ele>175.0</ele><time>2026-04-25T08:01:53.998Z</time></trkpt><trkpt lat="42.77248321880593" lon="10.379675630936285"><ele>175.0</ele><time>2026-04-25T08:01:55.998Z</time></trkpt><trkpt lat="42.77242097751879" lon="10.379627527695375"><ele>175.0</ele><time>2026-04-25T08:01:57.998Z</time></trkpt><trkpt lat="42.77233749351737" lon="10.379575247524825"><ele>172.6</ele><time>2026-04-25T08:01:59.998Z</time></trkpt><trkpt lat="42.77225868863225" lon="10.379588716840601"><ele>170.2</ele><time>2026-04-25T08:02:01.998Z</time></trkpt><trkpt lat="42.77220379736857" lon="10.379705038331641"><ele>167.8</ele><time>2026-04-25T08:02:03.998Z</time></trkpt><trkpt lat="42.772180094986844" lon="10.37984716877226"><ele>165.4</ele><time>2026-04-25T08:02:05.998Z</time></trkpt><trkpt lat="42.77220582942597" lon="10.379984991701422"><ele>163.0</ele><time>2026-04-25T08:02:07.998Z</time></trkpt><trkpt lat="42.77224832501218" lon="10.380119288645968"><ele>162.5</ele><time>2026-04-25T08:02:09.998Z</time></trkpt><trkpt lat="42.772283516595095" lon="10.380237720701237"><ele>162.0</ele><time>2026-04-25T08:02:11.998Z</time></trkpt><trkpt lat="42.77233714713718" lon="10.380340126909335"><ele>161.5</ele><time>2026-04-25T08:02:13.998Z</time></trkpt><trkpt lat="42.77236833880243" lon="10.380431252815514"><ele>161.0</ele><time>2026-04-25T08:02:15.998Z</time></trkpt><trkpt lat="42.77239985476583" lon="10.380527429769481"><ele>160.5</ele><time>2026-04-25T08:02:17.998Z</time></trkpt><trkpt lat="42.772425936415594" lon="10.380647012356015"><ele>160.0</ele><time>2026-04-25T08:02:20.998Z</time></trkpt><trkpt lat="42.77240226198846" lon="10.380728888198794"><ele>157.5</ele><time>2026-04-25T08:02:22.997Z</time></trkpt><trkpt lat="42.77235823322323" lon="10.38079045168675"><ele>155.0</ele><time>2026-04-25T08:02:24.997Z</time></trkpt><trkpt lat="42.772274981809176" lon="10.380869015497497"><ele>152.5</ele><time>2026-04-25T08:02:26.997Z</time></trkpt><trkpt lat="42.77216205413929" lon="10.38095549991801"><ele>150.0</ele><time>2026-04-25T08:02:28.997Z</time></trkpt><trkpt lat="42.77210470840063" lon="10.38099707793612"><ele>147.5</ele><time>2026-04-25T08:02:29.997Z</time></trkpt><trkpt lat="42.77204636691562" lon="10.381032199167816"><ele>145.0</ele><time>2026-04-25T08:02:30.997Z</time></trkpt><trkpt lat="42.771950355037895" lon="10.381113573669545"><ele>142.66666666666669</ele><time>2026-04-25T08:02:32.997Z</time></trkpt><trkpt lat="42.771855401000195" lon="10.38119112164521"><ele>140.33333333333334</ele><time>2026-04-25T08:02:34.997Z</time></trkpt><trkpt lat="42.77179778967034" lon="10.381264827723912"><ele>138.0</ele><time>2026-04-25T08:02:35.997Z</time></trkpt><trkpt lat="42.77174281452652" lon="10.381331881160305"><ele>135.66666666666666</ele><time>2026-04-25T08:02:36.997Z</time></trkpt><trkpt lat="42.77168882316448" lon="10.381392560400558"><ele>133.33333333333331</ele><time>2026-04-25T08:02:37.999Z</time></trkpt><trkpt lat="42.771631405848275" lon="10.381444796684159"><ele>131.0</ele><time>2026-04-25T08:02:38.999Z</time></trkpt><trkpt lat="42.77156643967476" lon="10.381494190346745"><ele>129.66666666666666</ele><time>2026-04-25T08:02:39.999Z</time></trkpt><trkpt lat="42.771504465970104" lon="10.381532586227205"><ele>128.33333333333331</ele><time>2026-04-25T08:02:40.999Z</time></trkpt><trkpt lat="42.771450014163726" lon="10.381594289580525"><ele>127.0</ele><time>2026-04-25T08:02:41.999Z</time></trkpt><trkpt lat="42.771407197427365" lon="10.381664283398377"><ele>125.66666666666666</ele><time>2026-04-25T08:02:42.999Z</time></trkpt><trkpt lat="42.771356196851556" lon="10.381723493689565"><ele>124.33333333333333</ele><time>2026-04-25T08:02:44Z</time></trkpt><trkpt lat="42.77131775894614" lon="10.381833027548048"><ele>123.0</ele><time>2026-04-25T08:02:44.999Z</time></trkpt><trkpt lat="42.77127172933469" lon="10.381937748749152"><ele>123.00000000000001</ele><time>2026-04-25T08:02:45.999Z</time></trkpt><trkpt lat="42.77123206956695" lon="10.38203835532077"><ele>123.0</ele><time>2026-04-25T08:02:47Z</time></trkpt><trkpt lat="42.77119669723492" lon="10.382122376909546"><ele>123.00000000000001</ele><time>2026-04-25T08:02:47.999Z</time></trkpt><trkpt lat="42.77117823417302" lon="10.382210894100437"><ele>123.00000000000001</ele><time>2026-04-25T08:02:48.999Z</time></trkpt><trkpt lat="42.771152911211594" lon="10.382296017499595"><ele>123.0</ele><time>2026-04-25T08:02:51Z</time></trkpt><trkpt lat="42.771153936460415" lon="10.382394822934826"><ele>123.00000000000001</ele><time>2026-04-25T08:02:54.999Z</time></trkpt><trkpt lat="42.77117275635198" lon="10.38248037633418"><ele>123.00000000000001</ele><time>2026-04-25T08:02:58.999Z</time></trkpt><trkpt lat="42.771189189461545" lon="10.382565519581393"><ele>120.60000000000001</ele><time>2026-04-25T08:03:00.999Z</time></trkpt><trkpt lat="42.77119500088261" lon="10.382693200670365"><ele>118.20000000000002</ele><time>2026-04-25T08:03:02.999Z</time></trkpt><trkpt lat="42.77120892193482" lon="10.382834341574322"><ele>115.8</ele><time>2026-04-25T08:03:04.999Z</time></trkpt><trkpt lat="42.771187740661425" lon="10.38300167077715"><ele>113.4</ele><time>2026-04-25T08:03:06.999Z</time></trkpt><trkpt lat="42.771173752998706" lon="10.383086743410912"><ele>111.0</ele><time>2026-04-25T08:03:07.999Z</time></trkpt><trkpt lat="42.771150900014256" lon="10.38323633132049"><ele>108.0</ele><time>2026-04-25T08:03:09.999Z</time></trkpt><trkpt lat="42.771133192607294" lon="10.383360590255668"><ele>105.0</ele><time>2026-04-25T08:03:11.999Z</time></trkpt><trkpt lat="42.77111305402314" lon="10.383497917893697"><ele>102.0</ele><time>2026-04-25T08:03:13.999Z</time></trkpt><trkpt lat="42.771097891997044" lon="10.383624527713627"><ele>99.0</ele><time>2026-04-25T08:03:15.999Z</time></trkpt><trkpt lat="42.771089600308066" lon="10.383748337883516"><ele>96.0</ele><time>2026-04-25T08:03:17.999Z</time></trkpt><trkpt lat="42.77108972861901" lon="10.383866418290431"><ele>93.83333333333333</ele><time>2026-04-25T08:03:19.999Z</time></trkpt><trkpt lat="42.771119641171005" lon="10.384009182266098"><ele>91.66666666666667</ele><time>2026-04-25T08:03:21.999Z</time></trkpt><trkpt lat="42.771149533213844" lon="10.384134176448827"><ele>89.5</ele><time>2026-04-25T08:03:23.999Z</time></trkpt><trkpt lat="42.771158917106696" lon="10.384219624821318"><ele>87.33333333333334</ele><time>2026-04-25T08:03:25.999Z</time></trkpt><trkpt lat="42.77116364187826" lon="10.384328526121994"><ele>85.16666666666667</ele><time>2026-04-25T08:03:28.999Z</time></trkpt><trkpt lat="42.77117485490912" lon="10.384417695275342"><ele>83.0</ele><time>2026-04-25T08:03:30.999Z</time></trkpt><trkpt lat="42.77119489848758" lon="10.384507380351225"><ele>83.0</ele><time>2026-04-25T08:03:33.999Z</time></trkpt><trkpt lat="42.77121665643886" lon="10.38459376034868"><ele>83.0</ele><time>2026-04-25T08:03:47.999Z</time></trkpt><trkpt lat="42.77122692531306" lon="10.384683503753703"><ele>83.0</ele><time>2026-04-25T08:03:52.998Z</time></trkpt><trkpt lat="42.77124524563778" lon="10.384774157411186"><ele>83.0</ele><time>2026-04-25T08:03:57.998Z</time></trkpt><trkpt lat="42.77124578769978" lon="10.384879599120362"><ele>83.0</ele><time>2026-04-25T08:04:00.998Z</time></trkpt><trkpt lat="42.77126400036206" lon="10.38497266378628"><ele>83.0</ele><time>2026-04-25T08:04:03.998Z</time></trkpt><trkpt lat="42.77127912405198" lon="10.385066113682752"><ele>83.0</ele><time>2026-04-25T08:04:07.998Z</time></trkpt><trkpt lat="42.77128782266096" lon="10.385156766416852"><ele>81.57142857142857</ele><time>2026-04-25T08:04:12.998Z</time></trkpt><trkpt lat="42.771277661820626" lon="10.385241661158263"><ele>80.14285714285715</ele><time>2026-04-25T08:04:15.998Z</time></trkpt><trkpt lat="42.77129127776287" lon="10.385339445847558"><ele>78.71428571428572</ele><time>2026-04-25T08:04:19.998Z</time></trkpt><trkpt lat="42.77128626486161" lon="10.385431085756583"><ele>77.28571428571428</ele><time>2026-04-25T08:04:22.998Z</time></trkpt><trkpt lat="42.771280757991434" lon="10.385518279347092"><ele>75.85714285714286</ele><time>2026-04-25T08:04:25.998Z</time></trkpt><trkpt lat="42.77128407313896" lon="10.385637592630356"><ele>74.42857142857143</ele><time>2026-04-25T08:04:29.998Z</time></trkpt><trkpt lat="42.771300511856445" lon="10.385732323042356"><ele>73.0</ele><time>2026-04-25T08:04:32.998Z</time></trkpt><trkpt lat="42.77130092892407" lon="10.385825960093111"><ele>72.14285714285714</ele><time>2026-04-25T08:04:38.998Z</time></trkpt><trkpt lat="42.771309980546675" lon="10.38591625093328"><ele>71.28571428571429</ele><time>2026-04-25T08:04:47Z</time></trkpt><trkpt lat="42.77134350019207" lon="10.385989636599287"><ele>70.42857142857143</ele><time>2026-04-25T08:04:56.999Z</time></trkpt><trkpt lat="42.771366468462205" lon="10.386088084973185"><ele>69.57142857142857</ele><time>2026-04-25T08:05:09.999Z</time></trkpt><trkpt lat="42.771353049563864" lon="10.386202160275541"><ele>68.71428571428571</ele><time>2026-04-25T08:05:12.999Z</time></trkpt><trkpt lat="42.77132807980416" lon="10.386296726053999"><ele>67.85714285714286</ele><time>2026-04-25T08:05:16.999Z</time></trkpt><trkpt lat="42.77131431807776" lon="10.386404742440087"><ele>67.0</ele><time>2026-04-25T08:05:38.999Z</time></trkpt><trkpt lat="42.77130236087849" lon="10.386509049826463"><ele>64.33333333333333</ele><time>2026-04-25T08:05:42.998Z</time></trkpt><trkpt lat="42.77128680044661" lon="10.38660531161412"><ele>61.666666666666664</ele><time>2026-04-25T08:05:50.998Z</time></trkpt><trkpt lat="42.77126203152797" lon="10.386698165219732"><ele>59.0</ele><time>2026-04-25T08:05:54.998Z</time></trkpt><trkpt lat="42.77124202888123" lon="10.386799650383859"><ele>56.33333333333333</ele><time>2026-04-25T08:05:58.998Z</time></trkpt><trkpt lat="42.77121589273574" lon="10.386902002663879"><ele>53.666666666666664</ele><time>2026-04-25T08:06:01.998Z</time></trkpt><trkpt lat="42.77120542453329" lon="10.387013517323421"><ele>51.0</ele><time>2026-04-25T08:06:08.998Z</time></trkpt><trkpt lat="42.7712079862959" lon="10.387112574702227"><ele>48.57142857142857</ele><time>2026-04-25T08:06:17.998Z</time></trkpt><trkpt lat="42.77117786351548" lon="10.387204909758323"><ele>46.142857142857146</ele><time>2026-04-25T08:06:21.998Z</time></trkpt><trkpt lat="42.77115242254936" lon="10.387289022357363"><ele>43.71428571428571</ele><time>2026-04-25T08:06:23.998Z</time></trkpt><trkpt lat="42.771129873188" lon="10.387385473608301"><ele>41.285714285714285</ele><time>2026-04-25T08:06:26.998Z</time></trkpt><trkpt lat="42.77109575785138" lon="10.387460378020915"><ele>38.857142857142854</ele><time>2026-04-25T08:06:29.998Z</time></trkpt><trkpt lat="42.771067641441924" lon="10.387571029123922"><ele>36.42857142857142</ele><time>2026-04-25T08:06:48.997Z</time></trkpt><trkpt lat="42.7710371569229" lon="10.387653070322447"><ele>34.0</ele><time>2026-04-25T08:06:56.999Z</time></trkpt><trkpt lat="42.771010367644536" lon="10.387772560003624"><ele>34.0</ele><time>2026-04-25T08:07:15.999Z</time></trkpt><trkpt lat="42.77098569225098" lon="10.38787496006941"><ele>34.0</ele><time>2026-04-25T08:07:17.999Z</time></trkpt><trkpt lat="42.77095287979631" lon="10.387969501154727"><ele>34.0</ele><time>2026-04-25T08:08:14.998Z</time></trkpt><trkpt lat="42.7709172840708" lon="10.388063191627213"><ele>34.0</ele><time>2026-04-25T08:08:18.998Z</time></trkpt><trkpt lat="42.77088759154803" lon="10.388157134199067"><ele>34.0</ele><time>2026-04-25T08:08:20.998Z</time></trkpt><trkpt lat="42.77084735984471" lon="10.388283280920916"><ele>34.0</ele><time>2026-04-25T08:08:22.998Z</time></trkpt><trkpt lat="42.77082713282623" lon="10.388367733584351"><ele>32.66666666666667</ele><time>2026-04-25T08:08:24.998Z</time></trkpt><trkpt lat="42.77080359003366" lon="10.388468939055274"><ele>31.333333333333336</ele><time>2026-04-25T08:08:26.998Z</time></trkpt><trkpt lat="42.77078504864984" lon="10.388553928654838"><ele>30.0</ele><time>2026-04-25T08:08:28.998Z</time></trkpt><trkpt lat="42.7707596074251" lon="10.388658334820548"><ele>28.666666666666664</ele><time>2026-04-25T08:08:31.998Z</time></trkpt><trkpt lat="42.77072619120927" lon="10.38875010507505"><ele>27.333333333333332</ele><time>2026-04-25T08:08:35.998Z</time></trkpt><trkpt lat="42.77069649596215" lon="10.388833126638382"><ele>26.0</ele><time>2026-04-25T08:08:38.998Z</time></trkpt><trkpt lat="42.77066760473185" lon="10.388966275569555"><ele>25.166666666666664</ele><time>2026-04-25T08:08:48.998Z</time></trkpt><trkpt lat="42.77065198458457" lon="10.3890539396846"><ele>24.333333333333332</ele><time>2026-04-25T08:08:49.998Z</time></trkpt><trkpt lat="42.77062736538051" lon="10.389150142663816"><ele>23.5</ele><time>2026-04-25T08:08:50.998Z</time></trkpt><trkpt lat="42.770603019730174" lon="10.389247345058617"><ele>22.666666666666664</ele><time>2026-04-25T08:08:51.998Z</time></trkpt><trkpt lat="42.77057849420356" lon="10.389348204671986"><ele>21.833333333333332</ele><time>2026-04-25T08:08:52.997Z</time></trkpt><trkpt lat="42.77055028546873" lon="10.389439331380881"><ele>21.0</ele><time>2026-04-25T08:08:53.997Z</time></trkpt><trkpt lat="42.770524520591756" lon="10.389553548259133"><ele>21.0</ele><time>2026-04-25T08:08:54.997Z</time></trkpt><trkpt lat="42.7704991267102" lon="10.389649982912205"><ele>21.0</ele><time>2026-04-25T08:08:56Z</time></trkpt><trkpt lat="42.77047711531221" lon="10.389742151413754"><ele>21.0</ele><time>2026-04-25T08:08:56.999Z</time></trkpt><trkpt lat="42.770460505309245" lon="10.38983078118255"><ele>21.0</ele><time>2026-04-25T08:08:57.999Z</time></trkpt><trkpt lat="42.77043664502648" lon="10.389964530154154"><ele>21.0</ele><time>2026-04-25T08:08:59.999Z</time></trkpt><trkpt lat="42.770433787239725" lon="10.390093406386779"><ele>21.0</ele><time>2026-04-25T08:09:02.999Z</time></trkpt><trkpt lat="42.770338204368464" lon="10.390156310699023"><ele>20.666666666666668</ele><time>2026-04-25T08:09:05Z</time></trkpt><trkpt lat="42.77027222390808" lon="10.390211405640711"><ele>20.333333333333332</ele><time>2026-04-25T08:09:05.999Z</time></trkpt><trkpt lat="42.770200973264984" lon="10.39026689949587"><ele>20.0</ele><time>2026-04-25T08:09:06.999Z</time></trkpt><trkpt lat="42.770126043354" lon="10.390308739126281"><ele>19.666666666666664</ele><time>2026-04-25T08:09:08Z</time></trkpt><trkpt lat="42.77005262598007" lon="10.390353775096955"><ele>19.333333333333332</ele><time>2026-04-25T08:09:09Z</time></trkpt><trkpt lat="42.76997653115482" lon="10.3903953981301"><ele>19.0</ele><time>2026-04-25T08:09:10Z</time></trkpt><trkpt lat="42.76989972526705" lon="10.390433774911491"><ele>18.5</ele><time>2026-04-25T08:09:11Z</time></trkpt><trkpt lat="42.769833409823995" lon="10.390476908461261"><ele>18.0</ele><time>2026-04-25T08:09:12Z</time></trkpt><trkpt lat="42.76975624367569" lon="10.390539207396543"><ele>17.5</ele><time>2026-04-25T08:09:13Z</time></trkpt><trkpt lat="42.769694746691975" lon="10.39061970623621"><ele>17.0</ele><time>2026-04-25T08:09:14Z</time></trkpt><trkpt lat="42.769626784745164" lon="10.39071566733311"><ele>16.5</ele><time>2026-04-25T08:09:15Z</time></trkpt><trkpt lat="42.76957123603898" lon="10.390814672437736"><ele>16.0</ele><time>2026-04-25T08:09:16Z</time></trkpt><trkpt lat="42.76952617499897" lon="10.390928249742666"><ele>15.8</ele><time>2026-04-25T08:09:17Z</time></trkpt><trkpt lat="42.769490957483974" lon="10.391058719789857"><ele>15.600000000000001</ele><time>2026-04-25T08:09:18Z</time></trkpt><trkpt lat="42.76944900989529" lon="10.391179583589224"><ele>15.4</ele><time>2026-04-25T08:09:19Z</time></trkpt><trkpt lat="42.76938876869075" lon="10.391300070927064"><ele>15.2</ele><time>2026-04-25T08:09:20Z</time></trkpt><trkpt lat="42.769329692590986" lon="10.391390380527525"><ele>15.0</ele><time>2026-04-25T08:09:21Z</time></trkpt><trkpt lat="42.76923124802609" lon="10.39145733048217"><ele>14.4</ele><time>2026-04-25T08:09:23Z</time></trkpt><trkpt lat="42.76915788987771" lon="10.39153636818112"><ele>13.8</ele><time>2026-04-25T08:09:24.999Z</time></trkpt><trkpt lat="42.769105936690416" lon="10.39160108708799"><ele>13.2</ele><time>2026-04-25T08:09:26.999Z</time></trkpt><trkpt lat="42.76903075536565" lon="10.391691551351967"><ele>12.6</ele><time>2026-04-25T08:09:28.999Z</time></trkpt><trkpt lat="42.76894123289116" lon="10.3918125687824"><ele>12.0</ele><time>2026-04-25T08:09:30.999Z</time></trkpt><trkpt lat="42.768885105249325" lon="10.391867502349651"><ele>11.999999999999998</ele><time>2026-04-25T08:09:31.999Z</time></trkpt><trkpt lat="42.76883078789618" lon="10.391925927295095"><ele>12.0</ele><time>2026-04-25T08:09:32.999Z</time></trkpt><trkpt lat="42.768781084687404" lon="10.391992626499375"><ele>12.0</ele><time>2026-04-25T08:09:33.999Z</time></trkpt><trkpt lat="42.768730998859546" lon="10.392059650630094"><ele>12.0</ele><time>2026-04-25T08:09:34.999Z</time></trkpt><trkpt lat="42.768677666229244" lon="10.392125670591517"><ele>12.0</ele><time>2026-04-25T08:09:35.999Z</time></trkpt><trkpt lat="42.7686264023206" lon="10.392191693139248"><ele>11.999999999999998</ele><time>2026-04-25T08:09:36.999Z</time></trkpt><trkpt lat="42.768581057699244" lon="10.392256134943635"><ele>12.0</ele><time>2026-04-25T08:09:37.999Z</time></trkpt><trkpt lat="42.76853720920652" lon="10.392321911142481"><ele>11.4</ele><time>2026-04-25T08:09:38.999Z</time></trkpt><trkpt lat="42.768493071516666" lon="10.392390428606577"><ele>10.799999999999999</ele><time>2026-04-25T08:09:39.999Z</time></trkpt><trkpt lat="42.76841248365836" lon="10.39250782462122"><ele>10.2</ele><time>2026-04-25T08:09:41.999Z</time></trkpt><trkpt lat="42.76836937021629" lon="10.3925996315047"><ele>9.6</ele><time>2026-04-25T08:09:42.999Z</time></trkpt><trkpt lat="42.76829973817278" lon="10.392734897962736"><ele>9.0</ele><time>2026-04-25T08:09:44.999Z</time></trkpt><trkpt lat="42.76822322381806" lon="10.392889718249473"><ele>9.0</ele><time>2026-04-25T08:09:46.999Z</time></trkpt><trkpt lat="42.768176114464964" lon="10.392972344476801"><ele>9.0</ele><time>2026-04-25T08:09:47.999Z</time></trkpt><trkpt lat="42.768134038643986" lon="10.393063545399889"><ele>9.0</ele><time>2026-04-25T08:09:48.999Z</time></trkpt><trkpt lat="42.76809648841137" lon="10.393147936937597"><ele>9.0</ele><time>2026-04-25T08:09:49.999Z</time></trkpt><trkpt lat="42.76805531382091" lon="10.393244140812989"><ele>9.0</ele><time>2026-04-25T08:09:50.999Z</time></trkpt><trkpt lat="42.768012809378746" lon="10.393326511370885"><ele>9.0</ele><time>2026-04-25T08:09:51.999Z</time></trkpt><trkpt lat="42.76796827813268" lon="10.393404931171135"><ele>8.666666666666666</ele><time>2026-04-25T08:09:52.999Z</time></trkpt><trkpt lat="42.767924747006205" lon="10.393493861716433"><ele>8.333333333333334</ele><time>2026-04-25T08:09:53.999Z</time></trkpt><trkpt lat="42.767877071492805" lon="10.393581174970668"><ele>8.0</ele><time>2026-04-25T08:09:54.999Z</time></trkpt><trkpt lat="42.76783274023611" lon="10.393659465886035"><ele>7.666666666666667</ele><time>2026-04-25T08:09:55.999Z</time></trkpt><trkpt lat="42.767790502613785" lon="10.393746305478068"><ele>7.333333333333334</ele><time>2026-04-25T08:09:56.999Z</time></trkpt><trkpt lat="42.76775127023405" lon="10.393815330571009"><ele>7.0</ele><time>2026-04-25T08:09:57.999Z</time></trkpt><trkpt lat="42.76767915559138" lon="10.393956250850565"><ele>6.6</ele><time>2026-04-25T08:09:59.999Z</time></trkpt><trkpt lat="42.76760830877989" lon="10.394084161152055"><ele>6.199999999999999</ele><time>2026-04-25T08:10:01.999Z</time></trkpt><trkpt lat="42.76754360173579" lon="10.394211712187722"><ele>5.8</ele><time>2026-04-25T08:10:03.999Z</time></trkpt><trkpt lat="42.76749889943529" lon="10.394334007329572"><ele>5.4</ele><time>2026-04-25T08:10:05.999Z</time></trkpt><trkpt lat="42.76747049293636" lon="10.394444356622637"><ele>5.0</ele><time>2026-04-25T08:10:07.999Z</time></trkpt><trkpt lat="42.76761528412206" lon="10.394596384706894"><ele>5.0</ele><time>2026-04-25T08:10:14.999Z</time></trkpt><trkpt lat="42.76768635580545" lon="10.394637380454135"><ele>5.0</ele><time>2026-04-25T08:10:15.999Z</time></trkpt><trkpt lat="42.76775323719336" lon="10.394689407499518"><ele>5.0</ele><time>2026-04-25T08:10:16.999Z</time></trkpt><trkpt lat="42.76784929875336" lon="10.394778735552325"><ele>5.0</ele><time>2026-04-25T08:10:17.999Z</time></trkpt><trkpt lat="42.76793528043382" lon="10.394878389688472"><ele>5.0</ele><time>2026-04-25T08:10:18.999Z</time></trkpt><trkpt lat="42.76801105539229" lon="10.394973962131289"><ele>5.4</ele><time>2026-04-25T08:10:19.999Z</time></trkpt><trkpt lat="42.76808998759257" lon="10.395064677849629"><ele>5.8</ele><time>2026-04-25T08:10:20.999Z</time></trkpt><trkpt lat="42.768162570414574" lon="10.395137447517838"><ele>6.199999999999999</ele><time>2026-04-25T08:10:21.999Z</time></trkpt><trkpt lat="42.768249063048835" lon="10.395224014888486"><ele>6.6</ele><time>2026-04-25T08:10:22.999Z</time></trkpt><trkpt lat="42.76833194940145" lon="10.395310420838422"><ele>7.0</ele><time>2026-04-25T08:10:23.998Z</time></trkpt><trkpt lat="42.76842052336169" lon="10.395414061728108"><ele>7.0</ele><time>2026-04-25T08:10:24.998Z</time></trkpt><trkpt lat="42.76850678519508" lon="10.39549722953496"><ele>7.0</ele><time>2026-04-25T08:10:25.998Z</time></trkpt><trkpt lat="42.768593031458565" lon="10.395582736208079"><ele>7.0</ele><time>2026-04-25T08:10:26.998Z</time></trkpt><trkpt lat="42.768692876953025" lon="10.39568396053747"><ele>7.0</ele><time>2026-04-25T08:10:27.998Z</time></trkpt><trkpt lat="42.76878569852807" lon="10.395774660100905"><ele>7.75</ele><time>2026-04-25T08:10:28.998Z</time></trkpt><trkpt lat="42.768879581481" lon="10.395870560966458"><ele>8.5</ele><time>2026-04-25T08:10:29.998Z</time></trkpt><trkpt lat="42.76897201203114" lon="10.395963101020337"><ele>9.25</ele><time>2026-04-25T08:10:30.998Z</time></trkpt><trkpt lat="42.76906484851624" lon="10.396057236880123"><ele>10.0</ele><time>2026-04-25T08:10:31.998Z</time></trkpt><trkpt lat="42.769152508176184" lon="10.396142538360472"><ele>10.0</ele><time>2026-04-25T08:10:32.998Z</time></trkpt><trkpt lat="42.76924809258839" lon="10.396250668865946"><ele>10.0</ele><time>2026-04-25T08:10:33.998Z</time></trkpt><trkpt lat="42.769342324122455" lon="10.396352601921802"><ele>10.0</ele><time>2026-04-25T08:10:34.998Z</time></trkpt><trkpt lat="42.76944192375458" lon="10.396458131337413"><ele>10.0</ele><time>2026-04-25T08:10:35.998Z</time></trkpt><trkpt lat="42.7695369485445" lon="10.396559115189717"><ele>10.75</ele><time>2026-04-25T08:10:36.998Z</time></trkpt><trkpt lat="42.769632602982824" lon="10.396665763446867"><ele>11.5</ele><time>2026-04-25T08:10:37.998Z</time></trkpt><trkpt lat="42.76972553960019" lon="10.396774764731132"><ele>12.25</ele><time>2026-04-25T08:10:38.998Z</time></trkpt><trkpt lat="42.76981139407148" lon="10.396878354285187"><ele>13.0</ele><time>2026-04-25T08:10:39.998Z</time></trkpt><trkpt lat="42.76988262633902" lon="10.396988052890592"><ele>13.0</ele><time>2026-04-25T08:10:40.998Z</time></trkpt><trkpt lat="42.769938076533215" lon="10.397132881202511"><ele>13.0</ele><time>2026-04-25T08:10:41.998Z</time></trkpt><trkpt lat="42.76999703073497" lon="10.397303440526757"><ele>13.0</ele><time>2026-04-25T08:10:42.998Z</time></trkpt><trkpt lat="42.77005307580354" lon="10.39748934487938"><ele>13.0</ele><time>2026-04-25T08:10:43.998Z</time></trkpt><trkpt lat="42.77010497561334" lon="10.397671873653872"><ele>12.25</ele><time>2026-04-25T08:10:44.998Z</time></trkpt><trkpt lat="42.77015702175076" lon="10.397859593843473"><ele>11.5</ele><time>2026-04-25T08:10:45.998Z</time></trkpt><trkpt lat="42.770212723681" lon="10.39802111636265"><ele>10.75</ele><time>2026-04-25T08:10:46.998Z</time></trkpt><trkpt lat="42.7702598609561" lon="10.398192446992223"><ele>10.0</ele><time>2026-04-25T08:10:47.998Z</time></trkpt><trkpt lat="42.770314340838674" lon="10.398351217734536"><ele>11.0</ele><time>2026-04-25T08:10:48.998Z</time></trkpt><trkpt lat="42.77037730976362" lon="10.398490859663562"><ele>12.0</ele><time>2026-04-25T08:10:49.998Z</time></trkpt><trkpt lat="42.77045950870435" lon="10.398615756470015"><ele>13.0</ele><time>2026-04-25T08:10:50.998Z</time></trkpt><trkpt lat="42.770560694501626" lon="10.398758329646496"><ele>14.0</ele><time>2026-04-25T08:10:51.998Z</time></trkpt><trkpt lat="42.770660692784816" lon="10.398883367507345"><ele>14.0</ele><time>2026-04-25T08:10:52.998Z</time></trkpt><trkpt lat="42.770770458983534" lon="10.39902287197806"><ele>14.0</ele><time>2026-04-25T08:10:53.998Z</time></trkpt><trkpt lat="42.77088185092691" lon="10.39917222061703"><ele>14.0</ele><time>2026-04-25T08:10:54.998Z</time></trkpt><trkpt lat="42.77098924607924" lon="10.399304257714792"><ele>14.75</ele><time>2026-04-25T08:10:55.998Z</time></trkpt><trkpt lat="42.77109694195582" lon="10.399421798962612"><ele>15.5</ele><time>2026-04-25T08:10:56.998Z</time></trkpt><trkpt lat="42.7712069148334" lon="10.399561974838145"><ele>16.25</ele><time>2026-04-25T08:10:57.998Z</time></trkpt><trkpt lat="42.771317017892265" lon="10.399697327493655"><ele>17.0</ele><time>2026-04-25T08:10:58.998Z</time></trkpt><trkpt lat="42.771422474511816" lon="10.39983235800539"><ele>17.0</ele><time>2026-04-25T08:10:59.998Z</time></trkpt><trkpt lat="42.77152510063132" lon="10.399966301286234"><ele>17.0</ele><time>2026-04-25T08:11:00.998Z</time></trkpt><trkpt lat="42.771628245353874" lon="10.400102813634337"><ele>17.0</ele><time>2026-04-25T08:11:02Z</time></trkpt><trkpt lat="42.771730654797885" lon="10.400236539747347"><ele>17.0</ele><time>2026-04-25T08:11:03Z</time></trkpt><trkpt lat="42.77183606875855" lon="10.400367437738655"><ele>16.666666666666668</ele><time>2026-04-25T08:11:03.999Z</time></trkpt><trkpt lat="42.77195068822618" lon="10.400507602783739"><ele>16.333333333333332</ele><time>2026-04-25T08:11:05Z</time></trkpt><trkpt lat="42.7720506178542" lon="10.40064866923803"><ele>16.0</ele><time>2026-04-25T08:11:05.999Z</time></trkpt><trkpt lat="42.77215977732553" lon="10.400798420817564"><ele>16.0</ele><time>2026-04-25T08:11:06.999Z</time></trkpt><trkpt lat="42.772264231955525" lon="10.400973832341908"><ele>16.0</ele><time>2026-04-25T08:11:08Z</time></trkpt><trkpt lat="42.772353607696886" lon="10.401138516419483"><ele>16.0</ele><time>2026-04-25T08:11:08.999Z</time></trkpt><trkpt lat="42.772445008173015" lon="10.401314084746618"><ele>15.666666666666666</ele><time>2026-04-25T08:11:09.999Z</time></trkpt><trkpt lat="42.77252660399699" lon="10.401500370797624"><ele>15.333333333333332</ele><time>2026-04-25T08:11:11Z</time></trkpt><trkpt lat="42.772601057389686" lon="10.401693590517649"><ele>15.0</ele><time>2026-04-25T08:11:11.999Z</time></trkpt><trkpt lat="42.77267019484756" lon="10.401877647323936"><ele>15.333333333333332</ele><time>2026-04-25T08:11:12.999Z</time></trkpt><trkpt lat="42.772739847822926" lon="10.4020658171841"><ele>15.666666666666666</ele><time>2026-04-25T08:11:14Z</time></trkpt><trkpt lat="42.7728172866222" lon="10.40225765141758"><ele>16.0</ele><time>2026-04-25T08:11:15Z</time></trkpt><trkpt lat="42.772886392367184" lon="10.402437456286439"><ele>14.5</ele><time>2026-04-25T08:11:16Z</time></trkpt><trkpt lat="42.772948326664526" lon="10.402627427148936"><ele>13.0</ele><time>2026-04-25T08:11:17Z</time></trkpt><trkpt lat="42.7730139617657" lon="10.40281207330118"><ele>11.5</ele><time>2026-04-25T08:11:18Z</time></trkpt><trkpt lat="42.77307612958386" lon="10.402983515101639"><ele>10.0</ele><time>2026-04-25T08:11:19Z</time></trkpt><trkpt lat="42.773144012006135" lon="10.403157417024357"><ele>9.5</ele><time>2026-04-25T08:11:20Z</time></trkpt><trkpt lat="42.77320699474307" lon="10.40332280072906"><ele>9.0</ele><time>2026-04-25T08:11:21Z</time></trkpt><trkpt lat="42.77326520227385" lon="10.403483909774785"><ele>8.5</ele><time>2026-04-25T08:11:22Z</time></trkpt><trkpt lat="42.773328452865144" lon="10.40364747327878"><ele>8.0</ele><time>2026-04-25T08:11:23Z</time></trkpt><trkpt lat="42.77337513989086" lon="10.40379184028157"><ele>7.75</ele><time>2026-04-25T08:11:24Z</time></trkpt><trkpt lat="42.773428375651456" lon="10.403938144419767"><ele>7.5</ele><time>2026-04-25T08:11:25Z</time></trkpt><trkpt lat="42.77348069930723" lon="10.40407475783819"><ele>7.25</ele><time>2026-04-25T08:11:26Z</time></trkpt><trkpt lat="42.77353840674782" lon="10.404226631265438"><ele>7.0</ele><time>2026-04-25T08:11:27Z</time></trkpt><trkpt lat="42.77359503717074" lon="10.404369647719323"><ele>8.0</ele><time>2026-04-25T08:11:28Z</time></trkpt><trkpt lat="42.77365640783988" lon="10.404530560937097"><ele>9.0</ele><time>2026-04-25T08:11:28.999Z</time></trkpt><trkpt lat="42.773715797201014" lon="10.404695869744861"><ele>10.0</ele><time>2026-04-25T08:11:29.999Z</time></trkpt><trkpt lat="42.77378410788619" lon="10.404860419274085"><ele>11.0</ele><time>2026-04-25T08:11:30.999Z</time></trkpt><trkpt lat="42.77385504136789" lon="10.405038977856353"><ele>11.333333333333332</ele><time>2026-04-25T08:11:31.999Z</time></trkpt><trkpt lat="42.77393015245964" lon="10.405219355556941"><ele>11.666666666666666</ele><time>2026-04-25T08:11:32.999Z</time></trkpt><trkpt lat="42.77400274000662" lon="10.405405405507576"><ele>12.0</ele><time>2026-04-25T08:11:33.999Z</time></trkpt><trkpt lat="42.774072697975825" lon="10.405594384424171"><ele>12.0</ele><time>2026-04-25T08:11:34.999Z</time></trkpt><trkpt lat="42.77414293657294" lon="10.405775575120567"><ele>12.0</ele><time>2026-04-25T08:11:35.999Z</time></trkpt><trkpt lat="42.774207152646746" lon="10.405945156895658"><ele>12.0</ele><time>2026-04-25T08:11:36.999Z</time></trkpt><trkpt lat="42.77426476128146" lon="10.406096753790711"><ele>12.0</ele><time>2026-04-25T08:11:37.999Z</time></trkpt><trkpt lat="42.774309901646475" lon="10.406245094912904"><ele>13.0</ele><time>2026-04-25T08:11:38.999Z</time></trkpt><trkpt lat="42.774326310046085" lon="10.406381272368087"><ele>14.0</ele><time>2026-04-25T08:11:39.999Z</time></trkpt><trkpt lat="42.77430483356539" lon="10.406512935621935"><ele>15.0</ele><time>2026-04-25T08:11:40.999Z</time></trkpt><trkpt lat="42.77425273666863" lon="10.406648977774646"><ele>16.0</ele><time>2026-04-25T08:11:41.999Z</time></trkpt><trkpt lat="42.77419031814778" lon="10.40678687182244"><ele>17.0</ele><time>2026-04-25T08:11:42.999Z</time></trkpt><trkpt lat="42.77412241995796" lon="10.406955282896892"><ele>17.0</ele><time>2026-04-25T08:11:43.999Z</time></trkpt><trkpt lat="42.7740620193974" lon="10.407145413994803"><ele>17.0</ele><time>2026-04-25T08:11:44.999Z</time></trkpt><trkpt lat="42.774016021849604" lon="10.40735992126008"><ele>17.0</ele><time>2026-04-25T08:11:45.999Z</time></trkpt><trkpt lat="42.77398866213162" lon="10.407587005371505"><ele>18.333333333333336</ele><time>2026-04-25T08:11:46.999Z</time></trkpt><trkpt lat="42.77399262576906" lon="10.40780892918948"><ele>19.666666666666668</ele><time>2026-04-25T08:11:47.999Z</time></trkpt><trkpt lat="42.77400766819642" lon="10.40804502470303"><ele>21.0</ele><time>2026-04-25T08:11:48.999Z</time></trkpt><trkpt lat="42.7740377064581" lon="10.408287325681146"><ele>21.0</ele><time>2026-04-25T08:11:49.999Z</time></trkpt><trkpt lat="42.77406305865879" lon="10.408535870158412"><ele>21.0</ele><time>2026-04-25T08:11:50.999Z</time></trkpt><trkpt lat="42.774084640468786" lon="10.408762688634646"><ele>21.0</ele><time>2026-04-25T08:11:51.999Z</time></trkpt><trkpt lat="42.77410549900592" lon="10.408980963261097"><ele>21.5</ele><time>2026-04-25T08:11:52.999Z</time></trkpt><trkpt lat="42.77413710119038" lon="10.409170067029367"><ele>22.0</ele><time>2026-04-25T08:11:53.999Z</time></trkpt><trkpt lat="42.774189992956636" lon="10.409326517882494"><ele>22.5</ele><time>2026-04-25T08:11:54.999Z</time></trkpt><trkpt lat="42.774260040494006" lon="10.40946687075726"><ele>23.0</ele><time>2026-04-25T08:11:55.999Z</time></trkpt><trkpt lat="42.77434563733035" lon="10.409569141875197"><ele>25.25</ele><time>2026-04-25T08:11:56.999Z</time></trkpt><trkpt lat="42.77446107026338" lon="10.409650951014605"><ele>27.5</ele><time>2026-04-25T08:11:57.999Z</time></trkpt><trkpt lat="42.774599700250356" lon="10.409684460589487"><ele>29.75</ele><time>2026-04-25T08:11:58.999Z</time></trkpt><trkpt lat="42.77474966388404" lon="10.409697170219903"><ele>32.0</ele><time>2026-04-25T08:11:59.999Z</time></trkpt><trkpt lat="42.77489686989893" lon="10.409684313749281"><ele>32.33333333333333</ele><time>2026-04-25T08:12:00.999Z</time></trkpt><trkpt lat="42.775055175929445" lon="10.409640645498797"><ele>32.666666666666664</ele><time>2026-04-25T08:12:01.999Z</time></trkpt><trkpt lat="42.775215493518374" lon="10.409618991389415"><ele>33.0</ele><time>2026-04-25T08:12:02.999Z</time></trkpt><trkpt lat="42.775369124659036" lon="10.409586097170545"><ele>34.5</ele><time>2026-04-25T08:12:03.999Z</time></trkpt><trkpt lat="42.77550315775444" lon="10.409561885203388"><ele>36.0</ele><time>2026-04-25T08:12:04.999Z</time></trkpt><trkpt lat="42.775642490571485" lon="10.409532214268433"><ele>37.5</ele><time>2026-04-25T08:12:05.999Z</time></trkpt><trkpt lat="42.77575436243408" lon="10.409528061343936"><ele>39.0</ele><time>2026-04-25T08:12:06.999Z</time></trkpt><trkpt lat="42.77585853241676" lon="10.409510297138063"><ele>39.0</ele><time>2026-04-25T08:12:07.999Z</time></trkpt><trkpt lat="42.775947100747686" lon="10.409498985064733"><ele>39.0</ele><time>2026-04-25T08:12:08.999Z</time></trkpt><trkpt lat="42.77603193773748" lon="10.409494442769473"><ele>39.0</ele><time>2026-04-25T08:12:09.999Z</time></trkpt><trkpt lat="42.77610413173082" lon="10.409510383381022"><ele>39.0</ele><time>2026-04-25T08:12:10.999Z</time></trkpt><trkpt lat="42.776194144007846" lon="10.409544928756988"><ele>39.0</ele><time>2026-04-25T08:12:12.999Z</time></trkpt><trkpt lat="42.77626215704098" lon="10.409534931005004"><ele>39.0</ele><time>2026-04-25T08:12:14.999Z</time></trkpt><trkpt lat="42.77631534198884" lon="10.409711877325172"><ele>38.85714285714286</ele><time>2026-04-25T08:12:15.999Z</time></trkpt><trkpt lat="42.77635685843355" lon="10.409784613542913"><ele>38.71428571428571</ele><time>2026-04-25T08:12:16.999Z</time></trkpt><trkpt lat="42.77640559209107" lon="10.409877849406504"><ele>38.57142857142857</ele><time>2026-04-25T08:12:17.999Z</time></trkpt><trkpt lat="42.7764512347028" lon="10.40996296288323"><ele>38.42857142857143</ele><time>2026-04-25T08:12:18.999Z</time></trkpt><trkpt lat="42.77649750764099" lon="10.41004503195106"><ele>38.28571428571429</ele><time>2026-04-25T08:12:19.999Z</time></trkpt><trkpt lat="42.776540339526754" lon="10.410124848602326"><ele>38.14285714285714</ele><time>2026-04-25T08:12:20.999Z</time></trkpt><trkpt lat="42.776576805717106" lon="10.410203558514945"><ele>38.0</ele><time>2026-04-25T08:12:21.999Z</time></trkpt><trkpt lat="42.776611357665224" lon="10.41031540348527"><ele>38.0</ele><time>2026-04-25T08:12:22.999Z</time></trkpt><trkpt lat="42.77666090384106" lon="10.410429415055008"><ele>38.0</ele><time>2026-04-25T08:12:23.999Z</time></trkpt><trkpt lat="42.77671275463798" lon="10.410548769177616"><ele>38.0</ele><time>2026-04-25T08:12:24.998Z</time></trkpt><trkpt lat="42.77675674821448" lon="10.410650036958094"><ele>38.0</ele><time>2026-04-25T08:12:25.998Z</time></trkpt><trkpt lat="42.77679947482224" lon="10.41074805346775"><ele>38.0</ele><time>2026-04-25T08:12:26.998Z</time></trkpt><trkpt lat="42.77684010970965" lon="10.410839102171797"><ele>38.0</ele><time>2026-04-25T08:12:27.998Z</time></trkpt><trkpt lat="42.776874441655515" lon="10.410916028296246"><ele>36.6</ele><time>2026-04-25T08:12:28.998Z</time></trkpt><trkpt lat="42.77692714021507" lon="10.411033345550093"><ele>35.199999999999996</ele><time>2026-04-25T08:12:30.998Z</time></trkpt><trkpt lat="42.77698213019459" lon="10.411155676507464"><ele>33.8</ele><time>2026-04-25T08:12:32.998Z</time></trkpt><trkpt lat="42.77704180293153" lon="10.411298194492064"><ele>32.4</ele><time>2026-04-25T08:12:34.998Z</time></trkpt><trkpt lat="42.777085588424406" lon="10.411420343385954"><ele>31.0</ele><time>2026-04-25T08:12:36.998Z</time></trkpt><trkpt lat="42.77710742113709" lon="10.411513141432014"><ele>29.0</ele><time>2026-04-25T08:12:38.998Z</time></trkpt><trkpt lat="42.777340166286145" lon="10.411570076573163"><ele>27.0</ele><time>2026-04-25T08:12:58.998Z</time></trkpt><trkpt lat="42.77737249256636" lon="10.41148470380893"><ele>25.0</ele><time>2026-04-25T08:15:27.995Z</time></trkpt><trkpt lat="42.777430618550646" lon="10.411446283133428"><ele>23.0</ele><time>2026-04-25T08:15:29.995Z</time></trkpt><trkpt lat="42.77751057280286" lon="10.41138166211451"><ele>23.0</ele><time>2026-04-25T08:15:31.995Z</time></trkpt><trkpt lat="42.77762326745809" lon="10.411331446728378"><ele>23.0</ele><time>2026-04-25T08:15:33.995Z</time></trkpt><trkpt lat="42.77777577709084" lon="10.411355447175751"><ele>23.0</ele><time>2026-04-25T08:15:35.995Z</time></trkpt><trkpt lat="42.77784466171506" lon="10.411325661860797"><ele>23.0</ele><time>2026-04-25T08:15:36.995Z</time></trkpt><trkpt lat="42.7779420199984" lon="10.411438987063903"><ele>22.799999999999997</ele><time>2026-04-25T08:15:38.995Z</time></trkpt><trkpt lat="42.77799337015828" lon="10.411541593584143"><ele>22.6</ele><time>2026-04-25T08:15:39.995Z</time></trkpt><trkpt lat="42.77804343186773" lon="10.411641579962161"><ele>22.4</ele><time>2026-04-25T08:15:40.995Z</time></trkpt><trkpt lat="42.77812593242353" lon="10.411731316245119"><ele>22.200000000000003</ele><time>2026-04-25T08:15:41.995Z</time></trkpt><trkpt lat="42.77817238282118" lon="10.411850781625624"><ele>22.0</ele><time>2026-04-25T08:15:42.995Z</time></trkpt><trkpt lat="42.778218176366074" lon="10.411968546172218"><ele>22.0</ele><time>2026-04-25T08:15:43.995Z</time></trkpt><trkpt lat="42.77825810177322" lon="10.412070775932223"><ele>22.0</ele><time>2026-04-25T08:15:44.995Z</time></trkpt><trkpt lat="42.778280773774675" lon="10.412168255369245"><ele>22.0</ele><time>2026-04-25T08:15:45.995Z</time></trkpt><trkpt lat="42.77832206802901" lon="10.412245681692317"><ele>22.0</ele><time>2026-04-25T08:15:46.995Z</time></trkpt><trkpt lat="42.77836950423588" lon="10.412306951261405"><ele>22.0</ele><time>2026-04-25T08:15:47.995Z</time></trkpt><trkpt lat="42.77848397849991" lon="10.412342733356253"><ele>22.0</ele><time>2026-04-25T08:15:49.995Z</time></trkpt><trkpt lat="42.778545486091026" lon="10.412300803385332"><ele>23.200000000000003</ele><time>2026-04-25T08:15:50.995Z</time></trkpt><trkpt lat="42.77861874933869" lon="10.412232118727054"><ele>24.4</ele><time>2026-04-25T08:15:51.995Z</time></trkpt><trkpt lat="42.77869603744526" lon="10.412176733944358"><ele>25.599999999999998</ele><time>2026-04-25T08:15:52.995Z</time></trkpt><trkpt lat="42.77877707679403" lon="10.412141436283697"><ele>26.799999999999997</ele><time>2026-04-25T08:15:53.995Z</time></trkpt><trkpt lat="42.77887316524731" lon="10.412111324913473"><ele>28.0</ele><time>2026-04-25T08:15:54.995Z</time></trkpt><trkpt lat="42.77897191836466" lon="10.412089281581432"><ele>28.0</ele><time>2026-04-25T08:15:55.995Z</time></trkpt><trkpt lat="42.77909488070789" lon="10.412063568090595"><ele>28.0</ele><time>2026-04-25T08:15:56.995Z</time></trkpt><trkpt lat="42.77923728315993" lon="10.41201628518134"><ele>28.0</ele><time>2026-04-25T08:15:57.995Z</time></trkpt><trkpt lat="42.77936840547436" lon="10.412004732582858"><ele>28.0</ele><time>2026-04-25T08:15:58.995Z</time></trkpt><trkpt lat="42.7794900673308" lon="10.411991950773333"><ele>28.799999999999997</ele><time>2026-04-25T08:15:59.995Z</time></trkpt><trkpt lat="42.77956967204087" lon="10.411994104769494"><ele>29.599999999999998</ele><time>2026-04-25T08:16:00.995Z</time></trkpt><trkpt lat="42.77961242310453" lon="10.412098846007986"><ele>30.400000000000002</ele><time>2026-04-25T08:16:02.995Z</time></trkpt><trkpt lat="42.77947678526039" lon="10.412171513729035"><ele>31.200000000000003</ele><time>2026-04-25T08:16:04.995Z</time></trkpt><trkpt lat="42.77938164910868" lon="10.412204948359246"><ele>32.0</ele><time>2026-04-25T08:16:05.995Z</time></trkpt><trkpt lat="42.77926906660839" lon="10.412238939100583"><ele>34.5</ele><time>2026-04-25T08:16:06.995Z</time></trkpt><trkpt lat="42.77917321658785" lon="10.412304757920433"><ele>37.0</ele><time>2026-04-25T08:16:07.995Z</time></trkpt><trkpt lat="42.77905983368323" lon="10.41240497558743"><ele>39.5</ele><time>2026-04-25T08:16:08.995Z</time></trkpt><trkpt lat="42.77894092667266" lon="10.412537512491609"><ele>42.0</ele><time>2026-04-25T08:16:09.995Z</time></trkpt><trkpt lat="42.778799071582476" lon="10.41267576326078"><ele>42.0</ele><time>2026-04-25T08:16:10.995Z</time></trkpt><trkpt lat="42.77866362042495" lon="10.412800517154325"><ele>42.0</ele><time>2026-04-25T08:16:11.995Z</time></trkpt><trkpt lat="42.778542920989956" lon="10.412912575265894"><ele>42.0</ele><time>2026-04-25T08:16:12.995Z</time></trkpt><trkpt lat="42.77843693385124" lon="10.413008758549585"><ele>42.0</ele><time>2026-04-25T08:16:13.994Z</time></trkpt><trkpt lat="42.77834376476196" lon="10.413109610176118"><ele>44.0</ele><time>2026-04-25T08:16:14.994Z</time></trkpt><trkpt lat="42.778246963245145" lon="10.413237711035492"><ele>46.0</ele><time>2026-04-25T08:16:15.994Z</time></trkpt><trkpt lat="42.77813736891472" lon="10.413383153869232"><ele>48.0</ele><time>2026-04-25T08:16:16.994Z</time></trkpt><trkpt lat="42.77804307511336" lon="10.413525077807508"><ele>50.0</ele><time>2026-04-25T08:16:17.994Z</time></trkpt><trkpt lat="42.77795330872665" lon="10.413662080280012"><ele>50.0</ele><time>2026-04-25T08:16:18.994Z</time></trkpt><trkpt lat="42.777866305996696" lon="10.413793526111707"><ele>50.0</ele><time>2026-04-25T08:16:19.994Z</time></trkpt><trkpt lat="42.777776121308975" lon="10.413921045165097"><ele>50.0</ele><time>2026-04-25T08:16:20.994Z</time></trkpt><trkpt lat="42.77767440045773" lon="10.414052359810208"><ele>50.0</ele><time>2026-04-25T08:16:21.994Z</time></trkpt><trkpt lat="42.77755797128682" lon="10.414196250942057"><ele>50.333333333333336</ele><time>2026-04-25T08:16:22.994Z</time></trkpt><trkpt lat="42.77744138419558" lon="10.414347073606171"><ele>50.66666666666667</ele><time>2026-04-25T08:16:23.994Z</time></trkpt><trkpt lat="42.77732016191088" lon="10.414482138637172"><ele>51.0</ele><time>2026-04-25T08:16:24.994Z</time></trkpt><trkpt lat="42.77720546296351" lon="10.414605107410768"><ele>51.0</ele><time>2026-04-25T08:16:25.994Z</time></trkpt><trkpt lat="42.777089906151055" lon="10.414743695441521"><ele>51.0</ele><time>2026-04-25T08:16:26.994Z</time></trkpt><trkpt lat="42.776987505395624" lon="10.414868203277756"><ele>51.0</ele><time>2026-04-25T08:16:27.994Z</time></trkpt><trkpt lat="42.77688621933486" lon="10.41499217151755"><ele>51.0</ele><time>2026-04-25T08:16:28.994Z</time></trkpt><trkpt lat="42.77679292615015" lon="10.415112135505847"><ele>51.0</ele><time>2026-04-25T08:16:29.994Z</time></trkpt><trkpt lat="42.77670346141697" lon="10.41520929442564"><ele>51.0</ele><time>2026-04-25T08:16:30.994Z</time></trkpt><trkpt lat="42.776617780958446" lon="10.415317822978194"><ele>51.0</ele><time>2026-04-25T08:16:31.994Z</time></trkpt><trkpt lat="42.77654054166394" lon="10.415422223399215"><ele>51.0</ele><time>2026-04-25T08:16:32.994Z</time></trkpt><trkpt lat="42.776479866182164" lon="10.415526403186897"><ele>51.0</ele><time>2026-04-25T08:16:33.994Z</time></trkpt><trkpt lat="42.776442724164575" lon="10.415674463306223"><ele>53.5</ele><time>2026-04-25T08:16:34.994Z</time></trkpt><trkpt lat="42.77642238845498" lon="10.415812026654976"><ele>56.0</ele><time>2026-04-25T08:16:35.994Z</time></trkpt><trkpt lat="42.776422256502975" lon="10.415923661308147"><ele>58.5</ele><time>2026-04-25T08:16:36.994Z</time></trkpt><trkpt lat="42.776451494006146" lon="10.416006420952936"><ele>61.0</ele><time>2026-04-25T08:16:37.994Z</time></trkpt><trkpt lat="42.77651380438647" lon="10.416088830073845"><ele>63.5</ele><time>2026-04-25T08:16:39.994Z</time></trkpt><trkpt lat="42.77647315553166" lon="10.416223485907535"><ele>66.0</ele><time>2026-04-25T08:16:43.994Z</time></trkpt><trkpt lat="42.776381466272056" lon="10.416307410571015"><ele>65.39999999999999</ele><time>2026-04-25T08:16:45.994Z</time></trkpt><trkpt lat="42.77627198169038" lon="10.416409365656571"><ele>64.8</ele><time>2026-04-25T08:16:47.994Z</time></trkpt><trkpt lat="42.776213322554426" lon="10.416472697155163"><ele>64.19999999999999</ele><time>2026-04-25T08:16:48.994Z</time></trkpt><trkpt lat="42.77613699287023" lon="10.416525867172316"><ele>63.599999999999994</ele><time>2026-04-25T08:16:49.994Z</time></trkpt><trkpt lat="42.77603024487036" lon="10.416588349440518"><ele>63.0</ele><time>2026-04-25T08:16:50.994Z</time></trkpt><trkpt lat="42.77593601026252" lon="10.41660522300422"><ele>63.0</ele><time>2026-04-25T08:16:51.994Z</time></trkpt><trkpt lat="42.77586657708181" lon="10.416602142499517"><ele>63.0</ele><time>2026-04-25T08:16:52.994Z</time></trkpt><trkpt lat="42.775791009977716" lon="10.416589127930889"><ele>63.0</ele><time>2026-04-25T08:16:53.994Z</time></trkpt><trkpt lat="42.77571580606602" lon="10.416587400886128"><ele>63.0</ele><time>2026-04-25T08:16:54.994Z</time></trkpt><trkpt lat="42.77562798987137" lon="10.416612620113222"><ele>63.0</ele><time>2026-04-25T08:16:55.994Z</time></trkpt><trkpt lat="42.77555638717601" lon="10.41664653853302"><ele>63.0</ele><time>2026-04-25T08:16:56.994Z</time></trkpt><trkpt lat="42.77548248127804" lon="10.416689356822445"><ele>63.0</ele><time>2026-04-25T08:16:57.994Z</time></trkpt><trkpt lat="42.77538278597248" lon="10.41672187641041"><ele>63.0</ele><time>2026-04-25T08:16:58.994Z</time></trkpt><trkpt lat="42.7752958402697" lon="10.416732313928438"><ele>63.0</ele><time>2026-04-25T08:16:59.994Z</time></trkpt><trkpt lat="42.77517641495453" lon="10.416763468510911"><ele>63.0</ele><time>2026-04-25T08:17:00.994Z</time></trkpt><trkpt lat="42.77506055119723" lon="10.416777680689968"><ele>63.0</ele><time>2026-04-25T08:17:01.994Z</time></trkpt><trkpt lat="42.77494937551515" lon="10.416782300523462"><ele>63.0</ele><time>2026-04-25T08:17:02.994Z</time></trkpt><trkpt lat="42.774851580957574" lon="10.416783490874218"><ele>63.0</ele><time>2026-04-25T08:17:03.994Z</time></trkpt><trkpt lat="42.77474738032066" lon="10.416784876920023"><ele>63.0</ele><time>2026-04-25T08:17:04.994Z</time></trkpt><trkpt lat="42.77463870109009" lon="10.416780631922157"><ele>63.0</ele><time>2026-04-25T08:17:05.994Z</time></trkpt><trkpt lat="42.77454731015038" lon="10.41676853898521"><ele>63.0</ele><time>2026-04-25T08:17:06.994Z</time></trkpt><trkpt lat="42.774452597475026" lon="10.416766369064865"><ele>63.0</ele><time>2026-04-25T08:17:07.994Z</time></trkpt><trkpt lat="42.77435774862452" lon="10.416753221350273"><ele>63.0</ele><time>2026-04-25T08:17:08.994Z</time></trkpt><trkpt lat="42.77426843112068" lon="10.416752823476786"><ele>63.0</ele><time>2026-04-25T08:17:09.994Z</time></trkpt><trkpt lat="42.77420460913424" lon="10.416771135644577"><ele>63.0</ele><time>2026-04-25T08:17:10.993Z</time></trkpt><trkpt lat="42.774147645209496" lon="10.41688159803236"><ele>63.0</ele><time>2026-04-25T08:17:12.993Z</time></trkpt><trkpt lat="42.77419330710663" lon="10.416964312569"><ele>63.0</ele><time>2026-04-25T08:17:14.993Z</time></trkpt><trkpt lat="42.774275077529694" lon="10.41705223051545"><ele>61.666666666666664</ele><time>2026-04-25T08:17:16.993Z</time></trkpt><trkpt lat="42.77432308317389" lon="10.417129738948434"><ele>60.33333333333333</ele><time>2026-04-25T08:17:17.993Z</time></trkpt><trkpt lat="42.774366194616206" lon="10.417192457074187"><ele>59.0</ele><time>2026-04-25T08:17:18.993Z</time></trkpt><trkpt lat="42.774408647972436" lon="10.417256008034263"><ele>57.666666666666664</ele><time>2026-04-25T08:17:19.993Z</time></trkpt><trkpt lat="42.774481087718506" lon="10.417362739759803"><ele>56.33333333333333</ele><time>2026-04-25T08:17:21.993Z</time></trkpt><trkpt lat="42.77453393465151" lon="10.41744373779771"><ele>55.0</ele><time>2026-04-25T08:17:23.993Z</time></trkpt><trkpt lat="42.77461684640696" lon="10.417523653563968"><ele>54.49999999999999</ele><time>2026-04-25T08:17:26.993Z</time></trkpt><trkpt lat="42.77467334111654" lon="10.417587849426974"><ele>54.0</ele><time>2026-04-25T08:17:29.993Z</time></trkpt><trkpt lat="42.77474695134504" lon="10.417640034391367"><ele>53.5</ele><time>2026-04-25T08:17:32.993Z</time></trkpt><trkpt lat="42.774810498241365" lon="10.41769297673418"><ele>53.0</ele><time>2026-04-25T08:17:35.993Z</time></trkpt><trkpt lat="42.77489424433102" lon="10.417744703231275"><ele>52.49999999999999</ele><time>2026-04-25T08:23:43.987Z</time></trkpt><trkpt lat="42.77489175576159" lon="10.417841047898735"><ele>52.0</ele><time>2026-04-25T08:28:01.982Z</time></trkpt><trkpt lat="42.77484743385692" lon="10.417912621325987"><ele>51.99999999999999</ele><time>2026-04-25T08:28:03.982Z</time></trkpt><trkpt lat="42.77475819692035" lon="10.417873100118237"><ele>52.0</ele><time>2026-04-25T08:28:05.982Z</time></trkpt><trkpt lat="42.77466768893308" lon="10.417826632934469"><ele>52.0</ele><time>2026-04-25T08:28:08.982Z</time></trkpt><trkpt lat="42.774587702929495" lon="10.417803566130813"><ele>52.0</ele><time>2026-04-25T08:28:10.982Z</time></trkpt><trkpt lat="42.77454939975683" lon="10.41791245894991"><ele>51.99999999999999</ele><time>2026-04-25T08:28:13.982Z</time></trkpt><trkpt lat="42.77460558734702" lon="10.417952109244366"><ele>52.0</ele><time>2026-04-25T08:28:15.982Z</time></trkpt><trkpt lat="42.77469476202019" lon="10.41794816468614"><ele>51.99999999999999</ele><time>2026-04-25T08:28:16.982Z</time></trkpt><trkpt lat="42.77477969319448" lon="10.417974054321876"><ele>52.0</ele><time>2026-04-25T08:28:17.982Z</time></trkpt><trkpt lat="42.774853245513434" lon="10.418030768106837"><ele>52.0</ele><time>2026-04-25T08:28:18.982Z</time></trkpt><trkpt lat="42.77491916848614" lon="10.418070901564683"><ele>52.0</ele><time>2026-04-25T08:28:19.982Z</time></trkpt><trkpt lat="42.774978726643035" lon="10.418101011797921"><ele>51.99999999999999</ele><time>2026-04-25T08:28:20.982Z</time></trkpt><trkpt lat="42.775040338141196" lon="10.41815079878517"><ele>52.0</ele><time>2026-04-25T08:28:22.982Z</time></trkpt><trkpt lat="42.77501721502406" lon="10.4182719461987"><ele>49.285714285714285</ele><time>2026-04-25T08:28:24.982Z</time></trkpt><trkpt lat="42.77499000763619" lon="10.41836016647453"><ele>46.57142857142858</ele><time>2026-04-25T08:28:26.982Z</time></trkpt><trkpt lat="42.77504406050654" lon="10.41842834855643"><ele>43.85714285714286</ele><time>2026-04-25T08:28:27.982Z</time></trkpt><trkpt lat="42.775094940692185" lon="10.418485914353093"><ele>41.14285714285714</ele><time>2026-04-25T08:28:28.982Z</time></trkpt><trkpt lat="42.775155895442005" lon="10.418530501121062"><ele>38.42857142857143</ele><time>2026-04-25T08:28:29.982Z</time></trkpt><trkpt lat="42.775178838207474" lon="10.41864326104865"><ele>35.714285714285715</ele><time>2026-04-25T08:28:31.982Z</time></trkpt><trkpt lat="42.77514824065427" lon="10.418736332011045"><ele>33.0</ele><time>2026-04-25T08:28:32.982Z</time></trkpt><trkpt lat="42.77512568388348" lon="10.418846093865238"><ele>31.833333333333332</ele><time>2026-04-25T08:28:33.982Z</time></trkpt><trkpt lat="42.77513525516696" lon="10.418938135127632"><ele>30.666666666666664</ele><time>2026-04-25T08:28:34.982Z</time></trkpt><trkpt lat="42.77519373191634" lon="10.419087442473959"><ele>29.5</ele><time>2026-04-25T08:28:36.982Z</time></trkpt><trkpt lat="42.77525106728019" lon="10.419138104331276"><ele>28.333333333333332</ele><time>2026-04-25T08:28:37.981Z</time></trkpt><trkpt lat="42.77530615824135" lon="10.4191877130984"><ele>27.166666666666664</ele><time>2026-04-25T08:28:38.981Z</time></trkpt><trkpt lat="42.77535368562329" lon="10.419255203796013"><ele>26.0</ele><time>2026-04-25T08:28:39.981Z</time></trkpt><trkpt lat="42.7753910846971" lon="10.419332869012893"><ele>25.999999999999996</ele><time>2026-04-25T08:28:40.981Z</time></trkpt><trkpt lat="42.775416818349825" lon="10.419439238617072"><ele>26.0</ele><time>2026-04-25T08:28:41.981Z</time></trkpt><trkpt lat="42.77543634291129" lon="10.419543472212498"><ele>26.0</ele><time>2026-04-25T08:28:42.981Z</time></trkpt><trkpt lat="42.77543956153762" lon="10.419653732240823"><ele>26.0</ele><time>2026-04-25T08:28:43.981Z</time></trkpt><trkpt lat="42.77543527106986" lon="10.419755194302924"><ele>25.999999999999996</ele><time>2026-04-25T08:28:44.981Z</time></trkpt><trkpt lat="42.77540088631776" lon="10.419917323721526"><ele>26.0</ele><time>2026-04-25T08:28:46.981Z</time></trkpt><trkpt lat="42.77537342315852" lon="10.420030357791077"><ele>25.6</ele><time>2026-04-25T08:28:47.981Z</time></trkpt><trkpt lat="42.77536570047458" lon="10.420135887331398"><ele>25.200000000000003</ele><time>2026-04-25T08:28:48.981Z</time></trkpt><trkpt lat="42.77536361227922" lon="10.420227212064715"><ele>24.799999999999997</ele><time>2026-04-25T08:28:49.981Z</time></trkpt><trkpt lat="42.77535203730329" lon="10.420323655502237"><ele>24.4</ele><time>2026-04-25T08:28:50.981Z</time></trkpt><trkpt lat="42.775360584754814" lon="10.420485733066192"><ele>24.0</ele><time>2026-04-25T08:28:52.981Z</time></trkpt><trkpt lat="42.775444801845225" lon="10.42059687669407"><ele>23.6</ele><time>2026-04-25T08:28:54.981Z</time></trkpt><trkpt lat="42.775407807665395" lon="10.420726912471654"><ele>23.2</ele><time>2026-04-25T08:28:56.981Z</time></trkpt><trkpt lat="42.7753394294722" lon="10.420816619712118"><ele>22.8</ele><time>2026-04-25T08:28:57.981Z</time></trkpt><trkpt lat="42.77525161048083" lon="10.420881795872257"><ele>22.400000000000002</ele><time>2026-04-25T08:28:58.981Z</time></trkpt><trkpt lat="42.77517832333602" lon="10.42096853452891"><ele>22.0</ele><time>2026-04-25T08:28:59.981Z</time></trkpt><trkpt lat="42.775114719357745" lon="10.421052229077336"><ele>21.0</ele><time>2026-04-25T08:29:00.981Z</time></trkpt><trkpt lat="42.775057388176805" lon="10.421120484623545"><ele>20.0</ele><time>2026-04-25T08:29:01.981Z</time></trkpt><trkpt lat="42.77498975384213" lon="10.421144909348188"><ele>19.0</ele><time>2026-04-25T08:29:02.981Z</time></trkpt><trkpt lat="42.774913313372544" lon="10.421152133684354"><ele>18.0</ele><time>2026-04-25T08:29:03.981Z</time></trkpt><trkpt lat="42.774845847008486" lon="10.421156305633737"><ele>17.0</ele><time>2026-04-25T08:29:04.981Z</time></trkpt><trkpt lat="42.77477365515639" lon="10.421106345511342"><ele>16.0</ele><time>2026-04-25T08:29:05.981Z</time></trkpt><trkpt lat="42.77471210759833" lon="10.42108615826682"><ele>15.0</ele><time>2026-04-25T08:29:06.981Z</time></trkpt><trkpt lat="42.77461123067668" lon="10.421096037993815"><ele>15.0</ele><time>2026-04-25T08:29:08.981Z</time></trkpt><trkpt lat="42.774526172052624" lon="10.421186055880373"><ele>15.0</ele><time>2026-04-25T08:29:10.981Z</time></trkpt><trkpt lat="42.774467172447295" lon="10.421267650111805"><ele>15.0</ele><time>2026-04-25T08:29:11.981Z</time></trkpt><trkpt lat="42.77439713852863" lon="10.421345709660805"><ele>15.0</ele><time>2026-04-25T08:29:12.981Z</time></trkpt><trkpt lat="42.774311503689674" lon="10.421410162421848"><ele>15.0</ele><time>2026-04-25T08:29:13.981Z</time></trkpt><trkpt lat="42.77423479499773" lon="10.421465990521645"><ele>17.4</ele><time>2026-04-25T08:29:14.981Z</time></trkpt><trkpt lat="42.77419652917427" lon="10.421620133219145"><ele>19.8</ele><time>2026-04-25T08:29:16.981Z</time></trkpt><trkpt lat="42.77419523395791" lon="10.421741449294265"><ele>22.200000000000003</ele><time>2026-04-25T08:29:17.981Z</time></trkpt><trkpt lat="42.77417586832715" lon="10.421878053529014"><ele>24.6</ele><time>2026-04-25T08:29:18.981Z</time></trkpt><trkpt lat="42.77413199155591" lon="10.42201661767336"><ele>27.0</ele><time>2026-04-25T08:29:19.981Z</time></trkpt><trkpt lat="42.77409364079929" lon="10.42214012845128"><ele>28.333333333333332</ele><time>2026-04-25T08:29:20.981Z</time></trkpt><trkpt lat="42.774085732126" lon="10.422254902550485"><ele>29.666666666666664</ele><time>2026-04-25T08:29:21.981Z</time></trkpt><trkpt lat="42.77410769507673" lon="10.42233801105245"><ele>31.0</ele><time>2026-04-25T08:29:22.981Z</time></trkpt><trkpt lat="42.77414409108143" lon="10.422430654709245"><ele>32.33333333333333</ele><time>2026-04-25T08:29:23.981Z</time></trkpt><trkpt lat="42.77420366229851" lon="10.422532502919765"><ele>33.666666666666664</ele><time>2026-04-25T08:29:24.981Z</time></trkpt><trkpt lat="42.7742419203809" lon="10.422613953203621"><ele>35.0</ele><time>2026-04-25T08:29:25.981Z</time></trkpt><trkpt lat="42.77428470755626" lon="10.422756049094398"><ele>35.0</ele><time>2026-04-25T08:29:26.981Z</time></trkpt><trkpt lat="42.774327387546876" lon="10.422903500651085"><ele>35.0</ele><time>2026-04-25T08:29:27.981Z</time></trkpt><trkpt lat="42.77437736437489" lon="10.42307264040326"><ele>35.0</ele><time>2026-04-25T08:29:28.981Z</time></trkpt><trkpt lat="42.774421830591876" lon="10.423229094374275"><ele>35.0</ele><time>2026-04-25T08:29:29.981Z</time></trkpt><trkpt lat="42.77446429728545" lon="10.423355245127121"><ele>38.285714285714285</ele><time>2026-04-25T08:29:30.981Z</time></trkpt><trkpt lat="42.77449499426161" lon="10.423465496253266"><ele>41.57142857142857</ele><time>2026-04-25T08:29:31.981Z</time></trkpt><trkpt lat="42.7745264740075" lon="10.42354639099643"><ele>44.85714285714286</ele><time>2026-04-25T08:29:32.981Z</time></trkpt><trkpt lat="42.77454774299442" lon="10.42364987656242"><ele>48.142857142857146</ele><time>2026-04-25T08:29:33.981Z</time></trkpt><trkpt lat="42.77455582129275" lon="10.423735357531728"><ele>51.42857142857143</ele><time>2026-04-25T08:29:34.98Z</time></trkpt><trkpt lat="42.77461869816466" lon="10.423800467705373"><ele>54.71428571428572</ele><time>2026-04-25T08:29:36.98Z</time></trkpt><trkpt lat="42.77466592334756" lon="10.423722318043659"><ele>58.00000000000001</ele><time>2026-04-25T08:29:38.98Z</time></trkpt><trkpt lat="42.774793010199836" lon="10.423615606965026"><ele>58.0</ele><time>2026-04-25T08:29:40.98Z</time></trkpt><trkpt lat="42.77489826640273" lon="10.423549003010015"><ele>58.0</ele><time>2026-04-25T08:29:41.98Z</time></trkpt><trkpt lat="42.774999374789665" lon="10.423474128580615"><ele>58.0</ele><time>2026-04-25T08:29:42.98Z</time></trkpt><trkpt lat="42.77508267419365" lon="10.423420601397638"><ele>58.0</ele><time>2026-04-25T08:29:43.98Z</time></trkpt><trkpt lat="42.77514405887891" lon="10.42338370018217"><ele>58.0</ele><time>2026-04-25T08:29:44.98Z</time></trkpt><trkpt lat="42.775263654913886" lon="10.423318711715195"><ele>62.0</ele><time>2026-04-25T08:29:46.98Z</time></trkpt><trkpt lat="42.775355742085154" lon="10.423272001517924"><ele>66.0</ele><time>2026-04-25T08:29:47.98Z</time></trkpt><trkpt lat="42.77546121188315" lon="10.423222444020666"><ele>70.0</ele><time>2026-04-25T08:29:48.98Z</time></trkpt><trkpt lat="42.77555498129852" lon="10.423172300067186"><ele>74.0</ele><time>2026-04-25T08:29:49.98Z</time></trkpt><trkpt lat="42.7756562869425" lon="10.423117564173964"><ele>78.0</ele><time>2026-04-25T08:29:50.98Z</time></trkpt><trkpt lat="42.775739515863705" lon="10.423068200565272"><ele>78.0</ele><time>2026-04-25T08:29:51.98Z</time></trkpt><trkpt lat="42.77581266939851" lon="10.423034636113787"><ele>78.0</ele><time>2026-04-25T08:29:52.98Z</time></trkpt><trkpt lat="42.77587743235008" lon="10.423019338328762"><ele>78.0</ele><time>2026-04-25T08:29:53.98Z</time></trkpt><trkpt lat="42.77595292878051" lon="10.423000129969761"><ele>78.0</ele><time>2026-04-25T08:29:54.98Z</time></trkpt><trkpt lat="42.77605189086317" lon="10.422982748576413"><ele>78.0</ele><time>2026-04-25T08:29:56.98Z</time></trkpt><trkpt lat="42.77615337350201" lon="10.422950848898935"><ele>78.0</ele><time>2026-04-25T08:29:59.98Z</time></trkpt><trkpt lat="42.776357671119136" lon="10.422902509747807"><ele>79.0</ele><time>2026-04-25T08:30:15.98Z</time></trkpt><trkpt lat="42.77645021191161" lon="10.422903312286802"><ele>80.0</ele><time>2026-04-25T08:30:16.98Z</time></trkpt><trkpt lat="42.77653621246753" lon="10.422917783944861"><ele>81.0</ele><time>2026-04-25T08:30:17.98Z</time></trkpt><trkpt lat="42.77662096337683" lon="10.422950793434522"><ele>82.0</ele><time>2026-04-25T08:30:18.98Z</time></trkpt><trkpt lat="42.77668012139328" lon="10.422981644185374"><ele>83.0</ele><time>2026-04-25T08:30:19.98Z</time></trkpt><trkpt lat="42.77674926770682" lon="10.423020350192584"><ele>84.0</ele><time>2026-04-25T08:30:20.98Z</time></trkpt><trkpt lat="42.776840877524386" lon="10.423064438964179"><ele>83.2</ele><time>2026-04-25T08:30:21.98Z</time></trkpt><trkpt lat="42.77694441805505" lon="10.423115788440464"><ele>82.4</ele><time>2026-04-25T08:30:22.98Z</time></trkpt><trkpt lat="42.77702823847116" lon="10.4231820692493"><ele>81.6</ele><time>2026-04-25T08:30:23.98Z</time></trkpt><trkpt lat="42.777108784497635" lon="10.423264544199265"><ele>80.8</ele><time>2026-04-25T08:30:24.98Z</time></trkpt><trkpt lat="42.77719218991046" lon="10.423371773437362"><ele>80.0</ele><time>2026-04-25T08:30:25.98Z</time></trkpt><trkpt lat="42.77728313795213" lon="10.423490805517925"><ele>80.0</ele><time>2026-04-25T08:30:26.98Z</time></trkpt><trkpt lat="42.77737000309718" lon="10.423581842612792"><ele>80.0</ele><time>2026-04-25T08:30:27.98Z</time></trkpt><trkpt lat="42.77744592030904" lon="10.423687662362829"><ele>80.0</ele><time>2026-04-25T08:30:28.98Z</time></trkpt><trkpt lat="42.77752880326692" lon="10.423737291842293"><ele>80.0</ele><time>2026-04-25T08:30:29.98Z</time></trkpt><trkpt lat="42.77763806895128" lon="10.423770363120937"><ele>80.0</ele><time>2026-04-25T08:30:31.979Z</time></trkpt><trkpt lat="42.77771099907753" lon="10.423688321498567"><ele>82.6</ele><time>2026-04-25T08:30:33.979Z</time></trkpt><trkpt lat="42.777794386399336" lon="10.42357429379559"><ele>85.2</ele><time>2026-04-25T08:30:34.979Z</time></trkpt><trkpt lat="42.777885937814666" lon="10.423465739663524"><ele>87.80000000000001</ele><time>2026-04-25T08:30:35.979Z</time></trkpt><trkpt lat="42.777966242929736" lon="10.42341434584797"><ele>90.4</ele><time>2026-04-25T08:30:36.979Z</time></trkpt><trkpt lat="42.77805695425394" lon="10.423381866623876"><ele>93.0</ele><time>2026-04-25T08:30:37.979Z</time></trkpt><trkpt lat="42.778142381545635" lon="10.423371337713771"><ele>93.0</ele><time>2026-04-25T08:30:38.979Z</time></trkpt><trkpt lat="42.77826357618321" lon="10.423362290138853"><ele>93.0</ele><time>2026-04-25T08:30:39.979Z</time></trkpt><trkpt lat="42.778387026081475" lon="10.42334905537055"><ele>93.0</ele><time>2026-04-25T08:30:40.979Z</time></trkpt><trkpt lat="42.77850526076641" lon="10.423341762686809"><ele>93.0</ele><time>2026-04-25T08:30:41.979Z</time></trkpt><trkpt lat="42.778587319460435" lon="10.423322450967744"><ele>93.0</ele><time>2026-04-25T08:30:42.979Z</time></trkpt><trkpt lat="42.778690924549956" lon="10.423249807718623"><ele>94.60000000000001</ele><time>2026-04-25T08:30:43.979Z</time></trkpt><trkpt lat="42.77879275502105" lon="10.423177440715511"><ele>96.2</ele><time>2026-04-25T08:30:44.979Z</time></trkpt><trkpt lat="42.77889082512594" lon="10.423127515952796"><ele>97.8</ele><time>2026-04-25T08:30:45.979Z</time></trkpt><trkpt lat="42.77897482476079" lon="10.423118930801802"><ele>99.4</ele><time>2026-04-25T08:30:46.979Z</time></trkpt><trkpt lat="42.77906707209856" lon="10.423138639074987"><ele>101.0</ele><time>2026-04-25T08:30:47.979Z</time></trkpt><trkpt lat="42.77916498751161" lon="10.423186834321239"><ele>101.0</ele><time>2026-04-25T08:30:48.979Z</time></trkpt><trkpt lat="42.7792699937219" lon="10.423254594285247"><ele>101.0</ele><time>2026-04-25T08:30:49.979Z</time></trkpt><trkpt lat="42.779371559893725" lon="10.423327155584577"><ele>101.0</ele><time>2026-04-25T08:30:50.979Z</time></trkpt><trkpt lat="42.779472275327244" lon="10.423408684144754"><ele>101.0</ele><time>2026-04-25T08:30:51.979Z</time></trkpt><trkpt lat="42.779582741916435" lon="10.42345123815697"><ele>99.33333333333333</ele><time>2026-04-25T08:30:52.979Z</time></trkpt><trkpt lat="42.77970120529538" lon="10.423488979834568"><ele>97.66666666666666</ele><time>2026-04-25T08:30:53.979Z</time></trkpt><trkpt lat="42.77985192383308" lon="10.423558624938636"><ele>96.0</ele><time>2026-04-25T08:30:54.979Z</time></trkpt><trkpt lat="42.78001987585232" lon="10.423653211782076"><ele>96.0</ele><time>2026-04-25T08:30:55.979Z</time></trkpt><trkpt lat="42.78018159246047" lon="10.423753876880852"><ele>96.0</ele><time>2026-04-25T08:30:56.979Z</time></trkpt><trkpt lat="42.7803042973089" lon="10.423834040419738"><ele>96.0</ele><time>2026-04-25T08:30:57.979Z</time></trkpt><trkpt lat="42.78041383293591" lon="10.423885886011426"><ele>96.0</ele><time>2026-04-25T08:30:58.979Z</time></trkpt><trkpt lat="42.780518616633174" lon="10.423899093421094"><ele>101.0</ele><time>2026-04-25T08:30:59.979Z</time></trkpt><trkpt lat="42.78063261546932" lon="10.423923714872055"><ele>106.0</ele><time>2026-04-25T08:31:00.979Z</time></trkpt><trkpt lat="42.780739785773264" lon="10.423944826166561"><ele>111.0</ele><time>2026-04-25T08:31:01.979Z</time></trkpt><trkpt lat="42.780847442333666" lon="10.423934610739625"><ele>116.0</ele><time>2026-04-25T08:31:02.979Z</time></trkpt><trkpt lat="42.78095577300015" lon="10.423945921356905"><ele>121.0</ele><time>2026-04-25T08:31:03.979Z</time></trkpt><trkpt lat="42.78108161899455" lon="10.423937174598649"><ele>123.19999999999999</ele><time>2026-04-25T08:31:04.979Z</time></trkpt><trkpt lat="42.78121218154322" lon="10.423907945068407"><ele>125.39999999999999</ele><time>2026-04-25T08:31:05.979Z</time></trkpt><trkpt lat="42.78132975949726" lon="10.423894996307936"><ele>127.6</ele><time>2026-04-25T08:31:06.979Z</time></trkpt><trkpt lat="42.78142991868943" lon="10.423878000330388"><ele>129.79999999999998</ele><time>2026-04-25T08:31:07.979Z</time></trkpt><trkpt lat="42.78151489024239" lon="10.423858353514403"><ele>132.0</ele><time>2026-04-25T08:31:08.979Z</time></trkpt><trkpt lat="42.781585403186426" lon="10.42381863616399"><ele>131.83333333333334</ele><time>2026-04-25T08:31:09.979Z</time></trkpt><trkpt lat="42.78167575937352" lon="10.423751189066959"><ele>131.66666666666666</ele><time>2026-04-25T08:31:11.979Z</time></trkpt><trkpt lat="42.78172793564393" lon="10.42367736326601"><ele>131.5</ele><time>2026-04-25T08:31:13.979Z</time></trkpt><trkpt lat="42.781783806285404" lon="10.423637260044147"><ele>131.33333333333331</ele><time>2026-04-25T08:31:16.998Z</time></trkpt><trkpt lat="42.7818690151791" lon="10.423657951549435"><ele>131.16666666666666</ele><time>2026-04-25T08:31:50.997Z</time></trkpt><trkpt lat="42.78190546488253" lon="10.423539889420676"><ele>131.0</ele><time>2026-04-25T08:31:53.997Z</time></trkpt><trkpt lat="42.781959779469744" lon="10.42347088880643"><ele>135.66666666666666</ele><time>2026-04-25T08:31:55.997Z</time></trkpt><trkpt lat="42.782011470202995" lon="10.423415085440631"><ele>140.33333333333331</ele><time>2026-04-25T08:31:57.997Z</time></trkpt><trkpt lat="42.78207743968132" lon="10.423355274052454"><ele>145.0</ele><time>2026-04-25T08:31:59.997Z</time></trkpt><trkpt lat="42.78215519296818" lon="10.423295827874169"><ele>149.66666666666666</ele><time>2026-04-25T08:32:02.999Z</time></trkpt><trkpt lat="42.78223598624266" lon="10.423250299966869"><ele>154.33333333333334</ele><time>2026-04-25T08:32:04.999Z</time></trkpt><trkpt lat="42.782296249180405" lon="10.423223878979599"><ele>159.0</ele><time>2026-04-25T08:32:07Z</time></trkpt><trkpt lat="42.78235860465684" lon="10.423194036525192"><ele>159.0</ele><time>2026-04-25T08:32:08.999Z</time></trkpt><trkpt lat="42.782419346018465" lon="10.423159183697404"><ele>159.0</ele><time>2026-04-25T08:32:09.999Z</time></trkpt><trkpt lat="42.78252394530391" lon="10.42311153803802"><ele>159.0</ele><time>2026-04-25T08:32:11.999Z</time></trkpt><trkpt lat="42.782636349899676" lon="10.423063153177361"><ele>159.0</ele><time>2026-04-25T08:32:14Z</time></trkpt><trkpt lat="42.78270388741959" lon="10.423033115784737"><ele>159.0</ele><time>2026-04-25T08:32:16Z</time></trkpt><trkpt lat="42.78282870206612" lon="10.423016591115093"><ele>163.33333333333334</ele><time>2026-04-25T08:32:19.999Z</time></trkpt><trkpt lat="42.78284069470249" lon="10.42310256729982"><ele>167.66666666666666</ele><time>2026-04-25T08:32:22.999Z</time></trkpt><trkpt lat="42.782866975670665" lon="10.423194433336613"><ele>172.0</ele><time>2026-04-25T08:32:34.999Z</time></trkpt><trkpt lat="42.78290844930076" lon="10.42325953923807"><ele>176.33333333333331</ele><time>2026-04-25T08:33:00.999Z</time></trkpt><trkpt lat="42.78293312876807" lon="10.42336272698252"><ele>180.66666666666666</ele><time>2026-04-25T08:33:03.999Z</time></trkpt><trkpt lat="42.78297892322479" lon="10.423468816279579"><ele>185.0</ele><time>2026-04-25T08:33:05.999Z</time></trkpt><trkpt lat="42.783040944959545" lon="10.423608623382817"><ele>185.0</ele><time>2026-04-25T08:33:07.999Z</time></trkpt><trkpt lat="42.783101088227596" lon="10.42370135377867"><ele>185.0</ele><time>2026-04-25T08:33:09.999Z</time></trkpt><trkpt lat="42.78314355368748" lon="10.423809086820889"><ele>185.0</ele><time>2026-04-25T08:33:11.999Z</time></trkpt><trkpt lat="42.78315630663841" lon="10.423908557924744"><ele>185.0</ele><time>2026-04-25T08:33:13.998Z</time></trkpt><trkpt lat="42.783155656699826" lon="10.42404130039108"><ele>185.0</ele><time>2026-04-25T08:33:14.998Z</time></trkpt><trkpt lat="42.78320505530734" lon="10.424191576499277"><ele>183.6</ele><time>2026-04-25T08:33:16.998Z</time></trkpt><trkpt lat="42.78327353179585" lon="10.424311186182154"><ele>182.2</ele><time>2026-04-25T08:33:18.998Z</time></trkpt><trkpt lat="42.783346073475506" lon="10.424420522793502"><ele>180.8</ele><time>2026-04-25T08:33:20.998Z</time></trkpt><trkpt lat="42.78339870198908" lon="10.424470375011198"><ele>179.4</ele><time>2026-04-25T08:33:21.998Z</time></trkpt><trkpt lat="42.783493752379485" lon="10.42452490589139"><ele>178.0</ele><time>2026-04-25T08:33:23.998Z</time></trkpt><trkpt lat="42.78353470023604" lon="10.424690796429408"><ele>178.0</ele><time>2026-04-25T08:33:25.998Z</time></trkpt><trkpt lat="42.783588482487524" lon="10.424784833399677"><ele>178.0</ele><time>2026-04-25T08:33:26.998Z</time></trkpt><trkpt lat="42.7836051149827" lon="10.4248927872036"><ele>178.0</ele><time>2026-04-25T08:33:27.998Z</time></trkpt><trkpt lat="42.78361703547473" lon="10.425051740309932"><ele>178.0</ele><time>2026-04-25T08:33:28.998Z</time></trkpt><trkpt lat="42.78364340085859" lon="10.425228944010044"><ele>178.0</ele><time>2026-04-25T08:33:29.998Z</time></trkpt><trkpt lat="42.78365734708664" lon="10.425381126337312"><ele>174.0</ele><time>2026-04-25T08:33:30.998Z</time></trkpt><trkpt lat="42.78367873267486" lon="10.425511118171784"><ele>170.0</ele><time>2026-04-25T08:33:31.998Z</time></trkpt><trkpt lat="42.78370255555554" lon="10.425602195560444"><ele>166.0</ele><time>2026-04-25T08:33:32.998Z</time></trkpt><trkpt lat="42.78373392671649" lon="10.425712383672979"><ele>162.0</ele><time>2026-04-25T08:33:34.998Z</time></trkpt><trkpt lat="42.78383549644536" lon="10.425829416548424"><ele>158.0</ele><time>2026-04-25T08:33:36.998Z</time></trkpt><trkpt lat="42.78394733886846" lon="10.425900248373214"><ele>158.0</ele><time>2026-04-25T08:33:38.998Z</time></trkpt><trkpt lat="42.78401416332902" lon="10.425925648210914"><ele>158.0</ele><time>2026-04-25T08:33:39.998Z</time></trkpt><trkpt lat="42.7843008168284" lon="10.425881911408348"><ele>158.0</ele><time>2026-04-25T08:33:42.998Z</time></trkpt><trkpt lat="42.78445340968516" lon="10.425845251550866"><ele>158.75</ele><time>2026-04-25T08:33:43.998Z</time></trkpt><trkpt lat="42.78458593897298" lon="10.425801613106007"><ele>159.5</ele><time>2026-04-25T08:33:44.998Z</time></trkpt><trkpt lat="42.78470408087351" lon="10.425753742609741"><ele>160.25</ele><time>2026-04-25T08:33:45.998Z</time></trkpt><trkpt lat="42.78480632656829" lon="10.425701009279937"><ele>161.0</ele><time>2026-04-25T08:33:46.998Z</time></trkpt><trkpt lat="42.78488754245009" lon="10.42564840216301"><ele>161.0</ele><time>2026-04-25T08:33:47.998Z</time></trkpt><trkpt lat="42.78496555370859" lon="10.42560666989052"><ele>161.0</ele><time>2026-04-25T08:33:48.998Z</time></trkpt><trkpt lat="42.785021256421" lon="10.425558792606639"><ele>161.0</ele><time>2026-04-25T08:33:49.998Z</time></trkpt><trkpt lat="42.7851163927692" lon="10.42545491767545"><ele>161.0</ele><time>2026-04-25T08:33:51.998Z</time></trkpt><trkpt lat="42.7851954504189" lon="10.425381811704407"><ele>161.0</ele><time>2026-04-25T08:33:53.998Z</time></trkpt><trkpt lat="42.785290955274476" lon="10.425489334922847"><ele>166.4</ele><time>2026-04-25T08:33:55.998Z</time></trkpt><trkpt lat="42.78533390056101" lon="10.425617236356375"><ele>171.8</ele><time>2026-04-25T08:33:56.998Z</time></trkpt><trkpt lat="42.785370487661346" lon="10.425776268955168"><ele>177.20000000000002</ele><time>2026-04-25T08:33:57.998Z</time></trkpt><trkpt lat="42.78539121583663" lon="10.425903158853874"><ele>182.60000000000002</ele><time>2026-04-25T08:33:58.998Z</time></trkpt><trkpt lat="42.785425411001626" lon="10.426037217714441"><ele>188.0</ele><time>2026-04-25T08:33:59.998Z</time></trkpt><trkpt lat="42.78546657838672" lon="10.426175215725674"><ele>185.60000000000002</ele><time>2026-04-25T08:34:00.998Z</time></trkpt><trkpt lat="42.78550772553422" lon="10.426324407123252"><ele>183.20000000000002</ele><time>2026-04-25T08:34:01.998Z</time></trkpt><trkpt lat="42.78552478231005" lon="10.426501746574914"><ele>180.8</ele><time>2026-04-25T08:34:02.998Z</time></trkpt><trkpt lat="42.78553835987258" lon="10.42662722494111"><ele>178.4</ele><time>2026-04-25T08:34:03.998Z</time></trkpt><trkpt lat="42.78555944388396" lon="10.426753288402502"><ele>176.0</ele><time>2026-04-25T08:34:04.998Z</time></trkpt><trkpt lat="42.78557792484612" lon="10.426857487201726"><ele>176.0</ele><time>2026-04-25T08:34:05.998Z</time></trkpt><trkpt lat="42.785597799965984" lon="10.426941496789933"><ele>176.0</ele><time>2026-04-25T08:34:06.999Z</time></trkpt><trkpt lat="42.785645415663765" lon="10.427058488419991"><ele>176.0</ele><time>2026-04-25T08:34:08.999Z</time></trkpt><trkpt lat="42.78569551170004" lon="10.427113201753356"><ele>176.0</ele><time>2026-04-25T08:34:16Z</time></trkpt><trkpt lat="42.78573935026748" lon="10.427206212872791"><ele>176.0</ele><time>2026-04-25T08:34:18.999Z</time></trkpt><trkpt lat="42.785721748310394" lon="10.427309471931933"><ele>176.0</ele><time>2026-04-25T08:34:21.999Z</time></trkpt><trkpt lat="42.78570947549004" lon="10.427420199575641"><ele>173.66666666666666</ele><time>2026-04-25T08:34:34.999Z</time></trkpt><trkpt lat="42.78567909921371" lon="10.42752373160867"><ele>171.33333333333331</ele><time>2026-04-25T08:34:39.999Z</time></trkpt><trkpt lat="42.78565144353474" lon="10.427606214013595"><ele>169.0</ele><time>2026-04-25T08:34:41.999Z</time></trkpt><trkpt lat="42.785611206479985" lon="10.427718253242015"><ele>166.66666666666666</ele><time>2026-04-25T08:34:43.999Z</time></trkpt><trkpt lat="42.78557774370113" lon="10.427857291096121"><ele>164.33333333333334</ele><time>2026-04-25T08:34:45.999Z</time></trkpt><trkpt lat="42.78553777003258" lon="10.427968390657801"><ele>162.0</ele><time>2026-04-25T08:34:47.999Z</time></trkpt><trkpt lat="42.785498723725034" lon="10.428089153472525"><ele>156.79999999999998</ele><time>2026-04-25T08:34:49.999Z</time></trkpt><trkpt lat="42.785439743092006" lon="10.428209513791233"><ele>151.6</ele><time>2026-04-25T08:34:51.998Z</time></trkpt><trkpt lat="42.785372854814305" lon="10.42833287327988"><ele>146.39999999999998</ele><time>2026-04-25T08:34:53.998Z</time></trkpt><trkpt lat="42.78535265368053" lon="10.42843352411155"><ele>141.2</ele><time>2026-04-25T08:34:55.998Z</time></trkpt><trkpt lat="42.78530140256941" lon="10.428514402725563"><ele>136.0</ele><time>2026-04-25T08:34:57.998Z</time></trkpt><trkpt lat="42.78524316247597" lon="10.428608805091807"><ele>136.0</ele><time>2026-04-25T08:34:59.998Z</time></trkpt><trkpt lat="42.78521046239563" lon="10.428723508166117"><ele>136.0</ele><time>2026-04-25T08:35:01.998Z</time></trkpt><trkpt lat="42.78521150628003" lon="10.428822089861693"><ele>136.0</ele><time>2026-04-25T08:35:03.998Z</time></trkpt><trkpt lat="42.78521600514721" lon="10.42891463694127"><ele>136.0</ele><time>2026-04-25T08:35:05.998Z</time></trkpt><trkpt lat="42.78524239755754" lon="10.429006879400932"><ele>136.0</ele><time>2026-04-25T08:35:08.998Z</time></trkpt><trkpt lat="42.78533824921631" lon="10.428994319569254"><ele>136.0</ele><time>2026-04-25T08:35:12.998Z</time></trkpt><trkpt lat="42.78540591230934" lon="10.428947340634679"><ele>131.83333333333334</ele><time>2026-04-25T08:35:14.998Z</time></trkpt><trkpt lat="42.7854739536398" lon="10.428911155116612"><ele>127.66666666666667</ele><time>2026-04-25T08:35:17.998Z</time></trkpt><trkpt lat="42.78553980441608" lon="10.428944552903685"><ele>123.5</ele><time>2026-04-25T08:35:22.998Z</time></trkpt><trkpt lat="42.78559733374499" lon="10.428994887328233"><ele>119.33333333333334</ele><time>2026-04-25T08:35:30.998Z</time></trkpt><trkpt lat="42.785632785851035" lon="10.42911432126907"><ele>115.16666666666667</ele><time>2026-04-25T08:35:33.998Z</time></trkpt><trkpt lat="42.78562179101572" lon="10.429268665217796"><ele>111.0</ele><time>2026-04-25T08:35:35.998Z</time></trkpt><trkpt lat="42.785617258080855" lon="10.42936198201021"><ele>111.0</ele><time>2026-04-25T08:35:36.998Z</time></trkpt><trkpt lat="42.78560915598889" lon="10.42945432133557"><ele>111.0</ele><time>2026-04-25T08:35:39.998Z</time></trkpt><trkpt lat="42.78565201663739" lon="10.429520652610474"><ele>111.0</ele><time>2026-04-25T08:35:54.997Z</time></trkpt><trkpt lat="42.78568452117572" lon="10.429597047092942"><ele>111.0</ele><time>2026-04-25T08:37:50.997Z</time></trkpt><trkpt lat="42.78582117691768" lon="10.429598579623685"><ele>111.0</ele><time>2026-04-25T08:37:55.997Z</time></trkpt><trkpt lat="42.7859392706692" lon="10.42965283769615"><ele>108.6</ele><time>2026-04-25T08:37:57.997Z</time></trkpt><trkpt lat="42.78602162723234" lon="10.429762792979366"><ele>106.19999999999999</ele><time>2026-04-25T08:37:59.997Z</time></trkpt><trkpt lat="42.78605806614845" lon="10.429844956119283"><ele>103.80000000000001</ele><time>2026-04-25T08:38:00.997Z</time></trkpt><trkpt lat="42.78608542892123" lon="10.429964873215683"><ele>101.4</ele><time>2026-04-25T08:38:01.997Z</time></trkpt><trkpt lat="42.78609193068785" lon="10.430081154511187"><ele>99.0</ele><time>2026-04-25T08:38:02.997Z</time></trkpt><trkpt lat="42.78612762089055" lon="10.430197426472276"><ele>99.0</ele><time>2026-04-25T08:38:03.997Z</time></trkpt><trkpt lat="42.78619679449233" lon="10.430305216643777"><ele>99.0</ele><time>2026-04-25T08:38:04.997Z</time></trkpt><trkpt lat="42.78626527056433" lon="10.430375434205382"><ele>99.0</ele><time>2026-04-25T08:38:05.997Z</time></trkpt><trkpt lat="42.78632218834726" lon="10.430443537702919"><ele>99.0</ele><time>2026-04-25T08:38:06.997Z</time></trkpt><trkpt lat="42.78637921930178" lon="10.430499717757211"><ele>99.0</ele><time>2026-04-25T08:38:07.997Z</time></trkpt><trkpt lat="42.78647693259955" lon="10.430479066352943"><ele>99.0</ele><time>2026-04-25T08:38:09.997Z</time></trkpt><trkpt lat="42.78653452245264" lon="10.430423335081729"><ele>99.0</ele><time>2026-04-25T08:38:10.997Z</time></trkpt><trkpt lat="42.78658361265129" lon="10.430358196630872"><ele>99.0</ele><time>2026-04-25T08:38:11.997Z</time></trkpt><trkpt lat="42.78668607106823" lon="10.430271016403434"><ele>99.0</ele><time>2026-04-25T08:38:13.997Z</time></trkpt><trkpt lat="42.786768486304226" lon="10.430256520533124"><ele>99.0</ele><time>2026-04-25T08:38:15.997Z</time></trkpt><trkpt lat="42.786813687997864" lon="10.430195559333914"><ele>99.0</ele><time>2026-04-25T08:38:17.997Z</time></trkpt><trkpt lat="42.786891933755754" lon="10.430121375815974"><ele>99.0</ele><time>2026-04-25T08:38:19.999Z</time></trkpt><trkpt lat="42.787011487618614" lon="10.430056576818485"><ele>97.33333333333333</ele><time>2026-04-25T08:38:21.999Z</time></trkpt><trkpt lat="42.78709109692806" lon="10.430043517932836"><ele>95.66666666666667</ele><time>2026-04-25T08:38:22.998Z</time></trkpt><trkpt lat="42.787170476242125" lon="10.430014587974108"><ele>94.0</ele><time>2026-04-25T08:38:23.998Z</time></trkpt><trkpt lat="42.78723982828782" lon="10.429992124019195"><ele>92.33333333333334</ele><time>2026-04-25T08:38:24.999Z</time></trkpt><trkpt lat="42.78731465365178" lon="10.429922882833866"><ele>90.66666666666667</ele><time>2026-04-25T08:38:25.999Z</time></trkpt><trkpt lat="42.787391482069566" lon="10.42985554211158"><ele>89.0</ele><time>2026-04-25T08:38:26.998Z</time></trkpt><trkpt lat="42.78747073189195" lon="10.429784736874241"><ele>89.0</ele><time>2026-04-25T08:38:27.999Z</time></trkpt><trkpt lat="42.787540029201566" lon="10.42971170056571"><ele>89.0</ele><time>2026-04-25T08:38:28.999Z</time></trkpt><trkpt lat="42.787610199285325" lon="10.42963854579336"><ele>89.0</ele><time>2026-04-25T08:38:29.999Z</time></trkpt><trkpt lat="42.78767882088865" lon="10.429587396776563"><ele>89.0</ele><time>2026-04-25T08:38:30.999Z</time></trkpt><trkpt lat="42.7877716030461" lon="10.429574632427807"><ele>89.0</ele><time>2026-04-25T08:38:31.999Z</time></trkpt><trkpt lat="42.78787593024713" lon="10.42957459900963"><ele>91.80000000000001</ele><time>2026-04-25T08:38:32.999Z</time></trkpt><trkpt lat="42.7879718118569" lon="10.429568580792708"><ele>94.60000000000001</ele><time>2026-04-25T08:38:33.999Z</time></trkpt><trkpt lat="42.78804738231971" lon="10.429546296481096"><ele>97.4</ele><time>2026-04-25T08:38:34.999Z</time></trkpt><trkpt lat="42.788133420307226" lon="10.429497403035004"><ele>100.2</ele><time>2026-04-25T08:38:35.999Z</time></trkpt><trkpt lat="42.788239053456365" lon="10.429438264031594"><ele>103.0</ele><time>2026-04-25T08:38:36.999Z</time></trkpt><trkpt lat="42.78835483245862" lon="10.429359175485214"><ele>103.00000000000001</ele><time>2026-04-25T08:38:37.999Z</time></trkpt><trkpt lat="42.78845302910696" lon="10.429308232086363"><ele>103.0</ele><time>2026-04-25T08:38:38.999Z</time></trkpt><trkpt lat="42.78852903705118" lon="10.429280801395242"><ele>103.0</ele><time>2026-04-25T08:38:39.999Z</time></trkpt><trkpt lat="42.788599823171495" lon="10.429283415869897"><ele>103.0</ele><time>2026-04-25T08:38:40.999Z</time></trkpt><trkpt lat="42.78868107493909" lon="10.429325399423979"><ele>103.00000000000001</ele><time>2026-04-25T08:38:41.999Z</time></trkpt><trkpt lat="42.78877662245428" lon="10.429374965733563"><ele>103.0</ele><time>2026-04-25T08:38:42.999Z</time></trkpt><trkpt lat="42.78886689055662" lon="10.429434148340606"><ele>103.16666666666667</ele><time>2026-04-25T08:38:43.999Z</time></trkpt><trkpt lat="42.788950249391746" lon="10.429526397824997"><ele>103.33333333333334</ele><time>2026-04-25T08:38:44.999Z</time></trkpt><trkpt lat="42.789016856322554" lon="10.429591554661314"><ele>103.5</ele><time>2026-04-25T08:38:45.999Z</time></trkpt><trkpt lat="42.78907922814041" lon="10.429655518165335"><ele>103.66666666666666</ele><time>2026-04-25T08:38:46.999Z</time></trkpt><trkpt lat="42.78912844817978" lon="10.429711074998394"><ele>103.83333333333333</ele><time>2026-04-25T08:38:47.999Z</time></trkpt><trkpt lat="42.78918186858099" lon="10.42978713276956"><ele>104.0</ele><time>2026-04-25T08:38:49.999Z</time></trkpt><trkpt lat="42.789240339786474" lon="10.429834675331485"><ele>103.99999999999999</ele><time>2026-04-25T08:39:29.998Z</time></trkpt><trkpt lat="42.78930056142206" lon="10.429786893947352"><ele>104.0</ele><time>2026-04-25T08:39:33.998Z</time></trkpt><trkpt lat="42.78931230652805" lon="10.429690992964828"><ele>104.0</ele><time>2026-04-25T08:39:35.998Z</time></trkpt><trkpt lat="42.78929651980995" lon="10.429603058077122"><ele>104.0</ele><time>2026-04-25T08:39:38.998Z</time></trkpt><trkpt lat="42.78931736292539" lon="10.429454940625961"><ele>103.99999999999999</ele><time>2026-04-25T08:39:40.998Z</time></trkpt><trkpt lat="42.789330012327376" lon="10.429336813148266"><ele>104.0</ele><time>2026-04-25T08:39:41.998Z</time></trkpt><trkpt lat="42.789346431826296" lon="10.429219592580814"><ele>104.99999999999999</ele><time>2026-04-25T08:39:42.998Z</time></trkpt><trkpt lat="42.78938111998114" lon="10.429094487783354"><ele>106.0</ele><time>2026-04-25T08:39:44.998Z</time></trkpt><trkpt lat="42.789353368512074" lon="10.428978612859359"><ele>107.0</ele><time>2026-04-25T08:39:46.998Z</time></trkpt><trkpt lat="42.78935975625809" lon="10.428847404098065"><ele>108.0</ele><time>2026-04-25T08:39:48.998Z</time></trkpt><trkpt lat="42.78936255717988" lon="10.428758847862023"><ele>108.99999999999999</ele><time>2026-04-25T08:39:50.997Z</time></trkpt><trkpt lat="42.78936032715059" lon="10.428669054856668"><ele>110.0</ele><time>2026-04-25T08:39:51.997Z</time></trkpt><trkpt lat="42.78936925942306" lon="10.42851263914667"><ele>109.99999999999999</ele><time>2026-04-25T08:39:53.997Z</time></trkpt><trkpt lat="42.78938152454512" lon="10.428411820001989"><ele>110.0</ele><time>2026-04-25T08:39:54.997Z</time></trkpt><trkpt lat="42.78940771623851" lon="10.428330414058493"><ele>110.0</ele><time>2026-04-25T08:39:55.997Z</time></trkpt><trkpt lat="42.789412782701085" lon="10.428217765100918"><ele>110.0</ele><time>2026-04-25T08:39:57.997Z</time></trkpt><trkpt lat="42.78941336323867" lon="10.42811875399649"><ele>109.99999999999999</ele><time>2026-04-25T08:39:59.997Z</time></trkpt><trkpt lat="42.78944064141599" lon="10.428006872167114"><ele>110.0</ele><time>2026-04-25T08:40:01.997Z</time></trkpt><trkpt lat="42.78944889479751" lon="10.427882864961516"><ele>111.99999999999999</ele><time>2026-04-25T08:40:03.997Z</time></trkpt><trkpt lat="42.789458443851636" lon="10.427775306010187"><ele>114.0</ele><time>2026-04-25T08:40:05.997Z</time></trkpt><trkpt lat="42.78946765002502" lon="10.427686260483748"><ele>116.0</ele><time>2026-04-25T08:40:07.997Z</time></trkpt><trkpt lat="42.78945145483965" lon="10.427571187635"><ele>118.0</ele><time>2026-04-25T08:40:10.997Z</time></trkpt><trkpt lat="42.789458782762885" lon="10.427471874692621"><ele>119.99999999999999</ele><time>2026-04-25T08:40:13.997Z</time></trkpt><trkpt lat="42.789465354721" lon="10.427365439637711"><ele>122.0</ele><time>2026-04-25T08:40:17.997Z</time></trkpt><trkpt lat="42.78936108771333" lon="10.427344282796508"><ele>126.0</ele><time>2026-04-25T08:40:27.999Z</time></trkpt><trkpt lat="42.78928457227989" lon="10.427400810578002"><ele>130.0</ele><time>2026-04-25T08:40:30.999Z</time></trkpt><trkpt lat="42.789216617275926" lon="10.427411604906224"><ele>134.0</ele><time>2026-04-25T08:40:33.998Z</time></trkpt><trkpt lat="42.78910858349331" lon="10.427329752196608"><ele>138.0</ele><time>2026-04-25T08:40:35.999Z</time></trkpt><trkpt lat="42.789044290562344" lon="10.42731557585969"><ele>142.0</ele><time>2026-04-25T08:40:37.998Z</time></trkpt><trkpt lat="42.788951382914206" lon="10.427242035971531"><ele>142.0</ele><time>2026-04-25T08:40:39.998Z</time></trkpt><trkpt lat="42.788896207355315" lon="10.427150811015839"><ele>142.0</ele><time>2026-04-25T08:40:41.998Z</time></trkpt><trkpt lat="42.78882527061106" lon="10.427099814918769"><ele>142.0</ele><time>2026-04-25T08:40:43.998Z</time></trkpt><trkpt lat="42.78875320400948" lon="10.426983902647617"><ele>142.0</ele><time>2026-04-25T08:40:46.998Z</time></trkpt><trkpt lat="42.78871785268129" lon="10.426897288286959"><ele>142.0</ele><time>2026-04-25T08:40:48.998Z</time></trkpt><trkpt lat="42.78867539310469" lon="10.426805790724229"><ele>142.0</ele><time>2026-04-25T08:40:51.998Z</time></trkpt><trkpt lat="42.78865519504335" lon="10.42671378213265"><ele>143.4</ele><time>2026-04-25T08:40:54.998Z</time></trkpt><trkpt lat="42.78859766680561" lon="10.426669487558552"><ele>144.79999999999998</ele><time>2026-04-25T08:40:56.998Z</time></trkpt><trkpt lat="42.788534947364845" lon="10.426678484297444"><ele>146.2</ele><time>2026-04-25T08:40:59.998Z</time></trkpt><trkpt lat="42.78844175138556" lon="10.426687694671195"><ele>147.6</ele><time>2026-04-25T08:41:01.998Z</time></trkpt><trkpt lat="42.78836020002947" lon="10.426788451228706"><ele>149.0</ele><time>2026-04-25T08:41:03.998Z</time></trkpt><trkpt lat="42.78824153188399" lon="10.426865869258876"><ele>152.6</ele><time>2026-04-25T08:41:05.998Z</time></trkpt><trkpt lat="42.78818704229298" lon="10.426915997675096"><ele>156.2</ele><time>2026-04-25T08:41:06.998Z</time></trkpt><trkpt lat="42.78809159783341" lon="10.426967178747663"><ele>159.79999999999998</ele><time>2026-04-25T08:41:07.998Z</time></trkpt><trkpt lat="42.787964573344844" lon="10.427031267325738"><ele>163.4</ele><time>2026-04-25T08:41:08.998Z</time></trkpt><trkpt lat="42.787866315498306" lon="10.42710518509404"><ele>167.0</ele><time>2026-04-25T08:41:09.998Z</time></trkpt><trkpt lat="42.78780288510661" lon="10.427139066957135"><ele>167.5</ele><time>2026-04-25T08:41:10.997Z</time></trkpt><trkpt lat="42.78773036926871" lon="10.427176030228797"><ele>168.0</ele><time>2026-04-25T08:41:11.997Z</time></trkpt><trkpt lat="42.787631287413156" lon="10.427233892945623"><ele>168.5</ele><time>2026-04-25T08:41:13.997Z</time></trkpt><trkpt lat="42.7875500863327" lon="10.427247998336552"><ele>169.0</ele><time>2026-04-25T08:41:14.997Z</time></trkpt><trkpt lat="42.787471047096396" lon="10.42723565339717"><ele>169.5</ele><time>2026-04-25T08:41:15.997Z</time></trkpt><trkpt lat="42.787388284835" lon="10.4272214181705"><ele>170.0</ele><time>2026-04-25T08:41:18.997Z</time></trkpt><trkpt lat="42.78731387555665" lon="10.427220669064571"><ele>170.0</ele><time>2026-04-25T08:41:20.997Z</time></trkpt><trkpt lat="42.78725203247713" lon="10.427196397388382"><ele>170.0</ele><time>2026-04-25T08:41:22.997Z</time></trkpt><trkpt lat="42.7871133057526" lon="10.427178704702758"><ele>170.0</ele><time>2026-04-25T08:42:12.996Z</time></trkpt><trkpt lat="42.787021147729824" lon="10.427185064471967"><ele>170.0</ele><time>2026-04-25T08:44:50.999Z</time></trkpt><trkpt lat="42.78692171271269" lon="10.427107446043832"><ele>170.0</ele><time>2026-04-25T08:44:52.999Z</time></trkpt><trkpt lat="42.78685840613766" lon="10.427049210326429"><ele>173.33333333333331</ele><time>2026-04-25T08:44:53.999Z</time></trkpt><trkpt lat="42.78679859372558" lon="10.4270016939336"><ele>176.66666666666666</ele><time>2026-04-25T08:44:54.999Z</time></trkpt><trkpt lat="42.78674223954496" lon="10.426959888131199"><ele>180.0</ele><time>2026-04-25T08:44:55.999Z</time></trkpt><trkpt lat="42.78659644176449" lon="10.426898073400944"><ele>183.33333333333334</ele><time>2026-04-25T08:44:57.999Z</time></trkpt><trkpt lat="42.78651632280291" lon="10.426890417476425"><ele>186.66666666666669</ele><time>2026-04-25T08:44:58.999Z</time></trkpt><trkpt lat="42.78644121777955" lon="10.426877171087401"><ele>190.0</ele><time>2026-04-25T08:44:59.999Z</time></trkpt><trkpt lat="42.786361930213374" lon="10.426898003074509"><ele>190.0</ele><time>2026-04-25T08:45:00.999Z</time></trkpt><trkpt lat="42.7862860519852" lon="10.426925075669994"><ele>190.0</ele><time>2026-04-25T08:45:01.999Z</time></trkpt><trkpt lat="42.78620093698289" lon="10.426950307788236"><ele>190.0</ele><time>2026-04-25T08:45:02.999Z</time></trkpt><trkpt lat="42.78612607124092" lon="10.42699567067161"><ele>190.0</ele><time>2026-04-25T08:45:03.999Z</time></trkpt><trkpt lat="42.786042537521254" lon="10.427038020561149"><ele>190.0</ele><time>2026-04-25T08:45:04.999Z</time></trkpt><trkpt lat="42.78596909567281" lon="10.427086030589944"><ele>190.0</ele><time>2026-04-25T08:45:05.999Z</time></trkpt><trkpt lat="42.78590179561043" lon="10.427116812081389"><ele>186.5</ele><time>2026-04-25T08:45:06.999Z</time></trkpt><trkpt lat="42.78583222169659" lon="10.427148974019806"><ele>183.0</ele><time>2026-04-25T08:45:07.999Z</time></trkpt><trkpt lat="42.78571573836633" lon="10.42716711584509"><ele>179.5</ele><time>2026-04-25T08:45:09.999Z</time></trkpt><trkpt lat="42.785652221277786" lon="10.42708106235344"><ele>176.0</ele><time>2026-04-25T08:45:11.999Z</time></trkpt><trkpt lat="42.78561144620907" lon="10.426852108739306"><ele>176.0</ele><time>2026-04-25T08:45:13.998Z</time></trkpt><trkpt lat="42.785595681603276" lon="10.426678273282178"><ele>176.0</ele><time>2026-04-25T08:45:14.998Z</time></trkpt><trkpt lat="42.78558024817407" lon="10.426488592805635"><ele>176.0</ele><time>2026-04-25T08:45:15.998Z</time></trkpt><trkpt lat="42.785568321832336" lon="10.42635354700806"><ele>176.0</ele><time>2026-04-25T08:45:16.998Z</time></trkpt><trkpt lat="42.785545586638115" lon="10.426220053651441"><ele>178.0</ele><time>2026-04-25T08:45:17.998Z</time></trkpt><trkpt lat="42.78552429450728" lon="10.426091791448092"><ele>180.0</ele><time>2026-04-25T08:45:18.998Z</time></trkpt><trkpt lat="42.78549442525753" lon="10.425969983576445"><ele>182.0</ele><time>2026-04-25T08:45:19.998Z</time></trkpt><trkpt lat="42.78546790926475" lon="10.425848619003485"><ele>184.0</ele><time>2026-04-25T08:45:20.998Z</time></trkpt><trkpt lat="42.78544759457087" lon="10.42574254115351"><ele>186.0</ele><time>2026-04-25T08:45:21.998Z</time></trkpt><trkpt lat="42.78543123024807" lon="10.425631041554922"><ele>188.0</ele><time>2026-04-25T08:45:22.998Z</time></trkpt><trkpt lat="42.785418260580514" lon="10.42553217203849"><ele>190.2</ele><time>2026-04-25T08:45:23.998Z</time></trkpt><trkpt lat="42.78536726092414" lon="10.425395935227602"><ele>192.4</ele><time>2026-04-25T08:45:25.998Z</time></trkpt><trkpt lat="42.785250443146026" lon="10.425390826537965"><ele>194.6</ele><time>2026-04-25T08:45:27.998Z</time></trkpt><trkpt lat="42.785195366825754" lon="10.425456891411732"><ele>196.79999999999998</ele><time>2026-04-25T08:45:28.999Z</time></trkpt><trkpt lat="42.78513998960622" lon="10.425545344135488"><ele>199.0</ele><time>2026-04-25T08:45:29.999Z</time></trkpt><trkpt lat="42.785069459929026" lon="10.425629715389615"><ele>191.39999999999998</ele><time>2026-04-25T08:45:30.999Z</time></trkpt><trkpt lat="42.78499619456592" lon="10.425702152177612"><ele>183.8</ele><time>2026-04-25T08:45:31.999Z</time></trkpt><trkpt lat="42.784912591574816" lon="10.425785015090508"><ele>176.2</ele><time>2026-04-25T08:45:32.999Z</time></trkpt><trkpt lat="42.78479185558986" lon="10.425838011878337"><ele>168.60000000000002</ele><time>2026-04-25T08:45:33.999Z</time></trkpt><trkpt lat="42.784702776170974" lon="10.425892130636095"><ele>161.0</ele><time>2026-04-25T08:45:34.999Z</time></trkpt><trkpt lat="42.784599960681795" lon="10.425937300004476"><ele>161.0</ele><time>2026-04-25T08:45:35.999Z</time></trkpt><trkpt lat="42.7845054730549" lon="10.425972574399447"><ele>161.0</ele><time>2026-04-25T08:45:36.999Z</time></trkpt><trkpt lat="42.78440385264096" lon="10.426010480345669"><ele>161.0</ele><time>2026-04-25T08:45:37.999Z</time></trkpt><trkpt lat="42.78430063096017" lon="10.426039584209182"><ele>161.0</ele><time>2026-04-25T08:45:38.999Z</time></trkpt><trkpt lat="42.78420940441992" lon="10.42606344686428"><ele>161.0</ele><time>2026-04-25T08:45:39.999Z</time></trkpt><trkpt lat="42.784137472883806" lon="10.426089043400168"><ele>160.5</ele><time>2026-04-25T08:45:40.999Z</time></trkpt><trkpt lat="42.784073178887546" lon="10.426096247724198"><ele>160.0</ele><time>2026-04-25T08:45:41.999Z</time></trkpt><trkpt lat="42.784013964111004" lon="10.42606277431757"><ele>159.5</ele><time>2026-04-25T08:45:42.999Z</time></trkpt><trkpt lat="42.78393085185551" lon="10.425939612285587"><ele>159.0</ele><time>2026-04-25T08:45:44.999Z</time></trkpt><trkpt lat="42.783862222085816" lon="10.425833993860014"><ele>158.5</ele><time>2026-04-25T08:45:46.999Z</time></trkpt><trkpt lat="42.78384575124682" lon="10.425733069074973"><ele>158.0</ele><time>2026-04-25T08:45:48.999Z</time></trkpt><trkpt lat="42.78384189892588" lon="10.425629672864638"><ele>161.33333333333331</ele><time>2026-04-25T08:45:50.999Z</time></trkpt><trkpt lat="42.783827950500694" lon="10.425437518025372"><ele>164.66666666666666</ele><time>2026-04-25T08:45:52.999Z</time></trkpt><trkpt lat="42.78382199093024" lon="10.425348135215915"><ele>168.0</ele><time>2026-04-25T08:45:53.999Z</time></trkpt><trkpt lat="42.78384238354566" lon="10.425249930138014"><ele>171.33333333333334</ele><time>2026-04-25T08:45:55.999Z</time></trkpt><trkpt lat="42.78381893422399" lon="10.425163054667614"><ele>174.66666666666669</ele><time>2026-04-25T08:45:57.999Z</time></trkpt><trkpt lat="42.7837708213756" lon="10.425059020062672"><ele>178.0</ele><time>2026-04-25T08:45:59.999Z</time></trkpt><trkpt lat="42.7836882852099" lon="10.425025381486282"><ele>178.0</ele><time>2026-04-25T08:46:00.999Z</time></trkpt><trkpt lat="42.78359770156021" lon="10.425056173767405"><ele>178.0</ele><time>2026-04-25T08:46:02.999Z</time></trkpt><trkpt lat="42.78355346610325" lon="10.42494845720591"><ele>178.0</ele><time>2026-04-25T08:46:06.999Z</time></trkpt><trkpt lat="42.78347654881372" lon="10.424850483757897"><ele>178.0</ele><time>2026-04-25T08:46:08.999Z</time></trkpt><trkpt lat="42.783438189804556" lon="10.424744685479434"><ele>178.0</ele><time>2026-04-25T08:46:10.998Z</time></trkpt><trkpt lat="42.78339237049491" lon="10.42463603145978"><ele>177.2</ele><time>2026-04-25T08:46:12.998Z</time></trkpt><trkpt lat="42.783305899477625" lon="10.424548928919315"><ele>176.4</ele><time>2026-04-25T08:46:14.998Z</time></trkpt><trkpt lat="42.78326076997426" lon="10.424408846361958"><ele>175.6</ele><time>2026-04-25T08:46:16.998Z</time></trkpt><trkpt lat="42.783222456203255" lon="10.424294440811982"><ele>174.79999999999998</ele><time>2026-04-25T08:46:17.998Z</time></trkpt><trkpt lat="42.78318339976677" lon="10.42418432824628"><ele>174.0</ele><time>2026-04-25T08:46:18.998Z</time></trkpt><trkpt lat="42.78311160873585" lon="10.424105077721872"><ele>174.0</ele><time>2026-04-25T08:46:19.998Z</time></trkpt><trkpt lat="42.78306981602587" lon="10.424021007686516"><ele>174.0</ele><time>2026-04-25T08:46:20.998Z</time></trkpt><trkpt lat="42.78302848271776" lon="10.423930135581909"><ele>174.0</ele><time>2026-04-25T08:46:21.998Z</time></trkpt><trkpt lat="42.78301807467013" lon="10.42379477671992"><ele>174.0</ele><time>2026-04-25T08:46:22.998Z</time></trkpt><trkpt lat="42.78302535672835" lon="10.423697533225685"><ele>174.0</ele><time>2026-04-25T08:46:23.998Z</time></trkpt><trkpt lat="42.783035179813055" lon="10.42357540017647"><ele>174.0</ele><time>2026-04-25T08:46:24.998Z</time></trkpt><trkpt lat="42.78302341262066" lon="10.423470106656287"><ele>176.2</ele><time>2026-04-25T08:46:25.998Z</time></trkpt><trkpt lat="42.782995014584685" lon="10.423380263071985"><ele>178.39999999999998</ele><time>2026-04-25T08:46:26.998Z</time></trkpt><trkpt lat="42.78295517519679" lon="10.423266337875287"><ele>180.6</ele><time>2026-04-25T08:46:27.998Z</time></trkpt><trkpt lat="42.782910324452985" lon="10.423137717245737"><ele>182.8</ele><time>2026-04-25T08:46:28.998Z</time></trkpt><trkpt lat="42.78287200299508" lon="10.423008139582015"><ele>185.0</ele><time>2026-04-25T08:46:29.998Z</time></trkpt><trkpt lat="42.78282658250748" lon="10.42287472664201"><ele>186.0</ele><time>2026-04-25T08:46:30.998Z</time></trkpt><trkpt lat="42.782795034668986" lon="10.422771076745724"><ele>187.0</ele><time>2026-04-25T08:46:31.998Z</time></trkpt><trkpt lat="42.78276030023651" lon="10.422672788232607"><ele>188.0</ele><time>2026-04-25T08:46:32.998Z</time></trkpt><trkpt lat="42.78272293063288" lon="10.422595860032839"><ele>189.0</ele><time>2026-04-25T08:46:33.998Z</time></trkpt><trkpt lat="42.78265429563934" lon="10.422548353711212"><ele>190.0</ele><time>2026-04-25T08:46:35.998Z</time></trkpt><trkpt lat="42.78258608019911" lon="10.422456381481362"><ele>191.0</ele><time>2026-04-25T08:46:37.998Z</time></trkpt><trkpt lat="42.78250890694374" lon="10.422348550161333"><ele>187.8</ele><time>2026-04-25T08:46:39.998Z</time></trkpt><trkpt lat="42.782492791303056" lon="10.422185298793044"><ele>184.60000000000002</ele><time>2026-04-25T08:46:42Z</time></trkpt><trkpt lat="42.782452306692214" lon="10.422089955324383"><ele>181.4</ele><time>2026-04-25T08:46:42.999Z</time></trkpt><trkpt lat="42.78242067293519" lon="10.42201044875525"><ele>178.2</ele><time>2026-04-25T08:46:43.999Z</time></trkpt><trkpt lat="42.78236929686222" lon="10.42187730141298"><ele>175.0</ele><time>2026-04-25T08:46:46Z</time></trkpt><trkpt lat="42.78231983520353" lon="10.421786550858563"><ele>175.0</ele><time>2026-04-25T08:46:47.999Z</time></trkpt><trkpt lat="42.78224456191777" lon="10.421624977178418"><ele>175.0</ele><time>2026-04-25T08:46:49.999Z</time></trkpt><trkpt lat="42.78220743101568" lon="10.421506402691115"><ele>175.0</ele><time>2026-04-25T08:46:51Z</time></trkpt><trkpt lat="42.78218098617916" lon="10.421374160915061"><ele>175.0</ele><time>2026-04-25T08:46:51.999Z</time></trkpt><trkpt lat="42.78216807760918" lon="10.42124423601393"><ele>175.0</ele><time>2026-04-25T08:46:52.999Z</time></trkpt><trkpt lat="42.78214801284977" lon="10.421137432561416"><ele>175.16666666666669</ele><time>2026-04-25T08:46:53.998Z</time></trkpt><trkpt lat="42.78213754964914" lon="10.421020120698246"><ele>175.33333333333334</ele><time>2026-04-25T08:46:54.999Z</time></trkpt><trkpt lat="42.782135679203726" lon="10.420913560673645"><ele>175.5</ele><time>2026-04-25T08:46:55.999Z</time></trkpt><trkpt lat="42.78214895556521" lon="10.420810295218855"><ele>175.66666666666666</ele><time>2026-04-25T08:46:56.999Z</time></trkpt><trkpt lat="42.78219386942549" lon="10.420703691804245"><ele>175.83333333333331</ele><time>2026-04-25T08:46:57.999Z</time></trkpt><trkpt lat="42.7822527429152" lon="10.420593940244464"><ele>176.0</ele><time>2026-04-25T08:46:58.999Z</time></trkpt><trkpt lat="42.782312434406705" lon="10.420488545575562"><ele>173.0</ele><time>2026-04-25T08:46:59.999Z</time></trkpt><trkpt lat="42.78236986399635" lon="10.420394481058793"><ele>170.0</ele><time>2026-04-25T08:47:00.999Z</time></trkpt><trkpt lat="42.78242755769379" lon="10.420299805943335"><ele>167.0</ele><time>2026-04-25T08:47:01.999Z</time></trkpt><trkpt lat="42.78249759208819" lon="10.420209157667715"><ele>164.0</ele><time>2026-04-25T08:47:02.999Z</time></trkpt><trkpt lat="42.78257647727415" lon="10.42012483955668"><ele>161.0</ele><time>2026-04-25T08:47:03.999Z</time></trkpt><trkpt lat="42.78265982928725" lon="10.420040949016716"><ele>164.83333333333331</ele><time>2026-04-25T08:47:04.999Z</time></trkpt><trkpt lat="42.78273948461357" lon="10.419968463814554"><ele>168.66666666666666</ele><time>2026-04-25T08:47:05.999Z</time></trkpt><trkpt lat="42.782812157244365" lon="10.419901946828029"><ele>172.5</ele><time>2026-04-25T08:47:06.999Z</time></trkpt><trkpt lat="42.78289052912929" lon="10.419841186278418"><ele>176.33333333333334</ele><time>2026-04-25T08:47:07.999Z</time></trkpt><trkpt lat="42.782966284892034" lon="10.419788198601267"><ele>180.16666666666669</ele><time>2026-04-25T08:47:08.999Z</time></trkpt><trkpt lat="42.78304914505232" lon="10.41974696760405"><ele>184.0</ele><time>2026-04-25T08:47:09.999Z</time></trkpt><trkpt lat="42.78312512112562" lon="10.41970400836212"><ele>181.0</ele><time>2026-04-25T08:47:10.999Z</time></trkpt><trkpt lat="42.78317073768002" lon="10.419625399949542"><ele>178.0</ele><time>2026-04-25T08:47:11.999Z</time></trkpt><trkpt lat="42.78322554532143" lon="10.41955023010734"><ele>175.0</ele><time>2026-04-25T08:47:12.999Z</time></trkpt><trkpt lat="42.78326477811474" lon="10.419460855512767"><ele>172.0</ele><time>2026-04-25T08:47:13.999Z</time></trkpt><trkpt lat="42.78328087062601" lon="10.419373315235081"><ele>169.0</ele><time>2026-04-25T08:47:14.999Z</time></trkpt><trkpt lat="42.783307102083484" lon="10.419293367836751"><ele>166.0</ele><time>2026-04-25T08:47:15.999Z</time></trkpt><trkpt lat="42.783348781881344" lon="10.419205315828323"><ele>163.0</ele><time>2026-04-25T08:47:16.999Z</time></trkpt><trkpt lat="42.783405904288095" lon="10.419157065356334"><ele>163.0</ele><time>2026-04-25T08:47:17.999Z</time></trkpt><trkpt lat="42.783504889708404" lon="10.419134042408952"><ele>163.0</ele><time>2026-04-25T08:47:18.999Z</time></trkpt><trkpt lat="42.78360416784681" lon="10.419118298801308"><ele>163.0</ele><time>2026-04-25T08:47:19.999Z</time></trkpt><trkpt lat="42.783695594098376" lon="10.4190985550051"><ele>163.0</ele><time>2026-04-25T08:47:20.999Z</time></trkpt><trkpt lat="42.78379720580235" lon="10.419059783199224"><ele>163.0</ele><time>2026-04-25T08:47:21.999Z</time></trkpt><trkpt lat="42.78390205511052" lon="10.41902799915793"><ele>165.0</ele><time>2026-04-25T08:47:22.999Z</time></trkpt><trkpt lat="42.783990661130744" lon="10.419015745887823"><ele>167.0</ele><time>2026-04-25T08:47:23.999Z</time></trkpt><trkpt lat="42.78416416471913" lon="10.41902709798433"><ele>169.0</ele><time>2026-04-25T08:47:25.999Z</time></trkpt><trkpt lat="42.784266769184256" lon="10.419041432604581"><ele>171.0</ele><time>2026-04-25T08:47:26.999Z</time></trkpt><trkpt lat="42.784364065477526" lon="10.419054182497968"><ele>172.16666666666666</ele><time>2026-04-25T08:47:27.999Z</time></trkpt><trkpt lat="42.78446294424484" lon="10.419088077398268"><ele>173.33333333333334</ele><time>2026-04-25T08:47:28.999Z</time></trkpt><trkpt lat="42.78454670525351" lon="10.419106836419683"><ele>174.5</ele><time>2026-04-25T08:47:29.999Z</time></trkpt><trkpt lat="42.78462799082216" lon="10.419101649715502"><ele>175.66666666666669</ele><time>2026-04-25T08:47:30.999Z</time></trkpt><trkpt lat="42.78471980687673" lon="10.419082253807488"><ele>176.83333333333334</ele><time>2026-04-25T08:47:31.999Z</time></trkpt><trkpt lat="42.78480541203307" lon="10.419054640631112"><ele>178.0</ele><time>2026-04-25T08:47:32.999Z</time></trkpt><trkpt lat="42.784869562346" lon="10.419020524501379"><ele>178.0</ele><time>2026-04-25T08:47:33.999Z</time></trkpt><trkpt lat="42.784931822392885" lon="10.418910105104764"><ele>178.0</ele><time>2026-04-25T08:47:35.999Z</time></trkpt><trkpt lat="42.78496507961246" lon="10.418801575151843"><ele>178.0</ele><time>2026-04-25T08:47:36.999Z</time></trkpt><trkpt lat="42.785030731125076" lon="10.418735669897282"><ele>178.0</ele><time>2026-04-25T08:47:37.999Z</time></trkpt><trkpt lat="42.78511122373532" lon="10.418682609732398"><ele>178.0</ele><time>2026-04-25T08:47:38.999Z</time></trkpt><trkpt lat="42.78519235019727" lon="10.41862197109478"><ele>179.5</ele><time>2026-04-25T08:47:39.999Z</time></trkpt><trkpt lat="42.78528188622542" lon="10.418570962996776"><ele>181.0</ele><time>2026-04-25T08:47:40.999Z</time></trkpt><trkpt lat="42.785377764677754" lon="10.418521298751893"><ele>182.5</ele><time>2026-04-25T08:47:42.999Z</time></trkpt><trkpt lat="42.78545315013339" lon="10.418258287704791"><ele>184.0</ele><time>2026-04-25T08:47:50.999Z</time></trkpt><trkpt lat="42.78537339637058" lon="10.418214951368807"><ele>184.0</ele><time>2026-04-25T08:47:51.999Z</time></trkpt><trkpt lat="42.78528652492921" lon="10.418153010629295"><ele>184.0</ele><time>2026-04-25T08:47:52.998Z</time></trkpt><trkpt lat="42.78519749190364" lon="10.418093764373559"><ele>184.0</ele><time>2026-04-25T08:47:53.998Z</time></trkpt><trkpt lat="42.785121795233515" lon="10.418035093363866"><ele>184.0</ele><time>2026-04-25T08:47:54.998Z</time></trkpt><trkpt lat="42.785045729117385" lon="10.417979583600406"><ele>184.0</ele><time>2026-04-25T08:47:55.998Z</time></trkpt><trkpt lat="42.78496921638008" lon="10.417924614583127"><ele>181.79999999999998</ele><time>2026-04-25T08:47:56.998Z</time></trkpt><trkpt lat="42.78488461944864" lon="10.417837598305946"><ele>179.6</ele><time>2026-04-25T08:47:57.998Z</time></trkpt><trkpt lat="42.7847916338827" lon="10.417776173468068"><ele>177.4</ele><time>2026-04-25T08:47:58.998Z</time></trkpt><trkpt lat="42.78470069664916" lon="10.41767322319408"><ele>175.2</ele><time>2026-04-25T08:47:59.998Z</time></trkpt><trkpt lat="42.78461386626453" lon="10.41758461621962"><ele>173.0</ele><time>2026-04-25T08:48:00.998Z</time></trkpt><trkpt lat="42.78452664341104" lon="10.417506148193075"><ele>173.0</ele><time>2026-04-25T08:48:01.998Z</time></trkpt><trkpt lat="42.78444719536745" lon="10.417451827849721"><ele>173.0</ele><time>2026-04-25T08:48:02.998Z</time></trkpt><trkpt lat="42.78436843674936" lon="10.417394521958048"><ele>173.0</ele><time>2026-04-25T08:48:03.998Z</time></trkpt><trkpt lat="42.784302667853396" lon="10.417316048350152"><ele>173.0</ele><time>2026-04-25T08:48:04.998Z</time></trkpt><trkpt lat="42.7842600479311" lon="10.417215268898389"><ele>173.0</ele><time>2026-04-25T08:48:05.998Z</time></trkpt><trkpt lat="42.78424182991585" lon="10.4171061760967"><ele>173.0</ele><time>2026-04-25T08:48:06.998Z</time></trkpt><trkpt lat="42.78424341063918" lon="10.417018712055544"><ele>172.2</ele><time>2026-04-25T08:48:07.998Z</time></trkpt><trkpt lat="42.78430480923039" lon="10.416922332495773"><ele>171.4</ele><time>2026-04-25T08:48:09.998Z</time></trkpt><trkpt lat="42.7843903761424" lon="10.416865356429753"><ele>170.6</ele><time>2026-04-25T08:48:10.998Z</time></trkpt><trkpt lat="42.784465892947615" lon="10.41681381711676"><ele>169.79999999999998</ele><time>2026-04-25T08:48:11.998Z</time></trkpt><trkpt lat="42.784553990687954" lon="10.416743949112245"><ele>169.0</ele><time>2026-04-25T08:48:12.998Z</time></trkpt><trkpt lat="42.78465129991076" lon="10.416686736643998"><ele>169.0</ele><time>2026-04-25T08:48:13.998Z</time></trkpt><trkpt lat="42.78474547044949" lon="10.41663655491577"><ele>169.0</ele><time>2026-04-25T08:48:14.998Z</time></trkpt><trkpt lat="42.78482919800222" lon="10.416585733628906"><ele>169.0</ele><time>2026-04-25T08:48:15.998Z</time></trkpt><trkpt lat="42.78489478020816" lon="10.416515745907597"><ele>169.0</ele><time>2026-04-25T08:48:16.998Z</time></trkpt><trkpt lat="42.7849576487342" lon="10.416390502864251"><ele>169.0</ele><time>2026-04-25T08:48:18.997Z</time></trkpt><trkpt lat="42.78501613105066" lon="10.416327826946608"><ele>167.0</ele><time>2026-04-25T08:48:19.997Z</time></trkpt><trkpt lat="42.78503513788927" lon="10.416200074452208"><ele>165.0</ele><time>2026-04-25T08:48:21.996Z</time></trkpt><trkpt lat="42.7849804300884" lon="10.416052441620154"><ele>163.0</ele><time>2026-04-25T08:48:23.995Z</time></trkpt><trkpt lat="42.78492819176791" lon="10.41590909043374"><ele>161.0</ele><time>2026-04-25T08:48:25.994Z</time></trkpt><trkpt lat="42.784893853360096" lon="10.415746248257364"><ele>161.0</ele><time>2026-04-25T08:48:27.993Z</time></trkpt><trkpt lat="42.78488555015139" lon="10.415652851277585"><ele>161.0</ele><time>2026-04-25T08:48:28.993Z</time></trkpt><trkpt lat="42.78490575079954" lon="10.415526728528237"><ele>161.0</ele><time>2026-04-25T08:48:29.993Z</time></trkpt><trkpt lat="42.78494838832271" lon="10.415412871613633"><ele>161.0</ele><time>2026-04-25T08:48:30.993Z</time></trkpt><trkpt lat="42.785003599234685" lon="10.415310281112877"><ele>161.0</ele><time>2026-04-25T08:48:31.992Z</time></trkpt><trkpt lat="42.785072201488674" lon="10.415225663235688"><ele>161.0</ele><time>2026-04-25T08:48:32.992Z</time></trkpt><trkpt lat="42.785163627332736" lon="10.415150152231112"><ele>159.5</ele><time>2026-04-25T08:48:33.992Z</time></trkpt><trkpt lat="42.785268554855854" lon="10.4150892473899"><ele>158.0</ele><time>2026-04-25T08:48:34.992Z</time></trkpt><trkpt lat="42.78537743246433" lon="10.415036443618037"><ele>156.5</ele><time>2026-04-25T08:48:35.991Z</time></trkpt><trkpt lat="42.78549160386896" lon="10.41499961628437"><ele>155.0</ele><time>2026-04-25T08:48:36.991Z</time></trkpt><trkpt lat="42.78560131009554" lon="10.414976342093746"><ele>155.0</ele><time>2026-04-25T08:48:37.991Z</time></trkpt><trkpt lat="42.78570546222286" lon="10.414959902227974"><ele>155.0</ele><time>2026-04-25T08:48:38.991Z</time></trkpt><trkpt lat="42.78580721178429" lon="10.414929955474364"><ele>155.0</ele><time>2026-04-25T08:48:39.991Z</time></trkpt><trkpt lat="42.78590781761787" lon="10.41490445049027"><ele>155.0</ele><time>2026-04-25T08:48:40.991Z</time></trkpt><trkpt lat="42.786005496383964" lon="10.414885958448991"><ele>155.0</ele><time>2026-04-25T08:48:41.99Z</time></trkpt><trkpt lat="42.786096317853136" lon="10.41488734821098"><ele>154.6</ele><time>2026-04-25T08:48:42.99Z</time></trkpt><trkpt lat="42.78619088914381" lon="10.4149029508822"><ele>154.2</ele><time>2026-04-25T08:48:43.99Z</time></trkpt><trkpt lat="42.786282304959755" lon="10.414910263136703"><ele>153.8</ele><time>2026-04-25T08:48:44.99Z</time></trkpt><trkpt lat="42.78635900803587" lon="10.414874622220408"><ele>153.4</ele><time>2026-04-25T08:48:45.99Z</time></trkpt><trkpt lat="42.78643703519831" lon="10.414814807721468"><ele>153.0</ele><time>2026-04-25T08:48:46.99Z</time></trkpt><trkpt lat="42.78650674996046" lon="10.41472356024856"><ele>151.75</ele><time>2026-04-25T08:48:47.991Z</time></trkpt><trkpt lat="42.78658738222325" lon="10.414631432157186"><ele>150.5</ele><time>2026-04-25T08:48:48.991Z</time></trkpt><trkpt lat="42.78668360953291" lon="10.41453300246932"><ele>149.25</ele><time>2026-04-25T08:48:49.991Z</time></trkpt><trkpt lat="42.78679054848642" lon="10.414431271342707"><ele>148.0</ele><time>2026-04-25T08:48:50.991Z</time></trkpt><trkpt lat="42.786887385749225" lon="10.414332796290934"><ele>148.0</ele><time>2026-04-25T08:48:51.991Z</time></trkpt><trkpt lat="42.786981410127275" lon="10.414231568569079"><ele>148.0</ele><time>2026-04-25T08:48:52.991Z</time></trkpt><trkpt lat="42.787081188190164" lon="10.414132171139826"><ele>148.0</ele><time>2026-04-25T08:48:53.991Z</time></trkpt><trkpt lat="42.78717705351979" lon="10.414052790760756"><ele>148.0</ele><time>2026-04-25T08:48:54.991Z</time></trkpt><trkpt lat="42.78724229321273" lon="10.41397661573968"><ele>148.0</ele><time>2026-04-25T08:48:55.991Z</time></trkpt><trkpt lat="42.787296275715576" lon="10.413916360603093"><ele>148.75</ele><time>2026-04-25T08:48:56.99Z</time></trkpt><trkpt lat="42.78734582057341" lon="10.413770155353493"><ele>149.5</ele><time>2026-04-25T08:48:58.99Z</time></trkpt><trkpt lat="42.78737220072534" lon="10.413613980259035"><ele>150.25</ele><time>2026-04-25T08:49:00.991Z</time></trkpt><trkpt lat="42.78737113740008" lon="10.41342975520741"><ele>151.0</ele><time>2026-04-25T08:49:02.991Z</time></trkpt><trkpt lat="42.78736388105872" lon="10.413296034274817"><ele>151.0</ele><time>2026-04-25T08:49:03.99Z</time></trkpt><trkpt lat="42.78736224265081" lon="10.413196292124917"><ele>151.0</ele><time>2026-04-25T08:49:04.99Z</time></trkpt><trkpt lat="42.787383745814886" lon="10.413098735549937"><ele>151.0</ele><time>2026-04-25T08:49:05.99Z</time></trkpt><trkpt lat="42.787418043347174" lon="10.412988612459431"><ele>151.0</ele><time>2026-04-25T08:49:06.99Z</time></trkpt><trkpt lat="42.78744772235489" lon="10.412887888955092"><ele>151.0</ele><time>2026-04-25T08:49:07.99Z</time></trkpt><trkpt lat="42.78748562160195" lon="10.412801917689423"><ele>151.0</ele><time>2026-04-25T08:49:08.99Z</time></trkpt><trkpt lat="42.78751143016778" lon="10.412722347782362"><ele>150.5</ele><time>2026-04-25T08:49:09.99Z</time></trkpt><trkpt lat="42.78755266066335" lon="10.412627212050456"><ele>150.0</ele><time>2026-04-25T08:49:10.99Z</time></trkpt><trkpt lat="42.78759377665438" lon="10.412518368203392"><ele>149.5</ele><time>2026-04-25T08:49:11.99Z</time></trkpt><trkpt lat="42.78763431466411" lon="10.412411921918308"><ele>149.0</ele><time>2026-04-25T08:49:12.99Z</time></trkpt><trkpt lat="42.787668029752915" lon="10.412309215758805"><ele>148.5</ele><time>2026-04-25T08:49:13.99Z</time></trkpt><trkpt lat="42.78770225637101" lon="10.412215513399275"><ele>148.0</ele><time>2026-04-25T08:49:14.99Z</time></trkpt><trkpt lat="42.78772610332655" lon="10.41211363088123"><ele>146.4</ele><time>2026-04-25T08:49:15.99Z</time></trkpt><trkpt lat="42.78777081933363" lon="10.41197444443956"><ele>144.8</ele><time>2026-04-25T08:49:17.99Z</time></trkpt><trkpt lat="42.78781088824413" lon="10.411894957622298"><ele>143.2</ele><time>2026-04-25T08:49:18.99Z</time></trkpt><trkpt lat="42.78785212576304" lon="10.411810747462106"><ele>141.6</ele><time>2026-04-25T08:49:19.99Z</time></trkpt><trkpt lat="42.78792286069572" lon="10.41163440325492"><ele>140.0</ele><time>2026-04-25T08:49:22.99Z</time></trkpt><trkpt lat="42.78798890224707" lon="10.411558680358945"><ele>140.0</ele><time>2026-04-25T08:49:23.99Z</time></trkpt><trkpt lat="42.788035954514825" lon="10.411497965853224"><ele>140.0</ele><time>2026-04-25T08:49:24.99Z</time></trkpt><trkpt lat="42.78811187487666" lon="10.41139847649091"><ele>140.0</ele><time>2026-04-25T08:49:26.99Z</time></trkpt><trkpt lat="42.788198694434854" lon="10.411294431643457"><ele>140.0</ele><time>2026-04-25T08:49:28.99Z</time></trkpt><trkpt lat="42.788247697899436" lon="10.411234123115037"><ele>140.0</ele><time>2026-04-25T08:49:29.99Z</time></trkpt><trkpt lat="42.78833604821272" lon="10.4111400566633"><ele>140.0</ele><time>2026-04-25T08:49:31.989Z</time></trkpt><trkpt lat="42.78843488205873" lon="10.411018457452641"><ele>140.0</ele><time>2026-04-25T08:49:33.989Z</time></trkpt><trkpt lat="42.7885272205853" lon="10.410923484983575"><ele>140.0</ele><time>2026-04-25T08:49:35.989Z</time></trkpt><trkpt lat="42.788601749887434" lon="10.410837177526272"><ele>140.0</ele><time>2026-04-25T08:49:37.989Z</time></trkpt><trkpt lat="42.78864183339833" lon="10.410760047869417"><ele>140.0</ele><time>2026-04-25T08:49:39.989Z</time></trkpt><trkpt lat="42.78872820880052" lon="10.41067693919817"><ele>139.0</ele><time>2026-04-25T08:49:41.989Z</time></trkpt><trkpt lat="42.78879491383965" lon="10.410660041762931"><ele>138.0</ele><time>2026-04-25T08:49:42.989Z</time></trkpt><trkpt lat="42.788970430325364" lon="10.410667888227554"><ele>137.0</ele><time>2026-04-25T08:49:54.989Z</time></trkpt><trkpt lat="42.789024842320906" lon="10.410745149364782"><ele>136.0</ele><time>2026-04-25T08:49:56.989Z</time></trkpt><trkpt lat="42.78909674651105" lon="10.410806613600212"><ele>135.0</ele><time>2026-04-25T08:49:58.989Z</time></trkpt><trkpt lat="42.789205166498064" lon="10.41091174106061"><ele>135.0</ele><time>2026-04-25T08:50:00.989Z</time></trkpt><trkpt lat="42.789286321271376" lon="10.411004231255703"><ele>135.0</ele><time>2026-04-25T08:50:02.989Z</time></trkpt><trkpt lat="42.789350633205295" lon="10.41105910335539"><ele>135.0</ele><time>2026-04-25T08:50:04.989Z</time></trkpt><trkpt lat="42.78941282804517" lon="10.41114120826104"><ele>135.0</ele><time>2026-04-25T08:50:07.989Z</time></trkpt><trkpt lat="42.78948586702167" lon="10.41125301556319"><ele>135.0</ele><time>2026-04-25T08:50:09.989Z</time></trkpt><trkpt lat="42.7895395231395" lon="10.411366604276214"><ele>135.5</ele><time>2026-04-25T08:50:10.989Z</time></trkpt><trkpt lat="42.78957929907954" lon="10.411498150567388"><ele>136.0</ele><time>2026-04-25T08:50:11.988Z</time></trkpt><trkpt lat="42.789612239033225" lon="10.411640497683685"><ele>136.5</ele><time>2026-04-25T08:50:12.988Z</time></trkpt><trkpt lat="42.78962893697122" lon="10.411789104012032"><ele>137.0</ele><time>2026-04-25T08:50:13.988Z</time></trkpt><trkpt lat="42.789637455754345" lon="10.411974986623287"><ele>136.0</ele><time>2026-04-25T08:50:14.988Z</time></trkpt><trkpt lat="42.789641671345564" lon="10.412164835167147"><ele>135.0</ele><time>2026-04-25T08:50:15.988Z</time></trkpt><trkpt lat="42.78964635110493" lon="10.412360036036933"><ele>134.0</ele><time>2026-04-25T08:50:16.988Z</time></trkpt><trkpt lat="42.78964846895232" lon="10.412545458928943"><ele>133.0</ele><time>2026-04-25T08:50:17.988Z</time></trkpt><trkpt lat="42.78965360972978" lon="10.412732290806586"><ele>133.0</ele><time>2026-04-25T08:50:18.988Z</time></trkpt><trkpt lat="42.78966329153981" lon="10.412906241853745"><ele>133.0</ele><time>2026-04-25T08:50:19.988Z</time></trkpt><trkpt lat="42.78967481876093" lon="10.413061518860655"><ele>133.0</ele><time>2026-04-25T08:50:20.988Z</time></trkpt><trkpt lat="42.78971451745319" lon="10.413194622187628"><ele>133.0</ele><time>2026-04-25T08:50:21.988Z</time></trkpt><trkpt lat="42.78977370482645" lon="10.413311451595076"><ele>132.0</ele><time>2026-04-25T08:50:22.988Z</time></trkpt><trkpt lat="42.78985327801672" lon="10.413390072076885"><ele>131.0</ele><time>2026-04-25T08:50:23.988Z</time></trkpt><trkpt lat="42.78994561518458" lon="10.41344898075129"><ele>130.0</ele><time>2026-04-25T08:50:24.988Z</time></trkpt><trkpt lat="42.79004889329877" lon="10.413458996150077"><ele>129.0</ele><time>2026-04-25T08:50:25.988Z</time></trkpt><trkpt lat="42.79014465430408" lon="10.41344070270306"><ele>128.0</ele><time>2026-04-25T08:50:26.988Z</time></trkpt><trkpt lat="42.79024070969917" lon="10.41338059244266"><ele>129.5</ele><time>2026-04-25T08:50:27.988Z</time></trkpt><trkpt lat="42.79033480567451" lon="10.413288962447092"><ele>131.0</ele><time>2026-04-25T08:50:28.988Z</time></trkpt><trkpt lat="42.79041868023067" lon="10.413181583998526"><ele>132.5</ele><time>2026-04-25T08:50:29.988Z</time></trkpt><trkpt lat="42.79051670475825" lon="10.4130639063906"><ele>134.0</ele><time>2026-04-25T08:50:30.988Z</time></trkpt><trkpt lat="42.790619670276804" lon="10.412959572239831"><ele>134.0</ele><time>2026-04-25T08:50:31.988Z</time></trkpt><trkpt lat="42.790717383832494" lon="10.412864659488045"><ele>134.0</ele><time>2026-04-25T08:50:32.988Z</time></trkpt><trkpt lat="42.790834346389744" lon="10.412771799804194"><ele>134.0</ele><time>2026-04-25T08:50:33.988Z</time></trkpt><trkpt lat="42.79094486060381" lon="10.41269458084389"><ele>134.0</ele><time>2026-04-25T08:50:34.988Z</time></trkpt><trkpt lat="42.791062560886616" lon="10.412629359127887"><ele>132.8</ele><time>2026-04-25T08:50:35.988Z</time></trkpt><trkpt lat="42.79116929860988" lon="10.412581085729387"><ele>131.60000000000002</ele><time>2026-04-25T08:50:36.988Z</time></trkpt><trkpt lat="42.79126572345" lon="10.412565089796539"><ele>130.4</ele><time>2026-04-25T08:50:37.988Z</time></trkpt><trkpt lat="42.79137510464482" lon="10.412585346105521"><ele>129.20000000000002</ele><time>2026-04-25T08:50:38.988Z</time></trkpt><trkpt lat="42.79149067274629" lon="10.412626923441778"><ele>128.0</ele><time>2026-04-25T08:50:39.988Z</time></trkpt><trkpt lat="42.79159900297962" lon="10.412652531678932"><ele>128.0</ele><time>2026-04-25T08:50:40.988Z</time></trkpt><trkpt lat="42.79170866656843" lon="10.412690674007605"><ele>128.0</ele><time>2026-04-25T08:50:41.988Z</time></trkpt><trkpt lat="42.79181585482744" lon="10.412701305734826"><ele>128.0</ele><time>2026-04-25T08:50:42.988Z</time></trkpt><trkpt lat="42.79188418249659" lon="10.412653848843943"><ele>128.0</ele><time>2026-04-25T08:50:43.988Z</time></trkpt><trkpt lat="42.791963703658496" lon="10.412567068035445"><ele>128.0</ele><time>2026-04-25T08:50:44.988Z</time></trkpt><trkpt lat="42.79200760414451" lon="10.412446596599487"><ele>127.0</ele><time>2026-04-25T08:50:45.988Z</time></trkpt><trkpt lat="42.79202130364002" lon="10.412303100673444"><ele>126.00000000000001</ele><time>2026-04-25T08:50:46.988Z</time></trkpt><trkpt lat="42.792011010970164" lon="10.412152095345075"><ele>125.00000000000001</ele><time>2026-04-25T08:50:47.988Z</time></trkpt><trkpt lat="42.791986162659946" lon="10.411999285833598"><ele>124.0</ele><time>2026-04-25T08:50:48.988Z</time></trkpt><trkpt lat="42.7919680787846" lon="10.411845240028384"><ele>123.0</ele><time>2026-04-25T08:50:49.988Z</time></trkpt><trkpt lat="42.79196166646282" lon="10.411719561318934"><ele>123.0</ele><time>2026-04-25T08:50:50.988Z</time></trkpt><trkpt lat="42.79199207745816" lon="10.41162691850249"><ele>123.0</ele><time>2026-04-25T08:50:51.988Z</time></trkpt><trkpt lat="42.79206406979021" lon="10.411548808793757"><ele>123.0</ele><time>2026-04-25T08:50:52.989Z</time></trkpt><trkpt lat="42.792153669562" lon="10.411505306177068"><ele>123.0</ele><time>2026-04-25T08:50:53.988Z</time></trkpt><trkpt lat="42.79224185023358" lon="10.411489731748384"><ele>123.0</ele><time>2026-04-25T08:50:54.988Z</time></trkpt><trkpt lat="42.79231536287078" lon="10.41147840237447"><ele>123.0</ele><time>2026-04-25T08:50:55.989Z</time></trkpt><trkpt lat="42.792378650939746" lon="10.411466793581074"><ele>123.0</ele><time>2026-04-25T08:50:56.989Z</time></trkpt><trkpt lat="42.79245521383194" lon="10.411433228971031"><ele>123.0</ele><time>2026-04-25T08:50:58.989Z</time></trkpt><trkpt lat="42.7925345462387" lon="10.411431160744089"><ele>123.0</ele><time>2026-04-25T08:51:03.989Z</time></trkpt><trkpt lat="42.79259647712692" lon="10.411411992271123"><ele>123.0</ele><time>2026-04-25T08:51:05.989Z</time></trkpt><trkpt lat="42.79267974398742" lon="10.411364072505574"><ele>123.0</ele><time>2026-04-25T08:51:07.989Z</time></trkpt><trkpt lat="42.79276010961937" lon="10.411347145649119"><ele>123.0</ele><time>2026-04-25T08:51:09.989Z</time></trkpt><trkpt lat="42.79283535400579" lon="10.41132587568191"><ele>122.0</ele><time>2026-04-25T08:51:11.989Z</time></trkpt><trkpt lat="42.79293907809583" lon="10.411308284364559"><ele>121.0</ele><time>2026-04-25T08:51:13.989Z</time></trkpt><trkpt lat="42.793015421146144" lon="10.41128130430537"><ele>120.0</ele><time>2026-04-25T08:51:15.989Z</time></trkpt><trkpt lat="42.793089693342004" lon="10.411295253070655"><ele>119.0</ele><time>2026-04-25T08:51:17.989Z</time></trkpt><trkpt lat="42.79328811868917" lon="10.411260864541623"><ele>119.0</ele><time>2026-04-25T08:51:22.989Z</time></trkpt><trkpt lat="42.79337190365023" lon="10.411236909659447"><ele>119.0</ele><time>2026-04-25T08:51:24.989Z</time></trkpt><trkpt lat="42.793517052293545" lon="10.411235252158793"><ele>119.0</ele><time>2026-04-25T08:51:27.989Z</time></trkpt><trkpt lat="42.793596898140706" lon="10.41120668412588"><ele>119.0</ele><time>2026-04-25T08:51:29.989Z</time></trkpt><trkpt lat="42.79368147037564" lon="10.411176902172153"><ele>119.0</ele><time>2026-04-25T08:51:31.988Z</time></trkpt><trkpt lat="42.79374292256046" lon="10.411121096058771"><ele>116.4</ele><time>2026-04-25T08:51:33.988Z</time></trkpt><trkpt lat="42.79385925424521" lon="10.411086744487989"><ele>113.80000000000001</ele><time>2026-04-25T08:51:35.988Z</time></trkpt><trkpt lat="42.793983919246116" lon="10.411011830433807"><ele>111.19999999999999</ele><time>2026-04-25T08:51:37.988Z</time></trkpt><trkpt lat="42.79404708890884" lon="10.41097250065598"><ele>108.6</ele><time>2026-04-25T08:51:38.988Z</time></trkpt><trkpt lat="42.79411005287596" lon="10.410948138355208"><ele>106.0</ele><time>2026-04-25T08:51:39.988Z</time></trkpt><trkpt lat="42.794180422942915" lon="10.41094080476647"><ele>106.0</ele><time>2026-04-25T08:51:40.988Z</time></trkpt><trkpt lat="42.79429810696915" lon="10.410949399004698"><ele>106.0</ele><time>2026-04-25T08:51:42.988Z</time></trkpt><trkpt lat="42.79438890599661" lon="10.410970965434892"><ele>106.0</ele><time>2026-04-25T08:51:44.988Z</time></trkpt><trkpt lat="42.794472373225496" lon="10.411016285439516"><ele>106.0</ele><time>2026-04-25T08:51:45.988Z</time></trkpt><trkpt lat="42.794593091491855" lon="10.411024154480813"><ele>106.0</ele><time>2026-04-25T08:51:46.988Z</time></trkpt><trkpt lat="42.79481340790152" lon="10.41103342415575"><ele>103.33333333333334</ele><time>2026-04-25T08:51:48.988Z</time></trkpt><trkpt lat="42.79492314136056" lon="10.41105207471234"><ele>100.66666666666666</ele><time>2026-04-25T08:51:49.988Z</time></trkpt><trkpt lat="42.79504526711562" lon="10.411058183158554"><ele>98.0</ele><time>2026-04-25T08:51:50.988Z</time></trkpt><trkpt lat="42.795303705537044" lon="10.411064461589477"><ele>96.80000000000001</ele><time>2026-04-25T08:51:52.988Z</time></trkpt><trkpt lat="42.7954250426259" lon="10.411079709679472"><ele>95.6</ele><time>2026-04-25T08:51:53.988Z</time></trkpt><trkpt lat="42.795534232474324" lon="10.411088494410176"><ele>94.4</ele><time>2026-04-25T08:51:54.988Z</time></trkpt><trkpt lat="42.79563279944415" lon="10.411105153557855"><ele>93.19999999999999</ele><time>2026-04-25T08:51:55.988Z</time></trkpt><trkpt lat="42.79572529464561" lon="10.411140516644013"><ele>92.0</ele><time>2026-04-25T08:51:56.988Z</time></trkpt><trkpt lat="42.7958155840151" lon="10.411198414253638"><ele>92.0</ele><time>2026-04-25T08:51:57.988Z</time></trkpt><trkpt lat="42.79591382669093" lon="10.411243621591757"><ele>92.0</ele><time>2026-04-25T08:51:58.988Z</time></trkpt><trkpt lat="42.79600152897787" lon="10.4112689460021"><ele>92.0</ele><time>2026-04-25T08:51:59.988Z</time></trkpt><trkpt lat="42.796082381341066" lon="10.411288966570275"><ele>92.0</ele><time>2026-04-25T08:52:00.988Z</time></trkpt><trkpt lat="42.79616207835799" lon="10.411305433258658"><ele>92.0</ele><time>2026-04-25T08:52:01.988Z</time></trkpt><trkpt lat="42.7962311573852" lon="10.411321041107655"><ele>92.0</ele><time>2026-04-25T08:52:02.988Z</time></trkpt><trkpt lat="42.796315501152414" lon="10.411349884872081"><ele>91.39999999999999</ele><time>2026-04-25T08:52:05.988Z</time></trkpt><trkpt lat="42.79641900781118" lon="10.411351122640152"><ele>90.8</ele><time>2026-04-25T08:52:08.988Z</time></trkpt><trkpt lat="42.79649293050438" lon="10.411359900474476"><ele>90.2</ele><time>2026-04-25T08:52:10.988Z</time></trkpt><trkpt lat="42.796631030816606" lon="10.411346584791877"><ele>89.6</ele><time>2026-04-25T08:52:14.988Z</time></trkpt><trkpt lat="42.79671479771098" lon="10.411344125954965"><ele>89.0</ele><time>2026-04-25T08:52:16.987Z</time></trkpt><trkpt lat="42.79690208925287" lon="10.411358254796422"><ele>85.25</ele><time>2026-04-25T08:52:20.987Z</time></trkpt><trkpt lat="42.7969943584676" lon="10.41137224853371"><ele>81.5</ele><time>2026-04-25T08:52:22.987Z</time></trkpt><trkpt lat="42.79717685257046" lon="10.411372504452666"><ele>77.75</ele><time>2026-04-25T08:52:26.987Z</time></trkpt><trkpt lat="42.79727403143325" lon="10.411365941205968"><ele>74.0</ele><time>2026-04-25T08:52:28.987Z</time></trkpt><trkpt lat="42.79739069418569" lon="10.41135302538534"><ele>74.0</ele><time>2026-04-25T08:52:31.987Z</time></trkpt><trkpt lat="42.79752682598028" lon="10.41135120210128"><ele>74.0</ele><time>2026-04-25T08:52:33.987Z</time></trkpt><trkpt lat="42.79760555747795" lon="10.41136119139239"><ele>74.0</ele><time>2026-04-25T08:52:34.987Z</time></trkpt><trkpt lat="42.797672417683245" lon="10.411365754022604"><ele>74.0</ele><time>2026-04-25T08:52:35.987Z</time></trkpt><trkpt lat="42.797781086190994" lon="10.411383570563952"><ele>74.0</ele><time>2026-04-25T08:52:37.987Z</time></trkpt><trkpt lat="42.797886808551304" lon="10.41138187301383"><ele>71.4</ele><time>2026-04-25T08:52:39.987Z</time></trkpt><trkpt lat="42.797980322034654" lon="10.411364520621058"><ele>68.80000000000001</ele><time>2026-04-25T08:52:41.987Z</time></trkpt><trkpt lat="42.79805148572594" lon="10.411359087307419"><ele>66.19999999999999</ele><time>2026-04-25T08:52:43.987Z</time></trkpt><trkpt lat="42.79816429453795" lon="10.411351757768132"><ele>63.599999999999994</ele><time>2026-04-25T08:52:45.987Z</time></trkpt><trkpt lat="42.79824152782592" lon="10.411333207114048"><ele>61.0</ele><time>2026-04-25T08:52:47.987Z</time></trkpt><trkpt lat="42.79835211401077" lon="10.411351337653661"><ele>60.99999999999999</ele><time>2026-04-25T08:52:49.987Z</time></trkpt><trkpt lat="42.79843782738266" lon="10.411381260557059"><ele>61.0</ele><time>2026-04-25T08:52:51.987Z</time></trkpt><trkpt lat="42.798500722780844" lon="10.411376547094074"><ele>61.0</ele><time>2026-04-25T08:52:52.987Z</time></trkpt><trkpt lat="42.79856616137445" lon="10.41140484693278"><ele>61.0</ele><time>2026-04-25T08:52:53.987Z</time></trkpt><trkpt lat="42.798647274611426" lon="10.411436737993082"><ele>60.99999999999999</ele><time>2026-04-25T08:52:55.987Z</time></trkpt><trkpt lat="42.798727318757464" lon="10.411500359990882"><ele>61.0</ele><time>2026-04-25T08:52:57.987Z</time></trkpt><trkpt lat="42.79881615311392" lon="10.41152787793986"><ele>56.5</ele><time>2026-04-25T08:52:59.988Z</time></trkpt><trkpt lat="42.798956889752276" lon="10.411522358228478"><ele>52.0</ele><time>2026-04-25T08:53:12.988Z</time></trkpt><trkpt lat="42.799036642418116" lon="10.41144728795931"><ele>47.5</ele><time>2026-04-25T08:53:14.988Z</time></trkpt><trkpt lat="42.79915721250216" lon="10.41134122116361"><ele>43.0</ele><time>2026-04-25T08:53:16.988Z</time></trkpt><trkpt lat="42.799228123791906" lon="10.411299539539646"><ele>43.0</ele><time>2026-04-25T08:53:17.988Z</time></trkpt><trkpt lat="42.79931690750426" lon="10.41126759382505"><ele>43.0</ele><time>2026-04-25T08:53:19.988Z</time></trkpt><trkpt lat="42.79953958018392" lon="10.411293349229538"><ele>43.0</ele><time>2026-04-25T08:53:23.988Z</time></trkpt><trkpt lat="42.79962815561314" lon="10.411297524820245"><ele>43.0</ele><time>2026-04-25T08:53:24.988Z</time></trkpt><trkpt lat="42.79969700372199" lon="10.411301922621776"><ele>43.4</ele><time>2026-04-25T08:53:25.988Z</time></trkpt><trkpt lat="42.799846863102545" lon="10.411318118139096"><ele>43.8</ele><time>2026-04-25T08:53:35.987Z</time></trkpt><trkpt lat="42.79991691489115" lon="10.411427130323066"><ele>44.2</ele><time>2026-04-25T08:53:38.987Z</time></trkpt><trkpt lat="42.79995754828863" lon="10.411500755178642"><ele>44.6</ele><time>2026-04-25T08:53:39.987Z</time></trkpt><trkpt lat="42.800003237962606" lon="10.411597038358593"><ele>45.0</ele><time>2026-04-25T08:53:40.987Z</time></trkpt><trkpt lat="42.80004221506065" lon="10.411673304654897"><ele>45.0</ele><time>2026-04-25T08:53:41.987Z</time></trkpt><trkpt lat="42.800096895409915" lon="10.411773345687687"><ele>45.0</ele><time>2026-04-25T08:53:43.987Z</time></trkpt><trkpt lat="42.800138550297795" lon="10.41185015123008"><ele>45.0</ele><time>2026-04-25T08:53:44.987Z</time></trkpt><trkpt lat="42.80018861311176" lon="10.411938390251883"><ele>45.0</ele><time>2026-04-25T08:53:45.987Z</time></trkpt><trkpt lat="42.80022941047647" lon="10.412023736842567"><ele>45.0</ele><time>2026-04-25T08:53:46.987Z</time></trkpt><trkpt lat="42.800265917717844" lon="10.412123588577334"><ele>45.0</ele><time>2026-04-25T08:53:47.987Z</time></trkpt><trkpt lat="42.80031303481926" lon="10.412212688505988"><ele>45.666666666666664</ele><time>2026-04-25T08:53:48.987Z</time></trkpt><trkpt lat="42.80036587152606" lon="10.412297136345396"><ele>46.33333333333333</ele><time>2026-04-25T08:53:49.987Z</time></trkpt><trkpt lat="42.80042078966442" lon="10.412362716311206"><ele>47.0</ele><time>2026-04-25T08:53:50.987Z</time></trkpt><trkpt lat="42.800512834210565" lon="10.412459202677915"><ele>47.666666666666664</ele><time>2026-04-25T08:53:52.987Z</time></trkpt><trkpt lat="42.80059120513156" lon="10.412541186578336"><ele>48.33333333333333</ele><time>2026-04-25T08:53:54.987Z</time></trkpt><trkpt lat="42.80063911362747" lon="10.412607304787533"><ele>49.0</ele><time>2026-04-25T08:53:55.987Z</time></trkpt><trkpt lat="42.80070346202731" lon="10.412741844989608"><ele>48.99999999999999</ele><time>2026-04-25T08:53:57.987Z</time></trkpt><trkpt lat="42.80074121791268" lon="10.41283164731085"><ele>49.0</ele><time>2026-04-25T08:53:58.987Z</time></trkpt><trkpt lat="42.80078356627862" lon="10.412927174286104"><ele>49.0</ele><time>2026-04-25T08:53:59.987Z</time></trkpt><trkpt lat="42.80083703296637" lon="10.41300826874299"><ele>49.0</ele><time>2026-04-25T08:54:00.987Z</time></trkpt><trkpt lat="42.80087128239407" lon="10.413085065676963"><ele>48.99999999999999</ele><time>2026-04-25T08:54:01.987Z</time></trkpt><trkpt lat="42.80093917526118" lon="10.413170629428954"><ele>49.0</ele><time>2026-04-25T08:54:03.987Z</time></trkpt><trkpt lat="42.801006129779275" lon="10.413277835353659"><ele>46.2</ele><time>2026-04-25T08:54:05.987Z</time></trkpt><trkpt lat="42.80108210156509" lon="10.41339617870139"><ele>43.400000000000006</ele><time>2026-04-25T08:54:07.987Z</time></trkpt><trkpt lat="42.80112923764154" lon="10.413464427051323"><ele>40.6</ele><time>2026-04-25T08:54:08.987Z</time></trkpt><trkpt lat="42.801216727362025" lon="10.413539636535004"><ele>37.8</ele><time>2026-04-25T08:54:09.987Z</time></trkpt><trkpt lat="42.801286286038135" lon="10.41361348138567"><ele>35.0</ele><time>2026-04-25T08:54:10.987Z</time></trkpt><trkpt lat="42.80135356466255" lon="10.413686195444914"><ele>35.0</ele><time>2026-04-25T08:54:11.987Z</time></trkpt><trkpt lat="42.80141782113118" lon="10.41375904504427"><ele>35.0</ele><time>2026-04-25T08:54:12.987Z</time></trkpt><trkpt lat="42.801473111792646" lon="10.413824910309092"><ele>35.0</ele><time>2026-04-25T08:54:13.986Z</time></trkpt><trkpt lat="42.801565012899054" lon="10.413903294305744"><ele>35.0</ele><time>2026-04-25T08:54:15.986Z</time></trkpt><trkpt lat="42.80166271807083" lon="10.413932029100303"><ele>35.0</ele><time>2026-04-25T08:54:17.986Z</time></trkpt><trkpt lat="42.801899260254615" lon="10.41393802141247"><ele>38.4</ele><time>2026-04-25T08:54:23.986Z</time></trkpt><trkpt lat="42.801962711326716" lon="10.413938288244257"><ele>41.8</ele><time>2026-04-25T08:54:24.986Z</time></trkpt><trkpt lat="42.80204114142225" lon="10.413946506003333"><ele>45.2</ele><time>2026-04-25T08:54:27.986Z</time></trkpt><trkpt lat="42.8021265475673" lon="10.41391303583886"><ele>48.6</ele><time>2026-04-25T08:54:29.986Z</time></trkpt><trkpt lat="42.80222855052136" lon="10.413906552306461"><ele>52.0</ele><time>2026-04-25T08:54:31.986Z</time></trkpt><trkpt lat="42.80241882332129" lon="10.413908068233136"><ele>52.0</ele><time>2026-04-25T08:54:35.986Z</time></trkpt><trkpt lat="42.80251317576028" lon="10.413895770578332"><ele>52.0</ele><time>2026-04-25T08:54:36.986Z</time></trkpt><trkpt lat="42.80259862610694" lon="10.413885110671615"><ele>52.0</ele><time>2026-04-25T08:54:37.986Z</time></trkpt><trkpt lat="42.802664205196926" lon="10.413875447722498"><ele>52.0</ele><time>2026-04-25T08:54:38.986Z</time></trkpt><trkpt lat="42.80278173532554" lon="10.413858614582054"><ele>52.0</ele><time>2026-04-25T08:54:40.986Z</time></trkpt><trkpt lat="42.80288437750906" lon="10.413845050266717"><ele>52.8</ele><time>2026-04-25T08:54:42.986Z</time></trkpt><trkpt lat="42.802965595137564" lon="10.413812719963861"><ele>53.6</ele><time>2026-04-25T08:54:44.986Z</time></trkpt><trkpt lat="42.80306863159675" lon="10.413764368081965"><ele>54.39999999999999</ele><time>2026-04-25T08:56:16.986Z</time></trkpt><trkpt lat="42.80311613709359" lon="10.413657018845347"><ele>55.199999999999996</ele><time>2026-04-25T08:56:18.986Z</time></trkpt><trkpt lat="42.80315992925196" lon="10.413499325517044"><ele>56.0</ele><time>2026-04-25T08:56:20.986Z</time></trkpt><trkpt lat="42.803184926265864" lon="10.413409183819038"><ele>56.0</ele><time>2026-04-25T08:56:21.986Z</time></trkpt><trkpt lat="42.803241671814476" lon="10.413334111988634"><ele>55.99999999999999</ele><time>2026-04-25T08:56:22.986Z</time></trkpt><trkpt lat="42.803276196530184" lon="10.413210302102142"><ele>55.99999999999999</ele><time>2026-04-25T08:56:23.986Z</time></trkpt><trkpt lat="42.803351560011244" lon="10.41309952663336"><ele>56.0</ele><time>2026-04-25T08:56:24.986Z</time></trkpt><trkpt lat="42.8034494339447" lon="10.41302827323682"><ele>56.0</ele><time>2026-04-25T08:56:25.986Z</time></trkpt><trkpt lat="42.8035328910687" lon="10.412915158757349"><ele>58.5</ele><time>2026-04-25T08:56:26.986Z</time></trkpt><trkpt lat="42.80364446324668" lon="10.412829829186537"><ele>61.0</ele><time>2026-04-25T08:56:27.986Z</time></trkpt><trkpt lat="42.80376336678666" lon="10.41274309842166"><ele>63.5</ele><time>2026-04-25T08:56:28.986Z</time></trkpt><trkpt lat="42.803859484029005" lon="10.412671575464127"><ele>66.0</ele><time>2026-04-25T08:56:29.986Z</time></trkpt><trkpt lat="42.80394555171019" lon="10.412583407919179"><ele>66.0</ele><time>2026-04-25T08:56:30.986Z</time></trkpt><trkpt lat="42.80402011508675" lon="10.412477090937822"><ele>66.0</ele><time>2026-04-25T08:56:31.985Z</time></trkpt><trkpt lat="42.80408662908215" lon="10.412348042204151"><ele>66.0</ele><time>2026-04-25T08:56:32.985Z</time></trkpt><trkpt lat="42.80414282192323" lon="10.412186200835556"><ele>66.0</ele><time>2026-04-25T08:56:33.985Z</time></trkpt><trkpt lat="42.804213080993364" lon="10.412019071149086"><ele>63.66666666666667</ele><time>2026-04-25T08:56:34.985Z</time></trkpt><trkpt lat="42.804295655414165" lon="10.411841749385232"><ele>61.333333333333336</ele><time>2026-04-25T08:56:35.985Z</time></trkpt><trkpt lat="42.804364135919435" lon="10.411649371339559"><ele>59.0</ele><time>2026-04-25T08:56:36.985Z</time></trkpt><trkpt lat="42.80444010142216" lon="10.411468909550733"><ele>62.25</ele><time>2026-04-25T08:56:37.985Z</time></trkpt><trkpt lat="42.804508361342236" lon="10.411315860662148"><ele>65.5</ele><time>2026-04-25T08:56:38.985Z</time></trkpt><trkpt lat="42.80456580776415" lon="10.411177255427539"><ele>68.75</ele><time>2026-04-25T08:56:39.985Z</time></trkpt><trkpt lat="42.80462337978228" lon="10.411036967866877"><ele>72.0</ele><time>2026-04-25T08:56:40.985Z</time></trkpt><trkpt lat="42.804690879300054" lon="10.410907639061861"><ele>72.0</ele><time>2026-04-25T08:56:41.985Z</time></trkpt><trkpt lat="42.80476803959269" lon="10.410803887606589"><ele>72.0</ele><time>2026-04-25T08:56:42.985Z</time></trkpt><trkpt lat="42.804850571321616" lon="10.410720306094193"><ele>72.0</ele><time>2026-04-25T08:56:43.985Z</time></trkpt><trkpt lat="42.804937377928766" lon="10.410673165739086"><ele>72.0</ele><time>2026-04-25T08:56:44.985Z</time></trkpt><trkpt lat="42.805031459362155" lon="10.410625381945112"><ele>72.0</ele><time>2026-04-25T08:56:45.985Z</time></trkpt><trkpt lat="42.805142881746654" lon="10.410596978995287"><ele>71.25</ele><time>2026-04-25T08:56:46.985Z</time></trkpt><trkpt lat="42.80525928722693" lon="10.410555396955488"><ele>70.5</ele><time>2026-04-25T08:56:47.985Z</time></trkpt><trkpt lat="42.805382664349125" lon="10.4105044054588"><ele>69.75</ele><time>2026-04-25T08:56:48.985Z</time></trkpt><trkpt lat="42.805493596396104" lon="10.410454094136083"><ele>69.0</ele><time>2026-04-25T08:56:49.985Z</time></trkpt><trkpt lat="42.8056124628353" lon="10.410398956487606"><ele>69.0</ele><time>2026-04-25T08:56:50.985Z</time></trkpt><trkpt lat="42.805738027710994" lon="10.410361130020847"><ele>69.0</ele><time>2026-04-25T08:56:51.985Z</time></trkpt><trkpt lat="42.805876481032364" lon="10.410319362632615"><ele>69.0</ele><time>2026-04-25T08:56:52.985Z</time></trkpt><trkpt lat="42.806008373385446" lon="10.410267826643915"><ele>69.0</ele><time>2026-04-25T08:56:53.985Z</time></trkpt><trkpt lat="42.80613414475319" lon="10.410226245466186"><ele>69.60000000000001</ele><time>2026-04-25T08:56:54.985Z</time></trkpt><trkpt lat="42.80625245619201" lon="10.410192198028705"><ele>70.2</ele><time>2026-04-25T08:56:55.985Z</time></trkpt><trkpt lat="42.806357241575824" lon="10.410152786007652"><ele>70.80000000000001</ele><time>2026-04-25T08:56:56.985Z</time></trkpt><trkpt lat="42.80645105551389" lon="10.410098449669777"><ele>71.4</ele><time>2026-04-25T08:56:57.985Z</time></trkpt><trkpt lat="42.80654105928486" lon="10.410034605322181"><ele>72.0</ele><time>2026-04-25T08:56:58.985Z</time></trkpt><trkpt lat="42.806628586701244" lon="10.40995228050226"><ele>72.0</ele><time>2026-04-25T08:56:59.985Z</time></trkpt><trkpt lat="42.80671044886371" lon="10.409863625851491"><ele>72.0</ele><time>2026-04-25T08:57:00.985Z</time></trkpt><trkpt lat="42.806775774352666" lon="10.40977443059887"><ele>72.0</ele><time>2026-04-25T08:57:01.985Z</time></trkpt><trkpt lat="42.80685950271422" lon="10.409690873624903"><ele>72.0</ele><time>2026-04-25T08:57:02.985Z</time></trkpt><trkpt lat="42.80693674514464" lon="10.409623502285337"><ele>72.0</ele><time>2026-04-25T08:57:03.985Z</time></trkpt><trkpt lat="42.80702444109153" lon="10.409545126316793"><ele>71.75</ele><time>2026-04-25T08:57:04.985Z</time></trkpt><trkpt lat="42.80711378278728" lon="10.409456610680534"><ele>71.5</ele><time>2026-04-25T08:57:05.985Z</time></trkpt><trkpt lat="42.807207450837765" lon="10.409356576576553"><ele>71.25</ele><time>2026-04-25T08:57:06.985Z</time></trkpt><trkpt lat="42.80730646132887" lon="10.409270572963548"><ele>71.0</ele><time>2026-04-25T08:57:07.985Z</time></trkpt><trkpt lat="42.80740291001665" lon="10.409204658934556"><ele>71.0</ele><time>2026-04-25T08:57:08.985Z</time></trkpt><trkpt lat="42.8075009455085" lon="10.409161057950104"><ele>71.0</ele><time>2026-04-25T08:57:09.985Z</time></trkpt><trkpt lat="42.80759237188696" lon="10.409143760733038"><ele>71.0</ele><time>2026-04-25T08:57:10.987Z</time></trkpt><trkpt lat="42.807684025336165" lon="10.409163420476176"><ele>71.0</ele><time>2026-04-25T08:57:11.986Z</time></trkpt><trkpt lat="42.80778084198802" lon="10.409206141289712"><ele>71.0</ele><time>2026-04-25T08:57:12.986Z</time></trkpt><trkpt lat="42.80789196552544" lon="10.409268243387123"><ele>71.8</ele><time>2026-04-25T08:57:13.986Z</time></trkpt><trkpt lat="42.807989756138134" lon="10.409331333024003"><ele>72.6</ele><time>2026-04-25T08:57:14.986Z</time></trkpt><trkpt lat="42.80808817095214" lon="10.409375976232171"><ele>73.4</ele><time>2026-04-25T08:57:15.986Z</time></trkpt><trkpt lat="42.80820474202804" lon="10.40939720311387"><ele>74.2</ele><time>2026-04-25T08:57:16.986Z</time></trkpt><trkpt lat="42.80832016094705" lon="10.40940016196293"><ele>75.0</ele><time>2026-04-25T08:57:17.986Z</time></trkpt><trkpt lat="42.80845643017054" lon="10.409408056153504"><ele>76.0</ele><time>2026-04-25T08:57:18.986Z</time></trkpt><trkpt lat="42.80859891766473" lon="10.40941877358898"><ele>77.0</ele><time>2026-04-25T08:57:19.986Z</time></trkpt><trkpt lat="42.80873554890944" lon="10.409421697595878"><ele>78.0</ele><time>2026-04-25T08:57:20.986Z</time></trkpt><trkpt lat="42.80886721184195" lon="10.409437396628105"><ele>79.0</ele><time>2026-04-25T08:57:21.985Z</time></trkpt><trkpt lat="42.80898644121104" lon="10.409431348912884"><ele>79.0</ele><time>2026-04-25T08:57:22.986Z</time></trkpt><trkpt lat="42.80911762200774" lon="10.409417235359449"><ele>79.0</ele><time>2026-04-25T08:57:23.986Z</time></trkpt><trkpt lat="42.8092600659446" lon="10.409394195738125"><ele>79.0</ele><time>2026-04-25T08:57:24.986Z</time></trkpt><trkpt lat="42.80938552792518" lon="10.409355519667663"><ele>79.0</ele><time>2026-04-25T08:57:25.986Z</time></trkpt><trkpt lat="42.809526420854304" lon="10.409302075191498"><ele>78.0</ele><time>2026-04-25T08:57:26.986Z</time></trkpt><trkpt lat="42.80965590620356" lon="10.409248909726188"><ele>77.0</ele><time>2026-04-25T08:57:27.986Z</time></trkpt><trkpt lat="42.80978176745796" lon="10.409204903975285"><ele>76.0</ele><time>2026-04-25T08:57:28.986Z</time></trkpt><trkpt lat="42.809894888731144" lon="10.409166640205491"><ele>75.0</ele><time>2026-04-25T08:57:29.986Z</time></trkpt><trkpt lat="42.810024196668856" lon="10.409155723023614"><ele>75.0</ele><time>2026-04-25T08:57:30.986Z</time></trkpt><trkpt lat="42.810148009259436" lon="10.409155905125088"><ele>75.0</ele><time>2026-04-25T08:57:31.986Z</time></trkpt><trkpt lat="42.81023704049885" lon="10.409155525431977"><ele>75.0</ele><time>2026-04-25T08:57:32.986Z</time></trkpt><trkpt lat="42.81031660651799" lon="10.409152627774862"><ele>75.0</ele><time>2026-04-25T08:57:33.986Z</time></trkpt><trkpt lat="42.810379133049054" lon="10.409142137965146"><ele>75.0</ele><time>2026-04-25T08:57:34.986Z</time></trkpt><trkpt lat="42.81047055598043" lon="10.409080553752142"><ele>74.25</ele><time>2026-04-25T08:57:36.986Z</time></trkpt><trkpt lat="42.81063674226831" lon="10.409107640457009"><ele>73.5</ele><time>2026-04-25T08:57:44.985Z</time></trkpt><trkpt lat="42.81074659058026" lon="10.409189716709381"><ele>72.75</ele><time>2026-04-25T08:57:45.985Z</time></trkpt><trkpt lat="42.81085758574956" lon="10.409271737125396"><ele>72.0</ele><time>2026-04-25T08:57:46.985Z</time></trkpt><trkpt lat="42.81096684626131" lon="10.40932019146931"><ele>70.4</ele><time>2026-04-25T08:57:47.985Z</time></trkpt><trkpt lat="42.81107362064074" lon="10.409327003942007"><ele>68.80000000000001</ele><time>2026-04-25T08:57:48.985Z</time></trkpt><trkpt lat="42.81117204926526" lon="10.40932928310983"><ele>67.2</ele><time>2026-04-25T08:57:49.985Z</time></trkpt><trkpt lat="42.81127116512358" lon="10.409328180547694"><ele>65.60000000000001</ele><time>2026-04-25T08:57:50.985Z</time></trkpt><trkpt lat="42.811378980537754" lon="10.409315138304565"><ele>64.0</ele><time>2026-04-25T08:57:51.985Z</time></trkpt><trkpt lat="42.81149612855465" lon="10.409279254921552"><ele>64.0</ele><time>2026-04-25T08:57:52.985Z</time></trkpt><trkpt lat="42.81160041594375" lon="10.40923026708338"><ele>64.0</ele><time>2026-04-25T08:57:53.985Z</time></trkpt><trkpt lat="42.81169051144849" lon="10.409158609126019"><ele>64.0</ele><time>2026-04-25T08:57:54.985Z</time></trkpt><trkpt lat="42.81176545192203" lon="10.409063210318864"><ele>64.0</ele><time>2026-04-25T08:57:55.985Z</time></trkpt><trkpt lat="42.811849386300736" lon="10.40896706144805"><ele>64.0</ele><time>2026-04-25T08:57:56.985Z</time></trkpt><trkpt lat="42.811935272475225" lon="10.408885050158583"><ele>63.83333333333333</ele><time>2026-04-25T08:57:57.985Z</time></trkpt><trkpt lat="42.81200844245568" lon="10.408809028087564"><ele>63.666666666666664</ele><time>2026-04-25T08:57:58.985Z</time></trkpt><trkpt lat="42.81208615212617" lon="10.408735624268157"><ele>63.5</ele><time>2026-04-25T08:57:59.985Z</time></trkpt><trkpt lat="42.812179813761794" lon="10.408709406516065"><ele>63.33333333333333</ele><time>2026-04-25T08:58:00.985Z</time></trkpt><trkpt lat="42.81225460807441" lon="10.408662919934546"><ele>63.166666666666664</ele><time>2026-04-25T08:58:01.985Z</time></trkpt><trkpt lat="42.81232439336246" lon="10.408640881723636"><ele>63.0</ele><time>2026-04-25T08:58:02.985Z</time></trkpt><trkpt lat="42.81240296437718" lon="10.408632951447911"><ele>63.0</ele><time>2026-04-25T08:58:03.985Z</time></trkpt><trkpt lat="42.81247833194353" lon="10.408627782755246"><ele>63.0</ele><time>2026-04-25T08:58:04.985Z</time></trkpt><trkpt lat="42.81255564455905" lon="10.408667239675287"><ele>63.0</ele><time>2026-04-25T08:58:05.985Z</time></trkpt><trkpt lat="42.81263076755406" lon="10.408744494013666"><ele>63.0</ele><time>2026-04-25T08:58:06.985Z</time></trkpt><trkpt lat="42.81269639233579" lon="10.408846915826512"><ele>63.0</ele><time>2026-04-25T08:58:07.985Z</time></trkpt><trkpt lat="42.81272406849521" lon="10.40896088695939"><ele>63.0</ele><time>2026-04-25T08:58:08.985Z</time></trkpt><trkpt lat="42.812730394125374" lon="10.409129449133987"><ele>61.25</ele><time>2026-04-25T08:58:09.985Z</time></trkpt><trkpt lat="42.81270366414001" lon="10.409303364772114"><ele>59.5</ele><time>2026-04-25T08:58:10.985Z</time></trkpt><trkpt lat="42.812662358642676" lon="10.40951554979387"><ele>57.75</ele><time>2026-04-25T08:58:11.985Z</time></trkpt><trkpt lat="42.812624232592036" lon="10.409710402456552"><ele>56.0</ele><time>2026-04-25T08:58:12.985Z</time></trkpt><trkpt lat="42.81259561976211" lon="10.40987409711128"><ele>55.75</ele><time>2026-04-25T08:58:13.985Z</time></trkpt><trkpt lat="42.81257210058573" lon="10.41002810032441"><ele>55.5</ele><time>2026-04-25T08:58:14.985Z</time></trkpt><trkpt lat="42.81256409453988" lon="10.410212715524082"><ele>55.25</ele><time>2026-04-25T08:58:15.985Z</time></trkpt><trkpt lat="42.81255860316284" lon="10.410459442474533"><ele>55.0</ele><time>2026-04-25T08:58:16.985Z</time></trkpt><trkpt lat="42.81252781568274" lon="10.410694323237692"><ele>54.0</ele><time>2026-04-25T08:58:17.985Z</time></trkpt><trkpt lat="42.81251945234145" lon="10.410929505017734"><ele>53.0</ele><time>2026-04-25T08:58:18.985Z</time></trkpt><trkpt lat="42.81251391720041" lon="10.411146486557996"><ele>52.0</ele><time>2026-04-25T08:58:19.985Z</time></trkpt><trkpt lat="42.81250609387885" lon="10.41135917000639"><ele>51.0</ele><time>2026-04-25T08:58:20.985Z</time></trkpt><trkpt lat="42.812498471348974" lon="10.41156556086455"><ele>50.0</ele><time>2026-04-25T08:58:21.985Z</time></trkpt><trkpt lat="42.81248219508857" lon="10.411755802675877"><ele>49.0</ele><time>2026-04-25T08:58:22.985Z</time></trkpt><trkpt lat="42.812457296398684" lon="10.411944162148663"><ele>48.0</ele><time>2026-04-25T08:58:23.985Z</time></trkpt><trkpt lat="42.81241945496511" lon="10.412125623447464"><ele>46.25</ele><time>2026-04-25T08:58:24.985Z</time></trkpt><trkpt lat="42.812378606646604" lon="10.4122939737714"><ele>44.5</ele><time>2026-04-25T08:58:25.985Z</time></trkpt><trkpt lat="42.8123385373237" lon="10.412444062104923"><ele>42.75</ele><time>2026-04-25T08:58:26.985Z</time></trkpt><trkpt lat="42.81230161039274" lon="10.412599037479772"><ele>41.0</ele><time>2026-04-25T08:58:27.985Z</time></trkpt><trkpt lat="42.8122677609945" lon="10.412721452112786"><ele>41.0</ele><time>2026-04-25T08:58:28.984Z</time></trkpt><trkpt lat="42.81224055200563" lon="10.412817767593841"><ele>41.0</ele><time>2026-04-25T08:58:29.984Z</time></trkpt><trkpt lat="42.81221943721344" lon="10.41291228784256"><ele>41.0</ele><time>2026-04-25T08:58:30.984Z</time></trkpt><trkpt lat="42.81220226894306" lon="10.413008427998523"><ele>41.0</ele><time>2026-04-25T08:58:31.984Z</time></trkpt><trkpt lat="42.81221435719128" lon="10.413135995662367"><ele>41.0</ele><time>2026-04-25T08:58:32.984Z</time></trkpt><trkpt lat="42.812253761065584" lon="10.413299698591677"><ele>41.0</ele><time>2026-04-25T08:58:33.984Z</time></trkpt><trkpt lat="42.812302386850895" lon="10.413462015468333"><ele>40.0</ele><time>2026-04-25T08:58:34.984Z</time></trkpt><trkpt lat="42.81233471384561" lon="10.413625586990603"><ele>39.0</ele><time>2026-04-25T08:58:35.984Z</time></trkpt><trkpt lat="42.81237442324527" lon="10.413808349165805"><ele>38.0</ele><time>2026-04-25T08:58:36.984Z</time></trkpt><trkpt lat="42.8124161694077" lon="10.413994908212016"><ele>37.0</ele><time>2026-04-25T08:58:37.984Z</time></trkpt><trkpt lat="42.81249848180722" lon="10.414161766118058"><ele>37.25</ele><time>2026-04-25T08:58:38.984Z</time></trkpt><trkpt lat="42.81259174278867" lon="10.414310642091495"><ele>37.5</ele><time>2026-04-25T08:58:39.984Z</time></trkpt><trkpt lat="42.812676208467956" lon="10.414432427887002"><ele>37.75</ele><time>2026-04-25T08:58:40.984Z</time></trkpt><trkpt lat="42.81276531887673" lon="10.414534821458899"><ele>38.0</ele><time>2026-04-25T08:58:41.984Z</time></trkpt><trkpt lat="42.812806024714504" lon="10.414668778654988"><ele>37.25</ele><time>2026-04-25T08:58:42.984Z</time></trkpt><trkpt lat="42.8128139347081" lon="10.414833531023254"><ele>36.5</ele><time>2026-04-25T08:58:43.984Z</time></trkpt><trkpt lat="42.812812923296214" lon="10.414991273676765"><ele>35.75</ele><time>2026-04-25T08:58:44.984Z</time></trkpt><trkpt lat="42.81282008800592" lon="10.415147617146228"><ele>35.0</ele><time>2026-04-25T08:58:45.984Z</time></trkpt><trkpt lat="42.812830017882725" lon="10.415287630207851"><ele>35.0</ele><time>2026-04-25T08:58:46.984Z</time></trkpt><trkpt lat="42.81284109550033" lon="10.415399113183136"><ele>35.0</ele><time>2026-04-25T08:58:47.984Z</time></trkpt><trkpt lat="42.812858558733446" lon="10.41548203666356"><ele>35.0</ele><time>2026-04-25T08:58:48.984Z</time></trkpt><trkpt lat="42.81286742753344" lon="10.415613246330414"><ele>35.0</ele><time>2026-04-25T08:58:50.984Z</time></trkpt><trkpt lat="42.81297232570406" lon="10.415689264285255"><ele>35.0</ele><time>2026-04-25T08:58:52.984Z</time></trkpt><trkpt lat="42.81301964421087" lon="10.415748941274927"><ele>35.0</ele><time>2026-04-25T08:59:43.985Z</time></trkpt><trkpt lat="42.81306746830542" lon="10.415850318596751"><ele>34.25</ele><time>2026-04-25T08:59:45.985Z</time></trkpt><trkpt lat="42.81314374030076" lon="10.415953254138078"><ele>33.5</ele><time>2026-04-25T08:59:46.985Z</time></trkpt><trkpt lat="42.81324781694067" lon="10.416102835554117"><ele>32.75</ele><time>2026-04-25T08:59:47.985Z</time></trkpt><trkpt lat="42.81336295627524" lon="10.416263114580094"><ele>32.0</ele><time>2026-04-25T08:59:48.985Z</time></trkpt><trkpt lat="42.81346892613749" lon="10.416410629259337"><ele>33.0</ele><time>2026-04-25T08:59:49.985Z</time></trkpt><trkpt lat="42.81357203436167" lon="10.41652602056586"><ele>34.0</ele><time>2026-04-25T08:59:50.985Z</time></trkpt><trkpt lat="42.813647873561685" lon="10.41666410260196"><ele>35.0</ele><time>2026-04-25T08:59:51.985Z</time></trkpt><trkpt lat="42.81371708617435" lon="10.416775870507788"><ele>36.0</ele><time>2026-04-25T08:59:52.985Z</time></trkpt><trkpt lat="42.81375004567263" lon="10.416931848151382"><ele>36.0</ele><time>2026-04-25T08:59:53.985Z</time></trkpt><trkpt lat="42.81381347717052" lon="10.41708964354029"><ele>36.0</ele><time>2026-04-25T08:59:54.985Z</time></trkpt><trkpt lat="42.81385446277126" lon="10.417271518186684"><ele>36.0</ele><time>2026-04-25T08:59:55.985Z</time></trkpt><trkpt lat="42.81386651753851" lon="10.41746514249101"><ele>36.0</ele><time>2026-04-25T08:59:56.985Z</time></trkpt><trkpt lat="42.81384229278248" lon="10.417659354038605"><ele>36.0</ele><time>2026-04-25T08:59:57.985Z</time></trkpt><trkpt lat="42.81380013976438" lon="10.417853326636374"><ele>36.0</ele><time>2026-04-25T08:59:58.985Z</time></trkpt><trkpt lat="42.81374498989328" lon="10.418059759918293"><ele>36.0</ele><time>2026-04-25T08:59:59.985Z</time></trkpt><trkpt lat="42.81369417474551" lon="10.418257431929455"><ele>41.0</ele><time>2026-04-25T09:00:00.985Z</time></trkpt><trkpt lat="42.813659541626706" lon="10.418470898260088"><ele>46.0</ele><time>2026-04-25T09:00:01.985Z</time></trkpt><trkpt lat="42.81363584761291" lon="10.418691782936701"><ele>51.0</ele><time>2026-04-25T09:00:02.985Z</time></trkpt><trkpt lat="42.813610068121676" lon="10.418907389128934"><ele>53.25</ele><time>2026-04-25T09:00:03.985Z</time></trkpt><trkpt lat="42.81357258228519" lon="10.419113490062248"><ele>55.5</ele><time>2026-04-25T09:00:04.985Z</time></trkpt><trkpt lat="42.813545923400596" lon="10.419313287247082"><ele>57.75</ele><time>2026-04-25T09:00:05.985Z</time></trkpt><trkpt lat="42.81353483823501" lon="10.419508869599607"><ele>60.0</ele><time>2026-04-25T09:00:06.985Z</time></trkpt><trkpt lat="42.813541421941174" lon="10.419695215126486"><ele>60.0</ele><time>2026-04-25T09:00:07.985Z</time></trkpt><trkpt lat="42.81353900156" lon="10.419867809479543"><ele>60.0</ele><time>2026-04-25T09:00:08.985Z</time></trkpt><trkpt lat="42.8135543790655" lon="10.42003708369095"><ele>60.0</ele><time>2026-04-25T09:00:09.985Z</time></trkpt><trkpt lat="42.81357854031371" lon="10.420190522253142"><ele>60.0</ele><time>2026-04-25T09:00:10.985Z</time></trkpt><trkpt lat="42.81362736037875" lon="10.420335438665147"><ele>60.0</ele><time>2026-04-25T09:00:11.985Z</time></trkpt><trkpt lat="42.813682112184246" lon="10.420465605684464"><ele>60.0</ele><time>2026-04-25T09:00:12.985Z</time></trkpt><trkpt lat="42.813761572935434" lon="10.420562461810412"><ele>60.0</ele><time>2026-04-25T09:00:13.984Z</time></trkpt><trkpt lat="42.81381323032802" lon="10.420652292810889"><ele>60.0</ele><time>2026-04-25T09:00:14.984Z</time></trkpt><trkpt lat="42.81388378748117" lon="10.420765909356861"><ele>60.0</ele><time>2026-04-25T09:00:16.984Z</time></trkpt><trkpt lat="42.81390020426112" lon="10.42085168200203"><ele>56.666666666666664</ele><time>2026-04-25T09:00:21.984Z</time></trkpt><trkpt lat="42.81394775626656" lon="10.420927174168076"><ele>53.333333333333336</ele><time>2026-04-25T09:00:23.984Z</time></trkpt><trkpt lat="42.814027419437934" lon="10.421068669652929"><ele>50.0</ele><time>2026-04-25T09:00:25.984Z</time></trkpt><trkpt lat="42.81406589701995" lon="10.421148003171016"><ele>46.66666666666667</ele><time>2026-04-25T09:00:26.984Z</time></trkpt><trkpt lat="42.81411488327573" lon="10.421263366771546"><ele>43.333333333333336</ele><time>2026-04-25T09:00:28.984Z</time></trkpt><trkpt lat="42.81414631593541" lon="10.421349291250785"><ele>40.0</ele><time>2026-04-25T09:00:30.984Z</time></trkpt><trkpt lat="42.81414632105365" lon="10.421453019647577"><ele>37.0</ele><time>2026-04-25T09:00:32.984Z</time></trkpt><trkpt lat="42.8140718267493" lon="10.421735457845307"><ele>34.0</ele><time>2026-04-25T09:00:34.984Z</time></trkpt><trkpt lat="42.81400876672459" lon="10.421750301776127"><ele>31.0</ele><time>2026-04-25T09:00:35.984Z</time></trkpt><trkpt lat="42.81393930203687" lon="10.421766809051048"><ele>28.0</ele><time>2026-04-25T09:00:36.984Z</time></trkpt><trkpt lat="42.813854468686436" lon="10.421787892742433"><ele>25.0</ele><time>2026-04-25T09:00:37.984Z</time></trkpt><trkpt lat="42.813785616363305" lon="10.421805591559819"><ele>25.0</ele><time>2026-04-25T09:00:38.984Z</time></trkpt><trkpt lat="42.813718365316426" lon="10.42185758794683"><ele>25.0</ele><time>2026-04-25T09:00:39.984Z</time></trkpt><trkpt lat="42.81363743946619" lon="10.421930255444375"><ele>25.0</ele><time>2026-04-25T09:00:40.984Z</time></trkpt><trkpt lat="42.81356199054653" lon="10.422098295055"><ele>25.0</ele><time>2026-04-25T09:00:41.984Z</time></trkpt><trkpt lat="42.813543478643616" lon="10.422271813225409"><ele>25.0</ele><time>2026-04-25T09:00:42.984Z</time></trkpt><trkpt lat="42.81353726549615" lon="10.422430981756218"><ele>24.0</ele><time>2026-04-25T09:00:43.984Z</time></trkpt><trkpt lat="42.81353148126371" lon="10.42260524135331"><ele>23.0</ele><time>2026-04-25T09:00:44.984Z</time></trkpt><trkpt lat="42.81352733424161" lon="10.422755052726144"><ele>22.0</ele><time>2026-04-25T09:00:45.984Z</time></trkpt><trkpt lat="42.81352451601661" lon="10.422894418829312"><ele>21.0</ele><time>2026-04-25T09:00:46.984Z</time></trkpt><trkpt lat="42.81353744447742" lon="10.423036551507236"><ele>20.0</ele><time>2026-04-25T09:00:47.984Z</time></trkpt><trkpt lat="42.813525402206615" lon="10.423177997972553"><ele>19.6</ele><time>2026-04-25T09:00:48.984Z</time></trkpt><trkpt lat="42.8135062260765" lon="10.423321933304495"><ele>19.2</ele><time>2026-04-25T09:00:49.984Z</time></trkpt><trkpt lat="42.813477889582416" lon="10.423458715012137"><ele>18.8</ele><time>2026-04-25T09:00:50.984Z</time></trkpt><trkpt lat="42.81343155729766" lon="10.423583279089218"><ele>18.4</ele><time>2026-04-25T09:00:51.984Z</time></trkpt><trkpt lat="42.813383834344265" lon="10.423720838699701"><ele>18.0</ele><time>2026-04-25T09:00:52.984Z</time></trkpt><trkpt lat="42.81332704843059" lon="10.423870092761803"><ele>20.6</ele><time>2026-04-25T09:00:53.984Z</time></trkpt><trkpt lat="42.81326364826537" lon="10.424006815982807"><ele>23.200000000000003</ele><time>2026-04-25T09:00:54.984Z</time></trkpt><trkpt lat="42.81319687132337" lon="10.424126753612825"><ele>25.8</ele><time>2026-04-25T09:00:55.984Z</time></trkpt><trkpt lat="42.8131642706274" lon="10.424262290775479"><ele>28.400000000000002</ele><time>2026-04-25T09:00:56.984Z</time></trkpt><trkpt lat="42.81311911311781" lon="10.424397887612969"><ele>31.0</ele><time>2026-04-25T09:00:57.983Z</time></trkpt><trkpt lat="42.81306789958837" lon="10.424531998935699"><ele>29.0</ele><time>2026-04-25T09:00:58.983Z</time></trkpt><trkpt lat="42.81302308984234" lon="10.424679037661045"><ele>27.0</ele><time>2026-04-25T09:00:59.983Z</time></trkpt><trkpt lat="42.81298039475916" lon="10.42481959705739"><ele>25.0</ele><time>2026-04-25T09:01:00.983Z</time></trkpt><trkpt lat="42.8129423162578" lon="10.424944957875358"><ele>23.0</ele><time>2026-04-25T09:01:01.983Z</time></trkpt><trkpt lat="42.81289968215034" lon="10.425061849051461"><ele>21.0</ele><time>2026-04-25T09:01:02.983Z</time></trkpt><trkpt lat="42.81282337729229" lon="10.425137155440074"><ele>21.0</ele><time>2026-04-25T09:01:03.983Z</time></trkpt><trkpt lat="42.81272914049928" lon="10.425214452043244"><ele>21.0</ele><time>2026-04-25T09:01:04.983Z</time></trkpt><trkpt lat="42.8126396918895" lon="10.425277072713751"><ele>21.0</ele><time>2026-04-25T09:01:05.983Z</time></trkpt><trkpt lat="42.81255508011753" lon="10.425346499406043"><ele>21.0</ele><time>2026-04-25T09:01:06.983Z</time></trkpt><trkpt lat="42.81248194626853" lon="10.425420344405364"><ele>21.0</ele><time>2026-04-25T09:01:07.983Z</time></trkpt><trkpt lat="42.81240223399437" lon="10.425503714135708"><ele>24.200000000000003</ele><time>2026-04-25T09:01:08.983Z</time></trkpt><trkpt lat="42.812378351805656" lon="10.425642586907497"><ele>27.400000000000002</ele><time>2026-04-25T09:01:09.983Z</time></trkpt><trkpt lat="42.8123517619453" lon="10.425778215423037"><ele>30.6</ele><time>2026-04-25T09:01:10.983Z</time></trkpt><trkpt lat="42.81234309043902" lon="10.425931691708646"><ele>33.800000000000004</ele><time>2026-04-25T09:01:11.983Z</time></trkpt><trkpt lat="42.812346199381395" lon="10.42607829229016"><ele>37.0</ele><time>2026-04-25T09:01:12.983Z</time></trkpt><trkpt lat="42.81234777541345" lon="10.426218417464403"><ele>37.2</ele><time>2026-04-25T09:01:13.983Z</time></trkpt><trkpt lat="42.81235952823132" lon="10.42635988203251"><ele>37.400000000000006</ele><time>2026-04-25T09:01:14.983Z</time></trkpt><trkpt lat="42.81238672114643" lon="10.426507507102475"><ele>37.599999999999994</ele><time>2026-04-25T09:01:15.983Z</time></trkpt><trkpt lat="42.81244022806346" lon="10.42665302325863"><ele>37.8</ele><time>2026-04-25T09:01:16.983Z</time></trkpt><trkpt lat="42.812491430373385" lon="10.426774074128888"><ele>38.0</ele><time>2026-04-25T09:01:17.983Z</time></trkpt><trkpt lat="42.81254313718707" lon="10.426898450154866"><ele>38.0</ele><time>2026-04-25T09:01:18.983Z</time></trkpt><trkpt lat="42.81259218327086" lon="10.427026730288668"><ele>38.0</ele><time>2026-04-25T09:01:19.983Z</time></trkpt><trkpt lat="42.812642582684234" lon="10.427164217449171"><ele>38.0</ele><time>2026-04-25T09:01:20.983Z</time></trkpt><trkpt lat="42.81269499124357" lon="10.427309830201166"><ele>38.0</ele><time>2026-04-25T09:01:21.983Z</time></trkpt><trkpt lat="42.81271754578052" lon="10.427437411290317"><ele>38.0</ele><time>2026-04-25T09:01:22.984Z</time></trkpt><trkpt lat="42.81273298558012" lon="10.427563681774664"><ele>37.8</ele><time>2026-04-25T09:01:23.985Z</time></trkpt><trkpt lat="42.81274648150544" lon="10.42768317723335"><ele>37.599999999999994</ele><time>2026-04-25T09:01:24.985Z</time></trkpt><trkpt lat="42.81275961842982" lon="10.427808169013309"><ele>37.400000000000006</ele><time>2026-04-25T09:01:25.984Z</time></trkpt><trkpt lat="42.81280821207331" lon="10.427921618841808"><ele>37.2</ele><time>2026-04-25T09:01:26.985Z</time></trkpt><trkpt lat="42.81287507180542" lon="10.42802562923369"><ele>37.0</ele><time>2026-04-25T09:01:27.985Z</time></trkpt><trkpt lat="42.812966014065275" lon="10.4281037862106"><ele>37.0</ele><time>2026-04-25T09:01:28.985Z</time></trkpt><trkpt lat="42.81306525603051" lon="10.428166370128464"><ele>37.0</ele><time>2026-04-25T09:01:29.984Z</time></trkpt><trkpt lat="42.81317488675133" lon="10.428230893803804"><ele>37.0</ele><time>2026-04-25T09:01:30.984Z</time></trkpt><trkpt lat="42.81327011309837" lon="10.428265284777847"><ele>37.0</ele><time>2026-04-25T09:01:31.984Z</time></trkpt><trkpt lat="42.81335232993041" lon="10.428331759648133"><ele>37.0</ele><time>2026-04-25T09:01:32.984Z</time></trkpt><trkpt lat="42.813430725297366" lon="10.428400172423153"><ele>35.5</ele><time>2026-04-25T09:01:33.984Z</time></trkpt><trkpt lat="42.813491488173554" lon="10.428485735603449"><ele>34.0</ele><time>2026-04-25T09:01:34.984Z</time></trkpt><trkpt lat="42.81354691912911" lon="10.428594051719394"><ele>32.5</ele><time>2026-04-25T09:01:35.984Z</time></trkpt><trkpt lat="42.81357178683817" lon="10.428714802645082"><ele>31.0</ele><time>2026-04-25T09:01:36.984Z</time></trkpt><trkpt lat="42.81356766494755" lon="10.428826962794483"><ele>29.500000000000004</ele><time>2026-04-25T09:01:37.984Z</time></trkpt><trkpt lat="42.813538561859765" lon="10.428920616246597"><ele>28.0</ele><time>2026-04-25T09:01:38.984Z</time></trkpt><trkpt lat="42.813486126334055" lon="10.42897328518953"><ele>28.000000000000004</ele><time>2026-04-25T09:01:39.984Z</time></trkpt><trkpt lat="42.81341911283095" lon="10.429008333373892"><ele>28.0</ele><time>2026-04-25T09:01:40.984Z</time></trkpt><trkpt lat="42.813345275397005" lon="10.429018293038876"><ele>28.0</ele><time>2026-04-25T09:01:41.984Z</time></trkpt><trkpt lat="42.81327614508729" lon="10.429007212165496"><ele>28.0</ele><time>2026-04-25T09:01:42.984Z</time></trkpt><trkpt lat="42.81321437774687" lon="10.42898572537352"><ele>28.000000000000004</ele><time>2026-04-25T09:01:43.984Z</time></trkpt><trkpt lat="42.8131091488849" lon="10.428925066935529"><ele>28.0</ele><time>2026-04-25T09:01:45.984Z</time></trkpt><trkpt lat="42.81304617173158" lon="10.428925842633554"><ele>28.0</ele><time>2026-04-25T09:01:46.984Z</time></trkpt><trkpt lat="42.81298027668579" lon="10.428850286118077"><ele>27.999999999999996</ele><time>2026-04-25T09:01:47.984Z</time></trkpt><trkpt lat="42.81291182352222" lon="10.428804829924802"><ele>27.999999999999996</ele><time>2026-04-25T09:01:48.984Z</time></trkpt><trkpt lat="42.8128488126482" lon="10.428769468358972"><ele>28.0</ele><time>2026-04-25T09:01:49.984Z</time></trkpt><trkpt lat="42.81273742561565" lon="10.428716064612873"><ele>28.0</ele><time>2026-04-25T09:01:51.984Z</time></trkpt><trkpt lat="42.81264596882862" lon="10.42860022490879"><ele>31.799999999999997</ele><time>2026-04-25T09:01:53.984Z</time></trkpt><trkpt lat="42.812587700042336" lon="10.428513505753816"><ele>35.599999999999994</ele><time>2026-04-25T09:01:54.984Z</time></trkpt><trkpt lat="42.81252277530839" lon="10.428410608391385"><ele>39.400000000000006</ele><time>2026-04-25T09:01:55.984Z</time></trkpt><trkpt lat="42.8124651621108" lon="10.428302510645628"><ele>43.2</ele><time>2026-04-25T09:01:56.984Z</time></trkpt><trkpt lat="42.81241206179213" lon="10.428192348697946"><ele>47.0</ele><time>2026-04-25T09:01:57.984Z</time></trkpt><trkpt lat="42.812348905985466" lon="10.428089402768009"><ele>46.83333333333333</ele><time>2026-04-25T09:01:58.984Z</time></trkpt><trkpt lat="42.812280582528665" lon="10.427973550998807"><ele>46.666666666666664</ele><time>2026-04-25T09:01:59.984Z</time></trkpt><trkpt lat="42.812221458652004" lon="10.427879809060434"><ele>46.5</ele><time>2026-04-25T09:02:00.984Z</time></trkpt><trkpt lat="42.812162707008454" lon="10.427786969468155"><ele>46.333333333333336</ele><time>2026-04-25T09:02:01.984Z</time></trkpt><trkpt lat="42.81211262947727" lon="10.427708662865516"><ele>46.16666666666667</ele><time>2026-04-25T09:02:02.984Z</time></trkpt><trkpt lat="42.81207017321269" lon="10.427630004836713"><ele>46.0</ele><time>2026-04-25T09:02:03.984Z</time></trkpt><trkpt lat="42.812037761754816" lon="10.42754529447642"><ele>46.0</ele><time>2026-04-25T09:02:04.984Z</time></trkpt><trkpt lat="42.81197458466536" lon="10.42747901360648"><ele>46.0</ele><time>2026-04-25T09:02:05.984Z</time></trkpt><trkpt lat="42.811899293831544" lon="10.427452261904275"><ele>46.0</ele><time>2026-04-25T09:02:06.984Z</time></trkpt><trkpt lat="42.811832025487256" lon="10.427415487684472"><ele>46.0</ele><time>2026-04-25T09:02:07.984Z</time></trkpt><trkpt lat="42.8117760173805" lon="10.427351457284013"><ele>46.0</ele><time>2026-04-25T09:02:08.984Z</time></trkpt><trkpt lat="42.81172593771519" lon="10.427259494943753"><ele>46.0</ele><time>2026-04-25T09:02:09.984Z</time></trkpt><trkpt lat="42.81165801535159" lon="10.427189727705272"><ele>50.599999999999994</ele><time>2026-04-25T09:02:10.984Z</time></trkpt><trkpt lat="42.81158903276959" lon="10.42713146942456"><ele>55.2</ele><time>2026-04-25T09:02:11.984Z</time></trkpt><trkpt lat="42.81149896163524" lon="10.427045671478917"><ele>59.800000000000004</ele><time>2026-04-25T09:02:13.984Z</time></trkpt><trkpt lat="42.81147182480328" lon="10.426884357406312"><ele>64.4</ele><time>2026-04-25T09:02:15.984Z</time></trkpt><trkpt lat="42.81139639332373" lon="10.426733901717439"><ele>69.0</ele><time>2026-04-25T09:02:17.984Z</time></trkpt><trkpt lat="42.8113021237181" lon="10.426711088675445"><ele>69.0</ele><time>2026-04-25T09:02:18.984Z</time></trkpt><trkpt lat="42.811236542555825" lon="10.426727559454017"><ele>69.0</ele><time>2026-04-25T09:02:19.983Z</time></trkpt><trkpt lat="42.811137485823416" lon="10.426750731795384"><ele>69.0</ele><time>2026-04-25T09:02:21.983Z</time></trkpt><trkpt lat="42.8110708297031" lon="10.426756191595357"><ele>69.0</ele><time>2026-04-25T09:02:22.983Z</time></trkpt><trkpt lat="42.810998866123946" lon="10.426748387094225"><ele>69.0</ele><time>2026-04-25T09:02:23.983Z</time></trkpt><trkpt lat="42.81091444840263" lon="10.426748295657342"><ele>69.0</ele><time>2026-04-25T09:02:24.983Z</time></trkpt><trkpt lat="42.81083073626018" lon="10.426692846327482"><ele>74.25</ele><time>2026-04-25T09:02:25.983Z</time></trkpt><trkpt lat="42.810763664307466" lon="10.426666329987096"><ele>79.5</ele><time>2026-04-25T09:02:26.983Z</time></trkpt><trkpt lat="42.810687706860406" lon="10.426638802241362"><ele>84.75</ele><time>2026-04-25T09:02:27.983Z</time></trkpt><trkpt lat="42.81049892044335" lon="10.426586813180178"><ele>90.0</ele><time>2026-04-25T09:02:29.983Z</time></trkpt><trkpt lat="42.810391168153" lon="10.426631256344631"><ele>90.0</ele><time>2026-04-25T09:02:30.983Z</time></trkpt><trkpt lat="42.81028676664367" lon="10.426704246672312"><ele>90.0</ele><time>2026-04-25T09:02:32.983Z</time></trkpt><trkpt lat="42.81020677755209" lon="10.426725388682556"><ele>90.0</ele><time>2026-04-25T09:02:33.983Z</time></trkpt><trkpt lat="42.81010519281188" lon="10.426674400444732"><ele>90.0</ele><time>2026-04-25T09:02:34.983Z</time></trkpt><trkpt lat="42.810000091755086" lon="10.426617761144636"><ele>90.0</ele><time>2026-04-25T09:02:35.983Z</time></trkpt><trkpt lat="42.80991859653056" lon="10.426569380812392"><ele>92.28571428571428</ele><time>2026-04-25T09:02:36.983Z</time></trkpt><trkpt lat="42.809856608866625" lon="10.426516249272582"><ele>94.57142857142858</ele><time>2026-04-25T09:02:37.983Z</time></trkpt><trkpt lat="42.809805574572074" lon="10.426460407024477"><ele>96.85714285714286</ele><time>2026-04-25T09:02:38.983Z</time></trkpt><trkpt lat="42.80975314007749" lon="10.42640552550702"><ele>99.14285714285714</ele><time>2026-04-25T09:02:39.983Z</time></trkpt><trkpt lat="42.809693386160475" lon="10.426353633813715"><ele>101.42857142857142</ele><time>2026-04-25T09:02:40.983Z</time></trkpt><trkpt lat="42.80965716551098" lon="10.42624249945126"><ele>103.71428571428572</ele><time>2026-04-25T09:02:41.983Z</time></trkpt><trkpt lat="42.80965426567239" lon="10.4261276143096"><ele>106.0</ele><time>2026-04-25T09:02:42.983Z</time></trkpt><trkpt lat="42.80960713737718" lon="10.42601521821195"><ele>106.83333333333334</ele><time>2026-04-25T09:02:44.983Z</time></trkpt><trkpt lat="42.80954267205967" lon="10.42599850104957"><ele>107.66666666666667</ele><time>2026-04-25T09:02:46.983Z</time></trkpt><trkpt lat="42.80946151006928" lon="10.425961425177501"><ele>108.5</ele><time>2026-04-25T09:02:49.983Z</time></trkpt><trkpt lat="42.80937752392024" lon="10.425903820265162"><ele>109.33333333333334</ele><time>2026-04-25T09:02:51.983Z</time></trkpt><trkpt lat="42.809296659524954" lon="10.425825042171047"><ele>110.16666666666667</ele><time>2026-04-25T09:02:53.983Z</time></trkpt><trkpt lat="42.80920718852463" lon="10.425772312534155"><ele>111.0</ele><time>2026-04-25T09:02:55.983Z</time></trkpt><trkpt lat="42.80914276473383" lon="10.42575839990081"><ele>111.66666666666667</ele><time>2026-04-25T09:02:56.983Z</time></trkpt><trkpt lat="42.80907798702136" lon="10.425758554334541"><ele>112.33333333333334</ele><time>2026-04-25T09:02:57.983Z</time></trkpt><trkpt lat="42.80901435587056" lon="10.425749414829811"><ele>113.0</ele><time>2026-04-25T09:02:58.983Z</time></trkpt><trkpt lat="42.808949062470106" lon="10.425741020885534"><ele>113.66666666666667</ele><time>2026-04-25T09:02:59.983Z</time></trkpt><trkpt lat="42.8088785490596" lon="10.425734036626364"><ele>114.33333333333334</ele><time>2026-04-25T09:03:00.983Z</time></trkpt><trkpt lat="42.80878568558763" lon="10.425732382784364"><ele>115.0</ele><time>2026-04-25T09:03:01.983Z</time></trkpt><trkpt lat="42.80868128483826" lon="10.425753654951352"><ele>115.0</ele><time>2026-04-25T09:03:02.982Z</time></trkpt><trkpt lat="42.80857171026788" lon="10.425779418691922"><ele>115.0</ele><time>2026-04-25T09:03:03.982Z</time></trkpt><trkpt lat="42.80846734834542" lon="10.425812152531476"><ele>115.0</ele><time>2026-04-25T09:03:04.982Z</time></trkpt><trkpt lat="42.80837245940808" lon="10.425835951979114"><ele>115.0</ele><time>2026-04-25T09:03:05.982Z</time></trkpt><trkpt lat="42.80828293650173" lon="10.42586625697948"><ele>115.0</ele><time>2026-04-25T09:03:06.982Z</time></trkpt><trkpt lat="42.80819195819395" lon="10.425888379441606"><ele>114.33333333333334</ele><time>2026-04-25T09:03:07.982Z</time></trkpt><trkpt lat="42.80810541865489" lon="10.425911653551372"><ele>113.66666666666667</ele><time>2026-04-25T09:03:08.982Z</time></trkpt><trkpt lat="42.808016818810074" lon="10.425923496836994"><ele>113.0</ele><time>2026-04-25T09:03:09.982Z</time></trkpt><trkpt lat="42.80792832076185" lon="10.42593831898126"><ele>112.33333333333334</ele><time>2026-04-25T09:03:10.982Z</time></trkpt><trkpt lat="42.807841229247806" lon="10.42595509921013"><ele>111.66666666666667</ele><time>2026-04-25T09:03:11.982Z</time></trkpt><trkpt lat="42.80775142773824" lon="10.425967602475863"><ele>111.0</ele><time>2026-04-25T09:03:12.982Z</time></trkpt><trkpt lat="42.8076633265266" lon="10.425980604017623"><ele>111.33333333333333</ele><time>2026-04-25T09:03:13.982Z</time></trkpt><trkpt lat="42.80757620297619" lon="10.426002458865158"><ele>111.66666666666666</ele><time>2026-04-25T09:03:14.982Z</time></trkpt><trkpt lat="42.807493761312045" lon="10.426035389395253"><ele>112.0</ele><time>2026-04-25T09:03:15.982Z</time></trkpt><trkpt lat="42.80741314190815" lon="10.426079199922949"><ele>112.33333333333333</ele><time>2026-04-25T09:03:16.982Z</time></trkpt><trkpt lat="42.8073339830235" lon="10.426136445056011"><ele>112.66666666666666</ele><time>2026-04-25T09:03:17.982Z</time></trkpt><trkpt lat="42.80725602989762" lon="10.426201749540269"><ele>113.0</ele><time>2026-04-25T09:03:18.982Z</time></trkpt><trkpt lat="42.807176042467134" lon="10.426259573440685"><ele>109.83333333333333</ele><time>2026-04-25T09:03:19.982Z</time></trkpt><trkpt lat="42.80709818700027" lon="10.426312048212049"><ele>106.66666666666666</ele><time>2026-04-25T09:03:20.982Z</time></trkpt><trkpt lat="42.80702238431513" lon="10.42637609884723"><ele>103.5</ele><time>2026-04-25T09:03:21.982Z</time></trkpt><trkpt lat="42.80694804383281" lon="10.426437999673462"><ele>100.33333333333333</ele><time>2026-04-25T09:03:22.982Z</time></trkpt><trkpt lat="42.80687388229615" lon="10.426498832051522"><ele>97.16666666666666</ele><time>2026-04-25T09:03:23.982Z</time></trkpt><trkpt lat="42.806801995187364" lon="10.426556814629256"><ele>94.0</ele><time>2026-04-25T09:03:24.982Z</time></trkpt><trkpt lat="42.806734311074266" lon="10.426609947565016"><ele>94.0</ele><time>2026-04-25T09:03:25.982Z</time></trkpt><trkpt lat="42.80666622437251" lon="10.426681337736149"><ele>94.0</ele><time>2026-04-25T09:03:26.982Z</time></trkpt><trkpt lat="42.80660567908017" lon="10.426762210220295"><ele>94.0</ele><time>2026-04-25T09:03:27.982Z</time></trkpt><trkpt lat="42.80650466592949" lon="10.426838107895097"><ele>94.0</ele><time>2026-04-25T09:03:29.983Z</time></trkpt><trkpt lat="42.80644189954721" lon="10.426853309658279"><ele>94.0</ele><time>2026-04-25T09:03:30.983Z</time></trkpt><trkpt lat="42.806325904312146" lon="10.426856534716777"><ele>94.0</ele><time>2026-04-25T09:03:32.984Z</time></trkpt><trkpt lat="42.806246285654275" lon="10.426850611970112"><ele>94.0</ele><time>2026-04-25T09:03:33.984Z</time></trkpt><trkpt lat="42.80616064209629" lon="10.426849031615353"><ele>94.0</ele><time>2026-04-25T09:03:34.983Z</time></trkpt><trkpt lat="42.80608311514922" lon="10.426850060994878"><ele>94.0</ele><time>2026-04-25T09:03:35.983Z</time></trkpt><trkpt lat="42.806007212867875" lon="10.426866423751587"><ele>94.0</ele><time>2026-04-25T09:03:36.983Z</time></trkpt><trkpt lat="42.805941239205275" lon="10.42687904079708"><ele>94.0</ele><time>2026-04-25T09:03:37.984Z</time></trkpt><trkpt lat="42.80587460141347" lon="10.426898860154267"><ele>94.0</ele><time>2026-04-25T09:03:38.983Z</time></trkpt><trkpt lat="42.80575031161271" lon="10.42694690738632"><ele>94.0</ele><time>2026-04-25T09:03:40.984Z</time></trkpt><trkpt lat="42.80561816765543" lon="10.426979105125692"><ele>94.0</ele><time>2026-04-25T09:03:42.983Z</time></trkpt><trkpt lat="42.80554212786332" lon="10.427019463006804"><ele>94.0</ele><time>2026-04-25T09:03:43.983Z</time></trkpt><trkpt lat="42.805436759517065" lon="10.427079992472114"><ele>88.75</ele><time>2026-04-25T09:03:45.983Z</time></trkpt><trkpt lat="42.80533222516717" lon="10.427200166833613"><ele>83.5</ele><time>2026-04-25T09:03:47.983Z</time></trkpt><trkpt lat="42.80534145514309" lon="10.427377044685025"><ele>78.25</ele><time>2026-04-25T09:03:49.983Z</time></trkpt><trkpt lat="42.805349045516095" lon="10.427471518800033"><ele>73.0</ele><time>2026-04-25T09:03:50.983Z</time></trkpt><trkpt lat="42.8053946505983" lon="10.427622889123832"><ele>73.0</ele><time>2026-04-25T09:03:52.983Z</time></trkpt><trkpt lat="42.80542504354293" lon="10.427702695123482"><ele>73.0</ele><time>2026-04-25T09:03:53.983Z</time></trkpt><trkpt lat="42.80537617728227" lon="10.427849438936377"><ele>73.0</ele><time>2026-04-25T09:03:55.983Z</time></trkpt><trkpt lat="42.805319802852814" lon="10.427896316994396"><ele>73.0</ele><time>2026-04-25T09:03:56.983Z</time></trkpt><trkpt lat="42.80525616712371" lon="10.427921542394046"><ele>73.0</ele><time>2026-04-25T09:03:57.983Z</time></trkpt><trkpt lat="42.80517680000352" lon="10.42795987852092"><ele>73.0</ele><time>2026-04-25T09:03:58.983Z</time></trkpt><trkpt lat="42.80509648326626" lon="10.428006231008998"><ele>70.83333333333333</ele><time>2026-04-25T09:03:59.983Z</time></trkpt><trkpt lat="42.80501599229998" lon="10.428060029731236"><ele>68.66666666666666</ele><time>2026-04-25T09:04:00.983Z</time></trkpt><trkpt lat="42.80494221851924" lon="10.42810489811483"><ele>66.5</ele><time>2026-04-25T09:04:01.983Z</time></trkpt><trkpt lat="42.80487926731238" lon="10.428141093860653"><ele>64.33333333333333</ele><time>2026-04-25T09:04:02.983Z</time></trkpt><trkpt lat="42.80478058831028" lon="10.428197525831465"><ele>62.166666666666664</ele><time>2026-04-25T09:04:04.983Z</time></trkpt><trkpt lat="42.80468178452065" lon="10.42821803064174"><ele>60.0</ele><time>2026-04-25T09:04:06.983Z</time></trkpt><trkpt lat="42.80461100134919" lon="10.428193217063624"><ele>60.0</ele><time>2026-04-25T09:04:07.983Z</time></trkpt><trkpt lat="42.804541376285634" lon="10.42815821835495"><ele>60.0</ele><time>2026-04-25T09:04:08.983Z</time></trkpt><trkpt lat="42.80447218524259" lon="10.428115400543026"><ele>60.0</ele><time>2026-04-25T09:04:09.983Z</time></trkpt><trkpt lat="42.804411119852354" lon="10.428053663268836"><ele>60.0</ele><time>2026-04-25T09:04:10.983Z</time></trkpt><trkpt lat="42.804336638547426" lon="10.42796955568517"><ele>60.0</ele><time>2026-04-25T09:04:12.983Z</time></trkpt><trkpt lat="42.80424605771989" lon="10.427948921861573"><ele>60.0</ele><time>2026-04-25T09:04:14.983Z</time></trkpt><trkpt lat="42.80421652221611" lon="10.428070370982335"><ele>60.0</ele><time>2026-04-25T09:04:16.982Z</time></trkpt><trkpt lat="42.80421915585737" lon="10.42820182977514"><ele>60.0</ele><time>2026-04-25T09:04:18.982Z</time></trkpt><trkpt lat="42.80422941600905" lon="10.428292595603592"><ele>60.0</ele><time>2026-04-25T09:04:21.982Z</time></trkpt><trkpt lat="42.804391543662426" lon="10.428505013876375"><ele>60.0</ele><time>2026-04-25T09:04:25.982Z</time></trkpt><trkpt lat="42.80446618142769" lon="10.428668333924733"><ele>60.0</ele><time>2026-04-25T09:04:26.982Z</time></trkpt><trkpt lat="42.80450220516508" lon="10.428799309668056"><ele>60.0</ele><time>2026-04-25T09:04:27.982Z</time></trkpt><trkpt lat="42.80454001061323" lon="10.428925747965827"><ele>60.0</ele><time>2026-04-25T09:04:28.982Z</time></trkpt><trkpt lat="42.80455249648056" lon="10.429049858983708"><ele>60.0</ele><time>2026-04-25T09:04:29.982Z</time></trkpt><trkpt lat="42.804546961639204" lon="10.429191521524373"><ele>60.0</ele><time>2026-04-25T09:04:30.982Z</time></trkpt><trkpt lat="42.804522242899864" lon="10.429309478708511"><ele>59.0</ele><time>2026-04-25T09:04:31.982Z</time></trkpt><trkpt lat="42.80447195787653" lon="10.429402124234809"><ele>58.0</ele><time>2026-04-25T09:04:32.982Z</time></trkpt><trkpt lat="42.80440070855237" lon="10.429508080952345"><ele>57.0</ele><time>2026-04-25T09:04:33.982Z</time></trkpt><trkpt lat="42.80432532730107" lon="10.429586363270676"><ele>56.0</ele><time>2026-04-25T09:04:34.982Z</time></trkpt><trkpt lat="42.80425627624713" lon="10.429668910208438"><ele>55.0</ele><time>2026-04-25T09:04:35.982Z</time></trkpt><trkpt lat="42.804207700189075" lon="10.429758683879339"><ele>55.0</ele><time>2026-04-25T09:04:36.982Z</time></trkpt><trkpt lat="42.804142177838415" lon="10.429828898615211"><ele>55.0</ele><time>2026-04-25T09:04:37.982Z</time></trkpt><trkpt lat="42.80410521604295" lon="10.429915628816664"><ele>55.0</ele><time>2026-04-25T09:04:38.982Z</time></trkpt><trkpt lat="42.804048392366134" lon="10.42998350065545"><ele>55.0</ele><time>2026-04-25T09:04:39.982Z</time></trkpt><trkpt lat="42.80392826414989" lon="10.430011825098058"><ele>55.0</ele><time>2026-04-25T09:04:41.982Z</time></trkpt><trkpt lat="42.80380793534892" lon="10.4299198210588"><ele>55.0</ele><time>2026-04-25T09:04:43.982Z</time></trkpt><trkpt lat="42.80374164681926" lon="10.429824488454758"><ele>55.0</ele><time>2026-04-25T09:04:44.982Z</time></trkpt><trkpt lat="42.803674953994424" lon="10.429716839816697"><ele>55.0</ele><time>2026-04-25T09:04:45.982Z</time></trkpt><trkpt lat="42.803611972456004" lon="10.429622793634337"><ele>55.0</ele><time>2026-04-25T09:04:46.982Z</time></trkpt><trkpt lat="42.803549171109154" lon="10.42952286827726"><ele>55.0</ele><time>2026-04-25T09:04:47.982Z</time></trkpt><trkpt lat="42.80347213284529" lon="10.429426710089691"><ele>57.2</ele><time>2026-04-25T09:04:48.982Z</time></trkpt><trkpt lat="42.80340455404157" lon="10.429339159009398"><ele>59.4</ele><time>2026-04-25T09:04:49.982Z</time></trkpt><trkpt lat="42.80333860259674" lon="10.429251649780499"><ele>61.599999999999994</ele><time>2026-04-25T09:04:50.982Z</time></trkpt><trkpt lat="42.80327737732642" lon="10.42916190909561"><ele>63.8</ele><time>2026-04-25T09:04:51.982Z</time></trkpt><trkpt lat="42.80321400503253" lon="10.429061316253485"><ele>66.0</ele><time>2026-04-25T09:04:52.982Z</time></trkpt><trkpt lat="42.803146809924556" lon="10.428986276319494"><ele>66.0</ele><time>2026-04-25T09:04:53.982Z</time></trkpt><trkpt lat="42.80308077841832" lon="10.428917682404492"><ele>66.0</ele><time>2026-04-25T09:04:54.982Z</time></trkpt><trkpt lat="42.80302109343152" lon="10.428830915466197"><ele>66.0</ele><time>2026-04-25T09:04:55.982Z</time></trkpt><trkpt lat="42.802950950327656" lon="10.42875720800665"><ele>66.0</ele><time>2026-04-25T09:04:56.982Z</time></trkpt><trkpt lat="42.8028825013625" lon="10.42870406285965"><ele>66.0</ele><time>2026-04-25T09:04:57.982Z</time></trkpt><trkpt lat="42.80281199021862" lon="10.428666166995352"><ele>66.0</ele><time>2026-04-25T09:04:58.982Z</time></trkpt><trkpt lat="42.80273750327862" lon="10.428654759590703"><ele>66.0</ele><time>2026-04-25T09:05:00.981Z</time></trkpt><trkpt lat="42.80274146913777" lon="10.428750657299087"><ele>66.0</ele><time>2026-04-25T09:05:03.981Z</time></trkpt><trkpt lat="42.802706776928325" lon="10.42884649140822"><ele>66.0</ele><time>2026-04-25T09:05:09.981Z</time></trkpt><trkpt lat="42.802718585291274" lon="10.429024917664973"><ele>66.0</ele><time>2026-04-25T09:05:12.981Z</time></trkpt><trkpt lat="42.802714636615356" lon="10.429114167687176"><ele>66.0</ele><time>2026-04-25T09:05:13.981Z</time></trkpt><trkpt lat="42.80268255001741" lon="10.429238982921378"><ele>66.0</ele><time>2026-04-25T09:05:15.981Z</time></trkpt><trkpt lat="42.802639471651794" lon="10.429307742165497"><ele>67.2</ele><time>2026-04-25T09:05:16.981Z</time></trkpt><trkpt lat="42.80259548888856" lon="10.429388746649574"><ele>68.39999999999999</ele><time>2026-04-25T09:05:17.981Z</time></trkpt><trkpt lat="42.802564307408154" lon="10.429491046935173"><ele>69.6</ele><time>2026-04-25T09:05:18.981Z</time></trkpt><trkpt lat="42.80254027228738" lon="10.429651173328802"><ele>70.8</ele><time>2026-04-25T09:05:20.981Z</time></trkpt><trkpt lat="42.802524483166955" lon="10.429803225955164"><ele>72.0</ele><time>2026-04-25T09:05:22.981Z</time></trkpt><trkpt lat="42.802485144647804" lon="10.429932065561692"><ele>72.0</ele><time>2026-04-25T09:05:24.981Z</time></trkpt><trkpt lat="42.802461427669904" lon="10.430078265373362"><ele>72.0</ele><time>2026-04-25T09:05:26.981Z</time></trkpt><trkpt lat="42.802421576970616" lon="10.430202030230575"><ele>72.0</ele><time>2026-04-25T09:05:28.981Z</time></trkpt><trkpt lat="42.80239366115987" lon="10.430283538632263"><ele>72.0</ele><time>2026-04-25T09:05:29.981Z</time></trkpt><trkpt lat="42.80236635642651" lon="10.43037812904026"><ele>72.0</ele><time>2026-04-25T09:05:30.981Z</time></trkpt><trkpt lat="42.80229763138868" lon="10.43049106192325"><ele>67.6</ele><time>2026-04-25T09:05:32.981Z</time></trkpt><trkpt lat="42.802242307005876" lon="10.430614901379169"><ele>63.2</ele><time>2026-04-25T09:05:34.982Z</time></trkpt><trkpt lat="42.80217820532759" lon="10.430687010377726"><ele>58.8</ele><time>2026-04-25T09:05:35.983Z</time></trkpt><trkpt lat="42.802126624653" lon="10.430783888656975"><ele>54.4</ele><time>2026-04-25T09:05:37.983Z</time></trkpt><trkpt lat="42.802064310228445" lon="10.430955967814622"><ele>50.0</ele><time>2026-04-25T09:05:39.982Z</time></trkpt><trkpt lat="42.80205899142952" lon="10.431103032128222"><ele>50.0</ele><time>2026-04-25T09:05:41.982Z</time></trkpt><trkpt lat="42.80204906552061" lon="10.431229906901455"><ele>50.0</ele><time>2026-04-25T09:05:50.982Z</time></trkpt><trkpt lat="42.80207260968794" lon="10.43139012694979"><ele>50.0</ele><time>2026-04-25T09:05:51.982Z</time></trkpt><trkpt lat="42.80200731883601" lon="10.431591888541538"><ele>50.0</ele><time>2026-04-25T09:05:53.982Z</time></trkpt><trkpt lat="42.80194864914771" lon="10.43195855052857"><ele>45.0</ele><time>2026-04-25T09:05:55.982Z</time></trkpt><trkpt lat="42.801939407795366" lon="10.432239957548207"><ele>40.0</ele><time>2026-04-25T09:05:56.982Z</time></trkpt><trkpt lat="42.80193763179362" lon="10.432463136546849"><ele>35.0</ele><time>2026-04-25T09:05:57.982Z</time></trkpt><trkpt lat="42.80192856649977" lon="10.432658201538088"><ele>35.0</ele><time>2026-04-25T09:05:58.982Z</time></trkpt><trkpt lat="42.80195311033227" lon="10.432915646142023"><ele>35.0</ele><time>2026-04-25T09:05:59.982Z</time></trkpt><trkpt lat="42.80194894141686" lon="10.43312553030296"><ele>35.0</ele><time>2026-04-25T09:06:00.982Z</time></trkpt><trkpt lat="42.80194068935846" lon="10.433314562481067"><ele>33.25</ele><time>2026-04-25T09:06:01.982Z</time></trkpt><trkpt lat="42.80191490503368" lon="10.433482756922412"><ele>31.5</ele><time>2026-04-25T09:06:02.982Z</time></trkpt><trkpt lat="42.80186911014108" lon="10.433646204504551"><ele>29.75</ele><time>2026-04-25T09:06:03.982Z</time></trkpt><trkpt lat="42.80181260841649" lon="10.433743574763199"><ele>28.0</ele><time>2026-04-25T09:06:04.982Z</time></trkpt><trkpt lat="42.80175572217417" lon="10.433887787333559"><ele>34.599999999999994</ele><time>2026-04-25T09:06:05.982Z</time></trkpt><trkpt lat="42.80170418061408" lon="10.434031314147639"><ele>41.199999999999996</ele><time>2026-04-25T09:06:06.982Z</time></trkpt><trkpt lat="42.801667751975785" lon="10.434168974492275"><ele>47.8</ele><time>2026-04-25T09:06:07.982Z</time></trkpt><trkpt lat="42.801645058047875" lon="10.434272764739848"><ele>54.4</ele><time>2026-04-25T09:06:08.982Z</time></trkpt><trkpt lat="42.8016113718221" lon="10.43438270788355"><ele>61.0</ele><time>2026-04-25T09:06:09.982Z</time></trkpt><trkpt lat="42.8015781465518" lon="10.434499093155894"><ele>60.99999999999999</ele><time>2026-04-25T09:06:10.982Z</time></trkpt><trkpt lat="42.80154867527754" lon="10.434604853150201"><ele>61.0</ele><time>2026-04-25T09:06:11.982Z</time></trkpt><trkpt lat="42.801532911734" lon="10.434705479313635"><ele>61.0</ele><time>2026-04-25T09:06:12.982Z</time></trkpt><trkpt lat="42.80151393262352" lon="10.434800061524692"><ele>61.0</ele><time>2026-04-25T09:06:13.982Z</time></trkpt><trkpt lat="42.80151251532386" lon="10.434925350380702"><ele>60.99999999999999</ele><time>2026-04-25T09:06:15.982Z</time></trkpt><trkpt lat="42.801475509000916" lon="10.43500608061634"><ele>61.0</ele><time>2026-04-25T09:06:19.981Z</time></trkpt><trkpt lat="42.80143984672215" lon="10.435123706333254"><ele>57.599999999999994</ele><time>2026-04-25T09:06:23.981Z</time></trkpt><trkpt lat="42.801391836975604" lon="10.435193359662014"><ele>54.199999999999996</ele><time>2026-04-25T09:06:24.981Z</time></trkpt><trkpt lat="42.801331713454005" lon="10.435243900609313"><ele>50.8</ele><time>2026-04-25T09:06:25.981Z</time></trkpt><trkpt lat="42.801226877111404" lon="10.435301598468214"><ele>47.400000000000006</ele><time>2026-04-25T09:06:27.981Z</time></trkpt><trkpt lat="42.801122091008104" lon="10.435293024898867"><ele>44.0</ele><time>2026-04-25T09:06:29.981Z</time></trkpt><trkpt lat="42.80102187812291" lon="10.435274608688665"><ele>46.800000000000004</ele><time>2026-04-25T09:06:30.981Z</time></trkpt><trkpt lat="42.80090788199583" lon="10.43524758580381"><ele>49.6</ele><time>2026-04-25T09:06:31.981Z</time></trkpt><trkpt lat="42.80083621428173" lon="10.435220772126572"><ele>52.4</ele><time>2026-04-25T09:06:32.981Z</time></trkpt><trkpt lat="42.800735352257874" lon="10.435155601152287"><ele>55.2</ele><time>2026-04-25T09:06:34.981Z</time></trkpt><trkpt lat="42.80063581796269" lon="10.435083781337577"><ele>58.0</ele><time>2026-04-25T09:06:36.981Z</time></trkpt><trkpt lat="42.80058525475716" lon="10.434992704875695"><ele>58.0</ele><time>2026-04-25T09:06:38.981Z</time></trkpt><trkpt lat="42.80050784526848" lon="10.435016464122024"><ele>58.0</ele><time>2026-04-25T09:06:40.981Z</time></trkpt><trkpt lat="42.80040643750885" lon="10.435087538682627"><ele>58.0</ele><time>2026-04-25T09:06:42.981Z</time></trkpt><trkpt lat="42.80033004689526" lon="10.435135313356028"><ele>58.0</ele><time>2026-04-25T09:06:44.981Z</time></trkpt><trkpt lat="42.80022751757634" lon="10.435191720496805"><ele>58.0</ele><time>2026-04-25T09:06:46.981Z</time></trkpt><trkpt lat="42.800165670924166" lon="10.43524669530734"><ele>58.99999999999999</ele><time>2026-04-25T09:06:47.981Z</time></trkpt><trkpt lat="42.80009726628174" lon="10.435294484017485"><ele>60.0</ele><time>2026-04-25T09:06:48.981Z</time></trkpt><trkpt lat="42.800026805047736" lon="10.435339317456053"><ele>61.0</ele><time>2026-04-25T09:06:49.981Z</time></trkpt><trkpt lat="42.79993818479443" lon="10.435403952445332"><ele>62.0</ele><time>2026-04-25T09:06:51.981Z</time></trkpt><trkpt lat="42.79986190834209" lon="10.435462420116485"><ele>62.99999999999999</ele><time>2026-04-25T09:06:53.981Z</time></trkpt><trkpt lat="42.79978686517491" lon="10.435516347784269"><ele>64.0</ele><time>2026-04-25T09:06:55.981Z</time></trkpt><trkpt lat="42.79967870780063" lon="10.435576519193612"><ele>61.33333333333333</ele><time>2026-04-25T09:06:57.981Z</time></trkpt><trkpt lat="42.799613384430934" lon="10.43560188760133"><ele>58.666666666666664</ele><time>2026-04-25T09:06:58.981Z</time></trkpt><trkpt lat="42.79954304078892" lon="10.435620320162998"><ele>56.0</ele><time>2026-04-25T09:06:59.981Z</time></trkpt><trkpt lat="42.79941577356576" lon="10.435677496168793"><ele>53.33333333333333</ele><time>2026-04-25T09:07:01.981Z</time></trkpt><trkpt lat="42.79934769912216" lon="10.435728574575142"><ele>50.666666666666664</ele><time>2026-04-25T09:07:02.98Z</time></trkpt><trkpt lat="42.799276302997896" lon="10.435815639755953"><ele>48.0</ele><time>2026-04-25T09:07:04.98Z</time></trkpt><trkpt lat="42.799181664070424" lon="10.435937168745092"><ele>48.0</ele><time>2026-04-25T09:07:06.98Z</time></trkpt><trkpt lat="42.7990771694219" lon="10.436030370007648"><ele>48.0</ele><time>2026-04-25T09:07:08.98Z</time></trkpt><trkpt lat="42.79901527219612" lon="10.436061282006003"><ele>48.0</ele><time>2026-04-25T09:07:09.98Z</time></trkpt><trkpt lat="42.79894648428421" lon="10.436088394444514"><ele>48.0</ele><time>2026-04-25T09:07:10.98Z</time></trkpt><trkpt lat="42.79886605657041" lon="10.43607562702441"><ele>48.0</ele><time>2026-04-25T09:07:12.98Z</time></trkpt><trkpt lat="42.79880041385514" lon="10.436042182591134"><ele>48.0</ele><time>2026-04-25T09:07:14.98Z</time></trkpt><trkpt lat="42.79871500362638" lon="10.435995857648365"><ele>48.0</ele><time>2026-04-25T09:07:16.98Z</time></trkpt><trkpt lat="42.798657857211296" lon="10.435943350644418"><ele>48.0</ele><time>2026-04-25T09:07:18.98Z</time></trkpt><trkpt lat="42.79855933149002" lon="10.435877305250285"><ele>48.0</ele><time>2026-04-25T09:07:20.98Z</time></trkpt><trkpt lat="42.79847385406786" lon="10.435814528854278"><ele>48.0</ele><time>2026-04-25T09:07:21.98Z</time></trkpt><trkpt lat="42.798398069664145" lon="10.43574080091363"><ele>48.0</ele><time>2026-04-25T09:07:22.98Z</time></trkpt><trkpt lat="42.79835608681818" lon="10.435670417207028"><ele>48.0</ele><time>2026-04-25T09:07:23.98Z</time></trkpt><trkpt lat="42.79831315504154" lon="10.435556468329935"><ele>51.5</ele><time>2026-04-25T09:07:25.98Z</time></trkpt><trkpt lat="42.7982840294899" lon="10.435432696099744"><ele>55.0</ele><time>2026-04-25T09:07:27.98Z</time></trkpt><trkpt lat="42.798282395995074" lon="10.435293676163052"><ele>58.5</ele><time>2026-04-25T09:07:29.98Z</time></trkpt><trkpt lat="42.798285757793366" lon="10.435148306343478"><ele>62.0</ele><time>2026-04-25T09:07:31.98Z</time></trkpt><trkpt lat="42.7982377604216" lon="10.435069825667055"><ele>65.5</ele><time>2026-04-25T09:07:34.98Z</time></trkpt><trkpt lat="42.79817988630947" lon="10.435108607780862"><ele>69.0</ele><time>2026-04-25T09:07:39.98Z</time></trkpt><trkpt lat="42.798117244212484" lon="10.435129971289618"><ele>69.0</ele><time>2026-04-25T09:07:41.982Z</time></trkpt><trkpt lat="42.79803822264794" lon="10.43519664565518"><ele>69.0</ele><time>2026-04-25T09:07:43.982Z</time></trkpt><trkpt lat="42.79794611461282" lon="10.435200964077046"><ele>69.0</ele><time>2026-04-25T09:07:45.981Z</time></trkpt><trkpt lat="42.797819626155" lon="10.435184416567827"><ele>69.0</ele><time>2026-04-25T09:07:47.981Z</time></trkpt><trkpt lat="42.79775442563582" lon="10.43513566246132"><ele>69.0</ele><time>2026-04-25T09:07:48.981Z</time></trkpt><trkpt lat="42.797684430764626" lon="10.435089039022742"><ele>66.60000000000001</ele><time>2026-04-25T09:07:49.982Z</time></trkpt><trkpt lat="42.79759039655645" lon="10.43501694459874"><ele>64.2</ele><time>2026-04-25T09:07:50.982Z</time></trkpt><trkpt lat="42.79750858016564" lon="10.434973577640253"><ele>61.800000000000004</ele><time>2026-04-25T09:07:51.982Z</time></trkpt><trkpt lat="42.79739657955172" lon="10.434887427663865"><ele>59.400000000000006</ele><time>2026-04-25T09:07:53.982Z</time></trkpt><trkpt lat="42.797337040409104" lon="10.434834116444598"><ele>57.0</ele><time>2026-04-25T09:07:54.982Z</time></trkpt><trkpt lat="42.797282325786625" lon="10.434780887207411"><ele>57.0</ele><time>2026-04-25T09:07:55.982Z</time></trkpt><trkpt lat="42.79720867055164" lon="10.43469149023349"><ele>57.0</ele><time>2026-04-25T09:07:57.982Z</time></trkpt><trkpt lat="42.79722004018888" lon="10.434606383860679"><ele>57.0</ele><time>2026-04-25T09:08:08.981Z</time></trkpt><trkpt lat="42.797304543555924" lon="10.434571759385635"><ele>57.0</ele><time>2026-04-25T09:08:19.981Z</time></trkpt><trkpt lat="42.7973642021926" lon="10.434543158108916"><ele>57.0</ele><time>2026-04-25T09:08:26.981Z</time></trkpt><trkpt lat="42.797505965699685" lon="10.434525763865787"><ele>65.2</ele><time>2026-04-25T09:08:30.981Z</time></trkpt><trkpt lat="42.797589953367954" lon="10.434493429249784"><ele>73.4</ele><time>2026-04-25T09:08:33.981Z</time></trkpt><trkpt lat="42.79768493819383" lon="10.434451134325965"><ele>81.60000000000001</ele><time>2026-04-25T09:08:35.981Z</time></trkpt><trkpt lat="42.79778967219931" lon="10.434401933782441"><ele>89.80000000000001</ele><time>2026-04-25T09:08:37.981Z</time></trkpt><trkpt lat="42.79784787171933" lon="10.43435953551333"><ele>98.0</ele><time>2026-04-25T09:08:38.981Z</time></trkpt><trkpt lat="42.797945666964225" lon="10.434256890570323"><ele>98.2</ele><time>2026-04-25T09:08:40.981Z</time></trkpt><trkpt lat="42.798035847159305" lon="10.434213302409558"><ele>98.4</ele><time>2026-04-25T09:08:42.981Z</time></trkpt><trkpt lat="42.798196264119746" lon="10.4342030970536"><ele>98.60000000000001</ele><time>2026-04-25T09:08:46.981Z</time></trkpt><trkpt lat="42.79824863184746" lon="10.434289490917564"><ele>98.80000000000001</ele><time>2026-04-25T09:08:48.981Z</time></trkpt><trkpt lat="42.798334929739035" lon="10.434359837519862"><ele>99.0</ele><time>2026-04-25T09:08:50.98Z</time></trkpt><trkpt lat="42.79839360220698" lon="10.434465297840925"><ele>99.0</ele><time>2026-04-25T09:08:51.98Z</time></trkpt><trkpt lat="42.79844218232142" lon="10.434550072981764"><ele>99.0</ele><time>2026-04-25T09:08:52.98Z</time></trkpt><trkpt lat="42.79848330200605" lon="10.434659959491078"><ele>99.0</ele><time>2026-04-25T09:08:53.98Z</time></trkpt><trkpt lat="42.79853211188311" lon="10.434765209625207"><ele>99.0</ele><time>2026-04-25T09:08:54.98Z</time></trkpt><trkpt lat="42.79857634954934" lon="10.434844219201487"><ele>99.0</ele><time>2026-04-25T09:08:55.98Z</time></trkpt><trkpt lat="42.79865697979809" lon="10.43493818309483"><ele>99.0</ele><time>2026-04-25T09:08:57.98Z</time></trkpt><trkpt lat="42.798743776824914" lon="10.434951646777504"><ele>100.16666666666667</ele><time>2026-04-25T09:08:59.98Z</time></trkpt><trkpt lat="42.79883325768847" lon="10.43491305748676"><ele>101.33333333333334</ele><time>2026-04-25T09:09:01.98Z</time></trkpt><trkpt lat="42.79884127846881" lon="10.434822746333685"><ele>102.5</ele><time>2026-04-25T09:09:04.98Z</time></trkpt><trkpt lat="42.79887794123547" lon="10.43475165768453"><ele>103.66666666666667</ele><time>2026-04-25T09:09:08.98Z</time></trkpt><trkpt lat="42.79894353763098" lon="10.434703289808866"><ele>104.83333333333334</ele><time>2026-04-25T09:09:24.98Z</time></trkpt><trkpt lat="42.798982589037834" lon="10.434605690170683"><ele>106.0</ele><time>2026-04-25T09:09:39.979Z</time></trkpt><trkpt lat="42.79901657470245" lon="10.434516119060632"><ele>106.00000000000001</ele><time>2026-04-25T09:09:42.979Z</time></trkpt><trkpt lat="42.798959163542975" lon="10.434476241431973"><ele>106.0</ele><time>2026-04-25T09:09:44.979Z</time></trkpt><trkpt lat="42.79891883501697" lon="10.43440043726808"><ele>106.0</ele><time>2026-04-25T09:09:47.981Z</time></trkpt><trkpt lat="42.79890075821023" lon="10.434279895008967"><ele>106.0</ele><time>2026-04-25T09:09:49.981Z</time></trkpt><trkpt lat="42.7989174454664" lon="10.4341680254968"><ele>106.00000000000001</ele><time>2026-04-25T09:09:51.98Z</time></trkpt><trkpt lat="42.79895321081638" lon="10.434056097951167"><ele>106.0</ele><time>2026-04-25T09:09:53.981Z</time></trkpt><trkpt lat="42.79897493631313" lon="10.433939283205715"><ele>106.0</ele><time>2026-04-25T09:09:55.98Z</time></trkpt><trkpt lat="42.79899214822041" lon="10.433805959719184"><ele>106.0</ele><time>2026-04-25T09:09:57.98Z</time></trkpt><trkpt lat="42.79906074770006" lon="10.43369012735181"><ele>106.0</ele><time>2026-04-25T09:09:59.981Z</time></trkpt><trkpt lat="42.79911758670475" lon="10.433619885559018"><ele>106.0</ele><time>2026-04-25T09:10:00.981Z</time></trkpt><trkpt lat="42.79917047696979" lon="10.433532374756561"><ele>106.0</ele><time>2026-04-25T09:10:01.981Z</time></trkpt><trkpt lat="42.799227105237755" lon="10.433410559158624"><ele>109.66666666666667</ele><time>2026-04-25T09:10:03.981Z</time></trkpt><trkpt lat="42.79925901453118" lon="10.433285609852629"><ele>113.33333333333334</ele><time>2026-04-25T09:10:05.981Z</time></trkpt><trkpt lat="42.79927322650853" lon="10.43319731255078"><ele>117.0</ele><time>2026-04-25T09:10:06.981Z</time></trkpt><trkpt lat="42.79929467313461" lon="10.433100865123505"><ele>120.66666666666666</ele><time>2026-04-25T09:10:07.981Z</time></trkpt><trkpt lat="42.799342020548146" lon="10.432962921904931"><ele>124.33333333333333</ele><time>2026-04-25T09:10:08.981Z</time></trkpt><trkpt lat="42.799383338556055" lon="10.432883417793825"><ele>128.0</ele><time>2026-04-25T09:10:09.981Z</time></trkpt><trkpt lat="42.79941588516793" lon="10.432733470669994"><ele>128.5</ele><time>2026-04-25T09:10:11.981Z</time></trkpt><trkpt lat="42.79942352960187" lon="10.432627788454905"><ele>129.0</ele><time>2026-04-25T09:10:12.981Z</time></trkpt><trkpt lat="42.79941973869758" lon="10.432474370483488"><ele>129.5</ele><time>2026-04-25T09:10:14.98Z</time></trkpt><trkpt lat="42.799410857794136" lon="10.432381890543873"><ele>130.0</ele><time>2026-04-25T09:10:16.98Z</time></trkpt><trkpt lat="42.79936592633911" lon="10.432272879061655"><ele>130.5</ele><time>2026-04-25T09:10:18.98Z</time></trkpt><trkpt lat="42.7993216625473" lon="10.432204218392174"><ele>131.0</ele><time>2026-04-25T09:10:19.98Z</time></trkpt><trkpt lat="42.79928748897641" lon="10.432109783116701"><ele>132.8</ele><time>2026-04-25T09:10:20.98Z</time></trkpt><trkpt lat="42.799211410866846" lon="10.432118979222276"><ele>134.6</ele><time>2026-04-25T09:10:23.98Z</time></trkpt><trkpt lat="42.79911074394484" lon="10.432167860096403"><ele>136.4</ele><time>2026-04-25T09:10:25.98Z</time></trkpt><trkpt lat="42.7990277336802" lon="10.432207987003881"><ele>138.2</ele><time>2026-04-25T09:10:26.98Z</time></trkpt><trkpt lat="42.798931111466004" lon="10.432232454431787"><ele>140.0</ele><time>2026-04-25T09:10:27.98Z</time></trkpt><trkpt lat="42.798838319885355" lon="10.432239909778401"><ele>140.83333333333331</ele><time>2026-04-25T09:10:28.98Z</time></trkpt><trkpt lat="42.798748766118784" lon="10.432242398699637"><ele>141.66666666666666</ele><time>2026-04-25T09:10:29.98Z</time></trkpt><trkpt lat="42.79867246869226" lon="10.432251092028503"><ele>142.5</ele><time>2026-04-25T09:10:30.98Z</time></trkpt><trkpt lat="42.79855719513148" lon="10.432233431305667"><ele>143.33333333333334</ele><time>2026-04-25T09:10:31.98Z</time></trkpt><trkpt lat="42.79846816162992" lon="10.432241104740372"><ele>144.16666666666669</ele><time>2026-04-25T09:10:32.98Z</time></trkpt><trkpt lat="42.7983987225945" lon="10.432237942377352"><ele>145.0</ele><time>2026-04-25T09:10:33.98Z</time></trkpt><trkpt lat="42.798326594419606" lon="10.432216946005848"><ele>146.6</ele><time>2026-04-25T09:10:34.98Z</time></trkpt><trkpt lat="42.79823928132078" lon="10.432226268591949"><ele>148.2</ele><time>2026-04-25T09:10:35.98Z</time></trkpt><trkpt lat="42.79814303839184" lon="10.432251142530738"><ele>149.8</ele><time>2026-04-25T09:10:36.98Z</time></trkpt><trkpt lat="42.79804661474394" lon="10.432271644960855"><ele>151.4</ele><time>2026-04-25T09:10:37.98Z</time></trkpt><trkpt lat="42.79795452052381" lon="10.432283055587568"><ele>153.0</ele><time>2026-04-25T09:10:38.98Z</time></trkpt><trkpt lat="42.79788118363263" lon="10.43230537260547"><ele>153.0</ele><time>2026-04-25T09:10:39.98Z</time></trkpt><trkpt lat="42.79781704486932" lon="10.43234112528043"><ele>153.0</ele><time>2026-04-25T09:10:40.98Z</time></trkpt><trkpt lat="42.79773999624156" lon="10.432421487773988"><ele>153.0</ele><time>2026-04-25T09:10:41.98Z</time></trkpt><trkpt lat="42.79764470353947" lon="10.43246460371829"><ele>153.0</ele><time>2026-04-25T09:10:42.98Z</time></trkpt><trkpt lat="42.79757223442458" lon="10.432491165319185"><ele>153.0</ele><time>2026-04-25T09:10:43.98Z</time></trkpt><trkpt lat="42.79750632581006" lon="10.432523380784927"><ele>153.0</ele><time>2026-04-25T09:10:45.98Z</time></trkpt><trkpt lat="42.797578263301816" lon="10.432529713252533"><ele>153.0</ele><time>2026-04-25T09:33:17.933Z</time></trkpt><trkpt lat="42.7976276018628" lon="10.432436483537114"><ele>153.0</ele><time>2026-04-25T09:34:20.932Z</time></trkpt><trkpt lat="42.79769223447783" lon="10.4324104838882"><ele>153.0</ele><time>2026-04-25T09:34:22.931Z</time></trkpt><trkpt lat="42.797784117223486" lon="10.432374287958929"><ele>153.0</ele><time>2026-04-25T09:34:24.931Z</time></trkpt><trkpt lat="42.79785377872864" lon="10.432313370562117"><ele>153.0</ele><time>2026-04-25T09:34:26.931Z</time></trkpt><trkpt lat="42.79792364502871" lon="10.4322604551756"><ele>153.0</ele><time>2026-04-25T09:34:28.931Z</time></trkpt><trkpt lat="42.797989351143784" lon="10.43223605203014"><ele>153.0</ele><time>2026-04-25T09:34:30.931Z</time></trkpt><trkpt lat="42.79806815473005" lon="10.432234595914714"><ele>153.0</ele><time>2026-04-25T09:34:32.931Z</time></trkpt><trkpt lat="42.79815830953276" lon="10.43224148933046"><ele>153.0</ele><time>2026-04-25T09:34:35.931Z</time></trkpt><trkpt lat="42.798247453775325" lon="10.432224751302911"><ele>153.0</ele><time>2026-04-25T09:34:37.931Z</time></trkpt><trkpt lat="42.79833207044895" lon="10.432224936144124"><ele>153.0</ele><time>2026-04-25T09:34:39.931Z</time></trkpt><trkpt lat="42.798434858146564" lon="10.432218589580033"><ele>153.0</ele><time>2026-04-25T09:34:41.931Z</time></trkpt><trkpt lat="42.79853919743243" lon="10.432221255476275"><ele>151.4</ele><time>2026-04-25T09:34:43.931Z</time></trkpt><trkpt lat="42.798640465949426" lon="10.432219687402316"><ele>149.8</ele><time>2026-04-25T09:34:45.931Z</time></trkpt><trkpt lat="42.79874011629688" lon="10.432213615080686"><ele>148.2</ele><time>2026-04-25T09:34:47.931Z</time></trkpt><trkpt lat="42.798859172673374" lon="10.432205509447588"><ele>146.6</ele><time>2026-04-25T09:34:49.931Z</time></trkpt><trkpt lat="42.798924428348464" lon="10.432191154027958"><ele>145.0</ele><time>2026-04-25T09:34:50.931Z</time></trkpt><trkpt lat="42.79904604367793" lon="10.432140569295314"><ele>144.28571428571428</ele><time>2026-04-25T09:34:52.931Z</time></trkpt><trkpt lat="42.79910973469758" lon="10.432097989310272"><ele>143.57142857142858</ele><time>2026-04-25T09:34:53.931Z</time></trkpt><trkpt lat="42.79917494413334" lon="10.432059556943942"><ele>142.85714285714286</ele><time>2026-04-25T09:34:54.931Z</time></trkpt><trkpt lat="42.79923553115375" lon="10.43202907317684"><ele>142.14285714285714</ele><time>2026-04-25T09:34:55.931Z</time></trkpt><trkpt lat="42.79929335298421" lon="10.431988109843155"><ele>141.42857142857144</ele><time>2026-04-25T09:34:56.93Z</time></trkpt><trkpt lat="42.79934606545982" lon="10.431935608858245"><ele>140.71428571428572</ele><time>2026-04-25T09:34:57.93Z</time></trkpt><trkpt lat="42.79939566580658" lon="10.43188080293022"><ele>140.0</ele><time>2026-04-25T09:34:58.933Z</time></trkpt><trkpt lat="42.799476798798906" lon="10.431773669163746"><ele>139.16666666666666</ele><time>2026-04-25T09:35:00.932Z</time></trkpt><trkpt lat="42.799534571482894" lon="10.43165673079152"><ele>138.33333333333331</ele><time>2026-04-25T09:35:02.933Z</time></trkpt><trkpt lat="42.79957578203189" lon="10.431578400236605"><ele>137.5</ele><time>2026-04-25T09:35:04.932Z</time></trkpt><trkpt lat="42.79964113545721" lon="10.431462034071286"><ele>136.66666666666666</ele><time>2026-04-25T09:35:06.932Z</time></trkpt><trkpt lat="42.799680126630335" lon="10.431391919636447"><ele>135.83333333333334</ele><time>2026-04-25T09:35:07.933Z</time></trkpt><trkpt lat="42.79973494091617" lon="10.431336991827727"><ele>135.0</ele><time>2026-04-25T09:35:08.932Z</time></trkpt><trkpt lat="42.79978219874184" lon="10.43125622703767"><ele>135.0</ele><time>2026-04-25T09:35:09.932Z</time></trkpt><trkpt lat="42.799833127931784" lon="10.431178349987656"><ele>135.0</ele><time>2026-04-25T09:35:10.932Z</time></trkpt><trkpt lat="42.79987178814732" lon="10.431096653839933"><ele>135.0</ele><time>2026-04-25T09:35:11.932Z</time></trkpt><trkpt lat="42.79989400583249" lon="10.431008979355815"><ele>135.0</ele><time>2026-04-25T09:35:12.932Z</time></trkpt><trkpt lat="42.79990752062547" lon="10.430848356950921"><ele>135.0</ele><time>2026-04-25T09:35:14.932Z</time></trkpt><trkpt lat="42.79990191648089" lon="10.430753440459709"><ele>135.0</ele><time>2026-04-25T09:35:15.932Z</time></trkpt><trkpt lat="42.79988802443709" lon="10.430653777880451"><ele>135.0</ele><time>2026-04-25T09:35:16.932Z</time></trkpt><trkpt lat="42.79987510301664" lon="10.430548848038496"><ele>135.0</ele><time>2026-04-25T09:35:17.932Z</time></trkpt><trkpt lat="42.799865190275916" lon="10.430452300526179"><ele>135.0</ele><time>2026-04-25T09:35:18.932Z</time></trkpt><trkpt lat="42.79985910624776" lon="10.430359242508223"><ele>135.0</ele><time>2026-04-25T09:35:19.932Z</time></trkpt><trkpt lat="42.7998665948153" lon="10.430261866148115"><ele>135.0</ele><time>2026-04-25T09:35:20.932Z</time></trkpt><trkpt lat="42.79989076403519" lon="10.430140461879565"><ele>135.0</ele><time>2026-04-25T09:35:21.932Z</time></trkpt><trkpt lat="42.799927479249995" lon="10.430014519969683"><ele>135.16666666666666</ele><time>2026-04-25T09:35:22.932Z</time></trkpt><trkpt lat="42.799962350571384" lon="10.429888870946492"><ele>135.33333333333334</ele><time>2026-04-25T09:35:23.932Z</time></trkpt><trkpt lat="42.79998879127925" lon="10.42975721953204"><ele>135.5</ele><time>2026-04-25T09:35:24.932Z</time></trkpt><trkpt lat="42.799999425763936" lon="10.429657714579392"><ele>135.66666666666669</ele><time>2026-04-25T09:35:25.932Z</time></trkpt><trkpt lat="42.80000835562815" lon="10.429571533717233"><ele>135.83333333333334</ele><time>2026-04-25T09:35:26.932Z</time></trkpt><trkpt lat="42.80005376102393" lon="10.429433890880938"><ele>136.0</ele><time>2026-04-25T09:35:28.932Z</time></trkpt><trkpt lat="42.80008951674937" lon="10.429362424182276"><ele>135.4</ele><time>2026-04-25T09:35:29.932Z</time></trkpt><trkpt lat="42.8001417912228" lon="10.429307537524691"><ele>134.8</ele><time>2026-04-25T09:35:30.932Z</time></trkpt><trkpt lat="42.800235621168106" lon="10.429195666081734"><ele>134.20000000000002</ele><time>2026-04-25T09:35:32.932Z</time></trkpt><trkpt lat="42.80028214956876" lon="10.429048422242772"><ele>133.6</ele><time>2026-04-25T09:35:34.932Z</time></trkpt><trkpt lat="42.80030997172379" lon="10.428895660178801"><ele>133.0</ele><time>2026-04-25T09:35:36.932Z</time></trkpt><trkpt lat="42.80033291455559" lon="10.428790592331831"><ele>134.5</ele><time>2026-04-25T09:35:37.932Z</time></trkpt><trkpt lat="42.80033861387954" lon="10.428680547964545"><ele>136.0</ele><time>2026-04-25T09:35:38.932Z</time></trkpt><trkpt lat="42.80035279603506" lon="10.428529731017166"><ele>137.5</ele><time>2026-04-25T09:35:39.932Z</time></trkpt><trkpt lat="42.800376245831046" lon="10.42833236566413"><ele>139.0</ele><time>2026-04-25T09:35:40.932Z</time></trkpt><trkpt lat="42.800386616398335" lon="10.428165420376569"><ele>139.0</ele><time>2026-04-25T09:35:41.932Z</time></trkpt><trkpt lat="42.800380660980025" lon="10.428028496089457"><ele>139.0</ele><time>2026-04-25T09:35:42.932Z</time></trkpt><trkpt lat="42.800353367910965" lon="10.427902669868358"><ele>139.0</ele><time>2026-04-25T09:35:43.932Z</time></trkpt><trkpt lat="42.80031589722549" lon="10.427783453939478"><ele>139.0</ele><time>2026-04-25T09:35:44.932Z</time></trkpt><trkpt lat="42.80029318317924" lon="10.427685570756822"><ele>139.0</ele><time>2026-04-25T09:35:45.931Z</time></trkpt><trkpt lat="42.800253467718576" lon="10.427586360034411"><ele>141.6</ele><time>2026-04-25T09:35:46.931Z</time></trkpt><trkpt lat="42.800202333364844" lon="10.4275196890741"><ele>144.2</ele><time>2026-04-25T09:35:47.931Z</time></trkpt><trkpt lat="42.80011693135087" lon="10.42744728681449"><ele>146.79999999999998</ele><time>2026-04-25T09:35:48.931Z</time></trkpt><trkpt lat="42.80001256974261" lon="10.427358922094466"><ele>149.4</ele><time>2026-04-25T09:35:49.931Z</time></trkpt><trkpt lat="42.79993166590894" lon="10.427291001479453"><ele>152.0</ele><time>2026-04-25T09:35:50.931Z</time></trkpt><trkpt lat="42.79994618703691" lon="10.427197445972427"><ele>152.0</ele><time>2026-04-25T09:35:53.931Z</time></trkpt><trkpt lat="42.80000826561988" lon="10.427167628733764"><ele>152.0</ele><time>2026-04-25T09:35:54.931Z</time></trkpt><trkpt lat="42.800086369444976" lon="10.427165691136542"><ele>152.0</ele><time>2026-04-25T09:35:55.931Z</time></trkpt><trkpt lat="42.800192553614096" lon="10.42716365561287"><ele>152.0</ele><time>2026-04-25T09:35:56.931Z</time></trkpt><trkpt lat="42.800296981707724" lon="10.42713268561341"><ele>152.0</ele><time>2026-04-25T09:35:57.931Z</time></trkpt><trkpt lat="42.800370100786694" lon="10.427204282424226"><ele>152.0</ele><time>2026-04-25T09:35:59.931Z</time></trkpt><trkpt lat="42.80044627800899" lon="10.427248693318582"><ele>153.0</ele><time>2026-04-25T09:36:00.931Z</time></trkpt><trkpt lat="42.80054823256779" lon="10.42721212731745"><ele>154.0</ele><time>2026-04-25T09:36:02.931Z</time></trkpt><trkpt lat="42.800599488818115" lon="10.42715823671955"><ele>155.0</ele><time>2026-04-25T09:36:03.931Z</time></trkpt><trkpt lat="42.800653890625206" lon="10.427092205436644"><ele>156.0</ele><time>2026-04-25T09:36:04.931Z</time></trkpt><trkpt lat="42.80070082545865" lon="10.427019289357407"><ele>157.0</ele><time>2026-04-25T09:36:05.931Z</time></trkpt><trkpt lat="42.80077423897844" lon="10.426904915399986"><ele>158.0</ele><time>2026-04-25T09:36:07.931Z</time></trkpt><trkpt lat="42.8008260357506" lon="10.426805306927541"><ele>158.8</ele><time>2026-04-25T09:36:08.931Z</time></trkpt><trkpt lat="42.800880069244265" lon="10.426689579804892"><ele>159.60000000000002</ele><time>2026-04-25T09:36:09.931Z</time></trkpt><trkpt lat="42.80093370129063" lon="10.42656864166285"><ele>160.39999999999998</ele><time>2026-04-25T09:36:10.931Z</time></trkpt><trkpt lat="42.800995720842664" lon="10.426459739945013"><ele>161.2</ele><time>2026-04-25T09:36:11.931Z</time></trkpt><trkpt lat="42.801055777834506" lon="10.426375602572318"><ele>162.0</ele><time>2026-04-25T09:36:12.931Z</time></trkpt><trkpt lat="42.8010923521341" lon="10.426305275469232"><ele>162.0</ele><time>2026-04-25T09:36:13.931Z</time></trkpt><trkpt lat="42.801132964518" lon="10.426099504499264"><ele>162.0</ele><time>2026-04-25T09:36:15.931Z</time></trkpt><trkpt lat="42.801162431924006" lon="10.425958103566211"><ele>162.0</ele><time>2026-04-25T09:36:16.931Z</time></trkpt><trkpt lat="42.801181470841655" lon="10.425835334447765"><ele>162.0</ele><time>2026-04-25T09:36:17.931Z</time></trkpt><trkpt lat="42.801194688183294" lon="10.425699538292807"><ele>162.0</ele><time>2026-04-25T09:36:18.931Z</time></trkpt><trkpt lat="42.80120197886287" lon="10.425546395203073"><ele>162.0</ele><time>2026-04-25T09:36:19.93Z</time></trkpt><trkpt lat="42.801219554567425" lon="10.425418718905675"><ele>162.0</ele><time>2026-04-25T09:36:20.93Z</time></trkpt><trkpt lat="42.80124699502814" lon="10.42531904072479"><ele>162.0</ele><time>2026-04-25T09:36:21.93Z</time></trkpt><trkpt lat="42.80130543008351" lon="10.425231462400308"><ele>162.0</ele><time>2026-04-25T09:36:22.93Z</time></trkpt><trkpt lat="42.80136168508335" lon="10.425168725604719"><ele>162.0</ele><time>2026-04-25T09:36:23.93Z</time></trkpt><trkpt lat="42.8013991066793" lon="10.425082869566305"><ele>167.66666666666666</ele><time>2026-04-25T09:36:24.93Z</time></trkpt><trkpt lat="42.801495517527044" lon="10.42484758735648"><ele>173.33333333333331</ele><time>2026-04-25T09:36:26.93Z</time></trkpt><trkpt lat="42.80157752173269" lon="10.424668368684031"><ele>179.0</ele><time>2026-04-25T09:36:28.93Z</time></trkpt><trkpt lat="42.80162431667943" lon="10.42447420081122"><ele>180.83333333333331</ele><time>2026-04-25T09:36:30.93Z</time></trkpt><trkpt lat="42.80172674075125" lon="10.424455952343026"><ele>182.66666666666666</ele><time>2026-04-25T09:36:32.93Z</time></trkpt><trkpt lat="42.80180566167393" lon="10.42446218747514"><ele>184.5</ele><time>2026-04-25T09:36:33.93Z</time></trkpt><trkpt lat="42.801881643876456" lon="10.424452224228089"><ele>186.33333333333334</ele><time>2026-04-25T09:36:34.93Z</time></trkpt><trkpt lat="42.801942370580825" lon="10.424424128227345"><ele>188.16666666666669</ele><time>2026-04-25T09:36:35.93Z</time></trkpt><trkpt lat="42.802041439019355" lon="10.424336585594423"><ele>190.0</ele><time>2026-04-25T09:36:37.93Z</time></trkpt><trkpt lat="42.80210699015232" lon="10.424266460005393"><ele>190.6</ele><time>2026-04-25T09:36:38.93Z</time></trkpt><trkpt lat="42.80217149370765" lon="10.424174911583371"><ele>191.2</ele><time>2026-04-25T09:36:39.93Z</time></trkpt><trkpt lat="42.802245320119894" lon="10.424072585464515"><ele>191.8</ele><time>2026-04-25T09:36:40.93Z</time></trkpt><trkpt lat="42.80232276006623" lon="10.423984626504378"><ele>192.4</ele><time>2026-04-25T09:36:41.93Z</time></trkpt><trkpt lat="42.8024170408515" lon="10.423907662198879"><ele>193.0</ele><time>2026-04-25T09:36:42.93Z</time></trkpt><trkpt lat="42.80251078135542" lon="10.423838402831242"><ele>194.0</ele><time>2026-04-25T09:36:43.93Z</time></trkpt><trkpt lat="42.80259901499728" lon="10.423769644785189"><ele>195.0</ele><time>2026-04-25T09:36:44.93Z</time></trkpt><trkpt lat="42.80268347465677" lon="10.423694106515502"><ele>196.0</ele><time>2026-04-25T09:36:45.93Z</time></trkpt><trkpt lat="42.802765009888105" lon="10.423612479428733"><ele>197.0</ele><time>2026-04-25T09:36:46.93Z</time></trkpt><trkpt lat="42.80284240762807" lon="10.423536726649095"><ele>198.0</ele><time>2026-04-25T09:36:47.93Z</time></trkpt><trkpt lat="42.802900510961024" lon="10.4234721893348"><ele>199.4</ele><time>2026-04-25T09:36:48.93Z</time></trkpt><trkpt lat="42.80299346352419" lon="10.423414843720723"><ele>200.8</ele><time>2026-04-25T09:36:50.93Z</time></trkpt><trkpt lat="42.80311790606628" lon="10.423401568247394"><ele>202.2</ele><time>2026-04-25T09:36:52.93Z</time></trkpt><trkpt lat="42.803233561868474" lon="10.42339741266248"><ele>203.6</ele><time>2026-04-25T09:36:54.929Z</time></trkpt><trkpt lat="42.803309738102485" lon="10.423398053499168"><ele>205.0</ele><time>2026-04-25T09:36:56.929Z</time></trkpt><trkpt lat="42.80338894362681" lon="10.423391557296442"><ele>205.0</ele><time>2026-04-25T09:36:59.929Z</time></trkpt><trkpt lat="42.80345574993638" lon="10.423369446248746"><ele>205.0</ele><time>2026-04-25T09:37:08.93Z</time></trkpt><trkpt lat="42.80360799580769" lon="10.423366915255636"><ele>205.0</ele><time>2026-04-25T09:37:10.931Z</time></trkpt><trkpt lat="42.803708673289705" lon="10.423341750855705"><ele>205.0</ele><time>2026-04-25T09:37:11.93Z</time></trkpt><trkpt lat="42.80382674672526" lon="10.423305742868068"><ele>205.0</ele><time>2026-04-25T09:37:12.93Z</time></trkpt><trkpt lat="42.803926076996234" lon="10.423297329075224"><ele>205.99999999999997</ele><time>2026-04-25T09:37:13.931Z</time></trkpt><trkpt lat="42.80402930850836" lon="10.423297176869644"><ele>207.0</ele><time>2026-04-25T09:37:14.93Z</time></trkpt><trkpt lat="42.80412042641149" lon="10.423314013675165"><ele>208.0</ele><time>2026-04-25T09:37:15.93Z</time></trkpt><trkpt lat="42.80420711889551" lon="10.42333999439343"><ele>209.0</ele><time>2026-04-25T09:37:16.931Z</time></trkpt><trkpt lat="42.80428036705009" lon="10.423387043413186"><ele>209.99999999999997</ele><time>2026-04-25T09:37:17.931Z</time></trkpt><trkpt lat="42.80435144298808" lon="10.423444318891791"><ele>211.0</ele><time>2026-04-25T09:37:18.931Z</time></trkpt><trkpt lat="42.80442513874707" lon="10.4235042774161"><ele>211.16666666666666</ele><time>2026-04-25T09:37:19.931Z</time></trkpt><trkpt lat="42.80449408919201" lon="10.42356908958846"><ele>211.33333333333331</ele><time>2026-04-25T09:37:20.931Z</time></trkpt><trkpt lat="42.804547703366595" lon="10.423634758933545"><ele>211.5</ele><time>2026-04-25T09:37:21.931Z</time></trkpt><trkpt lat="42.80459544787446" lon="10.423696551912165"><ele>211.66666666666669</ele><time>2026-04-25T09:37:22.931Z</time></trkpt><trkpt lat="42.804697683902525" lon="10.423777190796677"><ele>211.83333333333334</ele><time>2026-04-25T09:37:24.931Z</time></trkpt><trkpt lat="42.8047661149742" lon="10.423795446986338"><ele>212.0</ele><time>2026-04-25T09:37:25.931Z</time></trkpt><trkpt lat="42.804831945847084" lon="10.423795482040694"><ele>212.0</ele><time>2026-04-25T09:37:26.931Z</time></trkpt><trkpt lat="42.80489516757165" lon="10.42379121872784"><ele>212.0</ele><time>2026-04-25T09:37:27.931Z</time></trkpt><trkpt lat="42.804969123444614" lon="10.42378681150282"><ele>212.0</ele><time>2026-04-25T09:37:28.93Z</time></trkpt><trkpt lat="42.80503808535296" lon="10.42376720599857"><ele>212.0</ele><time>2026-04-25T09:37:29.93Z</time></trkpt><trkpt lat="42.80509499392252" lon="10.42372660726873"><ele>212.0</ele><time>2026-04-25T09:37:30.93Z</time></trkpt><trkpt lat="42.80515274410417" lon="10.423686425002078"><ele>212.0</ele><time>2026-04-25T09:37:31.93Z</time></trkpt><trkpt lat="42.80521557645004" lon="10.423673968896148"><ele>212.0</ele><time>2026-04-25T09:37:32.93Z</time></trkpt><trkpt lat="42.80527850861943" lon="10.42368052842043"><ele>207.6</ele><time>2026-04-25T09:37:33.93Z</time></trkpt><trkpt lat="42.80537708365436" lon="10.423731431221157"><ele>203.2</ele><time>2026-04-25T09:37:35.93Z</time></trkpt><trkpt lat="42.80541297990651" lon="10.423879906278904"><ele>198.8</ele><time>2026-04-25T09:37:37.93Z</time></trkpt><trkpt lat="42.80544034594682" lon="10.42400038883701"><ele>194.4</ele><time>2026-04-25T09:37:39.93Z</time></trkpt><trkpt lat="42.80551011296825" lon="10.42403066009815"><ele>190.0</ele><time>2026-04-25T09:37:41.93Z</time></trkpt><trkpt lat="42.80559056594009" lon="10.423964614404456"><ele>190.0</ele><time>2026-04-25T09:37:43.93Z</time></trkpt><trkpt lat="42.80566085747618" lon="10.423839966324948"><ele>190.0</ele><time>2026-04-25T09:37:45.93Z</time></trkpt><trkpt lat="42.805736819341575" lon="10.423727583888095"><ele>190.0</ele><time>2026-04-25T09:37:47.93Z</time></trkpt><trkpt lat="42.805819133960924" lon="10.423719258914769"><ele>190.0</ele><time>2026-04-25T09:37:49.93Z</time></trkpt><trkpt lat="42.805906436562175" lon="10.423835230543625"><ele>190.0</ele><time>2026-04-25T09:37:51.93Z</time></trkpt><trkpt lat="42.80592822252076" lon="10.423918674277475"><ele>188.16666666666669</ele><time>2026-04-25T09:37:52.93Z</time></trkpt><trkpt lat="42.80595040770527" lon="10.42402360305141"><ele>186.33333333333334</ele><time>2026-04-25T09:37:53.93Z</time></trkpt><trkpt lat="42.80598457921168" lon="10.424129523698523"><ele>184.5</ele><time>2026-04-25T09:37:54.93Z</time></trkpt><trkpt lat="42.805997122468085" lon="10.424228435899316"><ele>182.66666666666666</ele><time>2026-04-25T09:37:55.93Z</time></trkpt><trkpt lat="42.805987591045636" lon="10.424318353723036"><ele>180.83333333333331</ele><time>2026-04-25T09:37:56.93Z</time></trkpt><trkpt lat="42.80597382111664" lon="10.424402894963157"><ele>179.0</ele><time>2026-04-25T09:37:57.93Z</time></trkpt><trkpt lat="42.805981363470885" lon="10.42452402977644"><ele>176.5</ele><time>2026-04-25T09:37:59.93Z</time></trkpt><trkpt lat="42.80608812936552" lon="10.424552263839095"><ele>174.0</ele><time>2026-04-25T09:38:01.93Z</time></trkpt><trkpt lat="42.80617221703389" lon="10.424552530535278"><ele>171.5</ele><time>2026-04-25T09:38:02.929Z</time></trkpt><trkpt lat="42.80625701912723" lon="10.42454314017266"><ele>169.0</ele><time>2026-04-25T09:38:03.929Z</time></trkpt><trkpt lat="42.80634134660598" lon="10.424521772901878"><ele>166.5</ele><time>2026-04-25T09:38:04.929Z</time></trkpt><trkpt lat="42.80640777640393" lon="10.424485020745632"><ele>164.0</ele><time>2026-04-25T09:38:05.929Z</time></trkpt><trkpt lat="42.806482410874374" lon="10.4244435925882"><ele>164.0</ele><time>2026-04-25T09:38:06.929Z</time></trkpt><trkpt lat="42.80655920639881" lon="10.424439687324124"><ele>164.0</ele><time>2026-04-25T09:38:07.929Z</time></trkpt><trkpt lat="42.806659319813235" lon="10.424450980467334"><ele>164.0</ele><time>2026-04-25T09:38:08.929Z</time></trkpt><trkpt lat="42.80675269407935" lon="10.424459226100595"><ele>164.0</ele><time>2026-04-25T09:38:09.929Z</time></trkpt><trkpt lat="42.80684639646191" lon="10.424465013191421"><ele>164.0</ele><time>2026-04-25T09:38:10.929Z</time></trkpt><trkpt lat="42.80693499272822" lon="10.424467560601045"><ele>161.0</ele><time>2026-04-25T09:38:11.929Z</time></trkpt><trkpt lat="42.807025045567926" lon="10.424485508651468"><ele>158.0</ele><time>2026-04-25T09:38:12.929Z</time></trkpt><trkpt lat="42.80712025484045" lon="10.424504792516458"><ele>155.0</ele><time>2026-04-25T09:38:13.929Z</time></trkpt><trkpt lat="42.80722192929611" lon="10.424532643749185"><ele>152.0</ele><time>2026-04-25T09:38:14.929Z</time></trkpt><trkpt lat="42.807333634390076" lon="10.42456549713893"><ele>149.0</ele><time>2026-04-25T09:38:15.929Z</time></trkpt><trkpt lat="42.80744229086496" lon="10.424592047278404"><ele>149.0</ele><time>2026-04-25T09:38:16.929Z</time></trkpt><trkpt lat="42.80754688678731" lon="10.424593344567922"><ele>149.0</ele><time>2026-04-25T09:38:17.929Z</time></trkpt><trkpt lat="42.80765254881746" lon="10.424595368633371"><ele>149.0</ele><time>2026-04-25T09:38:18.929Z</time></trkpt><trkpt lat="42.807756456018446" lon="10.42460837725533"><ele>149.0</ele><time>2026-04-25T09:38:19.929Z</time></trkpt><trkpt lat="42.80785916137733" lon="10.424638518630731"><ele>149.0</ele><time>2026-04-25T09:38:20.929Z</time></trkpt><trkpt lat="42.807959713209776" lon="10.424668070606502"><ele>147.16666666666666</ele><time>2026-04-25T09:38:21.929Z</time></trkpt><trkpt lat="42.80804937028076" lon="10.424683278935152"><ele>145.33333333333331</ele><time>2026-04-25T09:38:22.929Z</time></trkpt><trkpt lat="42.80811510554109" lon="10.424691830314636"><ele>143.5</ele><time>2026-04-25T09:38:23.929Z</time></trkpt><trkpt lat="42.80819746030434" lon="10.424652575360469"><ele>141.66666666666666</ele><time>2026-04-25T09:38:25.929Z</time></trkpt><trkpt lat="42.80825453853897" lon="10.424556532293577"><ele>139.83333333333334</ele><time>2026-04-25T09:38:27.929Z</time></trkpt><trkpt lat="42.80832405319014" lon="10.42455929536681"><ele>138.0</ele><time>2026-04-25T09:38:28.929Z</time></trkpt><trkpt lat="42.80840897412475" lon="10.424607933515933"><ele>134.4</ele><time>2026-04-25T09:38:29.929Z</time></trkpt><trkpt lat="42.80849343843716" lon="10.424657842559629"><ele>130.8</ele><time>2026-04-25T09:38:30.929Z</time></trkpt><trkpt lat="42.80857022900136" lon="10.424707882938582"><ele>127.2</ele><time>2026-04-25T09:38:31.929Z</time></trkpt><trkpt lat="42.808664479949954" lon="10.42475718985897"><ele>123.6</ele><time>2026-04-25T09:38:32.929Z</time></trkpt><trkpt lat="42.80875671328924" lon="10.424812366183554"><ele>120.0</ele><time>2026-04-25T09:38:33.929Z</time></trkpt><trkpt lat="42.80884486825458" lon="10.424879871686345"><ele>120.0</ele><time>2026-04-25T09:38:34.929Z</time></trkpt><trkpt lat="42.80892587478592" lon="10.424935390744873"><ele>120.0</ele><time>2026-04-25T09:38:35.929Z</time></trkpt><trkpt lat="42.809008233638814" lon="10.425003562736025"><ele>120.0</ele><time>2026-04-25T09:38:36.928Z</time></trkpt><trkpt lat="42.809088233351375" lon="10.425056894658548"><ele>120.0</ele><time>2026-04-25T09:38:37.928Z</time></trkpt><trkpt lat="42.80917282712754" lon="10.425122015654464"><ele>120.0</ele><time>2026-04-25T09:38:38.928Z</time></trkpt><trkpt lat="42.80924863832527" lon="10.425194922148522"><ele>120.0</ele><time>2026-04-25T09:38:39.928Z</time></trkpt><trkpt lat="42.80930383505552" lon="10.42528239396291"><ele>120.0</ele><time>2026-04-25T09:38:40.928Z</time></trkpt><trkpt lat="42.80934566074027" lon="10.425382018051714"><ele>120.0</ele><time>2026-04-25T09:38:41.928Z</time></trkpt><trkpt lat="42.80938647278915" lon="10.425473308403069"><ele>120.0</ele><time>2026-04-25T09:38:42.928Z</time></trkpt><trkpt lat="42.80944869186657" lon="10.42555336455426"><ele>120.0</ele><time>2026-04-25T09:38:43.928Z</time></trkpt><trkpt lat="42.809513909620584" lon="10.42560166186051"><ele>120.0</ele><time>2026-04-25T09:38:44.928Z</time></trkpt><trkpt lat="42.80959891367647" lon="10.425650778404396"><ele>118.5</ele><time>2026-04-25T09:38:46.928Z</time></trkpt><trkpt lat="42.80964589416426" lon="10.42582236071339"><ele>117.0</ele><time>2026-04-25T09:38:48.928Z</time></trkpt><trkpt lat="42.809623048228204" lon="10.425905857313213"><ele>115.5</ele><time>2026-04-25T09:38:49.928Z</time></trkpt><trkpt lat="42.80958975516599" lon="10.42599668164135"><ele>114.0</ele><time>2026-04-25T09:38:50.928Z</time></trkpt><trkpt lat="42.809565225395126" lon="10.426080197579601"><ele>112.5</ele><time>2026-04-25T09:38:51.928Z</time></trkpt><trkpt lat="42.809587858915066" lon="10.426177871552413"><ele>111.0</ele><time>2026-04-25T09:38:52.928Z</time></trkpt><trkpt lat="42.80961443752842" lon="10.426271234852125"><ele>110.0</ele><time>2026-04-25T09:38:53.928Z</time></trkpt><trkpt lat="42.80968260028581" lon="10.426386036078833"><ele>109.0</ele><time>2026-04-25T09:38:55.928Z</time></trkpt><trkpt lat="42.80975350817342" lon="10.426462008908299"><ele>108.0</ele><time>2026-04-25T09:38:57.928Z</time></trkpt><trkpt lat="42.80984936019043" lon="10.4265206474167"><ele>107.0</ele><time>2026-04-25T09:38:59.928Z</time></trkpt><trkpt lat="42.80993493092451" lon="10.426584124405302"><ele>106.0</ele><time>2026-04-25T09:39:01.928Z</time></trkpt><trkpt lat="42.81002343681069" lon="10.426656003492097"><ele>106.00000000000001</ele><time>2026-04-25T09:39:03.928Z</time></trkpt><trkpt lat="42.810138484692835" lon="10.426715068719492"><ele>106.0</ele><time>2026-04-25T09:39:05.928Z</time></trkpt><trkpt lat="42.810203357379756" lon="10.426719318357545"><ele>106.0</ele><time>2026-04-25T09:39:06.928Z</time></trkpt><trkpt lat="42.81031727363016" lon="10.426674094714695"><ele>106.0</ele><time>2026-04-25T09:39:08.928Z</time></trkpt><trkpt lat="42.81038026422137" lon="10.426635617409147"><ele>106.00000000000001</ele><time>2026-04-25T09:39:09.928Z</time></trkpt><trkpt lat="42.81044021716801" lon="10.426597175518262"><ele>106.0</ele><time>2026-04-25T09:39:10.928Z</time></trkpt><trkpt lat="42.81053427441884" lon="10.426573278703183"><ele>103.33333333333334</ele><time>2026-04-25T09:39:12.928Z</time></trkpt><trkpt lat="42.81061250847347" lon="10.426601503749842"><ele>100.66666666666667</ele><time>2026-04-25T09:39:13.929Z</time></trkpt><trkpt lat="42.810679001348625" lon="10.426643822361042"><ele>98.0</ele><time>2026-04-25T09:39:14.928Z</time></trkpt><trkpt lat="42.81074315481573" lon="10.426676378122846"><ele>95.33333333333334</ele><time>2026-04-25T09:39:15.928Z</time></trkpt><trkpt lat="42.81085080264556" lon="10.426698476147001"><ele>92.66666666666667</ele><time>2026-04-25T09:39:17.929Z</time></trkpt><trkpt lat="42.810964164955735" lon="10.426715980726824"><ele>90.0</ele><time>2026-04-25T09:39:19.928Z</time></trkpt><trkpt lat="42.811058977379595" lon="10.426686106119531"><ele>85.8</ele><time>2026-04-25T09:39:21.928Z</time></trkpt><trkpt lat="42.811193531305115" lon="10.426696947762991"><ele>81.6</ele><time>2026-04-25T09:39:25.928Z</time></trkpt><trkpt lat="42.81127829207493" lon="10.4267167632898"><ele>77.4</ele><time>2026-04-25T09:39:28.928Z</time></trkpt><trkpt lat="42.81135037796772" lon="10.426826508186956"><ele>73.2</ele><time>2026-04-25T09:39:30.928Z</time></trkpt><trkpt lat="42.811426097698764" lon="10.42692030393115"><ele>69.0</ele><time>2026-04-25T09:39:31.928Z</time></trkpt><trkpt lat="42.81151853505988" lon="10.427016584199503"><ele>69.0</ele><time>2026-04-25T09:39:32.928Z</time></trkpt><trkpt lat="42.81159083057806" lon="10.427085693060246"><ele>69.0</ele><time>2026-04-25T09:39:33.928Z</time></trkpt><trkpt lat="42.81165405088413" lon="10.427163976200848"><ele>69.0</ele><time>2026-04-25T09:39:34.928Z</time></trkpt><trkpt lat="42.81171076893849" lon="10.427216458115735"><ele>69.0</ele><time>2026-04-25T09:39:35.928Z</time></trkpt><trkpt lat="42.81181631967912" lon="10.427288775817662"><ele>69.0</ele><time>2026-04-25T09:39:37.928Z</time></trkpt><trkpt lat="42.81186396114625" lon="10.4273662552296"><ele>69.0</ele><time>2026-04-25T09:39:38.928Z</time></trkpt><trkpt lat="42.81191917711631" lon="10.427434654564856"><ele>65.16666666666667</ele><time>2026-04-25T09:39:39.928Z</time></trkpt><trkpt lat="42.811959493958966" lon="10.427525364926238"><ele>61.333333333333336</ele><time>2026-04-25T09:39:40.928Z</time></trkpt><trkpt lat="42.81199789826385" lon="10.427597130581185"><ele>57.5</ele><time>2026-04-25T09:39:41.928Z</time></trkpt><trkpt lat="42.81205962713566" lon="10.427677573108241"><ele>53.66666666666667</ele><time>2026-04-25T09:39:42.928Z</time></trkpt><trkpt lat="42.81213258227593" lon="10.427776116807353"><ele>49.833333333333336</ele><time>2026-04-25T09:39:43.928Z</time></trkpt><trkpt lat="42.812189099016955" lon="10.427866772396921"><ele>46.0</ele><time>2026-04-25T09:39:44.928Z</time></trkpt><trkpt lat="42.812241613873105" lon="10.427950452463088"><ele>46.16666666666667</ele><time>2026-04-25T09:39:45.928Z</time></trkpt><trkpt lat="42.81229459447409" lon="10.428027628721585"><ele>46.333333333333336</ele><time>2026-04-25T09:39:46.928Z</time></trkpt><trkpt lat="42.812340640687516" lon="10.42811841914137"><ele>46.5</ele><time>2026-04-25T09:39:47.928Z</time></trkpt><trkpt lat="42.8123869806424" lon="10.42819510481503"><ele>46.666666666666664</ele><time>2026-04-25T09:39:48.928Z</time></trkpt><trkpt lat="42.81242036988199" lon="10.428268635913168"><ele>46.83333333333333</ele><time>2026-04-25T09:39:49.928Z</time></trkpt><trkpt lat="42.812472025903894" lon="10.42838287108198"><ele>47.0</ele><time>2026-04-25T09:39:51.928Z</time></trkpt><trkpt lat="42.812532776540735" lon="10.428450419235872"><ele>47.0</ele><time>2026-04-25T09:39:52.928Z</time></trkpt><trkpt lat="42.81261928202927" lon="10.42855943741821"><ele>47.0</ele><time>2026-04-25T09:39:54.928Z</time></trkpt><trkpt lat="42.812676463263855" lon="10.428610443540286"><ele>47.0</ele><time>2026-04-25T09:39:55.928Z</time></trkpt><trkpt lat="42.812744232517105" lon="10.428655097765448"><ele>47.0</ele><time>2026-04-25T09:39:56.928Z</time></trkpt><trkpt lat="42.8128512026511" lon="10.428720232135234"><ele>47.0</ele><time>2026-04-25T09:39:58.928Z</time></trkpt><trkpt lat="42.812906860683725" lon="10.428777518569829"><ele>47.0</ele><time>2026-04-25T09:39:59.927Z</time></trkpt><trkpt lat="42.81299019302469" lon="10.428837846927976"><ele>43.2</ele><time>2026-04-25T09:40:01.927Z</time></trkpt><trkpt lat="42.81309935503615" lon="10.428908543748518"><ele>39.400000000000006</ele><time>2026-04-25T09:40:04.927Z</time></trkpt><trkpt lat="42.81318883465951" lon="10.428957804149183"><ele>35.599999999999994</ele><time>2026-04-25T09:40:05.927Z</time></trkpt><trkpt lat="42.81327918645349" lon="10.42896961471122"><ele>31.799999999999997</ele><time>2026-04-25T09:40:06.927Z</time></trkpt><trkpt lat="42.81336790666932" lon="10.428981709741157"><ele>28.0</ele><time>2026-04-25T09:40:07.927Z</time></trkpt><trkpt lat="42.813449203626654" lon="10.4289627923515"><ele>29.500000000000004</ele><time>2026-04-25T09:40:08.927Z</time></trkpt><trkpt lat="42.81351348798415" lon="10.428913257559346"><ele>31.0</ele><time>2026-04-25T09:40:09.927Z</time></trkpt><trkpt lat="42.81355965904329" lon="10.428824410622148"><ele>32.5</ele><time>2026-04-25T09:40:10.927Z</time></trkpt><trkpt lat="42.81357993717932" lon="10.428734006275151"><ele>34.0</ele><time>2026-04-25T09:40:11.927Z</time></trkpt><trkpt lat="42.81356656648881" lon="10.428643760538304"><ele>35.5</ele><time>2026-04-25T09:40:12.927Z</time></trkpt><trkpt lat="42.8135437431367" lon="10.428555571967626"><ele>37.0</ele><time>2026-04-25T09:40:13.927Z</time></trkpt><trkpt lat="42.81345540990496" lon="10.428395515756536"><ele>37.0</ele><time>2026-04-25T09:40:15.927Z</time></trkpt><trkpt lat="42.81337074510171" lon="10.428319793144643"><ele>37.0</ele><time>2026-04-25T09:40:16.927Z</time></trkpt><trkpt lat="42.81327635968899" lon="10.428265574021736"><ele>37.0</ele><time>2026-04-25T09:40:17.927Z</time></trkpt><trkpt lat="42.81317783268115" lon="10.428222665271722"><ele>37.0</ele><time>2026-04-25T09:40:18.927Z</time></trkpt><trkpt lat="42.813070014472714" lon="10.428165483574872"><ele>37.0</ele><time>2026-04-25T09:40:19.927Z</time></trkpt><trkpt lat="42.81297614786459" lon="10.428093439629398"><ele>37.0</ele><time>2026-04-25T09:40:20.927Z</time></trkpt><trkpt lat="42.81288819047155" lon="10.428034714682274"><ele>37.0</ele><time>2026-04-25T09:40:21.927Z</time></trkpt><trkpt lat="42.812827807641995" lon="10.427946467135806"><ele>37.0</ele><time>2026-04-25T09:40:22.927Z</time></trkpt><trkpt lat="42.812786098661746" lon="10.427845078046571"><ele>37.0</ele><time>2026-04-25T09:40:23.927Z</time></trkpt><trkpt lat="42.81276369984056" lon="10.427730457513233"><ele>37.0</ele><time>2026-04-25T09:40:24.927Z</time></trkpt><trkpt lat="42.81275015766305" lon="10.427586263716124"><ele>37.2</ele><time>2026-04-25T09:40:25.927Z</time></trkpt><trkpt lat="42.81272942688174" lon="10.427429287243925"><ele>37.400000000000006</ele><time>2026-04-25T09:40:26.927Z</time></trkpt><trkpt lat="42.812712312077906" lon="10.427287350422583"><ele>37.599999999999994</ele><time>2026-04-25T09:40:27.927Z</time></trkpt><trkpt lat="42.81267327417904" lon="10.42716211080479"><ele>37.8</ele><time>2026-04-25T09:40:28.927Z</time></trkpt><trkpt lat="42.81262874933114" lon="10.42702903752395"><ele>38.0</ele><time>2026-04-25T09:40:29.927Z</time></trkpt><trkpt lat="42.81256915420469" lon="10.426890324880095"><ele>38.0</ele><time>2026-04-25T09:40:30.927Z</time></trkpt><trkpt lat="42.8125122230677" lon="10.426756088924947"><ele>38.0</ele><time>2026-04-25T09:40:31.927Z</time></trkpt><trkpt lat="42.81246044940907" lon="10.42662345922888"><ele>38.0</ele><time>2026-04-25T09:40:32.927Z</time></trkpt><trkpt lat="42.81240974067431" lon="10.426494574004108"><ele>38.0</ele><time>2026-04-25T09:40:33.926Z</time></trkpt><trkpt lat="42.812374710959425" lon="10.426367164098247"><ele>38.0</ele><time>2026-04-25T09:40:34.926Z</time></trkpt><trkpt lat="42.812376537072666" lon="10.426202510916964"><ele>37.8</ele><time>2026-04-25T09:40:35.926Z</time></trkpt><trkpt lat="42.81238334297426" lon="10.426030689295033"><ele>37.599999999999994</ele><time>2026-04-25T09:40:36.926Z</time></trkpt><trkpt lat="42.812388707412055" lon="10.425886236713893"><ele>37.400000000000006</ele><time>2026-04-25T09:40:37.926Z</time></trkpt><trkpt lat="42.81239612054906" lon="10.425759157756625"><ele>37.2</ele><time>2026-04-25T09:40:38.926Z</time></trkpt><trkpt lat="42.812419963517804" lon="10.42564117250124"><ele>37.0</ele><time>2026-04-25T09:40:39.926Z</time></trkpt><trkpt lat="42.81247565355085" lon="10.425510503680853"><ele>39.0</ele><time>2026-04-25T09:40:40.926Z</time></trkpt><trkpt lat="42.81255329857781" lon="10.425431527505173"><ele>41.0</ele><time>2026-04-25T09:40:41.926Z</time></trkpt><trkpt lat="42.81265244095191" lon="10.425370478645332"><ele>43.0</ele><time>2026-04-25T09:40:42.926Z</time></trkpt><trkpt lat="42.81274091596696" lon="10.425297122812449"><ele>45.0</ele><time>2026-04-25T09:40:43.926Z</time></trkpt><trkpt lat="42.81282310816929" lon="10.425221986139173"><ele>47.0</ele><time>2026-04-25T09:40:44.926Z</time></trkpt><trkpt lat="42.81289702918663" lon="10.425148010604968"><ele>43.800000000000004</ele><time>2026-04-25T09:40:45.926Z</time></trkpt><trkpt lat="42.81295101213389" lon="10.425032030146129"><ele>40.6</ele><time>2026-04-25T09:40:46.926Z</time></trkpt><trkpt lat="42.81297999203669" lon="10.424900228633053"><ele>37.400000000000006</ele><time>2026-04-25T09:40:47.926Z</time></trkpt><trkpt lat="42.813017117217626" lon="10.424742965107965"><ele>34.2</ele><time>2026-04-25T09:40:48.926Z</time></trkpt><trkpt lat="42.813046585645985" lon="10.42460449386628"><ele>31.0</ele><time>2026-04-25T09:40:49.926Z</time></trkpt><trkpt lat="42.813089652284354" lon="10.42449758325668"><ele>31.0</ele><time>2026-04-25T09:40:50.926Z</time></trkpt><trkpt lat="42.813135355917595" lon="10.424378319785053"><ele>31.0</ele><time>2026-04-25T09:40:51.926Z</time></trkpt><trkpt lat="42.813180868570406" lon="10.424241402623377"><ele>31.0</ele><time>2026-04-25T09:40:52.926Z</time></trkpt><trkpt lat="42.8132346061217" lon="10.424098932617687"><ele>31.0</ele><time>2026-04-25T09:40:53.926Z</time></trkpt><trkpt lat="42.813292216226024" lon="10.423961639591772"><ele>31.0</ele><time>2026-04-25T09:40:54.926Z</time></trkpt><trkpt lat="42.81334264716658" lon="10.423823627185163"><ele>31.8</ele><time>2026-04-25T09:40:55.926Z</time></trkpt><trkpt lat="42.81339887905823" lon="10.423697443455554"><ele>32.6</ele><time>2026-04-25T09:40:56.926Z</time></trkpt><trkpt lat="42.813460791815906" lon="10.423572259760205"><ele>33.4</ele><time>2026-04-25T09:40:57.926Z</time></trkpt><trkpt lat="42.81348729149457" lon="10.42343969168875"><ele>34.2</ele><time>2026-04-25T09:40:58.926Z</time></trkpt><trkpt lat="42.81350991720924" lon="10.423293827366532"><ele>35.0</ele><time>2026-04-25T09:40:59.926Z</time></trkpt><trkpt lat="42.81352303506082" lon="10.423106595715065"><ele>31.25</ele><time>2026-04-25T09:41:00.926Z</time></trkpt><trkpt lat="42.81351945699791" lon="10.422914057128153"><ele>27.5</ele><time>2026-04-25T09:41:01.926Z</time></trkpt><trkpt lat="42.813524641265474" lon="10.422738882613976"><ele>23.75</ele><time>2026-04-25T09:41:02.926Z</time></trkpt><trkpt lat="42.81353154547184" lon="10.422555201572678"><ele>20.0</ele><time>2026-04-25T09:41:03.926Z</time></trkpt><trkpt lat="42.813545597741054" lon="10.422406885563728"><ele>20.0</ele><time>2026-04-25T09:41:04.926Z</time></trkpt><trkpt lat="42.813553433522415" lon="10.42225413834569"><ele>20.0</ele><time>2026-04-25T09:41:05.926Z</time></trkpt><trkpt lat="42.8135794196235" lon="10.422142267389997"><ele>20.0</ele><time>2026-04-25T09:41:06.927Z</time></trkpt><trkpt lat="42.81362839241613" lon="10.42204712231077"><ele>20.0</ele><time>2026-04-25T09:41:07.928Z</time></trkpt><trkpt lat="42.81368009564781" lon="10.421958612117173"><ele>20.0</ele><time>2026-04-25T09:41:08.929Z</time></trkpt><trkpt lat="42.81374221581733" lon="10.421899658317347"><ele>20.0</ele><time>2026-04-25T09:41:09.929Z</time></trkpt><trkpt lat="42.81381251697973" lon="10.421873599991883"><ele>20.833333333333336</ele><time>2026-04-25T09:41:10.93Z</time></trkpt><trkpt lat="42.813906662527295" lon="10.421865009477074"><ele>21.666666666666668</ele><time>2026-04-25T09:41:11.931Z</time></trkpt><trkpt lat="42.813982129815145" lon="10.421843614863779"><ele>22.5</ele><time>2026-04-25T09:41:12.931Z</time></trkpt><trkpt lat="42.81405803847154" lon="10.421820752512668"><ele>23.333333333333336</ele><time>2026-04-25T09:41:14.932Z</time></trkpt><trkpt lat="42.81412669134632" lon="10.421796033436811"><ele>24.166666666666668</ele><time>2026-04-25T09:41:19.937Z</time></trkpt><trkpt lat="42.81417746049262" lon="10.421728748101652"><ele>25.0</ele><time>2026-04-25T09:41:21.937Z</time></trkpt><trkpt lat="42.814171456671524" lon="10.421573973142147"><ele>25.0</ele><time>2026-04-25T09:41:23.937Z</time></trkpt><trkpt lat="42.81414008899088" lon="10.42145702425409"><ele>25.0</ele><time>2026-04-25T09:41:24.937Z</time></trkpt><trkpt lat="42.81409269789172" lon="10.421340861754658"><ele>25.0</ele><time>2026-04-25T09:41:25.938Z</time></trkpt><trkpt lat="42.81402634435932" lon="10.421189850691665"><ele>25.0</ele><time>2026-04-25T09:41:26.938Z</time></trkpt><trkpt lat="42.81394962021468" lon="10.421043465029047"><ele>28.75</ele><time>2026-04-25T09:41:27.938Z</time></trkpt><trkpt lat="42.813869538781304" lon="10.420910990176115"><ele>32.5</ele><time>2026-04-25T09:41:28.938Z</time></trkpt><trkpt lat="42.81379085009778" lon="10.420780291254363"><ele>36.25</ele><time>2026-04-25T09:41:29.939Z</time></trkpt><trkpt lat="42.81370880314643" lon="10.420640016182471"><ele>40.0</ele><time>2026-04-25T09:41:30.939Z</time></trkpt><trkpt lat="42.81365316152458" lon="10.42049236452927"><ele>44.0</ele><time>2026-04-25T09:41:31.939Z</time></trkpt><trkpt lat="42.8136040641271" lon="10.420357513083081"><ele>48.0</ele><time>2026-04-25T09:41:32.939Z</time></trkpt><trkpt lat="42.813571004093426" lon="10.42022194129359"><ele>52.0</ele><time>2026-04-25T09:41:33.939Z</time></trkpt><trkpt lat="42.81354809451013" lon="10.420082039271238"><ele>56.0</ele><time>2026-04-25T09:41:34.939Z</time></trkpt><trkpt lat="42.813532932113056" lon="10.41993085609107"><ele>60.0</ele><time>2026-04-25T09:41:35.939Z</time></trkpt><trkpt lat="42.81353379771298" lon="10.419761270659812"><ele>60.25</ele><time>2026-04-25T09:41:36.94Z</time></trkpt><trkpt lat="42.813531195489126" lon="10.41959551419767"><ele>60.5</ele><time>2026-04-25T09:41:37.94Z</time></trkpt><trkpt lat="42.81353055622306" lon="10.419432041797483"><ele>60.75</ele><time>2026-04-25T09:41:38.94Z</time></trkpt><trkpt lat="42.81355290831121" lon="10.41926171455841"><ele>61.0</ele><time>2026-04-25T09:41:39.94Z</time></trkpt><trkpt lat="42.813590803677194" lon="10.419093068606928"><ele>61.0</ele><time>2026-04-25T09:41:40.94Z</time></trkpt><trkpt lat="42.81362461151911" lon="10.418924880269943"><ele>61.0</ele><time>2026-04-25T09:41:41.94Z</time></trkpt><trkpt lat="42.813644287099095" lon="10.418766526325117"><ele>61.0</ele><time>2026-04-25T09:41:42.94Z</time></trkpt><trkpt lat="42.813657650081296" lon="10.418601648667014"><ele>61.0</ele><time>2026-04-25T09:41:43.94Z</time></trkpt><trkpt lat="42.813686123285564" lon="10.41844498284868"><ele>58.5</ele><time>2026-04-25T09:41:44.94Z</time></trkpt><trkpt lat="42.813722199188405" lon="10.41828569318869"><ele>56.0</ele><time>2026-04-25T09:41:45.94Z</time></trkpt><trkpt lat="42.81377051497629" lon="10.418124208524505"><ele>53.5</ele><time>2026-04-25T09:41:46.94Z</time></trkpt><trkpt lat="42.81381222250566" lon="10.41798093556166"><ele>51.0</ele><time>2026-04-25T09:41:47.94Z</time></trkpt><trkpt lat="42.81383739789352" lon="10.417830400802027"><ele>48.0</ele><time>2026-04-25T09:41:48.94Z</time></trkpt><trkpt lat="42.81385871687567" lon="10.417686290657626"><ele>45.0</ele><time>2026-04-25T09:41:49.94Z</time></trkpt><trkpt lat="42.81388804855544" lon="10.417561684298208"><ele>42.0</ele><time>2026-04-25T09:41:50.94Z</time></trkpt><trkpt lat="42.81389540640429" lon="10.417453236039316"><ele>39.0</ele><time>2026-04-25T09:41:51.94Z</time></trkpt><trkpt lat="42.81388858603569" lon="10.417365194096012"><ele>36.0</ele><time>2026-04-25T09:41:52.94Z</time></trkpt><trkpt lat="42.81385843482994" lon="10.417184989815281"><ele>36.0</ele><time>2026-04-25T09:41:54.94Z</time></trkpt><trkpt lat="42.813835408200845" lon="10.417094949155564"><ele>36.0</ele><time>2026-04-25T09:41:55.94Z</time></trkpt><trkpt lat="42.81379429745141" lon="10.416957879908384"><ele>36.0</ele><time>2026-04-25T09:41:57.94Z</time></trkpt><trkpt lat="42.813762341848665" lon="10.416855127291962"><ele>36.0</ele><time>2026-04-25T09:41:59.94Z</time></trkpt><trkpt lat="42.81382617641337" lon="10.416759250519467"><ele>36.0</ele><time>2026-04-25T09:42:02.94Z</time></trkpt><trkpt lat="42.813920343257394" lon="10.416772124411313"><ele>36.0</ele><time>2026-04-25T09:42:04.94Z</time></trkpt><trkpt lat="42.81400625663696" lon="10.416772542274211"><ele>36.0</ele><time>2026-04-25T09:42:06.94Z</time></trkpt><trkpt lat="42.81408585526652" lon="10.416760570441193"><ele>36.0</ele><time>2026-04-25T09:42:08.94Z</time></trkpt><trkpt lat="42.814157125269396" lon="10.416732855772187"><ele>36.0</ele><time>2026-04-25T09:42:10.94Z</time></trkpt><trkpt lat="42.814246523198925" lon="10.416725093901425"><ele>36.0</ele><time>2026-04-25T09:42:12.94Z</time></trkpt><trkpt lat="42.8143181760424" lon="10.41671859442811"><ele>36.0</ele><time>2026-04-25T09:42:13.94Z</time></trkpt><trkpt lat="42.81439295714324" lon="10.416706741081656"><ele>36.8</ele><time>2026-04-25T09:42:14.94Z</time></trkpt><trkpt lat="42.814520509192356" lon="10.416660711191241"><ele>37.6</ele><time>2026-04-25T09:42:16.94Z</time></trkpt><trkpt lat="42.81460115408495" lon="10.416616277754374"><ele>38.4</ele><time>2026-04-25T09:42:17.94Z</time></trkpt><trkpt lat="42.814701094412435" lon="10.416546944163747"><ele>39.2</ele><time>2026-04-25T09:42:19.94Z</time></trkpt><trkpt lat="42.814792023688824" lon="10.416475498051264"><ele>40.0</ele><time>2026-04-25T09:42:20.94Z</time></trkpt><trkpt lat="42.81486331178121" lon="10.416395623527775"><ele>41.333333333333336</ele><time>2026-04-25T09:42:21.94Z</time></trkpt><trkpt lat="42.81493461357641" lon="10.416291757062522"><ele>42.66666666666667</ele><time>2026-04-25T09:42:22.94Z</time></trkpt><trkpt lat="42.81499660509422" lon="10.416198791307997"><ele>44.0</ele><time>2026-04-25T09:42:23.94Z</time></trkpt><trkpt lat="42.81506388857676" lon="10.416116420812365"><ele>45.333333333333336</ele><time>2026-04-25T09:42:24.94Z</time></trkpt><trkpt lat="42.815124492916546" lon="10.416046166969492"><ele>46.666666666666664</ele><time>2026-04-25T09:42:25.94Z</time></trkpt><trkpt lat="42.81518216352045" lon="10.415981489179691"><ele>48.0</ele><time>2026-04-25T09:42:26.94Z</time></trkpt><trkpt lat="42.81523714908102" lon="10.415918644731692"><ele>47.75</ele><time>2026-04-25T09:42:27.94Z</time></trkpt><trkpt lat="42.81529571380914" lon="10.415838489398533"><ele>47.5</ele><time>2026-04-25T09:42:28.94Z</time></trkpt><trkpt lat="42.81536739186575" lon="10.415688875987037"><ele>47.25</ele><time>2026-04-25T09:42:29.94Z</time></trkpt><trkpt lat="42.81541093656446" lon="10.415572081100596"><ele>47.0</ele><time>2026-04-25T09:42:30.94Z</time></trkpt><trkpt lat="42.81545993407125" lon="10.415339131643126"><ele>47.0</ele><time>2026-04-25T09:42:31.94Z</time></trkpt><trkpt lat="42.815413998253554" lon="10.415163443384573"><ele>47.0</ele><time>2026-04-25T09:42:32.94Z</time></trkpt><trkpt lat="42.81532933851865" lon="10.415033365199278"><ele>47.0</ele><time>2026-04-25T09:42:33.94Z</time></trkpt><trkpt lat="42.81532324592953" lon="10.414946302248623"><ele>47.0</ele><time>2026-04-25T09:42:34.94Z</time></trkpt><trkpt lat="42.8153230957349" lon="10.414800373373046"><ele>47.0</ele><time>2026-04-25T09:42:35.94Z</time></trkpt><trkpt lat="42.815346635243166" lon="10.41464634847204"><ele>48.400000000000006</ele><time>2026-04-25T09:42:36.94Z</time></trkpt><trkpt lat="42.81537574075298" lon="10.41448774631952"><ele>49.800000000000004</ele><time>2026-04-25T09:42:37.94Z</time></trkpt><trkpt lat="42.815384748080376" lon="10.414332483326017"><ele>51.2</ele><time>2026-04-25T09:42:38.94Z</time></trkpt><trkpt lat="42.815430815058406" lon="10.414200225863066"><ele>52.6</ele><time>2026-04-25T09:42:39.94Z</time></trkpt><trkpt lat="42.81546623266807" lon="10.414070012673381"><ele>54.0</ele><time>2026-04-25T09:42:40.94Z</time></trkpt><trkpt lat="42.81552660633055" lon="10.413946935991467"><ele>54.0</ele><time>2026-04-25T09:42:41.94Z</time></trkpt><trkpt lat="42.815588598861304" lon="10.413837147657006"><ele>54.0</ele><time>2026-04-25T09:42:42.94Z</time></trkpt><trkpt lat="42.815640934293555" lon="10.41375547854612"><ele>54.0</ele><time>2026-04-25T09:42:43.94Z</time></trkpt><trkpt lat="42.81569147417473" lon="10.413687279347076"><ele>54.0</ele><time>2026-04-25T09:42:44.94Z</time></trkpt><trkpt lat="42.81573585872716" lon="10.41361156046459"><ele>54.0</ele><time>2026-04-25T09:42:46.94Z</time></trkpt><trkpt lat="42.81578030735925" lon="10.413545463376419"><ele>54.0</ele><time>2026-04-25T09:42:49.94Z</time></trkpt><trkpt lat="42.81582707612613" lon="10.4134753203208"><ele>54.666666666666664</ele><time>2026-04-25T09:42:51.94Z</time></trkpt><trkpt lat="42.81585416086356" lon="10.413300469318278"><ele>55.33333333333333</ele><time>2026-04-25T09:42:53.94Z</time></trkpt><trkpt lat="42.815855937929726" lon="10.413181297434056"><ele>56.0</ele><time>2026-04-25T09:42:55.939Z</time></trkpt><trkpt lat="42.81585785324677" lon="10.41308731666156"><ele>56.666666666666664</ele><time>2026-04-25T09:42:57.939Z</time></trkpt><trkpt lat="42.815861058080806" lon="10.412972214239566"><ele>57.33333333333333</ele><time>2026-04-25T09:42:59.939Z</time></trkpt><trkpt lat="42.81586572003117" lon="10.412885617876775"><ele>58.0</ele><time>2026-04-25T09:43:00.939Z</time></trkpt><trkpt lat="42.815866542446024" lon="10.412790568011967"><ele>58.0</ele><time>2026-04-25T09:43:01.939Z</time></trkpt><trkpt lat="42.81593889649361" lon="10.41268542602733"><ele>58.0</ele><time>2026-04-25T09:43:03.939Z</time></trkpt><trkpt lat="42.81588450216888" lon="10.41248946557834"><ele>58.0</ele><time>2026-04-25T09:43:04.939Z</time></trkpt><trkpt lat="42.81584219757097" lon="10.41241080542575"><ele>58.0</ele><time>2026-04-25T09:43:05.939Z</time></trkpt><trkpt lat="42.81580116172838" lon="10.412337317175883"><ele>58.0</ele><time>2026-04-25T09:43:06.939Z</time></trkpt><trkpt lat="42.815729099347514" lon="10.412209019985466"><ele>58.99999999999999</ele><time>2026-04-25T09:43:08.939Z</time></trkpt><trkpt lat="42.81569627438333" lon="10.412131106254046"><ele>60.0</ele><time>2026-04-25T09:43:09.939Z</time></trkpt><trkpt lat="42.81565669780021" lon="10.412056566074757"><ele>61.0</ele><time>2026-04-25T09:43:10.939Z</time></trkpt><trkpt lat="42.815588567256626" lon="10.412017940949465"><ele>62.0</ele><time>2026-04-25T09:43:11.939Z</time></trkpt><trkpt lat="42.8155177361999" lon="10.41188192590592"><ele>62.99999999999999</ele><time>2026-04-25T09:43:13.939Z</time></trkpt><trkpt lat="42.8154803857209" lon="10.411730601681066"><ele>64.0</ele><time>2026-04-25T09:43:15.939Z</time></trkpt><trkpt lat="42.81542529640081" lon="10.411615792160758"><ele>63.99999999999999</ele><time>2026-04-25T09:43:17.939Z</time></trkpt><trkpt lat="42.81541505313848" lon="10.411493062051028"><ele>64.0</ele><time>2026-04-25T09:43:20.939Z</time></trkpt><trkpt lat="42.81552064036307" lon="10.411434325777034"><ele>64.0</ele><time>2026-04-25T09:43:21.939Z</time></trkpt><trkpt lat="42.815540225181806" lon="10.411351296618058"><ele>64.0</ele><time>2026-04-25T09:43:22.941Z</time></trkpt><trkpt lat="42.815587648221296" lon="10.411215334598351"><ele>63.99999999999999</ele><time>2026-04-25T09:43:24.94Z</time></trkpt><trkpt lat="42.81558701836388" lon="10.411119318830863"><ele>64.0</ele><time>2026-04-25T09:43:25.941Z</time></trkpt><trkpt lat="42.81556374240921" lon="10.411033821228534"><ele>66.60000000000001</ele><time>2026-04-25T09:43:26.94Z</time></trkpt><trkpt lat="42.81544890340651" lon="10.41094370391453"><ele>69.2</ele><time>2026-04-25T09:43:28.94Z</time></trkpt><trkpt lat="42.81536694574777" lon="10.41090595703005"><ele>71.80000000000001</ele><time>2026-04-25T09:43:29.94Z</time></trkpt><trkpt lat="42.81530452770167" lon="10.410872677274787"><ele>74.4</ele><time>2026-04-25T09:43:30.94Z</time></trkpt><trkpt lat="42.81522443914956" lon="10.410781984575928"><ele>77.0</ele><time>2026-04-25T09:43:32.94Z</time></trkpt><trkpt lat="42.815167731874325" lon="10.410687861899087"><ele>73.66666666666667</ele><time>2026-04-25T09:43:33.94Z</time></trkpt><trkpt lat="42.815115762291335" lon="10.41058874007883"><ele>70.33333333333334</ele><time>2026-04-25T09:43:34.94Z</time></trkpt><trkpt lat="42.81506520516554" lon="10.410476544268787"><ele>67.0</ele><time>2026-04-25T09:43:35.941Z</time></trkpt><trkpt lat="42.81505219808197" lon="10.410359746412999"><ele>63.66666666666667</ele><time>2026-04-25T09:43:36.941Z</time></trkpt><trkpt lat="42.8150368736396" lon="10.41026799282643"><ele>60.333333333333336</ele><time>2026-04-25T09:43:37.941Z</time></trkpt><trkpt lat="42.81502935315731" lon="10.41015744807908"><ele>57.0</ele><time>2026-04-25T09:43:38.941Z</time></trkpt><trkpt lat="42.815069470468075" lon="10.410050746521772"><ele>57.2</ele><time>2026-04-25T09:43:39.941Z</time></trkpt><trkpt lat="42.81509839947472" lon="10.409922040483863"><ele>57.400000000000006</ele><time>2026-04-25T09:43:40.941Z</time></trkpt><trkpt lat="42.8151217318684" lon="10.409810465484748"><ele>57.599999999999994</ele><time>2026-04-25T09:43:41.94Z</time></trkpt><trkpt lat="42.81514143805442" lon="10.409692956347284"><ele>57.8</ele><time>2026-04-25T09:43:42.94Z</time></trkpt><trkpt lat="42.815150058239986" lon="10.409580305196537"><ele>58.0</ele><time>2026-04-25T09:43:43.94Z</time></trkpt><trkpt lat="42.81517222887073" lon="10.409437315546239"><ele>58.83333333333333</ele><time>2026-04-25T09:43:45.94Z</time></trkpt><trkpt lat="42.81527612480357" lon="10.409369768318264"><ele>59.666666666666664</ele><time>2026-04-25T09:43:47.94Z</time></trkpt><trkpt lat="42.81537164889431" lon="10.409288830017967"><ele>60.5</ele><time>2026-04-25T09:43:49.94Z</time></trkpt><trkpt lat="42.815427307786344" lon="10.409216716012443"><ele>61.33333333333333</ele><time>2026-04-25T09:43:51.94Z</time></trkpt><trkpt lat="42.81548052798426" lon="10.409156602259639"><ele>62.166666666666664</ele><time>2026-04-25T09:43:54.94Z</time></trkpt><trkpt lat="42.815481141338765" lon="10.409066049173056"><ele>63.0</ele><time>2026-04-25T09:43:56.94Z</time></trkpt><trkpt lat="42.815409467691026" lon="10.408950402440245"><ele>63.0</ele><time>2026-04-25T09:43:58.94Z</time></trkpt><trkpt lat="42.815355350026984" lon="10.4089020067523"><ele>63.0</ele><time>2026-04-25T09:44:00.94Z</time></trkpt><trkpt lat="42.815256659629554" lon="10.408816248450028"><ele>63.0</ele><time>2026-04-25T09:44:02.94Z</time></trkpt><trkpt lat="42.81514924900628" lon="10.408747381798909"><ele>63.0</ele><time>2026-04-25T09:44:03.94Z</time></trkpt><trkpt lat="42.81506406361117" lon="10.408633394973634"><ele>63.0</ele><time>2026-04-25T09:44:04.94Z</time></trkpt><trkpt lat="42.81499521086382" lon="10.408535561822031"><ele>66.33333333333333</ele><time>2026-04-25T09:44:05.94Z</time></trkpt><trkpt lat="42.814902340928754" lon="10.408483218003107"><ele>69.66666666666666</ele><time>2026-04-25T09:44:07.94Z</time></trkpt><trkpt lat="42.814811417873834" lon="10.408429391161803"><ele>73.0</ele><time>2026-04-25T09:44:18.94Z</time></trkpt><trkpt lat="42.81498059053294" lon="10.408121797788757"><ele>73.0</ele><time>2026-04-25T09:44:26.939Z</time></trkpt><trkpt lat="42.815033543193934" lon="10.408056568800914"><ele>73.0</ele><time>2026-04-25T09:44:27.939Z</time></trkpt><trkpt lat="42.815094659541415" lon="10.408000558347817"><ele>73.0</ele><time>2026-04-25T09:44:28.939Z</time></trkpt><trkpt lat="42.81516172962291" lon="10.407948413078696"><ele>73.0</ele><time>2026-04-25T09:44:29.939Z</time></trkpt><trkpt lat="42.81526382380799" lon="10.407837662202665"><ele>73.0</ele><time>2026-04-25T09:44:31.939Z</time></trkpt><trkpt lat="42.81531325206202" lon="10.407772618205161"><ele>73.0</ele><time>2026-04-25T09:44:32.939Z</time></trkpt><trkpt lat="42.81535249766139" lon="10.407633230984267"><ele>76.0</ele><time>2026-04-25T09:44:34.939Z</time></trkpt><trkpt lat="42.81533034454032" lon="10.407435227548604"><ele>79.0</ele><time>2026-04-25T09:44:36.939Z</time></trkpt><trkpt lat="42.81532491999545" lon="10.407290744506524"><ele>82.0</ele><time>2026-04-25T09:44:37.939Z</time></trkpt><trkpt lat="42.81533397887327" lon="10.407127970457521"><ele>85.0</ele><time>2026-04-25T09:44:38.939Z</time></trkpt><trkpt lat="42.815334117766575" lon="10.406968224829573"><ele>88.0</ele><time>2026-04-25T09:44:39.939Z</time></trkpt><trkpt lat="42.81532214424644" lon="10.406833236558525"><ele>91.0</ele><time>2026-04-25T09:44:40.939Z</time></trkpt><trkpt lat="42.81530375782235" lon="10.406702619394249"><ele>94.0</ele><time>2026-04-25T09:44:41.939Z</time></trkpt><trkpt lat="42.81529444703616" lon="10.406571591729776"><ele>97.0</ele><time>2026-04-25T09:44:42.939Z</time></trkpt><trkpt lat="42.81528519253514" lon="10.406472167185568"><ele>100.0</ele><time>2026-04-25T09:44:43.939Z</time></trkpt><trkpt lat="42.81523639699438" lon="10.406351383257253"><ele>103.8</ele><time>2026-04-25T09:44:45.939Z</time></trkpt><trkpt lat="42.81522858803194" lon="10.406253068571337"><ele>107.6</ele><time>2026-04-25T09:44:47.939Z</time></trkpt><trkpt lat="42.815415135304924" lon="10.406263525413165"><ele>111.4</ele><time>2026-04-25T09:44:51.939Z</time></trkpt><trkpt lat="42.815499094540364" lon="10.40625908255499"><ele>115.2</ele><time>2026-04-25T09:44:52.939Z</time></trkpt><trkpt lat="42.815562637364984" lon="10.406237323592363"><ele>119.0</ele><time>2026-04-25T09:44:53.939Z</time></trkpt><trkpt lat="42.81563531174941" lon="10.40619287991685"><ele>118.99999999999999</ele><time>2026-04-25T09:44:55.939Z</time></trkpt><trkpt lat="42.81560858090895" lon="10.40609881046116"><ele>119.0</ele><time>2026-04-25T09:44:58.939Z</time></trkpt><trkpt lat="42.815494898956786" lon="10.406063241553131"><ele>119.0</ele><time>2026-04-25T09:45:00.939Z</time></trkpt><trkpt lat="42.81543931070074" lon="10.4060161629631"><ele>119.0</ele><time>2026-04-25T09:45:01.938Z</time></trkpt><trkpt lat="42.815384609065106" lon="10.405944464540134"><ele>118.99999999999999</ele><time>2026-04-25T09:45:02.938Z</time></trkpt><trkpt lat="42.81534724857092" lon="10.40583393748642"><ele>119.0</ele><time>2026-04-25T09:45:03.938Z</time></trkpt><trkpt lat="42.81533434344987" lon="10.405739745668905"><ele>118.99999999999999</ele><time>2026-04-25T09:45:04.938Z</time></trkpt><trkpt lat="42.81534053164883" lon="10.405644911897564"><ele>119.0</ele><time>2026-04-25T09:45:05.938Z</time></trkpt><trkpt lat="42.81540923611371" lon="10.405589699396618"><ele>119.0</ele><time>2026-04-25T09:45:07.938Z</time></trkpt><trkpt lat="42.815475235940966" lon="10.405645909964301"><ele>119.0</ele><time>2026-04-25T09:45:09.938Z</time></trkpt><trkpt lat="42.815560969158284" lon="10.40564701879084"><ele>118.99999999999999</ele><time>2026-04-25T09:45:11.938Z</time></trkpt><trkpt lat="42.81564019127057" lon="10.405564896489487"><ele>119.0</ele><time>2026-04-25T09:45:13.938Z</time></trkpt><trkpt lat="42.815651484717606" lon="10.40537690499915"><ele>121.99999999999999</ele><time>2026-04-25T09:45:15.938Z</time></trkpt><trkpt lat="42.81567961338065" lon="10.405280729995164"><ele>125.0</ele><time>2026-04-25T09:45:16.938Z</time></trkpt><trkpt lat="42.815725615768656" lon="10.405201242019261"><ele>128.0</ele><time>2026-04-25T09:45:17.938Z</time></trkpt><trkpt lat="42.81578484947162" lon="10.4051388705865"><ele>131.0</ele><time>2026-04-25T09:45:18.938Z</time></trkpt><trkpt lat="42.815849928304566" lon="10.405112776536939"><ele>134.0</ele><time>2026-04-25T09:45:19.938Z</time></trkpt><trkpt lat="42.81595891327944" lon="10.40514230243066"><ele>137.0</ele><time>2026-04-25T09:45:21.938Z</time></trkpt><trkpt lat="42.81602093769123" lon="10.405160317191083"><ele>137.0</ele><time>2026-04-25T09:45:22.938Z</time></trkpt><trkpt lat="42.81608516705456" lon="10.405111650636183"><ele>137.0</ele><time>2026-04-25T09:45:24.938Z</time></trkpt><trkpt lat="42.81605112038175" lon="10.405005833943422"><ele>137.0</ele><time>2026-04-25T09:45:27.938Z</time></trkpt><trkpt lat="42.81597848713193" lon="10.405001659334992"><ele>137.0</ele><time>2026-04-25T09:45:29.939Z</time></trkpt><trkpt lat="42.81591736887575" lon="10.404952637667767"><ele>137.0</ele><time>2026-04-25T09:45:31.939Z</time></trkpt><trkpt lat="42.815886649204685" lon="10.40487115783243"><ele>137.0</ele><time>2026-04-25T09:45:33.939Z</time></trkpt><trkpt lat="42.815960599643994" lon="10.404813499789883"><ele>138.4</ele><time>2026-04-25T09:45:35.938Z</time></trkpt><trkpt lat="42.8160651076987" lon="10.404831276158017"><ele>139.79999999999998</ele><time>2026-04-25T09:45:37.939Z</time></trkpt><trkpt lat="42.81616554511722" lon="10.404809579335149"><ele>141.2</ele><time>2026-04-25T09:45:39.939Z</time></trkpt><trkpt lat="42.816247910743975" lon="10.404770008803354"><ele>142.6</ele><time>2026-04-25T09:45:41.939Z</time></trkpt><trkpt lat="42.81622369975986" lon="10.404678105097918"><ele>144.0</ele><time>2026-04-25T09:45:43.939Z</time></trkpt><trkpt lat="42.81610804654701" lon="10.40465767287502"><ele>144.33333333333334</ele><time>2026-04-25T09:45:45.939Z</time></trkpt><trkpt lat="42.81604664446653" lon="10.404637117199892"><ele>144.66666666666666</ele><time>2026-04-25T09:45:46.939Z</time></trkpt><trkpt lat="42.81597556761984" lon="10.40449663154866"><ele>145.0</ele><time>2026-04-25T09:45:48.939Z</time></trkpt><trkpt lat="42.81595990388461" lon="10.404388369239637"><ele>145.33333333333331</ele><time>2026-04-25T09:45:49.939Z</time></trkpt><trkpt lat="42.81595889215399" lon="10.40428227683213"><ele>145.66666666666666</ele><time>2026-04-25T09:45:50.939Z</time></trkpt><trkpt lat="42.81599677577992" lon="10.404206456664175"><ele>146.0</ele><time>2026-04-25T09:45:51.939Z</time></trkpt><trkpt lat="42.816108701723905" lon="10.40414217083787"><ele>148.33333333333331</ele><time>2026-04-25T09:45:53.939Z</time></trkpt><trkpt lat="42.81618111322373" lon="10.404099797462973"><ele>150.66666666666666</ele><time>2026-04-25T09:45:54.939Z</time></trkpt><trkpt lat="42.81624550131687" lon="10.404049720536161"><ele>153.0</ele><time>2026-04-25T09:45:55.939Z</time></trkpt><trkpt lat="42.816303286475616" lon="10.404013465423056"><ele>155.33333333333334</ele><time>2026-04-25T09:45:56.939Z</time></trkpt><trkpt lat="42.81636361081754" lon="10.403972601252434"><ele>157.66666666666669</ele><time>2026-04-25T09:45:58.939Z</time></trkpt><trkpt lat="42.816410589128445" lon="10.403883368085081"><ele>160.0</ele><time>2026-04-25T09:46:00.938Z</time></trkpt><trkpt lat="42.81646032491392" lon="10.40373930919948"><ele>160.4</ele><time>2026-04-25T09:46:02.938Z</time></trkpt><trkpt lat="42.81652167524576" lon="10.403633851439569"><ele>160.8</ele><time>2026-04-25T09:46:05.938Z</time></trkpt><trkpt lat="42.81654934658657" lon="10.403533988333956"><ele>161.2</ele><time>2026-04-25T09:46:06.938Z</time></trkpt><trkpt lat="42.816575595531" lon="10.40340650119335"><ele>161.6</ele><time>2026-04-25T09:46:08.938Z</time></trkpt><trkpt lat="42.8165615087226" lon="10.40325784713282"><ele>162.0</ele><time>2026-04-25T09:46:10.938Z</time></trkpt><trkpt lat="42.81656150080549" lon="10.403139673970133"><ele>162.0</ele><time>2026-04-25T09:46:11.938Z</time></trkpt><trkpt lat="42.81653240592057" lon="10.403025603862202"><ele>162.0</ele><time>2026-04-25T09:46:12.938Z</time></trkpt><trkpt lat="42.81652444388905" lon="10.402908228729752"><ele>162.0</ele><time>2026-04-25T09:46:15.938Z</time></trkpt><trkpt lat="42.81654421698353" lon="10.402813706564341"><ele>162.0</ele><time>2026-04-25T09:46:17.938Z</time></trkpt><trkpt lat="42.816642706560636" lon="10.40284355574691"><ele>162.0</ele><time>2026-04-25T09:46:21.938Z</time></trkpt><trkpt lat="42.81673801708859" lon="10.402906063148777"><ele>163.2</ele><time>2026-04-25T09:46:23.938Z</time></trkpt><trkpt lat="42.816804792569556" lon="10.402884505330718"><ele>164.39999999999998</ele><time>2026-04-25T09:46:24.938Z</time></trkpt><trkpt lat="42.81687362987125" lon="10.402827250911045"><ele>165.60000000000002</ele><time>2026-04-25T09:46:25.938Z</time></trkpt><trkpt lat="42.81693432609779" lon="10.402733562792202"><ele>166.8</ele><time>2026-04-25T09:46:27.938Z</time></trkpt><trkpt lat="42.81687319926287" lon="10.40260979824361"><ele>168.0</ele><time>2026-04-25T09:46:30.938Z</time></trkpt><trkpt lat="42.816796309319415" lon="10.402519835135633"><ele>168.0</ele><time>2026-04-25T09:46:31.938Z</time></trkpt><trkpt lat="42.816737624599" lon="10.40244367051741"><ele>168.0</ele><time>2026-04-25T09:46:32.938Z</time></trkpt><trkpt lat="42.816692211129485" lon="10.402348714802757"><ele>168.0</ele><time>2026-04-25T09:46:33.938Z</time></trkpt><trkpt lat="42.816644607744564" lon="10.40227167400218"><ele>168.0</ele><time>2026-04-25T09:46:34.938Z</time></trkpt><trkpt lat="42.81659361125421" lon="10.402208358429816"><ele>168.0</ele><time>2026-04-25T09:46:35.938Z</time></trkpt><trkpt lat="42.81653800090578" lon="10.402141488537794"><ele>168.0</ele><time>2026-04-25T09:46:37.938Z</time></trkpt><trkpt lat="42.81639557356022" lon="10.402055932061664"><ele>170.0</ele><time>2026-04-25T09:46:46.937Z</time></trkpt><trkpt lat="42.816338628442196" lon="10.402014339358557"><ele>172.0</ele><time>2026-04-25T09:46:47.937Z</time></trkpt><trkpt lat="42.81627779331576" lon="10.401955996194703"><ele>174.0</ele><time>2026-04-25T09:46:48.937Z</time></trkpt><trkpt lat="42.81622587021703" lon="10.401891508640956"><ele>176.0</ele><time>2026-04-25T09:46:49.937Z</time></trkpt><trkpt lat="42.81617586535395" lon="10.401812404644382"><ele>178.0</ele><time>2026-04-25T09:46:50.937Z</time></trkpt><trkpt lat="42.81613293699898" lon="10.40172850520194"><ele>180.0</ele><time>2026-04-25T09:46:51.937Z</time></trkpt><trkpt lat="42.81609250391364" lon="10.401647152740209"><ele>182.0</ele><time>2026-04-25T09:46:52.937Z</time></trkpt><trkpt lat="42.81605146252415" lon="10.401567347967067"><ele>182.0</ele><time>2026-04-25T09:46:53.937Z</time></trkpt><trkpt lat="42.81601206240317" lon="10.401480482069612"><ele>182.0</ele><time>2026-04-25T09:46:54.937Z</time></trkpt><trkpt lat="42.81597879673613" lon="10.401383404031401"><ele>182.0</ele><time>2026-04-25T09:46:55.937Z</time></trkpt><trkpt lat="42.81594632087118" lon="10.401307352212932"><ele>182.0</ele><time>2026-04-25T09:46:56.937Z</time></trkpt><trkpt lat="42.815920775955114" lon="10.401209563993254"><ele>182.0</ele><time>2026-04-25T09:46:57.937Z</time></trkpt><trkpt lat="42.81585533499808" lon="10.401068884214682"><ele>182.0</ele><time>2026-04-25T09:46:59.937Z</time></trkpt><trkpt lat="42.81582737325283" lon="10.40099080124259"><ele>181.8</ele><time>2026-04-25T09:47:00.937Z</time></trkpt><trkpt lat="42.81579467863874" lon="10.400910716932398"><ele>181.6</ele><time>2026-04-25T09:47:01.937Z</time></trkpt><trkpt lat="42.815729600144714" lon="10.400781113441225"><ele>181.4</ele><time>2026-04-25T09:47:03.937Z</time></trkpt><trkpt lat="42.81566009188631" lon="10.400635479185173"><ele>181.20000000000002</ele><time>2026-04-25T09:47:05.937Z</time></trkpt><trkpt lat="42.81558503591308" lon="10.40048403719573"><ele>181.0</ele><time>2026-04-25T09:47:07.937Z</time></trkpt><trkpt lat="42.815544899235846" lon="10.400343288527074"><ele>181.0</ele><time>2026-04-25T09:47:09.937Z</time></trkpt><trkpt lat="42.815484297042104" lon="10.400199987112654"><ele>181.0</ele><time>2026-04-25T09:47:11.937Z</time></trkpt><trkpt lat="42.81543752970154" lon="10.400124193586143"><ele>181.0</ele><time>2026-04-25T09:47:12.937Z</time></trkpt><trkpt lat="42.815385346318536" lon="10.40007334953357"><ele>181.0</ele><time>2026-04-25T09:47:13.937Z</time></trkpt><trkpt lat="42.81529507358166" lon="10.400035321705142"><ele>181.0</ele><time>2026-04-25T09:47:15.937Z</time></trkpt><trkpt lat="42.81520404088744" lon="10.400127589970781"><ele>181.0</ele><time>2026-04-25T09:47:17.937Z</time></trkpt><trkpt lat="42.81516999234007" lon="10.400218954265297"><ele>181.0</ele><time>2026-04-25T09:47:18.937Z</time></trkpt><trkpt lat="42.81507280427426" lon="10.400315098657378"><ele>181.0</ele><time>2026-04-25T09:47:20.936Z</time></trkpt><trkpt lat="42.81498818430665" lon="10.400371732029543"><ele>181.0</ele><time>2026-04-25T09:47:24.936Z</time></trkpt><trkpt lat="42.814921924398696" lon="10.40036606451853"><ele>181.0</ele><time>2026-04-25T09:47:25.936Z</time></trkpt><trkpt lat="42.81484572738287" lon="10.400395711712857"><ele>181.0</ele><time>2026-04-25T09:47:26.936Z</time></trkpt><trkpt lat="42.814785000607046" lon="10.400476724972597"><ele>177.16666666666669</ele><time>2026-04-25T09:47:29.936Z</time></trkpt><trkpt lat="42.81472533374732" lon="10.40053626619942"><ele>173.33333333333334</ele><time>2026-04-25T09:47:30.936Z</time></trkpt><trkpt lat="42.814674480902106" lon="10.400600356912388"><ele>169.5</ele><time>2026-04-25T09:47:31.936Z</time></trkpt><trkpt lat="42.814626187647576" lon="10.40069653235549"><ele>165.66666666666666</ele><time>2026-04-25T09:47:32.936Z</time></trkpt><trkpt lat="42.81455950601655" lon="10.400827092071111"><ele>161.83333333333331</ele><time>2026-04-25T09:47:34.938Z</time></trkpt><trkpt lat="42.81453215538507" lon="10.400936468298342"><ele>158.0</ele><time>2026-04-25T09:47:35.938Z</time></trkpt><trkpt lat="42.81451459805497" lon="10.401038890226689"><ele>158.0</ele><time>2026-04-25T09:47:36.938Z</time></trkpt><trkpt lat="42.81444372664796" lon="10.401084904459506"><ele>158.0</ele><time>2026-04-25T09:47:37.938Z</time></trkpt><trkpt lat="42.814388275022324" lon="10.401142640067595"><ele>158.0</ele><time>2026-04-25T09:47:38.938Z</time></trkpt><trkpt lat="42.814337160462074" lon="10.401224519986759"><ele>158.0</ele><time>2026-04-25T09:47:39.938Z</time></trkpt><trkpt lat="42.81430215024895" lon="10.40132476028721"><ele>158.0</ele><time>2026-04-25T09:47:40.938Z</time></trkpt><trkpt lat="42.81421411646187" lon="10.401453693319647"><ele>158.0</ele><time>2026-04-25T09:47:42.938Z</time></trkpt><trkpt lat="42.81415553766916" lon="10.401542592040682"><ele>159.66666666666666</ele><time>2026-04-25T09:47:44.938Z</time></trkpt><trkpt lat="42.814091793307554" lon="10.40155306794909"><ele>161.33333333333331</ele><time>2026-04-25T09:47:45.938Z</time></trkpt><trkpt lat="42.81401592431833" lon="10.40153286835396"><ele>163.0</ele><time>2026-04-25T09:47:46.938Z</time></trkpt><trkpt lat="42.81392254205028" lon="10.401515239468452"><ele>164.66666666666666</ele><time>2026-04-25T09:47:48.938Z</time></trkpt><trkpt lat="42.81386675069368" lon="10.401415238520462"><ele>166.33333333333334</ele><time>2026-04-25T09:47:52.938Z</time></trkpt><trkpt lat="42.813871696697596" lon="10.40131403190805"><ele>168.0</ele><time>2026-04-25T09:47:54.938Z</time></trkpt><trkpt lat="42.81387933642424" lon="10.40122244313152"><ele>169.16666666666666</ele><time>2026-04-25T09:47:56.938Z</time></trkpt><trkpt lat="42.81389087083202" lon="10.401130447675746"><ele>170.33333333333334</ele><time>2026-04-25T09:47:58.938Z</time></trkpt><trkpt lat="42.81390396634966" lon="10.401035931283118"><ele>171.5</ele><time>2026-04-25T09:48:00.938Z</time></trkpt><trkpt lat="42.81392356381328" lon="10.400918506669399"><ele>172.66666666666669</ele><time>2026-04-25T09:48:02.938Z</time></trkpt><trkpt lat="42.8139285110594" lon="10.4007909403613"><ele>173.83333333333334</ele><time>2026-04-25T09:48:04.938Z</time></trkpt><trkpt lat="42.813955762875075" lon="10.400676262212729"><ele>175.0</ele><time>2026-04-25T09:48:06.938Z</time></trkpt><trkpt lat="42.81397191161321" lon="10.400540180218735"><ele>176.0</ele><time>2026-04-25T09:48:08.938Z</time></trkpt><trkpt lat="42.81394293840212" lon="10.400400444633375"><ele>177.0</ele><time>2026-04-25T09:48:10.937Z</time></trkpt><trkpt lat="42.81396956357689" lon="10.400267036804106"><ele>178.0</ele><time>2026-04-25T09:48:12.937Z</time></trkpt><trkpt lat="42.81402121766413" lon="10.400180762412745"><ele>179.0</ele><time>2026-04-25T09:48:13.937Z</time></trkpt><trkpt lat="42.814070064317335" lon="10.400096965418692"><ele>180.0</ele><time>2026-04-25T09:48:14.937Z</time></trkpt><trkpt lat="42.81409335027598" lon="10.399998150237634"><ele>181.0</ele><time>2026-04-25T09:48:16.937Z</time></trkpt><trkpt lat="42.81405489738088" lon="10.399905806290079"><ele>181.0</ele><time>2026-04-25T09:48:18.937Z</time></trkpt><trkpt lat="42.8140467122288" lon="10.39973942832132"><ele>181.0</ele><time>2026-04-25T09:48:21.937Z</time></trkpt><trkpt lat="42.81406985758692" lon="10.399650105571064"><ele>181.0</ele><time>2026-04-25T09:48:23.937Z</time></trkpt><trkpt lat="42.81401229539341" lon="10.399578533687786"><ele>181.0</ele><time>2026-04-25T09:48:25.937Z</time></trkpt><trkpt lat="42.81400246708959" lon="10.399481433252378"><ele>181.0</ele><time>2026-04-25T09:48:26.937Z</time></trkpt><trkpt lat="42.81397994734073" lon="10.399354506761089"><ele>181.0</ele><time>2026-04-25T09:48:27.937Z</time></trkpt><trkpt lat="42.81396672392238" lon="10.399212327514899"><ele>185.25</ele><time>2026-04-25T09:48:28.937Z</time></trkpt><trkpt lat="42.81395669448549" lon="10.399082765046053"><ele>189.5</ele><time>2026-04-25T09:48:30.937Z</time></trkpt><trkpt lat="42.81382774719241" lon="10.398960057376774"><ele>193.75</ele><time>2026-04-25T09:48:32.937Z</time></trkpt><trkpt lat="42.813729863451364" lon="10.398880179594519"><ele>198.0</ele><time>2026-04-25T09:48:33.937Z</time></trkpt><trkpt lat="42.81364649295166" lon="10.398799174462656"><ele>201.2</ele><time>2026-04-25T09:48:34.937Z</time></trkpt><trkpt lat="42.813561375234904" lon="10.398687306755145"><ele>204.4</ele><time>2026-04-25T09:48:35.937Z</time></trkpt><trkpt lat="42.813510321503124" lon="10.398589126244799"><ele>207.59999999999997</ele><time>2026-04-25T09:48:36.937Z</time></trkpt><trkpt lat="42.81347127901185" lon="10.39849339453765"><ele>210.79999999999998</ele><time>2026-04-25T09:48:37.937Z</time></trkpt><trkpt lat="42.81341954505656" lon="10.398375242710486"><ele>214.0</ele><time>2026-04-25T09:48:38.937Z</time></trkpt><trkpt lat="42.81337300918934" lon="10.398250363950297"><ele>213.99999999999997</ele><time>2026-04-25T09:48:39.937Z</time></trkpt><trkpt lat="42.81331545969723" lon="10.398159546569085"><ele>214.0</ele><time>2026-04-25T09:48:40.937Z</time></trkpt><trkpt lat="42.81323769210645" lon="10.398119730416232"><ele>214.0</ele><time>2026-04-25T09:48:41.937Z</time></trkpt><trkpt lat="42.81314993411564" lon="10.398073455361734"><ele>214.0</ele><time>2026-04-25T09:48:42.937Z</time></trkpt><trkpt lat="42.8130677083126" lon="10.398022140947097"><ele>213.99999999999997</ele><time>2026-04-25T09:48:43.937Z</time></trkpt><trkpt lat="42.81299992481313" lon="10.397953049860403"><ele>214.0</ele><time>2026-04-25T09:48:44.937Z</time></trkpt><trkpt lat="42.81290134857082" lon="10.397837554631058"><ele>217.16666666666666</ele><time>2026-04-25T09:48:46.937Z</time></trkpt><trkpt lat="42.81284440654405" lon="10.397762096915645"><ele>220.33333333333331</ele><time>2026-04-25T09:48:47.937Z</time></trkpt><trkpt lat="42.81278100577926" lon="10.39767224636316"><ele>223.5</ele><time>2026-04-25T09:48:48.937Z</time></trkpt><trkpt lat="42.81272190615601" lon="10.397577272125934"><ele>226.66666666666669</ele><time>2026-04-25T09:48:49.936Z</time></trkpt><trkpt lat="42.81266599480438" lon="10.397474145658082"><ele>229.83333333333334</ele><time>2026-04-25T09:48:50.936Z</time></trkpt><trkpt lat="42.812601176804094" lon="10.39740307357336"><ele>233.0</ele><time>2026-04-25T09:48:51.936Z</time></trkpt><trkpt lat="42.812547753263225" lon="10.397345252812078"><ele>233.00000000000003</ele><time>2026-04-25T09:48:52.936Z</time></trkpt><trkpt lat="42.812484128928574" lon="10.397287484046183"><ele>233.0</ele><time>2026-04-25T09:48:53.936Z</time></trkpt><trkpt lat="42.81241450116514" lon="10.397235774865852"><ele>233.0</ele><time>2026-04-25T09:48:54.936Z</time></trkpt><trkpt lat="42.81234940322237" lon="10.39718661509625"><ele>233.0</ele><time>2026-04-25T09:48:55.936Z</time></trkpt><trkpt lat="42.81227498355407" lon="10.397098791497607"><ele>233.00000000000003</ele><time>2026-04-25T09:48:57.936Z</time></trkpt><trkpt lat="42.812258899173884" lon="10.39700445105813"><ele>233.0</ele><time>2026-04-25T09:48:58.936Z</time></trkpt><trkpt lat="42.812245162710404" lon="10.396808321552054"><ele>239.0</ele><time>2026-04-25T09:49:00.936Z</time></trkpt><trkpt lat="42.812251274840726" lon="10.396681033423748"><ele>245.0</ele><time>2026-04-25T09:49:01.936Z</time></trkpt><trkpt lat="42.812267736342314" lon="10.396574361728682"><ele>251.0</ele><time>2026-04-25T09:49:02.936Z</time></trkpt><trkpt lat="42.81221791854534" lon="10.39648801120025"><ele>257.0</ele><time>2026-04-25T09:49:05.936Z</time></trkpt><trkpt lat="42.812098089482234" lon="10.396492094559827"><ele>263.0</ele><time>2026-04-25T09:49:07.936Z</time></trkpt><trkpt lat="42.81201984431929" lon="10.39653241647391"><ele>263.0</ele><time>2026-04-25T09:49:08.936Z</time></trkpt><trkpt lat="42.81192965556612" lon="10.396592823150451"><ele>263.0</ele><time>2026-04-25T09:49:09.936Z</time></trkpt><trkpt lat="42.8118218669732" lon="10.396657685632507"><ele>263.0</ele><time>2026-04-25T09:49:10.936Z</time></trkpt><trkpt lat="42.81171208290922" lon="10.396725174161903"><ele>263.0</ele><time>2026-04-25T09:49:11.936Z</time></trkpt><trkpt lat="42.81158938997365" lon="10.396823692036717"><ele>264.2</ele><time>2026-04-25T09:49:12.936Z</time></trkpt><trkpt lat="42.81152025286262" lon="10.396898052369915"><ele>265.4</ele><time>2026-04-25T09:49:13.936Z</time></trkpt><trkpt lat="42.81140062062522" lon="10.396729675050018"><ele>266.59999999999997</ele><time>2026-04-25T09:49:17.936Z</time></trkpt><trkpt lat="42.81134704380956" lon="10.396661133180777"><ele>267.8</ele><time>2026-04-25T09:49:19.936Z</time></trkpt><trkpt lat="42.81124800162382" lon="10.396587512789907"><ele>269.0</ele><time>2026-04-25T09:49:21.936Z</time></trkpt><trkpt lat="42.81118500141333" lon="10.39653885332165"><ele>269.0</ele><time>2026-04-25T09:49:23.936Z</time></trkpt><trkpt lat="42.81114106031814" lon="10.396470232405047"><ele>269.0</ele><time>2026-04-25T09:49:26.936Z</time></trkpt><trkpt lat="42.81108475970298" lon="10.396399746282917"><ele>269.0</ele><time>2026-04-25T09:49:37.935Z</time></trkpt><trkpt lat="42.81112039059813" lon="10.396321087822091"><ele>269.0</ele><time>2026-04-25T09:49:41.936Z</time></trkpt><trkpt lat="42.811181368623984" lon="10.396281609101099"><ele>269.0</ele><time>2026-04-25T09:49:47.937Z</time></trkpt><trkpt lat="42.81122914235064" lon="10.39619426223161"><ele>269.0</ele><time>2026-04-25T09:49:50.936Z</time></trkpt><trkpt lat="42.81128018405741" lon="10.396104279149132"><ele>269.0</ele><time>2026-04-25T09:49:52.936Z</time></trkpt><trkpt lat="42.81134310996649" lon="10.396008339007599"><ele>273.0</ele><time>2026-04-25T09:49:54.936Z</time></trkpt><trkpt lat="42.81140581095205" lon="10.395972125144294"><ele>277.0</ele><time>2026-04-25T09:49:55.936Z</time></trkpt><trkpt lat="42.81153294047404" lon="10.39587867065562"><ele>281.0</ele><time>2026-04-25T09:49:57.936Z</time></trkpt><trkpt lat="42.811606513604616" lon="10.395816133841475"><ele>285.0</ele><time>2026-04-25T09:49:58.936Z</time></trkpt><trkpt lat="42.811681076599726" lon="10.395736526938173"><ele>289.0</ele><time>2026-04-25T09:49:59.936Z</time></trkpt><trkpt lat="42.811764494050585" lon="10.395674419562663"><ele>289.4</ele><time>2026-04-25T09:50:00.936Z</time></trkpt><trkpt lat="42.81185248848593" lon="10.39560220375716"><ele>289.79999999999995</ele><time>2026-04-25T09:50:01.936Z</time></trkpt><trkpt lat="42.811929725251495" lon="10.395520413454287"><ele>290.20000000000005</ele><time>2026-04-25T09:50:02.936Z</time></trkpt><trkpt lat="42.81200864519071" lon="10.395439937587811"><ele>290.6</ele><time>2026-04-25T09:50:03.936Z</time></trkpt><trkpt lat="42.81206548846196" lon="10.395377766445607"><ele>291.0</ele><time>2026-04-25T09:50:04.936Z</time></trkpt><trkpt lat="42.81212448557907" lon="10.395277370092657"><ele>293.5</ele><time>2026-04-25T09:50:05.936Z</time></trkpt><trkpt lat="42.81217839391415" lon="10.395181997853603"><ele>296.0</ele><time>2026-04-25T09:50:06.936Z</time></trkpt><trkpt lat="42.81224298165748" lon="10.395110745336522"><ele>298.5</ele><time>2026-04-25T09:50:07.936Z</time></trkpt><trkpt lat="42.81231411553182" lon="10.395021639386833"><ele>301.0</ele><time>2026-04-25T09:50:08.936Z</time></trkpt><trkpt lat="42.81238695318007" lon="10.394967995004842"><ele>303.5</ele><time>2026-04-25T09:50:09.936Z</time></trkpt><trkpt lat="42.81244299063626" lon="10.394912211620602"><ele>306.0</ele><time>2026-04-25T09:50:10.936Z</time></trkpt><trkpt lat="42.812493189939865" lon="10.394838764921307"><ele>306.0</ele><time>2026-04-25T09:50:11.936Z</time></trkpt><trkpt lat="42.81250098675654" lon="10.39469834143104"><ele>306.0</ele><time>2026-04-25T09:50:13.936Z</time></trkpt><trkpt lat="42.81251794871797" lon="10.394600229395355"><ele>306.0</ele><time>2026-04-25T09:50:14.936Z</time></trkpt><trkpt lat="42.81254217934216" lon="10.39448986674719"><ele>306.0</ele><time>2026-04-25T09:50:16.936Z</time></trkpt><trkpt lat="42.812563798026346" lon="10.39440639809555"><ele>306.0</ele><time>2026-04-25T09:50:18.935Z</time></trkpt><trkpt lat="42.81263855886852" lon="10.394394041016827"><ele>306.0</ele><time>2026-04-25T09:50:21.935Z</time></trkpt><trkpt lat="42.81269361597934" lon="10.39445565854766"><ele>311.0</ele><time>2026-04-25T09:50:23.935Z</time></trkpt><trkpt lat="42.81274459910348" lon="10.394528682198551"><ele>316.0</ele><time>2026-04-25T09:50:26.935Z</time></trkpt><trkpt lat="42.81279257890489" lon="10.394638793691254"><ele>321.0</ele><time>2026-04-25T09:50:28.935Z</time></trkpt><trkpt lat="42.81283051541377" lon="10.394749532755352"><ele>326.0</ele><time>2026-04-25T09:50:30.935Z</time></trkpt><trkpt lat="42.8128201439756" lon="10.394841982369137"><ele>331.0</ele><time>2026-04-25T09:50:32.935Z</time></trkpt><trkpt lat="42.81281282676498" lon="10.394940206231256"><ele>336.0</ele><time>2026-04-25T09:50:34.935Z</time></trkpt><trkpt lat="42.812835169969155" lon="10.395113320612909"><ele>336.0</ele><time>2026-04-25T09:50:36.935Z</time></trkpt><trkpt lat="42.812914805170635" lon="10.395251510447308"><ele>336.0</ele><time>2026-04-25T09:50:38.935Z</time></trkpt><trkpt lat="42.81295763874908" lon="10.39532659260966"><ele>336.0</ele><time>2026-04-25T09:50:39.935Z</time></trkpt><trkpt lat="42.813009139563725" lon="10.395404294218496"><ele>336.0</ele><time>2026-04-25T09:50:40.935Z</time></trkpt><trkpt lat="42.81305608897449" lon="10.395465936842392"><ele>336.0</ele><time>2026-04-25T09:50:41.935Z</time></trkpt><trkpt lat="42.81310723013133" lon="10.395518527339494"><ele>336.0</ele><time>2026-04-25T09:50:42.935Z</time></trkpt><trkpt lat="42.813180546527185" lon="10.395587370412244"><ele>332.40000000000003</ele><time>2026-04-25T09:50:43.935Z</time></trkpt><trkpt lat="42.813256541570766" lon="10.395654078245837"><ele>328.8</ele><time>2026-04-25T09:50:44.935Z</time></trkpt><trkpt lat="42.81331310683636" lon="10.395703345745199"><ele>325.20000000000005</ele><time>2026-04-25T09:50:45.935Z</time></trkpt><trkpt lat="42.81342027414944" lon="10.395740544171773"><ele>321.6</ele><time>2026-04-25T09:50:47.935Z</time></trkpt><trkpt lat="42.81354399713277" lon="10.395746040725651"><ele>318.0</ele><time>2026-04-25T09:50:49.935Z</time></trkpt><trkpt lat="42.81367362784433" lon="10.39571904085034"><ele>317.6</ele><time>2026-04-25T09:50:51.935Z</time></trkpt><trkpt lat="42.81379499434787" lon="10.395663457113159"><ele>317.20000000000005</ele><time>2026-04-25T09:50:53.935Z</time></trkpt><trkpt lat="42.81387271088064" lon="10.395606903730993"><ele>316.8</ele><time>2026-04-25T09:50:54.935Z</time></trkpt><trkpt lat="42.81393366307228" lon="10.395539386367924"><ele>316.40000000000003</ele><time>2026-04-25T09:50:55.935Z</time></trkpt><trkpt lat="42.81397568054143" lon="10.395453903470013"><ele>316.0</ele><time>2026-04-25T09:50:56.935Z</time></trkpt><trkpt lat="42.8140164152367" lon="10.395360671012776"><ele>319.20000000000005</ele><time>2026-04-25T09:50:57.935Z</time></trkpt><trkpt lat="42.81406796117872" lon="10.395267655784748"><ele>322.40000000000003</ele><time>2026-04-25T09:50:58.934Z</time></trkpt><trkpt lat="42.814114766730526" lon="10.39517280435006"><ele>325.6</ele><time>2026-04-25T09:50:59.934Z</time></trkpt><trkpt lat="42.814232625866055" lon="10.394997594501547"><ele>328.8</ele><time>2026-04-25T09:51:01.934Z</time></trkpt><trkpt lat="42.814275654404724" lon="10.394913424198988"><ele>332.0</ele><time>2026-04-25T09:51:02.934Z</time></trkpt><trkpt lat="42.8143452958602" lon="10.394854355675845"><ele>332.0</ele><time>2026-04-25T09:51:03.934Z</time></trkpt><trkpt lat="42.8143928755167" lon="10.394787516845662"><ele>332.0</ele><time>2026-04-25T09:51:04.934Z</time></trkpt><trkpt lat="42.814450091668064" lon="10.394650181252294"><ele>332.0</ele><time>2026-04-25T09:51:06.934Z</time></trkpt><trkpt lat="42.81449007684009" lon="10.394523584577511"><ele>332.0</ele><time>2026-04-25T09:51:07.934Z</time></trkpt><trkpt lat="42.8145429349076" lon="10.394397576273331"><ele>332.0</ele><time>2026-04-25T09:51:08.934Z</time></trkpt><trkpt lat="42.81460132018591" lon="10.394264733776076"><ele>334.0</ele><time>2026-04-25T09:51:09.934Z</time></trkpt><trkpt lat="42.81465812517667" lon="10.394147312740195"><ele>336.0</ele><time>2026-04-25T09:51:10.934Z</time></trkpt><trkpt lat="42.81470277985644" lon="10.394021676979845"><ele>338.0</ele><time>2026-04-25T09:51:11.934Z</time></trkpt><trkpt lat="42.81472952514017" lon="10.393925532337011"><ele>340.0</ele><time>2026-04-25T09:51:12.934Z</time></trkpt><trkpt lat="42.814759622534815" lon="10.393773436591417"><ele>342.0</ele><time>2026-04-25T09:51:14.934Z</time></trkpt><trkpt lat="42.81479614052199" lon="10.393649966297128"><ele>342.0</ele><time>2026-04-25T09:51:16.934Z</time></trkpt><trkpt lat="42.81482445028469" lon="10.393557740493693"><ele>342.0</ele><time>2026-04-25T09:51:32.934Z</time></trkpt><trkpt lat="42.814833497968785" lon="10.393467521030262"><ele>342.0</ele><time>2026-04-25T09:51:36.934Z</time></trkpt><trkpt lat="42.814853439016794" lon="10.393353222470092"><ele>342.0</ele><time>2026-04-25T09:51:39.933Z</time></trkpt><trkpt lat="42.814872728020646" lon="10.393249372606636"><ele>342.0</ele><time>2026-04-25T09:51:41.933Z</time></trkpt><trkpt lat="42.81490955492325" lon="10.393131151089737"><ele>342.0</ele><time>2026-04-25T09:51:43.933Z</time></trkpt><trkpt lat="42.8149654713845" lon="10.39300151547508"><ele>342.0</ele><time>2026-04-25T09:51:45.933Z</time></trkpt><trkpt lat="42.815040251442824" lon="10.392869497071331"><ele>342.0</ele><time>2026-04-25T09:51:47.935Z</time></trkpt><trkpt lat="42.815082708564155" lon="10.392803181105412"><ele>342.0</ele><time>2026-04-25T09:51:48.935Z</time></trkpt><trkpt lat="42.81514652880662" lon="10.392689417192797"><ele>342.0</ele><time>2026-04-25T09:51:50.935Z</time></trkpt><trkpt lat="42.815209097710074" lon="10.392557913156471"><ele>342.0</ele><time>2026-04-25T09:51:52.935Z</time></trkpt><trkpt lat="42.81527466886372" lon="10.392415818127628"><ele>342.0</ele><time>2026-04-25T09:51:54.935Z</time></trkpt><trkpt lat="42.815338790543095" lon="10.392278870513735"><ele>342.0</ele><time>2026-04-25T09:51:56.935Z</time></trkpt><trkpt lat="42.81535993518339" lon="10.392192961274672"><ele>342.0</ele><time>2026-04-25T09:51:57.935Z</time></trkpt><trkpt lat="42.81537955640177" lon="10.392056364797932"><ele>342.0</ele><time>2026-04-25T09:51:59.935Z</time></trkpt><trkpt lat="42.81542154395242" lon="10.391923192105564"><ele>342.0</ele><time>2026-04-25T09:52:01.935Z</time></trkpt><trkpt lat="42.81543354417227" lon="10.391772525940551"><ele>335.8</ele><time>2026-04-25T09:52:03.935Z</time></trkpt><trkpt lat="42.81541656827796" lon="10.391639727336054"><ele>329.6</ele><time>2026-04-25T09:52:05.935Z</time></trkpt><trkpt lat="42.81538528159862" lon="10.391509414187373"><ele>323.40000000000003</ele><time>2026-04-25T09:52:07.935Z</time></trkpt><trkpt lat="42.81536252621304" lon="10.391372512819483"><ele>317.20000000000005</ele><time>2026-04-25T09:52:09.935Z</time></trkpt><trkpt lat="42.81534148817475" lon="10.391259161693425"><ele>311.0</ele><time>2026-04-25T09:52:11.935Z</time></trkpt><trkpt lat="42.815315674920896" lon="10.391114622058643"><ele>313.25</ele><time>2026-04-25T09:52:13.935Z</time></trkpt><trkpt lat="42.8152638332699" lon="10.390966410574814"><ele>315.5</ele><time>2026-04-25T09:52:15.935Z</time></trkpt><trkpt lat="42.81516831075952" lon="10.390871644749891"><ele>317.75</ele><time>2026-04-25T09:52:17.935Z</time></trkpt><trkpt lat="42.8150558918932" lon="10.390827448658344"><ele>320.0</ele><time>2026-04-25T09:52:19.935Z</time></trkpt><trkpt lat="42.81492812772514" lon="10.390807769579592"><ele>320.0</ele><time>2026-04-25T09:52:21.935Z</time></trkpt><trkpt lat="42.81481099542082" lon="10.390807215723717"><ele>320.0</ele><time>2026-04-25T09:52:23.935Z</time></trkpt><trkpt lat="42.814707158249114" lon="10.390844012918917"><ele>320.0</ele><time>2026-04-25T09:52:25.935Z</time></trkpt><trkpt lat="42.814634914578114" lon="10.390822008129513"><ele>320.0</ele><time>2026-04-25T09:52:27.935Z</time></trkpt><trkpt lat="42.81462383766864" lon="10.390715462449549"><ele>320.0</ele><time>2026-04-25T09:52:29.935Z</time></trkpt><trkpt lat="42.814667508863806" lon="10.390571360721527"><ele>316.33333333333337</ele><time>2026-04-25T09:52:32.935Z</time></trkpt><trkpt lat="42.81467616312375" lon="10.390453695302881"><ele>312.6666666666667</ele><time>2026-04-25T09:52:34.935Z</time></trkpt><trkpt lat="42.81466140407122" lon="10.390321419085755"><ele>309.0</ele><time>2026-04-25T09:52:36.935Z</time></trkpt><trkpt lat="42.81464098426824" lon="10.39023791046644"><ele>305.3333333333333</ele><time>2026-04-25T09:52:37.935Z</time></trkpt><trkpt lat="42.81458470689099" lon="10.390109119495568"><ele>301.66666666666663</ele><time>2026-04-25T09:52:39.934Z</time></trkpt><trkpt lat="42.81459675459017" lon="10.389987935636437"><ele>298.0</ele><time>2026-04-25T09:52:41.934Z</time></trkpt><trkpt lat="42.814595062210806" lon="10.389898404342327"><ele>298.0</ele><time>2026-04-25T09:52:43.934Z</time></trkpt><trkpt lat="42.81462222917802" lon="10.38979838390955"><ele>298.0</ele><time>2026-04-25T09:52:45.934Z</time></trkpt><trkpt lat="42.814635047491905" lon="10.389676450108276"><ele>298.0</ele><time>2026-04-25T09:52:47.934Z</time></trkpt><trkpt lat="42.814630079581654" lon="10.3895855942974"><ele>298.0</ele><time>2026-04-25T09:52:48.934Z</time></trkpt><trkpt lat="42.81464812109602" lon="10.389473615546777"><ele>298.0</ele><time>2026-04-25T09:52:49.934Z</time></trkpt><trkpt lat="42.81467195124932" lon="10.389386578008589"><ele>298.0</ele><time>2026-04-25T09:52:50.934Z</time></trkpt><trkpt lat="42.81472791853468" lon="10.389273889290132"><ele>297.6</ele><time>2026-04-25T09:52:52.934Z</time></trkpt><trkpt lat="42.81477532619579" lon="10.389181108661221"><ele>297.20000000000005</ele><time>2026-04-25T09:52:54.934Z</time></trkpt><trkpt lat="42.814783632623424" lon="10.38905002195701"><ele>296.8</ele><time>2026-04-25T09:52:57.934Z</time></trkpt><trkpt lat="42.814781831111354" lon="10.38893222518947"><ele>296.40000000000003</ele><time>2026-04-25T09:52:59.934Z</time></trkpt><trkpt lat="42.81476657636926" lon="10.388783564764593"><ele>296.0</ele><time>2026-04-25T09:53:01.934Z</time></trkpt><trkpt lat="42.81474406339864" lon="10.38864651759488"><ele>296.0</ele><time>2026-04-25T09:53:03.934Z</time></trkpt><trkpt lat="42.81470613023729" lon="10.388543703668846"><ele>296.0</ele><time>2026-04-25T09:53:05.934Z</time></trkpt><trkpt lat="42.8146900693478" lon="10.38845270400258"><ele>296.0</ele><time>2026-04-25T09:53:07.934Z</time></trkpt><trkpt lat="42.81468895025487" lon="10.388363064983077"><ele>296.0</ele><time>2026-04-25T09:53:10.934Z</time></trkpt><trkpt lat="42.81469047780113" lon="10.388253202488084"><ele>296.0</ele><time>2026-04-25T09:53:12.934Z</time></trkpt><trkpt lat="42.814684022194015" lon="10.388137049420383"><ele>296.0</ele><time>2026-04-25T09:53:14.934Z</time></trkpt><trkpt lat="42.814688665546655" lon="10.388015290811582"><ele>297.2</ele><time>2026-04-25T09:53:16.934Z</time></trkpt><trkpt lat="42.814674629172515" lon="10.387900893943874"><ele>298.40000000000003</ele><time>2026-04-25T09:53:18.934Z</time></trkpt><trkpt lat="42.81470816040009" lon="10.38777630953107"><ele>299.6</ele><time>2026-04-25T09:53:20.933Z</time></trkpt><trkpt lat="42.81478960094963" lon="10.387682832478736"><ele>300.8</ele><time>2026-04-25T09:53:22.933Z</time></trkpt><trkpt lat="42.81486161212542" lon="10.387602348771454"><ele>302.0</ele><time>2026-04-25T09:53:24.933Z</time></trkpt><trkpt lat="42.81493656554912" lon="10.387532639659854"><ele>302.0</ele><time>2026-04-25T09:53:26.933Z</time></trkpt><trkpt lat="42.81499061365283" lon="10.387487863401846"><ele>302.0</ele><time>2026-04-25T09:53:27.933Z</time></trkpt><trkpt lat="42.81508868641148" lon="10.387398614941267"><ele>302.0</ele><time>2026-04-25T09:53:29.933Z</time></trkpt><trkpt lat="42.81515726587416" lon="10.387320448258606"><ele>302.0</ele><time>2026-04-25T09:53:31.933Z</time></trkpt><trkpt lat="42.81521072237267" lon="10.387259990358027"><ele>302.0</ele><time>2026-04-25T09:53:33.933Z</time></trkpt><trkpt lat="42.815222404339586" lon="10.387158299227064"><ele>302.0</ele><time>2026-04-25T09:53:40.933Z</time></trkpt><trkpt lat="42.81520380060847" lon="10.387028098263077"><ele>303.2</ele><time>2026-04-25T09:53:42.933Z</time></trkpt><trkpt lat="42.81518342115278" lon="10.386923415690022"><ele>304.4</ele><time>2026-04-25T09:53:43.933Z</time></trkpt><trkpt lat="42.81515550930771" lon="10.386793724262297"><ele>305.6</ele><time>2026-04-25T09:53:44.933Z</time></trkpt><trkpt lat="42.815129685109476" lon="10.386653112387549"><ele>306.8</ele><time>2026-04-25T09:53:45.933Z</time></trkpt><trkpt lat="42.81509933899749" lon="10.386521790818778"><ele>308.0</ele><time>2026-04-25T09:53:46.933Z</time></trkpt><trkpt lat="42.81508048686581" lon="10.386416921536513"><ele>306.2</ele><time>2026-04-25T09:53:47.933Z</time></trkpt><trkpt lat="42.81506417297858" lon="10.386322594336061"><ele>304.4</ele><time>2026-04-25T09:53:48.933Z</time></trkpt><trkpt lat="42.8150678055229" lon="10.386157429706593"><ele>302.59999999999997</ele><time>2026-04-25T09:53:50.933Z</time></trkpt><trkpt lat="42.81506931412764" lon="10.386002926072429"><ele>300.8</ele><time>2026-04-25T09:53:52.934Z</time></trkpt><trkpt lat="42.81507051584789" lon="10.38586078485844"><ele>299.0</ele><time>2026-04-25T09:53:54.934Z</time></trkpt><trkpt lat="42.815079757214974" lon="10.385753142483479"><ele>299.0</ele><time>2026-04-25T09:53:56.934Z</time></trkpt><trkpt lat="42.8150933107977" lon="10.385664465337806"><ele>299.0</ele><time>2026-04-25T09:53:57.934Z</time></trkpt><trkpt lat="42.815109675241985" lon="10.385568631881311"><ele>299.0</ele><time>2026-04-25T09:53:58.934Z</time></trkpt><trkpt lat="42.815131005323444" lon="10.385483872553479"><ele>299.0</ele><time>2026-04-25T09:53:59.933Z</time></trkpt><trkpt lat="42.815184987234694" lon="10.385347882723586"><ele>299.0</ele><time>2026-04-25T09:54:01.934Z</time></trkpt><trkpt lat="42.81524197427753" lon="10.385243787285916"><ele>299.0</ele><time>2026-04-25T09:54:03.934Z</time></trkpt><trkpt lat="42.8152840965969" lon="10.385170226695706"><ele>295.5</ele><time>2026-04-25T09:54:05.934Z</time></trkpt><trkpt lat="42.81533416011907" lon="10.38511739413075"><ele>292.0</ele><time>2026-04-25T09:54:07.934Z</time></trkpt><trkpt lat="42.8154430754321" lon="10.385055561195134"><ele>288.5</ele><time>2026-04-25T09:54:09.934Z</time></trkpt><trkpt lat="42.815539837591004" lon="10.385020582372983"><ele>285.0</ele><time>2026-04-25T09:54:11.934Z</time></trkpt><trkpt lat="42.81561423652774" lon="10.38499108211316"><ele>281.5</ele><time>2026-04-25T09:54:13.934Z</time></trkpt><trkpt lat="42.81568662266847" lon="10.38496731871627"><ele>278.0</ele><time>2026-04-25T09:54:15.934Z</time></trkpt><trkpt lat="42.81574647516167" lon="10.384920511774968"><ele>278.0</ele><time>2026-04-25T09:54:17.934Z</time></trkpt><trkpt lat="42.815819292921134" lon="10.384824279842004"><ele>278.0</ele><time>2026-04-25T09:54:20.933Z</time></trkpt><trkpt lat="42.81589740200465" lon="10.38473891132057"><ele>278.0</ele><time>2026-04-25T09:54:22.933Z</time></trkpt><trkpt lat="42.815957358492184" lon="10.384699317783397"><ele>278.0</ele><time>2026-04-25T09:54:25.933Z</time></trkpt><trkpt lat="42.81601765925151" lon="10.384623621390078"><ele>278.0</ele><time>2026-04-25T09:54:27.933Z</time></trkpt><trkpt lat="42.81602321938047" lon="10.384498471614503"><ele>278.0</ele><time>2026-04-25T09:54:29.933Z</time></trkpt><trkpt lat="42.816041950771435" lon="10.384372645919717"><ele>273.0</ele><time>2026-04-25T09:54:31.933Z</time></trkpt><trkpt lat="42.816045628829414" lon="10.384277357029525"><ele>268.0</ele><time>2026-04-25T09:54:33.933Z</time></trkpt><trkpt lat="42.816046485858884" lon="10.384185764282938"><ele>263.0</ele><time>2026-04-25T09:54:35.933Z</time></trkpt><trkpt lat="42.81605430575952" lon="10.384060679914315"><ele>258.0</ele><time>2026-04-25T09:54:37.933Z</time></trkpt><trkpt lat="42.816061315973286" lon="10.383929663733003"><ele>253.00000000000003</ele><time>2026-04-25T09:54:39.933Z</time></trkpt><trkpt lat="42.81606640065028" lon="10.383804782087207"><ele>248.0</ele><time>2026-04-25T09:54:41.933Z</time></trkpt><trkpt lat="42.81609928191439" lon="10.383667181307612"><ele>247.8</ele><time>2026-04-25T09:54:43.933Z</time></trkpt><trkpt lat="42.81612522526628" lon="10.383536513949618"><ele>247.60000000000002</ele><time>2026-04-25T09:54:45.933Z</time></trkpt><trkpt lat="42.81618014223358" lon="10.383416350170242"><ele>247.39999999999998</ele><time>2026-04-25T09:54:47.933Z</time></trkpt><trkpt lat="42.8162457507976" lon="10.383273752312306"><ele>247.2</ele><time>2026-04-25T09:54:49.933Z</time></trkpt><trkpt lat="42.81627601249146" lon="10.383198305717762"><ele>247.0</ele><time>2026-04-25T09:54:50.933Z</time></trkpt><trkpt lat="42.8163378457102" lon="10.383085596161427"><ele>247.66666666666666</ele><time>2026-04-25T09:54:52.933Z</time></trkpt><trkpt lat="42.81634857880378" lon="10.383000298048367"><ele>248.33333333333331</ele><time>2026-04-25T09:54:54.933Z</time></trkpt><trkpt lat="42.81638952540944" lon="10.382910063613453"><ele>249.0</ele><time>2026-04-25T09:54:56.933Z</time></trkpt><trkpt lat="42.816418294520965" lon="10.382812203786242"><ele>249.66666666666669</ele><time>2026-04-25T09:54:58.933Z</time></trkpt><trkpt lat="42.816450614321525" lon="10.382710825752003"><ele>250.33333333333334</ele><time>2026-04-25T09:54:59.933Z</time></trkpt><trkpt lat="42.816483093737254" lon="10.382606902692318"><ele>251.0</ele><time>2026-04-25T09:55:00.932Z</time></trkpt><trkpt lat="42.816506688460706" lon="10.382516526861462"><ele>251.0</ele><time>2026-04-25T09:55:01.932Z</time></trkpt><trkpt lat="42.816531096370284" lon="10.382409557810405"><ele>251.00000000000003</ele><time>2026-04-25T09:55:03.932Z</time></trkpt><trkpt lat="42.81655096383307" lon="10.382203916069884"><ele>251.00000000000003</ele><time>2026-04-25T09:55:06.932Z</time></trkpt><trkpt lat="42.81654684390651" lon="10.38209148829327"><ele>251.0</ele><time>2026-04-25T09:55:07.932Z</time></trkpt><trkpt lat="42.816547999818475" lon="10.381994129532877"><ele>251.0</ele><time>2026-04-25T09:55:09.932Z</time></trkpt><trkpt lat="42.81656270323957" lon="10.381906588652088"><ele>250.66666666666669</ele><time>2026-04-25T09:55:19.932Z</time></trkpt><trkpt lat="42.81664549535733" lon="10.381848282075081"><ele>250.33333333333334</ele><time>2026-04-25T09:55:34.932Z</time></trkpt><trkpt lat="42.81670745891596" lon="10.381779193945844"><ele>250.0</ele><time>2026-04-25T09:55:36.932Z</time></trkpt><trkpt lat="42.8167423597736" lon="10.381684610632202"><ele>249.66666666666669</ele><time>2026-04-25T09:55:38.932Z</time></trkpt><trkpt lat="42.816760785187014" lon="10.381589990450209"><ele>249.33333333333334</ele><time>2026-04-25T09:55:41.931Z</time></trkpt><trkpt lat="42.816785093083354" lon="10.381488053534598"><ele>249.0</ele><time>2026-04-25T09:55:46.931Z</time></trkpt><trkpt lat="42.816817696689036" lon="10.381411794774706"><ele>244.0</ele><time>2026-04-25T09:55:49.931Z</time></trkpt><trkpt lat="42.816842088814965" lon="10.381268896252312"><ele>238.99999999999997</ele><time>2026-04-25T09:55:52.931Z</time></trkpt><trkpt lat="42.816885899952105" lon="10.381147521677685"><ele>233.99999999999997</ele><time>2026-04-25T09:55:54.931Z</time></trkpt><trkpt lat="42.81694184340596" lon="10.381001031933774"><ele>229.0</ele><time>2026-04-25T09:55:56.931Z</time></trkpt><trkpt lat="42.8170052485767" lon="10.380863001370939"><ele>224.0</ele><time>2026-04-25T09:55:58.933Z</time></trkpt><trkpt lat="42.81706860292248" lon="10.380710442789411"><ele>224.00000000000003</ele><time>2026-04-25T09:56:00.933Z</time></trkpt><trkpt lat="42.81710970856612" lon="10.380643878236231"><ele>224.0</ele><time>2026-04-25T09:56:01.933Z</time></trkpt><trkpt lat="42.817146460547924" lon="10.380558114169133"><ele>224.0</ele><time>2026-04-25T09:56:02.933Z</time></trkpt><trkpt lat="42.81720011210027" lon="10.380431523837206"><ele>224.0</ele><time>2026-04-25T09:56:04.932Z</time></trkpt><trkpt lat="42.817230324322445" lon="10.380309451578087"><ele>224.00000000000003</ele><time>2026-04-25T09:56:06.933Z</time></trkpt><trkpt lat="42.81727439902995" lon="10.380212236104073"><ele>224.0</ele><time>2026-04-25T09:56:07.933Z</time></trkpt><trkpt lat="42.81732415581634" lon="10.380065888475261"><ele>224.2</ele><time>2026-04-25T09:56:09.933Z</time></trkpt><trkpt lat="42.81738500584256" lon="10.379911901641437"><ele>224.39999999999998</ele><time>2026-04-25T09:56:11.933Z</time></trkpt><trkpt lat="42.81741048676641" lon="10.379758530336172"><ele>224.6</ele><time>2026-04-25T09:56:13.933Z</time></trkpt><trkpt lat="42.81742256933251" lon="10.379655027961368"><ele>224.8</ele><time>2026-04-25T09:56:16.933Z</time></trkpt><trkpt lat="42.81741661971361" lon="10.37953767007581"><ele>225.0</ele><time>2026-04-25T09:56:18.933Z</time></trkpt><trkpt lat="42.8173805491514" lon="10.379387578939133"><ele>223.0</ele><time>2026-04-25T09:56:20.933Z</time></trkpt><trkpt lat="42.817396355675136" lon="10.379212159361792"><ele>221.0</ele><time>2026-04-25T09:56:22.933Z</time></trkpt><trkpt lat="42.8174117016508" lon="10.37910008549674"><ele>219.0</ele><time>2026-04-25T09:56:24.933Z</time></trkpt><trkpt lat="42.817400248313376" lon="10.378983129899664"><ele>217.0</ele><time>2026-04-25T09:56:26.933Z</time></trkpt><trkpt lat="42.81740675052301" lon="10.378887315250445"><ele>215.0</ele><time>2026-04-25T09:56:28.933Z</time></trkpt><trkpt lat="42.817439795580036" lon="10.378754233772039"><ele>213.14285714285714</ele><time>2026-04-25T09:56:31.933Z</time></trkpt><trkpt lat="42.81745385577768" lon="10.378664433119893"><ele>211.2857142857143</ele><time>2026-04-25T09:56:33.933Z</time></trkpt><trkpt lat="42.81744603221559" lon="10.37855165872039"><ele>209.42857142857144</ele><time>2026-04-25T09:56:36.932Z</time></trkpt><trkpt lat="42.817431631632076" lon="10.378466389177987"><ele>207.57142857142856</ele><time>2026-04-25T09:56:38.932Z</time></trkpt><trkpt lat="42.817411229978426" lon="10.378376724519386"><ele>205.71428571428572</ele><time>2026-04-25T09:56:40.932Z</time></trkpt><trkpt lat="42.81741725632253" lon="10.378281108133676"><ele>203.85714285714286</ele><time>2026-04-25T09:56:42.932Z</time></trkpt><trkpt lat="42.81742836962077" lon="10.378189020884077"><ele>202.0</ele><time>2026-04-25T09:56:44.932Z</time></trkpt><trkpt lat="42.81740896486399" lon="10.378096830744212"><ele>200.33333333333331</ele><time>2026-04-25T09:56:47.932Z</time></trkpt><trkpt lat="42.81741574327303" lon="10.378001522909766"><ele>198.66666666666666</ele><time>2026-04-25T09:56:49.932Z</time></trkpt><trkpt lat="42.81741253767682" lon="10.377914739678205"><ele>197.0</ele><time>2026-04-25T09:56:51.932Z</time></trkpt><trkpt lat="42.817395381669584" lon="10.377792560744323"><ele>195.33333333333331</ele><time>2026-04-25T09:56:54.932Z</time></trkpt><trkpt lat="42.81736665872143" lon="10.377712168068545"><ele>193.66666666666666</ele><time>2026-04-25T09:56:56.932Z</time></trkpt><trkpt lat="42.81731371480346" lon="10.377618406690651"><ele>192.0</ele><time>2026-04-25T09:56:59.932Z</time></trkpt><trkpt lat="42.817281934504464" lon="10.377508239916322"><ele>192.0</ele><time>2026-04-25T09:57:02.932Z</time></trkpt><trkpt lat="42.81721623118604" lon="10.377435268614398"><ele>192.0</ele><time>2026-04-25T09:57:05.932Z</time></trkpt><trkpt lat="42.81712816620391" lon="10.377452648124661"><ele>192.0</ele><time>2026-04-25T09:57:08.932Z</time></trkpt><trkpt lat="42.81704653186627" lon="10.377471972874599"><ele>192.0</ele><time>2026-04-25T09:57:11.932Z</time></trkpt><trkpt lat="42.81705284942115" lon="10.377359985576966"><ele>192.0</ele><time>2026-04-25T09:57:15.932Z</time></trkpt><trkpt lat="42.817009952934065" lon="10.37729387614314"><ele>192.0</ele><time>2026-04-25T09:57:23.931Z</time></trkpt><trkpt lat="42.816954837930496" lon="10.377366135069163"><ele>191.99999999999997</ele><time>2026-04-25T09:57:26.931Z</time></trkpt><trkpt lat="42.81691560819468" lon="10.377448312270806"><ele>192.0</ele><time>2026-04-25T09:57:52.931Z</time></trkpt><trkpt lat="42.816881796637155" lon="10.377529226002977"><ele>192.0</ele><time>2026-04-25T09:57:56.93Z</time></trkpt><trkpt lat="42.81682780750991" lon="10.37758967380022"><ele>192.0</ele><time>2026-04-25T09:58:09.932Z</time></trkpt><trkpt lat="42.81676699027086" lon="10.377613127016911"><ele>192.0</ele><time>2026-04-25T09:58:34.931Z</time></trkpt><trkpt lat="42.81677040764866" lon="10.377509418573995"><ele>191.99999999999997</ele><time>2026-04-25T09:58:51.93Z</time></trkpt><trkpt lat="42.81677431223951" lon="10.377421732340851"><ele>192.0</ele><time>2026-04-25T09:58:53.93Z</time></trkpt><trkpt lat="42.81674757409087" lon="10.377296602310622"><ele>188.33333333333334</ele><time>2026-04-25T09:58:55.93Z</time></trkpt><trkpt lat="42.8167095094962" lon="10.377169417794473"><ele>184.66666666666666</ele><time>2026-04-25T09:58:57.93Z</time></trkpt><trkpt lat="42.81668012305073" lon="10.377066186533721"><ele>181.0</ele><time>2026-04-25T09:58:59.93Z</time></trkpt><trkpt lat="42.81665929665294" lon="10.376975301259867"><ele>177.33333333333331</ele><time>2026-04-25T09:59:01.93Z</time></trkpt><trkpt lat="42.81664837258465" lon="10.376876953144164"><ele>173.66666666666666</ele><time>2026-04-25T09:59:03.93Z</time></trkpt><trkpt lat="42.81665196021107" lon="10.376774010106377"><ele>170.0</ele><time>2026-04-25T09:59:10.93Z</time></trkpt><trkpt lat="42.816641277648635" lon="10.376681361304389"><ele>170.0</ele><time>2026-04-25T09:59:12.93Z</time></trkpt><trkpt lat="42.816648418278675" lon="10.376573742448418"><ele>170.0</ele><time>2026-04-25T09:59:14.93Z</time></trkpt><trkpt lat="42.816655369721474" lon="10.376480290171727"><ele>170.0</ele><time>2026-04-25T09:59:16.93Z</time></trkpt><trkpt lat="42.816634645873286" lon="10.376369672264332"><ele>170.0</ele><time>2026-04-25T09:59:18.929Z</time></trkpt><trkpt lat="42.81663658568794" lon="10.376276895215673"><ele>170.0</ele><time>2026-04-25T09:59:20.929Z</time></trkpt><trkpt lat="42.81663455593588" lon="10.376168797997604"><ele>170.0</ele><time>2026-04-25T09:59:23.929Z</time></trkpt><trkpt lat="42.81659306370697" lon="10.37609708720523"><ele>170.0</ele><time>2026-04-25T09:59:25.929Z</time></trkpt><trkpt lat="42.81655116520214" lon="10.376005964170519"><ele>168.33333333333331</ele><time>2026-04-25T09:59:27.929Z</time></trkpt><trkpt lat="42.816509777359855" lon="10.375931219989912"><ele>166.66666666666666</ele><time>2026-04-25T09:59:29.929Z</time></trkpt><trkpt lat="42.816461137948956" lon="10.37581645442562"><ele>165.0</ele><time>2026-04-25T09:59:32.929Z</time></trkpt><trkpt lat="42.816415045717136" lon="10.375744596999768"><ele>163.33333333333334</ele><time>2026-04-25T09:59:34.929Z</time></trkpt><trkpt lat="42.816372403182136" lon="10.375680113397184"><ele>161.66666666666669</ele><time>2026-04-25T09:59:36.929Z</time></trkpt><trkpt lat="42.81632152892123" lon="10.375620269825392"><ele>160.0</ele><time>2026-04-25T09:59:38.929Z</time></trkpt><trkpt lat="42.81639318424422" lon="10.375562528439813"><ele>160.0</ele><time>2026-04-25T09:59:43.929Z</time></trkpt><trkpt lat="42.81647526411924" lon="10.375560238910886"><ele>160.0</ele><time>2026-04-25T10:00:27.929Z</time></trkpt><trkpt lat="42.81644839925641" lon="10.3754380348631"><ele>160.0</ele><time>2026-04-25T10:01:19.928Z</time></trkpt><trkpt lat="42.81652583407207" lon="10.375397327996037"><ele>160.0</ele><time>2026-04-25T10:01:34.928Z</time></trkpt><trkpt lat="42.81651220809049" lon="10.375309855246593"><ele>160.0</ele><time>2026-04-25T10:01:40.928Z</time></trkpt><trkpt lat="42.816458992650965" lon="10.375212726011142"><ele>160.0</ele><time>2026-04-25T10:01:42.928Z</time></trkpt><trkpt lat="42.816427483917074" lon="10.37512145087786"><ele>157.0</ele><time>2026-04-25T10:01:44.927Z</time></trkpt><trkpt lat="42.81641639086152" lon="10.375029912321876"><ele>154.0</ele><time>2026-04-25T10:01:48.927Z</time></trkpt><trkpt lat="42.81648244318058" lon="10.37504559253409"><ele>151.0</ele><time>2026-04-25T10:01:54.927Z</time></trkpt><trkpt lat="42.81655388989105" lon="10.375098685364037"><ele>148.0</ele><time>2026-04-25T10:01:58.927Z</time></trkpt><trkpt lat="42.816554104645796" lon="10.374998527622367"><ele>145.0</ele><time>2026-04-25T10:02:08.927Z</time></trkpt><trkpt lat="42.81652219714024" lon="10.374897886162696"><ele>142.0</ele><time>2026-04-25T10:02:11.927Z</time></trkpt><trkpt lat="42.81649951714119" lon="10.3748163517863"><ele>139.0</ele><time>2026-04-25T10:02:14.927Z</time></trkpt><trkpt lat="42.81648232933323" lon="10.374690244147066"><ele>135.28571428571428</ele><time>2026-04-25T10:02:17.928Z</time></trkpt><trkpt lat="42.81646225306332" lon="10.374595730143609"><ele>131.57142857142858</ele><time>2026-04-25T10:02:19.929Z</time></trkpt><trkpt lat="42.816440809274084" lon="10.374488192988219"><ele>127.85714285714286</ele><time>2026-04-25T10:02:23.928Z</time></trkpt><trkpt lat="42.81641533427991" lon="10.374379328202057"><ele>124.14285714285714</ele><time>2026-04-25T10:02:26.928Z</time></trkpt><trkpt lat="42.81638591752455" lon="10.374289874599429"><ele>120.42857142857142</ele><time>2026-04-25T10:02:29.928Z</time></trkpt><trkpt lat="42.81637363938558" lon="10.374201926171743"><ele>116.71428571428572</ele><time>2026-04-25T10:02:34.928Z</time></trkpt><trkpt lat="42.816349277723084" lon="10.37411881628785"><ele>113.0</ele><time>2026-04-25T10:02:37.928Z</time></trkpt><trkpt lat="42.81635474036352" lon="10.373997271523345"><ele>113.0</ele><time>2026-04-25T10:02:41.928Z</time></trkpt><trkpt lat="42.81632587757308" lon="10.373903170941679"><ele>113.0</ele><time>2026-04-25T10:02:45.928Z</time></trkpt><trkpt lat="42.81630561326568" lon="10.37381081421768"><ele>113.0</ele><time>2026-04-25T10:02:47.928Z</time></trkpt><trkpt lat="42.81627838379584" lon="10.373705206953675"><ele>113.0</ele><time>2026-04-25T10:02:51.928Z</time></trkpt><trkpt lat="42.816243290134835" lon="10.373625624727026"><ele>113.0</ele><time>2026-04-25T10:02:54.928Z</time></trkpt><trkpt lat="42.81621079425938" lon="10.373540448497932"><ele>113.0</ele><time>2026-04-25T10:02:56.928Z</time></trkpt><trkpt lat="42.816177091937426" lon="10.373467928540144"><ele>113.0</ele><time>2026-04-25T10:02:59.928Z</time></trkpt><trkpt lat="42.81613279553639" lon="10.373363192555633"><ele>109.60000000000001</ele><time>2026-04-25T10:03:02.928Z</time></trkpt><trkpt lat="42.816118868796046" lon="10.37327377757646"><ele>106.20000000000002</ele><time>2026-04-25T10:03:04.928Z</time></trkpt><trkpt lat="42.81609919753353" lon="10.373169785042686"><ele>102.8</ele><time>2026-04-25T10:03:07.927Z</time></trkpt><trkpt lat="42.81605304048221" lon="10.372996016246086"><ele>99.4</ele><time>2026-04-25T10:05:09.926Z</time></trkpt><trkpt lat="42.816067168003045" lon="10.372895283366418"><ele>96.0</ele><time>2026-04-25T10:05:11.926Z</time></trkpt><trkpt lat="42.81608069629917" lon="10.372741379613041"><ele>95.42857142857142</ele><time>2026-04-25T10:05:13.926Z</time></trkpt><trkpt lat="42.816085583908205" lon="10.372655468532404"><ele>94.85714285714286</ele><time>2026-04-25T10:05:15.925Z</time></trkpt><trkpt lat="42.816041951916276" lon="10.372736172066379"><ele>94.28571428571428</ele><time>2026-04-25T10:05:18.925Z</time></trkpt><trkpt lat="42.81606022155539" lon="10.372822147052089"><ele>93.71428571428571</ele><time>2026-04-25T10:05:20.925Z</time></trkpt><trkpt lat="42.81606089538705" lon="10.37291455933864"><ele>93.14285714285714</ele><time>2026-04-25T10:05:22.925Z</time></trkpt><trkpt lat="42.816015838446646" lon="10.372986793537592"><ele>92.57142857142857</ele><time>2026-04-25T10:05:26.925Z</time></trkpt><trkpt lat="42.81595879788923" lon="10.373024362358919"><ele>92.0</ele><time>2026-04-25T10:05:29.925Z</time></trkpt><trkpt lat="42.815915535094106" lon="10.373097234230576"><ele>95.39999999999999</ele><time>2026-04-25T10:05:33.925Z</time></trkpt><trkpt lat="42.815851544963095" lon="10.37316416081036"><ele>98.8</ele><time>2026-04-25T10:05:35.925Z</time></trkpt><trkpt lat="42.81576912028695" lon="10.37324355306791"><ele>102.2</ele><time>2026-04-25T10:05:37.925Z</time></trkpt><trkpt lat="42.81569430516757" lon="10.37330768348485"><ele>105.6</ele><time>2026-04-25T10:05:39.925Z</time></trkpt><trkpt lat="42.815600514384144" lon="10.373377818350066"><ele>109.0</ele><time>2026-04-25T10:05:41.925Z</time></trkpt><trkpt lat="42.81550353428166" lon="10.373442743248937"><ele>109.0</ele><time>2026-04-25T10:05:43.925Z</time></trkpt><trkpt lat="42.81540916985856" lon="10.373511635111303"><ele>109.0</ele><time>2026-04-25T10:05:45.925Z</time></trkpt><trkpt lat="42.8153287134888" lon="10.37356318609388"><ele>109.0</ele><time>2026-04-25T10:05:47.925Z</time></trkpt><trkpt lat="42.81522678742936" lon="10.373618056124274"><ele>109.0</ele><time>2026-04-25T10:05:49.925Z</time></trkpt><trkpt lat="42.815140137311985" lon="10.373676121432307"><ele>109.0</ele><time>2026-04-25T10:05:51.925Z</time></trkpt><trkpt lat="42.8150500685933" lon="10.373686917758508"><ele>109.00000000000001</ele><time>2026-04-25T10:05:53.925Z</time></trkpt><trkpt lat="42.81494905940875" lon="10.373723736193023"><ele>109.0</ele><time>2026-04-25T10:05:55.924Z</time></trkpt><trkpt lat="42.814899582722916" lon="10.373783282077806"><ele>109.0</ele><time>2026-04-25T10:05:56.924Z</time></trkpt><trkpt lat="42.814862297619" lon="10.373863669982356"><ele>109.0</ele><time>2026-04-25T10:05:57.924Z</time></trkpt><trkpt lat="42.81481629555228" lon="10.373959008199074"><ele>109.00000000000001</ele><time>2026-04-25T10:05:58.924Z</time></trkpt><trkpt lat="42.81476776153659" lon="10.374059632905789"><ele>109.0</ele><time>2026-04-25T10:05:59.924Z</time></trkpt><trkpt lat="42.81472110596043" lon="10.374157338474713"><ele>109.00000000000001</ele><time>2026-04-25T10:06:00.924Z</time></trkpt><trkpt lat="42.81467990467955" lon="10.374262800872128"><ele>109.0</ele><time>2026-04-25T10:06:01.924Z</time></trkpt><trkpt lat="42.81463980789706" lon="10.374355828968834"><ele>109.0</ele><time>2026-04-25T10:06:02.924Z</time></trkpt><trkpt lat="42.814584512316344" lon="10.37446345955401"><ele>109.0</ele><time>2026-04-25T10:06:03.924Z</time></trkpt><trkpt lat="42.81454421727057" lon="10.374536062705761"><ele>109.00000000000001</ele><time>2026-04-25T10:06:04.924Z</time></trkpt><trkpt lat="42.814456336093784" lon="10.37462810372784"><ele>109.0</ele><time>2026-04-25T10:06:06.924Z</time></trkpt><trkpt lat="42.81438174169245" lon="10.37475535855072"><ele>110.50000000000001</ele><time>2026-04-25T10:06:08.924Z</time></trkpt><trkpt lat="42.814365367304994" lon="10.374850601223285"><ele>112.0</ele><time>2026-04-25T10:06:09.924Z</time></trkpt><trkpt lat="42.814364115849656" lon="10.3749497178359"><ele>113.5</ele><time>2026-04-25T10:06:10.924Z</time></trkpt><trkpt lat="42.81437191822775" lon="10.375037394543483"><ele>115.0</ele><time>2026-04-25T10:06:11.924Z</time></trkpt><trkpt lat="42.814338459054575" lon="10.375184331460444"><ele>116.50000000000001</ele><time>2026-04-25T10:06:13.924Z</time></trkpt><trkpt lat="42.8143061227918" lon="10.375341622923075"><ele>118.0</ele><time>2026-04-25T10:06:15.924Z</time></trkpt><trkpt lat="42.81428026416504" lon="10.37551168005232"><ele>116.57142857142857</ele><time>2026-04-25T10:06:17.924Z</time></trkpt><trkpt lat="42.81428853456343" lon="10.375610267373283"><ele>115.14285714285715</ele><time>2026-04-25T10:06:18.924Z</time></trkpt><trkpt lat="42.81430779174811" lon="10.375707516405404"><ele>113.71428571428572</ele><time>2026-04-25T10:06:19.924Z</time></trkpt><trkpt lat="42.8143290821766" lon="10.375807318659712"><ele>112.28571428571428</ele><time>2026-04-25T10:06:20.924Z</time></trkpt><trkpt lat="42.8143503260479" lon="10.375894973783039"><ele>110.85714285714286</ele><time>2026-04-25T10:06:21.924Z</time></trkpt><trkpt lat="42.814374064557214" lon="10.375978651284315"><ele>109.42857142857143</ele><time>2026-04-25T10:06:22.924Z</time></trkpt><trkpt lat="42.81441072222056" lon="10.376059699505154"><ele>108.0</ele><time>2026-04-25T10:06:23.924Z</time></trkpt><trkpt lat="42.81447118032813" lon="10.376123816519662"><ele>108.0</ele><time>2026-04-25T10:06:24.924Z</time></trkpt><trkpt lat="42.81454753427383" lon="10.376226043717828"><ele>108.00000000000001</ele><time>2026-04-25T10:06:26.924Z</time></trkpt><trkpt lat="42.81459946054565" lon="10.37634942085316"><ele>108.00000000000001</ele><time>2026-04-25T10:06:28.926Z</time></trkpt><trkpt lat="42.814605119563815" lon="10.376474206480719"><ele>108.0</ele><time>2026-04-25T10:06:30.926Z</time></trkpt><trkpt lat="42.814545161568056" lon="10.376543130407237"><ele>108.0</ele><time>2026-04-25T10:06:32.925Z</time></trkpt><trkpt lat="42.81440860163584" lon="10.37652744731492"><ele>105.2</ele><time>2026-04-25T10:06:34.926Z</time></trkpt><trkpt lat="42.81433127341002" lon="10.376525992142973"><ele>102.4</ele><time>2026-04-25T10:06:35.926Z</time></trkpt><trkpt lat="42.81420120351204" lon="10.376505222411495"><ele>99.60000000000001</ele><time>2026-04-25T10:06:37.925Z</time></trkpt><trkpt lat="42.81412175787821" lon="10.37648388243563"><ele>96.80000000000001</ele><time>2026-04-25T10:06:39.926Z</time></trkpt><trkpt lat="42.814043908757455" lon="10.3765455439823"><ele>94.0</ele><time>2026-04-25T10:06:41.925Z</time></trkpt><trkpt lat="42.81398823976096" lon="10.37663106169305"><ele>89.8</ele><time>2026-04-25T10:06:42.925Z</time></trkpt><trkpt lat="42.81392888562667" lon="10.376690056262863"><ele>85.60000000000001</ele><time>2026-04-25T10:06:43.925Z</time></trkpt><trkpt lat="42.81382158770786" lon="10.376757924206311"><ele>81.4</ele><time>2026-04-25T10:06:45.925Z</time></trkpt><trkpt lat="42.81375130944523" lon="10.376819147588789"><ele>77.2</ele><time>2026-04-25T10:06:46.925Z</time></trkpt><trkpt lat="42.81372167696035" lon="10.37693755582904"><ele>73.0</ele><time>2026-04-25T10:06:48.925Z</time></trkpt><trkpt lat="42.8137443305612" lon="10.3771082080535"><ele>73.0</ele><time>2026-04-25T10:06:50.925Z</time></trkpt><trkpt lat="42.81372837629155" lon="10.377211199648269"><ele>73.0</ele><time>2026-04-25T10:06:52.925Z</time></trkpt><trkpt lat="42.81366025495306" lon="10.377178150735116"><ele>73.0</ele><time>2026-04-25T10:06:55.925Z</time></trkpt><trkpt lat="42.81358297246112" lon="10.377068082261628"><ele>73.0</ele><time>2026-04-25T10:06:57.925Z</time></trkpt><trkpt lat="42.81357026009898" lon="10.376976714436623"><ele>73.0</ele><time>2026-04-25T10:06:59.925Z</time></trkpt><trkpt lat="42.81351952609792" lon="10.37687847735563"><ele>73.0</ele><time>2026-04-25T10:07:01.925Z</time></trkpt><trkpt lat="42.81352893133114" lon="10.376646748893636"><ele>73.0</ele><time>2026-04-25T10:07:03.925Z</time></trkpt><trkpt lat="42.81350811992017" lon="10.376529293688538"><ele>73.0</ele><time>2026-04-25T10:07:04.925Z</time></trkpt><trkpt lat="42.81348372949081" lon="10.376422823339869"><ele>73.0</ele><time>2026-04-25T10:07:05.925Z</time></trkpt><trkpt lat="42.8134646457002" lon="10.376293396459957"><ele>73.0</ele><time>2026-04-25T10:07:06.925Z</time></trkpt><trkpt lat="42.81342667700827" lon="10.376155229406764"><ele>73.0</ele><time>2026-04-25T10:07:07.925Z</time></trkpt><trkpt lat="42.81336570611588" lon="10.376008371746323"><ele>68.75</ele><time>2026-04-25T10:07:08.925Z</time></trkpt><trkpt lat="42.813312429722636" lon="10.375871763147682"><ele>64.5</ele><time>2026-04-25T10:07:09.925Z</time></trkpt><trkpt lat="42.81323664448768" lon="10.375726442853633"><ele>60.25</ele><time>2026-04-25T10:07:10.925Z</time></trkpt><trkpt lat="42.813172872198216" lon="10.375574204107982"><ele>56.0</ele><time>2026-04-25T10:07:11.925Z</time></trkpt><trkpt lat="42.81311227241786" lon="10.37542710132396"><ele>54.8</ele><time>2026-04-25T10:07:12.925Z</time></trkpt><trkpt lat="42.813051548131774" lon="10.375285793241689"><ele>53.599999999999994</ele><time>2026-04-25T10:07:13.924Z</time></trkpt><trkpt lat="42.81298621277002" lon="10.375143795705977"><ele>52.4</ele><time>2026-04-25T10:07:14.924Z</time></trkpt><trkpt lat="42.81292647799874" lon="10.37502696441224"><ele>51.2</ele><time>2026-04-25T10:07:15.924Z</time></trkpt><trkpt lat="42.81288178058858" lon="10.374923169600569"><ele>50.0</ele><time>2026-04-25T10:07:16.924Z</time></trkpt><trkpt lat="42.81284748413741" lon="10.374844770635853"><ele>50.00000000000001</ele><time>2026-04-25T10:07:17.924Z</time></trkpt><trkpt lat="42.81284601935616" lon="10.374702232460946"><ele>50.0</ele><time>2026-04-25T10:07:19.924Z</time></trkpt><trkpt lat="42.81289185430077" lon="10.374635965776463"><ele>50.0</ele><time>2026-04-25T10:07:20.924Z</time></trkpt><trkpt lat="42.81297395698871" lon="10.3745586097221"><ele>50.0</ele><time>2026-04-25T10:07:21.924Z</time></trkpt><trkpt lat="42.81304813285123" lon="10.37448781056586"><ele>50.00000000000001</ele><time>2026-04-25T10:07:22.924Z</time></trkpt><trkpt lat="42.81310321270561" lon="10.374398073316932"><ele>50.0</ele><time>2026-04-25T10:07:23.924Z</time></trkpt><trkpt lat="42.81314912786915" lon="10.374327095324777"><ele>49.16666666666667</ele><time>2026-04-25T10:07:24.924Z</time></trkpt><trkpt lat="42.8131739328676" lon="10.37424528269253"><ele>48.333333333333336</ele><time>2026-04-25T10:07:25.924Z</time></trkpt><trkpt lat="42.81317389161409" lon="10.374147863534722"><ele>47.5</ele><time>2026-04-25T10:07:26.924Z</time></trkpt><trkpt lat="42.813150640873005" lon="10.374056257696735"><ele>46.66666666666667</ele><time>2026-04-25T10:07:27.924Z</time></trkpt><trkpt lat="42.813104407774645" lon="10.373975105661161"><ele>45.833333333333336</ele><time>2026-04-25T10:07:28.924Z</time></trkpt><trkpt lat="42.81303168834964" lon="10.373911934688334"><ele>45.0</ele><time>2026-04-25T10:07:29.924Z</time></trkpt><trkpt lat="42.81295341037014" lon="10.373861288520356"><ele>44.4</ele><time>2026-04-25T10:07:30.924Z</time></trkpt><trkpt lat="42.81288202211967" lon="10.373798840279772"><ele>43.8</ele><time>2026-04-25T10:07:31.924Z</time></trkpt><trkpt lat="42.81281472874573" lon="10.373705162507019"><ele>43.2</ele><time>2026-04-25T10:07:32.924Z</time></trkpt><trkpt lat="42.81274788788974" lon="10.373607434317073"><ele>42.6</ele><time>2026-04-25T10:07:33.924Z</time></trkpt><trkpt lat="42.81268710849574" lon="10.373495394989103"><ele>42.0</ele><time>2026-04-25T10:07:34.924Z</time></trkpt><trkpt lat="42.812621890195246" lon="10.373392775986677"><ele>40.2</ele><time>2026-04-25T10:07:35.924Z</time></trkpt><trkpt lat="42.812537590955415" lon="10.373280805004383"><ele>38.400000000000006</ele><time>2026-04-25T10:07:36.924Z</time></trkpt><trkpt lat="42.8124589428222" lon="10.373175338433231"><ele>36.599999999999994</ele><time>2026-04-25T10:07:37.924Z</time></trkpt><trkpt lat="42.81238317037349" lon="10.373105793445948"><ele>34.8</ele><time>2026-04-25T10:07:38.924Z</time></trkpt><trkpt lat="42.81232772193201" lon="10.37304045537108"><ele>33.0</ele><time>2026-04-25T10:07:39.924Z</time></trkpt><trkpt lat="42.812283745899286" lon="10.37297379921148"><ele>31.799999999999997</ele><time>2026-04-25T10:07:40.924Z</time></trkpt><trkpt lat="42.812252066372935" lon="10.372850605787068"><ele>30.599999999999998</ele><time>2026-04-25T10:07:41.924Z</time></trkpt><trkpt lat="42.81222255186123" lon="10.372698827180045"><ele>29.400000000000002</ele><time>2026-04-25T10:07:42.924Z</time></trkpt><trkpt lat="42.81221624971437" lon="10.372567905614535"><ele>28.200000000000003</ele><time>2026-04-25T10:07:43.924Z</time></trkpt><trkpt lat="42.812215718078235" lon="10.372442640522756"><ele>27.0</ele><time>2026-04-25T10:07:44.924Z</time></trkpt><trkpt lat="42.81220572211446" lon="10.372335046025649"><ele>27.0</ele><time>2026-04-25T10:07:45.924Z</time></trkpt><trkpt lat="42.81218162419579" lon="10.372218751683565"><ele>27.0</ele><time>2026-04-25T10:07:46.924Z</time></trkpt><trkpt lat="42.81212090441152" lon="10.372145390997234"><ele>27.0</ele><time>2026-04-25T10:07:47.924Z</time></trkpt><trkpt lat="42.81205002229508" lon="10.372066512012493"><ele>27.0</ele><time>2026-04-25T10:07:48.924Z</time></trkpt><trkpt lat="42.81198845867112" lon="10.371976873344341"><ele>27.0</ele><time>2026-04-25T10:07:49.924Z</time></trkpt><trkpt lat="42.81192776289059" lon="10.37189347372066"><ele>27.0</ele><time>2026-04-25T10:07:50.924Z</time></trkpt><trkpt lat="42.811868507527166" lon="10.371823688813853"><ele>25.6</ele><time>2026-04-25T10:07:51.924Z</time></trkpt><trkpt lat="42.81181738185798" lon="10.37176564850106"><ele>24.200000000000003</ele><time>2026-04-25T10:07:52.924Z</time></trkpt><trkpt lat="42.81170736365865" lon="10.37169161666909"><ele>22.8</ele><time>2026-04-25T10:07:54.923Z</time></trkpt><trkpt lat="42.8116403632211" lon="10.37163142130503"><ele>21.4</ele><time>2026-04-25T10:07:56.923Z</time></trkpt><trkpt lat="42.81155177636284" lon="10.371635568430126"><ele>20.0</ele><time>2026-04-25T10:07:59.923Z</time></trkpt><trkpt lat="42.81148404479508" lon="10.371734499670657"><ele>20.0</ele><time>2026-04-25T10:08:01.923Z</time></trkpt><trkpt lat="42.81141549735485" lon="10.371848519696535"><ele>20.0</ele><time>2026-04-25T10:08:03.923Z</time></trkpt><trkpt lat="42.811361109200135" lon="10.37195415279114"><ele>20.0</ele><time>2026-04-25T10:08:05.923Z</time></trkpt><trkpt lat="42.81130569206645" lon="10.372016477295626"><ele>20.0</ele><time>2026-04-25T10:08:06.923Z</time></trkpt><trkpt lat="42.81125000823903" lon="10.372088730649537"><ele>20.0</ele><time>2026-04-25T10:08:07.923Z</time></trkpt><trkpt lat="42.811195762467044" lon="10.372166953042363"><ele>20.0</ele><time>2026-04-25T10:08:08.923Z</time></trkpt><trkpt lat="42.81115093304918" lon="10.372240346128446"><ele>20.166666666666668</ele><time>2026-04-25T10:08:09.923Z</time></trkpt><trkpt lat="42.81110255768092" lon="10.372310278838759"><ele>20.333333333333336</ele><time>2026-04-25T10:08:10.923Z</time></trkpt><trkpt lat="42.81105775918296" lon="10.372376047438104"><ele>20.5</ele><time>2026-04-25T10:08:11.923Z</time></trkpt><trkpt lat="42.81098753238445" lon="10.372487037028575"><ele>20.666666666666668</ele><time>2026-04-25T10:08:13.923Z</time></trkpt><trkpt lat="42.81090331949146" lon="10.37247809688029"><ele>20.833333333333332</ele><time>2026-04-25T10:08:15.923Z</time></trkpt><trkpt lat="42.81082120197741" lon="10.37243493777196"><ele>21.0</ele><time>2026-04-25T10:08:16.923Z</time></trkpt><trkpt lat="42.81074076974789" lon="10.37236728495747"><ele>20.0</ele><time>2026-04-25T10:08:17.923Z</time></trkpt><trkpt lat="42.810674673004414" lon="10.37231248030372"><ele>19.0</ele><time>2026-04-25T10:08:18.923Z</time></trkpt><trkpt lat="42.8106204439949" lon="10.372261384949043"><ele>18.0</ele><time>2026-04-25T10:08:19.923Z</time></trkpt><trkpt lat="42.81057567192794" lon="10.372194388556862"><ele>17.0</ele><time>2026-04-25T10:08:20.923Z</time></trkpt><trkpt lat="42.81057024247818" lon="10.372056731740262"><ele>16.0</ele><time>2026-04-25T10:08:22.923Z</time></trkpt><trkpt lat="42.81059993556863" lon="10.371960589935089"><ele>15.0</ele><time>2026-04-25T10:08:23.923Z</time></trkpt><trkpt lat="42.81063646752516" lon="10.37183718489498"><ele>14.833333333333334</ele><time>2026-04-25T10:08:24.923Z</time></trkpt><trkpt lat="42.81066899184171" lon="10.371727888265069"><ele>14.666666666666668</ele><time>2026-04-25T10:08:25.923Z</time></trkpt><trkpt lat="42.810709001130625" lon="10.37160193397784"><ele>14.5</ele><time>2026-04-25T10:08:26.923Z</time></trkpt><trkpt lat="42.81073123232538" lon="10.371485335003696"><ele>14.333333333333334</ele><time>2026-04-25T10:08:27.923Z</time></trkpt><trkpt lat="42.81076195288088" lon="10.371410156238454"><ele>14.166666666666668</ele><time>2026-04-25T10:08:28.923Z</time></trkpt><trkpt lat="42.810794535716" lon="10.371307099612071"><ele>14.0</ele><time>2026-04-25T10:08:29.923Z</time></trkpt><trkpt lat="42.810825739218885" lon="10.371203674180691"><ele>13.500000000000002</ele><time>2026-04-25T10:08:30.923Z</time></trkpt><trkpt lat="42.81087441666015" lon="10.371112063918371"><ele>13.0</ele><time>2026-04-25T10:08:31.923Z</time></trkpt><trkpt lat="42.81093079725619" lon="10.371007287747503"><ele>12.5</ele><time>2026-04-25T10:08:32.923Z</time></trkpt><trkpt lat="42.81097973041719" lon="10.370899722785675"><ele>12.0</ele><time>2026-04-25T10:08:33.924Z</time></trkpt><trkpt lat="42.81102266510219" lon="10.370795793189263"><ele>11.5</ele><time>2026-04-25T10:08:34.924Z</time></trkpt><trkpt lat="42.811057650511366" lon="10.370687958901403"><ele>11.0</ele><time>2026-04-25T10:08:35.924Z</time></trkpt><trkpt lat="42.811087298676696" lon="10.370573154057698"><ele>12.666666666666666</ele><time>2026-04-25T10:08:36.924Z</time></trkpt><trkpt lat="42.8111279514002" lon="10.370450047221265"><ele>14.333333333333332</ele><time>2026-04-25T10:08:37.924Z</time></trkpt><trkpt lat="42.811162339317846" lon="10.370328542992006"><ele>16.0</ele><time>2026-04-25T10:08:38.924Z</time></trkpt><trkpt lat="42.81116563021601" lon="10.370215676074412"><ele>17.666666666666668</ele><time>2026-04-25T10:08:39.924Z</time></trkpt><trkpt lat="42.81118022494908" lon="10.370107553578997"><ele>19.333333333333332</ele><time>2026-04-25T10:08:40.924Z</time></trkpt><trkpt lat="42.8111796072504" lon="10.369989367703765"><ele>21.0</ele><time>2026-04-25T10:08:41.924Z</time></trkpt><trkpt lat="42.81117582930587" lon="10.369866599349699"><ele>21.0</ele><time>2026-04-25T10:08:42.924Z</time></trkpt><trkpt lat="42.81118322258204" lon="10.369738749063643"><ele>21.0</ele><time>2026-04-25T10:08:43.924Z</time></trkpt><trkpt lat="42.811182732868325" lon="10.369620762612918"><ele>21.0</ele><time>2026-04-25T10:08:44.924Z</time></trkpt><trkpt lat="42.81118651826995" lon="10.369507116797337"><ele>21.0</ele><time>2026-04-25T10:08:45.924Z</time></trkpt><trkpt lat="42.811192319099085" lon="10.369402748498354"><ele>21.0</ele><time>2026-04-25T10:08:46.924Z</time></trkpt><trkpt lat="42.811198102552375" lon="10.369314951883753"><ele>21.0</ele><time>2026-04-25T10:08:47.924Z</time></trkpt><trkpt lat="42.81118623187365" lon="10.36916908053349"><ele>20.0</ele><time>2026-04-25T10:08:49.924Z</time></trkpt><trkpt lat="42.811189397990105" lon="10.369038831215237"><ele>19.0</ele><time>2026-04-25T10:08:50.924Z</time></trkpt><trkpt lat="42.81118906934864" lon="10.368929741438492"><ele>18.0</ele><time>2026-04-25T10:08:51.924Z</time></trkpt><trkpt lat="42.811203095484515" lon="10.368839142813226"><ele>17.0</ele><time>2026-04-25T10:08:52.924Z</time></trkpt><trkpt lat="42.811207542116264" lon="10.368747927544312"><ele>16.0</ele><time>2026-04-25T10:08:53.924Z</time></trkpt><trkpt lat="42.811217563671114" lon="10.368653791307914"><ele>15.0</ele><time>2026-04-25T10:08:54.924Z</time></trkpt><trkpt lat="42.811233546173376" lon="10.368566238377454"><ele>14.0</ele><time>2026-04-25T10:08:55.924Z</time></trkpt><trkpt lat="42.811249317540096" lon="10.368482723195468"><ele>13.399999999999999</ele><time>2026-04-25T10:08:56.924Z</time></trkpt><trkpt lat="42.81127117898061" lon="10.368395078649732"><ele>12.799999999999999</ele><time>2026-04-25T10:08:57.924Z</time></trkpt><trkpt lat="42.81129838094999" lon="10.368307122188629"><ele>12.2</ele><time>2026-04-25T10:08:58.924Z</time></trkpt><trkpt lat="42.81135338439289" lon="10.368166354184972"><ele>11.600000000000001</ele><time>2026-04-25T10:09:00.924Z</time></trkpt><trkpt lat="42.81140862549889" lon="10.36802039466296"><ele>11.0</ele><time>2026-04-25T10:09:02.924Z</time></trkpt><trkpt lat="42.811457901963706" lon="10.367884952269419"><ele>10.8</ele><time>2026-04-25T10:09:04.924Z</time></trkpt><trkpt lat="42.81148687299265" lon="10.367798268842149"><ele>10.600000000000001</ele><time>2026-04-25T10:09:05.924Z</time></trkpt><trkpt lat="42.811510464128894" lon="10.367634112505698"><ele>10.4</ele><time>2026-04-25T10:09:07.924Z</time></trkpt><trkpt lat="42.81151933235985" lon="10.367498222671447"><ele>10.2</ele><time>2026-04-25T10:09:08.924Z</time></trkpt><trkpt lat="42.81153713592644" lon="10.367387254606273"><ele>10.0</ele><time>2026-04-25T10:09:09.924Z</time></trkpt><trkpt lat="42.811555642274676" lon="10.36728452271178"><ele>9.666666666666668</ele><time>2026-04-25T10:09:10.924Z</time></trkpt><trkpt lat="42.81156932002542" lon="10.367182985684316"><ele>9.333333333333334</ele><time>2026-04-25T10:09:11.923Z</time></trkpt><trkpt lat="42.811583705003635" lon="10.367094697349211"><ele>9.0</ele><time>2026-04-25T10:09:12.923Z</time></trkpt><trkpt lat="42.811598995124626" lon="10.367008216507417"><ele>8.666666666666666</ele><time>2026-04-25T10:09:13.923Z</time></trkpt><trkpt lat="42.811624117655484" lon="10.366850067371884"><ele>8.333333333333332</ele><time>2026-04-25T10:09:15.923Z</time></trkpt><trkpt lat="42.81164026779672" lon="10.366758087743438"><ele>8.0</ele><time>2026-04-25T10:09:16.923Z</time></trkpt><trkpt lat="42.81166625743225" lon="10.366627813404026"><ele>8.0</ele><time>2026-04-25T10:09:18.923Z</time></trkpt><trkpt lat="42.8116630537693" lon="10.366535450360612"><ele>8.0</ele><time>2026-04-25T10:09:20.923Z</time></trkpt><trkpt lat="42.81159089923071" lon="10.36646682888973"><ele>8.0</ele><time>2026-04-25T10:09:22.923Z</time></trkpt><trkpt lat="42.81151208664781" lon="10.36645739220599"><ele>8.0</ele><time>2026-04-25T10:09:23.923Z</time></trkpt><trkpt lat="42.811401450277785" lon="10.366460126318445"><ele>8.0</ele><time>2026-04-25T10:09:24.923Z</time></trkpt><trkpt lat="42.81128498122555" lon="10.366461547332632"><ele>8.0</ele><time>2026-04-25T10:09:25.923Z</time></trkpt><trkpt lat="42.81116935187098" lon="10.36646298102683"><ele>8.0</ele><time>2026-04-25T10:09:26.923Z</time></trkpt><trkpt lat="42.81105281627129" lon="10.366487261517017"><ele>8.0</ele><time>2026-04-25T10:09:27.923Z</time></trkpt><trkpt lat="42.81092850640162" lon="10.366487095665159"><ele>8.0</ele><time>2026-04-25T10:09:28.923Z</time></trkpt><trkpt lat="42.81081515339889" lon="10.366477408871111"><ele>7.4</ele><time>2026-04-25T10:09:29.923Z</time></trkpt><trkpt lat="42.81071116656909" lon="10.36648126571725"><ele>6.800000000000001</ele><time>2026-04-25T10:09:30.923Z</time></trkpt><trkpt lat="42.8106087435238" lon="10.36646806689462"><ele>6.2</ele><time>2026-04-25T10:09:31.923Z</time></trkpt><trkpt lat="42.810520219709325" lon="10.366454244475364"><ele>5.6</ele><time>2026-04-25T10:09:32.923Z</time></trkpt><trkpt lat="42.81043154051604" lon="10.366436224648327"><ele>5.0</ele><time>2026-04-25T10:09:33.923Z</time></trkpt><trkpt lat="42.8103493824992" lon="10.366367765653397"><ele>4.5</ele><time>2026-04-25T10:09:34.923Z</time></trkpt><trkpt lat="42.81027353710501" lon="10.36629407723963"><ele>4.0</ele><time>2026-04-25T10:09:35.923Z</time></trkpt><trkpt lat="42.810198869572886" lon="10.366235491365888"><ele>3.5</ele><time>2026-04-25T10:09:36.923Z</time></trkpt><trkpt lat="42.81016177806862" lon="10.366149360683663"><ele>3.0</ele><time>2026-04-25T10:09:37.923Z</time></trkpt><trkpt lat="42.810159634089686" lon="10.36603591939529"><ele>2.5</ele><time>2026-04-25T10:09:38.923Z</time></trkpt><trkpt lat="42.81016570393994" lon="10.365892334519152"><ele>2.0</ele><time>2026-04-25T10:09:39.923Z</time></trkpt><trkpt lat="42.810161142144906" lon="10.365755124020145"><ele>2.6666666666666665</ele><time>2026-04-25T10:09:40.923Z</time></trkpt><trkpt lat="42.810147840379976" lon="10.365617896130427"><ele>3.333333333333333</ele><time>2026-04-25T10:09:41.923Z</time></trkpt><trkpt lat="42.81013357597618" lon="10.365486043463376"><ele>4.0</ele><time>2026-04-25T10:09:42.923Z</time></trkpt><trkpt lat="42.81012540651752" lon="10.365362685722603"><ele>4.666666666666667</ele><time>2026-04-25T10:09:43.923Z</time></trkpt><trkpt lat="42.81011663838066" lon="10.365257876519392"><ele>5.333333333333333</ele><time>2026-04-25T10:09:44.923Z</time></trkpt><trkpt lat="42.81010398982021" lon="10.365166398158989"><ele>6.0</ele><time>2026-04-25T10:09:45.923Z</time></trkpt><trkpt lat="42.810045348317956" lon="10.365093382452589"><ele>6.0</ele><time>2026-04-25T10:09:47.923Z</time></trkpt><trkpt lat="42.8099824662636" lon="10.365064559606385"><ele>6.0</ele><time>2026-04-25T10:09:48.923Z</time></trkpt><trkpt lat="42.80989127719967" lon="10.365018768612567"><ele>6.0</ele><time>2026-04-25T10:09:49.923Z</time></trkpt><trkpt lat="42.80983573542047" lon="10.364951170158307"><ele>6.0</ele><time>2026-04-25T10:09:50.923Z</time></trkpt><trkpt lat="42.809795467756246" lon="10.364793143067313"><ele>6.0</ele><time>2026-04-25T10:09:52.922Z</time></trkpt><trkpt lat="42.80971523927702" lon="10.36468594872685"><ele>5.6</ele><time>2026-04-25T10:09:54.922Z</time></trkpt><trkpt lat="42.80961991387902" lon="10.364654453638195"><ele>5.199999999999999</ele><time>2026-04-25T10:09:56.922Z</time></trkpt><trkpt lat="42.809564388757366" lon="10.364589887604788"><ele>4.800000000000001</ele><time>2026-04-25T10:09:59.922Z</time></trkpt><trkpt lat="42.80953135043225" lon="10.364447534950369"><ele>4.4</ele><time>2026-04-25T10:10:01.922Z</time></trkpt><trkpt lat="42.809526392194975" lon="10.364344381772291"><ele>4.0</ele><time>2026-04-25T10:10:02.922Z</time></trkpt><trkpt lat="42.809510954139526" lon="10.364218429002719"><ele>3.9999999999999996</ele><time>2026-04-25T10:10:03.922Z</time></trkpt><trkpt lat="42.80949554209772" lon="10.364108640477077"><ele>4.0</ele><time>2026-04-25T10:10:04.922Z</time></trkpt><trkpt lat="42.80948872469998" lon="10.364002046184904"><ele>4.0</ele><time>2026-04-25T10:10:05.922Z</time></trkpt><trkpt lat="42.8094755936667" lon="10.363895133610274"><ele>4.0</ele><time>2026-04-25T10:10:06.922Z</time></trkpt><trkpt lat="42.809477309336835" lon="10.363803603115668"><ele>3.9999999999999996</ele><time>2026-04-25T10:10:07.922Z</time></trkpt><trkpt lat="42.80944762356899" lon="10.363668825307487"><ele>4.0</ele><time>2026-04-25T10:10:09.922Z</time></trkpt><trkpt lat="42.80938213168836" lon="10.363517587861457"><ele>6.5</ele><time>2026-04-25T10:10:11.922Z</time></trkpt><trkpt lat="42.80931863133908" lon="10.36339316108126"><ele>9.0</ele><time>2026-04-25T10:10:12.922Z</time></trkpt><trkpt lat="42.80926802606409" lon="10.363264420522167"><ele>11.5</ele><time>2026-04-25T10:10:13.922Z</time></trkpt><trkpt lat="42.809221776594185" lon="10.363134538244159"><ele>14.0</ele><time>2026-04-25T10:10:14.922Z</time></trkpt><trkpt lat="42.809209583254955" lon="10.362964513647787"><ele>14.0</ele><time>2026-04-25T10:10:15.922Z</time></trkpt><trkpt lat="42.80920005859566" lon="10.36278035406894"><ele>14.0</ele><time>2026-04-25T10:10:16.922Z</time></trkpt><trkpt lat="42.8091900424824" lon="10.362583483640536"><ele>14.0</ele><time>2026-04-25T10:10:17.922Z</time></trkpt><trkpt lat="42.809153989548335" lon="10.362375165409077"><ele>14.0</ele><time>2026-04-25T10:10:18.922Z</time></trkpt><trkpt lat="42.809113537923075" lon="10.362179494650459"><ele>14.5</ele><time>2026-04-25T10:10:19.922Z</time></trkpt><trkpt lat="42.80908566165108" lon="10.362003138953488"><ele>15.0</ele><time>2026-04-25T10:10:20.922Z</time></trkpt><trkpt lat="42.809066755372" lon="10.361838413924637"><ele>15.5</ele><time>2026-04-25T10:10:21.922Z</time></trkpt><trkpt lat="42.80905055383281" lon="10.361676935171023"><ele>16.0</ele><time>2026-04-25T10:10:22.922Z</time></trkpt><trkpt lat="42.80905265075399" lon="10.361518320255755"><ele>17.75</ele><time>2026-04-25T10:10:23.922Z</time></trkpt><trkpt lat="42.80906829688237" lon="10.361352237734978"><ele>19.5</ele><time>2026-04-25T10:10:24.922Z</time></trkpt><trkpt lat="42.8090873656462" lon="10.361193337002518"><ele>21.25</ele><time>2026-04-25T10:10:25.922Z</time></trkpt><trkpt lat="42.809101953264154" lon="10.361026848434154"><ele>23.0</ele><time>2026-04-25T10:10:26.922Z</time></trkpt><trkpt lat="42.80910528317315" lon="10.360837570056642"><ele>23.0</ele><time>2026-04-25T10:10:27.922Z</time></trkpt><trkpt lat="42.809100246933255" lon="10.36065101433603"><ele>23.0</ele><time>2026-04-25T10:10:28.922Z</time></trkpt><trkpt lat="42.80909726405055" lon="10.360482725311236"><ele>23.0</ele><time>2026-04-25T10:10:29.922Z</time></trkpt><trkpt lat="42.80909105607796" lon="10.360318312348578"><ele>23.0</ele><time>2026-04-25T10:10:30.921Z</time></trkpt><trkpt lat="42.80909404154566" lon="10.360147168095995"><ele>24.5</ele><time>2026-04-25T10:10:31.921Z</time></trkpt><trkpt lat="42.809114106443744" lon="10.359983088377536"><ele>26.0</ele><time>2026-04-25T10:10:32.921Z</time></trkpt><trkpt lat="42.809145223051516" lon="10.359841730570071"><ele>27.5</ele><time>2026-04-25T10:10:33.921Z</time></trkpt><trkpt lat="42.80918210530398" lon="10.359680063851824"><ele>29.0</ele><time>2026-04-25T10:10:34.921Z</time></trkpt><trkpt lat="42.80921247991207" lon="10.359504988076365"><ele>29.0</ele><time>2026-04-25T10:10:35.921Z</time></trkpt><trkpt lat="42.80922837999318" lon="10.359345558548165"><ele>29.0</ele><time>2026-04-25T10:10:36.921Z</time></trkpt><trkpt lat="42.80925021027655" lon="10.35920392115402"><ele>29.0</ele><time>2026-04-25T10:10:37.921Z</time></trkpt><trkpt lat="42.80926530560584" lon="10.359075268475975"><ele>29.0</ele><time>2026-04-25T10:10:38.921Z</time></trkpt><trkpt lat="42.80925136436314" lon="10.358953360071524"><ele>29.0</ele><time>2026-04-25T10:10:39.922Z</time></trkpt><trkpt lat="42.809205730574185" lon="10.358841792498817"><ele>29.0</ele><time>2026-04-25T10:10:40.922Z</time></trkpt><trkpt lat="42.80914015836321" lon="10.35876868001809"><ele>29.0</ele><time>2026-04-25T10:10:41.922Z</time></trkpt><trkpt lat="42.809074755071165" lon="10.358746465345666"><ele>29.0</ele><time>2026-04-25T10:10:42.922Z</time></trkpt><trkpt lat="42.808975608194125" lon="10.3587681621923"><ele>29.0</ele><time>2026-04-25T10:10:43.922Z</time></trkpt><trkpt lat="42.8088602927894" lon="10.358821116985087"><ele>29.0</ele><time>2026-04-25T10:10:44.922Z</time></trkpt><trkpt lat="42.808737705338224" lon="10.358883218978752"><ele>29.0</ele><time>2026-04-25T10:10:45.923Z</time></trkpt><trkpt lat="42.8086076640949" lon="10.35891012280772"><ele>29.0</ele><time>2026-04-25T10:10:46.922Z</time></trkpt><trkpt lat="42.808490693409944" lon="10.358961556476018"><ele>29.0</ele><time>2026-04-25T10:10:47.922Z</time></trkpt><trkpt lat="42.80838292056563" lon="10.359026555077037"><ele>29.0</ele><time>2026-04-25T10:10:48.922Z</time></trkpt><trkpt lat="42.80828148096188" lon="10.359097949051526"><ele>30.0</ele><time>2026-04-25T10:10:49.922Z</time></trkpt><trkpt lat="42.80820133916946" lon="10.35920124478893"><ele>31.0</ele><time>2026-04-25T10:10:50.922Z</time></trkpt><trkpt lat="42.80812608458064" lon="10.359332762200088"><ele>32.0</ele><time>2026-04-25T10:10:51.922Z</time></trkpt><trkpt lat="42.80807165433622" lon="10.359475205423566"><ele>33.0</ele><time>2026-04-25T10:10:52.922Z</time></trkpt><trkpt lat="42.80800918681294" lon="10.359590331320796"><ele>33.0</ele><time>2026-04-25T10:10:53.922Z</time></trkpt><trkpt lat="42.80794533713666" lon="10.359694019201902"><ele>33.0</ele><time>2026-04-25T10:10:54.922Z</time></trkpt><trkpt lat="42.80786392224033" lon="10.359772949840387"><ele>33.0</ele><time>2026-04-25T10:10:55.922Z</time></trkpt><trkpt lat="42.80778767476141" lon="10.359835519979299"><ele>33.0</ele><time>2026-04-25T10:10:56.922Z</time></trkpt><trkpt lat="42.80767001980431" lon="10.359861492909607"><ele>33.0</ele><time>2026-04-25T10:10:57.922Z</time></trkpt><trkpt lat="42.807554628110296" lon="10.359869882307452"><ele>34.0</ele><time>2026-04-25T10:10:58.922Z</time></trkpt><trkpt lat="42.80745462575198" lon="10.359872337676133"><ele>35.0</ele><time>2026-04-25T10:10:59.922Z</time></trkpt><trkpt lat="42.80735361027902" lon="10.359859531751313"><ele>36.0</ele><time>2026-04-25T10:11:00.922Z</time></trkpt><trkpt lat="42.807253137459995" lon="10.359825743731376"><ele>37.0</ele><time>2026-04-25T10:11:01.922Z</time></trkpt><trkpt lat="42.80714931424713" lon="10.359779694965717"><ele>38.0</ele><time>2026-04-25T10:11:02.922Z</time></trkpt><trkpt lat="42.80704526399583" lon="10.359727314326575"><ele>33.6</ele><time>2026-04-25T10:11:03.922Z</time></trkpt><trkpt lat="42.806932838334795" lon="10.359675711559497"><ele>29.199999999999996</ele><time>2026-04-25T10:11:04.922Z</time></trkpt><trkpt lat="42.80682534372028" lon="10.359630314763923"><ele>24.8</ele><time>2026-04-25T10:11:05.922Z</time></trkpt><trkpt lat="42.806725353170904" lon="10.359595136745938"><ele>20.4</ele><time>2026-04-25T10:11:06.922Z</time></trkpt><trkpt lat="42.8066218603898" lon="10.359565821062136"><ele>16.0</ele><time>2026-04-25T10:11:07.922Z</time></trkpt><trkpt lat="42.80651724819509" lon="10.359554274393348"><ele>15.600000000000001</ele><time>2026-04-25T10:11:08.922Z</time></trkpt><trkpt lat="42.806417024622505" lon="10.35957106347791"><ele>15.200000000000001</ele><time>2026-04-25T10:11:09.922Z</time></trkpt><trkpt lat="42.80633209932372" lon="10.359629873921733"><ele>14.799999999999999</ele><time>2026-04-25T10:11:10.922Z</time></trkpt><trkpt lat="42.80624830834019" lon="10.359703938700228"><ele>14.399999999999999</ele><time>2026-04-25T10:11:11.922Z</time></trkpt><trkpt lat="42.80618615431998" lon="10.359841215491008"><ele>14.0</ele><time>2026-04-25T10:11:12.922Z</time></trkpt><trkpt lat="42.80614551726783" lon="10.359991582252803"><ele>15.0</ele><time>2026-04-25T10:11:13.921Z</time></trkpt><trkpt lat="42.80611625088616" lon="10.360129655545364"><ele>15.999999999999998</ele><time>2026-04-25T10:11:14.921Z</time></trkpt><trkpt lat="42.80609875197653" lon="10.360273759757145"><ele>17.0</ele><time>2026-04-25T10:11:15.921Z</time></trkpt><trkpt lat="42.80604593009824" lon="10.360396394360135"><ele>18.0</ele><time>2026-04-25T10:11:16.921Z</time></trkpt><trkpt lat="42.80597171568593" lon="10.360496032773176"><ele>19.0</ele><time>2026-04-25T10:11:17.921Z</time></trkpt><trkpt lat="42.80588338911576" lon="10.360565595322726"><ele>22.4</ele><time>2026-04-25T10:11:18.921Z</time></trkpt><trkpt lat="42.80579069155301" lon="10.360617290732673"><ele>25.799999999999997</ele><time>2026-04-25T10:11:19.921Z</time></trkpt><trkpt lat="42.805704410658144" lon="10.360684004140024"><ele>29.200000000000003</ele><time>2026-04-25T10:11:20.921Z</time></trkpt><trkpt lat="42.80560616710917" lon="10.360741315160258"><ele>32.6</ele><time>2026-04-25T10:11:21.921Z</time></trkpt><trkpt lat="42.8055221612162" lon="10.360853815072604"><ele>36.0</ele><time>2026-04-25T10:11:22.921Z</time></trkpt><trkpt lat="42.80545627998233" lon="10.360993980586267"><ele>36.0</ele><time>2026-04-25T10:11:23.921Z</time></trkpt><trkpt lat="42.80540578363893" lon="10.361165540935582"><ele>36.0</ele><time>2026-04-25T10:11:24.921Z</time></trkpt><trkpt lat="42.80533567330138" lon="10.361331852504238"><ele>36.0</ele><time>2026-04-25T10:11:25.921Z</time></trkpt><trkpt lat="42.805258054314976" lon="10.361475888244875"><ele>36.0</ele><time>2026-04-25T10:11:26.921Z</time></trkpt><trkpt lat="42.80518755147077" lon="10.36162698031858"><ele>32.0</ele><time>2026-04-25T10:11:27.921Z</time></trkpt><trkpt lat="42.80512215888533" lon="10.361791827776425"><ele>28.0</ele><time>2026-04-25T10:11:28.921Z</time></trkpt><trkpt lat="42.805062156018124" lon="10.361979567299487"><ele>24.0</ele><time>2026-04-25T10:11:29.921Z</time></trkpt><trkpt lat="42.805014825869755" lon="10.362117446073187"><ele>20.0</ele><time>2026-04-25T10:11:30.921Z</time></trkpt><trkpt lat="42.80497531400769" lon="10.362241868091745"><ele>20.0</ele><time>2026-04-25T10:11:31.921Z</time></trkpt><trkpt lat="42.80493396846745" lon="10.362356466618756"><ele>20.0</ele><time>2026-04-25T10:11:32.921Z</time></trkpt><trkpt lat="42.80488105137768" lon="10.362454205381626"><ele>20.0</ele><time>2026-04-25T10:11:33.921Z</time></trkpt><trkpt lat="42.80480852663287" lon="10.362524975687249"><ele>20.0</ele><time>2026-04-25T10:11:34.921Z</time></trkpt><trkpt lat="42.80472012078433" lon="10.36254404863759"><ele>20.0</ele><time>2026-04-25T10:11:35.921Z</time></trkpt><trkpt lat="42.80462247384383" lon="10.362525879291532"><ele>20.0</ele><time>2026-04-25T10:11:36.921Z</time></trkpt><trkpt lat="42.804540494622096" lon="10.362506358017546"><ele>20.0</ele><time>2026-04-25T10:11:37.921Z</time></trkpt><trkpt lat="42.80444559151407" lon="10.36252449293892"><ele>20.0</ele><time>2026-04-25T10:11:38.921Z</time></trkpt><trkpt lat="42.80435479420022" lon="10.36258839178578"><ele>20.0</ele><time>2026-04-25T10:11:39.921Z</time></trkpt><trkpt lat="42.804293148683286" lon="10.362608065946961"><ele>20.0</ele><time>2026-04-25T10:11:40.921Z</time></trkpt><trkpt lat="42.804220020263074" lon="10.362679407103341"><ele>20.0</ele><time>2026-04-25T10:11:42.921Z</time></trkpt><trkpt lat="42.80395812189841" lon="10.36280602122474"><ele>19.0</ele><time>2026-04-25T10:11:46.921Z</time></trkpt><trkpt lat="42.80406498716294" lon="10.362434036152637"><ele>18.0</ele><time>2026-04-25T10:11:47.921Z</time></trkpt><trkpt lat="42.8039748461279" lon="10.36234496905216"><ele>17.0</ele><time>2026-04-25T10:11:48.921Z</time></trkpt><trkpt lat="42.80382517839227" lon="10.362267716533339"><ele>17.0</ele><time>2026-04-25T10:11:49.921Z</time></trkpt><trkpt lat="42.803656530018664" lon="10.362249864518656"><ele>17.0</ele><time>2026-04-25T10:11:50.921Z</time></trkpt><trkpt lat="42.80358084885601" lon="10.362119577719632"><ele>17.0</ele><time>2026-04-25T10:11:51.921Z</time></trkpt><trkpt lat="42.80344211470134" lon="10.362010229025648"><ele>16.333333333333336</ele><time>2026-04-25T10:11:52.921Z</time></trkpt><trkpt lat="42.80328703489743" lon="10.361919473566074"><ele>15.666666666666668</ele><time>2026-04-25T10:11:53.92Z</time></trkpt><trkpt lat="42.803130742288275" lon="10.36182776289547"><ele>15.0</ele><time>2026-04-25T10:11:54.92Z</time></trkpt><trkpt lat="42.80300407449777" lon="10.361700801659836"><ele>15.0</ele><time>2026-04-25T10:11:55.92Z</time></trkpt><trkpt lat="42.802876289638164" lon="10.361586697816117"><ele>15.0</ele><time>2026-04-25T10:11:56.92Z</time></trkpt><trkpt lat="42.80274231048671" lon="10.361495616827076"><ele>15.0</ele><time>2026-04-25T10:11:57.92Z</time></trkpt><trkpt lat="42.802618169095645" lon="10.361434028461765"><ele>15.0</ele><time>2026-04-25T10:11:58.92Z</time></trkpt><trkpt lat="42.80249976265722" lon="10.361378252067462"><ele>13.75</ele><time>2026-04-25T10:11:59.92Z</time></trkpt><trkpt lat="42.80238351190425" lon="10.361327880299836"><ele>12.5</ele><time>2026-04-25T10:12:00.92Z</time></trkpt><trkpt lat="42.80226949669162" lon="10.361291869844607"><ele>11.25</ele><time>2026-04-25T10:12:01.92Z</time></trkpt><trkpt lat="42.802144132441086" lon="10.361304147258156"><ele>10.0</ele><time>2026-04-25T10:12:02.92Z</time></trkpt><trkpt lat="42.80202418969712" lon="10.361419996418396"><ele>12.75</ele><time>2026-04-25T10:12:03.92Z</time></trkpt><trkpt lat="42.80194386634926" lon="10.361542419133722"><ele>15.5</ele><time>2026-04-25T10:12:04.92Z</time></trkpt><trkpt lat="42.80185589692385" lon="10.361677012873786"><ele>18.25</ele><time>2026-04-25T10:12:05.92Z</time></trkpt><trkpt lat="42.80176513552237" lon="10.361810675067241"><ele>21.0</ele><time>2026-04-25T10:12:06.92Z</time></trkpt><trkpt lat="42.80170488681442" lon="10.3619928504758"><ele>21.0</ele><time>2026-04-25T10:12:07.92Z</time></trkpt><trkpt lat="42.80161671035175" lon="10.362108426678898"><ele>21.0</ele><time>2026-04-25T10:12:08.92Z</time></trkpt><trkpt lat="42.80151550722288" lon="10.362229835927025"><ele>21.0</ele><time>2026-04-25T10:12:09.92Z</time></trkpt><trkpt lat="42.80141234796093" lon="10.362351783082872"><ele>21.0</ele><time>2026-04-25T10:12:10.92Z</time></trkpt><trkpt lat="42.80126578788729" lon="10.362404749788066"><ele>20.25</ele><time>2026-04-25T10:12:11.92Z</time></trkpt><trkpt lat="42.80115824192159" lon="10.36253378217043"><ele>19.5</ele><time>2026-04-25T10:12:12.92Z</time></trkpt><trkpt lat="42.80105470099805" lon="10.362656819894754"><ele>18.75</ele><time>2026-04-25T10:12:13.92Z</time></trkpt><trkpt lat="42.800950340879425" lon="10.362791119764262"><ele>18.0</ele><time>2026-04-25T10:12:14.92Z</time></trkpt><trkpt lat="42.800865690374984" lon="10.362961347833144"><ele>18.333333333333332</ele><time>2026-04-25T10:12:15.92Z</time></trkpt><trkpt lat="42.80079984505509" lon="10.363146176548812"><ele>18.666666666666664</ele><time>2026-04-25T10:12:16.92Z</time></trkpt><trkpt lat="42.80075683836765" lon="10.363372376778017"><ele>19.0</ele><time>2026-04-25T10:12:17.92Z</time></trkpt><trkpt lat="42.80071500434411" lon="10.363613704634057"><ele>19.0</ele><time>2026-04-25T10:12:18.92Z</time></trkpt><trkpt lat="42.80067069695242" lon="10.363862256715166"><ele>19.0</ele><time>2026-04-25T10:12:19.92Z</time></trkpt><trkpt lat="42.800628720358866" lon="10.364108426443098"><ele>19.0</ele><time>2026-04-25T10:12:20.922Z</time></trkpt><trkpt lat="42.800594461451105" lon="10.36432425171681"><ele>19.75</ele><time>2026-04-25T10:12:21.923Z</time></trkpt><trkpt lat="42.800560652980636" lon="10.364525793159265"><ele>20.5</ele><time>2026-04-25T10:12:22.924Z</time></trkpt><trkpt lat="42.80052769964395" lon="10.364714234176914"><ele>21.25</ele><time>2026-04-25T10:12:23.925Z</time></trkpt><trkpt lat="42.80049683126595" lon="10.364890605900547"><ele>22.0</ele><time>2026-04-25T10:12:24.926Z</time></trkpt><trkpt lat="42.80046363135404" lon="10.365067582060751"><ele>23.0</ele><time>2026-04-25T10:12:25.927Z</time></trkpt><trkpt lat="42.800409213330866" lon="10.365245794720014"><ele>24.0</ele><time>2026-04-25T10:12:26.928Z</time></trkpt><trkpt lat="42.800339748397164" lon="10.36540681485633"><ele>25.0</ele><time>2026-04-25T10:12:27.929Z</time></trkpt><trkpt lat="42.800264833597765" lon="10.365541230342325"><ele>26.0</ele><time>2026-04-25T10:12:28.93Z</time></trkpt><trkpt lat="42.80020284741668" lon="10.365666276066161"><ele>27.0</ele><time>2026-04-25T10:12:29.93Z</time></trkpt><trkpt lat="42.80012357937482" lon="10.365780540566757"><ele>28.0</ele><time>2026-04-25T10:12:30.931Z</time></trkpt><trkpt lat="42.80003921468348" lon="10.36586187265525"><ele>29.0</ele><time>2026-04-25T10:12:31.932Z</time></trkpt><trkpt lat="42.79994646909449" lon="10.365918536962388"><ele>30.0</ele><time>2026-04-25T10:12:32.932Z</time></trkpt><trkpt lat="42.79986113658081" lon="10.365928167406391"><ele>31.0</ele><time>2026-04-25T10:12:33.933Z</time></trkpt><trkpt lat="42.799776446752" lon="10.365896344676479"><ele>31.0</ele><time>2026-04-25T10:12:34.933Z</time></trkpt><trkpt lat="42.799699911042694" lon="10.365844551224892"><ele>31.0</ele><time>2026-04-25T10:12:35.934Z</time></trkpt><trkpt lat="42.799623746557245" lon="10.365774244674993"><ele>31.0</ele><time>2026-04-25T10:12:36.934Z</time></trkpt><trkpt lat="42.79957371793372" lon="10.365665277302451"><ele>31.0</ele><time>2026-04-25T10:12:37.935Z</time></trkpt><trkpt lat="42.79955471950026" lon="10.36552140151261"><ele>31.0</ele><time>2026-04-25T10:12:38.935Z</time></trkpt><trkpt lat="42.799553067954434" lon="10.365370418053162"><ele>29.5</ele><time>2026-04-25T10:12:39.935Z</time></trkpt><trkpt lat="42.79955094758048" lon="10.36521454209742"><ele>28.0</ele><time>2026-04-25T10:12:40.936Z</time></trkpt><trkpt lat="42.799553345265025" lon="10.365045048707646"><ele>26.5</ele><time>2026-04-25T10:12:41.936Z</time></trkpt><trkpt lat="42.79955191960652" lon="10.364863590338736"><ele>25.0</ele><time>2026-04-25T10:12:42.936Z</time></trkpt><trkpt lat="42.799550170531056" lon="10.364667537243257"><ele>23.666666666666668</ele><time>2026-04-25T10:12:43.937Z</time></trkpt><trkpt lat="42.79954916773904" lon="10.364464900329027"><ele>22.333333333333336</ele><time>2026-04-25T10:12:44.937Z</time></trkpt><trkpt lat="42.799548008788" lon="10.364251106536122"><ele>21.0</ele><time>2026-04-25T10:12:45.94Z</time></trkpt><trkpt lat="42.799545233261696" lon="10.364026062975084"><ele>20.666666666666668</ele><time>2026-04-25T10:12:46.939Z</time></trkpt><trkpt lat="42.799540980538104" lon="10.363802203195988"><ele>20.333333333333336</ele><time>2026-04-25T10:12:47.939Z</time></trkpt><trkpt lat="42.79953338098869" lon="10.363567011000749"><ele>20.0</ele><time>2026-04-25T10:12:48.94Z</time></trkpt><trkpt lat="42.799529237037326" lon="10.36334181751285"><ele>20.0</ele><time>2026-04-25T10:12:49.94Z</time></trkpt><trkpt lat="42.799523273454085" lon="10.363118008214686"><ele>20.0</ele><time>2026-04-25T10:12:50.94Z</time></trkpt><trkpt lat="42.79952180489841" lon="10.362885876355124"><ele>20.0</ele><time>2026-04-25T10:12:51.941Z</time></trkpt><trkpt lat="42.79952522115855" lon="10.362685472384094"><ele>20.75</ele><time>2026-04-25T10:12:52.94Z</time></trkpt><trkpt lat="42.79952418382159" lon="10.362493404964072"><ele>21.5</ele><time>2026-04-25T10:12:53.941Z</time></trkpt><trkpt lat="42.79952189776205" lon="10.362318097911944"><ele>22.25</ele><time>2026-04-25T10:12:54.942Z</time></trkpt><trkpt lat="42.79951625579445" lon="10.362155926843448"><ele>23.0</ele><time>2026-04-25T10:12:55.942Z</time></trkpt><trkpt lat="42.79948586604518" lon="10.36199382645502"><ele>23.0</ele><time>2026-04-25T10:12:56.942Z</time></trkpt><trkpt lat="42.799445160492795" lon="10.361826436131736"><ele>23.0</ele><time>2026-04-25T10:12:57.942Z</time></trkpt><trkpt lat="42.79939814484276" lon="10.361668311043914"><ele>23.0</ele><time>2026-04-25T10:12:58.941Z</time></trkpt><trkpt lat="42.799356839933765" lon="10.36151631701246"><ele>23.0</ele><time>2026-04-25T10:12:59.941Z</time></trkpt><trkpt lat="42.7993308300358" lon="10.3613550255222"><ele>21.5</ele><time>2026-04-25T10:13:00.941Z</time></trkpt><trkpt lat="42.799334779956624" lon="10.361202200311828"><ele>20.0</ele><time>2026-04-25T10:13:01.942Z</time></trkpt><trkpt lat="42.79935557026324" lon="10.361051516951495"><ele>18.5</ele><time>2026-04-25T10:13:02.942Z</time></trkpt><trkpt lat="42.79939102069022" lon="10.360903574451864"><ele>17.0</ele><time>2026-04-25T10:13:03.942Z</time></trkpt><trkpt lat="42.79942765142375" lon="10.360748341751988"><ele>17.0</ele><time>2026-04-25T10:13:04.942Z</time></trkpt><trkpt lat="42.79945854060652" lon="10.360594029456166"><ele>17.0</ele><time>2026-04-25T10:13:05.942Z</time></trkpt><trkpt lat="42.79949080508962" lon="10.36043768806181"><ele>17.0</ele><time>2026-04-25T10:13:06.942Z</time></trkpt><trkpt lat="42.79951514170577" lon="10.360275630977831"><ele>17.0</ele><time>2026-04-25T10:13:07.942Z</time></trkpt><trkpt lat="42.79952896360516" lon="10.360139733100496"><ele>18.0</ele><time>2026-04-25T10:13:08.942Z</time></trkpt><trkpt lat="42.799515031543926" lon="10.360008065597354"><ele>19.0</ele><time>2026-04-25T10:13:09.942Z</time></trkpt><trkpt lat="42.799476907260406" lon="10.359891532254153"><ele>20.0</ele><time>2026-04-25T10:13:10.942Z</time></trkpt><trkpt lat="42.79940392650254" lon="10.35980675800287"><ele>21.0</ele><time>2026-04-25T10:13:11.942Z</time></trkpt><trkpt lat="42.799316273691396" lon="10.359758069778039"><ele>22.0</ele><time>2026-04-25T10:13:12.942Z</time></trkpt><trkpt lat="42.79922691001897" lon="10.359758788257592"><ele>22.200000000000003</ele><time>2026-04-25T10:13:13.942Z</time></trkpt><trkpt lat="42.79914755804272" lon="10.359813803126032"><ele>22.4</ele><time>2026-04-25T10:13:14.942Z</time></trkpt><trkpt lat="42.79906384707318" lon="10.359867645188666"><ele>22.6</ele><time>2026-04-25T10:13:15.942Z</time></trkpt><trkpt lat="42.798983445024085" lon="10.359943808048245"><ele>22.799999999999997</ele><time>2026-04-25T10:13:16.942Z</time></trkpt><trkpt lat="42.79888288082203" lon="10.359969011740114"><ele>23.0</ele><time>2026-04-25T10:13:17.942Z</time></trkpt><trkpt lat="42.79878304300252" lon="10.359935896312939"><ele>23.0</ele><time>2026-04-25T10:13:18.942Z</time></trkpt><trkpt lat="42.798676033152134" lon="10.359875645676714"><ele>23.0</ele><time>2026-04-25T10:13:19.942Z</time></trkpt><trkpt lat="42.79856479822551" lon="10.359817768955988"><ele>23.0</ele><time>2026-04-25T10:13:20.942Z</time></trkpt><trkpt lat="42.79845697152715" lon="10.359773514501825"><ele>23.0</ele><time>2026-04-25T10:13:21.942Z</time></trkpt><trkpt lat="42.79834802025428" lon="10.359754777113887"><ele>21.599999999999998</ele><time>2026-04-25T10:13:22.942Z</time></trkpt><trkpt lat="42.79824127894239" lon="10.359753936976077"><ele>20.2</ele><time>2026-04-25T10:13:23.942Z</time></trkpt><trkpt lat="42.79816328351444" lon="10.359782694719652"><ele>18.8</ele><time>2026-04-25T10:13:24.942Z</time></trkpt><trkpt lat="42.79811211078108" lon="10.359916760969051"><ele>17.4</ele><time>2026-04-25T10:13:25.942Z</time></trkpt><trkpt lat="42.798027103050174" lon="10.360023853040301"><ele>16.0</ele><time>2026-04-25T10:13:26.942Z</time></trkpt><trkpt lat="42.79792042074257" lon="10.360159231235741"><ele>16.0</ele><time>2026-04-25T10:13:27.942Z</time></trkpt><trkpt lat="42.79780511094817" lon="10.36029134810718"><ele>16.0</ele><time>2026-04-25T10:13:28.942Z</time></trkpt><trkpt lat="42.79763527650328" lon="10.360381504920005"><ele>16.0</ele><time>2026-04-25T10:13:29.942Z</time></trkpt><trkpt lat="42.797517368795255" lon="10.36052898429883"><ele>16.75</ele><time>2026-04-25T10:13:30.942Z</time></trkpt><trkpt lat="42.79741027476591" lon="10.36066205704963"><ele>17.5</ele><time>2026-04-25T10:13:31.942Z</time></trkpt><trkpt lat="42.79731000630654" lon="10.360786424167681"><ele>18.25</ele><time>2026-04-25T10:13:32.942Z</time></trkpt><trkpt lat="42.79721810913918" lon="10.360900577732465"><ele>19.0</ele><time>2026-04-25T10:13:33.942Z</time></trkpt><trkpt lat="42.79712273427341" lon="10.361012536306799"><ele>19.0</ele><time>2026-04-25T10:13:34.942Z</time></trkpt><trkpt lat="42.79702617465754" lon="10.36110728193407"><ele>19.0</ele><time>2026-04-25T10:13:35.942Z</time></trkpt><trkpt lat="42.79692677718513" lon="10.36119790335555"><ele>19.0</ele><time>2026-04-25T10:13:36.942Z</time></trkpt><trkpt lat="42.79680821153948" lon="10.36124541769112"><ele>19.0</ele><time>2026-04-25T10:13:37.942Z</time></trkpt><trkpt lat="42.79668423702087" lon="10.361285793937727"><ele>19.25</ele><time>2026-04-25T10:13:38.942Z</time></trkpt><trkpt lat="42.79654600841665" lon="10.36132258329312"><ele>19.5</ele><time>2026-04-25T10:13:39.942Z</time></trkpt><trkpt lat="42.796416398663226" lon="10.36136306596499"><ele>19.75</ele><time>2026-04-25T10:13:40.942Z</time></trkpt><trkpt lat="42.79629179333062" lon="10.361401370630634"><ele>20.0</ele><time>2026-04-25T10:13:41.942Z</time></trkpt><trkpt lat="42.79616778841624" lon="10.361434431741957"><ele>20.75</ele><time>2026-04-25T10:13:42.942Z</time></trkpt><trkpt lat="42.79604344845059" lon="10.361464928771303"><ele>21.5</ele><time>2026-04-25T10:13:43.942Z</time></trkpt><trkpt lat="42.7959240221741" lon="10.361495044285075"><ele>22.25</ele><time>2026-04-25T10:13:44.942Z</time></trkpt><trkpt lat="42.79580915374135" lon="10.361517406389874"><ele>23.0</ele><time>2026-04-25T10:13:45.942Z</time></trkpt><trkpt lat="42.79570849665628" lon="10.361544186092882"><ele>23.0</ele><time>2026-04-25T10:13:46.942Z</time></trkpt><trkpt lat="42.795609568332466" lon="10.361576242321217"><ele>23.0</ele><time>2026-04-25T10:13:47.942Z</time></trkpt><trkpt lat="42.79551489599992" lon="10.361606124861739"><ele>23.0</ele><time>2026-04-25T10:13:48.942Z</time></trkpt><trkpt lat="42.79542196812345" lon="10.361634761096601"><ele>23.0</ele><time>2026-04-25T10:13:49.942Z</time></trkpt><trkpt lat="42.79534648228244" lon="10.361648358651852"><ele>23.0</ele><time>2026-04-25T10:13:50.942Z</time></trkpt><trkpt lat="42.79525525496482" lon="10.361634960374136"><ele>23.0</ele><time>2026-04-25T10:13:52.942Z</time></trkpt><trkpt lat="42.79518276368718" lon="10.361633924986691"><ele>23.0</ele><time>2026-04-25T10:13:55.942Z</time></trkpt><trkpt lat="42.79505060300156" lon="10.361782812089519"><ele>23.0</ele><time>2026-04-25T10:14:07.942Z</time></trkpt><trkpt lat="42.79500265106747" lon="10.361841160394903"><ele>23.0</ele><time>2026-04-25T10:14:08.942Z</time></trkpt><trkpt lat="42.794887245834865" lon="10.361943220143495"><ele>23.0</ele><time>2026-04-25T10:14:10.942Z</time></trkpt><trkpt lat="42.79482441551875" lon="10.362022064588947"><ele>23.0</ele><time>2026-04-25T10:14:11.942Z</time></trkpt><trkpt lat="42.794766071471706" lon="10.362126873100513"><ele>23.0</ele><time>2026-04-25T10:14:12.941Z</time></trkpt><trkpt lat="42.79471927899904" lon="10.362229796881115"><ele>23.0</ele><time>2026-04-25T10:14:13.941Z</time></trkpt><trkpt lat="42.794679853881725" lon="10.362322346915846"><ele>23.0</ele><time>2026-04-25T10:14:14.941Z</time></trkpt><trkpt lat="42.79464617084267" lon="10.362401418298386"><ele>23.0</ele><time>2026-04-25T10:14:15.941Z</time></trkpt><trkpt lat="42.794618664113806" lon="10.362499629578236"><ele>23.0</ele><time>2026-04-25T10:14:16.941Z</time></trkpt><trkpt lat="42.79461002223016" lon="10.362650373052954"><ele>23.0</ele><time>2026-04-25T10:14:18.941Z</time></trkpt><trkpt lat="42.794612653317294" lon="10.362749845212115"><ele>23.0</ele><time>2026-04-25T10:14:19.941Z</time></trkpt><trkpt lat="42.79462178565617" lon="10.362860002321352"><ele>23.0</ele><time>2026-04-25T10:14:20.941Z</time></trkpt><trkpt lat="42.79463474471274" lon="10.362979439527923"><ele>23.0</ele><time>2026-04-25T10:14:21.941Z</time></trkpt><trkpt lat="42.794637447243495" lon="10.363108253228456"><ele>23.0</ele><time>2026-04-25T10:14:22.941Z</time></trkpt><trkpt lat="42.79464558503582" lon="10.363254788705428"><ele>23.0</ele><time>2026-04-25T10:14:23.941Z</time></trkpt><trkpt lat="42.79461810362119" lon="10.363404280189355"><ele>23.599999999999998</ele><time>2026-04-25T10:14:24.941Z</time></trkpt><trkpt lat="42.79457981549696" lon="10.363544271077867"><ele>24.2</ele><time>2026-04-25T10:14:25.941Z</time></trkpt><trkpt lat="42.79453968479128" lon="10.363676131098849"><ele>24.8</ele><time>2026-04-25T10:14:26.941Z</time></trkpt><trkpt lat="42.79450368558966" lon="10.363819523055561"><ele>25.4</ele><time>2026-04-25T10:14:27.941Z</time></trkpt><trkpt lat="42.79447948622225" lon="10.36396173779634"><ele>26.0</ele><time>2026-04-25T10:14:28.941Z</time></trkpt><trkpt lat="42.794461393159466" lon="10.364107717856752"><ele>27.200000000000003</ele><time>2026-04-25T10:14:29.941Z</time></trkpt><trkpt lat="42.794432026970696" lon="10.364249214523024"><ele>28.400000000000002</ele><time>2026-04-25T10:14:30.941Z</time></trkpt><trkpt lat="42.79442594048513" lon="10.364388342875172"><ele>29.6</ele><time>2026-04-25T10:14:31.941Z</time></trkpt><trkpt lat="42.794432457506105" lon="10.364512242972514"><ele>30.8</ele><time>2026-04-25T10:14:32.941Z</time></trkpt><trkpt lat="42.79440454030352" lon="10.364629863582527"><ele>32.0</ele><time>2026-04-25T10:14:33.941Z</time></trkpt><trkpt lat="42.79435578058792" lon="10.364734413968215"><ele>31.0</ele><time>2026-04-25T10:14:34.941Z</time></trkpt><trkpt lat="42.7943044072404" lon="10.364854131128478"><ele>30.000000000000004</ele><time>2026-04-25T10:14:35.941Z</time></trkpt><trkpt lat="42.79421830074885" lon="10.364934541545281"><ele>29.000000000000004</ele><time>2026-04-25T10:14:36.941Z</time></trkpt><trkpt lat="42.794142782346185" lon="10.365013030408228"><ele>28.0</ele><time>2026-04-25T10:14:37.941Z</time></trkpt><trkpt lat="42.79406531338683" lon="10.365085623386685"><ele>27.0</ele><time>2026-04-25T10:14:38.941Z</time></trkpt><trkpt lat="42.793979440240484" lon="10.365153532142406"><ele>27.0</ele><time>2026-04-25T10:14:39.941Z</time></trkpt><trkpt lat="42.793894776220604" lon="10.3652265504881"><ele>27.000000000000004</ele><time>2026-04-25T10:14:40.941Z</time></trkpt><trkpt lat="42.79380438413105" lon="10.365292966767415"><ele>27.000000000000004</ele><time>2026-04-25T10:14:41.941Z</time></trkpt><trkpt lat="42.79370935858831" lon="10.365348877528396"><ele>27.0</ele><time>2026-04-25T10:14:42.941Z</time></trkpt><trkpt lat="42.79361169138405" lon="10.365388849703981"><ele>27.0</ele><time>2026-04-25T10:14:43.941Z</time></trkpt><trkpt lat="42.793510703287936" lon="10.365420380402236"><ele>27.0</ele><time>2026-04-25T10:14:44.941Z</time></trkpt><trkpt lat="42.793412119147916" lon="10.365448132441566"><ele>27.000000000000004</ele><time>2026-04-25T10:14:45.941Z</time></trkpt><trkpt lat="42.79330753028126" lon="10.365483951622988"><ele>27.000000000000004</ele><time>2026-04-25T10:14:46.941Z</time></trkpt><trkpt lat="42.79322106804091" lon="10.365519303672345"><ele>27.0</ele><time>2026-04-25T10:14:47.941Z</time></trkpt><trkpt lat="42.79312922120128" lon="10.365567515058885"><ele>27.0</ele><time>2026-04-25T10:14:48.941Z</time></trkpt><trkpt lat="42.79304293414944" lon="10.36561868779884"><ele>27.200000000000003</ele><time>2026-04-25T10:14:49.941Z</time></trkpt><trkpt lat="42.792954752988535" lon="10.3656769284321"><ele>27.400000000000002</ele><time>2026-04-25T10:14:50.941Z</time></trkpt><trkpt lat="42.79286710784178" lon="10.365736491271594"><ele>27.599999999999998</ele><time>2026-04-25T10:14:51.942Z</time></trkpt><trkpt lat="42.792782299443516" lon="10.365798081956832"><ele>27.799999999999997</ele><time>2026-04-25T10:14:52.942Z</time></trkpt><trkpt lat="42.79269166160697" lon="10.36586393394729"><ele>28.0</ele><time>2026-04-25T10:14:53.942Z</time></trkpt><trkpt lat="42.79260922830334" lon="10.365934994008907"><ele>28.0</ele><time>2026-04-25T10:14:54.942Z</time></trkpt><trkpt lat="42.79252758362931" lon="10.3660073709073"><ele>27.999999999999996</ele><time>2026-04-25T10:14:55.943Z</time></trkpt><trkpt lat="42.792445672383174" lon="10.366072639847506"><ele>27.999999999999996</ele><time>2026-04-25T10:14:56.943Z</time></trkpt><trkpt lat="42.792361629700245" lon="10.36612552341087"><ele>28.0</ele><time>2026-04-25T10:14:57.942Z</time></trkpt><trkpt lat="42.79227548982743" lon="10.36617361491294"><ele>28.0</ele><time>2026-04-25T10:14:58.942Z</time></trkpt><trkpt lat="42.792197473647576" lon="10.366225739158194"><ele>28.0</ele><time>2026-04-25T10:14:59.942Z</time></trkpt><trkpt lat="42.79211994154942" lon="10.366297135234662"><ele>27.999999999999996</ele><time>2026-04-25T10:15:00.942Z</time></trkpt><trkpt lat="42.79203529429912" lon="10.366378197638372"><ele>27.999999999999996</ele><time>2026-04-25T10:15:01.943Z</time></trkpt><trkpt lat="42.79194717708027" lon="10.36645735490876"><ele>28.0</ele><time>2026-04-25T10:15:02.943Z</time></trkpt><trkpt lat="42.79187052567589" lon="10.366533665811405"><ele>28.0</ele><time>2026-04-25T10:15:03.942Z</time></trkpt><trkpt lat="42.79180425792949" lon="10.366604599134764"><ele>29.4</ele><time>2026-04-25T10:15:04.942Z</time></trkpt><trkpt lat="42.79172984034239" lon="10.36666616464171"><ele>30.799999999999997</ele><time>2026-04-25T10:15:05.942Z</time></trkpt><trkpt lat="42.7916551179937" lon="10.366718235241448"><ele>32.2</ele><time>2026-04-25T10:15:06.942Z</time></trkpt><trkpt lat="42.791572567819806" lon="10.366775889237088"><ele>33.6</ele><time>2026-04-25T10:15:07.942Z</time></trkpt><trkpt lat="42.79149981086883" lon="10.366849756301013"><ele>35.0</ele><time>2026-04-25T10:15:08.942Z</time></trkpt><trkpt lat="42.79142783897785" lon="10.366937867046348"><ele>35.0</ele><time>2026-04-25T10:15:09.942Z</time></trkpt><trkpt lat="42.79136550770942" lon="10.367031076744363"><ele>35.0</ele><time>2026-04-25T10:15:10.942Z</time></trkpt><trkpt lat="42.7912986685644" lon="10.36712664600617"><ele>35.0</ele><time>2026-04-25T10:15:11.942Z</time></trkpt><trkpt lat="42.791242321988875" lon="10.367231742710796"><ele>35.0</ele><time>2026-04-25T10:15:12.942Z</time></trkpt><trkpt lat="42.79118766407746" lon="10.367340834843185"><ele>35.0</ele><time>2026-04-25T10:15:13.942Z</time></trkpt><trkpt lat="42.79114661901931" lon="10.367456459297463"><ele>35.83333333333333</ele><time>2026-04-25T10:15:14.942Z</time></trkpt><trkpt lat="42.791104473432334" lon="10.36755474935442"><ele>36.666666666666664</ele><time>2026-04-25T10:15:15.942Z</time></trkpt><trkpt lat="42.791070266127925" lon="10.367650067956795"><ele>37.5</ele><time>2026-04-25T10:15:16.942Z</time></trkpt><trkpt lat="42.79102663427343" lon="10.367765945889445"><ele>38.333333333333336</ele><time>2026-04-25T10:15:17.942Z</time></trkpt><trkpt lat="42.7909781637909" lon="10.367878190368323"><ele>39.16666666666667</ele><time>2026-04-25T10:15:18.942Z</time></trkpt><trkpt lat="42.79094660067637" lon="10.367993347613979"><ele>40.0</ele><time>2026-04-25T10:15:19.942Z</time></trkpt><trkpt lat="42.79092097931609" lon="10.368097976655402"><ele>41.5</ele><time>2026-04-25T10:15:20.942Z</time></trkpt><trkpt lat="42.79089216840487" lon="10.368201682722468"><ele>43.0</ele><time>2026-04-25T10:15:21.942Z</time></trkpt><trkpt lat="42.79088006642001" lon="10.368289503854925"><ele>44.5</ele><time>2026-04-25T10:15:22.942Z</time></trkpt><trkpt lat="42.79083815099185" lon="10.368366892316633"><ele>46.0</ele><time>2026-04-25T10:15:23.942Z</time></trkpt><trkpt lat="42.79077893508034" lon="10.368426228372144"><ele>47.49999999999999</ele><time>2026-04-25T10:15:24.942Z</time></trkpt><trkpt lat="42.79070983578823" lon="10.368494792100298"><ele>49.0</ele><time>2026-04-25T10:15:25.942Z</time></trkpt><trkpt lat="42.790633476512646" lon="10.368560891181021"><ele>49.0</ele><time>2026-04-25T10:15:26.942Z</time></trkpt><trkpt lat="42.79054851663835" lon="10.368626265730098"><ele>49.0</ele><time>2026-04-25T10:15:27.942Z</time></trkpt><trkpt lat="42.79047790251193" lon="10.368705847597885"><ele>49.0</ele><time>2026-04-25T10:15:28.942Z</time></trkpt><trkpt lat="42.79039783015065" lon="10.368788940721362"><ele>49.0</ele><time>2026-04-25T10:15:29.942Z</time></trkpt><trkpt lat="42.79032181079082" lon="10.368878220048819"><ele>49.0</ele><time>2026-04-25T10:15:30.942Z</time></trkpt><trkpt lat="42.79025045466289" lon="10.368969845560933"><ele>49.6</ele><time>2026-04-25T10:15:31.942Z</time></trkpt><trkpt lat="42.790186476491535" lon="10.369067731996191"><ele>50.2</ele><time>2026-04-25T10:15:32.942Z</time></trkpt><trkpt lat="42.79010587937373" lon="10.369154145432518"><ele>50.800000000000004</ele><time>2026-04-25T10:15:33.942Z</time></trkpt><trkpt lat="42.79004886036337" lon="10.369246601936098"><ele>51.400000000000006</ele><time>2026-04-25T10:15:34.942Z</time></trkpt><trkpt lat="42.78998795635327" lon="10.369341393724254"><ele>52.0</ele><time>2026-04-25T10:15:35.941Z</time></trkpt><trkpt lat="42.78992188282796" lon="10.369440663798942"><ele>52.0</ele><time>2026-04-25T10:15:36.941Z</time></trkpt><trkpt lat="42.789848813803104" lon="10.369522567474988"><ele>52.0</ele><time>2026-04-25T10:15:37.941Z</time></trkpt><trkpt lat="42.7897687500651" lon="10.369591691164732"><ele>52.0</ele><time>2026-04-25T10:15:38.941Z</time></trkpt><trkpt lat="42.78969005240872" lon="10.369650280444597"><ele>52.0</ele><time>2026-04-25T10:15:39.941Z</time></trkpt><trkpt lat="42.789606389665785" lon="10.369709800882681"><ele>52.0</ele><time>2026-04-25T10:15:40.941Z</time></trkpt><trkpt lat="42.7895350075904" lon="10.369768687383742"><ele>52.0</ele><time>2026-04-25T10:15:41.941Z</time></trkpt><trkpt lat="42.78946685484769" lon="10.369851714308632"><ele>52.0</ele><time>2026-04-25T10:15:43.941Z</time></trkpt><trkpt lat="42.78940305952967" lon="10.369999835835943"><ele>52.0</ele><time>2026-04-25T10:15:45.941Z</time></trkpt><trkpt lat="42.78933969320318" lon="10.370116150527904"><ele>52.0</ele><time>2026-04-25T10:15:46.941Z</time></trkpt><trkpt lat="42.789281368672754" lon="10.370223210627355"><ele>52.0</ele><time>2026-04-25T10:15:47.941Z</time></trkpt><trkpt lat="42.78922589012949" lon="10.37032383651275"><ele>51.166666666666664</ele><time>2026-04-25T10:15:48.941Z</time></trkpt><trkpt lat="42.789172251894534" lon="10.370418434839022"><ele>50.33333333333333</ele><time>2026-04-25T10:15:49.941Z</time></trkpt><trkpt lat="42.78913810764899" lon="10.370519330143212"><ele>49.5</ele><time>2026-04-25T10:15:50.941Z</time></trkpt><trkpt lat="42.7890830768731" lon="10.370588509455017"><ele>48.666666666666664</ele><time>2026-04-25T10:15:51.941Z</time></trkpt><trkpt lat="42.78903254366978" lon="10.370640562452042"><ele>47.83333333333333</ele><time>2026-04-25T10:15:52.941Z</time></trkpt><trkpt lat="42.78894469549389" lon="10.370706843493632"><ele>47.0</ele><time>2026-04-25T10:15:53.941Z</time></trkpt><trkpt lat="42.78886352473399" lon="10.370755020121583"><ele>47.0</ele><time>2026-04-25T10:15:54.941Z</time></trkpt><trkpt lat="42.78880193970155" lon="10.37079039353701"><ele>47.0</ele><time>2026-04-25T10:15:55.941Z</time></trkpt><trkpt lat="42.78869785003603" lon="10.370773204505884"><ele>47.0</ele><time>2026-04-25T10:15:57.941Z</time></trkpt><trkpt lat="42.7886274541952" lon="10.37066741325041"><ele>47.0</ele><time>2026-04-25T10:15:59.941Z</time></trkpt><trkpt lat="42.78862455915603" lon="10.370579606224496"><ele>47.0</ele><time>2026-04-25T10:16:00.941Z</time></trkpt><trkpt lat="42.78857950211286" lon="10.37044186356047"><ele>47.6</ele><time>2026-04-25T10:16:02.941Z</time></trkpt><trkpt lat="42.788479980333875" lon="10.370412981878129"><ele>48.2</ele><time>2026-04-25T10:16:04.941Z</time></trkpt><trkpt lat="42.788395811299175" lon="10.370416918904844"><ele>48.8</ele><time>2026-04-25T10:16:05.941Z</time></trkpt><trkpt lat="42.78829725361348" lon="10.370411594213875"><ele>49.4</ele><time>2026-04-25T10:16:06.941Z</time></trkpt><trkpt lat="42.788193592075096" lon="10.370392693096543"><ele>50.0</ele><time>2026-04-25T10:16:07.941Z</time></trkpt><trkpt lat="42.788102872071036" lon="10.370372728153727"><ele>50.00000000000001</ele><time>2026-04-25T10:16:08.941Z</time></trkpt><trkpt lat="42.788033749929" lon="10.370380640397403"><ele>50.0</ele><time>2026-04-25T10:16:09.941Z</time></trkpt><trkpt lat="42.78795610703166" lon="10.370386463753276"><ele>50.0</ele><time>2026-04-25T10:16:10.941Z</time></trkpt><trkpt lat="42.787893246504446" lon="10.370377708615424"><ele>50.0</ele><time>2026-04-25T10:16:11.941Z</time></trkpt><trkpt lat="42.78777874046212" lon="10.370372015300315"><ele>50.00000000000001</ele><time>2026-04-25T10:16:13.941Z</time></trkpt><trkpt lat="42.78767600185301" lon="10.370378603177162"><ele>50.0</ele><time>2026-04-25T10:16:15.941Z</time></trkpt><trkpt lat="42.78759921987625" lon="10.370378875014373"><ele>50.00000000000001</ele><time>2026-04-25T10:16:37.94Z</time></trkpt><trkpt lat="42.78754495820808" lon="10.370471734037823"><ele>50.0</ele><time>2026-04-25T10:16:40.94Z</time></trkpt><trkpt lat="42.787516482563696" lon="10.370567379705523"><ele>50.0</ele><time>2026-04-25T10:16:42.94Z</time></trkpt><trkpt lat="42.787485104714456" lon="10.370662663266442"><ele>50.0</ele><time>2026-04-25T10:16:44.94Z</time></trkpt><trkpt lat="42.7874668433519" lon="10.37074713890487"><ele>50.00000000000001</ele><time>2026-04-25T10:16:45.94Z</time></trkpt><trkpt lat="42.78743404359763" lon="10.370831940310326"><ele>50.0</ele><time>2026-04-25T10:16:46.94Z</time></trkpt><trkpt lat="42.78739222029318" lon="10.37092201790091"><ele>51.2</ele><time>2026-04-25T10:16:47.94Z</time></trkpt><trkpt lat="42.78734753011293" lon="10.371044159363672"><ele>52.4</ele><time>2026-04-25T10:16:48.94Z</time></trkpt><trkpt lat="42.78729055697733" lon="10.371181831848624"><ele>53.599999999999994</ele><time>2026-04-25T10:16:49.94Z</time></trkpt><trkpt lat="42.78722847346283" lon="10.371302524709415"><ele>54.8</ele><time>2026-04-25T10:16:50.94Z</time></trkpt><trkpt lat="42.7871765566898" lon="10.37141819772336"><ele>56.0</ele><time>2026-04-25T10:16:51.94Z</time></trkpt><trkpt lat="42.78713504540438" lon="10.371536156755953"><ele>57.16666666666667</ele><time>2026-04-25T10:16:52.94Z</time></trkpt><trkpt lat="42.78709830880569" lon="10.3716377960774"><ele>58.333333333333336</ele><time>2026-04-25T10:16:53.94Z</time></trkpt><trkpt lat="42.787060275432474" lon="10.371724269100886"><ele>59.5</ele><time>2026-04-25T10:16:54.94Z</time></trkpt><trkpt lat="42.787015334972516" lon="10.371798733739624"><ele>60.66666666666667</ele><time>2026-04-25T10:16:55.94Z</time></trkpt><trkpt lat="42.78697528342847" lon="10.371885688692421"><ele>61.833333333333336</ele><time>2026-04-25T10:16:56.94Z</time></trkpt><trkpt lat="42.78694058707998" lon="10.371970647743632"><ele>63.0</ele><time>2026-04-25T10:16:57.942Z</time></trkpt><trkpt lat="42.78690238645576" lon="10.37206328042139"><ele>63.0</ele><time>2026-04-25T10:16:58.942Z</time></trkpt><trkpt lat="42.7868622572363" lon="10.372154279762427"><ele>63.0</ele><time>2026-04-25T10:16:59.941Z</time></trkpt><trkpt lat="42.78682515563471" lon="10.372242807391418"><ele>63.0</ele><time>2026-04-25T10:17:00.941Z</time></trkpt><trkpt lat="42.78677807841481" lon="10.372348657229114"><ele>63.0</ele><time>2026-04-25T10:17:01.941Z</time></trkpt><trkpt lat="42.786730783691695" lon="10.372447147199756"><ele>63.0</ele><time>2026-04-25T10:17:02.941Z</time></trkpt><trkpt lat="42.786685818914584" lon="10.372540439207578"><ele>63.0</ele><time>2026-04-25T10:17:03.942Z</time></trkpt><trkpt lat="42.78663091473379" lon="10.372631841214915"><ele>64.6</ele><time>2026-04-25T10:17:04.941Z</time></trkpt><trkpt lat="42.786572592618285" lon="10.37271905473414"><ele>66.19999999999999</ele><time>2026-04-25T10:17:05.941Z</time></trkpt><trkpt lat="42.78649654797267" lon="10.372800567222253"><ele>67.8</ele><time>2026-04-25T10:17:06.942Z</time></trkpt><trkpt lat="42.78641991897262" lon="10.372889720473465"><ele>69.39999999999999</ele><time>2026-04-25T10:17:07.941Z</time></trkpt><trkpt lat="42.786336485941334" lon="10.37296082898383"><ele>71.0</ele><time>2026-04-25T10:17:08.941Z</time></trkpt><trkpt lat="42.7862604641988" lon="10.373007677197503"><ele>73.4</ele><time>2026-04-25T10:17:09.942Z</time></trkpt><trkpt lat="42.78618020065802" lon="10.37302274358581"><ele>75.8</ele><time>2026-04-25T10:17:10.941Z</time></trkpt><trkpt lat="42.786092084619824" lon="10.373025145167803"><ele>78.2</ele><time>2026-04-25T10:17:11.941Z</time></trkpt><trkpt lat="42.78600822665456" lon="10.373030593465364"><ele>80.60000000000001</ele><time>2026-04-25T10:17:12.941Z</time></trkpt><trkpt lat="42.78592636579285" lon="10.373045592322097"><ele>83.0</ele><time>2026-04-25T10:17:13.941Z</time></trkpt><trkpt lat="42.78580977935182" lon="10.373112700037991"><ele>82.83333333333334</ele><time>2026-04-25T10:17:15.941Z</time></trkpt><trkpt lat="42.78569567027712" lon="10.37318600131654"><ele>82.66666666666667</ele><time>2026-04-25T10:17:17.941Z</time></trkpt><trkpt lat="42.78563799458124" lon="10.373226017111937"><ele>82.5</ele><time>2026-04-25T10:17:18.941Z</time></trkpt><trkpt lat="42.78554780509285" lon="10.373261773384058"><ele>82.33333333333333</ele><time>2026-04-25T10:17:20.941Z</time></trkpt><trkpt lat="42.785485714284945" lon="10.373174986165505"><ele>82.16666666666666</ele><time>2026-04-25T10:17:22.941Z</time></trkpt><trkpt lat="42.78549281285126" lon="10.37308962104196"><ele>82.0</ele><time>2026-04-25T10:17:24.941Z</time></trkpt><trkpt lat="42.78553575961053" lon="10.372991458344966"><ele>82.0</ele><time>2026-04-25T10:17:26.941Z</time></trkpt><trkpt lat="42.785546441456475" lon="10.372876139213068"><ele>82.0</ele><time>2026-04-25T10:17:28.941Z</time></trkpt><trkpt lat="42.78552718917274" lon="10.372780038461057"><ele>82.0</ele><time>2026-04-25T10:17:30.941Z</time></trkpt><trkpt lat="42.78546619723973" lon="10.372676271793459"><ele>82.0</ele><time>2026-04-25T10:17:32.941Z</time></trkpt><trkpt lat="42.7854043663704" lon="10.372633749996375"><ele>82.0</ele><time>2026-04-25T10:17:33.941Z</time></trkpt><trkpt lat="42.78533415598346" lon="10.372604815873368"><ele>82.0</ele><time>2026-04-25T10:17:34.941Z</time></trkpt><trkpt lat="42.78527070522577" lon="10.372580543929342"><ele>86.6</ele><time>2026-04-25T10:17:35.941Z</time></trkpt><trkpt lat="42.78517066690456" lon="10.372588432287898"><ele>91.19999999999999</ele><time>2026-04-25T10:17:37.941Z</time></trkpt><trkpt lat="42.78507752030194" lon="10.372608806368842"><ele>95.8</ele><time>2026-04-25T10:17:39.94Z</time></trkpt><trkpt lat="42.78499362361541" lon="10.372645554400167"><ele>100.4</ele><time>2026-04-25T10:17:41.94Z</time></trkpt><trkpt lat="42.784876926234766" lon="10.372668587129056"><ele>105.0</ele><time>2026-04-25T10:17:43.94Z</time></trkpt><trkpt lat="42.784756568572796" lon="10.372660788253944"><ele>105.0</ele><time>2026-04-25T10:17:45.94Z</time></trkpt><trkpt lat="42.78463720763473" lon="10.372661564800309"><ele>105.0</ele><time>2026-04-25T10:17:47.94Z</time></trkpt><trkpt lat="42.78458082492915" lon="10.372705740868685"><ele>105.0</ele><time>2026-04-25T10:17:50.94Z</time></trkpt><trkpt lat="42.78464063813243" lon="10.372778614225657"><ele>105.0</ele><time>2026-04-25T10:17:54.94Z</time></trkpt><trkpt lat="42.78470374184575" lon="10.37280930835758"><ele>105.0</ele><time>2026-04-25T10:17:56.94Z</time></trkpt><trkpt lat="42.78478268492337" lon="10.372855798175149"><ele>105.0</ele><time>2026-04-25T10:17:58.94Z</time></trkpt><trkpt lat="42.78481269123118" lon="10.372940627985734"><ele>106.28571428571428</ele><time>2026-04-25T10:18:02.94Z</time></trkpt><trkpt lat="42.784797781571946" lon="10.373043615311706"><ele>107.57142857142857</ele><time>2026-04-25T10:18:04.94Z</time></trkpt><trkpt lat="42.784716938523836" lon="10.373118360089515"><ele>108.85714285714286</ele><time>2026-04-25T10:18:07.94Z</time></trkpt><trkpt lat="42.784651617601924" lon="10.373142208580033"><ele>110.14285714285714</ele><time>2026-04-25T10:18:10.94Z</time></trkpt><trkpt lat="42.78460183606301" lon="10.373211430463018"><ele>111.42857142857142</ele><time>2026-04-25T10:18:13.94Z</time></trkpt><trkpt lat="42.784566804089394" lon="10.37328917794091"><ele>112.71428571428571</ele><time>2026-04-25T10:18:15.94Z</time></trkpt><trkpt lat="42.78453643942979" lon="10.37337290430555"><ele>114.0</ele><time>2026-04-25T10:18:17.94Z</time></trkpt><trkpt lat="42.78450529739621" lon="10.373499720288324"><ele>114.0</ele><time>2026-04-25T10:18:19.94Z</time></trkpt><trkpt lat="42.78444792065481" lon="10.37355474831301"><ele>114.0</ele><time>2026-04-25T10:18:21.94Z</time></trkpt><trkpt lat="42.78440161715755" lon="10.37365928308607"><ele>114.0</ele><time>2026-04-25T10:18:23.94Z</time></trkpt><trkpt lat="42.78437931453862" lon="10.373753915327612"><ele>114.0</ele><time>2026-04-25T10:18:25.94Z</time></trkpt><trkpt lat="42.78438246147814" lon="10.37385172841545"><ele>114.0</ele><time>2026-04-25T10:18:29.939Z</time></trkpt><trkpt lat="42.784441691961895" lon="10.373926915037181"><ele>114.0</ele><time>2026-04-25T10:18:32.939Z</time></trkpt><trkpt lat="42.78449747941876" lon="10.373987255940856"><ele>116.83333333333333</ele><time>2026-04-25T10:18:36.939Z</time></trkpt><trkpt lat="42.784518237789484" lon="10.374080385190117"><ele>119.66666666666666</ele><time>2026-04-25T10:18:39.939Z</time></trkpt><trkpt lat="42.784490105174214" lon="10.374179657477516"><ele>122.5</ele><time>2026-04-25T10:18:42.939Z</time></trkpt><trkpt lat="42.78447435868935" lon="10.374273335645375"><ele>125.33333333333333</ele><time>2026-04-25T10:18:48.939Z</time></trkpt><trkpt lat="42.78445074086579" lon="10.374411004196608"><ele>128.16666666666666</ele><time>2026-04-25T10:18:52.939Z</time></trkpt><trkpt lat="42.78441505096357" lon="10.3744866561099"><ele>131.0</ele><time>2026-04-25T10:18:55.939Z</time></trkpt><trkpt lat="42.784374211837076" lon="10.374582250608904"><ele>133.0</ele><time>2026-04-25T10:18:58.939Z</time></trkpt><trkpt lat="42.78434606011598" lon="10.374685914222091"><ele>135.0</ele><time>2026-04-25T10:19:00.939Z</time></trkpt><trkpt lat="42.78431341080842" lon="10.374770101505646"><ele>137.0</ele><time>2026-04-25T10:19:03.941Z</time></trkpt><trkpt lat="42.784259107466546" lon="10.37483900884635"><ele>139.0</ele><time>2026-04-25T10:19:05.94Z</time></trkpt><trkpt lat="42.78417237775404" lon="10.374850081586198"><ele>141.0</ele><time>2026-04-25T10:19:10.94Z</time></trkpt><trkpt lat="42.78410821514849" lon="10.37488015228311"><ele>143.0</ele><time>2026-04-25T10:19:12.941Z</time></trkpt><trkpt lat="42.78406454114015" lon="10.374980740471074"><ele>144.83333333333331</ele><time>2026-04-25T10:19:15.941Z</time></trkpt><trkpt lat="42.78404167374108" lon="10.375063521751846"><ele>146.66666666666666</ele><time>2026-04-25T10:19:20.941Z</time></trkpt><trkpt lat="42.78411919663116" lon="10.375081758573357"><ele>148.5</ele><time>2026-04-25T10:19:23.941Z</time></trkpt><trkpt lat="42.78418776199236" lon="10.375149044691247"><ele>150.33333333333334</ele><time>2026-04-25T10:19:25.941Z</time></trkpt><trkpt lat="42.78425274745877" lon="10.375195902760655"><ele>152.16666666666669</ele><time>2026-04-25T10:19:28.941Z</time></trkpt><trkpt lat="42.78437379061614" lon="10.375212881501332"><ele>154.0</ele><time>2026-04-25T10:19:35.94Z</time></trkpt><trkpt lat="42.78444161115096" lon="10.375228932573707"><ele>154.0</ele><time>2026-04-25T10:19:38.94Z</time></trkpt><trkpt lat="42.784425877331216" lon="10.375340084850741"><ele>154.0</ele><time>2026-04-25T10:19:43.94Z</time></trkpt><trkpt lat="42.784401637491975" lon="10.375435048759382"><ele>154.0</ele><time>2026-04-25T10:19:49.94Z</time></trkpt><trkpt lat="42.78438535089309" lon="10.375538604872702"><ele>154.0</ele><time>2026-04-25T10:19:52.94Z</time></trkpt><trkpt lat="42.78434174170337" lon="10.37561788147207"><ele>154.0</ele><time>2026-04-25T10:19:56.94Z</time></trkpt><trkpt lat="42.78427638584041" lon="10.375605604195451"><ele>154.0</ele><time>2026-04-25T10:20:00.94Z</time></trkpt><trkpt lat="42.78420553146061" lon="10.37562802196674"><ele>154.0</ele><time>2026-04-25T10:20:03.94Z</time></trkpt><trkpt lat="42.784132069273284" lon="10.375639857808146"><ele>157.0</ele><time>2026-04-25T10:20:06.94Z</time></trkpt><trkpt lat="42.78406148090729" lon="10.375653544576734"><ele>160.0</ele><time>2026-04-25T10:20:08.94Z</time></trkpt><trkpt lat="42.78398992459344" lon="10.375732736253756"><ele>163.0</ele><time>2026-04-25T10:20:11.94Z</time></trkpt><trkpt lat="42.78393177812345" lon="10.375781167341904"><ele>166.0</ele><time>2026-04-25T10:20:14.94Z</time></trkpt><trkpt lat="42.78385410750049" lon="10.37584058454844"><ele>169.0</ele><time>2026-04-25T10:20:17.94Z</time></trkpt><trkpt lat="42.78378908705137" lon="10.375898276702033"><ele>172.0</ele><time>2026-04-25T10:20:20.939Z</time></trkpt><trkpt lat="42.78371807561023" lon="10.375955019116912"><ele>172.00000000000003</ele><time>2026-04-25T10:20:23.939Z</time></trkpt><trkpt lat="42.78363773586971" lon="10.375976183534128"><ele>172.0</ele><time>2026-04-25T10:20:26.939Z</time></trkpt><trkpt lat="42.783567222278876" lon="10.375949917908567"><ele>172.0</ele><time>2026-04-25T10:20:29.939Z</time></trkpt><trkpt lat="42.78350299425394" lon="10.375949898499472"><ele>172.0</ele><time>2026-04-25T10:20:31.939Z</time></trkpt><trkpt lat="42.78343134921252" lon="10.37594411299396"><ele>172.0</ele><time>2026-04-25T10:20:34.939Z</time></trkpt><trkpt lat="42.78335457479988" lon="10.375938940950094"><ele>172.00000000000003</ele><time>2026-04-25T10:20:37.939Z</time></trkpt><trkpt lat="42.783292666884186" lon="10.375960666914928"><ele>172.0</ele><time>2026-04-25T10:20:41.939Z</time></trkpt><trkpt lat="42.78321721098873" lon="10.375969111017847"><ele>173.14285714285717</ele><time>2026-04-25T10:20:46.939Z</time></trkpt><trkpt lat="42.78312784919255" lon="10.37596758084493"><ele>174.28571428571428</ele><time>2026-04-25T10:20:49.939Z</time></trkpt><trkpt lat="42.78305514208825" lon="10.375963650432539"><ele>175.42857142857144</ele><time>2026-04-25T10:20:53.939Z</time></trkpt><trkpt lat="42.78299169323095" lon="10.375950257760158"><ele>176.57142857142858</ele><time>2026-04-25T10:20:58.939Z</time></trkpt><trkpt lat="42.78291084376664" lon="10.375941513244552"><ele>177.71428571428572</ele><time>2026-04-25T10:21:02.939Z</time></trkpt><trkpt lat="42.78284074901504" lon="10.375927069070217"><ele>178.85714285714286</ele><time>2026-04-25T10:21:06.939Z</time></trkpt><trkpt lat="42.78278410367258" lon="10.37587852816894"><ele>180.0</ele><time>2026-04-25T10:21:09.941Z</time></trkpt><trkpt lat="42.78275108353653" lon="10.375793614748577"><ele>180.0</ele><time>2026-04-25T10:21:13.94Z</time></trkpt><trkpt lat="42.782729343698435" lon="10.37569641893828"><ele>180.0</ele><time>2026-04-25T10:21:17.939Z</time></trkpt><trkpt lat="42.78269901076284" lon="10.375604524489747"><ele>180.0</ele><time>2026-04-25T10:21:19.94Z</time></trkpt><trkpt lat="42.78268290625048" lon="10.37550153727137"><ele>180.0</ele><time>2026-04-25T10:21:22.94Z</time></trkpt><trkpt lat="42.78268751894225" lon="10.375396151367564"><ele>180.0</ele><time>2026-04-25T10:21:25.94Z</time></trkpt><trkpt lat="42.78267310821764" lon="10.375274382609872"><ele>180.0</ele><time>2026-04-25T10:21:29.94Z</time></trkpt><trkpt lat="42.782636112946925" lon="10.37519361760908"><ele>183.57142857142856</ele><time>2026-04-25T10:21:32.94Z</time></trkpt><trkpt lat="42.78256700205325" lon="10.375216234154912"><ele>187.14285714285717</ele><time>2026-04-25T10:21:41.94Z</time></trkpt><trkpt lat="42.78250426232812" lon="10.3752031604961"><ele>190.71428571428572</ele><time>2026-04-25T10:21:43.94Z</time></trkpt><trkpt lat="42.78243536464978" lon="10.375248493614027"><ele>194.28571428571428</ele><time>2026-04-25T10:21:46.939Z</time></trkpt><trkpt lat="42.78236971884059" lon="10.375322760580417"><ele>197.85714285714283</ele><time>2026-04-25T10:21:48.939Z</time></trkpt><trkpt lat="42.78231207409019" lon="10.375384915090354"><ele>201.42857142857144</ele><time>2026-04-25T10:21:49.939Z</time></trkpt><trkpt lat="42.78227999607569" lon="10.375468425613885"><ele>205.0</ele><time>2026-04-25T10:21:51.939Z</time></trkpt><trkpt lat="42.78221475106127" lon="10.375516525498238"><ele>203.6</ele><time>2026-04-25T10:21:53.939Z</time></trkpt><trkpt lat="42.78211202498514" lon="10.375578364060562"><ele>202.2</ele><time>2026-04-25T10:21:55.939Z</time></trkpt><trkpt lat="42.78203788612775" lon="10.375645967834064"><ele>200.8</ele><time>2026-04-25T10:21:57.939Z</time></trkpt><trkpt lat="42.78198920816825" lon="10.375701230133178"><ele>199.4</ele><time>2026-04-25T10:21:59.939Z</time></trkpt><trkpt lat="42.78189330642637" lon="10.375806611119343"><ele>198.0</ele><time>2026-04-25T10:22:01.939Z</time></trkpt><trkpt lat="42.7818488400804" lon="10.375873235557057"><ele>202.0</ele><time>2026-04-25T10:22:03.939Z</time></trkpt><trkpt lat="42.781786904616126" lon="10.37593759858872"><ele>206.0</ele><time>2026-04-25T10:22:05.939Z</time></trkpt><trkpt lat="42.78172438728207" lon="10.376002300548647"><ele>210.0</ele><time>2026-04-25T10:22:08.939Z</time></trkpt><trkpt lat="42.781671971783766" lon="10.376072414262435"><ele>214.0</ele><time>2026-04-25T10:22:10.939Z</time></trkpt><trkpt lat="42.781601336893175" lon="10.376150756483245"><ele>218.0</ele><time>2026-04-25T10:22:13.939Z</time></trkpt><trkpt lat="42.78154999126887" lon="10.376217193687882"><ele>222.0</ele><time>2026-04-25T10:22:15.939Z</time></trkpt><trkpt lat="42.781496517111115" lon="10.376280412676408"><ele>222.0</ele><time>2026-04-25T10:22:17.939Z</time></trkpt><trkpt lat="42.78143045569954" lon="10.376347077891268"><ele>222.0</ele><time>2026-04-25T10:22:19.939Z</time></trkpt><trkpt lat="42.781359844431606" lon="10.376422136516915"><ele>222.0</ele><time>2026-04-25T10:22:21.939Z</time></trkpt><trkpt lat="42.78130504721433" lon="10.376514008913002"><ele>222.0</ele><time>2026-04-25T10:22:23.939Z</time></trkpt><trkpt lat="42.78124058919554" lon="10.376605453819794"><ele>222.0</ele><time>2026-04-25T10:22:25.939Z</time></trkpt><trkpt lat="42.78118007666754" lon="10.376679839088428"><ele>222.0</ele><time>2026-04-25T10:22:27.939Z</time></trkpt><trkpt lat="42.781103305568394" lon="10.376735401647665"><ele>225.0</ele><time>2026-04-25T10:22:29.939Z</time></trkpt><trkpt lat="42.78101208589448" lon="10.376811833218632"><ele>228.0</ele><time>2026-04-25T10:22:31.939Z</time></trkpt><trkpt lat="42.78095100619198" lon="10.376855221276807"><ele>231.0</ele><time>2026-04-25T10:22:32.939Z</time></trkpt><trkpt lat="42.780885652579755" lon="10.376913111778723"><ele>234.0</ele><time>2026-04-25T10:22:33.938Z</time></trkpt><trkpt lat="42.780815134082204" lon="10.3769580413056"><ele>237.0</ele><time>2026-04-25T10:22:34.938Z</time></trkpt><trkpt lat="42.7807436242693" lon="10.377001463016326"><ele>240.0</ele><time>2026-04-25T10:22:35.938Z</time></trkpt><trkpt lat="42.78063369400357" lon="10.377108951237787"><ele>240.0</ele><time>2026-04-25T10:22:37.938Z</time></trkpt><trkpt lat="42.780562580469336" lon="10.377182829203042"><ele>240.0</ele><time>2026-04-25T10:22:38.938Z</time></trkpt><trkpt lat="42.780483348939875" lon="10.377267210169505"><ele>240.0</ele><time>2026-04-25T10:22:39.938Z</time></trkpt><trkpt lat="42.78043145312171" lon="10.377319636452508"><ele>240.0</ele><time>2026-04-25T10:22:40.938Z</time></trkpt><trkpt lat="42.78034919977112" lon="10.377369316851496"><ele>240.0</ele><time>2026-04-25T10:22:42.938Z</time></trkpt><trkpt lat="42.780256708818634" lon="10.377416396273349"><ele>240.0</ele><time>2026-04-25T10:22:45.938Z</time></trkpt><trkpt lat="42.78015394364367" lon="10.377459971165157"><ele>243.33333333333334</ele><time>2026-04-25T10:22:47.938Z</time></trkpt><trkpt lat="42.780075153351376" lon="10.377458059721997"><ele>246.66666666666669</ele><time>2026-04-25T10:22:49.938Z</time></trkpt><trkpt lat="42.780011440807904" lon="10.37745914207819"><ele>250.0</ele><time>2026-04-25T10:22:52.938Z</time></trkpt><trkpt lat="42.77993780239583" lon="10.377481030525278"><ele>253.33333333333334</ele><time>2026-04-25T10:24:03.939Z</time></trkpt><trkpt lat="42.77986784370969" lon="10.377446166687767"><ele>256.6666666666667</ele><time>2026-04-25T10:24:09.938Z</time></trkpt><trkpt lat="42.77979782621381" lon="10.37738650327979"><ele>260.0</ele><time>2026-04-25T10:24:12.938Z</time></trkpt><trkpt lat="42.779729096307115" lon="10.377299843980131"><ele>260.0</ele><time>2026-04-25T10:24:15.938Z</time></trkpt><trkpt lat="42.779638982482574" lon="10.37721398196813"><ele>260.0</ele><time>2026-04-25T10:24:17.938Z</time></trkpt><trkpt lat="42.77960414375241" lon="10.377128646814908"><ele>260.0</ele><time>2026-04-25T10:24:18.938Z</time></trkpt><trkpt lat="42.77956094651307" lon="10.377026569290766"><ele>260.0</ele><time>2026-04-25T10:24:19.938Z</time></trkpt><trkpt lat="42.779503487920806" lon="10.376950149564369"><ele>260.0</ele><time>2026-04-25T10:24:20.938Z</time></trkpt><trkpt lat="42.779497113943215" lon="10.37682826989898"><ele>260.0</ele><time>2026-04-25T10:24:21.938Z</time></trkpt><trkpt lat="42.779439743810414" lon="10.37675453286142"><ele>259.7142857142857</ele><time>2026-04-25T10:24:22.938Z</time></trkpt><trkpt lat="42.77938825989436" lon="10.376693103337097"><ele>259.42857142857144</ele><time>2026-04-25T10:24:23.938Z</time></trkpt><trkpt lat="42.7793396964564" lon="10.376632201694248"><ele>259.1428571428571</ele><time>2026-04-25T10:24:24.938Z</time></trkpt><trkpt lat="42.77926360534449" lon="10.376644070603529"><ele>258.8571428571429</ele><time>2026-04-25T10:24:25.938Z</time></trkpt><trkpt lat="42.77922602040499" lon="10.376557384078284"><ele>258.57142857142856</ele><time>2026-04-25T10:24:26.938Z</time></trkpt><trkpt lat="42.77921840211557" lon="10.376469780018708"><ele>258.2857142857143</ele><time>2026-04-25T10:24:27.938Z</time></trkpt><trkpt lat="42.779231462127086" lon="10.376363219033262"><ele>258.0</ele><time>2026-04-25T10:24:28.938Z</time></trkpt><trkpt lat="42.779240128284364" lon="10.376276044986996"><ele>255.99999999999997</ele><time>2026-04-25T10:24:29.938Z</time></trkpt><trkpt lat="42.77928309421709" lon="10.376199076177697"><ele>254.0</ele><time>2026-04-25T10:24:30.938Z</time></trkpt><trkpt lat="42.779338092968466" lon="10.376117457109778"><ele>251.99999999999997</ele><time>2026-04-25T10:24:31.938Z</time></trkpt><trkpt lat="42.779403396581536" lon="10.376074209873142"><ele>249.99999999999997</ele><time>2026-04-25T10:24:32.938Z</time></trkpt><trkpt lat="42.77947436558095" lon="10.376061823377105"><ele>248.0</ele><time>2026-04-25T10:24:33.938Z</time></trkpt><trkpt lat="42.77954235477432" lon="10.376058552835675"><ele>245.99999999999997</ele><time>2026-04-25T10:24:34.938Z</time></trkpt><trkpt lat="42.77961030447777" lon="10.376049850979648"><ele>243.99999999999997</ele><time>2026-04-25T10:24:35.938Z</time></trkpt><trkpt lat="42.77969002705282" lon="10.376018624227452"><ele>244.0</ele><time>2026-04-25T10:24:36.938Z</time></trkpt><trkpt lat="42.77976058364222" lon="10.375956389126243"><ele>243.99999999999997</ele><time>2026-04-25T10:24:37.938Z</time></trkpt><trkpt lat="42.77983453798647" lon="10.37587966052274"><ele>243.99999999999997</ele><time>2026-04-25T10:24:38.938Z</time></trkpt><trkpt lat="42.779905495375985" lon="10.375795595019795"><ele>244.0</ele><time>2026-04-25T10:24:39.938Z</time></trkpt><trkpt lat="42.7799806237337" lon="10.375703607708592"><ele>244.0</ele><time>2026-04-25T10:24:40.938Z</time></trkpt><trkpt lat="42.780050936884024" lon="10.375610143130704"><ele>243.99999999999997</ele><time>2026-04-25T10:24:41.938Z</time></trkpt><trkpt lat="42.78011764625121" lon="10.375532979286492"><ele>244.0</ele><time>2026-04-25T10:24:42.938Z</time></trkpt><trkpt lat="42.78017796425615" lon="10.375466159425756"><ele>244.0</ele><time>2026-04-25T10:24:43.938Z</time></trkpt><trkpt lat="42.780206587447196" lon="10.375389042344564"><ele>244.0</ele><time>2026-04-25T10:24:44.938Z</time></trkpt><trkpt lat="42.78021344856471" lon="10.375296728454655"><ele>243.99999999999997</ele><time>2026-04-25T10:24:45.938Z</time></trkpt><trkpt lat="42.78020901606617" lon="10.375181657133535"><ele>244.0</ele><time>2026-04-25T10:24:46.938Z</time></trkpt><trkpt lat="42.780202763619315" lon="10.375072615593394"><ele>244.33333333333331</ele><time>2026-04-25T10:24:47.938Z</time></trkpt><trkpt lat="42.78021547798725" lon="10.374960097473235"><ele>244.66666666666666</ele><time>2026-04-25T10:24:48.938Z</time></trkpt><trkpt lat="42.78024591522553" lon="10.374853353454519"><ele>245.0</ele><time>2026-04-25T10:24:49.938Z</time></trkpt><trkpt lat="42.78028017822204" lon="10.374754452674265"><ele>245.33333333333331</ele><time>2026-04-25T10:24:50.938Z</time></trkpt><trkpt lat="42.78032458333459" lon="10.374673482551808"><ele>245.66666666666666</ele><time>2026-04-25T10:24:51.938Z</time></trkpt><trkpt lat="42.78037444234449" lon="10.37458205835584"><ele>246.0</ele><time>2026-04-25T10:24:52.938Z</time></trkpt><trkpt lat="42.780423956126285" lon="10.374492404746972"><ele>244.8</ele><time>2026-04-25T10:24:53.938Z</time></trkpt><trkpt lat="42.780465855862936" lon="10.374385192358273"><ele>243.60000000000002</ele><time>2026-04-25T10:24:54.938Z</time></trkpt><trkpt lat="42.78050361042283" lon="10.37426559402471"><ele>242.4</ele><time>2026-04-25T10:24:55.938Z</time></trkpt><trkpt lat="42.78053419647415" lon="10.374140552802736"><ele>241.2</ele><time>2026-04-25T10:24:56.937Z</time></trkpt><trkpt lat="42.7805594615564" lon="10.374012707698462"><ele>240.0</ele><time>2026-04-25T10:24:57.937Z</time></trkpt><trkpt lat="42.7805639540684" lon="10.373889234733051"><ele>238.33333333333334</ele><time>2026-04-25T10:24:58.937Z</time></trkpt><trkpt lat="42.78056224710448" lon="10.373760954866336"><ele>236.66666666666669</ele><time>2026-04-25T10:24:59.937Z</time></trkpt><trkpt lat="42.78055695753813" lon="10.373638494444469"><ele>235.0</ele><time>2026-04-25T10:25:00.937Z</time></trkpt><trkpt lat="42.78055156876302" lon="10.373516788894223"><ele>233.33333333333334</ele><time>2026-04-25T10:25:01.937Z</time></trkpt><trkpt lat="42.780539897951854" lon="10.373403850266516"><ele>231.66666666666669</ele><time>2026-04-25T10:25:02.937Z</time></trkpt><trkpt lat="42.7805354341311" lon="10.373284983997516"><ele>230.0</ele><time>2026-04-25T10:25:03.937Z</time></trkpt><trkpt lat="42.7805388080612" lon="10.373165818041421"><ele>230.00000000000003</ele><time>2026-04-25T10:25:04.937Z</time></trkpt><trkpt lat="42.780538595708265" lon="10.37305630211177"><ele>230.0</ele><time>2026-04-25T10:25:05.937Z</time></trkpt><trkpt lat="42.78052983155994" lon="10.372940686776102"><ele>230.0</ele><time>2026-04-25T10:25:06.937Z</time></trkpt><trkpt lat="42.78050082713376" lon="10.372841186941674"><ele>230.0</ele><time>2026-04-25T10:25:07.937Z</time></trkpt><trkpt lat="42.78046203032752" lon="10.372746772216951"><ele>230.00000000000003</ele><time>2026-04-25T10:25:08.937Z</time></trkpt><trkpt lat="42.78040083502747" lon="10.372652856753593"><ele>230.0</ele><time>2026-04-25T10:25:09.937Z</time></trkpt><trkpt lat="42.78033361828139" lon="10.372577463746314"><ele>227.66666666666669</ele><time>2026-04-25T10:25:10.937Z</time></trkpt><trkpt lat="42.78026566206371" lon="10.372512643822098"><ele>225.33333333333334</ele><time>2026-04-25T10:25:11.937Z</time></trkpt><trkpt lat="42.7802003315775" lon="10.372452186468795"><ele>223.0</ele><time>2026-04-25T10:25:12.937Z</time></trkpt><trkpt lat="42.78013531846578" lon="10.372373673316194"><ele>220.66666666666669</ele><time>2026-04-25T10:25:13.937Z</time></trkpt><trkpt lat="42.78008118408467" lon="10.372299073949026"><ele>218.33333333333334</ele><time>2026-04-25T10:25:14.937Z</time></trkpt><trkpt lat="42.780040559915406" lon="10.37221765010294"><ele>216.0</ele><time>2026-04-25T10:25:15.937Z</time></trkpt><trkpt lat="42.78002207923796" lon="10.372130974322356"><ele>213.66666666666666</ele><time>2026-04-25T10:25:16.937Z</time></trkpt><trkpt lat="42.7800172807926" lon="10.372037032157543"><ele>211.33333333333331</ele><time>2026-04-25T10:25:17.937Z</time></trkpt><trkpt lat="42.7800244575986" lon="10.371941052111563"><ele>209.0</ele><time>2026-04-25T10:25:18.937Z</time></trkpt><trkpt lat="42.78004430343343" lon="10.371847108713975"><ele>206.66666666666666</ele><time>2026-04-25T10:25:19.937Z</time></trkpt><trkpt lat="42.7800623381697" lon="10.371759760920554"><ele>204.33333333333331</ele><time>2026-04-25T10:25:20.937Z</time></trkpt><trkpt lat="42.78006095128628" lon="10.371619286507027"><ele>202.0</ele><time>2026-04-25T10:25:22.938Z</time></trkpt><trkpt lat="42.780006517971906" lon="10.371467623498837"><ele>201.99999999999997</ele><time>2026-04-25T10:25:24.939Z</time></trkpt><trkpt lat="42.7799745661625" lon="10.371386796581623"><ele>202.0</ele><time>2026-04-25T10:25:25.938Z</time></trkpt><trkpt lat="42.779943239224096" lon="10.371298318697734"><ele>202.0</ele><time>2026-04-25T10:25:26.938Z</time></trkpt><trkpt lat="42.77987646816637" lon="10.371148899494022"><ele>202.0</ele><time>2026-04-25T10:25:28.938Z</time></trkpt><trkpt lat="42.77984818142498" lon="10.371068960507856"><ele>201.99999999999997</ele><time>2026-04-25T10:25:29.938Z</time></trkpt><trkpt lat="42.77982324531893" lon="10.370989787710476"><ele>202.0</ele><time>2026-04-25T10:25:30.938Z</time></trkpt><trkpt lat="42.77980191924409" lon="10.370907094921698"><ele>200.39999999999998</ele><time>2026-04-25T10:25:31.938Z</time></trkpt><trkpt lat="42.77973685666718" lon="10.370774367776054"><ele>198.79999999999998</ele><time>2026-04-25T10:25:33.938Z</time></trkpt><trkpt lat="42.779664036818666" lon="10.370675497033774"><ele>197.2</ele><time>2026-04-25T10:25:35.938Z</time></trkpt><trkpt lat="42.77961517004797" lon="10.370574777590132"><ele>195.6</ele><time>2026-04-25T10:25:37.938Z</time></trkpt><trkpt lat="42.77956733444828" lon="10.370504247751704"><ele>194.0</ele><time>2026-04-25T10:25:39.938Z</time></trkpt><trkpt lat="42.77951322595814" lon="10.370429998607369"><ele>192.2</ele><time>2026-04-25T10:25:41.938Z</time></trkpt><trkpt lat="42.77946430363956" lon="10.370306717654444"><ele>190.39999999999998</ele><time>2026-04-25T10:25:43.938Z</time></trkpt><trkpt lat="42.779433336107175" lon="10.370196026819153"><ele>188.6</ele><time>2026-04-25T10:25:45.938Z</time></trkpt><trkpt lat="42.77936999391746" lon="10.370111066291324"><ele>186.8</ele><time>2026-04-25T10:25:47.938Z</time></trkpt><trkpt lat="42.779321143488964" lon="10.370050294358489"><ele>185.0</ele><time>2026-04-25T10:25:48.938Z</time></trkpt><trkpt lat="42.77924897916783" lon="10.369944011135354"><ele>185.0</ele><time>2026-04-25T10:25:50.938Z</time></trkpt><trkpt lat="42.77917679502043" lon="10.369800607834689"><ele>185.0</ele><time>2026-04-25T10:25:52.938Z</time></trkpt><trkpt lat="42.77909828649917" lon="10.369670575661031"><ele>185.0</ele><time>2026-04-25T10:25:54.938Z</time></trkpt><trkpt lat="42.77903718276203" lon="10.369512784621909"><ele>185.0</ele><time>2026-04-25T10:25:56.938Z</time></trkpt><trkpt lat="42.77901168085721" lon="10.36942932479991"><ele>185.0</ele><time>2026-04-25T10:25:57.938Z</time></trkpt><trkpt lat="42.77899077697481" lon="10.369341560534554"><ele>184.33333333333331</ele><time>2026-04-25T10:25:58.938Z</time></trkpt><trkpt lat="42.7789702269666" lon="10.369246653940264"><ele>183.66666666666666</ele><time>2026-04-25T10:25:59.938Z</time></trkpt><trkpt lat="42.77895478735577" lon="10.369153898655366"><ele>183.0</ele><time>2026-04-25T10:26:00.938Z</time></trkpt><trkpt lat="42.77893639935764" lon="10.369069038118718"><ele>182.33333333333334</ele><time>2026-04-25T10:26:01.938Z</time></trkpt><trkpt lat="42.77888852936591" lon="10.368939617610048"><ele>181.66666666666669</ele><time>2026-04-25T10:26:03.938Z</time></trkpt><trkpt lat="42.77882331031267" lon="10.368827915515459"><ele>181.0</ele><time>2026-04-25T10:26:05.937Z</time></trkpt><trkpt lat="42.77874214226183" lon="10.368711736993452"><ele>178.20000000000002</ele><time>2026-04-25T10:26:07.937Z</time></trkpt><trkpt lat="42.77867276923835" lon="10.368594585468038"><ele>175.4</ele><time>2026-04-25T10:26:09.937Z</time></trkpt><trkpt lat="42.77860196363144" lon="10.368490159857911"><ele>172.6</ele><time>2026-04-25T10:26:11.937Z</time></trkpt><trkpt lat="42.7785352839442" lon="10.36837494906324"><ele>169.8</ele><time>2026-04-25T10:26:13.937Z</time></trkpt><trkpt lat="42.7784903693309" lon="10.368243641270462"><ele>167.0</ele><time>2026-04-25T10:26:15.937Z</time></trkpt><trkpt lat="42.77844613852678" lon="10.368124923309681"><ele>165.8</ele><time>2026-04-25T10:26:17.937Z</time></trkpt><trkpt lat="42.77838687882219" lon="10.367997227450939"><ele>164.6</ele><time>2026-04-25T10:26:19.937Z</time></trkpt><trkpt lat="42.77833153279703" lon="10.36788093504383"><ele>163.4</ele><time>2026-04-25T10:26:21.937Z</time></trkpt><trkpt lat="42.77828603734865" lon="10.367754707014754"><ele>162.20000000000002</ele><time>2026-04-25T10:26:23.937Z</time></trkpt><trkpt lat="42.77824041277504" lon="10.36763494315738"><ele>161.0</ele><time>2026-04-25T10:26:25.937Z</time></trkpt><trkpt lat="42.77819512522344" lon="10.367542089930867"><ele>161.0</ele><time>2026-04-25T10:26:27.937Z</time></trkpt><trkpt lat="42.778137472667595" lon="10.367460551882838"><ele>161.0</ele><time>2026-04-25T10:26:29.937Z</time></trkpt><trkpt lat="42.778093155357325" lon="10.367341290235846"><ele>161.0</ele><time>2026-04-25T10:26:31.937Z</time></trkpt><trkpt lat="42.77804802372054" lon="10.36723576206104"><ele>161.0</ele><time>2026-04-25T10:26:33.937Z</time></trkpt><trkpt lat="42.77801177968519" lon="10.367125414688592"><ele>161.0</ele><time>2026-04-25T10:26:35.937Z</time></trkpt><trkpt lat="42.77795566795403" lon="10.366984836603287"><ele>159.16666666666666</ele><time>2026-04-25T10:26:37.937Z</time></trkpt><trkpt lat="42.77790448770099" lon="10.36692466765617"><ele>157.33333333333331</ele><time>2026-04-25T10:26:38.937Z</time></trkpt><trkpt lat="42.777872640183574" lon="10.366847518657314"><ele>155.5</ele><time>2026-04-25T10:26:39.937Z</time></trkpt><trkpt lat="42.77782006853904" lon="10.366757921706565"><ele>153.66666666666666</ele><time>2026-04-25T10:26:41.937Z</time></trkpt><trkpt lat="42.77773615695064" lon="10.36673301565494"><ele>151.83333333333334</ele><time>2026-04-25T10:26:44.937Z</time></trkpt><trkpt lat="42.77766660548046" lon="10.3666675662753"><ele>150.0</ele><time>2026-04-25T10:26:46.937Z</time></trkpt><trkpt lat="42.77758362572155" lon="10.366620952915133"><ele>149.33333333333334</ele><time>2026-04-25T10:26:48.937Z</time></trkpt><trkpt lat="42.7775057023253" lon="10.366598615259997"><ele>148.66666666666666</ele><time>2026-04-25T10:26:50.937Z</time></trkpt><trkpt lat="42.77743641711412" lon="10.366507040118428"><ele>148.0</ele><time>2026-04-25T10:26:52.937Z</time></trkpt><trkpt lat="42.77738931484964" lon="10.366447373672752"><ele>147.33333333333331</ele><time>2026-04-25T10:26:54.936Z</time></trkpt><trkpt lat="42.77733467796624" lon="10.366392255359438"><ele>146.66666666666666</ele><time>2026-04-25T10:26:56.936Z</time></trkpt><trkpt lat="42.77727827642108" lon="10.36632458212582"><ele>146.0</ele><time>2026-04-25T10:26:58.936Z</time></trkpt><trkpt lat="42.777210893028474" lon="10.366259649890372"><ele>144.0</ele><time>2026-04-25T10:27:01.936Z</time></trkpt><trkpt lat="42.777160012392365" lon="10.366201689106232"><ele>142.0</ele><time>2026-04-25T10:27:03.936Z</time></trkpt><trkpt lat="42.7770969695023" lon="10.36613823119862"><ele>140.0</ele><time>2026-04-25T10:27:06.936Z</time></trkpt><trkpt lat="42.77703156350111" lon="10.366061704649505"><ele>138.0</ele><time>2026-04-25T10:27:09.936Z</time></trkpt><trkpt lat="42.7769920558992" lon="10.365987798455738"><ele>136.0</ele><time>2026-04-25T10:27:11.936Z</time></trkpt><trkpt lat="42.77691361384177" lon="10.365929238922458"><ele>134.0</ele><time>2026-04-25T10:27:13.936Z</time></trkpt><trkpt lat="42.776833258687255" lon="10.365849178865114"><ele>131.4</ele><time>2026-04-25T10:27:15.936Z</time></trkpt><trkpt lat="42.77675456354041" lon="10.365765373100457"><ele>128.8</ele><time>2026-04-25T10:27:17.936Z</time></trkpt><trkpt lat="42.77667194865355" lon="10.36569291651917"><ele>126.19999999999999</ele><time>2026-04-25T10:27:19.936Z</time></trkpt><trkpt lat="42.77658607879557" lon="10.36559540779001"><ele>123.6</ele><time>2026-04-25T10:27:21.936Z</time></trkpt><trkpt lat="42.776508584807" lon="10.365537341122538"><ele>121.0</ele><time>2026-04-25T10:27:23.936Z</time></trkpt><trkpt lat="42.77641534200242" lon="10.365510093335937"><ele>118.4</ele><time>2026-04-25T10:27:25.936Z</time></trkpt><trkpt lat="42.776326264725526" lon="10.365469979899599"><ele>115.8</ele><time>2026-04-25T10:27:27.938Z</time></trkpt><trkpt lat="42.776263931412245" lon="10.365375992119992"><ele>113.20000000000002</ele><time>2026-04-25T10:27:29.937Z</time></trkpt><trkpt lat="42.7761935598237" lon="10.365281920351862"><ele>110.60000000000001</ele><time>2026-04-25T10:27:31.937Z</time></trkpt><trkpt lat="42.77612173301021" lon="10.365197997498193"><ele>108.0</ele><time>2026-04-25T10:27:33.939Z</time></trkpt><trkpt lat="42.776043215040644" lon="10.365122641962747"><ele>107.80000000000001</ele><time>2026-04-25T10:27:35.94Z</time></trkpt><trkpt lat="42.775944740593" lon="10.365055299549496"><ele>107.60000000000001</ele><time>2026-04-25T10:27:37.941Z</time></trkpt><trkpt lat="42.775829734359185" lon="10.365028236880155"><ele>107.39999999999999</ele><time>2026-04-25T10:27:39.942Z</time></trkpt><trkpt lat="42.775741273626146" lon="10.364969512179531"><ele>107.19999999999999</ele><time>2026-04-25T10:27:41.943Z</time></trkpt><trkpt lat="42.775685306367016" lon="10.364912776796146"><ele>107.0</ele><time>2026-04-25T10:27:42.943Z</time></trkpt><trkpt lat="42.77561480442035" lon="10.364852759788091"><ele>106.99999999999999</ele><time>2026-04-25T10:27:43.943Z</time></trkpt><trkpt lat="42.77553152986424" lon="10.364778308928607"><ele>107.0</ele><time>2026-04-25T10:27:44.944Z</time></trkpt><trkpt lat="42.775456753933035" lon="10.364702586679753"><ele>107.0</ele><time>2026-04-25T10:27:45.944Z</time></trkpt><trkpt lat="42.77538565152986" lon="10.364631513309266"><ele>107.0</ele><time>2026-04-25T10:27:46.944Z</time></trkpt><trkpt lat="42.775317949747894" lon="10.364554755720796"><ele>106.99999999999999</ele><time>2026-04-25T10:27:47.945Z</time></trkpt><trkpt lat="42.775258338652655" lon="10.364492444490187"><ele>107.0</ele><time>2026-04-25T10:27:48.945Z</time></trkpt><trkpt lat="42.775209245753324" lon="10.36442820413185"><ele>104.16666666666666</ele><time>2026-04-25T10:27:49.945Z</time></trkpt><trkpt lat="42.7751586558797" lon="10.364370150268002"><ele>101.33333333333333</ele><time>2026-04-25T10:27:50.945Z</time></trkpt><trkpt lat="42.775074231971956" lon="10.364302328995986"><ele>98.5</ele><time>2026-04-25T10:27:52.946Z</time></trkpt><trkpt lat="42.77496515794669" lon="10.364207298314476"><ele>95.66666666666666</ele><time>2026-04-25T10:27:54.946Z</time></trkpt><trkpt lat="42.77490360732796" lon="10.364165440212115"><ele>92.83333333333333</ele><time>2026-04-25T10:27:55.946Z</time></trkpt><trkpt lat="42.77483726293091" lon="10.36411682869727"><ele>90.0</ele><time>2026-04-25T10:27:56.946Z</time></trkpt><trkpt lat="42.77476537118446" lon="10.36407040417801"><ele>90.0</ele><time>2026-04-25T10:27:57.947Z</time></trkpt><trkpt lat="42.77467742735942" lon="10.364019271231747"><ele>90.0</ele><time>2026-04-25T10:27:58.947Z</time></trkpt><trkpt lat="42.7745931266754" lon="10.363978203570458"><ele>90.0</ele><time>2026-04-25T10:27:59.947Z</time></trkpt><trkpt lat="42.77449508898986" lon="10.363928370331482"><ele>90.0</ele><time>2026-04-25T10:28:00.947Z</time></trkpt><trkpt lat="42.77439679219095" lon="10.363872796100207"><ele>90.0</ele><time>2026-04-25T10:28:01.947Z</time></trkpt><trkpt lat="42.774304584183504" lon="10.363815272182105"><ele>88.16666666666667</ele><time>2026-04-25T10:28:02.947Z</time></trkpt><trkpt lat="42.77422258519934" lon="10.363758841036754"><ele>86.33333333333333</ele><time>2026-04-25T10:28:03.947Z</time></trkpt><trkpt lat="42.77414939936604" lon="10.363701329292526"><ele>84.5</ele><time>2026-04-25T10:28:04.947Z</time></trkpt><trkpt lat="42.77406756292169" lon="10.363655587082198"><ele>82.66666666666666</ele><time>2026-04-25T10:28:05.947Z</time></trkpt><trkpt lat="42.773998705673655" lon="10.363616879392673"><ele>80.83333333333333</ele><time>2026-04-25T10:28:06.947Z</time></trkpt><trkpt lat="42.77393673013332" lon="10.363583473944255"><ele>79.0</ele><time>2026-04-25T10:28:07.948Z</time></trkpt><trkpt lat="42.77387115278093" lon="10.363531323329454"><ele>79.0</ele><time>2026-04-25T10:28:08.948Z</time></trkpt><trkpt lat="42.773805381485865" lon="10.363492284547574"><ele>79.0</ele><time>2026-04-25T10:28:09.948Z</time></trkpt><trkpt lat="42.77374781696945" lon="10.363445344225692"><ele>79.0</ele><time>2026-04-25T10:28:10.948Z</time></trkpt><trkpt lat="42.77369085258591" lon="10.363386389340008"><ele>79.0</ele><time>2026-04-25T10:28:11.948Z</time></trkpt><trkpt lat="42.77362957017553" lon="10.36332857321392"><ele>79.0</ele><time>2026-04-25T10:28:12.948Z</time></trkpt><trkpt lat="42.77356280734181" lon="10.363261433475206"><ele>79.0</ele><time>2026-04-25T10:28:13.948Z</time></trkpt><trkpt lat="42.77347779614358" lon="10.363177339857522"><ele>77.66666666666666</ele><time>2026-04-25T10:28:15.948Z</time></trkpt><trkpt lat="42.77344152109823" lon="10.3630947353777"><ele>76.33333333333333</ele><time>2026-04-25T10:28:19.948Z</time></trkpt><trkpt lat="42.77350291605403" lon="10.363039474319352"><ele>75.0</ele><time>2026-04-25T10:28:22.948Z</time></trkpt><trkpt lat="42.77355255646716" lon="10.362977119669997"><ele>73.66666666666667</ele><time>2026-04-25T10:28:26.948Z</time></trkpt><trkpt lat="42.773610690484304" lon="10.362876499100247"><ele>72.33333333333334</ele><time>2026-04-25T10:28:29.948Z</time></trkpt><trkpt lat="42.77364826380817" lon="10.362792858478764"><ele>71.0</ele><time>2026-04-25T10:28:31.948Z</time></trkpt><trkpt lat="42.77368198816765" lon="10.362696176954302"><ele>70.0</ele><time>2026-04-25T10:28:33.948Z</time></trkpt><trkpt lat="42.77375660859434" lon="10.36258325103208"><ele>69.0</ele><time>2026-04-25T10:28:35.948Z</time></trkpt><trkpt lat="42.773843075826825" lon="10.362465246967467"><ele>68.0</ele><time>2026-04-25T10:28:37.948Z</time></trkpt><trkpt lat="42.773888234225254" lon="10.3624024507381"><ele>67.0</ele><time>2026-04-25T10:28:38.948Z</time></trkpt><trkpt lat="42.773932787685844" lon="10.362332532258103"><ele>66.0</ele><time>2026-04-25T10:28:39.948Z</time></trkpt><trkpt lat="42.77397593961523" lon="10.362250238560609"><ele>65.0</ele><time>2026-04-25T10:28:40.948Z</time></trkpt><trkpt lat="42.77402514989175" lon="10.362155790348206"><ele>62.8</ele><time>2026-04-25T10:28:41.948Z</time></trkpt><trkpt lat="42.77407365932961" lon="10.362058000200276"><ele>60.6</ele><time>2026-04-25T10:28:42.948Z</time></trkpt><trkpt lat="42.774134229559074" lon="10.36195809290727"><ele>58.400000000000006</ele><time>2026-04-25T10:28:43.948Z</time></trkpt><trkpt lat="42.774193564254716" lon="10.36186015888277"><ele>56.2</ele><time>2026-04-25T10:28:44.948Z</time></trkpt><trkpt lat="42.77425306246552" lon="10.361764194312691"><ele>54.0</ele><time>2026-04-25T10:28:45.948Z</time></trkpt><trkpt lat="42.774301317195096" lon="10.361656276781135"><ele>54.0</ele><time>2026-04-25T10:28:46.948Z</time></trkpt><trkpt lat="42.77434548448473" lon="10.361552846791913"><ele>54.0</ele><time>2026-04-25T10:28:47.948Z</time></trkpt><trkpt lat="42.77439770573403" lon="10.361459543098421"><ele>54.0</ele><time>2026-04-25T10:28:48.948Z</time></trkpt><trkpt lat="42.77445098875098" lon="10.361365753933496"><ele>54.0</ele><time>2026-04-25T10:28:49.948Z</time></trkpt><trkpt lat="42.774508607144234" lon="10.361278947211911"><ele>54.0</ele><time>2026-04-25T10:28:50.948Z</time></trkpt><trkpt lat="42.77455155908561" lon="10.361195383657012"><ele>54.0</ele><time>2026-04-25T10:28:51.948Z</time></trkpt><trkpt lat="42.77458061319841" lon="10.3610995353692"><ele>52.166666666666664</ele><time>2026-04-25T10:28:52.948Z</time></trkpt><trkpt lat="42.77460390480591" lon="10.360998869974175"><ele>50.333333333333336</ele><time>2026-04-25T10:28:53.948Z</time></trkpt><trkpt lat="42.77463504708462" lon="10.360905257137153"><ele>48.5</ele><time>2026-04-25T10:28:54.948Z</time></trkpt><trkpt lat="42.77465188248151" lon="10.360797239124587"><ele>46.66666666666667</ele><time>2026-04-25T10:28:55.948Z</time></trkpt><trkpt lat="42.77467709309216" lon="10.360710508935632"><ele>44.833333333333336</ele><time>2026-04-25T10:28:56.948Z</time></trkpt><trkpt lat="42.77471324152216" lon="10.360558062547662"><ele>43.0</ele><time>2026-04-25T10:28:58.948Z</time></trkpt><trkpt lat="42.77472444449246" lon="10.360461178531931"><ele>42.16666666666667</ele><time>2026-04-25T10:28:59.948Z</time></trkpt><trkpt lat="42.7747188395084" lon="10.36036458791179"><ele>41.333333333333336</ele><time>2026-04-25T10:29:00.948Z</time></trkpt><trkpt lat="42.77470758604602" lon="10.360268956779974"><ele>40.5</ele><time>2026-04-25T10:29:01.948Z</time></trkpt><trkpt lat="42.77469648995926" lon="10.360180288892533"><ele>39.666666666666664</ele><time>2026-04-25T10:29:02.948Z</time></trkpt><trkpt lat="42.77469762601955" lon="10.360078695923436"><ele>38.83333333333333</ele><time>2026-04-25T10:29:03.948Z</time></trkpt><trkpt lat="42.77469880681244" lon="10.359986927007244"><ele>38.0</ele><time>2026-04-25T10:29:04.948Z</time></trkpt><trkpt lat="42.77469186170275" lon="10.359832675085803"><ele>38.0</ele><time>2026-04-25T10:29:06.948Z</time></trkpt><trkpt lat="42.77474110762944" lon="10.35975408353659"><ele>38.0</ele><time>2026-04-25T10:29:08.948Z</time></trkpt><trkpt lat="42.774807696303114" lon="10.359684053909119"><ele>38.0</ele><time>2026-04-25T10:29:10.948Z</time></trkpt><trkpt lat="42.77481830980309" lon="10.359540349592631"><ele>38.0</ele><time>2026-04-25T10:29:13.948Z</time></trkpt><trkpt lat="42.774811755280645" lon="10.359446890930293"><ele>38.0</ele><time>2026-04-25T10:29:14.948Z</time></trkpt><trkpt lat="42.77480465493463" lon="10.359292957880669"><ele>38.0</ele><time>2026-04-25T10:29:16.948Z</time></trkpt><trkpt lat="42.77483159552097" lon="10.359201001428866"><ele>38.25</ele><time>2026-04-25T10:29:18.947Z</time></trkpt><trkpt lat="42.77491027995169" lon="10.35908591621052"><ele>38.5</ele><time>2026-04-25T10:29:20.947Z</time></trkpt><trkpt lat="42.77498283707661" lon="10.359008911832454"><ele>38.75</ele><time>2026-04-25T10:29:22.947Z</time></trkpt><trkpt lat="42.775140714141706" lon="10.359035034518955"><ele>39.0</ele><time>2026-04-25T10:29:24.947Z</time></trkpt><trkpt lat="42.775233391434334" lon="10.359063631420618"><ele>39.0</ele><time>2026-04-25T10:29:25.947Z</time></trkpt><trkpt lat="42.77530559151957" lon="10.359072233656637"><ele>39.0</ele><time>2026-04-25T10:29:26.947Z</time></trkpt><trkpt lat="42.7753906370549" lon="10.358991402642252"><ele>39.0</ele><time>2026-04-25T10:29:28.947Z</time></trkpt><trkpt lat="42.77542206427989" lon="10.358902146013442"><ele>39.0</ele><time>2026-04-25T10:29:29.947Z</time></trkpt><trkpt lat="42.77547154090998" lon="10.358747050651909"><ele>39.0</ele><time>2026-04-25T10:29:31.947Z</time></trkpt><trkpt lat="42.77552215457729" lon="10.35862023986514"><ele>38.142857142857146</ele><time>2026-04-25T10:29:33.949Z</time></trkpt><trkpt lat="42.77557080714063" lon="10.358506669808753"><ele>37.285714285714285</ele><time>2026-04-25T10:29:35.949Z</time></trkpt><trkpt lat="42.77560290178268" lon="10.358429745793222"><ele>36.42857142857143</ele><time>2026-04-25T10:29:36.949Z</time></trkpt><trkpt lat="42.77563524128435" lon="10.358355651052726"><ele>35.57142857142857</ele><time>2026-04-25T10:29:37.949Z</time></trkpt><trkpt lat="42.775675245689776" lon="10.358280917594895"><ele>34.714285714285715</ele><time>2026-04-25T10:29:38.949Z</time></trkpt><trkpt lat="42.77571894088898" lon="10.358205615686986"><ele>33.857142857142854</ele><time>2026-04-25T10:29:39.949Z</time></trkpt><trkpt lat="42.77576838767573" lon="10.358112881639665"><ele>33.0</ele><time>2026-04-25T10:29:40.949Z</time></trkpt><trkpt lat="42.77580956495488" lon="10.358024899351687"><ele>32.833333333333336</ele><time>2026-04-25T10:29:41.949Z</time></trkpt><trkpt lat="42.77584612814793" lon="10.35793675892923"><ele>32.666666666666664</ele><time>2026-04-25T10:29:42.95Z</time></trkpt><trkpt lat="42.775885418531956" lon="10.357849106621579"><ele>32.5</ele><time>2026-04-25T10:29:43.949Z</time></trkpt><trkpt lat="42.77592679142785" lon="10.357760147006557"><ele>32.33333333333333</ele><time>2026-04-25T10:29:44.949Z</time></trkpt><trkpt lat="42.77595541810303" lon="10.35767471759517"><ele>32.166666666666664</ele><time>2026-04-25T10:29:45.949Z</time></trkpt><trkpt lat="42.77597895564915" lon="10.357583718646985"><ele>32.0</ele><time>2026-04-25T10:29:46.949Z</time></trkpt><trkpt lat="42.775978771016966" lon="10.35741218999447"><ele>32.0</ele><time>2026-04-25T10:29:48.949Z</time></trkpt><trkpt lat="42.77595956677526" lon="10.35732496941771"><ele>31.999999999999996</ele><time>2026-04-25T10:29:49.949Z</time></trkpt><trkpt lat="42.77592052390296" lon="10.3572377941581"><ele>32.0</ele><time>2026-04-25T10:29:50.949Z</time></trkpt><trkpt lat="42.775872506010366" lon="10.357163103432447"><ele>32.0</ele><time>2026-04-25T10:29:51.949Z</time></trkpt><trkpt lat="42.775813919588984" lon="10.357105975012887"><ele>31.999999999999996</ele><time>2026-04-25T10:29:52.949Z</time></trkpt><trkpt lat="42.775756923626595" lon="10.357054761679441"><ele>32.0</ele><time>2026-04-25T10:29:53.949Z</time></trkpt><trkpt lat="42.775697970969176" lon="10.356995878442632"><ele>32.0</ele><time>2026-04-25T10:29:54.949Z</time></trkpt><trkpt lat="42.77563775197737" lon="10.356938597913036"><ele>33.166666666666664</ele><time>2026-04-25T10:29:55.949Z</time></trkpt><trkpt lat="42.77557865513804" lon="10.356886707728558"><ele>34.33333333333333</ele><time>2026-04-25T10:29:56.949Z</time></trkpt><trkpt lat="42.775520547718486" lon="10.356840095293496"><ele>35.5</ele><time>2026-04-25T10:29:57.949Z</time></trkpt><trkpt lat="42.77546327074963" lon="10.356796033594287"><ele>36.666666666666664</ele><time>2026-04-25T10:29:58.949Z</time></trkpt><trkpt lat="42.775371560910074" lon="10.356700042866573"><ele>37.833333333333336</ele><time>2026-04-25T10:30:00.949Z</time></trkpt><trkpt lat="42.7753648146914" lon="10.356602909154052"><ele>39.0</ele><time>2026-04-25T10:30:02.949Z</time></trkpt><trkpt lat="42.775438168622905" lon="10.35650170396571"><ele>39.0</ele><time>2026-04-25T10:30:04.949Z</time></trkpt><trkpt lat="42.77548864436415" lon="10.356428775936534"><ele>39.0</ele><time>2026-04-25T10:30:05.949Z</time></trkpt><trkpt lat="42.775537259369884" lon="10.356355886879944"><ele>39.0</ele><time>2026-04-25T10:30:06.949Z</time></trkpt><trkpt lat="42.77557893647253" lon="10.356289433945282"><ele>39.0</ele><time>2026-04-25T10:30:07.949Z</time></trkpt><trkpt lat="42.775631746548534" lon="10.356183972545736"><ele>39.0</ele><time>2026-04-25T10:30:09.949Z</time></trkpt><trkpt lat="42.77571383197142" lon="10.35616399631716"><ele>39.0</ele><time>2026-04-25T10:30:11.949Z</time></trkpt><trkpt lat="42.775781963300005" lon="10.356189552630141"><ele>40.333333333333336</ele><time>2026-04-25T10:30:12.949Z</time></trkpt><trkpt lat="42.77586392312903" lon="10.356201756541644"><ele>41.666666666666664</ele><time>2026-04-25T10:30:13.949Z</time></trkpt><trkpt lat="42.77594515438426" lon="10.356213408677252"><ele>43.0</ele><time>2026-04-25T10:30:14.949Z</time></trkpt><trkpt lat="42.776029478453225" lon="10.356234417726496"><ele>44.33333333333333</ele><time>2026-04-25T10:30:15.949Z</time></trkpt><trkpt lat="42.776115839279804" lon="10.356266285110472"><ele>45.666666666666664</ele><time>2026-04-25T10:30:16.949Z</time></trkpt><trkpt lat="42.77620145763153" lon="10.356295244151202"><ele>47.0</ele><time>2026-04-25T10:30:17.949Z</time></trkpt><trkpt lat="42.77628448029962" lon="10.356325475109669"><ele>46.666666666666664</ele><time>2026-04-25T10:30:18.949Z</time></trkpt><trkpt lat="42.776376308791384" lon="10.356358274663117"><ele>46.33333333333333</ele><time>2026-04-25T10:30:19.949Z</time></trkpt><trkpt lat="42.776453852805155" lon="10.356382444460905"><ele>46.0</ele><time>2026-04-25T10:30:20.949Z</time></trkpt><trkpt lat="42.77653247238924" lon="10.356408146576362"><ele>45.666666666666664</ele><time>2026-04-25T10:30:21.949Z</time></trkpt><trkpt lat="42.776609390891856" lon="10.356437456507111"><ele>45.333333333333336</ele><time>2026-04-25T10:30:22.949Z</time></trkpt><trkpt lat="42.776691276098056" lon="10.356466468490758"><ele>45.0</ele><time>2026-04-25T10:30:23.949Z</time></trkpt><trkpt lat="42.776775310531015" lon="10.356491970381557"><ele>46.0</ele><time>2026-04-25T10:30:24.949Z</time></trkpt><trkpt lat="42.77686300725124" lon="10.35652648583702"><ele>47.0</ele><time>2026-04-25T10:30:25.948Z</time></trkpt><trkpt lat="42.776952258795944" lon="10.35654610314746"><ele>48.0</ele><time>2026-04-25T10:30:26.948Z</time></trkpt><trkpt lat="42.77703682759661" lon="10.356571309270617"><ele>49.0</ele><time>2026-04-25T10:30:27.948Z</time></trkpt><trkpt lat="42.777130875162484" lon="10.356584042547722"><ele>50.0</ele><time>2026-04-25T10:30:28.948Z</time></trkpt><trkpt lat="42.7772343662591" lon="10.35660074438408"><ele>50.0</ele><time>2026-04-25T10:30:29.948Z</time></trkpt><trkpt lat="42.7773318809076" lon="10.356620881643735"><ele>50.0</ele><time>2026-04-25T10:30:30.948Z</time></trkpt><trkpt lat="42.77742224914728" lon="10.356640766788379"><ele>50.0</ele><time>2026-04-25T10:30:31.948Z</time></trkpt><trkpt lat="42.77751034628376" lon="10.356667387722435"><ele>50.0</ele><time>2026-04-25T10:30:32.948Z</time></trkpt><trkpt lat="42.77759424410965" lon="10.356690954283522"><ele>50.0</ele><time>2026-04-25T10:30:33.948Z</time></trkpt><trkpt lat="42.77768528400242" lon="10.35671733250269"><ele>52.4</ele><time>2026-04-25T10:30:34.948Z</time></trkpt><trkpt lat="42.77778217137129" lon="10.356755482833558"><ele>54.8</ele><time>2026-04-25T10:30:35.948Z</time></trkpt><trkpt lat="42.777872498845475" lon="10.356796769951918"><ele>57.2</ele><time>2026-04-25T10:30:36.948Z</time></trkpt><trkpt lat="42.77796325750414" lon="10.356829912071822"><ele>59.6</ele><time>2026-04-25T10:30:37.948Z</time></trkpt><trkpt lat="42.77804698862871" lon="10.35686432432128"><ele>62.0</ele><time>2026-04-25T10:30:38.948Z</time></trkpt><trkpt lat="42.77812515589742" lon="10.356889549014712"><ele>62.00000000000001</ele><time>2026-04-25T10:30:39.948Z</time></trkpt><trkpt lat="42.77819403950077" lon="10.356908452520761"><ele>62.0</ele><time>2026-04-25T10:30:40.948Z</time></trkpt><trkpt lat="42.77825411510695" lon="10.356947777265713"><ele>62.0</ele><time>2026-04-25T10:30:41.948Z</time></trkpt><trkpt lat="42.778303743943546" lon="10.357061957355821"><ele>62.0</ele><time>2026-04-25T10:30:43.948Z</time></trkpt><trkpt lat="42.778296543804274" lon="10.357148931712343"><ele>62.00000000000001</ele><time>2026-04-25T10:30:44.948Z</time></trkpt><trkpt lat="42.7782933048339" lon="10.357275431626444"><ele>62.0</ele><time>2026-04-25T10:30:45.948Z</time></trkpt><trkpt lat="42.77830496729107" lon="10.357417772693502"><ele>62.0</ele><time>2026-04-25T10:30:46.948Z</time></trkpt><trkpt lat="42.77833540099831" lon="10.357535659586182"><ele>62.0</ele><time>2026-04-25T10:30:47.948Z</time></trkpt><trkpt lat="42.7783829652392" lon="10.357634089720008"><ele>62.0</ele><time>2026-04-25T10:30:48.948Z</time></trkpt><trkpt lat="42.778459296435344" lon="10.357730239356183"><ele>62.0</ele><time>2026-04-25T10:30:49.948Z</time></trkpt><trkpt lat="42.77855516611477" lon="10.35783083747352"><ele>62.0</ele><time>2026-04-25T10:30:50.948Z</time></trkpt><trkpt lat="42.77863194228989" lon="10.357929746293323"><ele>62.00000000000001</ele><time>2026-04-25T10:30:51.948Z</time></trkpt><trkpt lat="42.778692145319965" lon="10.358012327200914"><ele>62.0</ele><time>2026-04-25T10:30:52.948Z</time></trkpt><trkpt lat="42.77873773531092" lon="10.35807522896803"><ele>62.0</ele><time>2026-04-25T10:30:53.948Z</time></trkpt><trkpt lat="42.77879227412214" lon="10.358156723278416"><ele>62.0</ele><time>2026-04-25T10:30:55.948Z</time></trkpt><trkpt lat="42.77883814621615" lon="10.358081972657896"><ele>62.00000000000001</ele><time>2026-04-25T10:30:58.948Z</time></trkpt><trkpt lat="42.77882122478823" lon="10.357891561316142"><ele>62.0</ele><time>2026-04-25T10:31:00.948Z</time></trkpt><trkpt lat="42.778818977582084" lon="10.35777982017097"><ele>62.0</ele><time>2026-04-25T10:31:01.948Z</time></trkpt><trkpt lat="42.77882376682063" lon="10.357665277117302"><ele>62.0</ele><time>2026-04-25T10:31:02.948Z</time></trkpt><trkpt lat="42.778826035460156" lon="10.357564764376741"><ele>62.0</ele><time>2026-04-25T10:31:03.948Z</time></trkpt><trkpt lat="42.778820117706495" lon="10.357420664966364"><ele>62.0</ele><time>2026-04-25T10:31:05.948Z</time></trkpt><trkpt lat="42.77881863512983" lon="10.357281844095954"><ele>62.0</ele><time>2026-04-25T10:31:07.948Z</time></trkpt><trkpt lat="42.778811243162075" lon="10.357136372140467"><ele>62.16666666666667</ele><time>2026-04-25T10:31:09.948Z</time></trkpt><trkpt lat="42.77881405275815" lon="10.35701871197282"><ele>62.333333333333336</ele><time>2026-04-25T10:31:11.948Z</time></trkpt><trkpt lat="42.77886228959099" lon="10.356944950961347"><ele>62.5</ele><time>2026-04-25T10:31:13.948Z</time></trkpt><trkpt lat="42.778954063053" lon="10.356951465052708"><ele>62.66666666666667</ele><time>2026-04-25T10:31:15.948Z</time></trkpt><trkpt lat="42.77902008918335" lon="10.35697012833328"><ele>62.833333333333336</ele><time>2026-04-25T10:31:16.948Z</time></trkpt><trkpt lat="42.779145849047964" lon="10.356983671344992"><ele>63.0</ele><time>2026-04-25T10:31:18.948Z</time></trkpt><trkpt lat="42.77922061300985" lon="10.356995876311354"><ele>63.0</ele><time>2026-04-25T10:31:19.948Z</time></trkpt><trkpt lat="42.77929327144307" lon="10.357001935260692"><ele>63.0</ele><time>2026-04-25T10:31:20.948Z</time></trkpt><trkpt lat="42.77937595668846" lon="10.35702797711181"><ele>63.0</ele><time>2026-04-25T10:31:22.947Z</time></trkpt><trkpt lat="42.77945623093618" lon="10.357008692426104"><ele>63.0</ele><time>2026-04-25T10:31:25.947Z</time></trkpt><trkpt lat="42.779465482870314" lon="10.356853022893956"><ele>63.0</ele><time>2026-04-25T10:31:28.947Z</time></trkpt><trkpt lat="42.77946190191026" lon="10.356765557166764"><ele>63.0</ele><time>2026-04-25T10:31:29.947Z</time></trkpt><trkpt lat="42.779467490158176" lon="10.356663908764137"><ele>60.2</ele><time>2026-04-25T10:31:30.947Z</time></trkpt><trkpt lat="42.77947399089346" lon="10.356504874853272"><ele>57.4</ele><time>2026-04-25T10:31:32.947Z</time></trkpt><trkpt lat="42.77947227949226" lon="10.35634258514667"><ele>54.6</ele><time>2026-04-25T10:31:34.947Z</time></trkpt><trkpt lat="42.77946786439227" lon="10.356251307399729"><ele>51.800000000000004</ele><time>2026-04-25T10:31:35.947Z</time></trkpt><trkpt lat="42.779463551579695" lon="10.356161002033454"><ele>49.0</ele><time>2026-04-25T10:31:36.947Z</time></trkpt><trkpt lat="42.77945958738022" lon="10.356029068571502"><ele>48.6</ele><time>2026-04-25T10:31:38.947Z</time></trkpt><trkpt lat="42.779469627722214" lon="10.355896143254878"><ele>48.2</ele><time>2026-04-25T10:31:40.949Z</time></trkpt><trkpt lat="42.77946551935726" lon="10.355733511533565"><ele>47.800000000000004</ele><time>2026-04-25T10:31:42.949Z</time></trkpt><trkpt lat="42.77946405779425" lon="10.35558144631776"><ele>47.400000000000006</ele><time>2026-04-25T10:31:44.949Z</time></trkpt><trkpt lat="42.77947888489449" lon="10.355432007225653"><ele>47.0</ele><time>2026-04-25T10:31:46.949Z</time></trkpt><trkpt lat="42.77949129808288" lon="10.355302780782674"><ele>46.8</ele><time>2026-04-25T10:31:48.949Z</time></trkpt><trkpt lat="42.77949276748584" lon="10.35517786823481"><ele>46.6</ele><time>2026-04-25T10:31:50.948Z</time></trkpt><trkpt lat="42.779506962739624" lon="10.355049547963215"><ele>46.4</ele><time>2026-04-25T10:31:52.949Z</time></trkpt><trkpt lat="42.77950997809904" lon="10.354948250842181"><ele>46.199999999999996</ele><time>2026-04-25T10:31:53.949Z</time></trkpt><trkpt lat="42.779504187938265" lon="10.354817186203967"><ele>46.0</ele><time>2026-04-25T10:31:54.949Z</time></trkpt><trkpt lat="42.779492675363194" lon="10.354653348675596"><ele>45.66666666666667</ele><time>2026-04-25T10:31:55.949Z</time></trkpt><trkpt lat="42.77949294020222" lon="10.354523746464988"><ele>45.333333333333336</ele><time>2026-04-25T10:31:56.949Z</time></trkpt><trkpt lat="42.77948384733145" lon="10.354404650463662"><ele>45.0</ele><time>2026-04-25T10:31:57.949Z</time></trkpt><trkpt lat="42.779482886379" lon="10.354289324309566"><ele>44.666666666666664</ele><time>2026-04-25T10:31:58.949Z</time></trkpt><trkpt lat="42.77949072552029" lon="10.35418097114784"><ele>44.33333333333333</ele><time>2026-04-25T10:31:59.948Z</time></trkpt><trkpt lat="42.77949959945556" lon="10.35408251254846"><ele>44.0</ele><time>2026-04-25T10:32:00.948Z</time></trkpt><trkpt lat="42.779511529232906" lon="10.353989287548275"><ele>43.666666666666664</ele><time>2026-04-25T10:32:01.948Z</time></trkpt><trkpt lat="42.7795697362145" lon="10.353838275487796"><ele>43.33333333333333</ele><time>2026-04-25T10:32:03.948Z</time></trkpt><trkpt lat="42.779631477188055" lon="10.353775995045192"><ele>43.0</ele><time>2026-04-25T10:32:04.948Z</time></trkpt><trkpt lat="42.77968897549648" lon="10.353735714142777"><ele>42.666666666666664</ele><time>2026-04-25T10:32:05.948Z</time></trkpt><trkpt lat="42.77974430041775" lon="10.353685765807084"><ele>42.333333333333336</ele><time>2026-04-25T10:32:06.948Z</time></trkpt><trkpt lat="42.77979199219203" lon="10.353626541953155"><ele>42.0</ele><time>2026-04-25T10:32:07.948Z</time></trkpt><trkpt lat="42.779877435974264" lon="10.353509615721517"><ele>42.0</ele><time>2026-04-25T10:32:09.948Z</time></trkpt><trkpt lat="42.77992914174325" lon="10.353414333731331"><ele>42.0</ele><time>2026-04-25T10:32:11.948Z</time></trkpt><trkpt lat="42.77994895856756" lon="10.353244799913345"><ele>42.0</ele><time>2026-04-25T10:32:13.948Z</time></trkpt><trkpt lat="42.77997425091153" lon="10.353074759473412"><ele>42.0</ele><time>2026-04-25T10:32:14.948Z</time></trkpt><trkpt lat="42.77999428899433" lon="10.352889472826126"><ele>41.8</ele><time>2026-04-25T10:32:15.948Z</time></trkpt><trkpt lat="42.780013113293755" lon="10.35274906868168"><ele>41.6</ele><time>2026-04-25T10:32:16.948Z</time></trkpt><trkpt lat="42.78003903041971" lon="10.352628881964678"><ele>41.4</ele><time>2026-04-25T10:32:17.948Z</time></trkpt><trkpt lat="42.78006826118627" lon="10.35252344817629"><ele>41.199999999999996</ele><time>2026-04-25T10:32:18.948Z</time></trkpt><trkpt lat="42.78010701155672" lon="10.352421601957689"><ele>41.0</ele><time>2026-04-25T10:32:19.948Z</time></trkpt><trkpt lat="42.78015957588317" lon="10.352301702793232"><ele>42.4</ele><time>2026-04-25T10:32:20.948Z</time></trkpt><trkpt lat="42.780202115713244" lon="10.352169113946596"><ele>43.8</ele><time>2026-04-25T10:32:21.948Z</time></trkpt><trkpt lat="42.78023930094857" lon="10.352068075757167"><ele>45.199999999999996</ele><time>2026-04-25T10:32:22.948Z</time></trkpt><trkpt lat="42.78029701573099" lon="10.35197342873881"><ele>46.599999999999994</ele><time>2026-04-25T10:32:23.948Z</time></trkpt><trkpt lat="42.78034651631417" lon="10.351898136136207"><ele>48.0</ele><time>2026-04-25T10:32:24.948Z</time></trkpt><trkpt lat="42.78044340673017" lon="10.351827755165084"><ele>48.0</ele><time>2026-04-25T10:32:26.948Z</time></trkpt><trkpt lat="42.78052097309642" lon="10.351791729178245"><ele>48.0</ele><time>2026-04-25T10:32:27.948Z</time></trkpt><trkpt lat="42.78063031952727" lon="10.351811606497492"><ele>48.0</ele><time>2026-04-25T10:32:29.948Z</time></trkpt><trkpt lat="42.78075282419077" lon="10.35189556341556"><ele>48.0</ele><time>2026-04-25T10:32:31.948Z</time></trkpt><trkpt lat="42.78084119926677" lon="10.351975726753142"><ele>48.0</ele><time>2026-04-25T10:32:32.948Z</time></trkpt><trkpt lat="42.78093733022479" lon="10.35204764701998"><ele>48.833333333333336</ele><time>2026-04-25T10:32:33.948Z</time></trkpt><trkpt lat="42.78102730205171" lon="10.35210759792998"><ele>49.66666666666667</ele><time>2026-04-25T10:32:34.948Z</time></trkpt><trkpt lat="42.781114317584056" lon="10.352171997993446"><ele>50.5</ele><time>2026-04-25T10:32:35.948Z</time></trkpt><trkpt lat="42.781183446243034" lon="10.352213749445367"><ele>51.333333333333336</ele><time>2026-04-25T10:32:36.948Z</time></trkpt><trkpt lat="42.78125332128354" lon="10.35224006049057"><ele>52.16666666666667</ele><time>2026-04-25T10:32:37.948Z</time></trkpt><trkpt lat="42.7813119170365" lon="10.352278387686672"><ele>53.0</ele><time>2026-04-25T10:32:38.948Z</time></trkpt><trkpt lat="42.78137184254208" lon="10.352313245666696"><ele>53.00000000000001</ele><time>2026-04-25T10:32:39.948Z</time></trkpt><trkpt lat="42.78143303154275" lon="10.352352509522571"><ele>53.0</ele><time>2026-04-25T10:32:40.948Z</time></trkpt><trkpt lat="42.78151442587542" lon="10.35236792784711"><ele>53.0</ele><time>2026-04-25T10:32:42.948Z</time></trkpt><trkpt lat="42.78158971902847" lon="10.352325607846295"><ele>53.0</ele><time>2026-04-25T10:32:44.948Z</time></trkpt><trkpt lat="42.78166750017223" lon="10.35226760673422"><ele>53.00000000000001</ele><time>2026-04-25T10:32:46.948Z</time></trkpt><trkpt lat="42.7817355695525" lon="10.352239370290064"><ele>53.0</ele><time>2026-04-25T10:32:47.948Z</time></trkpt><trkpt lat="42.78179255321928" lon="10.35215364536832"><ele>53.833333333333336</ele><time>2026-04-25T10:32:49.948Z</time></trkpt><trkpt lat="42.78183245608715" lon="10.352068295151112"><ele>54.66666666666667</ele><time>2026-04-25T10:32:51.948Z</time></trkpt><trkpt lat="42.781890526916" lon="10.351961220966803"><ele>55.5</ele><time>2026-04-25T10:32:53.948Z</time></trkpt><trkpt lat="42.781969032370114" lon="10.351857165082935"><ele>56.33333333333333</ele><time>2026-04-25T10:32:55.947Z</time></trkpt><trkpt lat="42.78199943966951" lon="10.351774095519888"><ele>57.166666666666664</ele><time>2026-04-25T10:32:57.947Z</time></trkpt><trkpt lat="42.781988485151054" lon="10.351667622882275"><ele>58.0</ele><time>2026-04-25T10:32:59.947Z</time></trkpt><trkpt lat="42.781893561165845" lon="10.351553395992324"><ele>58.0</ele><time>2026-04-25T10:33:01.947Z</time></trkpt><trkpt lat="42.781834964988" lon="10.351517348109304"><ele>58.0</ele><time>2026-04-25T10:33:02.947Z</time></trkpt><trkpt lat="42.78172358943883" lon="10.351402514641444"><ele>58.0</ele><time>2026-04-25T10:33:04.947Z</time></trkpt><trkpt lat="42.78165899190938" lon="10.351340396703746"><ele>58.0</ele><time>2026-04-25T10:33:05.947Z</time></trkpt><trkpt lat="42.7815952437858" lon="10.351283809031711"><ele>58.0</ele><time>2026-04-25T10:33:06.947Z</time></trkpt><trkpt lat="42.781508983849754" lon="10.351189414089323"><ele>59.71428571428572</ele><time>2026-04-25T10:33:08.947Z</time></trkpt><trkpt lat="42.78147565645019" lon="10.351099360863246"><ele>61.42857142857143</ele><time>2026-04-25T10:33:10.947Z</time></trkpt><trkpt lat="42.781536435396234" lon="10.351066176996127"><ele>63.142857142857146</ele><time>2026-04-25T10:33:13.947Z</time></trkpt><trkpt lat="42.78160135297856" lon="10.35110330485458"><ele>64.85714285714286</ele><time>2026-04-25T10:33:15.947Z</time></trkpt><trkpt lat="42.781682495103574" lon="10.351127524339356"><ele>66.57142857142857</ele><time>2026-04-25T10:33:18.947Z</time></trkpt><trkpt lat="42.78174512905879" lon="10.351150435204628"><ele>68.28571428571429</ele><time>2026-04-25T10:33:21.947Z</time></trkpt><trkpt lat="42.78180548226103" lon="10.351179185175626"><ele>70.0</ele><time>2026-04-25T10:33:51.948Z</time></trkpt><trkpt lat="42.781866067190435" lon="10.351229307506207"><ele>69.66666666666666</ele><time>2026-04-25T10:33:53.948Z</time></trkpt><trkpt lat="42.78195773849475" lon="10.351341761966165"><ele>69.33333333333333</ele><time>2026-04-25T10:33:55.948Z</time></trkpt><trkpt lat="42.78201367132439" lon="10.351385216914004"><ele>69.0</ele><time>2026-04-25T10:33:56.948Z</time></trkpt><trkpt lat="42.782086064100625" lon="10.351442603482877"><ele>68.66666666666667</ele><time>2026-04-25T10:33:57.949Z</time></trkpt><trkpt lat="42.78216216916608" lon="10.351477543440973"><ele>68.33333333333334</ele><time>2026-04-25T10:33:58.948Z</time></trkpt><trkpt lat="42.7822237418742" lon="10.351555957834286"><ele>68.0</ele><time>2026-04-25T10:33:59.948Z</time></trkpt><trkpt lat="42.782280714438784" lon="10.351614228686362"><ele>68.0</ele><time>2026-04-25T10:34:00.948Z</time></trkpt><trkpt lat="42.78237132111073" lon="10.351720461044064"><ele>68.0</ele><time>2026-04-25T10:34:02.948Z</time></trkpt><trkpt lat="42.78243194393728" lon="10.351815426168296"><ele>68.0</ele><time>2026-04-25T10:34:04.948Z</time></trkpt><trkpt lat="42.782615677862005" lon="10.351816807033286"><ele>68.0</ele><time>2026-04-25T10:34:06.948Z</time></trkpt><trkpt lat="42.782698598382936" lon="10.351803283211193"><ele>67.83333333333334</ele><time>2026-04-25T10:34:07.948Z</time></trkpt><trkpt lat="42.78278198125745" lon="10.351764946139873"><ele>67.66666666666667</ele><time>2026-04-25T10:34:08.948Z</time></trkpt><trkpt lat="42.78286472738003" lon="10.351729598229893"><ele>67.5</ele><time>2026-04-25T10:34:09.948Z</time></trkpt><trkpt lat="42.782948064347366" lon="10.351699311319082"><ele>67.33333333333333</ele><time>2026-04-25T10:34:10.948Z</time></trkpt><trkpt lat="42.78301565487732" lon="10.351659084494617"><ele>67.16666666666666</ele><time>2026-04-25T10:34:11.948Z</time></trkpt><trkpt lat="42.78308771988216" lon="10.351657380522253"><ele>67.0</ele><time>2026-04-25T10:34:12.948Z</time></trkpt><trkpt lat="42.783151702810805" lon="10.351629357959466"><ele>67.0</ele><time>2026-04-25T10:34:13.948Z</time></trkpt><trkpt lat="42.78322975127138" lon="10.351584168719162"><ele>67.0</ele><time>2026-04-25T10:34:14.948Z</time></trkpt><trkpt lat="42.78328326018366" lon="10.351529111992518"><ele>67.0</ele><time>2026-04-25T10:34:15.948Z</time></trkpt><trkpt lat="42.783376566308306" lon="10.35150571295548"><ele>67.0</ele><time>2026-04-25T10:34:16.948Z</time></trkpt><trkpt lat="42.78347458815378" lon="10.351477590426347"><ele>67.0</ele><time>2026-04-25T10:34:17.948Z</time></trkpt><trkpt lat="42.783546712590635" lon="10.351435755652716"><ele>67.0</ele><time>2026-04-25T10:34:18.948Z</time></trkpt><trkpt lat="42.783618704039434" lon="10.351428716772904"><ele>67.2</ele><time>2026-04-25T10:34:19.948Z</time></trkpt><trkpt lat="42.78368228161446" lon="10.351370437910559"><ele>67.4</ele><time>2026-04-25T10:34:20.948Z</time></trkpt><trkpt lat="42.783751882961724" lon="10.351305389611438"><ele>67.6</ele><time>2026-04-25T10:34:21.948Z</time></trkpt><trkpt lat="42.783833360704" lon="10.351205052726288"><ele>67.8</ele><time>2026-04-25T10:34:23.947Z</time></trkpt><trkpt lat="42.783961365280796" lon="10.351152867276902"><ele>68.0</ele><time>2026-04-25T10:34:25.947Z</time></trkpt><trkpt lat="42.784046560511555" lon="10.351074891114981"><ele>68.0</ele><time>2026-04-25T10:34:26.947Z</time></trkpt><trkpt lat="42.78414537887748" lon="10.350995328328136"><ele>68.0</ele><time>2026-04-25T10:34:27.947Z</time></trkpt><trkpt lat="42.78424316694773" lon="10.350926001731949"><ele>68.0</ele><time>2026-04-25T10:34:28.947Z</time></trkpt><trkpt lat="42.784312511731" lon="10.350879225776762"><ele>68.0</ele><time>2026-04-25T10:34:29.947Z</time></trkpt><trkpt lat="42.78438981738564" lon="10.350803741017053"><ele>68.0</ele><time>2026-04-25T10:34:31.947Z</time></trkpt><trkpt lat="42.784456443104396" lon="10.350785697430178"><ele>68.0</ele><time>2026-04-25T10:34:32.947Z</time></trkpt><trkpt lat="42.78452591526831" lon="10.3507161833325"><ele>68.0</ele><time>2026-04-25T10:34:33.947Z</time></trkpt><trkpt lat="42.78462734408459" lon="10.350621145968045"><ele>68.0</ele><time>2026-04-25T10:34:34.947Z</time></trkpt><trkpt lat="42.78470388827845" lon="10.35056871850637"><ele>68.0</ele><time>2026-04-25T10:34:35.947Z</time></trkpt><trkpt lat="42.784782758581784" lon="10.35049091753836"><ele>68.0</ele><time>2026-04-25T10:34:36.947Z</time></trkpt><trkpt lat="42.784857128338764" lon="10.35043993128706"><ele>68.0</ele><time>2026-04-25T10:34:37.947Z</time></trkpt><trkpt lat="42.78494077968816" lon="10.350364063052254"><ele>68.0</ele><time>2026-04-25T10:34:38.947Z</time></trkpt><trkpt lat="42.78505581623686" lon="10.350297360935565"><ele>68.0</ele><time>2026-04-25T10:34:39.947Z</time></trkpt><trkpt lat="42.78513726029251" lon="10.350224129602813"><ele>68.0</ele><time>2026-04-25T10:34:40.947Z</time></trkpt><trkpt lat="42.78520276375985" lon="10.35016916123081"><ele>68.0</ele><time>2026-04-25T10:34:41.947Z</time></trkpt><trkpt lat="42.78525704787028" lon="10.350110234221193"><ele>66.16666666666667</ele><time>2026-04-25T10:34:42.947Z</time></trkpt><trkpt lat="42.785320240844705" lon="10.350041855987241"><ele>64.33333333333334</ele><time>2026-04-25T10:34:43.947Z</time></trkpt><trkpt lat="42.785402248644495" lon="10.349955587172326"><ele>62.5</ele><time>2026-04-25T10:34:44.947Z</time></trkpt><trkpt lat="42.78549672642549" lon="10.349889411071983"><ele>60.66666666666667</ele><time>2026-04-25T10:34:45.947Z</time></trkpt><trkpt lat="42.78555754991731" lon="10.34982661206435"><ele>58.833333333333336</ele><time>2026-04-25T10:34:46.947Z</time></trkpt><trkpt lat="42.785623727307694" lon="10.349777770542296"><ele>57.0</ele><time>2026-04-25T10:34:47.947Z</time></trkpt><trkpt lat="42.78574001527434" lon="10.349678768483981"><ele>57.0</ele><time>2026-04-25T10:34:49.947Z</time></trkpt><trkpt lat="42.78582126860188" lon="10.349595080254145"><ele>57.0</ele><time>2026-04-25T10:34:51.947Z</time></trkpt><trkpt lat="42.78588800283338" lon="10.349562768776723"><ele>57.0</ele><time>2026-04-25T10:34:52.947Z</time></trkpt><trkpt lat="42.78595546954688" lon="10.349506379504312"><ele>57.0</ele><time>2026-04-25T10:34:53.947Z</time></trkpt><trkpt lat="42.78602858845318" lon="10.349436342331318"><ele>57.0</ele><time>2026-04-25T10:34:54.947Z</time></trkpt><trkpt lat="42.78611009831055" lon="10.34937553174443"><ele>57.0</ele><time>2026-04-25T10:34:55.947Z</time></trkpt><trkpt lat="42.786188995647166" lon="10.349264240776778"><ele>53.0</ele><time>2026-04-25T10:34:57.947Z</time></trkpt><trkpt lat="42.78623872866179" lon="10.349208791277773"><ele>49.0</ele><time>2026-04-25T10:34:58.947Z</time></trkpt><trkpt lat="42.7863213105908" lon="10.349166133671005"><ele>45.0</ele><time>2026-04-25T10:35:00.947Z</time></trkpt><trkpt lat="42.786437352943764" lon="10.349071318248118"><ele>41.0</ele><time>2026-04-25T10:35:02.947Z</time></trkpt><trkpt lat="42.78652617936805" lon="10.348972910099508"><ele>37.0</ele><time>2026-04-25T10:35:03.947Z</time></trkpt><trkpt lat="42.78661604495742" lon="10.348912731376855"><ele>36.333333333333336</ele><time>2026-04-25T10:35:04.947Z</time></trkpt><trkpt lat="42.78669120355898" lon="10.348851202289474"><ele>35.666666666666664</ele><time>2026-04-25T10:35:05.947Z</time></trkpt><trkpt lat="42.78680377400962" lon="10.348746913750029"><ele>35.0</ele><time>2026-04-25T10:35:07.947Z</time></trkpt><trkpt lat="42.78705279051644" lon="10.34870534309029"><ele>31.8</ele><time>2026-04-25T10:35:10.947Z</time></trkpt><trkpt lat="42.787143838465525" lon="10.34863935513908"><ele>28.6</ele><time>2026-04-25T10:35:11.947Z</time></trkpt><trkpt lat="42.787247817221264" lon="10.348620034512184"><ele>25.4</ele><time>2026-04-25T10:35:12.947Z</time></trkpt><trkpt lat="42.78735968715644" lon="10.34860891618029"><ele>22.2</ele><time>2026-04-25T10:35:13.947Z</time></trkpt><trkpt lat="42.78748628214202" lon="10.348599651553565"><ele>19.0</ele><time>2026-04-25T10:35:14.947Z</time></trkpt><trkpt lat="42.78759425447305" lon="10.348609292449344"><ele>17.833333333333332</ele><time>2026-04-25T10:35:15.947Z</time></trkpt><trkpt lat="42.78767884733043" lon="10.348615344472611"><ele>16.666666666666664</ele><time>2026-04-25T10:35:16.947Z</time></trkpt><trkpt lat="42.78774668776809" lon="10.348609124491087"><ele>15.5</ele><time>2026-04-25T10:35:17.947Z</time></trkpt><trkpt lat="42.787861509272076" lon="10.348589975826531"><ele>14.333333333333332</ele><time>2026-04-25T10:35:19.946Z</time></trkpt><trkpt lat="42.78789673498858" lon="10.348516117556978"><ele>13.166666666666666</ele><time>2026-04-25T10:35:21.946Z</time></trkpt><trkpt lat="42.78794188589571" lon="10.348397996560067"><ele>12.0</ele><time>2026-04-25T10:35:23.946Z</time></trkpt><trkpt lat="42.78797197888518" lon="10.348261542245694"><ele>12.0</ele><time>2026-04-25T10:35:24.946Z</time></trkpt><trkpt lat="42.78800698148642" lon="10.348087989869327"><ele>12.0</ele><time>2026-04-25T10:35:25.946Z</time></trkpt><trkpt lat="42.78805203631917" lon="10.347958611068321"><ele>12.0</ele><time>2026-04-25T10:35:26.946Z</time></trkpt><trkpt lat="42.7880992555605" lon="10.347836065579797"><ele>12.0</ele><time>2026-04-25T10:35:27.946Z</time></trkpt><trkpt lat="42.78814660823871" lon="10.347722453161877"><ele>12.0</ele><time>2026-04-25T10:35:28.946Z</time></trkpt><trkpt lat="42.78817171628509" lon="10.347617115154197"><ele>12.0</ele><time>2026-04-25T10:35:29.946Z</time></trkpt><trkpt lat="42.78820949186165" lon="10.34751169127685"><ele>12.0</ele><time>2026-04-25T10:35:30.946Z</time></trkpt><trkpt lat="42.78823845015409" lon="10.347405573743462"><ele>12.0</ele><time>2026-04-25T10:35:31.946Z</time></trkpt><trkpt lat="42.78826368221958" lon="10.347309207899372"><ele>12.0</ele><time>2026-04-25T10:35:32.946Z</time></trkpt><trkpt lat="42.788285748075985" lon="10.347207239382609"><ele>12.0</ele><time>2026-04-25T10:35:33.946Z</time></trkpt><trkpt lat="42.78830666784515" lon="10.3471127176228"><ele>12.0</ele><time>2026-04-25T10:35:34.946Z</time></trkpt><trkpt lat="42.788335550221305" lon="10.347012066062572"><ele>12.428571428571427</ele><time>2026-04-25T10:35:35.946Z</time></trkpt><trkpt lat="42.78836067468178" lon="10.34691164855454"><ele>12.857142857142858</ele><time>2026-04-25T10:35:36.946Z</time></trkpt><trkpt lat="42.78838355663394" lon="10.346815168286708"><ele>13.285714285714285</ele><time>2026-04-25T10:35:37.946Z</time></trkpt><trkpt lat="42.78840762752262" lon="10.346721577060157"><ele>13.714285714285714</ele><time>2026-04-25T10:35:38.946Z</time></trkpt><trkpt lat="42.788429398677735" lon="10.346617105532276"><ele>14.142857142857142</ele><time>2026-04-25T10:35:39.946Z</time></trkpt><trkpt lat="42.78844259863808" lon="10.346526920258412"><ele>14.571428571428571</ele><time>2026-04-25T10:35:40.946Z</time></trkpt><trkpt lat="42.78845479133811" lon="10.346438290108075"><ele>15.0</ele><time>2026-04-25T10:35:41.946Z</time></trkpt><trkpt lat="42.78847389649046" lon="10.346285427233372"><ele>15.0</ele><time>2026-04-25T10:35:43.946Z</time></trkpt><trkpt lat="42.78850842327476" lon="10.346157731283723"><ele>15.0</ele><time>2026-04-25T10:35:45.946Z</time></trkpt><trkpt lat="42.78854382000375" lon="10.346084907822963"><ele>15.0</ele><time>2026-04-25T10:35:47.946Z</time></trkpt><trkpt lat="42.78858529621589" lon="10.346005835967805"><ele>15.0</ele><time>2026-04-25T10:35:51.948Z</time></trkpt><trkpt lat="42.78851839185721" lon="10.345871697266597"><ele>15.0</ele><time>2026-04-25T10:35:54.948Z</time></trkpt><trkpt lat="42.78845452534227" lon="10.345790676426828"><ele>15.0</ele><time>2026-04-25T10:35:55.948Z</time></trkpt><trkpt lat="42.78830303273262" lon="10.345663285413877"><ele>15.5</ele><time>2026-04-25T10:35:56.948Z</time></trkpt><trkpt lat="42.78813841876196" lon="10.345562686423715"><ele>16.0</ele><time>2026-04-25T10:35:57.948Z</time></trkpt><trkpt lat="42.788034577386455" lon="10.345475267176003"><ele>16.5</ele><time>2026-04-25T10:35:58.948Z</time></trkpt><trkpt lat="42.78796939379755" lon="10.345425612343885"><ele>17.0</ele><time>2026-04-25T10:35:59.948Z</time></trkpt><trkpt lat="42.78795615843999" lon="10.345327314721834"><ele>17.333333333333336</ele><time>2026-04-25T10:36:02.948Z</time></trkpt><trkpt lat="42.78798478163629" lon="10.345202045189003"><ele>17.666666666666668</ele><time>2026-04-25T10:36:05.948Z</time></trkpt><trkpt lat="42.78803266900291" lon="10.345115159476716"><ele>18.0</ele><time>2026-04-25T10:36:06.948Z</time></trkpt><trkpt lat="42.78808427669019" lon="10.345022956668634"><ele>18.333333333333332</ele><time>2026-04-25T10:36:07.948Z</time></trkpt><trkpt lat="42.78813508329908" lon="10.344931620430792"><ele>18.666666666666664</ele><time>2026-04-25T10:36:08.948Z</time></trkpt><trkpt lat="42.788173278166376" lon="10.344854294224545"><ele>19.0</ele><time>2026-04-25T10:36:09.948Z</time></trkpt><trkpt lat="42.788216762635095" lon="10.344772429081862"><ele>19.0</ele><time>2026-04-25T10:36:11.947Z</time></trkpt><trkpt lat="42.78828962725093" lon="10.344733581199709"><ele>19.0</ele><time>2026-04-25T10:36:14.947Z</time></trkpt><trkpt lat="42.78836065124988" lon="10.344735233483233"><ele>19.0</ele><time>2026-04-25T10:37:07.946Z</time></trkpt><trkpt lat="42.788413996396834" lon="10.34468274604741"><ele>19.0</ele><time>2026-04-25T10:49:14.958Z</time></trkpt><trkpt lat="42.78845241634833" lon="10.344607515591685"><ele>19.0</ele><time>2026-04-25T10:49:21.958Z</time></trkpt><trkpt lat="42.78850258296887" lon="10.34454335152148"><ele>19.0</ele><time>2026-04-25T10:49:27.958Z</time></trkpt><trkpt lat="42.78854277377295" lon="10.34447303784047"><ele>19.0</ele><time>2026-04-25T10:49:35.957Z</time></trkpt><trkpt lat="42.78848523914327" lon="10.344575303824888"><ele>19.0</ele><time>2026-04-25T10:53:36.958Z</time></trkpt><trkpt lat="42.78844110257711" lon="10.344642434176334"><ele>19.0</ele><time>2026-04-25T10:53:41.958Z</time></trkpt><trkpt lat="42.78839639671686" lon="10.34471356709364"><ele>19.0</ele><time>2026-04-25T10:53:46.958Z</time></trkpt><trkpt lat="42.788416510451256" lon="10.344628797948602"><ele>19.0</ele><time>2026-04-25T10:55:21.957Z</time></trkpt><trkpt lat="42.788462056209916" lon="10.3445492541595"><ele>19.0</ele><time>2026-04-25T10:55:27.957Z</time></trkpt><trkpt lat="42.78850627234107" lon="10.344478849773813"><ele>19.0</ele><time>2026-04-25T10:55:33.957Z</time></trkpt><trkpt lat="42.78854083604251" lon="10.344397038812916"><ele>19.0</ele><time>2026-04-25T10:55:39.957Z</time></trkpt><trkpt lat="42.78853954736874" lon="10.344484575430945"><ele>19.0</ele><time>2026-04-25T10:56:36.956Z</time></trkpt><trkpt lat="42.78849359195746" lon="10.344567289439729"><ele>19.0</ele><time>2026-04-25T10:56:42.956Z</time></trkpt><trkpt lat="42.78845054186937" lon="10.34463150981378"><ele>19.0</ele><time>2026-04-25T10:56:47.956Z</time></trkpt><trkpt lat="42.78841582267667" lon="10.344706568416013"><ele>19.0</ele><time>2026-04-25T10:56:52.957Z</time></trkpt><trkpt lat="42.788374597583335" lon="10.344779782231903"><ele>19.0</ele><time>2026-04-25T10:56:58.958Z</time></trkpt><trkpt lat="42.78838549362453" lon="10.344679398708934"><ele>19.0</ele><time>2026-04-25T10:59:17.912Z</time></trkpt><trkpt lat="42.78842633429021" lon="10.344603423856295"><ele>19.0</ele><time>2026-04-25T10:59:23.911Z</time></trkpt><trkpt lat="42.78847141645119" lon="10.344540551229555"><ele>18.857142857142858</ele><time>2026-04-25T10:59:28.911Z</time></trkpt><trkpt lat="42.788513863779144" lon="10.344462375320623"><ele>18.714285714285715</ele><time>2026-04-25T10:59:38.911Z</time></trkpt><trkpt lat="42.788560222602484" lon="10.34439695896553"><ele>18.571428571428573</ele><time>2026-04-25T10:59:47.911Z</time></trkpt><trkpt lat="42.788569173171105" lon="10.344492007213438"><ele>18.42857142857143</ele><time>2026-04-25T11:49:06.886Z</time></trkpt><trkpt lat="42.788619664212064" lon="10.344423310807894"><ele>18.285714285714285</ele><time>2026-04-25T12:42:20.905Z</time></trkpt><trkpt lat="42.788591972648476" lon="10.344500526165445"><ele>18.142857142857146</ele><time>2026-04-25T12:44:43.921Z</time></trkpt><trkpt lat="42.78851785991304" lon="10.344502580252085"><ele>18.0</ele><time>2026-04-25T12:44:51.925Z</time></trkpt><trkpt lat="42.788470076690224" lon="10.34458927210397"><ele>18.142857142857146</ele><time>2026-04-25T12:44:59.928Z</time></trkpt><trkpt lat="42.788418284878425" lon="10.344652088401963"><ele>18.285714285714285</ele><time>2026-04-25T12:45:05.93Z</time></trkpt><trkpt lat="42.78836717857414" lon="10.344712232618985"><ele>18.42857142857143</ele><time>2026-04-25T12:45:11.931Z</time></trkpt><trkpt lat="42.788305721368886" lon="10.344675355200142"><ele>18.571428571428573</ele><time>2026-04-25T12:53:24.935Z</time></trkpt><trkpt lat="42.78822016192977" lon="10.344750081502736"><ele>18.714285714285715</ele><time>2026-04-25T12:53:27.935Z</time></trkpt><trkpt lat="42.78817780891184" lon="10.34482759967305"><ele>18.857142857142858</ele><time>2026-04-25T12:53:28.935Z</time></trkpt><trkpt lat="42.78814063446727" lon="10.34489794288886"><ele>19.0</ele><time>2026-04-25T12:53:29.935Z</time></trkpt><trkpt lat="42.78806622805881" lon="10.345013504049636"><ele>19.0</ele><time>2026-04-25T12:53:31.935Z</time></trkpt><trkpt lat="42.78801853848287" lon="10.345102117330436"><ele>19.0</ele><time>2026-04-25T12:53:33.934Z</time></trkpt><trkpt lat="42.78797594270683" lon="10.345167106597154"><ele>19.0</ele><time>2026-04-25T12:53:36.934Z</time></trkpt><trkpt lat="42.78794970316118" lon="10.345258640819484"><ele>19.0</ele><time>2026-04-25T12:54:12.934Z</time></trkpt><trkpt lat="42.78796671560315" lon="10.345356248269221"><ele>19.0</ele><time>2026-04-25T12:54:15.934Z</time></trkpt><trkpt lat="42.78805524317267" lon="10.345436072570633"><ele>19.0</ele><time>2026-04-25T12:54:17.934Z</time></trkpt><trkpt lat="42.78811619445613" lon="10.345465031206738"><ele>19.0</ele><time>2026-04-25T12:54:18.934Z</time></trkpt><trkpt lat="42.788182695875754" lon="10.345513449418615"><ele>19.0</ele><time>2026-04-25T12:54:19.934Z</time></trkpt><trkpt lat="42.78824659135688" lon="10.34554770953332"><ele>19.0</ele><time>2026-04-25T12:54:20.934Z</time></trkpt><trkpt lat="42.78834991196321" lon="10.345615330840564"><ele>19.0</ele><time>2026-04-25T12:54:22.934Z</time></trkpt><trkpt lat="42.78840350153082" lon="10.34574352344749"><ele>19.0</ele><time>2026-04-25T12:54:23.934Z</time></trkpt><trkpt lat="42.78850142740141" lon="10.345753372971325"><ele>18.333333333333332</ele><time>2026-04-25T12:54:24.936Z</time></trkpt><trkpt lat="42.7885755401651" lon="10.345818164623376"><ele>17.666666666666664</ele><time>2026-04-25T12:54:25.936Z</time></trkpt><trkpt lat="42.78864621778242" lon="10.345875611710415"><ele>17.0</ele><time>2026-04-25T12:54:26.936Z</time></trkpt><trkpt lat="42.78870543028991" lon="10.345930023333327"><ele>16.333333333333332</ele><time>2026-04-25T12:54:27.936Z</time></trkpt><trkpt lat="42.78877261195765" lon="10.345978373348158"><ele>15.666666666666666</ele><time>2026-04-25T12:54:28.936Z</time></trkpt><trkpt lat="42.78884931001991" lon="10.346039264544789"><ele>15.0</ele><time>2026-04-25T12:54:29.936Z</time></trkpt><trkpt lat="42.78892428756424" lon="10.346098138185813"><ele>15.0</ele><time>2026-04-25T12:54:30.936Z</time></trkpt><trkpt lat="42.78899656184256" lon="10.346148236192489"><ele>15.0</ele><time>2026-04-25T12:54:31.936Z</time></trkpt><trkpt lat="42.78907002819436" lon="10.346187565284046"><ele>15.0</ele><time>2026-04-25T12:54:32.936Z</time></trkpt><trkpt lat="42.78914703297193" lon="10.34625434146719"><ele>15.0</ele><time>2026-04-25T12:54:33.936Z</time></trkpt><trkpt lat="42.789224472656244" lon="10.346316446289276"><ele>15.0</ele><time>2026-04-25T12:54:34.936Z</time></trkpt><trkpt lat="42.78931011984399" lon="10.346398513324315"><ele>15.0</ele><time>2026-04-25T12:54:35.936Z</time></trkpt><trkpt lat="42.78939076032063" lon="10.346474530556874"><ele>14.4</ele><time>2026-04-25T12:54:36.936Z</time></trkpt><trkpt lat="42.78946897702434" lon="10.346552957537881"><ele>13.8</ele><time>2026-04-25T12:54:37.936Z</time></trkpt><trkpt lat="42.78954479403668" lon="10.346617338339012"><ele>13.2</ele><time>2026-04-25T12:54:38.936Z</time></trkpt><trkpt lat="42.78962221983892" lon="10.346675269371179"><ele>12.6</ele><time>2026-04-25T12:54:39.936Z</time></trkpt><trkpt lat="42.78969804181457" lon="10.346747310866157"><ele>12.0</ele><time>2026-04-25T12:54:40.936Z</time></trkpt><trkpt lat="42.789774757029875" lon="10.346819707605025"><ele>12.0</ele><time>2026-04-25T12:54:41.936Z</time></trkpt><trkpt lat="42.789856873771406" lon="10.346884622950418"><ele>12.0</ele><time>2026-04-25T12:54:42.936Z</time></trkpt><trkpt lat="42.78992754151232" lon="10.346957360272262"><ele>12.0</ele><time>2026-04-25T12:54:43.936Z</time></trkpt><trkpt lat="42.79000955242289" lon="10.347032580404296"><ele>12.0</ele><time>2026-04-25T12:54:44.936Z</time></trkpt><trkpt lat="42.79009082175568" lon="10.347094248093553"><ele>12.0</ele><time>2026-04-25T12:54:45.936Z</time></trkpt><trkpt lat="42.79017023440788" lon="10.3471537553294"><ele>11.4</ele><time>2026-04-25T12:54:46.936Z</time></trkpt><trkpt lat="42.790252648759115" lon="10.347222258149031"><ele>10.799999999999999</ele><time>2026-04-25T12:54:47.936Z</time></trkpt><trkpt lat="42.79033644131043" lon="10.347299821737185"><ele>10.2</ele><time>2026-04-25T12:54:48.936Z</time></trkpt><trkpt lat="42.79042517297385" lon="10.347363072150179"><ele>9.6</ele><time>2026-04-25T12:54:49.936Z</time></trkpt><trkpt lat="42.79050789769556" lon="10.34742937056246"><ele>9.0</ele><time>2026-04-25T12:54:50.936Z</time></trkpt><trkpt lat="42.79058988740479" lon="10.347496799660759"><ele>9.0</ele><time>2026-04-25T12:54:51.936Z</time></trkpt><trkpt lat="42.79067380983017" lon="10.347566060576478"><ele>9.0</ele><time>2026-04-25T12:54:52.936Z</time></trkpt><trkpt lat="42.79075776382431" lon="10.347633848968178"><ele>9.0</ele><time>2026-04-25T12:54:53.936Z</time></trkpt><trkpt lat="42.790845668935546" lon="10.347704883343063"><ele>9.0</ele><time>2026-04-25T12:54:54.936Z</time></trkpt><trkpt lat="42.79093318985136" lon="10.34777226549919"><ele>9.0</ele><time>2026-04-25T12:54:55.936Z</time></trkpt><trkpt lat="42.79102525934058" lon="10.347847828394283"><ele>8.4</ele><time>2026-04-25T12:54:56.936Z</time></trkpt><trkpt lat="42.7911123269084" lon="10.347920027833295"><ele>7.800000000000001</ele><time>2026-04-25T12:54:57.936Z</time></trkpt><trkpt lat="42.791202922128164" lon="10.347999864535506"><ele>7.199999999999999</ele><time>2026-04-25T12:54:58.936Z</time></trkpt><trkpt lat="42.79129064143484" lon="10.34807172398686"><ele>6.6</ele><time>2026-04-25T12:54:59.936Z</time></trkpt><trkpt lat="42.79137921860651" lon="10.348144424613073"><ele>6.0</ele><time>2026-04-25T12:55:00.936Z</time></trkpt><trkpt lat="42.79146102252666" lon="10.348217035316566"><ele>6.0</ele><time>2026-04-25T12:55:01.936Z</time></trkpt><trkpt lat="42.7915362769572" lon="10.348273691134438"><ele>6.0</ele><time>2026-04-25T12:55:02.936Z</time></trkpt><trkpt lat="42.79160937474212" lon="10.348335735080942"><ele>6.0</ele><time>2026-04-25T12:55:03.936Z</time></trkpt><trkpt lat="42.79167401968304" lon="10.348389836015215"><ele>6.0</ele><time>2026-04-25T12:55:04.936Z</time></trkpt><trkpt lat="42.79174375593229" lon="10.348448366314233"><ele>6.0</ele><time>2026-04-25T12:55:06.936Z</time></trkpt><trkpt lat="42.791794427440315" lon="10.348513834650952"><ele>6.0</ele><time>2026-04-25T12:55:10.936Z</time></trkpt><trkpt lat="42.791770856725876" lon="10.348612733280577"><ele>6.0</ele><time>2026-04-25T12:55:12.936Z</time></trkpt><trkpt lat="42.7917230176455" lon="10.348683727338667"><ele>6.0</ele><time>2026-04-25T12:55:13.936Z</time></trkpt><trkpt lat="42.791672735606724" lon="10.348760676914907"><ele>6.0</ele><time>2026-04-25T12:55:14.936Z</time></trkpt><trkpt lat="42.791630854698774" lon="10.348849681959056"><ele>6.0</ele><time>2026-04-25T12:55:15.936Z</time></trkpt><trkpt lat="42.791596558906384" lon="10.348960467798676"><ele>6.0</ele><time>2026-04-25T12:55:16.936Z</time></trkpt><trkpt lat="42.79157627448621" lon="10.34909577464244"><ele>6.0</ele><time>2026-04-25T12:55:17.936Z</time></trkpt><trkpt lat="42.79158643484103" lon="10.349247107299862"><ele>5.75</ele><time>2026-04-25T12:55:18.936Z</time></trkpt><trkpt lat="42.79160729211343" lon="10.349410500927236"><ele>5.5</ele><time>2026-04-25T12:55:19.936Z</time></trkpt><trkpt lat="42.79161325460128" lon="10.349604038962626"><ele>5.25</ele><time>2026-04-25T12:55:20.936Z</time></trkpt><trkpt lat="42.79162826957464" lon="10.349773529505251"><ele>5.0</ele><time>2026-04-25T12:55:21.936Z</time></trkpt><trkpt lat="42.791641874334104" lon="10.34994085944792"><ele>5.5</ele><time>2026-04-25T12:55:22.936Z</time></trkpt><trkpt lat="42.7916564819323" lon="10.350098283512438"><ele>6.0</ele><time>2026-04-25T12:55:23.936Z</time></trkpt><trkpt lat="42.7916641529591" lon="10.350259813861298"><ele>6.5</ele><time>2026-04-25T12:55:24.936Z</time></trkpt><trkpt lat="42.79168401895952" lon="10.35042739100095"><ele>7.0</ele><time>2026-04-25T12:55:25.936Z</time></trkpt><trkpt lat="42.79171596745795" lon="10.350590161565632"><ele>7.0</ele><time>2026-04-25T12:55:26.936Z</time></trkpt><trkpt lat="42.79176854479442" lon="10.35073317880493"><ele>7.0</ele><time>2026-04-25T12:55:27.936Z</time></trkpt><trkpt lat="42.791833723222744" lon="10.350881634491472"><ele>7.0</ele><time>2026-04-25T12:55:28.936Z</time></trkpt><trkpt lat="42.79191386194019" lon="10.35102175600529"><ele>7.0</ele><time>2026-04-25T12:55:29.936Z</time></trkpt><trkpt lat="42.792007688305176" lon="10.35115931545108"><ele>7.0</ele><time>2026-04-25T12:55:30.936Z</time></trkpt><trkpt lat="42.792104397607744" lon="10.351286578769814"><ele>7.0</ele><time>2026-04-25T12:55:31.936Z</time></trkpt><trkpt lat="42.792208480152404" lon="10.351419704363096"><ele>7.0</ele><time>2026-04-25T12:55:32.936Z</time></trkpt><trkpt lat="42.79230844785577" lon="10.351548552349337"><ele>7.0</ele><time>2026-04-25T12:55:33.936Z</time></trkpt><trkpt lat="42.79240971780871" lon="10.351677555836641"><ele>7.0</ele><time>2026-04-25T12:55:34.936Z</time></trkpt><trkpt lat="42.79250844353142" lon="10.351805149605529"><ele>7.0</ele><time>2026-04-25T12:55:35.936Z</time></trkpt><trkpt lat="42.79260455822044" lon="10.351940008768523"><ele>7.0</ele><time>2026-04-25T12:55:36.936Z</time></trkpt><trkpt lat="42.792700625863446" lon="10.35207241585158"><ele>7.0</ele><time>2026-04-25T12:55:37.936Z</time></trkpt><trkpt lat="42.792799692744275" lon="10.35220386706323"><ele>6.25</ele><time>2026-04-25T12:55:38.936Z</time></trkpt><trkpt lat="42.792887113688565" lon="10.352324182188967"><ele>5.5</ele><time>2026-04-25T12:55:39.936Z</time></trkpt><trkpt lat="42.79298361860601" lon="10.352450003594456"><ele>4.75</ele><time>2026-04-25T12:55:40.936Z</time></trkpt><trkpt lat="42.793080455885836" lon="10.35257641649255"><ele>4.0</ele><time>2026-04-25T12:55:41.936Z</time></trkpt><trkpt lat="42.793170814622314" lon="10.352707069604953"><ele>4.0</ele><time>2026-04-25T12:55:42.936Z</time></trkpt><trkpt lat="42.79326196715682" lon="10.35282620421173"><ele>4.0</ele><time>2026-04-25T12:55:43.936Z</time></trkpt><trkpt lat="42.79335319755568" lon="10.352951532046388"><ele>4.0</ele><time>2026-04-25T12:55:44.935Z</time></trkpt><trkpt lat="42.79344642737192" lon="10.353087383153092"><ele>4.0</ele><time>2026-04-25T12:55:45.935Z</time></trkpt><trkpt lat="42.79354428968394" lon="10.353218550380147"><ele>4.75</ele><time>2026-04-25T12:55:46.935Z</time></trkpt><trkpt lat="42.79364405931443" lon="10.353352948517466"><ele>5.5</ele><time>2026-04-25T12:55:47.935Z</time></trkpt><trkpt lat="42.79373570929903" lon="10.353493971597223"><ele>6.25</ele><time>2026-04-25T12:55:48.935Z</time></trkpt><trkpt lat="42.793833009561496" lon="10.353621424446102"><ele>7.0</ele><time>2026-04-25T12:55:49.935Z</time></trkpt><trkpt lat="42.793930941109245" lon="10.35374814141508"><ele>7.0</ele><time>2026-04-25T12:55:50.935Z</time></trkpt><trkpt lat="42.7940223019669" lon="10.353869400581353"><ele>7.0</ele><time>2026-04-25T12:55:51.935Z</time></trkpt><trkpt lat="42.79410589946544" lon="10.353985816362894"><ele>7.0</ele><time>2026-04-25T12:55:52.935Z</time></trkpt><trkpt lat="42.79418236424799" lon="10.354098100166583"><ele>7.0</ele><time>2026-04-25T12:55:53.935Z</time></trkpt><trkpt lat="42.79424461735234" lon="10.354209113257895"><ele>7.25</ele><time>2026-04-25T12:55:54.935Z</time></trkpt><trkpt lat="42.79431443893124" lon="10.354347553397428"><ele>7.5</ele><time>2026-04-25T12:55:55.935Z</time></trkpt><trkpt lat="42.79436277541968" lon="10.354495043445631"><ele>7.75</ele><time>2026-04-25T12:55:56.935Z</time></trkpt><trkpt lat="42.7944059817701" lon="10.354639565106057"><ele>8.0</ele><time>2026-04-25T12:55:57.935Z</time></trkpt><trkpt lat="42.794427153899434" lon="10.354789639718508"><ele>8.0</ele><time>2026-04-25T12:55:58.935Z</time></trkpt><trkpt lat="42.794475842755475" lon="10.35494265378089"><ele>8.0</ele><time>2026-04-25T12:55:59.935Z</time></trkpt><trkpt lat="42.79452158050373" lon="10.355101456343197"><ele>8.0</ele><time>2026-04-25T12:56:00.935Z</time></trkpt><trkpt lat="42.79457548872106" lon="10.355267809418768"><ele>8.0</ele><time>2026-04-25T12:56:01.935Z</time></trkpt><trkpt lat="42.7946227562373" lon="10.355436802767233"><ele>7.75</ele><time>2026-04-25T12:56:02.935Z</time></trkpt><trkpt lat="42.79465458890117" lon="10.355605850191955"><ele>7.5</ele><time>2026-04-25T12:56:03.935Z</time></trkpt><trkpt lat="42.79468615155308" lon="10.355772415173393"><ele>7.25</ele><time>2026-04-25T12:56:04.935Z</time></trkpt><trkpt lat="42.79471844769681" lon="10.355949414460298"><ele>7.0</ele><time>2026-04-25T12:56:05.935Z</time></trkpt><trkpt lat="42.79474066916712" lon="10.356118844403982"><ele>7.0</ele><time>2026-04-25T12:56:06.935Z</time></trkpt><trkpt lat="42.79476101758421" lon="10.356292462935938"><ele>7.0</ele><time>2026-04-25T12:56:07.935Z</time></trkpt><trkpt lat="42.79477727523288" lon="10.356461883958211"><ele>7.0</ele><time>2026-04-25T12:56:08.935Z</time></trkpt><trkpt lat="42.79479285507796" lon="10.35663087959281"><ele>7.0</ele><time>2026-04-25T12:56:09.935Z</time></trkpt><trkpt lat="42.79481263120067" lon="10.356807922223846"><ele>6.75</ele><time>2026-04-25T12:56:10.935Z</time></trkpt><trkpt lat="42.794829360670484" lon="10.356991062886047"><ele>6.5</ele><time>2026-04-25T12:56:11.935Z</time></trkpt><trkpt lat="42.79484825753225" lon="10.357193154725927"><ele>6.25</ele><time>2026-04-25T12:56:12.935Z</time></trkpt><trkpt lat="42.794874953891586" lon="10.357402364339565"><ele>6.0</ele><time>2026-04-25T12:56:13.935Z</time></trkpt><trkpt lat="42.794896826219805" lon="10.357615055455996"><ele>6.5</ele><time>2026-04-25T12:56:14.935Z</time></trkpt><trkpt lat="42.79491566374117" lon="10.357821524416929"><ele>7.0</ele><time>2026-04-25T12:56:15.935Z</time></trkpt><trkpt lat="42.794925177710304" lon="10.3580208556623"><ele>7.5</ele><time>2026-04-25T12:56:16.935Z</time></trkpt><trkpt lat="42.79492673606628" lon="10.358217359549686"><ele>8.0</ele><time>2026-04-25T12:56:17.935Z</time></trkpt><trkpt lat="42.79491606254058" lon="10.35840041268406"><ele>8.5</ele><time>2026-04-25T12:56:18.935Z</time></trkpt><trkpt lat="42.794899692919905" lon="10.358584188194014"><ele>9.0</ele><time>2026-04-25T12:56:19.935Z</time></trkpt><trkpt lat="42.79488005939677" lon="10.358771748929907"><ele>9.5</ele><time>2026-04-25T12:56:20.935Z</time></trkpt><trkpt lat="42.79486006307613" lon="10.358955746577474"><ele>10.0</ele><time>2026-04-25T12:56:21.935Z</time></trkpt><trkpt lat="42.79484536621468" lon="10.359141685366618"><ele>10.75</ele><time>2026-04-25T12:56:22.935Z</time></trkpt><trkpt lat="42.7948417778394" lon="10.3593326502979"><ele>11.5</ele><time>2026-04-25T12:56:23.935Z</time></trkpt><trkpt lat="42.794851745953" lon="10.359520806167009"><ele>12.25</ele><time>2026-04-25T12:56:24.935Z</time></trkpt><trkpt lat="42.79486830423822" lon="10.359704457873166"><ele>13.0</ele><time>2026-04-25T12:56:25.935Z</time></trkpt><trkpt lat="42.79488640391237" lon="10.359879956354819"><ele>13.5</ele><time>2026-04-25T12:56:26.935Z</time></trkpt><trkpt lat="42.79490316656901" lon="10.360052107138024"><ele>14.0</ele><time>2026-04-25T12:56:27.935Z</time></trkpt><trkpt lat="42.79492193366935" lon="10.360217051653635"><ele>14.5</ele><time>2026-04-25T12:56:28.935Z</time></trkpt><trkpt lat="42.79494497336593" lon="10.360379748419833"><ele>15.0</ele><time>2026-04-25T12:56:29.935Z</time></trkpt><trkpt lat="42.794966899405985" lon="10.360548272781424"><ele>15.5</ele><time>2026-04-25T12:56:30.937Z</time></trkpt><trkpt lat="42.794985397024305" lon="10.360720000833538"><ele>16.0</ele><time>2026-04-25T12:56:31.937Z</time></trkpt><trkpt lat="42.795000070440885" lon="10.360884867396079"><ele>16.5</ele><time>2026-04-25T12:56:32.937Z</time></trkpt><trkpt lat="42.79501650888291" lon="10.361051349335066"><ele>17.0</ele><time>2026-04-25T12:56:33.937Z</time></trkpt><trkpt lat="42.79503941289167" lon="10.361201506760143"><ele>17.0</ele><time>2026-04-25T12:56:34.937Z</time></trkpt><trkpt lat="42.79505633682032" lon="10.361331245219665"><ele>17.0</ele><time>2026-04-25T12:56:35.937Z</time></trkpt><trkpt lat="42.795073248215814" lon="10.36144407765905"><ele>17.0</ele><time>2026-04-25T12:56:36.937Z</time></trkpt><trkpt lat="42.79508873485225" lon="10.361550392668182"><ele>17.0</ele><time>2026-04-25T12:56:37.937Z</time></trkpt><trkpt lat="42.79509023330788" lon="10.361642349709303"><ele>17.0</ele><time>2026-04-25T12:56:38.937Z</time></trkpt><trkpt lat="42.79509436636878" lon="10.361729643953296"><ele>17.0</ele><time>2026-04-25T12:56:39.937Z</time></trkpt><trkpt lat="42.795067506362294" lon="10.36180834850503"><ele>17.4</ele><time>2026-04-25T12:56:40.937Z</time></trkpt><trkpt lat="42.795001394492154" lon="10.361885309371031"><ele>17.799999999999997</ele><time>2026-04-25T12:56:41.937Z</time></trkpt><trkpt lat="42.79492225943287" lon="10.361967787804888"><ele>18.2</ele><time>2026-04-25T12:56:42.936Z</time></trkpt><trkpt lat="42.79480907771112" lon="10.362042008507418"><ele>18.599999999999998</ele><time>2026-04-25T12:56:43.936Z</time></trkpt><trkpt lat="42.79474001798087" lon="10.362181374708245"><ele>19.0</ele><time>2026-04-25T12:56:44.936Z</time></trkpt><trkpt lat="42.79468812858072" lon="10.362302922479635"><ele>19.799999999999997</ele><time>2026-04-25T12:56:45.936Z</time></trkpt><trkpt lat="42.794639767106126" lon="10.362416451940769"><ele>20.599999999999998</ele><time>2026-04-25T12:56:46.936Z</time></trkpt><trkpt lat="42.794611092319165" lon="10.362563319777362"><ele>21.4</ele><time>2026-04-25T12:56:47.936Z</time></trkpt><trkpt lat="42.794611605434696" lon="10.362714327648922"><ele>22.2</ele><time>2026-04-25T12:56:48.936Z</time></trkpt><trkpt lat="42.79462274357747" lon="10.362870041498333"><ele>23.0</ele><time>2026-04-25T12:56:49.936Z</time></trkpt><trkpt lat="42.79463649425745" lon="10.363030085375076"><ele>23.75</ele><time>2026-04-25T12:56:50.936Z</time></trkpt><trkpt lat="42.79463598377915" lon="10.363172931316083"><ele>24.5</ele><time>2026-04-25T12:56:51.936Z</time></trkpt><trkpt lat="42.79464184899107" lon="10.363336307192684"><ele>25.25</ele><time>2026-04-25T12:56:52.936Z</time></trkpt><trkpt lat="42.79461527949039" lon="10.36350029941486"><ele>26.0</ele><time>2026-04-25T12:56:53.936Z</time></trkpt><trkpt lat="42.794557564415555" lon="10.363641393820263"><ele>26.0</ele><time>2026-04-25T12:56:54.936Z</time></trkpt><trkpt lat="42.794530605296664" lon="10.3637978686423"><ele>26.0</ele><time>2026-04-25T12:56:55.936Z</time></trkpt><trkpt lat="42.794482366907694" lon="10.363935525655837"><ele>26.0</ele><time>2026-04-25T12:56:56.936Z</time></trkpt><trkpt lat="42.79446831502256" lon="10.364076080795648"><ele>26.0</ele><time>2026-04-25T12:56:57.936Z</time></trkpt><trkpt lat="42.79444810470963" lon="10.364200549864393"><ele>26.0</ele><time>2026-04-25T12:56:58.936Z</time></trkpt><trkpt lat="42.79444216801408" lon="10.364327200853227"><ele>26.200000000000003</ele><time>2026-04-25T12:56:59.936Z</time></trkpt><trkpt lat="42.79444263418106" lon="10.364455324515554"><ele>26.400000000000002</ele><time>2026-04-25T12:57:00.936Z</time></trkpt><trkpt lat="42.794439467281045" lon="10.364578825091591"><ele>26.6</ele><time>2026-04-25T12:57:01.936Z</time></trkpt><trkpt lat="42.794419778279256" lon="10.364699423482733"><ele>26.8</ele><time>2026-04-25T12:57:02.936Z</time></trkpt><trkpt lat="42.79437683434816" lon="10.364803586945426"><ele>27.0</ele><time>2026-04-25T12:57:03.936Z</time></trkpt><trkpt lat="42.79430791226462" lon="10.364906847350113"><ele>27.0</ele><time>2026-04-25T12:57:04.936Z</time></trkpt><trkpt lat="42.79421127758076" lon="10.36498498147539"><ele>27.0</ele><time>2026-04-25T12:57:05.936Z</time></trkpt><trkpt lat="42.79410474532805" lon="10.365073504529452"><ele>27.0</ele><time>2026-04-25T12:57:06.936Z</time></trkpt><trkpt lat="42.79400026839196" lon="10.365176702836022"><ele>27.0</ele><time>2026-04-25T12:57:07.936Z</time></trkpt><trkpt lat="42.793896150919664" lon="10.365262918156663"><ele>27.0</ele><time>2026-04-25T12:57:08.936Z</time></trkpt><trkpt lat="42.79379127281574" lon="10.365351002681564"><ele>27.0</ele><time>2026-04-25T12:57:09.936Z</time></trkpt><trkpt lat="42.793679461486256" lon="10.365399746829285"><ele>27.0</ele><time>2026-04-25T12:57:10.936Z</time></trkpt><trkpt lat="42.793570419505855" lon="10.365439043202512"><ele>27.0</ele><time>2026-04-25T12:57:11.936Z</time></trkpt><trkpt lat="42.79347073191463" lon="10.36546478365336"><ele>27.0</ele><time>2026-04-25T12:57:12.936Z</time></trkpt><trkpt lat="42.79336652982293" lon="10.365493834495345"><ele>27.000000000000004</ele><time>2026-04-25T12:57:13.936Z</time></trkpt><trkpt lat="42.79327493269903" lon="10.365519622528774"><ele>27.000000000000004</ele><time>2026-04-25T12:57:14.936Z</time></trkpt><trkpt lat="42.79319004226478" lon="10.365555720995141"><ele>27.0</ele><time>2026-04-25T12:57:15.936Z</time></trkpt><trkpt lat="42.793104552058246" lon="10.365600495139748"><ele>27.0</ele><time>2026-04-25T12:57:16.936Z</time></trkpt><trkpt lat="42.79301786077042" lon="10.365633072001954"><ele>27.200000000000003</ele><time>2026-04-25T12:57:17.936Z</time></trkpt><trkpt lat="42.792934059192916" lon="10.36568870316011"><ele>27.400000000000002</ele><time>2026-04-25T12:57:18.936Z</time></trkpt><trkpt lat="42.79285381801762" lon="10.36573934443177"><ele>27.599999999999998</ele><time>2026-04-25T12:57:19.936Z</time></trkpt><trkpt lat="42.79276921448952" lon="10.365793240404075"><ele>27.799999999999997</ele><time>2026-04-25T12:57:20.936Z</time></trkpt><trkpt lat="42.792688705940456" lon="10.365853634766916"><ele>28.0</ele><time>2026-04-25T12:57:21.936Z</time></trkpt><trkpt lat="42.79260592870099" lon="10.365921624504884"><ele>28.0</ele><time>2026-04-25T12:57:22.936Z</time></trkpt><trkpt lat="42.792532443269764" lon="10.36601440707686"><ele>27.999999999999996</ele><time>2026-04-25T12:57:23.936Z</time></trkpt><trkpt lat="42.792452654731896" lon="10.366082525148297"><ele>27.999999999999996</ele><time>2026-04-25T12:57:24.936Z</time></trkpt><trkpt lat="42.79236302633059" lon="10.366115694724238"><ele>28.0</ele><time>2026-04-25T12:57:25.936Z</time></trkpt><trkpt lat="42.7922736646017" lon="10.366167982890039"><ele>28.0</ele><time>2026-04-25T12:57:26.936Z</time></trkpt><trkpt lat="42.79217299567485" lon="10.366231469919395"><ele>28.0</ele><time>2026-04-25T12:57:27.936Z</time></trkpt><trkpt lat="42.79207223818548" lon="10.366312384549962"><ele>28.0</ele><time>2026-04-25T12:57:28.936Z</time></trkpt><trkpt lat="42.791960683563" lon="10.366432068887379"><ele>28.0</ele><time>2026-04-25T12:57:29.936Z</time></trkpt><trkpt lat="42.791867477963486" lon="10.366559070705799"><ele>28.0</ele><time>2026-04-25T12:57:30.936Z</time></trkpt><trkpt lat="42.79176462739492" lon="10.36664378266226"><ele>29.4</ele><time>2026-04-25T12:57:31.936Z</time></trkpt><trkpt lat="42.79167178277569" lon="10.36670702639255"><ele>30.799999999999997</ele><time>2026-04-25T12:57:32.936Z</time></trkpt><trkpt lat="42.79158025577473" lon="10.36676993035496"><ele>32.2</ele><time>2026-04-25T12:57:33.936Z</time></trkpt><trkpt lat="42.79149584683059" lon="10.36685110912854"><ele>33.6</ele><time>2026-04-25T12:57:34.936Z</time></trkpt><trkpt lat="42.791427844375534" lon="10.366936020564529"><ele>35.0</ele><time>2026-04-25T12:57:35.936Z</time></trkpt><trkpt lat="42.79136327443719" lon="10.367019387984747"><ele>35.0</ele><time>2026-04-25T12:57:36.936Z</time></trkpt><trkpt lat="42.79130182536663" lon="10.367115489709537"><ele>35.0</ele><time>2026-04-25T12:57:37.936Z</time></trkpt><trkpt lat="42.79123768158526" lon="10.367224363816643"><ele>35.0</ele><time>2026-04-25T12:57:38.936Z</time></trkpt><trkpt lat="42.79118296557793" lon="10.367329940691237"><ele>35.0</ele><time>2026-04-25T12:57:39.936Z</time></trkpt><trkpt lat="42.79112688986444" lon="10.367429660259553"><ele>35.0</ele><time>2026-04-25T12:57:40.936Z</time></trkpt><trkpt lat="42.791088899449015" lon="10.367542669164056"><ele>36.0</ele><time>2026-04-25T12:57:41.936Z</time></trkpt><trkpt lat="42.79104334805198" lon="10.367647165375747"><ele>37.0</ele><time>2026-04-25T12:57:42.936Z</time></trkpt><trkpt lat="42.79099876373838" lon="10.367767562642516"><ele>38.0</ele><time>2026-04-25T12:57:43.936Z</time></trkpt><trkpt lat="42.79095252310742" lon="10.367886108640716"><ele>39.0</ele><time>2026-04-25T12:57:44.936Z</time></trkpt><trkpt lat="42.7909066882933" lon="10.368013914451296"><ele>40.0</ele><time>2026-04-25T12:57:45.936Z</time></trkpt><trkpt lat="42.79088178652498" lon="10.368128593738735"><ele>41.5</ele><time>2026-04-25T12:57:46.935Z</time></trkpt><trkpt lat="42.79086251126305" lon="10.368236481296284"><ele>43.0</ele><time>2026-04-25T12:57:47.935Z</time></trkpt><trkpt lat="42.79084584158616" lon="10.36833058027891"><ele>44.5</ele><time>2026-04-25T12:57:48.935Z</time></trkpt><trkpt lat="42.790813259399506" lon="10.368408767923237"><ele>46.0</ele><time>2026-04-25T12:57:49.935Z</time></trkpt><trkpt lat="42.79074608887182" lon="10.36846263512768"><ele>47.49999999999999</ele><time>2026-04-25T12:57:50.935Z</time></trkpt><trkpt lat="42.79066888848901" lon="10.368524960313522"><ele>49.0</ele><time>2026-04-25T12:57:51.935Z</time></trkpt><trkpt lat="42.790583309665934" lon="10.368603314042048"><ele>49.0</ele><time>2026-04-25T12:57:52.935Z</time></trkpt><trkpt lat="42.790490353311135" lon="10.368695547428128"><ele>49.0</ele><time>2026-04-25T12:57:53.935Z</time></trkpt><trkpt lat="42.790395980800575" lon="10.368790329355644"><ele>49.0</ele><time>2026-04-25T12:57:54.935Z</time></trkpt><trkpt lat="42.790305631239214" lon="10.36889487851173"><ele>49.0</ele><time>2026-04-25T12:57:55.935Z</time></trkpt><trkpt lat="42.790227423628934" lon="10.369000682225272"><ele>48.166666666666664</ele><time>2026-04-25T12:57:56.935Z</time></trkpt><trkpt lat="42.79015865633678" lon="10.36910204559618"><ele>47.33333333333333</ele><time>2026-04-25T12:57:57.935Z</time></trkpt><trkpt lat="42.790100546205835" lon="10.369196930097514"><ele>46.5</ele><time>2026-04-25T12:57:58.935Z</time></trkpt><trkpt lat="42.790045460151035" lon="10.369262723319462"><ele>45.666666666666664</ele><time>2026-04-25T12:57:59.935Z</time></trkpt><trkpt lat="42.78999986803305" lon="10.369338134150185"><ele>44.83333333333333</ele><time>2026-04-25T12:58:00.935Z</time></trkpt><trkpt lat="42.78994647225928" lon="10.369426304755583"><ele>44.0</ele><time>2026-04-25T12:58:02.935Z</time></trkpt><trkpt lat="42.789892365842825" lon="10.36947631462256"><ele>44.0</ele><time>2026-04-25T12:58:07.935Z</time></trkpt><trkpt lat="42.78977636930648" lon="10.369267122013099"><ele>44.0</ele><time>2026-04-25T12:58:15.935Z</time></trkpt><trkpt lat="42.789732151835786" lon="10.369187015737554"><ele>44.0</ele><time>2026-04-25T12:58:16.935Z</time></trkpt><trkpt lat="42.78968581262035" lon="10.369103165686937"><ele>44.0</ele><time>2026-04-25T12:58:17.935Z</time></trkpt><trkpt lat="42.78964113488661" lon="10.369030161196957"><ele>44.0</ele><time>2026-04-25T12:58:18.935Z</time></trkpt><trkpt lat="42.78959149570385" lon="10.368949049479124"><ele>44.0</ele><time>2026-04-25T12:58:19.935Z</time></trkpt><trkpt lat="42.78954015165536" lon="10.368865151940053"><ele>44.0</ele><time>2026-04-25T12:58:20.935Z</time></trkpt><trkpt lat="42.78949052146157" lon="10.368782426466218"><ele>44.0</ele><time>2026-04-25T12:58:21.935Z</time></trkpt><trkpt lat="42.78943710574403" lon="10.368702423834398"><ele>44.0</ele><time>2026-04-25T12:58:22.935Z</time></trkpt><trkpt lat="42.789377533333585" lon="10.368628786987426"><ele>44.0</ele><time>2026-04-25T12:58:23.935Z</time></trkpt><trkpt lat="42.78930425171269" lon="10.368577677307913"><ele>44.0</ele><time>2026-04-25T12:58:24.935Z</time></trkpt><trkpt lat="42.78922604961587" lon="10.368537018992896"><ele>43.33333333333333</ele><time>2026-04-25T12:58:25.935Z</time></trkpt><trkpt lat="42.78915175257795" lon="10.368507449193444"><ele>42.666666666666664</ele><time>2026-04-25T12:58:26.935Z</time></trkpt><trkpt lat="42.78907884549442" lon="10.368483802603471"><ele>42.0</ele><time>2026-04-25T12:58:27.935Z</time></trkpt><trkpt lat="42.78893960210002" lon="10.368479564521772"><ele>41.333333333333336</ele><time>2026-04-25T12:58:29.935Z</time></trkpt><trkpt lat="42.78886827166899" lon="10.368476414926926"><ele>40.66666666666667</ele><time>2026-04-25T12:58:30.935Z</time></trkpt><trkpt lat="42.78879956203306" lon="10.368470766601932"><ele>40.0</ele><time>2026-04-25T12:58:31.935Z</time></trkpt><trkpt lat="42.78869290296209" lon="10.368438870477302"><ele>40.0</ele><time>2026-04-25T12:58:33.935Z</time></trkpt><trkpt lat="42.78858767988318" lon="10.368373777981441"><ele>40.0</ele><time>2026-04-25T12:58:35.935Z</time></trkpt><trkpt lat="42.78852635594388" lon="10.36833379759049"><ele>40.0</ele><time>2026-04-25T12:58:37.938Z</time></trkpt><trkpt lat="42.788451243124626" lon="10.368374353704263"><ele>40.0</ele><time>2026-04-25T12:58:39.937Z</time></trkpt><trkpt lat="42.78836156612654" lon="10.36842523577742"><ele>40.0</ele><time>2026-04-25T12:58:42.937Z</time></trkpt><trkpt lat="42.78829924876758" lon="10.368468962331681"><ele>40.0</ele><time>2026-04-25T12:58:43.937Z</time></trkpt><trkpt lat="42.788164941554044" lon="10.368440741727634"><ele>42.6</ele><time>2026-04-25T12:58:45.937Z</time></trkpt><trkpt lat="42.788058447468664" lon="10.368402315455667"><ele>45.2</ele><time>2026-04-25T12:58:46.937Z</time></trkpt><trkpt lat="42.78794884928006" lon="10.368375675024316"><ele>47.8</ele><time>2026-04-25T12:58:47.937Z</time></trkpt><trkpt lat="42.78787224379942" lon="10.368337635576802"><ele>50.4</ele><time>2026-04-25T12:58:48.937Z</time></trkpt><trkpt lat="42.78781435791044" lon="10.368281712450017"><ele>53.0</ele><time>2026-04-25T12:58:49.937Z</time></trkpt><trkpt lat="42.78774206697837" lon="10.36821767812834"><ele>53.00000000000001</ele><time>2026-04-25T12:58:51.937Z</time></trkpt><trkpt lat="42.787680834755406" lon="10.368175593110388"><ele>53.0</ele><time>2026-04-25T12:58:53.937Z</time></trkpt><trkpt lat="42.78760508444152" lon="10.36819754998409"><ele>53.0</ele><time>2026-04-25T12:58:55.937Z</time></trkpt><trkpt lat="42.787514912152204" lon="10.368264115566328"><ele>53.0</ele><time>2026-04-25T12:58:57.937Z</time></trkpt><trkpt lat="42.78744895916848" lon="10.368300166698049"><ele>53.00000000000001</ele><time>2026-04-25T12:58:58.937Z</time></trkpt><trkpt lat="42.787382034947996" lon="10.368291560417639"><ele>53.0</ele><time>2026-04-25T12:58:59.937Z</time></trkpt><trkpt lat="42.7872964966428" lon="10.36825745880792"><ele>53.833333333333336</ele><time>2026-04-25T12:59:00.937Z</time></trkpt><trkpt lat="42.78724728880765" lon="10.368188697870984"><ele>54.66666666666667</ele><time>2026-04-25T12:59:01.937Z</time></trkpt><trkpt lat="42.7872267972732" lon="10.368050862865918"><ele>55.5</ele><time>2026-04-25T12:59:03.937Z</time></trkpt><trkpt lat="42.78721943534579" lon="10.367952150695881"><ele>56.33333333333333</ele><time>2026-04-25T12:59:04.937Z</time></trkpt><trkpt lat="42.78726324561067" lon="10.367817965930318"><ele>57.166666666666664</ele><time>2026-04-25T12:59:06.937Z</time></trkpt><trkpt lat="42.78734203887939" lon="10.36776690715525"><ele>58.0</ele><time>2026-04-25T12:59:08.937Z</time></trkpt><trkpt lat="42.787411442044906" lon="10.367677159120692"><ele>58.99999999999999</ele><time>2026-04-25T12:59:10.937Z</time></trkpt><trkpt lat="42.78746149748668" lon="10.367616750665011"><ele>60.0</ele><time>2026-04-25T12:59:12.937Z</time></trkpt><trkpt lat="42.7875208221828" lon="10.367580647585406"><ele>61.0</ele><time>2026-04-25T12:59:13.937Z</time></trkpt><trkpt lat="42.787573421558946" lon="10.367531654171676"><ele>62.0</ele><time>2026-04-25T12:59:14.937Z</time></trkpt><trkpt lat="42.787651544298264" lon="10.367460492330487"><ele>62.99999999999999</ele><time>2026-04-25T12:59:15.937Z</time></trkpt><trkpt lat="42.78775683469533" lon="10.36738762927838"><ele>64.0</ele><time>2026-04-25T12:59:17.937Z</time></trkpt><trkpt lat="42.787809828613206" lon="10.367332691900843"><ele>63.99999999999999</ele><time>2026-04-25T12:59:19.937Z</time></trkpt><trkpt lat="42.787803563223356" lon="10.367235519112258"><ele>64.0</ele><time>2026-04-25T12:59:22.937Z</time></trkpt><trkpt lat="42.787763037155564" lon="10.367145900930984"><ele>64.0</ele><time>2026-04-25T12:59:24.937Z</time></trkpt><trkpt lat="42.787768448516154" lon="10.36703946529218"><ele>64.0</ele><time>2026-04-25T12:59:30.937Z</time></trkpt><trkpt lat="42.78782100700708" lon="10.366961407245793"><ele>63.99999999999999</ele><time>2026-04-25T12:59:32.937Z</time></trkpt><trkpt lat="42.7878918855158" lon="10.366862099300905"><ele>64.0</ele><time>2026-04-25T12:59:34.937Z</time></trkpt><trkpt lat="42.78795609027509" lon="10.366726174759483"><ele>64.60000000000001</ele><time>2026-04-25T12:59:36.937Z</time></trkpt><trkpt lat="42.787981052585316" lon="10.36664425064132"><ele>65.2</ele><time>2026-04-25T12:59:37.937Z</time></trkpt><trkpt lat="42.78802778071815" lon="10.366495632117775"><ele>65.80000000000001</ele><time>2026-04-25T12:59:39.937Z</time></trkpt><trkpt lat="42.78805711827608" lon="10.366372980261962"><ele>66.4</ele><time>2026-04-25T12:59:41.937Z</time></trkpt><trkpt lat="42.78809710084826" lon="10.366236352043787"><ele>67.0</ele><time>2026-04-25T12:59:43.937Z</time></trkpt><trkpt lat="42.788137463016135" lon="10.366123476218975"><ele>69.0</ele><time>2026-04-25T12:59:45.937Z</time></trkpt><trkpt lat="42.78821484921136" lon="10.366002380772434"><ele>71.0</ele><time>2026-04-25T12:59:47.937Z</time></trkpt><trkpt lat="42.78826277644907" lon="10.365913596434256"><ele>73.0</ele><time>2026-04-25T12:59:48.937Z</time></trkpt><trkpt lat="42.7883188411991" lon="10.365839734424984"><ele>75.0</ele><time>2026-04-25T12:59:50.937Z</time></trkpt><trkpt lat="42.78836085867553" lon="10.365756557645575"><ele>77.0</ele><time>2026-04-25T12:59:53.937Z</time></trkpt><trkpt lat="42.78832630973335" lon="10.365660996082019"><ele>79.0</ele><time>2026-04-25T12:59:54.937Z</time></trkpt><trkpt lat="42.78826069288215" lon="10.365539395589177"><ele>79.6</ele><time>2026-04-25T12:59:56.937Z</time></trkpt><trkpt lat="42.788160159446534" lon="10.365459902217045"><ele>80.2</ele><time>2026-04-25T12:59:58.937Z</time></trkpt><trkpt lat="42.78809475326036" lon="10.365409673165876"><ele>80.8</ele><time>2026-04-25T12:59:59.937Z</time></trkpt><trkpt lat="42.78799130733542" lon="10.365335950516991"><ele>81.39999999999999</ele><time>2026-04-25T13:00:01.937Z</time></trkpt><trkpt lat="42.78792172873925" lon="10.3652086629742"><ele>82.0</ele><time>2026-04-25T13:00:03.937Z</time></trkpt><trkpt lat="42.78788944717572" lon="10.365133469323172"><ele>82.0</ele><time>2026-04-25T13:00:04.937Z</time></trkpt><trkpt lat="42.78787401445031" lon="10.365001738097826"><ele>82.0</ele><time>2026-04-25T13:00:06.937Z</time></trkpt><trkpt lat="42.78781787894414" lon="10.364867217140079"><ele>82.0</ele><time>2026-04-25T13:00:08.937Z</time></trkpt><trkpt lat="42.787778523247226" lon="10.364787093419885"><ele>82.0</ele><time>2026-04-25T13:00:09.937Z</time></trkpt><trkpt lat="42.787730831123476" lon="10.364692000601908"><ele>82.0</ele><time>2026-04-25T13:00:10.937Z</time></trkpt><trkpt lat="42.78768476365419" lon="10.364617988169892"><ele>82.0</ele><time>2026-04-25T13:00:11.937Z</time></trkpt><trkpt lat="42.787624865990786" lon="10.364484163600375"><ele>87.6</ele><time>2026-04-25T13:00:13.937Z</time></trkpt><trkpt lat="42.7876002256953" lon="10.364401547455842"><ele>93.19999999999999</ele><time>2026-04-25T13:00:14.937Z</time></trkpt><trkpt lat="42.787559947760435" lon="10.364319904869014"><ele>98.8</ele><time>2026-04-25T13:00:15.937Z</time></trkpt><trkpt lat="42.78756290390708" lon="10.364162209264506"><ele>104.4</ele><time>2026-04-25T13:00:17.937Z</time></trkpt><trkpt lat="42.78754691792624" lon="10.364076564471079"><ele>110.0</ele><time>2026-04-25T13:00:18.936Z</time></trkpt><trkpt lat="42.78747596732871" lon="10.363923485719566"><ele>107.6</ele><time>2026-04-25T13:00:20.936Z</time></trkpt><trkpt lat="42.78741118166298" lon="10.363798189360516"><ele>105.2</ele><time>2026-04-25T13:00:22.936Z</time></trkpt><trkpt lat="42.787366995092356" lon="10.363734617771218"><ele>102.80000000000001</ele><time>2026-04-25T13:00:23.936Z</time></trkpt><trkpt lat="42.78727225383576" lon="10.363676916762856"><ele>100.4</ele><time>2026-04-25T13:00:25.936Z</time></trkpt><trkpt lat="42.78713458918395" lon="10.363625626770583"><ele>98.0</ele><time>2026-04-25T13:00:27.936Z</time></trkpt><trkpt lat="42.7870674191647" lon="10.363477119920702"><ele>98.0</ele><time>2026-04-25T13:00:29.936Z</time></trkpt><trkpt lat="42.78699737258945" lon="10.3633747618627"><ele>98.0</ele><time>2026-04-25T13:00:30.937Z</time></trkpt><trkpt lat="42.78695092065867" lon="10.363295329344126"><ele>98.0</ele><time>2026-04-25T13:00:31.938Z</time></trkpt><trkpt lat="42.78689329680646" lon="10.363197556896788"><ele>98.0</ele><time>2026-04-25T13:00:32.938Z</time></trkpt><trkpt lat="42.786840851344245" lon="10.363115463997548"><ele>98.0</ele><time>2026-04-25T13:00:33.939Z</time></trkpt><trkpt lat="42.78679128221234" lon="10.362961830285066"><ele>102.49999999999999</ele><time>2026-04-25T13:00:35.94Z</time></trkpt><trkpt lat="42.78677209045296" lon="10.362870602457503"><ele>107.0</ele><time>2026-04-25T13:00:36.94Z</time></trkpt><trkpt lat="42.786747446992706" lon="10.362774355028117"><ele>111.5</ele><time>2026-04-25T13:00:37.941Z</time></trkpt><trkpt lat="42.78672402531913" lon="10.362668331825201"><ele>116.0</ele><time>2026-04-25T13:00:38.941Z</time></trkpt><trkpt lat="42.78670541095464" lon="10.362549882348493"><ele>120.49999999999999</ele><time>2026-04-25T13:00:39.942Z</time></trkpt><trkpt lat="42.786695255978756" lon="10.362459259853695"><ele>125.0</ele><time>2026-04-25T13:00:40.942Z</time></trkpt><trkpt lat="42.7866950610145" lon="10.3623603482717"><ele>124.99999999999999</ele><time>2026-04-25T13:00:41.942Z</time></trkpt><trkpt lat="42.78670681190562" lon="10.362245685658388"><ele>125.0</ele><time>2026-04-25T13:00:43.944Z</time></trkpt><trkpt lat="42.78672903235494" lon="10.36215889941666"><ele>125.0</ele><time>2026-04-25T13:00:44.945Z</time></trkpt><trkpt lat="42.78672734697376" lon="10.362027223514401"><ele>125.0</ele><time>2026-04-25T13:00:45.945Z</time></trkpt><trkpt lat="42.786705711996795" lon="10.361916477997903"><ele>124.99999999999999</ele><time>2026-04-25T13:00:46.945Z</time></trkpt><trkpt lat="42.78672758297669" lon="10.361819002179988"><ele>125.0</ele><time>2026-04-25T13:00:48.945Z</time></trkpt><trkpt lat="42.78679515401787" lon="10.36170054602372"><ele>124.99999999999999</ele><time>2026-04-25T13:00:51.946Z</time></trkpt><trkpt lat="42.78683318631386" lon="10.36154796910127"><ele>125.0</ele><time>2026-04-25T13:00:53.946Z</time></trkpt><trkpt lat="42.78687160653969" lon="10.361447100831848"><ele>125.0</ele><time>2026-04-25T13:00:56.947Z</time></trkpt><trkpt lat="42.78687178420525" lon="10.361355050023933"><ele>125.0</ele><time>2026-04-25T13:01:06.948Z</time></trkpt><trkpt lat="42.78688580778888" lon="10.361262541407653"><ele>124.99999999999999</ele><time>2026-04-25T13:01:21.949Z</time></trkpt><trkpt lat="42.7868648760779" lon="10.361172800269566"><ele>125.0</ele><time>2026-04-25T13:01:24.949Z</time></trkpt><trkpt lat="42.78680081282914" lon="10.361087077327914"><ele>123.16666666666666</ele><time>2026-04-25T13:01:27.949Z</time></trkpt><trkpt lat="42.78675205301113" lon="10.360979770008415"><ele>121.33333333333333</ele><time>2026-04-25T13:01:30.949Z</time></trkpt><trkpt lat="42.78667189920946" lon="10.360917476377285"><ele>119.5</ele><time>2026-04-25T13:01:33.949Z</time></trkpt><trkpt lat="42.786614413968856" lon="10.360864959938418"><ele>117.66666666666666</ele><time>2026-04-25T13:01:35.949Z</time></trkpt><trkpt lat="42.786547742854516" lon="10.360809504943884"><ele>115.83333333333333</ele><time>2026-04-25T13:01:39.949Z</time></trkpt><trkpt lat="42.786507025988016" lon="10.360734027788904"><ele>114.0</ele><time>2026-04-25T13:01:41.949Z</time></trkpt><trkpt lat="42.786505097660324" lon="10.360646766878954"><ele>114.0</ele><time>2026-04-25T13:01:50.949Z</time></trkpt><trkpt lat="42.78656927062415" lon="10.36061277840771"><ele>114.0</ele><time>2026-04-25T13:02:00.949Z</time></trkpt><trkpt lat="42.786634492783485" lon="10.360636800474438"><ele>114.0</ele><time>2026-04-25T13:02:16.948Z</time></trkpt><trkpt lat="42.78670234070376" lon="10.360631746703776"><ele>114.0</ele><time>2026-04-25T13:02:20.948Z</time></trkpt><trkpt lat="42.786792353198784" lon="10.360649296749054"><ele>114.0</ele><time>2026-04-25T13:02:23.948Z</time></trkpt><trkpt lat="42.786849738780816" lon="10.360687460415626"><ele>114.0</ele><time>2026-04-25T13:02:25.948Z</time></trkpt><trkpt lat="42.78695284874387" lon="10.360674233730128"><ele>111.25</ele><time>2026-04-25T13:02:29.948Z</time></trkpt><trkpt lat="42.787021583786895" lon="10.360646344221136"><ele>108.5</ele><time>2026-04-25T13:02:31.948Z</time></trkpt><trkpt lat="42.78708486207634" lon="10.360617863243213"><ele>105.75</ele><time>2026-04-25T13:02:33.948Z</time></trkpt><trkpt lat="42.78721820181752" lon="10.360621757607564"><ele>103.0</ele><time>2026-04-25T13:02:36.948Z</time></trkpt><trkpt lat="42.78739780221731" lon="10.360631659727362"><ele>103.0</ele><time>2026-04-25T13:02:42.948Z</time></trkpt><trkpt lat="42.78747169197176" lon="10.360648739323864"><ele>103.0</ele><time>2026-04-25T13:02:46.948Z</time></trkpt><trkpt lat="42.78753913392721" lon="10.360744354320893"><ele>103.0</ele><time>2026-04-25T13:02:49.95Z</time></trkpt><trkpt lat="42.787622801073724" lon="10.360753143926338"><ele>103.0</ele><time>2026-04-25T13:02:51.95Z</time></trkpt><trkpt lat="42.787715146985036" lon="10.360690020740932"><ele>103.0</ele><time>2026-04-25T13:02:53.95Z</time></trkpt><trkpt lat="42.78779923055051" lon="10.360631154353001"><ele>101.4</ele><time>2026-04-25T13:02:55.949Z</time></trkpt><trkpt lat="42.78785496983269" lon="10.360541448547565"><ele>99.80000000000001</ele><time>2026-04-25T13:02:57.949Z</time></trkpt><trkpt lat="42.787939956689904" lon="10.360492777725701"><ele>98.2</ele><time>2026-04-25T13:02:59.95Z</time></trkpt><trkpt lat="42.788005563533936" lon="10.360458274245678"><ele>96.6</ele><time>2026-04-25T13:03:00.949Z</time></trkpt><trkpt lat="42.78809331132451" lon="10.360422921489874"><ele>95.0</ele><time>2026-04-25T13:03:02.949Z</time></trkpt><trkpt lat="42.78819824546071" lon="10.360355204960356"><ele>95.0</ele><time>2026-04-25T13:03:04.949Z</time></trkpt><trkpt lat="42.788266775733824" lon="10.36034064348435"><ele>95.0</ele><time>2026-04-25T13:03:05.949Z</time></trkpt><trkpt lat="42.78835493403629" lon="10.36029980217285"><ele>95.0</ele><time>2026-04-25T13:03:07.949Z</time></trkpt><trkpt lat="42.7884218170064" lon="10.360268324552207"><ele>95.0</ele><time>2026-04-25T13:03:13.949Z</time></trkpt><trkpt lat="42.788484166890164" lon="10.360240274248829"><ele>95.0</ele><time>2026-04-25T13:03:16.949Z</time></trkpt><trkpt lat="42.788541486935316" lon="10.360176765412522"><ele>95.0</ele><time>2026-04-25T13:03:19.949Z</time></trkpt><trkpt lat="42.78858211828636" lon="10.360110963200384"><ele>95.0</ele><time>2026-04-25T13:03:26.949Z</time></trkpt><trkpt lat="42.78855310142555" lon="10.360018180567012"><ele>93.5</ele><time>2026-04-25T13:03:29.949Z</time></trkpt><trkpt lat="42.78859150509881" lon="10.359934711804343"><ele>92.0</ele><time>2026-04-25T13:03:32.949Z</time></trkpt><trkpt lat="42.788617204701204" lon="10.359833681287176"><ele>90.5</ele><time>2026-04-25T13:03:35.949Z</time></trkpt><trkpt lat="42.788692895844626" lon="10.359814934295603"><ele>89.0</ele><time>2026-04-25T13:03:38.949Z</time></trkpt><trkpt lat="42.78876702125402" lon="10.359807168833205"><ele>87.5</ele><time>2026-04-25T13:03:40.949Z</time></trkpt><trkpt lat="42.788841313148495" lon="10.359775587172818"><ele>86.0</ele><time>2026-04-25T13:03:42.949Z</time></trkpt><trkpt lat="42.78890297781815" lon="10.359659974709874"><ele>84.83333333333334</ele><time>2026-04-25T13:03:46.949Z</time></trkpt><trkpt lat="42.78893902234574" lon="10.359546936486154"><ele>83.66666666666667</ele><time>2026-04-25T13:03:48.949Z</time></trkpt><trkpt lat="42.78898357138833" lon="10.359445150135588"><ele>82.5</ele><time>2026-04-25T13:03:50.949Z</time></trkpt><trkpt lat="42.78902290531646" lon="10.359372601695055"><ele>81.33333333333333</ele><time>2026-04-25T13:03:51.949Z</time></trkpt><trkpt lat="42.78905781596435" lon="10.35929833368451"><ele>80.16666666666666</ele><time>2026-04-25T13:03:52.949Z</time></trkpt><trkpt lat="42.78909639292407" lon="10.359196474697779"><ele>79.0</ele><time>2026-04-25T13:03:54.949Z</time></trkpt><trkpt lat="42.78915044602242" lon="10.359149156481745"><ele>79.0</ele><time>2026-04-25T13:03:56.949Z</time></trkpt><trkpt lat="42.789242779981684" lon="10.35910427079183"><ele>79.0</ele><time>2026-04-25T13:03:59.949Z</time></trkpt><trkpt lat="42.789276053812124" lon="10.359017398901228"><ele>79.0</ele><time>2026-04-25T13:04:01.949Z</time></trkpt><trkpt lat="42.78931074468553" lon="10.358920279745966"><ele>79.0</ele><time>2026-04-25T13:04:03.949Z</time></trkpt><trkpt lat="42.78938187591387" lon="10.358849853386063"><ele>79.0</ele><time>2026-04-25T13:04:05.949Z</time></trkpt><trkpt lat="42.78943158887673" lon="10.358765157999963"><ele>79.0</ele><time>2026-04-25T13:04:07.949Z</time></trkpt><trkpt lat="42.78950957411637" lon="10.35864851592886"><ele>77.83333333333333</ele><time>2026-04-25T13:04:10.949Z</time></trkpt><trkpt lat="42.78959092469219" lon="10.358593052539675"><ele>76.66666666666666</ele><time>2026-04-25T13:04:11.949Z</time></trkpt><trkpt lat="42.7896911001617" lon="10.358505761324425"><ele>75.5</ele><time>2026-04-25T13:04:13.949Z</time></trkpt><trkpt lat="42.789744121600926" lon="10.358401109392561"><ele>74.33333333333333</ele><time>2026-04-25T13:04:15.948Z</time></trkpt><trkpt lat="42.789812968104165" lon="10.358376299747594"><ele>73.16666666666667</ele><time>2026-04-25T13:04:17.948Z</time></trkpt><trkpt lat="42.78987563983048" lon="10.358336378415403"><ele>72.0</ele><time>2026-04-25T13:04:20.948Z</time></trkpt><trkpt lat="42.789940715019576" lon="10.35829601089807"><ele>72.0</ele><time>2026-04-25T13:04:22.948Z</time></trkpt><trkpt lat="42.78997926600797" lon="10.358179817596373"><ele>72.0</ele><time>2026-04-25T13:04:24.948Z</time></trkpt><trkpt lat="42.7899765884732" lon="10.358042853304667"><ele>72.0</ele><time>2026-04-25T13:04:26.948Z</time></trkpt><trkpt lat="42.789973071758475" lon="10.3579245751302"><ele>72.0</ele><time>2026-04-25T13:04:28.948Z</time></trkpt><trkpt lat="42.79005691488066" lon="10.357596558627284"><ele>71.16666666666667</ele><time>2026-04-25T13:04:40.948Z</time></trkpt><trkpt lat="42.7900800779281" lon="10.357515275519718"><ele>70.33333333333333</ele><time>2026-04-25T13:04:41.948Z</time></trkpt><trkpt lat="42.79009404761364" lon="10.357360575862621"><ele>69.5</ele><time>2026-04-25T13:04:43.948Z</time></trkpt><trkpt lat="42.790124272030155" lon="10.35728496899148"><ele>68.66666666666666</ele><time>2026-04-25T13:04:44.948Z</time></trkpt><trkpt lat="42.79014626570199" lon="10.357200993889524"><ele>67.83333333333333</ele><time>2026-04-25T13:04:45.948Z</time></trkpt><trkpt lat="42.79016362483557" lon="10.357110361356101"><ele>67.0</ele><time>2026-04-25T13:04:46.948Z</time></trkpt><trkpt lat="42.790203847900514" lon="10.357007166862571"><ele>65.33333333333333</ele><time>2026-04-25T13:04:47.948Z</time></trkpt><trkpt lat="42.790244243698396" lon="10.356892033597322"><ele>63.666666666666664</ele><time>2026-04-25T13:04:48.948Z</time></trkpt><trkpt lat="42.790264837051595" lon="10.356803859110913"><ele>62.0</ele><time>2026-04-25T13:04:49.948Z</time></trkpt><trkpt lat="42.790236975837495" lon="10.356715146493654"><ele>60.33333333333333</ele><time>2026-04-25T13:05:06.95Z</time></trkpt><trkpt lat="42.79017576146237" lon="10.356735185853799"><ele>58.666666666666664</ele><time>2026-04-25T13:05:10.95Z</time></trkpt><trkpt lat="42.79007536857336" lon="10.356724694204557"><ele>57.0</ele><time>2026-04-25T13:05:12.95Z</time></trkpt><trkpt lat="42.790013873332235" lon="10.356704163518916"><ele>57.0</ele><time>2026-04-25T13:05:13.95Z</time></trkpt><trkpt lat="42.789915248798344" lon="10.35661527605145"><ele>57.0</ele><time>2026-04-25T13:05:15.95Z</time></trkpt><trkpt lat="42.78985207093174" lon="10.35650772018349"><ele>57.0</ele><time>2026-04-25T13:05:17.95Z</time></trkpt><trkpt lat="42.78973331751597" lon="10.356410123178893"><ele>57.0</ele><time>2026-04-25T13:05:19.95Z</time></trkpt><trkpt lat="42.789656528503855" lon="10.356364234067026"><ele>57.0</ele><time>2026-04-25T13:05:20.95Z</time></trkpt><trkpt lat="42.78957870557351" lon="10.356314026137953"><ele>55.833333333333336</ele><time>2026-04-25T13:05:21.95Z</time></trkpt><trkpt lat="42.789504861558555" lon="10.356261423527696"><ele>54.66666666666667</ele><time>2026-04-25T13:05:22.95Z</time></trkpt><trkpt lat="42.789448025125694" lon="10.356216547081596"><ele>53.5</ele><time>2026-04-25T13:05:23.95Z</time></trkpt><trkpt lat="42.78937167965451" lon="10.356126983896612"><ele>52.333333333333336</ele><time>2026-04-25T13:05:25.95Z</time></trkpt><trkpt lat="42.78929411145435" lon="10.356019594811263"><ele>51.16666666666667</ele><time>2026-04-25T13:05:27.95Z</time></trkpt><trkpt lat="42.78924459017979" lon="10.355954359132012"><ele>50.0</ele><time>2026-04-25T13:05:28.95Z</time></trkpt><trkpt lat="42.78918076767166" lon="10.355899503143025"><ele>46.8</ele><time>2026-04-25T13:05:29.95Z</time></trkpt><trkpt lat="42.78907845979507" lon="10.355883185610546"><ele>43.6</ele><time>2026-04-25T13:05:31.95Z</time></trkpt><trkpt lat="42.78897453132229" lon="10.355911897641683"><ele>40.4</ele><time>2026-04-25T13:05:33.95Z</time></trkpt><trkpt lat="42.78892820210126" lon="10.355817893991325"><ele>37.2</ele><time>2026-04-25T13:05:36.95Z</time></trkpt><trkpt lat="42.7888932425585" lon="10.355681191150904"><ele>34.0</ele><time>2026-04-25T13:05:38.95Z</time></trkpt><trkpt lat="42.78892963487931" lon="10.355525227557516"><ele>32.833333333333336</ele><time>2026-04-25T13:05:40.95Z</time></trkpt><trkpt lat="42.788965386217285" lon="10.3554247023921"><ele>31.666666666666668</ele><time>2026-04-25T13:05:41.95Z</time></trkpt><trkpt lat="42.789001278557066" lon="10.355341455679948"><ele>30.5</ele><time>2026-04-25T13:05:42.95Z</time></trkpt><trkpt lat="42.789031675141786" lon="10.355253924815417"><ele>29.333333333333336</ele><time>2026-04-25T13:05:43.95Z</time></trkpt><trkpt lat="42.78905969134944" lon="10.355172625466757"><ele>28.166666666666668</ele><time>2026-04-25T13:05:44.95Z</time></trkpt><trkpt lat="42.7891318191609" lon="10.35503154656831"><ele>27.0</ele><time>2026-04-25T13:05:46.95Z</time></trkpt><trkpt lat="42.789165576590754" lon="10.354926719850814"><ele>27.0</ele><time>2026-04-25T13:05:48.95Z</time></trkpt><trkpt lat="42.78912358179027" lon="10.354760696065892"><ele>27.000000000000004</ele><time>2026-04-25T13:05:50.95Z</time></trkpt><trkpt lat="42.78910054277425" lon="10.35466443461502"><ele>27.000000000000004</ele><time>2026-04-25T13:05:51.95Z</time></trkpt><trkpt lat="42.78908240521577" lon="10.354559309544568"><ele>27.0</ele><time>2026-04-25T13:05:52.95Z</time></trkpt><trkpt lat="42.78908154559308" lon="10.354467474262947"><ele>27.0</ele><time>2026-04-25T13:05:53.95Z</time></trkpt><trkpt lat="42.789146249868644" lon="10.354316648148018"><ele>26.0</ele><time>2026-04-25T13:05:55.95Z</time></trkpt><trkpt lat="42.78920801127543" lon="10.35423256153419"><ele>25.000000000000004</ele><time>2026-04-25T13:05:56.95Z</time></trkpt><trkpt lat="42.789283648484826" lon="10.354133416710209"><ele>24.0</ele><time>2026-04-25T13:05:58.95Z</time></trkpt><trkpt lat="42.78935005183787" lon="10.354109940305399"><ele>23.0</ele><time>2026-04-25T13:06:01.95Z</time></trkpt><trkpt lat="42.7893917392843" lon="10.354223897074617"><ele>22.0</ele><time>2026-04-25T13:06:19.95Z</time></trkpt><trkpt lat="42.78956112049684" lon="10.354195426826664"><ele>25.5</ele><time>2026-04-25T13:06:24.95Z</time></trkpt><trkpt lat="42.789679163581134" lon="10.354218642016955"><ele>29.0</ele><time>2026-04-25T13:06:27.95Z</time></trkpt><trkpt lat="42.78978145387727" lon="10.35424385324418"><ele>32.5</ele><time>2026-04-25T13:06:29.95Z</time></trkpt><trkpt lat="42.78989940143025" lon="10.35426971443031"><ele>36.0</ele><time>2026-04-25T13:06:31.95Z</time></trkpt><trkpt lat="42.79000690817501" lon="10.354268635099698"><ele>36.0</ele><time>2026-04-25T13:06:33.95Z</time></trkpt><trkpt lat="42.790083968198985" lon="10.354255452245509"><ele>36.0</ele><time>2026-04-25T13:06:35.95Z</time></trkpt><trkpt lat="42.790152932233696" lon="10.354265683378953"><ele>36.0</ele><time>2026-04-25T13:06:37.95Z</time></trkpt><trkpt lat="42.79021768985229" lon="10.354271492571977"><ele>36.0</ele><time>2026-04-25T13:06:39.95Z</time></trkpt><trkpt lat="42.790309638000686" lon="10.354257716704874"><ele>36.0</ele><time>2026-04-25T13:06:43.95Z</time></trkpt><trkpt lat="42.790382397968884" lon="10.354258551162141"><ele>36.0</ele><time>2026-04-25T13:06:46.95Z</time></trkpt><trkpt lat="42.79045360148313" lon="10.354276841135562"><ele>39.5</ele><time>2026-04-25T13:06:49.949Z</time></trkpt><trkpt lat="42.79052758077179" lon="10.354275283665137"><ele>43.0</ele><time>2026-04-25T13:06:52.949Z</time></trkpt><trkpt lat="42.790609067696565" lon="10.354255802055325"><ele>46.5</ele><time>2026-04-25T13:06:57.949Z</time></trkpt><trkpt lat="42.79068044785359" lon="10.354286972103608"><ele>50.0</ele><time>2026-04-25T13:07:02.952Z</time></trkpt><trkpt lat="42.79075182314675" lon="10.354292797561287"><ele>53.5</ele><time>2026-04-25T13:07:06.951Z</time></trkpt><trkpt lat="42.79082839950932" lon="10.354316753137455"><ele>57.0</ele><time>2026-04-25T13:07:09.951Z</time></trkpt><trkpt lat="42.79091587178345" lon="10.354368928590615"><ele>57.0</ele><time>2026-04-25T13:07:12.951Z</time></trkpt><trkpt lat="42.7909783125445" lon="10.354404664736155"><ele>57.0</ele><time>2026-04-25T13:07:19.951Z</time></trkpt><trkpt lat="42.79108050463583" lon="10.354447456541171"><ele>57.0</ele><time>2026-04-25T13:07:31.951Z</time></trkpt><trkpt lat="42.791060821728514" lon="10.354574119341713"><ele>57.0</ele><time>2026-04-25T13:07:36.951Z</time></trkpt><trkpt lat="42.7910390741811" lon="10.354668835868933"><ele>57.0</ele><time>2026-04-25T13:07:38.951Z</time></trkpt><trkpt lat="42.79104607778546" lon="10.354779795785994"><ele>57.0</ele><time>2026-04-25T13:07:40.951Z</time></trkpt><trkpt lat="42.79106562342634" lon="10.354915932566458"><ele>57.333333333333336</ele><time>2026-04-25T13:07:42.951Z</time></trkpt><trkpt lat="42.791074749947896" lon="10.355005765321009"><ele>57.66666666666667</ele><time>2026-04-25T13:07:44.951Z</time></trkpt><trkpt lat="42.791057813470545" lon="10.35511398699272"><ele>58.0</ele><time>2026-04-25T13:07:47.951Z</time></trkpt><trkpt lat="42.791039240014186" lon="10.355203210364293"><ele>58.333333333333336</ele><time>2026-04-25T13:07:49.951Z</time></trkpt><trkpt lat="42.79100022026258" lon="10.355307709819739"><ele>58.66666666666667</ele><time>2026-04-25T13:07:51.951Z</time></trkpt><trkpt lat="42.79098339498169" lon="10.355420991320807"><ele>59.0</ele><time>2026-04-25T13:07:53.951Z</time></trkpt><trkpt lat="42.790958620125956" lon="10.355511907565036"><ele>59.333333333333336</ele><time>2026-04-25T13:07:56.951Z</time></trkpt><trkpt lat="42.790877654237924" lon="10.355563340626862"><ele>59.66666666666667</ele><time>2026-04-25T13:07:59.951Z</time></trkpt><trkpt lat="42.79084031027377" lon="10.355636149190564"><ele>60.0</ele><time>2026-04-25T13:08:01.951Z</time></trkpt><trkpt lat="42.7907957638822" lon="10.355709907835854"><ele>60.33333333333333</ele><time>2026-04-25T13:08:03.951Z</time></trkpt><trkpt lat="42.790705120827596" lon="10.355764950533723"><ele>60.666666666666664</ele><time>2026-04-25T13:08:06.951Z</time></trkpt><trkpt lat="42.79065693547652" lon="10.35586267608471"><ele>61.0</ele><time>2026-04-25T13:08:09.951Z</time></trkpt><trkpt lat="42.79062235483083" lon="10.355972077162354"><ele>60.99999999999999</ele><time>2026-04-25T13:08:13.951Z</time></trkpt><trkpt lat="42.7905896470964" lon="10.356075761105204"><ele>61.0</ele><time>2026-04-25T13:08:16.951Z</time></trkpt><trkpt lat="42.790543199163224" lon="10.356189907383975"><ele>61.0</ele><time>2026-04-25T13:08:19.951Z</time></trkpt><trkpt lat="42.79050438748929" lon="10.356306891807291"><ele>61.0</ele><time>2026-04-25T13:08:22.951Z</time></trkpt><trkpt lat="42.79046654254835" lon="10.356402155188201"><ele>60.99999999999999</ele><time>2026-04-25T13:08:25.951Z</time></trkpt><trkpt lat="42.79042178990284" lon="10.356466309637762"><ele>61.0</ele><time>2026-04-25T13:08:27.951Z</time></trkpt><trkpt lat="42.790378423644704" lon="10.356532860190026"><ele>60.33333333333333</ele><time>2026-04-25T13:08:33.951Z</time></trkpt><trkpt lat="42.7903288223218" lon="10.356602524319982"><ele>59.666666666666664</ele><time>2026-04-25T13:08:41.951Z</time></trkpt><trkpt lat="42.79027774597891" lon="10.356747053896237"><ele>59.0</ele><time>2026-04-25T13:11:52.952Z</time></trkpt><trkpt lat="42.79026673350216" lon="10.356841684973633"><ele>58.33333333333333</ele><time>2026-04-25T13:12:52.952Z</time></trkpt><trkpt lat="42.79023275644733" lon="10.35692996594951"><ele>57.666666666666664</ele><time>2026-04-25T13:12:54.952Z</time></trkpt><trkpt lat="42.79019783395098" lon="10.357026154826743"><ele>57.0</ele><time>2026-04-25T13:12:57.952Z</time></trkpt><trkpt lat="42.79015811504896" lon="10.357127730333675"><ele>58.666666666666664</ele><time>2026-04-25T13:12:59.952Z</time></trkpt><trkpt lat="42.79015141852783" lon="10.357221555351304"><ele>60.33333333333333</ele><time>2026-04-25T13:13:01.952Z</time></trkpt><trkpt lat="42.790116963719676" lon="10.357343139986103"><ele>62.0</ele><time>2026-04-25T13:13:03.952Z</time></trkpt><trkpt lat="42.79008788722417" lon="10.357450719447598"><ele>63.666666666666664</ele><time>2026-04-25T13:13:04.952Z</time></trkpt><trkpt lat="42.7900726189498" lon="10.357582079056995"><ele>65.33333333333333</ele><time>2026-04-25T13:13:05.952Z</time></trkpt><trkpt lat="42.79008430799292" lon="10.357671783065655"><ele>67.0</ele><time>2026-04-25T13:13:06.952Z</time></trkpt><trkpt lat="42.7900980204129" lon="10.357789549025588"><ele>67.0</ele><time>2026-04-25T13:13:08.952Z</time></trkpt><trkpt lat="42.790110402033335" lon="10.357906566394506"><ele>67.0</ele><time>2026-04-25T13:13:10.952Z</time></trkpt><trkpt lat="42.79008717149089" lon="10.357994896959728"><ele>67.0</ele><time>2026-04-25T13:13:12.952Z</time></trkpt><trkpt lat="42.79003552709566" lon="10.35808782241734"><ele>67.0</ele><time>2026-04-25T13:13:16.952Z</time></trkpt><trkpt lat="42.789985905368624" lon="10.358159522389945"><ele>67.0</ele><time>2026-04-25T13:13:19.953Z</time></trkpt><trkpt lat="42.78990650730592" lon="10.358279249916118"><ele>67.0</ele><time>2026-04-25T13:13:21.954Z</time></trkpt><trkpt lat="42.789852266447205" lon="10.358381570248604"><ele>67.83333333333333</ele><time>2026-04-25T13:13:23.954Z</time></trkpt><trkpt lat="42.789769058732674" lon="10.358416464352347"><ele>68.66666666666666</ele><time>2026-04-25T13:13:25.953Z</time></trkpt><trkpt lat="42.789672269273346" lon="10.35849954202128"><ele>69.5</ele><time>2026-04-25T13:13:27.953Z</time></trkpt><trkpt lat="42.7896241392958" lon="10.358573234118785"><ele>70.33333333333333</ele><time>2026-04-25T13:13:29.953Z</time></trkpt><trkpt lat="42.78960264159889" lon="10.358657470358038"><ele>71.16666666666667</ele><time>2026-04-25T13:13:32.954Z</time></trkpt><trkpt lat="42.7895537507865" lon="10.358725519684228"><ele>72.0</ele><time>2026-04-25T13:13:33.954Z</time></trkpt><trkpt lat="42.78949488884856" lon="10.358801029222516"><ele>73.16666666666667</ele><time>2026-04-25T13:13:35.954Z</time></trkpt><trkpt lat="42.78945539092583" lon="10.358886039108555"><ele>74.33333333333333</ele><time>2026-04-25T13:13:37.954Z</time></trkpt><trkpt lat="42.7893873080393" lon="10.358998151484581"><ele>75.5</ele><time>2026-04-25T13:13:39.954Z</time></trkpt><trkpt lat="42.78929781029872" lon="10.359044945552816"><ele>76.66666666666666</ele><time>2026-04-25T13:13:42.954Z</time></trkpt><trkpt lat="42.789222962616265" lon="10.35909683095592"><ele>77.83333333333333</ele><time>2026-04-25T13:13:44.954Z</time></trkpt><trkpt lat="42.78918608956255" lon="10.359196368841351"><ele>79.0</ele><time>2026-04-25T13:13:46.954Z</time></trkpt><trkpt lat="42.78914900186004" lon="10.35929858639014"><ele>79.0</ele><time>2026-04-25T13:13:47.954Z</time></trkpt><trkpt lat="42.789101089720525" lon="10.359395812354064"><ele>79.0</ele><time>2026-04-25T13:13:49.954Z</time></trkpt><trkpt lat="42.7890557501533" lon="10.35949699025642"><ele>79.0</ele><time>2026-04-25T13:13:51.954Z</time></trkpt><trkpt lat="42.788988814941725" lon="10.35955236072446"><ele>79.0</ele><time>2026-04-25T13:13:53.954Z</time></trkpt><trkpt lat="42.78897366530699" lon="10.359642852462931"><ele>79.0</ele><time>2026-04-25T13:13:56.954Z</time></trkpt><trkpt lat="42.788904635751024" lon="10.359632442517054"><ele>79.0</ele><time>2026-04-25T13:13:58.954Z</time></trkpt><trkpt lat="42.788837390837365" lon="10.359671935608914"><ele>80.16666666666666</ele><time>2026-04-25T13:14:00.954Z</time></trkpt><trkpt lat="42.78877324830959" lon="10.359721019326809"><ele>81.33333333333333</ele><time>2026-04-25T13:14:02.954Z</time></trkpt><trkpt lat="42.78875445148933" lon="10.35985768599068"><ele>82.5</ele><time>2026-04-25T13:14:05.954Z</time></trkpt><trkpt lat="42.78872077890011" lon="10.359934817699157"><ele>83.66666666666667</ele><time>2026-04-25T13:14:08.954Z</time></trkpt><trkpt lat="42.78864129887137" lon="10.360047575068103"><ele>84.83333333333334</ele><time>2026-04-25T13:14:11.954Z</time></trkpt><trkpt lat="42.78859422017698" lon="10.360121329026155"><ele>86.0</ele><time>2026-04-25T13:14:12.954Z</time></trkpt><trkpt lat="42.78850397062064" lon="10.360158767825837"><ele>87.8</ele><time>2026-04-25T13:14:14.954Z</time></trkpt><trkpt lat="42.78841217453439" lon="10.360231556863171"><ele>89.6</ele><time>2026-04-25T13:14:16.954Z</time></trkpt><trkpt lat="42.78830513597165" lon="10.360282499437808"><ele>91.4</ele><time>2026-04-25T13:14:18.954Z</time></trkpt><trkpt lat="42.7882403856971" lon="10.360322024937277"><ele>93.2</ele><time>2026-04-25T13:14:19.954Z</time></trkpt><trkpt lat="42.78814843435029" lon="10.360377941120342"><ele>95.0</ele><time>2026-04-25T13:14:21.954Z</time></trkpt><trkpt lat="42.78806866554646" lon="10.360462196454229"><ele>95.0</ele><time>2026-04-25T13:14:23.954Z</time></trkpt><trkpt lat="42.78803066436776" lon="10.36053059389049"><ele>95.0</ele><time>2026-04-25T13:14:24.954Z</time></trkpt><trkpt lat="42.78796619394632" lon="10.360630050920326"><ele>95.0</ele><time>2026-04-25T13:14:26.954Z</time></trkpt><trkpt lat="42.78789470356111" lon="10.360716073469856"><ele>95.0</ele><time>2026-04-25T13:14:28.954Z</time></trkpt><trkpt lat="42.787808057345224" lon="10.360800216848569"><ele>95.0</ele><time>2026-04-25T13:14:30.954Z</time></trkpt><trkpt lat="42.78773120095927" lon="10.3607409903859"><ele>94.71428571428572</ele><time>2026-04-25T13:14:32.954Z</time></trkpt><trkpt lat="42.78770457922127" lon="10.360650628727488"><ele>94.42857142857143</ele><time>2026-04-25T13:14:34.954Z</time></trkpt><trkpt lat="42.787640402510974" lon="10.360647431092463"><ele>94.14285714285714</ele><time>2026-04-25T13:14:36.954Z</time></trkpt><trkpt lat="42.78759404587723" lon="10.36072170838149"><ele>93.85714285714286</ele><time>2026-04-25T13:14:39.954Z</time></trkpt><trkpt lat="42.78754415234467" lon="10.360796476736557"><ele>93.57142857142857</ele><time>2026-04-25T13:14:42.954Z</time></trkpt><trkpt lat="42.787464384066034" lon="10.360819050796984"><ele>93.28571428571429</ele><time>2026-04-25T13:14:46.954Z</time></trkpt><trkpt lat="42.78738329870633" lon="10.360798511959631"><ele>93.0</ele><time>2026-04-25T13:14:48.954Z</time></trkpt><trkpt lat="42.78730692795656" lon="10.3607629438942"><ele>94.66666666666667</ele><time>2026-04-25T13:14:50.954Z</time></trkpt><trkpt lat="42.787238328280104" lon="10.360743497481414"><ele>96.33333333333334</ele><time>2026-04-25T13:14:52.954Z</time></trkpt><trkpt lat="42.787118372875064" lon="10.360705933001782"><ele>98.0</ele><time>2026-04-25T13:14:54.954Z</time></trkpt><trkpt lat="42.7870405840465" lon="10.360676548695865"><ele>99.66666666666667</ele><time>2026-04-25T13:14:56.954Z</time></trkpt><trkpt lat="42.78698357073879" lon="10.360622639362582"><ele>101.33333333333334</ele><time>2026-04-25T13:14:58.954Z</time></trkpt><trkpt lat="42.78691262350198" lon="10.360588162834844"><ele>103.0</ele><time>2026-04-25T13:15:01.953Z</time></trkpt><trkpt lat="42.78683523577989" lon="10.360570885934736"><ele>104.83333333333334</ele><time>2026-04-25T13:15:04.953Z</time></trkpt><trkpt lat="42.78676125798707" lon="10.360564843726944"><ele>106.66666666666667</ele><time>2026-04-25T13:15:08.953Z</time></trkpt><trkpt lat="42.786677524394676" lon="10.360514560159777"><ele>108.5</ele><time>2026-04-25T13:15:11.953Z</time></trkpt><trkpt lat="42.78663290785896" lon="10.36042195499742"><ele>110.33333333333334</ele><time>2026-04-25T13:15:13.953Z</time></trkpt><trkpt lat="42.78656980243104" lon="10.360369836158961"><ele>112.16666666666667</ele><time>2026-04-25T13:15:15.953Z</time></trkpt><trkpt lat="42.78653633636645" lon="10.360275530167042"><ele>114.0</ele><time>2026-04-25T13:15:17.953Z</time></trkpt><trkpt lat="42.78647840644532" lon="10.3601866800224"><ele>110.33333333333333</ele><time>2026-04-25T13:15:19.953Z</time></trkpt><trkpt lat="42.786416520552045" lon="10.360109199152053"><ele>106.66666666666667</ele><time>2026-04-25T13:15:21.953Z</time></trkpt><trkpt lat="42.78634998646135" lon="10.360042785743765"><ele>103.0</ele><time>2026-04-25T13:15:23.954Z</time></trkpt><trkpt lat="42.7862904819075" lon="10.359967685905179"><ele>99.33333333333334</ele><time>2026-04-25T13:15:25.954Z</time></trkpt><trkpt lat="42.78622950987957" lon="10.3598919973927"><ele>95.66666666666667</ele><time>2026-04-25T13:15:27.955Z</time></trkpt><trkpt lat="42.78616956249709" lon="10.359781604051745"><ele>92.0</ele><time>2026-04-25T13:15:29.955Z</time></trkpt><trkpt lat="42.78608587198927" lon="10.359684139781951"><ele>93.0</ele><time>2026-04-25T13:15:31.954Z</time></trkpt><trkpt lat="42.78602234535328" lon="10.359593589682731"><ele>94.0</ele><time>2026-04-25T13:15:33.955Z</time></trkpt><trkpt lat="42.785948177017275" lon="10.359519826333614"><ele>95.0</ele><time>2026-04-25T13:15:36.954Z</time></trkpt><trkpt lat="42.78588671809048" lon="10.359471528142834"><ele>96.0</ele><time>2026-04-25T13:15:39.954Z</time></trkpt><trkpt lat="42.78578508633115" lon="10.359416510512599"><ele>96.99999999999999</ele><time>2026-04-25T13:15:41.954Z</time></trkpt><trkpt lat="42.78571569848911" lon="10.359399020534532"><ele>98.0</ele><time>2026-04-25T13:15:43.954Z</time></trkpt><trkpt lat="42.78564985932634" lon="10.359363488471635"><ele>97.99999999999999</ele><time>2026-04-25T13:15:45.954Z</time></trkpt><trkpt lat="42.78557542283101" lon="10.35929642636314"><ele>98.0</ele><time>2026-04-25T13:15:47.953Z</time></trkpt><trkpt lat="42.78550367092437" lon="10.359253743576941"><ele>98.0</ele><time>2026-04-25T13:15:49.951Z</time></trkpt><trkpt lat="42.78543619019942" lon="10.359181215519186"><ele>98.0</ele><time>2026-04-25T13:15:51.95Z</time></trkpt><trkpt lat="42.78537840247161" lon="10.3591250268761"><ele>97.99999999999999</ele><time>2026-04-25T13:15:52.949Z</time></trkpt><trkpt lat="42.78529077269409" lon="10.359050854827144"><ele>98.0</ele><time>2026-04-25T13:15:54.948Z</time></trkpt><trkpt lat="42.7851814255649" lon="10.358987814268948"><ele>98.16666666666666</ele><time>2026-04-25T13:15:56.947Z</time></trkpt><trkpt lat="42.78512655591508" lon="10.358940997325014"><ele>98.33333333333333</ele><time>2026-04-25T13:15:57.946Z</time></trkpt><trkpt lat="42.78504873845308" lon="10.358905032327876"><ele>98.5</ele><time>2026-04-25T13:15:59.945Z</time></trkpt><trkpt lat="42.78497197941049" lon="10.358864505084632"><ele>98.66666666666666</ele><time>2026-04-25T13:16:01.944Z</time></trkpt><trkpt lat="42.78489146702513" lon="10.358847070762083"><ele>98.83333333333333</ele><time>2026-04-25T13:16:03.944Z</time></trkpt><trkpt lat="42.78482750232998" lon="10.358852085980104"><ele>99.0</ele><time>2026-04-25T13:16:05.943Z</time></trkpt><trkpt lat="42.78475571307497" lon="10.35888738749306"><ele>99.0</ele><time>2026-04-25T13:16:07.942Z</time></trkpt><trkpt lat="42.784693490125825" lon="10.358905143327663"><ele>99.0</ele><time>2026-04-25T13:16:09.942Z</time></trkpt><trkpt lat="42.78461013884948" lon="10.358872908518578"><ele>99.0</ele><time>2026-04-25T13:16:12.941Z</time></trkpt><trkpt lat="42.78456713863765" lon="10.358795050427123"><ele>99.0</ele><time>2026-04-25T13:16:14.941Z</time></trkpt><trkpt lat="42.78453748381145" lon="10.358697716513584"><ele>99.0</ele><time>2026-04-25T13:16:17.941Z</time></trkpt><trkpt lat="42.784632295498" lon="10.358730276971338"><ele>99.0</ele><time>2026-04-25T13:16:48.938Z</time></trkpt><trkpt lat="42.78457231847589" lon="10.358687421757276"><ele>97.80000000000001</ele><time>2026-04-25T13:16:49.938Z</time></trkpt><trkpt lat="42.78450471280922" lon="10.358638948920293"><ele>96.60000000000001</ele><time>2026-04-25T13:16:52.938Z</time></trkpt><trkpt lat="42.78450447953714" lon="10.35853129836535"><ele>95.4</ele><time>2026-04-25T13:17:32.94Z</time></trkpt><trkpt lat="42.78452924360922" lon="10.358366224834914"><ele>94.2</ele><time>2026-04-25T13:17:34.94Z</time></trkpt><trkpt lat="42.78456142267884" lon="10.35817348026182"><ele>93.0</ele><time>2026-04-25T13:17:36.94Z</time></trkpt><trkpt lat="42.78462394111912" lon="10.358084696201784"><ele>91.66666666666667</ele><time>2026-04-25T13:17:37.94Z</time></trkpt><trkpt lat="42.78461257565604" lon="10.357970611004221"><ele>90.33333333333333</ele><time>2026-04-25T13:17:38.94Z</time></trkpt><trkpt lat="42.78460216640694" lon="10.35786042926548"><ele>89.0</ele><time>2026-04-25T13:17:39.94Z</time></trkpt><trkpt lat="42.78459440597421" lon="10.357740399956967"><ele>87.66666666666666</ele><time>2026-04-25T13:17:40.94Z</time></trkpt><trkpt lat="42.78458869527204" lon="10.357636259770821"><ele>86.33333333333333</ele><time>2026-04-25T13:17:41.94Z</time></trkpt><trkpt lat="42.78458339621172" lon="10.357541299010391"><ele>85.0</ele><time>2026-04-25T13:17:42.94Z</time></trkpt><trkpt lat="42.784547857309086" lon="10.357396793919317"><ele>85.0</ele><time>2026-04-25T13:17:44.94Z</time></trkpt><trkpt lat="42.78449995392404" lon="10.357261554911815"><ele>85.0</ele><time>2026-04-25T13:17:46.94Z</time></trkpt><trkpt lat="42.784449430483335" lon="10.357196601580597"><ele>85.0</ele><time>2026-04-25T13:17:47.94Z</time></trkpt><trkpt lat="42.78434836965803" lon="10.357184093388604"><ele>85.0</ele><time>2026-04-25T13:17:49.94Z</time></trkpt><trkpt lat="42.784285105574675" lon="10.35718026103232"><ele>85.0</ele><time>2026-04-25T13:17:50.94Z</time></trkpt><trkpt lat="42.78417515241156" lon="10.357180298400843"><ele>86.0</ele><time>2026-04-25T13:17:52.94Z</time></trkpt><trkpt lat="42.78406537839925" lon="10.357035578619927"><ele>87.0</ele><time>2026-04-25T13:17:54.94Z</time></trkpt><trkpt lat="42.783986102571376" lon="10.356950860646466"><ele>88.0</ele><time>2026-04-25T13:17:55.94Z</time></trkpt><trkpt lat="42.783909751312635" lon="10.356864967102815"><ele>89.0</ele><time>2026-04-25T13:17:56.94Z</time></trkpt><trkpt lat="42.78383410452338" lon="10.356792404906013"><ele>90.0</ele><time>2026-04-25T13:17:57.94Z</time></trkpt><trkpt lat="42.78373521013008" lon="10.356721838808328"><ele>90.0</ele><time>2026-04-25T13:17:58.94Z</time></trkpt><trkpt lat="42.78364705077337" lon="10.356651807455034"><ele>90.0</ele><time>2026-04-25T13:17:59.94Z</time></trkpt><trkpt lat="42.78355271461961" lon="10.356580885300232"><ele>90.0</ele><time>2026-04-25T13:18:00.94Z</time></trkpt><trkpt lat="42.783464224605176" lon="10.356508539899927"><ele>90.0</ele><time>2026-04-25T13:18:01.94Z</time></trkpt><trkpt lat="42.78337888157375" lon="10.356457914012129"><ele>90.0</ele><time>2026-04-25T13:18:02.94Z</time></trkpt><trkpt lat="42.78327958565439" lon="10.356414932756946"><ele>90.25</ele><time>2026-04-25T13:18:03.94Z</time></trkpt><trkpt lat="42.78315305095857" lon="10.35636002977028"><ele>90.5</ele><time>2026-04-25T13:18:04.94Z</time></trkpt><trkpt lat="42.78304418713414" lon="10.356312086741301"><ele>90.75</ele><time>2026-04-25T13:18:05.94Z</time></trkpt><trkpt lat="42.78293117488062" lon="10.356274640300267"><ele>91.0</ele><time>2026-04-25T13:18:06.94Z</time></trkpt><trkpt lat="42.78283656348877" lon="10.356253775412"><ele>91.0</ele><time>2026-04-25T13:18:07.94Z</time></trkpt><trkpt lat="42.782736066902956" lon="10.356206748642293"><ele>91.0</ele><time>2026-04-25T13:18:08.94Z</time></trkpt><trkpt lat="42.78263156198066" lon="10.356119215896026"><ele>91.0</ele><time>2026-04-25T13:18:09.94Z</time></trkpt><trkpt lat="42.78252417865236" lon="10.356019637280518"><ele>91.0</ele><time>2026-04-25T13:18:10.94Z</time></trkpt><trkpt lat="42.78242328525867" lon="10.355922399285067"><ele>90.75</ele><time>2026-04-25T13:18:11.94Z</time></trkpt><trkpt lat="42.78232378611644" lon="10.35582251792593"><ele>90.5</ele><time>2026-04-25T13:18:12.94Z</time></trkpt><trkpt lat="42.78222862883132" lon="10.355735118861867"><ele>90.25</ele><time>2026-04-25T13:18:13.94Z</time></trkpt><trkpt lat="42.78215165214466" lon="10.35565063578468"><ele>90.0</ele><time>2026-04-25T13:18:14.94Z</time></trkpt><trkpt lat="42.78206865725547" lon="10.355536256199217"><ele>90.0</ele><time>2026-04-25T13:18:15.94Z</time></trkpt><trkpt lat="42.782000207345554" lon="10.355383292459836"><ele>90.0</ele><time>2026-04-25T13:18:16.94Z</time></trkpt><trkpt lat="42.781937887249946" lon="10.355226608529845"><ele>90.0</ele><time>2026-04-25T13:18:17.939Z</time></trkpt><trkpt lat="42.78188428217364" lon="10.355081934063788"><ele>90.0</ele><time>2026-04-25T13:18:18.939Z</time></trkpt><trkpt lat="42.781843980963984" lon="10.354956129037392"><ele>88.4</ele><time>2026-04-25T13:18:19.939Z</time></trkpt><trkpt lat="42.78181559217467" lon="10.354844445060708"><ele>86.8</ele><time>2026-04-25T13:18:20.939Z</time></trkpt><trkpt lat="42.7818066162753" lon="10.354722813290518"><ele>85.19999999999999</ele><time>2026-04-25T13:18:21.939Z</time></trkpt><trkpt lat="42.78182236969873" lon="10.354585169672141"><ele>83.6</ele><time>2026-04-25T13:18:22.939Z</time></trkpt><trkpt lat="42.78186066655625" lon="10.354442895065324"><ele>82.0</ele><time>2026-04-25T13:18:23.939Z</time></trkpt><trkpt lat="42.78190252412022" lon="10.354296788113196"><ele>82.0</ele><time>2026-04-25T13:18:24.939Z</time></trkpt><trkpt lat="42.78194657496006" lon="10.354162639089509"><ele>82.0</ele><time>2026-04-25T13:18:25.939Z</time></trkpt><trkpt lat="42.781993003529585" lon="10.354042952829108"><ele>82.0</ele><time>2026-04-25T13:18:26.939Z</time></trkpt><trkpt lat="42.782062893972345" lon="10.353932899535847"><ele>82.0</ele><time>2026-04-25T13:18:27.939Z</time></trkpt><trkpt lat="42.78215313190749" lon="10.353851190176647"><ele>82.0</ele><time>2026-04-25T13:18:28.939Z</time></trkpt><trkpt lat="42.782253303958164" lon="10.353768516273645"><ele>78.75</ele><time>2026-04-25T13:18:29.939Z</time></trkpt><trkpt lat="42.78234585546993" lon="10.353667280710416"><ele>75.5</ele><time>2026-04-25T13:18:30.939Z</time></trkpt><trkpt lat="42.78243442473897" lon="10.353522070773995"><ele>72.25</ele><time>2026-04-25T13:18:31.939Z</time></trkpt><trkpt lat="42.782512289918394" lon="10.353367520648197"><ele>69.0</ele><time>2026-04-25T13:18:32.939Z</time></trkpt><trkpt lat="42.78256648041563" lon="10.35320984485997"><ele>69.0</ele><time>2026-04-25T13:18:33.939Z</time></trkpt><trkpt lat="42.782600943116755" lon="10.353046526953838"><ele>69.0</ele><time>2026-04-25T13:18:34.939Z</time></trkpt><trkpt lat="42.78261759868401" lon="10.352889874720086"><ele>69.0</ele><time>2026-04-25T13:18:35.939Z</time></trkpt><trkpt lat="42.78262557047214" lon="10.35274435340375"><ele>69.0</ele><time>2026-04-25T13:18:36.939Z</time></trkpt><trkpt lat="42.78261877917063" lon="10.352582855459907"><ele>68.75</ele><time>2026-04-25T13:18:37.939Z</time></trkpt><trkpt lat="42.782604842702256" lon="10.352416130003968"><ele>68.5</ele><time>2026-04-25T13:18:38.939Z</time></trkpt><trkpt lat="42.78258277339775" lon="10.352258306189212"><ele>68.25</ele><time>2026-04-25T13:18:39.939Z</time></trkpt><trkpt lat="42.782552047097084" lon="10.352110674381715"><ele>68.0</ele><time>2026-04-25T13:18:40.939Z</time></trkpt><trkpt lat="42.782508334832464" lon="10.351971731377198"><ele>68.0</ele><time>2026-04-25T13:18:41.939Z</time></trkpt><trkpt lat="42.782455847152946" lon="10.351851103130793"><ele>68.0</ele><time>2026-04-25T13:18:42.939Z</time></trkpt><trkpt lat="42.78239319070686" lon="10.35173911842516"><ele>68.0</ele><time>2026-04-25T13:18:43.939Z</time></trkpt><trkpt lat="42.78231118582089" lon="10.351642079677806"><ele>68.0</ele><time>2026-04-25T13:18:44.939Z</time></trkpt><trkpt lat="42.78221123791403" lon="10.351537869305558"><ele>68.0</ele><time>2026-04-25T13:18:45.939Z</time></trkpt><trkpt lat="42.782077836161584" lon="10.351426064789301"><ele>68.66666666666667</ele><time>2026-04-25T13:18:46.939Z</time></trkpt><trkpt lat="42.78192089882878" lon="10.351304212227658"><ele>69.33333333333333</ele><time>2026-04-25T13:18:47.939Z</time></trkpt><trkpt lat="42.781772153280826" lon="10.351186358240833"><ele>70.0</ele><time>2026-04-25T13:18:48.939Z</time></trkpt><trkpt lat="42.78161146007421" lon="10.351075219734097"><ele>70.0</ele><time>2026-04-25T13:18:49.939Z</time></trkpt><trkpt lat="42.781473170866036" lon="10.350970552624345"><ele>70.0</ele><time>2026-04-25T13:18:50.939Z</time></trkpt><trkpt lat="42.78134313647895" lon="10.350870636949407"><ele>70.0</ele><time>2026-04-25T13:18:51.939Z</time></trkpt><trkpt lat="42.78122741961402" lon="10.3507687636165"><ele>70.0</ele><time>2026-04-25T13:18:52.939Z</time></trkpt><trkpt lat="42.781132274755024" lon="10.350663577613659"><ele>69.0</ele><time>2026-04-25T13:18:53.939Z</time></trkpt><trkpt lat="42.78103988200871" lon="10.35053113732087"><ele>68.0</ele><time>2026-04-25T13:18:54.939Z</time></trkpt><trkpt lat="42.78094788441412" lon="10.350383408330126"><ele>67.0</ele><time>2026-04-25T13:18:55.939Z</time></trkpt><trkpt lat="42.7808575828693" lon="10.35024025224154"><ele>66.0</ele><time>2026-04-25T13:18:56.939Z</time></trkpt><trkpt lat="42.780768303596446" lon="10.350096998346983"><ele>66.0</ele><time>2026-04-25T13:18:57.939Z</time></trkpt><trkpt lat="42.78067781665826" lon="10.349951869432903"><ele>66.0</ele><time>2026-04-25T13:18:58.939Z</time></trkpt><trkpt lat="42.78058665325525" lon="10.349799180546258"><ele>66.0</ele><time>2026-04-25T13:18:59.939Z</time></trkpt><trkpt lat="42.78049397075939" lon="10.349661631373896"><ele>66.0</ele><time>2026-04-25T13:19:00.939Z</time></trkpt><trkpt lat="42.78040108862916" lon="10.34951636551493"><ele>68.25</ele><time>2026-04-25T13:19:01.939Z</time></trkpt><trkpt lat="42.78030943008033" lon="10.349377886284179"><ele>70.5</ele><time>2026-04-25T13:19:02.939Z</time></trkpt><trkpt lat="42.78021915484264" lon="10.349231326058996"><ele>72.75</ele><time>2026-04-25T13:19:03.939Z</time></trkpt><trkpt lat="42.780136112646915" lon="10.349092478784085"><ele>75.0</ele><time>2026-04-25T13:19:04.939Z</time></trkpt><trkpt lat="42.78004642414064" lon="10.34896594373448"><ele>72.0</ele><time>2026-04-25T13:19:05.939Z</time></trkpt><trkpt lat="42.77995719914546" lon="10.348843325731206"><ele>69.0</ele><time>2026-04-25T13:19:06.939Z</time></trkpt><trkpt lat="42.779878722985856" lon="10.348727056098639"><ele>66.0</ele><time>2026-04-25T13:19:07.939Z</time></trkpt><trkpt lat="42.77979860453572" lon="10.348615920220281"><ele>63.0</ele><time>2026-04-25T13:19:08.939Z</time></trkpt><trkpt lat="42.779717927497444" lon="10.348537712226214"><ele>63.0</ele><time>2026-04-25T13:19:09.939Z</time></trkpt><trkpt lat="42.77960626504369" lon="10.348439880355048"><ele>63.0</ele><time>2026-04-25T13:19:10.939Z</time></trkpt><trkpt lat="42.77950039241165" lon="10.348350664169628"><ele>63.0</ele><time>2026-04-25T13:19:11.939Z</time></trkpt><trkpt lat="42.77940975587832" lon="10.348250282983422"><ele>63.0</ele><time>2026-04-25T13:19:12.939Z</time></trkpt><trkpt lat="42.779339694896755" lon="10.34812716721109"><ele>60.5</ele><time>2026-04-25T13:19:13.939Z</time></trkpt><trkpt lat="42.77928937594631" lon="10.348048607930421"><ele>58.0</ele><time>2026-04-25T13:19:14.939Z</time></trkpt><trkpt lat="42.77926636205199" lon="10.347968089874964"><ele>55.5</ele><time>2026-04-25T13:19:15.939Z</time></trkpt><trkpt lat="42.77923903301665" lon="10.347844603367397"><ele>53.0</ele><time>2026-04-25T13:19:16.939Z</time></trkpt><trkpt lat="42.77921480780326" lon="10.347727793996151"><ele>50.5</ele><time>2026-04-25T13:19:17.939Z</time></trkpt><trkpt lat="42.77921043423406" lon="10.347598383292361"><ele>48.0</ele><time>2026-04-25T13:19:18.939Z</time></trkpt><trkpt lat="42.77920405280735" lon="10.347472749929148"><ele>47.99999999999999</ele><time>2026-04-25T13:19:19.939Z</time></trkpt><trkpt lat="42.77919629920097" lon="10.347358804184637"><ele>48.0</ele><time>2026-04-25T13:19:20.939Z</time></trkpt><trkpt lat="42.77919374985782" lon="10.347257966722603"><ele>48.0</ele><time>2026-04-25T13:19:21.939Z</time></trkpt><trkpt lat="42.77919595621447" lon="10.347158662397366"><ele>48.0</ele><time>2026-04-25T13:19:23.939Z</time></trkpt><trkpt lat="42.779223842480185" lon="10.347072326865812"><ele>48.0</ele><time>2026-04-25T13:19:25.939Z</time></trkpt><trkpt lat="42.77927897919175" lon="10.347017920506696"><ele>47.99999999999999</ele><time>2026-04-25T13:19:27.939Z</time></trkpt><trkpt lat="42.779342277519696" lon="10.346955299018708"><ele>48.0</ele><time>2026-04-25T13:19:30.939Z</time></trkpt><trkpt lat="42.77940532921169" lon="10.346905736841702"><ele>48.5</ele><time>2026-04-25T13:19:35.94Z</time></trkpt><trkpt lat="42.77946325849679" lon="10.346822456299025"><ele>49.0</ele><time>2026-04-25T13:19:36.941Z</time></trkpt><trkpt lat="42.779549239738515" lon="10.346705702401824"><ele>49.5</ele><time>2026-04-25T13:19:37.941Z</time></trkpt><trkpt lat="42.77963807320333" lon="10.346602298921507"><ele>50.0</ele><time>2026-04-25T13:19:38.941Z</time></trkpt><trkpt lat="42.779738839028916" lon="10.346492520602917"><ele>50.0</ele><time>2026-04-25T13:19:39.94Z</time></trkpt><trkpt lat="42.779841498309814" lon="10.346390256631198"><ele>50.0</ele><time>2026-04-25T13:19:40.94Z</time></trkpt><trkpt lat="42.779953546656074" lon="10.346251147152275"><ele>50.0</ele><time>2026-04-25T13:19:41.94Z</time></trkpt><trkpt lat="42.78008606530868" lon="10.34611812554544"><ele>50.0</ele><time>2026-04-25T13:19:42.941Z</time></trkpt><trkpt lat="42.78022219724435" lon="10.34596199882994"><ele>49.66666666666667</ele><time>2026-04-25T13:19:43.941Z</time></trkpt><trkpt lat="42.78038912859533" lon="10.345784579374182"><ele>49.33333333333333</ele><time>2026-04-25T13:19:44.941Z</time></trkpt><trkpt lat="42.780535191548125" lon="10.345644562314465"><ele>49.0</ele><time>2026-04-25T13:19:45.94Z</time></trkpt><trkpt lat="42.78067114860923" lon="10.345451810308576"><ele>49.0</ele><time>2026-04-25T13:19:46.94Z</time></trkpt><trkpt lat="42.78080235441887" lon="10.345291753391104"><ele>49.0</ele><time>2026-04-25T13:19:47.94Z</time></trkpt><trkpt lat="42.780937697329904" lon="10.345155054308549"><ele>49.0</ele><time>2026-04-25T13:19:48.941Z</time></trkpt><trkpt lat="42.78108164569397" lon="10.34500206693392"><ele>47.666666666666664</ele><time>2026-04-25T13:19:49.941Z</time></trkpt><trkpt lat="42.78123526462903" lon="10.344844236035442"><ele>46.33333333333333</ele><time>2026-04-25T13:19:50.941Z</time></trkpt><trkpt lat="42.781404726157525" lon="10.344667951832069"><ele>45.0</ele><time>2026-04-25T13:19:51.941Z</time></trkpt><trkpt lat="42.78154748212826" lon="10.34451803058963"><ele>45.0</ele><time>2026-04-25T13:19:52.941Z</time></trkpt><trkpt lat="42.78168633912855" lon="10.344375071011164"><ele>45.0</ele><time>2026-04-25T13:19:53.941Z</time></trkpt><trkpt lat="42.78183414780862" lon="10.34424552784816"><ele>45.0</ele><time>2026-04-25T13:19:54.941Z</time></trkpt><trkpt lat="42.78198456705699" lon="10.344102192776074"><ele>45.333333333333336</ele><time>2026-04-25T13:19:55.941Z</time></trkpt><trkpt lat="42.7821538947804" lon="10.343968400146085"><ele>45.66666666666667</ele><time>2026-04-25T13:19:56.941Z</time></trkpt><trkpt lat="42.78230257234256" lon="10.343808299304413"><ele>46.0</ele><time>2026-04-25T13:19:57.941Z</time></trkpt><trkpt lat="42.782409481421816" lon="10.343649045917662"><ele>46.0</ele><time>2026-04-25T13:19:58.941Z</time></trkpt><trkpt lat="42.78254684029532" lon="10.343500628979148"><ele>46.0</ele><time>2026-04-25T13:19:59.941Z</time></trkpt><trkpt lat="42.78268259925856" lon="10.343358760782744"><ele>46.0</ele><time>2026-04-25T13:20:00.941Z</time></trkpt><trkpt lat="42.782811175688664" lon="10.343187077992"><ele>46.0</ele><time>2026-04-25T13:20:01.941Z</time></trkpt><trkpt lat="42.78293858533515" lon="10.343038928972641"><ele>46.0</ele><time>2026-04-25T13:20:02.941Z</time></trkpt><trkpt lat="42.78303460241144" lon="10.34284146955707"><ele>46.0</ele><time>2026-04-25T13:20:03.941Z</time></trkpt><trkpt lat="42.78312397345291" lon="10.342639931670318"><ele>46.0</ele><time>2026-04-25T13:20:04.941Z</time></trkpt><trkpt lat="42.78321593605987" lon="10.342432232391166"><ele>46.0</ele><time>2026-04-25T13:20:05.941Z</time></trkpt><trkpt lat="42.78331500597943" lon="10.342230569255848"><ele>46.0</ele><time>2026-04-25T13:20:06.941Z</time></trkpt><trkpt lat="42.78341247561994" lon="10.342022958187773"><ele>45.0</ele><time>2026-04-25T13:20:07.941Z</time></trkpt><trkpt lat="42.783542537488486" lon="10.341877152053303"><ele>44.0</ele><time>2026-04-25T13:20:08.941Z</time></trkpt><trkpt lat="42.783668773308236" lon="10.34169317172918"><ele>43.0</ele><time>2026-04-25T13:20:09.941Z</time></trkpt><trkpt lat="42.78380514655924" lon="10.34152192202764"><ele>46.333333333333336</ele><time>2026-04-25T13:20:10.941Z</time></trkpt><trkpt lat="42.783936147575346" lon="10.341356880664254"><ele>49.66666666666667</ele><time>2026-04-25T13:20:11.941Z</time></trkpt><trkpt lat="42.78405650472844" lon="10.341188683975517"><ele>53.0</ele><time>2026-04-25T13:20:12.941Z</time></trkpt><trkpt lat="42.78417199958983" lon="10.341036384431398"><ele>53.0</ele><time>2026-04-25T13:20:13.941Z</time></trkpt><trkpt lat="42.784285766910834" lon="10.340882800389483"><ele>53.0</ele><time>2026-04-25T13:20:14.941Z</time></trkpt><trkpt lat="42.78440284542351" lon="10.340734562211942"><ele>53.0</ele><time>2026-04-25T13:20:15.941Z</time></trkpt><trkpt lat="42.78449990998739" lon="10.340608628346839"><ele>51.75</ele><time>2026-04-25T13:20:16.941Z</time></trkpt><trkpt lat="42.78461162134947" lon="10.34051411981361"><ele>50.5</ele><time>2026-04-25T13:20:17.941Z</time></trkpt><trkpt lat="42.784712696807546" lon="10.340377400826224"><ele>49.25</ele><time>2026-04-25T13:20:18.941Z</time></trkpt><trkpt lat="42.78481030939873" lon="10.340250696647054"><ele>48.0</ele><time>2026-04-25T13:20:19.941Z</time></trkpt><trkpt lat="42.784899861157015" lon="10.34012900989539"><ele>48.0</ele><time>2026-04-25T13:20:20.941Z</time></trkpt><trkpt lat="42.784985468450266" lon="10.34000986451913"><ele>48.0</ele><time>2026-04-25T13:20:21.941Z</time></trkpt><trkpt lat="42.785071579413135" lon="10.339899227018332"><ele>48.0</ele><time>2026-04-25T13:20:22.941Z</time></trkpt><trkpt lat="42.78515256772022" lon="10.339791553938145"><ele>48.0</ele><time>2026-04-25T13:20:23.941Z</time></trkpt><trkpt lat="42.78523507779919" lon="10.339697286567972"><ele>48.666666666666664</ele><time>2026-04-25T13:20:24.941Z</time></trkpt><trkpt lat="42.78531224662545" lon="10.339625426741547"><ele>49.33333333333333</ele><time>2026-04-25T13:20:25.941Z</time></trkpt><trkpt lat="42.7853761561673" lon="10.339579729942464"><ele>50.0</ele><time>2026-04-25T13:20:26.941Z</time></trkpt><trkpt lat="42.78547900314642" lon="10.339518683039008"><ele>50.666666666666664</ele><time>2026-04-25T13:20:28.941Z</time></trkpt><trkpt lat="42.785529347934116" lon="10.339426392258591"><ele>51.33333333333333</ele><time>2026-04-25T13:20:30.94Z</time></trkpt><trkpt lat="42.785527764630935" lon="10.33933909268404"><ele>52.0</ele><time>2026-04-25T13:20:44.94Z</time></trkpt><trkpt lat="42.78558732154501" lon="10.339239086685831"><ele>52.0</ele><time>2026-04-25T13:20:46.94Z</time></trkpt><trkpt lat="42.78548503278879" lon="10.33910718270458"><ele>52.0</ele><time>2026-04-25T13:20:48.94Z</time></trkpt><trkpt lat="42.78543164106088" lon="10.339036137286321"><ele>52.0</ele><time>2026-04-25T13:20:49.94Z</time></trkpt><trkpt lat="42.78536627703317" lon="10.33895166450474"><ele>52.0</ele><time>2026-04-25T13:20:50.94Z</time></trkpt><trkpt lat="42.785295482135126" lon="10.338888179882765"><ele>52.0</ele><time>2026-04-25T13:20:51.94Z</time></trkpt><trkpt lat="42.78524104704504" lon="10.338813886279878"><ele>52.666666666666664</ele><time>2026-04-25T13:20:52.94Z</time></trkpt><trkpt lat="42.78518368012208" lon="10.338746132715602"><ele>53.33333333333333</ele><time>2026-04-25T13:20:53.94Z</time></trkpt><trkpt lat="42.78512152992059" lon="10.338670413584403"><ele>54.0</ele><time>2026-04-25T13:20:54.94Z</time></trkpt><trkpt lat="42.785062296870635" lon="10.338593419567689"><ele>54.66666666666667</ele><time>2026-04-25T13:20:55.94Z</time></trkpt><trkpt lat="42.78500146106749" lon="10.33852125259055"><ele>55.333333333333336</ele><time>2026-04-25T13:20:56.94Z</time></trkpt><trkpt lat="42.78495656403161" lon="10.338435072563746"><ele>56.0</ele><time>2026-04-25T13:20:57.94Z</time></trkpt><trkpt lat="42.784889322390164" lon="10.338370513534086"><ele>56.00000000000001</ele><time>2026-04-25T13:20:58.94Z</time></trkpt><trkpt lat="42.784839823565065" lon="10.338282469634994"><ele>56.0</ele><time>2026-04-25T13:20:59.94Z</time></trkpt><trkpt lat="42.78480360162883" lon="10.338195271020991"><ele>56.0</ele><time>2026-04-25T13:21:00.94Z</time></trkpt><trkpt lat="42.78477889245282" lon="10.338103148907553"><ele>56.0</ele><time>2026-04-25T13:21:01.94Z</time></trkpt><trkpt lat="42.78476169843547" lon="10.337991781415488"><ele>56.00000000000001</ele><time>2026-04-25T13:21:02.94Z</time></trkpt><trkpt lat="42.78473881818486" lon="10.337865743555719"><ele>56.0</ele><time>2026-04-25T13:21:03.94Z</time></trkpt><trkpt lat="42.784720097822536" lon="10.337754159808888"><ele>57.16666666666667</ele><time>2026-04-25T13:21:04.94Z</time></trkpt><trkpt lat="42.78470219333111" lon="10.337641706478736"><ele>58.333333333333336</ele><time>2026-04-25T13:21:05.94Z</time></trkpt><trkpt lat="42.784688628118886" lon="10.337526369086202"><ele>59.5</ele><time>2026-04-25T13:21:06.94Z</time></trkpt><trkpt lat="42.784676331494026" lon="10.337404185471934"><ele>60.66666666666667</ele><time>2026-04-25T13:21:07.94Z</time></trkpt><trkpt lat="42.78466751690925" lon="10.337303619311205"><ele>61.833333333333336</ele><time>2026-04-25T13:21:08.94Z</time></trkpt><trkpt lat="42.784668727422535" lon="10.337211874365545"><ele>63.0</ele><time>2026-04-25T13:21:09.94Z</time></trkpt><trkpt lat="42.78467565933102" lon="10.337122955297993"><ele>65.0</ele><time>2026-04-25T13:21:10.94Z</time></trkpt><trkpt lat="42.78468853594361" lon="10.336994445578302"><ele>67.0</ele><time>2026-04-25T13:21:12.94Z</time></trkpt><trkpt lat="42.78480618630616" lon="10.3369507828286"><ele>69.0</ele><time>2026-04-25T13:21:13.94Z</time></trkpt><trkpt lat="42.78489551136198" lon="10.336979921607803"><ele>71.0</ele><time>2026-04-25T13:21:14.94Z</time></trkpt><trkpt lat="42.78493513724346" lon="10.33706468882389"><ele>73.0</ele><time>2026-04-25T13:21:15.94Z</time></trkpt><trkpt lat="42.785003013908934" lon="10.337204755494012"><ele>72.6</ele><time>2026-04-25T13:21:17.94Z</time></trkpt><trkpt lat="42.78511678631799" lon="10.33729671570226"><ele>72.19999999999999</ele><time>2026-04-25T13:21:19.94Z</time></trkpt><trkpt lat="42.7852001965182" lon="10.337326282449984"><ele>71.8</ele><time>2026-04-25T13:21:20.94Z</time></trkpt><trkpt lat="42.78531889151397" lon="10.337366236828801"><ele>71.39999999999999</ele><time>2026-04-25T13:21:21.94Z</time></trkpt><trkpt lat="42.785420805698855" lon="10.337346822274583"><ele>71.0</ele><time>2026-04-25T13:21:22.94Z</time></trkpt><trkpt lat="42.78551137833449" lon="10.337358371179082"><ele>71.0</ele><time>2026-04-25T13:21:23.94Z</time></trkpt><trkpt lat="42.785586648963275" lon="10.337372881306836"><ele>71.0</ele><time>2026-04-25T13:21:24.94Z</time></trkpt><trkpt lat="42.785656203784704" lon="10.337414173990581"><ele>71.0</ele><time>2026-04-25T13:21:25.94Z</time></trkpt><trkpt lat="42.78570556152549" lon="10.337471949995685"><ele>71.0</ele><time>2026-04-25T13:21:26.94Z</time></trkpt><trkpt lat="42.78574937063889" lon="10.337656443635451"><ele>71.0</ele><time>2026-04-25T13:21:28.94Z</time></trkpt><trkpt lat="42.78575698825001" lon="10.337752411701498"><ele>71.0</ele><time>2026-04-25T13:21:29.94Z</time></trkpt><trkpt lat="42.785770348607116" lon="10.337842423862524"><ele>71.0</ele><time>2026-04-25T13:21:30.94Z</time></trkpt><trkpt lat="42.78579009134082" lon="10.33792774796675"><ele>71.0</ele><time>2026-04-25T13:21:31.94Z</time></trkpt><trkpt lat="42.785844679460084" lon="10.3379908438248"><ele>71.0</ele><time>2026-04-25T13:21:32.94Z</time></trkpt><trkpt lat="42.785910419972616" lon="10.338015851022329"><ele>71.0</ele><time>2026-04-25T13:21:33.94Z</time></trkpt><trkpt lat="42.78598094168374" lon="10.33800946501457"><ele>71.0</ele><time>2026-04-25T13:21:34.94Z</time></trkpt><trkpt lat="42.786049872836294" lon="10.33797907205544"><ele>71.0</ele><time>2026-04-25T13:21:35.94Z</time></trkpt><trkpt lat="42.78612705125669" lon="10.337973328100915"><ele>71.0</ele><time>2026-04-25T13:21:36.94Z</time></trkpt><trkpt lat="42.78617760368873" lon="10.33789543250922"><ele>70.6</ele><time>2026-04-25T13:21:37.94Z</time></trkpt><trkpt lat="42.786203493414" lon="10.337785270031503"><ele>70.19999999999999</ele><time>2026-04-25T13:21:38.94Z</time></trkpt><trkpt lat="42.7862302226841" lon="10.337649347291336"><ele>69.80000000000001</ele><time>2026-04-25T13:21:40.94Z</time></trkpt><trkpt lat="42.786255603715894" lon="10.337510337663145"><ele>69.4</ele><time>2026-04-25T13:21:42.941Z</time></trkpt><trkpt lat="42.786279407903514" lon="10.3373647017648"><ele>69.0</ele><time>2026-04-25T13:21:44.941Z</time></trkpt><trkpt lat="42.78629847699361" lon="10.337194441591194"><ele>69.0</ele><time>2026-04-25T13:21:46.941Z</time></trkpt><trkpt lat="42.78630195316623" lon="10.337106597952099"><ele>69.0</ele><time>2026-04-25T13:21:47.941Z</time></trkpt><trkpt lat="42.786297354531406" lon="10.336944719825059"><ele>69.0</ele><time>2026-04-25T13:21:49.941Z</time></trkpt><trkpt lat="42.78629369062141" lon="10.336789920265668"><ele>69.0</ele><time>2026-04-25T13:21:51.941Z</time></trkpt><trkpt lat="42.78629620193022" lon="10.336644434763667"><ele>69.0</ele><time>2026-04-25T13:21:53.941Z</time></trkpt><trkpt lat="42.78631330812772" lon="10.336527414677548"><ele>73.33333333333333</ele><time>2026-04-25T13:21:55.941Z</time></trkpt><trkpt lat="42.785947032041" lon="10.336394303744287"><ele>77.66666666666666</ele><time>2026-04-25T13:21:56.941Z</time></trkpt><trkpt lat="42.78591968785794" lon="10.336314223213158"><ele>82.0</ele><time>2026-04-25T13:21:57.941Z</time></trkpt><trkpt lat="42.78588261276092" lon="10.336183691819068"><ele>84.6</ele><time>2026-04-25T13:21:59.941Z</time></trkpt><trkpt lat="42.78586208619015" lon="10.336020134241434"><ele>87.19999999999999</ele><time>2026-04-25T13:22:01.941Z</time></trkpt><trkpt lat="42.78584629792684" lon="10.335932855624254"><ele>89.8</ele><time>2026-04-25T13:22:02.941Z</time></trkpt><trkpt lat="42.78581026740378" lon="10.335756874903106"><ele>92.4</ele><time>2026-04-25T13:22:04.941Z</time></trkpt><trkpt lat="42.78577692186347" lon="10.335657853067314"><ele>95.0</ele><time>2026-04-25T13:22:05.941Z</time></trkpt><trkpt lat="42.7857428879588" lon="10.33557259046872"><ele>95.5</ele><time>2026-04-25T13:22:06.941Z</time></trkpt><trkpt lat="42.785706878263746" lon="10.335487549559227"><ele>96.0</ele><time>2026-04-25T13:22:07.941Z</time></trkpt><trkpt lat="42.785680193972375" lon="10.335396138613952"><ele>96.5</ele><time>2026-04-25T13:22:08.941Z</time></trkpt><trkpt lat="42.78565132861405" lon="10.335297087370073"><ele>97.0</ele><time>2026-04-25T13:22:09.941Z</time></trkpt><trkpt lat="42.78562578877931" lon="10.335195481049304"><ele>97.49999999999999</ele><time>2026-04-25T13:22:10.941Z</time></trkpt><trkpt lat="42.785608389018115" lon="10.335077557930493"><ele>98.0</ele><time>2026-04-25T13:22:11.941Z</time></trkpt><trkpt lat="42.785588529437526" lon="10.33496479775739"><ele>97.99999999999999</ele><time>2026-04-25T13:22:12.94Z</time></trkpt><trkpt lat="42.78556196161129" lon="10.334873045688898"><ele>98.0</ele><time>2026-04-25T13:22:13.94Z</time></trkpt><trkpt lat="42.78552991504199" lon="10.334789722558469"><ele>98.0</ele><time>2026-04-25T13:22:14.94Z</time></trkpt><trkpt lat="42.78548728170356" lon="10.334702971227257"><ele>98.0</ele><time>2026-04-25T13:22:15.94Z</time></trkpt><trkpt lat="42.78543563109418" lon="10.334590725017696"><ele>97.99999999999999</ele><time>2026-04-25T13:22:16.94Z</time></trkpt><trkpt lat="42.785407716422014" lon="10.334486229624659"><ele>98.0</ele><time>2026-04-25T13:22:17.94Z</time></trkpt><trkpt lat="42.78538587414104" lon="10.334401087986087"><ele>97.99999999999999</ele><time>2026-04-25T13:22:18.94Z</time></trkpt><trkpt lat="42.78537073524422" lon="10.334312237404815"><ele>98.0</ele><time>2026-04-25T13:22:19.94Z</time></trkpt><trkpt lat="42.78533865826795" lon="10.334173641654292"><ele>98.0</ele><time>2026-04-25T13:22:21.94Z</time></trkpt><trkpt lat="42.78526887744908" lon="10.33405341910911"><ele>98.0</ele><time>2026-04-25T13:22:23.94Z</time></trkpt><trkpt lat="42.78522796990843" lon="10.33397621655181"><ele>97.99999999999999</ele><time>2026-04-25T13:22:24.94Z</time></trkpt><trkpt lat="42.78518285452808" lon="10.333884896075125"><ele>98.0</ele><time>2026-04-25T13:22:25.94Z</time></trkpt><trkpt lat="42.78510981220885" lon="10.333772212429842"><ele>100.16666666666666</ele><time>2026-04-25T13:22:26.94Z</time></trkpt><trkpt lat="42.78506679227287" lon="10.333642629131912"><ele>102.33333333333333</ele><time>2026-04-25T13:22:27.94Z</time></trkpt><trkpt lat="42.785042840520376" lon="10.333532323429427"><ele>104.5</ele><time>2026-04-25T13:22:28.94Z</time></trkpt><trkpt lat="42.78502058376529" lon="10.33341333054808"><ele>106.66666666666666</ele><time>2026-04-25T13:22:29.94Z</time></trkpt><trkpt lat="42.78498959375934" lon="10.333320563600687"><ele>108.83333333333333</ele><time>2026-04-25T13:22:30.94Z</time></trkpt><trkpt lat="42.78496710706499" lon="10.333235280182441"><ele>111.0</ele><time>2026-04-25T13:22:31.94Z</time></trkpt><trkpt lat="42.784951132504105" lon="10.333150139437592"><ele>111.0</ele><time>2026-04-25T13:22:32.94Z</time></trkpt><trkpt lat="42.78492687230187" lon="10.333068946177987"><ele>111.0</ele><time>2026-04-25T13:22:33.94Z</time></trkpt><trkpt lat="42.784875132448725" lon="10.332941905874211"><ele>111.0</ele><time>2026-04-25T13:22:35.94Z</time></trkpt><trkpt lat="42.78483963401283" lon="10.332863884339668"><ele>111.0</ele><time>2026-04-25T13:22:37.94Z</time></trkpt><trkpt lat="42.78480279629565" lon="10.33273254255487"><ele>111.0</ele><time>2026-04-25T13:22:39.94Z</time></trkpt><trkpt lat="42.784764031640115" lon="10.332646374192404"><ele>111.0</ele><time>2026-04-25T13:22:41.94Z</time></trkpt><trkpt lat="42.78471559799878" lon="10.33255354632594"><ele>112.19999999999999</ele><time>2026-04-25T13:22:43.94Z</time></trkpt><trkpt lat="42.78465329078683" lon="10.332423524737905"><ele>113.39999999999999</ele><time>2026-04-25T13:22:45.94Z</time></trkpt><trkpt lat="42.78462780150202" lon="10.332327414022688"><ele>114.6</ele><time>2026-04-25T13:22:47.94Z</time></trkpt><trkpt lat="42.78460496742771" lon="10.332243051155205"><ele>115.8</ele><time>2026-04-25T13:22:48.94Z</time></trkpt><trkpt lat="42.784541780455434" lon="10.332144171287943"><ele>117.0</ele><time>2026-04-25T13:22:50.94Z</time></trkpt><trkpt lat="42.78449689045094" lon="10.332021379052215"><ele>119.0</ele><time>2026-04-25T13:22:52.94Z</time></trkpt><trkpt lat="42.78446092538716" lon="10.331900370953052"><ele>121.0</ele><time>2026-04-25T13:22:54.94Z</time></trkpt><trkpt lat="42.78447226317711" lon="10.331777902360416"><ele>123.0</ele><time>2026-04-25T13:22:56.94Z</time></trkpt><trkpt lat="42.78442955444271" lon="10.331677371276017"><ele>125.0</ele><time>2026-04-25T13:22:59.94Z</time></trkpt><trkpt lat="42.78438488871106" lon="10.331577989966222"><ele>127.0</ele><time>2026-04-25T13:23:01.94Z</time></trkpt><trkpt lat="42.78433026135026" lon="10.331511184338842"><ele>129.0</ele><time>2026-04-25T13:23:03.94Z</time></trkpt><trkpt lat="42.78426200802563" lon="10.33141907229799"><ele>135.4</ele><time>2026-04-25T13:23:05.94Z</time></trkpt><trkpt lat="42.78421867552229" lon="10.331311338838663"><ele>141.8</ele><time>2026-04-25T13:23:07.94Z</time></trkpt><trkpt lat="42.784196610320144" lon="10.331155249384619"><ele>148.20000000000002</ele><time>2026-04-25T13:23:09.94Z</time></trkpt><trkpt lat="42.78418531862141" lon="10.33103998793252"><ele>154.60000000000002</ele><time>2026-04-25T13:23:11.94Z</time></trkpt><trkpt lat="42.78411511263685" lon="10.330937315081215"><ele>161.0</ele><time>2026-04-25T13:23:13.94Z</time></trkpt><trkpt lat="42.78405732264521" lon="10.33086896786066"><ele>161.0</ele><time>2026-04-25T13:23:14.94Z</time></trkpt><trkpt lat="42.7840116137796" lon="10.330801280314459"><ele>161.0</ele><time>2026-04-25T13:23:15.94Z</time></trkpt><trkpt lat="42.78395200127033" lon="10.330768846831575"><ele>161.0</ele><time>2026-04-25T13:23:16.94Z</time></trkpt><trkpt lat="42.78389355349875" lon="10.33072821752129"><ele>161.0</ele><time>2026-04-25T13:23:17.94Z</time></trkpt><trkpt lat="42.78380634700014" lon="10.330653791770544"><ele>161.0</ele><time>2026-04-25T13:23:19.94Z</time></trkpt><trkpt lat="42.78374658770937" lon="10.330582917395807"><ele>161.0</ele><time>2026-04-25T13:23:21.94Z</time></trkpt><trkpt lat="42.783682998981654" lon="10.330560622314406"><ele>161.0</ele><time>2026-04-25T13:23:23.94Z</time></trkpt><trkpt lat="42.78362616242737" lon="10.330507681357581"><ele>161.33333333333331</ele><time>2026-04-25T13:23:25.94Z</time></trkpt><trkpt lat="42.78356849468769" lon="10.330419636210362"><ele>161.66666666666666</ele><time>2026-04-25T13:23:32.94Z</time></trkpt><trkpt lat="42.7834963743896" lon="10.330391421190223"><ele>162.0</ele><time>2026-04-25T13:23:36.939Z</time></trkpt><trkpt lat="42.78342248678204" lon="10.33040475582641"><ele>162.33333333333334</ele><time>2026-04-25T13:23:39.939Z</time></trkpt><trkpt lat="42.78334939852322" lon="10.330441062050316"><ele>162.66666666666669</ele><time>2026-04-25T13:23:41.939Z</time></trkpt><trkpt lat="42.78328134204608" lon="10.330514445454064"><ele>163.0</ele><time>2026-04-25T13:23:45.939Z</time></trkpt><trkpt lat="42.783199940774516" lon="10.330521657214517"><ele>166.33333333333334</ele><time>2026-04-25T13:23:47.941Z</time></trkpt><trkpt lat="42.783143471345866" lon="10.330471685965833"><ele>169.66666666666669</ele><time>2026-04-25T13:23:49.941Z</time></trkpt><trkpt lat="42.78307388938841" lon="10.330428538452676"><ele>173.0</ele><time>2026-04-25T13:23:52.942Z</time></trkpt><trkpt lat="42.78302089033566" lon="10.330512105678338"><ele>176.33333333333334</ele><time>2026-04-25T13:23:55.942Z</time></trkpt><trkpt lat="42.78298062754438" lon="10.33063399075414"><ele>179.66666666666666</ele><time>2026-04-25T13:23:57.941Z</time></trkpt><trkpt lat="42.78294416290397" lon="10.330752947827316"><ele>183.0</ele><time>2026-04-25T13:23:59.942Z</time></trkpt><trkpt lat="42.782887160488606" lon="10.330828680739637"><ele>183.0</ele><time>2026-04-25T13:24:01.941Z</time></trkpt><trkpt lat="42.782805265191456" lon="10.330941350747912"><ele>183.0</ele><time>2026-04-25T13:24:04.941Z</time></trkpt><trkpt lat="42.78270721392961" lon="10.330945571128552"><ele>183.0</ele><time>2026-04-25T13:24:07.941Z</time></trkpt><trkpt lat="42.782603593590125" lon="10.330934264058424"><ele>183.0</ele><time>2026-04-25T13:24:08.941Z</time></trkpt><trkpt lat="42.78252191448411" lon="10.330909838703597"><ele>183.0</ele><time>2026-04-25T13:24:09.941Z</time></trkpt><trkpt lat="42.782403993469096" lon="10.3308504446131"><ele>187.0</ele><time>2026-04-25T13:24:11.941Z</time></trkpt><trkpt lat="42.78234004621146" lon="10.330791493269059"><ele>191.0</ele><time>2026-04-25T13:24:12.941Z</time></trkpt><trkpt lat="42.78229136875467" lon="10.330718450279447"><ele>195.0</ele><time>2026-04-25T13:24:13.941Z</time></trkpt><trkpt lat="42.78222285102597" lon="10.330633635868594"><ele>199.0</ele><time>2026-04-25T13:24:14.941Z</time></trkpt><trkpt lat="42.78215333325419" lon="10.330546079350654"><ele>203.0</ele><time>2026-04-25T13:24:15.941Z</time></trkpt><trkpt lat="42.78208951618415" lon="10.330475057621355"><ele>207.0</ele><time>2026-04-25T13:24:16.941Z</time></trkpt><trkpt lat="42.78203119728128" lon="10.330428372130031"><ele>210.0</ele><time>2026-04-25T13:24:17.941Z</time></trkpt><trkpt lat="42.78192029794658" lon="10.330378566912374"><ele>213.0</ele><time>2026-04-25T13:24:19.941Z</time></trkpt><trkpt lat="42.78182175777523" lon="10.330330276730356"><ele>216.0</ele><time>2026-04-25T13:24:21.941Z</time></trkpt><trkpt lat="42.7817420491822" lon="10.330262295334048"><ele>219.0</ele><time>2026-04-25T13:24:23.941Z</time></trkpt><trkpt lat="42.781626840529356" lon="10.330200584396113"><ele>222.0</ele><time>2026-04-25T13:24:25.941Z</time></trkpt><trkpt lat="42.78152286111552" lon="10.330213227647173"><ele>224.0</ele><time>2026-04-25T13:24:27.941Z</time></trkpt><trkpt lat="42.781439017107516" lon="10.330217444837977"><ele>226.0</ele><time>2026-04-25T13:24:29.941Z</time></trkpt><trkpt lat="42.781371409838066" lon="10.330190318084448"><ele>228.0</ele><time>2026-04-25T13:24:31.941Z</time></trkpt><trkpt lat="42.78136159751205" lon="10.3300940215053"><ele>230.0</ele><time>2026-04-25T13:24:33.941Z</time></trkpt><trkpt lat="42.78146157263192" lon="10.330021474651138"><ele>232.0</ele><time>2026-04-25T13:24:37.941Z</time></trkpt><trkpt lat="42.78155380484393" lon="10.329914360274925"><ele>232.0</ele><time>2026-04-25T13:24:39.941Z</time></trkpt><trkpt lat="42.78162989363835" lon="10.329877251841154"><ele>232.0</ele><time>2026-04-25T13:24:41.941Z</time></trkpt><trkpt lat="42.781755489485185" lon="10.32988170583913"><ele>232.0</ele><time>2026-04-25T13:24:43.941Z</time></trkpt><trkpt lat="42.781861849322" lon="10.32989317336649"><ele>232.0</ele><time>2026-04-25T13:24:45.941Z</time></trkpt><trkpt lat="42.781935409290035" lon="10.329848456582022"><ele>232.0</ele><time>2026-04-25T13:24:49.941Z</time></trkpt><trkpt lat="42.78194748856134" lon="10.329731394320788"><ele>233.83333333333331</ele><time>2026-04-25T13:24:52.941Z</time></trkpt><trkpt lat="42.781926244346074" lon="10.329598808031836"><ele>235.66666666666666</ele><time>2026-04-25T13:24:54.941Z</time></trkpt><trkpt lat="42.78184166295495" lon="10.329551089350732"><ele>237.5</ele><time>2026-04-25T13:24:56.941Z</time></trkpt><trkpt lat="42.781796173038664" lon="10.329485016280838"><ele>239.33333333333331</ele><time>2026-04-25T13:24:58.941Z</time></trkpt><trkpt lat="42.78172096825234" lon="10.329460518778586"><ele>241.16666666666666</ele><time>2026-04-25T13:24:59.941Z</time></trkpt><trkpt lat="42.78163734945307" lon="10.329372286520995"><ele>243.0</ele><time>2026-04-25T13:25:01.941Z</time></trkpt><trkpt lat="42.78156767844625" lon="10.329290800729073"><ele>243.0</ele><time>2026-04-25T13:27:04.94Z</time></trkpt><trkpt lat="42.78148717070651" lon="10.329203814809524"><ele>243.0</ele><time>2026-04-25T13:27:06.94Z</time></trkpt><trkpt lat="42.78140201106216" lon="10.329082555094855"><ele>243.0</ele><time>2026-04-25T13:27:08.94Z</time></trkpt><trkpt lat="42.78131531347005" lon="10.329003737468662"><ele>243.0</ele><time>2026-04-25T13:27:10.94Z</time></trkpt><trkpt lat="42.781257714228744" lon="10.328960265857337"><ele>243.0</ele><time>2026-04-25T13:27:11.94Z</time></trkpt><trkpt lat="42.78116715069495" lon="10.32889720706598"><ele>241.4</ele><time>2026-04-25T13:27:13.94Z</time></trkpt><trkpt lat="42.78109702845891" lon="10.328821378048062"><ele>239.8</ele><time>2026-04-25T13:27:15.94Z</time></trkpt><trkpt lat="42.7810599003601" lon="10.32871922257343"><ele>238.2</ele><time>2026-04-25T13:27:16.94Z</time></trkpt><trkpt lat="42.78105166802067" lon="10.328582765041084"><ele>236.6</ele><time>2026-04-25T13:27:17.94Z</time></trkpt><trkpt lat="42.78104851636859" lon="10.32844359147621"><ele>235.0</ele><time>2026-04-25T13:27:18.94Z</time></trkpt><trkpt lat="42.78101871075063" lon="10.32830774137457"><ele>234.0</ele><time>2026-04-25T13:27:19.94Z</time></trkpt><trkpt lat="42.781001713254646" lon="10.32818233684656"><ele>233.0</ele><time>2026-04-25T13:27:20.94Z</time></trkpt><trkpt lat="42.78099394550694" lon="10.32802690603053"><ele>232.0</ele><time>2026-04-25T13:27:22.94Z</time></trkpt><trkpt lat="42.7810219232418" lon="10.327894685739356"><ele>231.0</ele><time>2026-04-25T13:27:23.94Z</time></trkpt><trkpt lat="42.78107547340634" lon="10.327784344468128"><ele>230.0</ele><time>2026-04-25T13:27:24.94Z</time></trkpt><trkpt lat="42.78108802635468" lon="10.32766494386655"><ele>230.00000000000003</ele><time>2026-04-25T13:27:25.94Z</time></trkpt><trkpt lat="42.781109276039345" lon="10.32756288973257"><ele>230.0</ele><time>2026-04-25T13:27:26.94Z</time></trkpt><trkpt lat="42.7811074741019" lon="10.327461735159403"><ele>230.0</ele><time>2026-04-25T13:27:27.94Z</time></trkpt><trkpt lat="42.781082679560804" lon="10.32736892052428"><ele>230.0</ele><time>2026-04-25T13:27:28.94Z</time></trkpt><trkpt lat="42.78105427984887" lon="10.327255179973779"><ele>230.00000000000003</ele><time>2026-04-25T13:27:29.94Z</time></trkpt><trkpt lat="42.78103540079775" lon="10.32713628168258"><ele>230.0</ele><time>2026-04-25T13:27:30.94Z</time></trkpt><trkpt lat="42.78102304786463" lon="10.32703343766411"><ele>231.66666666666669</ele><time>2026-04-25T13:27:31.94Z</time></trkpt><trkpt lat="42.78099580743973" lon="10.326872775742853"><ele>233.33333333333334</ele><time>2026-04-25T13:27:33.94Z</time></trkpt><trkpt lat="42.78100875543913" lon="10.326766458293795"><ele>235.0</ele><time>2026-04-25T13:27:34.94Z</time></trkpt><trkpt lat="42.78103632008179" lon="10.32666064833002"><ele>236.66666666666669</ele><time>2026-04-25T13:27:35.94Z</time></trkpt><trkpt lat="42.781075277252036" lon="10.326554172546718"><ele>238.33333333333334</ele><time>2026-04-25T13:27:36.94Z</time></trkpt><trkpt lat="42.78109440947235" lon="10.32645923535113"><ele>240.0</ele><time>2026-04-25T13:27:37.94Z</time></trkpt><trkpt lat="42.78113218439972" lon="10.326369885156383"><ele>244.0</ele><time>2026-04-25T13:27:38.94Z</time></trkpt><trkpt lat="42.78118674699023" lon="10.326305874845321"><ele>248.0</ele><time>2026-04-25T13:27:39.94Z</time></trkpt><trkpt lat="42.781246470307806" lon="10.326258761418751"><ele>252.0</ele><time>2026-04-25T13:27:40.94Z</time></trkpt><trkpt lat="42.78132057245633" lon="10.326209522611935"><ele>256.0</ele><time>2026-04-25T13:27:41.94Z</time></trkpt><trkpt lat="42.78139568283325" lon="10.326155775557524"><ele>260.0</ele><time>2026-04-25T13:27:42.94Z</time></trkpt><trkpt lat="42.78148812467199" lon="10.326137058850264"><ele>264.0</ele><time>2026-04-25T13:27:44.94Z</time></trkpt><trkpt lat="42.78163644361394" lon="10.326093441330888"><ele>264.0</ele><time>2026-04-25T13:27:48.94Z</time></trkpt><trkpt lat="42.78171686163212" lon="10.326048578689676"><ele>264.0</ele><time>2026-04-25T13:27:49.94Z</time></trkpt><trkpt lat="42.78178929588909" lon="10.325999411179877"><ele>264.0</ele><time>2026-04-25T13:27:50.94Z</time></trkpt><trkpt lat="42.78185062708919" lon="10.325940197964757"><ele>264.0</ele><time>2026-04-25T13:27:51.94Z</time></trkpt><trkpt lat="42.7819529138215" lon="10.325879998049016"><ele>264.0</ele><time>2026-04-25T13:27:53.94Z</time></trkpt><trkpt lat="42.78203824500039" lon="10.32586933778806"><ele>264.0</ele><time>2026-04-25T13:27:54.94Z</time></trkpt><trkpt lat="42.78234537155964" lon="10.32589875226893"><ele>260.8333333333333</ele><time>2026-04-25T13:27:58.94Z</time></trkpt><trkpt lat="42.78242186519333" lon="10.325928790464276"><ele>257.6666666666667</ele><time>2026-04-25T13:27:59.942Z</time></trkpt><trkpt lat="42.782482821799476" lon="10.32596220066407"><ele>254.5</ele><time>2026-04-25T13:28:00.942Z</time></trkpt><trkpt lat="42.782547206024105" lon="10.326011244696225"><ele>251.33333333333334</ele><time>2026-04-25T13:28:01.942Z</time></trkpt><trkpt lat="42.78260757145667" lon="10.326076948713968"><ele>248.16666666666669</ele><time>2026-04-25T13:28:02.942Z</time></trkpt><trkpt lat="42.78267943657938" lon="10.326168697011312"><ele>245.0</ele><time>2026-04-25T13:28:03.943Z</time></trkpt><trkpt lat="42.782729254949075" lon="10.326247758383888"><ele>243.66666666666669</ele><time>2026-04-25T13:28:04.943Z</time></trkpt><trkpt lat="42.782786225747564" lon="10.326317707029773"><ele>242.33333333333334</ele><time>2026-04-25T13:28:05.942Z</time></trkpt><trkpt lat="42.78284797133497" lon="10.32638832439356"><ele>241.0</ele><time>2026-04-25T13:28:06.942Z</time></trkpt><trkpt lat="42.782912809414555" lon="10.326457999896002"><ele>239.66666666666669</ele><time>2026-04-25T13:28:07.942Z</time></trkpt><trkpt lat="42.78297869437647" lon="10.326515510382807"><ele>238.33333333333334</ele><time>2026-04-25T13:28:08.942Z</time></trkpt><trkpt lat="42.78303619294137" lon="10.326574527207523"><ele>237.0</ele><time>2026-04-25T13:28:09.942Z</time></trkpt><trkpt lat="42.7830936765909" lon="10.326623054489048"><ele>237.0</ele><time>2026-04-25T13:28:10.942Z</time></trkpt><trkpt lat="42.78315252534589" lon="10.326667441906645"><ele>237.0</ele><time>2026-04-25T13:28:11.942Z</time></trkpt><trkpt lat="42.78321097584114" lon="10.326709721310765"><ele>237.0</ele><time>2026-04-25T13:28:12.942Z</time></trkpt><trkpt lat="42.783320357503165" lon="10.326794611264027"><ele>237.0</ele><time>2026-04-25T13:28:14.941Z</time></trkpt><trkpt lat="42.783397810630206" lon="10.326829236920561"><ele>237.0</ele><time>2026-04-25T13:28:16.941Z</time></trkpt><trkpt lat="42.78349391553862" lon="10.326766715846507"><ele>237.0</ele><time>2026-04-25T13:28:18.941Z</time></trkpt><trkpt lat="42.78355723561316" lon="10.326745510846964"><ele>234.5</ele><time>2026-04-25T13:28:19.941Z</time></trkpt><trkpt lat="42.7836248943833" lon="10.326739898464723"><ele>232.0</ele><time>2026-04-25T13:28:20.941Z</time></trkpt><trkpt lat="42.783723642050695" lon="10.326805204348462"><ele>229.5</ele><time>2026-04-25T13:28:22.941Z</time></trkpt><trkpt lat="42.783785813058735" lon="10.326878620152186"><ele>227.0</ele><time>2026-04-25T13:28:23.941Z</time></trkpt><trkpt lat="42.78383732850795" lon="10.326955654585367"><ele>224.5</ele><time>2026-04-25T13:28:24.941Z</time></trkpt><trkpt lat="42.783887280529505" lon="10.327048273536471"><ele>222.0</ele><time>2026-04-25T13:28:25.941Z</time></trkpt><trkpt lat="42.783921533133395" lon="10.32713759611845"><ele>221.0</ele><time>2026-04-25T13:28:26.941Z</time></trkpt><trkpt lat="42.78394573085768" lon="10.327281879690037"><ele>220.0</ele><time>2026-04-25T13:28:28.941Z</time></trkpt><trkpt lat="42.783974381443386" lon="10.327387178024573"><ele>219.0</ele><time>2026-04-25T13:28:30.941Z</time></trkpt><trkpt lat="42.78408194067296" lon="10.327525818679804"><ele>218.0</ele><time>2026-04-25T13:28:33.941Z</time></trkpt><trkpt lat="42.784135521760085" lon="10.327571509710314"><ele>217.0</ele><time>2026-04-25T13:28:34.941Z</time></trkpt><trkpt lat="42.784217364563155" lon="10.327618066518227"><ele>217.0</ele><time>2026-04-25T13:28:35.941Z</time></trkpt><trkpt lat="42.78433835341706" lon="10.32769199178428"><ele>217.0</ele><time>2026-04-25T13:28:37.941Z</time></trkpt><trkpt lat="42.7844147589347" lon="10.327705089678668"><ele>217.0</ele><time>2026-04-25T13:28:39.941Z</time></trkpt><trkpt lat="42.78449775153066" lon="10.327632670908521"><ele>217.0</ele><time>2026-04-25T13:28:41.941Z</time></trkpt><trkpt lat="42.78451858046519" lon="10.327489455882379"><ele>217.0</ele><time>2026-04-25T13:28:43.941Z</time></trkpt><trkpt lat="42.784503400215456" lon="10.327385694590985"><ele>213.49999999999997</ele><time>2026-04-25T13:28:45.941Z</time></trkpt><trkpt lat="42.78457341122186" lon="10.327377330687112"><ele>210.0</ele><time>2026-04-25T13:29:04.941Z</time></trkpt><trkpt lat="42.78459359246604" lon="10.327520824323539"><ele>206.5</ele><time>2026-04-25T13:29:06.941Z</time></trkpt><trkpt lat="42.78460041995792" lon="10.32761453138175"><ele>203.0</ele><time>2026-04-25T13:29:07.941Z</time></trkpt><trkpt lat="42.78459479721188" lon="10.327702947320686"><ele>199.49999999999997</ele><time>2026-04-25T13:29:08.941Z</time></trkpt><trkpt lat="42.78456488386857" lon="10.327854907862145"><ele>196.0</ele><time>2026-04-25T13:29:10.941Z</time></trkpt><trkpt lat="42.784474812348876" lon="10.327947330296494"><ele>196.0</ele><time>2026-04-25T13:29:12.941Z</time></trkpt><trkpt lat="42.78436346737809" lon="10.328002029584892"><ele>196.0</ele><time>2026-04-25T13:29:14.941Z</time></trkpt><trkpt lat="42.78427401742937" lon="10.32801771024934"><ele>196.0</ele><time>2026-04-25T13:29:16.941Z</time></trkpt><trkpt lat="42.7842131621821" lon="10.328050185469658"><ele>196.0</ele><time>2026-04-25T13:29:18.941Z</time></trkpt><trkpt lat="42.78425327004087" lon="10.328157050347379"><ele>196.0</ele><time>2026-04-25T13:29:21.941Z</time></trkpt><trkpt lat="42.784371323824196" lon="10.328164596238874"><ele>194.66666666666666</ele><time>2026-04-25T13:29:23.941Z</time></trkpt><trkpt lat="42.784457420259244" lon="10.32818719538865"><ele>193.33333333333331</ele><time>2026-04-25T13:29:24.941Z</time></trkpt><trkpt lat="42.78453637276264" lon="10.328233838310458"><ele>192.0</ele><time>2026-04-25T13:29:25.941Z</time></trkpt><trkpt lat="42.78463010067595" lon="10.32824778665268"><ele>190.66666666666666</ele><time>2026-04-25T13:29:26.941Z</time></trkpt><trkpt lat="42.78471659576321" lon="10.328246018557538"><ele>189.33333333333331</ele><time>2026-04-25T13:29:27.941Z</time></trkpt><trkpt lat="42.7847979821077" lon="10.32823290237024"><ele>188.0</ele><time>2026-04-25T13:29:28.941Z</time></trkpt><trkpt lat="42.78486052879857" lon="10.32820354882829"><ele>188.0</ele><time>2026-04-25T13:29:29.941Z</time></trkpt><trkpt lat="42.78492019022802" lon="10.328161693116769"><ele>188.0</ele><time>2026-04-25T13:29:30.941Z</time></trkpt><trkpt lat="42.784990281638585" lon="10.328146802113656"><ele>188.0</ele><time>2026-04-25T13:29:31.941Z</time></trkpt><trkpt lat="42.785060069810505" lon="10.32818125732867"><ele>188.0</ele><time>2026-04-25T13:29:34.941Z</time></trkpt><trkpt lat="42.78527924182681" lon="10.32819500104767"><ele>188.0</ele><time>2026-04-25T13:29:37.94Z</time></trkpt><trkpt lat="42.78538687977678" lon="10.328239252286826"><ele>186.16666666666666</ele><time>2026-04-25T13:29:38.94Z</time></trkpt><trkpt lat="42.78549186520944" lon="10.3283067363714"><ele>184.33333333333331</ele><time>2026-04-25T13:29:39.94Z</time></trkpt><trkpt lat="42.785585190500626" lon="10.32832442445496"><ele>182.5</ele><time>2026-04-25T13:29:40.94Z</time></trkpt><trkpt lat="42.785649582480815" lon="10.328332406549677"><ele>180.66666666666666</ele><time>2026-04-25T13:29:42.94Z</time></trkpt><trkpt lat="42.785711255280376" lon="10.328275959563873"><ele>178.83333333333334</ele><time>2026-04-25T13:29:46.94Z</time></trkpt><trkpt lat="42.78566110590825" lon="10.328196488839868"><ele>177.0</ele><time>2026-04-25T13:29:49.94Z</time></trkpt><trkpt lat="42.78561694635597" lon="10.328093962758018"><ele>177.0</ele><time>2026-04-25T13:29:52.94Z</time></trkpt><trkpt lat="42.785580830571604" lon="10.327959746675413"><ele>177.0</ele><time>2026-04-25T13:29:54.94Z</time></trkpt><trkpt lat="42.78556378285584" lon="10.327835649469732"><ele>177.0</ele><time>2026-04-25T13:29:56.94Z</time></trkpt><trkpt lat="42.785554308333296" lon="10.327689846707434"><ele>177.0</ele><time>2026-04-25T13:29:57.94Z</time></trkpt><trkpt lat="42.78556169094033" lon="10.327583387840367"><ele>177.0</ele><time>2026-04-25T13:29:58.94Z</time></trkpt><trkpt lat="42.78556492621874" lon="10.327494051293087"><ele>177.0</ele><time>2026-04-25T13:29:59.94Z</time></trkpt><trkpt lat="42.78559215960276" lon="10.32731964035145"><ele>176.57142857142858</ele><time>2026-04-25T13:30:01.94Z</time></trkpt><trkpt lat="42.78559631651468" lon="10.327220484564464"><ele>176.14285714285714</ele><time>2026-04-25T13:30:02.94Z</time></trkpt><trkpt lat="42.78561396555269" lon="10.327131929430301"><ele>175.71428571428572</ele><time>2026-04-25T13:30:03.94Z</time></trkpt><trkpt lat="42.78559804789543" lon="10.327038898683776"><ele>175.28571428571428</ele><time>2026-04-25T13:30:04.943Z</time></trkpt><trkpt lat="42.785577240436915" lon="10.32695525784724"><ele>174.85714285714286</ele><time>2026-04-25T13:30:05.942Z</time></trkpt><trkpt lat="42.7855541820317" lon="10.326872546019041"><ele>174.42857142857142</ele><time>2026-04-25T13:30:06.942Z</time></trkpt><trkpt lat="42.78550790713795" lon="10.326764491405484"><ele>174.0</ele><time>2026-04-25T13:30:08.943Z</time></trkpt><trkpt lat="42.78549940218196" lon="10.326575343651978"><ele>174.0</ele><time>2026-04-25T13:30:10.943Z</time></trkpt><trkpt lat="42.78553398101378" lon="10.326473242727257"><ele>174.0</ele><time>2026-04-25T13:30:11.942Z</time></trkpt><trkpt lat="42.78556479380607" lon="10.326375726045203"><ele>174.0</ele><time>2026-04-25T13:30:12.942Z</time></trkpt><trkpt lat="42.7855959171203" lon="10.326277182757808"><ele>174.0</ele><time>2026-04-25T13:30:13.942Z</time></trkpt><trkpt lat="42.78561326152767" lon="10.326187213423857"><ele>174.0</ele><time>2026-04-25T13:30:14.942Z</time></trkpt><trkpt lat="42.785610976549194" lon="10.326042890799702"><ele>174.0</ele><time>2026-04-25T13:30:16.942Z</time></trkpt><trkpt lat="42.785592540770885" lon="10.325947082034238"><ele>174.0</ele><time>2026-04-25T13:30:17.943Z</time></trkpt><trkpt lat="42.785586872937955" lon="10.325847342455832"><ele>174.0</ele><time>2026-04-25T13:30:18.943Z</time></trkpt><trkpt lat="42.78557705619403" lon="10.32574316502263"><ele>174.0</ele><time>2026-04-25T13:30:19.943Z</time></trkpt><trkpt lat="42.78555885106383" lon="10.325654007938581"><ele>174.0</ele><time>2026-04-25T13:30:20.943Z</time></trkpt><trkpt lat="42.78554083157166" lon="10.325537788106013"><ele>174.0</ele><time>2026-04-25T13:30:21.943Z</time></trkpt><trkpt lat="42.78549036783183" lon="10.325388442962584"><ele>174.0</ele><time>2026-04-25T13:30:23.943Z</time></trkpt><trkpt lat="42.785467682932506" lon="10.325283786844878"><ele>173.16666666666666</ele><time>2026-04-25T13:30:24.943Z</time></trkpt><trkpt lat="42.78544668146445" lon="10.32519951853995"><ele>172.33333333333334</ele><time>2026-04-25T13:30:25.943Z</time></trkpt><trkpt lat="42.785444664125" lon="10.3250721103508"><ele>171.5</ele><time>2026-04-25T13:30:26.943Z</time></trkpt><trkpt lat="42.78542763365718" lon="10.324984030288382"><ele>170.66666666666669</ele><time>2026-04-25T13:30:27.943Z</time></trkpt><trkpt lat="42.785410647032954" lon="10.324898566122233"><ele>169.83333333333334</ele><time>2026-04-25T13:30:28.943Z</time></trkpt><trkpt lat="42.78535813061693" lon="10.324779098611145"><ele>169.0</ele><time>2026-04-25T13:30:30.943Z</time></trkpt><trkpt lat="42.78532118933709" lon="10.32465268282369"><ele>166.79999999999998</ele><time>2026-04-25T13:30:32.943Z</time></trkpt><trkpt lat="42.7852657723235" lon="10.324499798745203"><ele>164.6</ele><time>2026-04-25T13:30:34.943Z</time></trkpt><trkpt lat="42.785206854740366" lon="10.324393008596532"><ele>162.4</ele><time>2026-04-25T13:30:36.943Z</time></trkpt><trkpt lat="42.7851200181741" lon="10.324321739995103"><ele>160.2</ele><time>2026-04-25T13:30:38.943Z</time></trkpt><trkpt lat="42.78506825131293" lon="10.324245238924178"><ele>158.0</ele><time>2026-04-25T13:30:40.943Z</time></trkpt><trkpt lat="42.78503774268245" lon="10.324130622413257"><ele>160.8</ele><time>2026-04-25T13:30:42.943Z</time></trkpt><trkpt lat="42.78502236940928" lon="10.32403922785588"><ele>163.60000000000002</ele><time>2026-04-25T13:30:43.943Z</time></trkpt><trkpt lat="42.784973906185805" lon="10.323826728686305"><ele>166.39999999999998</ele><time>2026-04-25T13:30:45.943Z</time></trkpt><trkpt lat="42.78494326183503" lon="10.32369863307979"><ele>169.2</ele><time>2026-04-25T13:30:46.943Z</time></trkpt><trkpt lat="42.784903062050674" lon="10.323561301599842"><ele>172.0</ele><time>2026-04-25T13:30:47.943Z</time></trkpt><trkpt lat="42.78486922631423" lon="10.323479780015937"><ele>172.0</ele><time>2026-04-25T13:30:48.943Z</time></trkpt><trkpt lat="42.784843949182985" lon="10.32331020683246"><ele>172.0</ele><time>2026-04-25T13:30:50.943Z</time></trkpt><trkpt lat="42.78484218711706" lon="10.323139557863028"><ele>172.0</ele><time>2026-04-25T13:30:52.943Z</time></trkpt><trkpt lat="42.78481542574584" lon="10.322996797630204"><ele>172.0</ele><time>2026-04-25T13:30:54.942Z</time></trkpt><trkpt lat="42.78480902692255" lon="10.32289792098193"><ele>172.0</ele><time>2026-04-25T13:30:55.942Z</time></trkpt><trkpt lat="42.78481234511943" lon="10.322799296053988"><ele>170.83333333333334</ele><time>2026-04-25T13:30:56.942Z</time></trkpt><trkpt lat="42.784835023679406" lon="10.322716917339786"><ele>169.66666666666669</ele><time>2026-04-25T13:30:57.942Z</time></trkpt><trkpt lat="42.78489169956049" lon="10.322567981015837"><ele>168.5</ele><time>2026-04-25T13:30:59.942Z</time></trkpt><trkpt lat="42.78488698822113" lon="10.322471422265055"><ele>167.33333333333334</ele><time>2026-04-25T13:31:00.942Z</time></trkpt><trkpt lat="42.78486206880483" lon="10.322371046485864"><ele>166.16666666666666</ele><time>2026-04-25T13:31:01.942Z</time></trkpt><trkpt lat="42.784821009434786" lon="10.32228599097148"><ele>165.0</ele><time>2026-04-25T13:31:02.942Z</time></trkpt><trkpt lat="42.78477469204375" lon="10.322225546314248"><ele>164.6</ele><time>2026-04-25T13:31:03.942Z</time></trkpt><trkpt lat="42.78472894753474" lon="10.322151399312665"><ele>164.2</ele><time>2026-04-25T13:31:04.942Z</time></trkpt><trkpt lat="42.78468837369747" lon="10.322029759669865"><ele>163.8</ele><time>2026-04-25T13:31:06.942Z</time></trkpt><trkpt lat="42.784725390952836" lon="10.321890854291196"><ele>163.4</ele><time>2026-04-25T13:31:09.942Z</time></trkpt><trkpt lat="42.78478050129014" lon="10.321786958873648"><ele>163.0</ele><time>2026-04-25T13:31:11.942Z</time></trkpt><trkpt lat="42.78489612116336" lon="10.321741848060146"><ele>163.0</ele><time>2026-04-25T13:31:14.942Z</time></trkpt><trkpt lat="42.78500999247189" lon="10.321653330423276"><ele>163.0</ele><time>2026-04-25T13:31:16.942Z</time></trkpt><trkpt lat="42.78507641982283" lon="10.321567304877876"><ele>163.0</ele><time>2026-04-25T13:31:17.942Z</time></trkpt><trkpt lat="42.785144136913964" lon="10.321444406919856"><ele>163.0</ele><time>2026-04-25T13:31:18.942Z</time></trkpt><trkpt lat="42.785188918051766" lon="10.321344576949633"><ele>163.0</ele><time>2026-04-25T13:31:19.941Z</time></trkpt><trkpt lat="42.785219198335895" lon="10.321260393814047"><ele>164.16666666666669</ele><time>2026-04-25T13:31:20.94Z</time></trkpt><trkpt lat="42.78523037369977" lon="10.321170447535906"><ele>165.33333333333334</ele><time>2026-04-25T13:31:21.939Z</time></trkpt><trkpt lat="42.785220807855055" lon="10.321077760504554"><ele>166.5</ele><time>2026-04-25T13:31:22.939Z</time></trkpt><trkpt lat="42.785152911598345" lon="10.3209363490418"><ele>167.66666666666666</ele><time>2026-04-25T13:31:24.938Z</time></trkpt><trkpt lat="42.785103553803" lon="10.320875762715902"><ele>168.83333333333331</ele><time>2026-04-25T13:31:25.937Z</time></trkpt><trkpt lat="42.78503314163987" lon="10.320771287885274"><ele>170.0</ele><time>2026-04-25T13:31:27.936Z</time></trkpt><trkpt lat="42.78503499674384" lon="10.320650072764458"><ele>170.0</ele><time>2026-04-25T13:31:38.933Z</time></trkpt><trkpt lat="42.78510221318996" lon="10.320569495377098"><ele>170.0</ele><time>2026-04-25T13:31:50.931Z</time></trkpt><trkpt lat="42.78516420790973" lon="10.320531970327288"><ele>170.0</ele><time>2026-04-25T13:31:55.93Z</time></trkpt><trkpt lat="42.785229784986356" lon="10.32048841804168"><ele>170.0</ele><time>2026-04-25T13:32:00.93Z</time></trkpt><trkpt lat="42.7853334087052" lon="10.320444605631488"><ele>170.0</ele><time>2026-04-25T13:32:03.93Z</time></trkpt><trkpt lat="42.78539864849499" lon="10.320441750184038"><ele>170.0</ele><time>2026-04-25T13:32:04.93Z</time></trkpt><trkpt lat="42.78548005851632" lon="10.320429509818226"><ele>167.5</ele><time>2026-04-25T13:32:06.93Z</time></trkpt><trkpt lat="42.78556757294303" lon="10.320408726963144"><ele>165.0</ele><time>2026-04-25T13:32:08.93Z</time></trkpt><trkpt lat="42.78563722578299" lon="10.320355155863362"><ele>162.5</ele><time>2026-04-25T13:32:11.931Z</time></trkpt><trkpt lat="42.78571093140611" lon="10.320303061660132"><ele>160.0</ele><time>2026-04-25T13:32:14.93Z</time></trkpt><trkpt lat="42.78576892296843" lon="10.320422473714878"><ele>157.5</ele><time>2026-04-25T13:32:19.93Z</time></trkpt><trkpt lat="42.78584672330153" lon="10.32040257552123"><ele>155.0</ele><time>2026-04-25T13:32:22.931Z</time></trkpt><trkpt lat="42.78591702744748" lon="10.320357154662034"><ele>155.0</ele><time>2026-04-25T13:32:25.931Z</time></trkpt><trkpt lat="42.78597796273637" lon="10.32026387083994"><ele>155.0</ele><time>2026-04-25T13:32:28.931Z</time></trkpt><trkpt lat="42.78604682027373" lon="10.320290893384408"><ele>155.0</ele><time>2026-04-25T13:32:33.931Z</time></trkpt><trkpt lat="42.78610074499795" lon="10.320347443264682"><ele>155.0</ele><time>2026-04-25T13:32:35.931Z</time></trkpt><trkpt lat="42.786185274443646" lon="10.32037232055785"><ele>155.0</ele><time>2026-04-25T13:32:40.931Z</time></trkpt><trkpt lat="42.78626688455925" lon="10.32038601780472"><ele>155.0</ele><time>2026-04-25T13:32:45.931Z</time></trkpt><trkpt lat="42.78645083556845" lon="10.32037740982472"><ele>147.75</ele><time>2026-04-25T13:32:48.931Z</time></trkpt><trkpt lat="42.78656578980635" lon="10.320388602931356"><ele>140.5</ele><time>2026-04-25T13:32:50.931Z</time></trkpt><trkpt lat="42.78663523905797" lon="10.320300615327783"><ele>133.25</ele><time>2026-04-25T13:33:04.93Z</time></trkpt><trkpt lat="42.78684265285138" lon="10.320185001628506"><ele>126.0</ele><time>2026-04-25T13:33:15.93Z</time></trkpt><trkpt lat="42.78696010683283" lon="10.320144244251436"><ele>123.83333333333333</ele><time>2026-04-25T13:33:17.93Z</time></trkpt><trkpt lat="42.787021552774895" lon="10.320123931472427"><ele>121.66666666666666</ele><time>2026-04-25T13:33:18.93Z</time></trkpt><trkpt lat="42.78713043188459" lon="10.320062175821443"><ele>119.5</ele><time>2026-04-25T13:33:20.93Z</time></trkpt><trkpt lat="42.787191976617095" lon="10.320026951937866"><ele>117.33333333333333</ele><time>2026-04-25T13:33:21.93Z</time></trkpt><trkpt lat="42.78730381790292" lon="10.319950680486453"><ele>115.16666666666666</ele><time>2026-04-25T13:33:23.93Z</time></trkpt><trkpt lat="42.787359856152456" lon="10.319903385893976"><ele>113.0</ele><time>2026-04-25T13:33:24.93Z</time></trkpt><trkpt lat="42.78741514672502" lon="10.319851965740849"><ele>113.0</ele><time>2026-04-25T13:33:25.93Z</time></trkpt><trkpt lat="42.78747482847607" lon="10.319801534388061"><ele>113.0</ele><time>2026-04-25T13:33:26.93Z</time></trkpt><trkpt lat="42.78752718366149" lon="10.31975293064708"><ele>113.0</ele><time>2026-04-25T13:33:27.93Z</time></trkpt><trkpt lat="42.787583011460136" lon="10.319704392805361"><ele>113.0</ele><time>2026-04-25T13:33:28.93Z</time></trkpt><trkpt lat="42.78763981772757" lon="10.31965869178827"><ele>113.0</ele><time>2026-04-25T13:33:29.93Z</time></trkpt><trkpt lat="42.78770013328622" lon="10.319574123403468"><ele>113.0</ele><time>2026-04-25T13:33:31.93Z</time></trkpt><trkpt lat="42.78762850230307" lon="10.319487994862806"><ele>113.0</ele><time>2026-04-25T13:33:34.93Z</time></trkpt><trkpt lat="42.78754695199035" lon="10.319522247016142"><ele>110.49999999999999</ele><time>2026-04-25T13:33:36.93Z</time></trkpt><trkpt lat="42.78746184818223" lon="10.319542136747824"><ele>108.0</ele><time>2026-04-25T13:33:38.93Z</time></trkpt><trkpt lat="42.78741225172522" lon="10.319481695173913"><ele>105.5</ele><time>2026-04-25T13:33:41.93Z</time></trkpt><trkpt lat="42.78749554859776" lon="10.319385928243356"><ele>103.0</ele><time>2026-04-25T13:33:43.93Z</time></trkpt><trkpt lat="42.78756154119605" lon="10.319321402160199"><ele>100.49999999999999</ele><time>2026-04-25T13:33:44.93Z</time></trkpt><trkpt lat="42.78762262702848" lon="10.319241463271174"><ele>98.0</ele><time>2026-04-25T13:33:45.93Z</time></trkpt><trkpt lat="42.78768607760846" lon="10.31916306611562"><ele>95.49999999999999</ele><time>2026-04-25T13:33:46.93Z</time></trkpt><trkpt lat="42.78774253564951" lon="10.319105576093925"><ele>93.0</ele><time>2026-04-25T13:33:47.93Z</time></trkpt><trkpt lat="42.78781137499212" lon="10.319074960154422"><ele>90.5</ele><time>2026-04-25T13:33:48.93Z</time></trkpt><trkpt lat="42.78788384835336" lon="10.319083944408352"><ele>88.0</ele><time>2026-04-25T13:33:49.93Z</time></trkpt><trkpt lat="42.78798132780083" lon="10.319101687088779"><ele>85.5</ele><time>2026-04-25T13:33:50.93Z</time></trkpt><trkpt lat="42.78806508084575" lon="10.319097662990199"><ele>83.0</ele><time>2026-04-25T13:33:51.93Z</time></trkpt><trkpt lat="42.7881582136305" lon="10.319080894822969"><ele>83.0</ele><time>2026-04-25T13:33:52.93Z</time></trkpt><trkpt lat="42.788248594268914" lon="10.319066276162058"><ele>83.0</ele><time>2026-04-25T13:33:53.93Z</time></trkpt><trkpt lat="42.78834837472623" lon="10.31905315508193"><ele>83.0</ele><time>2026-04-25T13:33:54.93Z</time></trkpt><trkpt lat="42.78844575022999" lon="10.319053107961679"><ele>83.0</ele><time>2026-04-25T13:33:55.93Z</time></trkpt><trkpt lat="42.78855427763187" lon="10.31904111413433"><ele>83.0</ele><time>2026-04-25T13:33:56.93Z</time></trkpt><trkpt lat="42.78865975088343" lon="10.319022694214707"><ele>80.80000000000001</ele><time>2026-04-25T13:33:57.93Z</time></trkpt><trkpt lat="42.78876722184903" lon="10.319013687469443"><ele>78.60000000000001</ele><time>2026-04-25T13:33:58.93Z</time></trkpt><trkpt lat="42.78887433616605" lon="10.319005878950763"><ele>76.4</ele><time>2026-04-25T13:33:59.93Z</time></trkpt><trkpt lat="42.788973947108325" lon="10.318997163024639"><ele>74.2</ele><time>2026-04-25T13:34:00.929Z</time></trkpt><trkpt lat="42.789067131911395" lon="10.318989212234918"><ele>72.0</ele><time>2026-04-25T13:34:01.929Z</time></trkpt><trkpt lat="42.789153196343555" lon="10.31897794538125"><ele>72.0</ele><time>2026-04-25T13:34:02.929Z</time></trkpt><trkpt lat="42.78922967451595" lon="10.31897153791107"><ele>72.0</ele><time>2026-04-25T13:34:03.929Z</time></trkpt><trkpt lat="42.78930297533607" lon="10.318954073426589"><ele>72.0</ele><time>2026-04-25T13:34:04.929Z</time></trkpt><trkpt lat="42.789393124123265" lon="10.31893785246442"><ele>72.0</ele><time>2026-04-25T13:34:05.929Z</time></trkpt><trkpt lat="42.78948166114692" lon="10.3189204987354"><ele>72.0</ele><time>2026-04-25T13:34:06.929Z</time></trkpt><trkpt lat="42.78957132747626" lon="10.318900038959733"><ele>72.0</ele><time>2026-04-25T13:34:07.929Z</time></trkpt><trkpt lat="42.7896635169274" lon="10.318887466697555"><ele>70.5</ele><time>2026-04-25T13:34:08.929Z</time></trkpt><trkpt lat="42.78975423052895" lon="10.318881536458571"><ele>69.0</ele><time>2026-04-25T13:34:09.929Z</time></trkpt><trkpt lat="42.78983687171118" lon="10.31888819143617"><ele>67.5</ele><time>2026-04-25T13:34:10.929Z</time></trkpt><trkpt lat="42.789913265213386" lon="10.318896446450342"><ele>66.0</ele><time>2026-04-25T13:34:11.929Z</time></trkpt><trkpt lat="42.789982112110806" lon="10.318930504786254"><ele>64.5</ele><time>2026-04-25T13:34:12.929Z</time></trkpt><trkpt lat="42.79006582163771" lon="10.318976719781952"><ele>63.0</ele><time>2026-04-25T13:34:13.929Z</time></trkpt><trkpt lat="42.79014547291316" lon="10.319003651028707"><ele>60.2</ele><time>2026-04-25T13:34:14.929Z</time></trkpt><trkpt lat="42.790226228670576" lon="10.319009119254424"><ele>57.4</ele><time>2026-04-25T13:34:15.929Z</time></trkpt><trkpt lat="42.79030855380171" lon="10.319018462524951"><ele>54.6</ele><time>2026-04-25T13:34:16.93Z</time></trkpt><trkpt lat="42.7904007708002" lon="10.319034996358981"><ele>51.800000000000004</ele><time>2026-04-25T13:34:17.931Z</time></trkpt><trkpt lat="42.79050456076047" lon="10.319067704936419"><ele>49.0</ele><time>2026-04-25T13:34:18.931Z</time></trkpt><trkpt lat="42.7905992116878" lon="10.319107744747738"><ele>49.0</ele><time>2026-04-25T13:34:19.93Z</time></trkpt><trkpt lat="42.790701969694986" lon="10.319138057577021"><ele>49.0</ele><time>2026-04-25T13:34:20.931Z</time></trkpt><trkpt lat="42.79081039149316" lon="10.319160839244441"><ele>49.0</ele><time>2026-04-25T13:34:21.931Z</time></trkpt><trkpt lat="42.790915057873086" lon="10.319184543317489"><ele>49.0</ele><time>2026-04-25T13:34:22.931Z</time></trkpt><trkpt lat="42.791020805876826" lon="10.319198137460202"><ele>49.0</ele><time>2026-04-25T13:34:23.93Z</time></trkpt><trkpt lat="42.79111934923518" lon="10.319224784255974"><ele>46.2</ele><time>2026-04-25T13:34:24.93Z</time></trkpt><trkpt lat="42.79122290805219" lon="10.31923451871964"><ele>43.400000000000006</ele><time>2026-04-25T13:34:25.931Z</time></trkpt><trkpt lat="42.79132429779035" lon="10.31928608302832"><ele>40.6</ele><time>2026-04-25T13:34:26.931Z</time></trkpt><trkpt lat="42.79142338760428" lon="10.319337070720746"><ele>37.8</ele><time>2026-04-25T13:34:27.931Z</time></trkpt><trkpt lat="42.79152276408469" lon="10.31940957654351"><ele>35.0</ele><time>2026-04-25T13:34:28.931Z</time></trkpt><trkpt lat="42.79162549057516" lon="10.319472313122134"><ele>35.0</ele><time>2026-04-25T13:34:29.93Z</time></trkpt><trkpt lat="42.7917237584162" lon="10.319499836501441"><ele>35.0</ele><time>2026-04-25T13:34:30.93Z</time></trkpt><trkpt lat="42.79184008615854" lon="10.319516336714711"><ele>35.0</ele><time>2026-04-25T13:34:31.93Z</time></trkpt><trkpt lat="42.79195365094976" lon="10.319508311858137"><ele>35.0</ele><time>2026-04-25T13:34:32.93Z</time></trkpt><trkpt lat="42.79207074061538" lon="10.319512528972764"><ele>35.0</ele><time>2026-04-25T13:34:33.93Z</time></trkpt><trkpt lat="42.79219415143948" lon="10.319532939268447"><ele>33.5</ele><time>2026-04-25T13:34:34.93Z</time></trkpt><trkpt lat="42.79231416546045" lon="10.319559134288744"><ele>32.0</ele><time>2026-04-25T13:34:35.93Z</time></trkpt><trkpt lat="42.79244170466131" lon="10.319585671142205"><ele>30.5</ele><time>2026-04-25T13:34:36.93Z</time></trkpt><trkpt lat="42.792560063921506" lon="10.319606858415755"><ele>29.0</ele><time>2026-04-25T13:34:37.93Z</time></trkpt><trkpt lat="42.79268341630221" lon="10.319623260660268"><ele>27.75</ele><time>2026-04-25T13:34:38.93Z</time></trkpt><trkpt lat="42.79280715394027" lon="10.31963581153437"><ele>26.5</ele><time>2026-04-25T13:34:39.93Z</time></trkpt><trkpt lat="42.792930833502695" lon="10.31964382999633"><ele>25.25</ele><time>2026-04-25T13:34:40.93Z</time></trkpt><trkpt lat="42.79305365412575" lon="10.319662385988583"><ele>24.0</ele><time>2026-04-25T13:34:41.93Z</time></trkpt><trkpt lat="42.79317322039986" lon="10.31968454118917"><ele>24.0</ele><time>2026-04-25T13:34:42.93Z</time></trkpt><trkpt lat="42.79329438068637" lon="10.31971155153326"><ele>24.0</ele><time>2026-04-25T13:34:43.93Z</time></trkpt><trkpt lat="42.79341259582301" lon="10.319729512052351"><ele>24.0</ele><time>2026-04-25T13:34:44.93Z</time></trkpt><trkpt lat="42.79352637357366" lon="10.319756927213103"><ele>24.0</ele><time>2026-04-25T13:34:45.93Z</time></trkpt><trkpt lat="42.79364800158052" lon="10.319795371603053"><ele>23.0</ele><time>2026-04-25T13:34:46.93Z</time></trkpt><trkpt lat="42.79375923428706" lon="10.319821739665995"><ele>22.0</ele><time>2026-04-25T13:34:47.93Z</time></trkpt><trkpt lat="42.79386500045866" lon="10.31984398650562"><ele>21.0</ele><time>2026-04-25T13:34:48.93Z</time></trkpt><trkpt lat="42.79397742168394" lon="10.319866266456437"><ele>20.0</ele><time>2026-04-25T13:34:49.93Z</time></trkpt><trkpt lat="42.79408145481899" lon="10.319891993400084"><ele>19.0</ele><time>2026-04-25T13:34:50.93Z</time></trkpt><trkpt lat="42.79418857630588" lon="10.319917517357732"><ele>19.0</ele><time>2026-04-25T13:34:51.93Z</time></trkpt><trkpt lat="42.794281080569284" lon="10.31993031863528"><ele>19.0</ele><time>2026-04-25T13:34:52.93Z</time></trkpt><trkpt lat="42.794378501929216" lon="10.319958393334064"><ele>19.0</ele><time>2026-04-25T13:34:53.93Z</time></trkpt><trkpt lat="42.7944659613249" lon="10.319978262072146"><ele>19.0</ele><time>2026-04-25T13:34:54.93Z</time></trkpt><trkpt lat="42.794530862475085" lon="10.319995052967021"><ele>19.0</ele><time>2026-04-25T13:34:55.93Z</time></trkpt><trkpt lat="42.79460200537261" lon="10.320021553117845"><ele>19.0</ele><time>2026-04-25T13:34:57.93Z</time></trkpt><trkpt lat="42.794714567627345" lon="10.319994388088755"><ele>18.5</ele><time>2026-04-25T13:35:01.93Z</time></trkpt><trkpt lat="42.79478387998692" lon="10.319878842716314"><ele>18.0</ele><time>2026-04-25T13:35:02.93Z</time></trkpt><trkpt lat="42.79481483911556" lon="10.319707536502701"><ele>17.5</ele><time>2026-04-25T13:35:03.93Z</time></trkpt><trkpt lat="42.794866525796834" lon="10.319555013202852"><ele>17.0</ele><time>2026-04-25T13:35:04.93Z</time></trkpt><trkpt lat="42.794919730427296" lon="10.319387649640484"><ele>17.25</ele><time>2026-04-25T13:35:05.93Z</time></trkpt><trkpt lat="42.794977466363065" lon="10.319206475390628"><ele>17.5</ele><time>2026-04-25T13:35:06.93Z</time></trkpt><trkpt lat="42.79503106434167" lon="10.319042038893635"><ele>17.75</ele><time>2026-04-25T13:35:07.93Z</time></trkpt><trkpt lat="42.79508846612049" lon="10.318868881830348"><ele>18.0</ele><time>2026-04-25T13:35:08.93Z</time></trkpt><trkpt lat="42.79514066277168" lon="10.318711180024879"><ele>17.4</ele><time>2026-04-25T13:35:09.93Z</time></trkpt><trkpt lat="42.795191174870524" lon="10.318555428605936"><ele>16.8</ele><time>2026-04-25T13:35:10.93Z</time></trkpt><trkpt lat="42.79523840727003" lon="10.318407991497148"><ele>16.2</ele><time>2026-04-25T13:35:11.93Z</time></trkpt><trkpt lat="42.795280117951776" lon="10.318277790558819"><ele>15.6</ele><time>2026-04-25T13:35:12.93Z</time></trkpt><trkpt lat="42.79531959767711" lon="10.318163428534424"><ele>15.0</ele><time>2026-04-25T13:35:13.93Z</time></trkpt><trkpt lat="42.79533761405871" lon="10.318060442046672"><ele>15.0</ele><time>2026-04-25T13:35:14.93Z</time></trkpt><trkpt lat="42.79537153275144" lon="10.317983590606685"><ele>15.0</ele><time>2026-04-25T13:35:15.93Z</time></trkpt><trkpt lat="42.795418499123834" lon="10.317901276431337"><ele>15.0</ele><time>2026-04-25T13:35:16.93Z</time></trkpt><trkpt lat="42.795467591848194" lon="10.317833852458218"><ele>15.0</ele><time>2026-04-25T13:35:17.93Z</time></trkpt><trkpt lat="42.79560429384908" lon="10.317795430782615"><ele>15.0</ele><time>2026-04-25T13:35:19.93Z</time></trkpt><trkpt lat="42.79569341960866" lon="10.317818225049352"><ele>15.0</ele><time>2026-04-25T13:35:20.93Z</time></trkpt><trkpt lat="42.79580310198699" lon="10.317855007575824"><ele>15.0</ele><time>2026-04-25T13:35:21.93Z</time></trkpt><trkpt lat="42.79591699201379" lon="10.317874046216636"><ele>15.0</ele><time>2026-04-25T13:35:22.93Z</time></trkpt><trkpt lat="42.79603274688814" lon="10.317899152161166"><ele>15.0</ele><time>2026-04-25T13:35:23.93Z</time></trkpt><trkpt lat="42.79615861542998" lon="10.317926147423979"><ele>15.0</ele><time>2026-04-25T13:35:24.93Z</time></trkpt><trkpt lat="42.796287271126246" lon="10.317949953582124"><ele>13.75</ele><time>2026-04-25T13:35:25.93Z</time></trkpt><trkpt lat="42.79642288853896" lon="10.317983108593"><ele>12.5</ele><time>2026-04-25T13:35:26.93Z</time></trkpt><trkpt lat="42.796547649418564" lon="10.3180112605105"><ele>11.25</ele><time>2026-04-25T13:35:27.93Z</time></trkpt><trkpt lat="42.79667085817915" lon="10.318039435233814"><ele>10.0</ele><time>2026-04-25T13:35:28.93Z</time></trkpt><trkpt lat="42.7967973014589" lon="10.318066066471516"><ele>9.0</ele><time>2026-04-25T13:35:29.93Z</time></trkpt><trkpt lat="42.79691782227295" lon="10.31809202081183"><ele>8.0</ele><time>2026-04-25T13:35:30.93Z</time></trkpt><trkpt lat="42.7970402762095" lon="10.318117217047114"><ele>7.0</ele><time>2026-04-25T13:35:31.93Z</time></trkpt><trkpt lat="42.79716320358991" lon="10.318140527967714"><ele>6.0</ele><time>2026-04-25T13:35:32.93Z</time></trkpt><trkpt lat="42.797281790071466" lon="10.318162761698874"><ele>6.0</ele><time>2026-04-25T13:35:33.929Z</time></trkpt><trkpt lat="42.79739521435769" lon="10.31818333210885"><ele>6.0</ele><time>2026-04-25T13:35:34.929Z</time></trkpt><trkpt lat="42.797504749908974" lon="10.318206641334198"><ele>6.0</ele><time>2026-04-25T13:35:35.929Z</time></trkpt><trkpt lat="42.797610319246346" lon="10.31823533099839"><ele>6.0</ele><time>2026-04-25T13:35:36.929Z</time></trkpt><trkpt lat="42.79771767836518" lon="10.318261092039497"><ele>6.0</ele><time>2026-04-25T13:35:37.929Z</time></trkpt><trkpt lat="42.79782561297506" lon="10.318285527155274"><ele>5.5</ele><time>2026-04-25T13:35:38.929Z</time></trkpt><trkpt lat="42.79793385316569" lon="10.318309306087162"><ele>5.0</ele><time>2026-04-25T13:35:39.929Z</time></trkpt><trkpt lat="42.798043909018375" lon="10.318332979030748"><ele>4.5</ele><time>2026-04-25T13:35:40.929Z</time></trkpt><trkpt lat="42.7981575707941" lon="10.318357682567743"><ele>4.0</ele><time>2026-04-25T13:35:41.929Z</time></trkpt><trkpt lat="42.79827376214756" lon="10.318381381284782"><ele>4.0</ele><time>2026-04-25T13:35:42.929Z</time></trkpt><trkpt lat="42.79838407281307" lon="10.31840245673214"><ele>4.0</ele><time>2026-04-25T13:35:43.929Z</time></trkpt><trkpt lat="42.798494527439836" lon="10.318422254629548"><ele>4.0</ele><time>2026-04-25T13:35:44.929Z</time></trkpt><trkpt lat="42.79860362410703" lon="10.318444461546573"><ele>4.0</ele><time>2026-04-25T13:35:45.929Z</time></trkpt><trkpt lat="42.79870360512107" lon="10.318463675300189"><ele>4.0</ele><time>2026-04-25T13:35:46.929Z</time></trkpt><trkpt lat="42.79881023961893" lon="10.318488316616019"><ele>4.0</ele><time>2026-04-25T13:35:47.929Z</time></trkpt><trkpt lat="42.798914952312465" lon="10.31851203660591"><ele>4.0</ele><time>2026-04-25T13:35:48.929Z</time></trkpt><trkpt lat="42.79901700149491" lon="10.318530198415738"><ele>4.0</ele><time>2026-04-25T13:35:49.929Z</time></trkpt><trkpt lat="42.79912071869586" lon="10.318547012104988"><ele>4.0</ele><time>2026-04-25T13:35:50.929Z</time></trkpt><trkpt lat="42.7992172962102" lon="10.318564726637156"><ele>4.0</ele><time>2026-04-25T13:35:51.929Z</time></trkpt><trkpt lat="42.799311111254035" lon="10.318585299555199"><ele>3.833333333333333</ele><time>2026-04-25T13:35:52.929Z</time></trkpt><trkpt lat="42.799387377060235" lon="10.318609527640254"><ele>3.6666666666666665</ele><time>2026-04-25T13:35:53.929Z</time></trkpt><trkpt lat="42.79944895104362" lon="10.318644657855264"><ele>3.5</ele><time>2026-04-25T13:35:54.929Z</time></trkpt><trkpt lat="42.79952980719669" lon="10.318683482374162"><ele>3.333333333333333</ele><time>2026-04-25T13:35:56.929Z</time></trkpt><trkpt lat="42.79952159400081" lon="10.318835729501298"><ele>3.1666666666666665</ele><time>2026-04-25T13:35:57.929Z</time></trkpt><trkpt lat="42.79955477436303" lon="10.318970650057134"><ele>3.0</ele><time>2026-04-25T13:35:59.929Z</time></trkpt><trkpt lat="42.79964147459134" lon="10.318977595568153"><ele>3.0</ele><time>2026-04-25T13:36:01.929Z</time></trkpt><trkpt lat="42.799716130544404" lon="10.318827336453095"><ele>3.0</ele><time>2026-04-25T13:36:03.929Z</time></trkpt><trkpt lat="42.79973332754027" lon="10.318711460125563"><ele>3.0</ele><time>2026-04-25T13:36:04.929Z</time></trkpt><trkpt lat="42.79974233179018" lon="10.31859137489837"><ele>3.0</ele><time>2026-04-25T13:36:05.929Z</time></trkpt><trkpt lat="42.79970101851379" lon="10.318469321250356"><ele>3.0</ele><time>2026-04-25T13:36:06.929Z</time></trkpt><trkpt lat="42.79967774905319" lon="10.318354260488189"><ele>3.0</ele><time>2026-04-25T13:36:07.929Z</time></trkpt><trkpt lat="42.799641839540975" lon="10.318242548408321"><ele>3.0</ele><time>2026-04-25T13:36:08.929Z</time></trkpt><trkpt lat="42.79962197621311" lon="10.318126702448017"><ele>3.0</ele><time>2026-04-25T13:36:09.929Z</time></trkpt><trkpt lat="42.79965552615771" lon="10.31799623651802"><ele>3.0</ele><time>2026-04-25T13:36:10.929Z</time></trkpt><trkpt lat="42.799665448098736" lon="10.31785333163877"><ele>3.0</ele><time>2026-04-25T13:36:11.929Z</time></trkpt><trkpt lat="42.79968214029732" lon="10.317703108239131"><ele>3.0</ele><time>2026-04-25T13:36:12.929Z</time></trkpt><trkpt lat="42.79969887305573" lon="10.317548500263571"><ele>3.0</ele><time>2026-04-25T13:36:13.929Z</time></trkpt><trkpt lat="42.79971620324457" lon="10.317388372353529"><ele>3.0</ele><time>2026-04-25T13:36:14.929Z</time></trkpt><trkpt lat="42.799728344064484" lon="10.317240252741405"><ele>3.0</ele><time>2026-04-25T13:36:15.929Z</time></trkpt><trkpt lat="42.79974026597227" lon="10.31710215031644"><ele>3.0</ele><time>2026-04-25T13:36:16.929Z</time></trkpt><trkpt lat="42.79975403405104" lon="10.316973053809726"><ele>2.8</ele><time>2026-04-25T13:36:17.929Z</time></trkpt><trkpt lat="42.79976971561584" lon="10.316824113936395"><ele>2.5999999999999996</ele><time>2026-04-25T13:36:18.929Z</time></trkpt><trkpt lat="42.799784164675145" lon="10.31668324105553"><ele>2.4000000000000004</ele><time>2026-04-25T13:36:19.929Z</time></trkpt><trkpt lat="42.799800426530126" lon="10.316524694097666"><ele>2.2</ele><time>2026-04-25T13:36:20.929Z</time></trkpt><trkpt lat="42.79981555430323" lon="10.316377204111777"><ele>2.0</ele><time>2026-04-25T13:36:21.929Z</time></trkpt><trkpt lat="42.799827768133284" lon="10.316258124157784"><ele>2.0</ele><time>2026-04-25T13:36:22.932Z</time></trkpt><trkpt lat="42.79984237602493" lon="10.31612236603569"><ele>2.0</ele><time>2026-04-25T13:36:23.931Z</time></trkpt><trkpt lat="42.799858992557716" lon="10.315968137073156"><ele>2.0</ele><time>2026-04-25T13:36:24.931Z</time></trkpt><trkpt lat="42.799872230677444" lon="10.31584592444954"><ele>2.0</ele><time>2026-04-25T13:36:25.931Z</time></trkpt><trkpt lat="42.79988600741347" lon="10.31571541676352"><ele>2.0</ele><time>2026-04-25T13:36:26.931Z</time></trkpt><trkpt lat="42.79988222442412" lon="10.315598612829072"><ele>2.0</ele><time>2026-04-25T13:36:27.931Z</time></trkpt><trkpt lat="42.79990997067101" lon="10.315488710424484"><ele>2.0</ele><time>2026-04-25T13:36:28.931Z</time></trkpt><trkpt lat="42.799909352108585" lon="10.315348393598503"><ele>2.0</ele><time>2026-04-25T13:36:29.931Z</time></trkpt><trkpt lat="42.7999335196189" lon="10.31519983890906"><ele>2.0</ele><time>2026-04-25T13:36:30.931Z</time></trkpt><trkpt lat="42.79995449306341" lon="10.315039903513446"><ele>2.0</ele><time>2026-04-25T13:36:31.931Z</time></trkpt><trkpt lat="42.799975247691734" lon="10.314881574635224"><ele>2.0</ele><time>2026-04-25T13:36:32.931Z</time></trkpt><trkpt lat="42.79998866938041" lon="10.31475129015359"><ele>2.0</ele><time>2026-04-25T13:36:33.931Z</time></trkpt><trkpt lat="42.80001032781356" lon="10.314588375903124"><ele>2.0</ele><time>2026-04-25T13:36:34.931Z</time></trkpt><trkpt lat="42.80003098186648" lon="10.314423081297893"><ele>2.0</ele><time>2026-04-25T13:36:35.931Z</time></trkpt><trkpt lat="42.80006425299011" lon="10.314269338289716"><ele>2.2</ele><time>2026-04-25T13:36:36.931Z</time></trkpt><trkpt lat="42.80010108575606" lon="10.314118979971191"><ele>2.4000000000000004</ele><time>2026-04-25T13:36:37.931Z</time></trkpt><trkpt lat="42.80014482172802" lon="10.313983021977345"><ele>2.5999999999999996</ele><time>2026-04-25T13:36:38.931Z</time></trkpt><trkpt lat="42.80019257912919" lon="10.31385140389713"><ele>2.8</ele><time>2026-04-25T13:36:39.931Z</time></trkpt><trkpt lat="42.80024173198813" lon="10.313727584450305"><ele>3.0</ele><time>2026-04-25T13:36:40.931Z</time></trkpt><trkpt lat="42.8002867146713" lon="10.313611862357751"><ele>3.2</ele><time>2026-04-25T13:36:41.931Z</time></trkpt><trkpt lat="42.80032995169231" lon="10.313507953912856"><ele>3.4</ele><time>2026-04-25T13:36:42.931Z</time></trkpt><trkpt lat="42.80037093804069" lon="10.313397001693811"><ele>3.6000000000000005</ele><time>2026-04-25T13:36:43.931Z</time></trkpt><trkpt lat="42.800418483514406" lon="10.313287944621957"><ele>3.8000000000000003</ele><time>2026-04-25T13:36:44.931Z</time></trkpt><trkpt lat="42.80046236802388" lon="10.313171517416043"><ele>4.0</ele><time>2026-04-25T13:36:45.931Z</time></trkpt><trkpt lat="42.80052363033951" lon="10.313060162411059"><ele>3.4000000000000004</ele><time>2026-04-25T13:36:46.931Z</time></trkpt><trkpt lat="42.80057619436799" lon="10.312938165679414"><ele>2.8000000000000003</ele><time>2026-04-25T13:36:47.931Z</time></trkpt><trkpt lat="42.80062492249731" lon="10.312824154583991"><ele>2.2</ele><time>2026-04-25T13:36:48.931Z</time></trkpt><trkpt lat="42.800673203472925" lon="10.312711462800689"><ele>1.6</ele><time>2026-04-25T13:36:49.931Z</time></trkpt><trkpt lat="42.80072352479939" lon="10.312594008671086"><ele>1.0</ele><time>2026-04-25T13:36:50.931Z</time></trkpt><trkpt lat="42.800760355647284" lon="10.312469190740329"><ele>1.0</ele><time>2026-04-25T13:36:51.931Z</time></trkpt><trkpt lat="42.80083252712755" lon="10.31237682656898"><ele>1.0</ele><time>2026-04-25T13:36:52.931Z</time></trkpt><trkpt lat="42.80087771630247" lon="10.312279690359107"><ele>1.0</ele><time>2026-04-25T13:36:53.931Z</time></trkpt><trkpt lat="42.80092340070772" lon="10.31216410217244"><ele>1.0</ele><time>2026-04-25T13:36:54.931Z</time></trkpt><trkpt lat="42.800967934882614" lon="10.312054606487191"><ele>1.0</ele><time>2026-04-25T13:36:55.931Z</time></trkpt><trkpt lat="42.8010069030678" lon="10.31194452975402"><ele>0.8333333333333333</ele><time>2026-04-25T13:36:56.931Z</time></trkpt><trkpt lat="42.801055394370955" lon="10.311834540904995"><ele>0.6666666666666666</ele><time>2026-04-25T13:36:57.931Z</time></trkpt><trkpt lat="42.8011005928041" lon="10.311732597027381"><ele>0.5</ele><time>2026-04-25T13:36:58.931Z</time></trkpt><trkpt lat="42.801145161224504" lon="10.311630528615494"><ele>0.3333333333333333</ele><time>2026-04-25T13:36:59.931Z</time></trkpt><trkpt lat="42.801185943579924" lon="10.311525956578938"><ele>0.16666666666666666</ele><time>2026-04-25T13:37:00.931Z</time></trkpt><trkpt lat="42.80122938516939" lon="10.311419011411523"><ele>0.0</ele><time>2026-04-25T13:37:01.931Z</time></trkpt><trkpt lat="42.80126637677647" lon="10.31131570990728"><ele>0.0</ele><time>2026-04-25T13:37:02.931Z</time></trkpt><trkpt lat="42.801309793879604" lon="10.311204448766517"><ele>0.0</ele><time>2026-04-25T13:37:03.931Z</time></trkpt><trkpt lat="42.80135394960104" lon="10.311097735228794"><ele>0.0</ele><time>2026-04-25T13:37:04.931Z</time></trkpt><trkpt lat="42.80139585722211" lon="10.31099838480361"><ele>0.0</ele><time>2026-04-25T13:37:05.931Z</time></trkpt><trkpt lat="42.80143712385096" lon="10.310900489717786"><ele>0.0</ele><time>2026-04-25T13:37:06.931Z</time></trkpt><trkpt lat="42.8014764684779" lon="10.310804937336572"><ele>0.0</ele><time>2026-04-25T13:37:07.931Z</time></trkpt><trkpt lat="42.801516591130564" lon="10.310701756502347"><ele>0.0</ele><time>2026-04-25T13:37:08.931Z</time></trkpt><trkpt lat="42.80156667313913" lon="10.310576020339033"><ele>0.0</ele><time>2026-04-25T13:37:09.931Z</time></trkpt><trkpt lat="42.80162611413863" lon="10.3104644185897"><ele>0.0</ele><time>2026-04-25T13:37:10.931Z</time></trkpt><trkpt lat="42.8016599512183" lon="10.310342779536905"><ele>0.0</ele><time>2026-04-25T13:37:11.931Z</time></trkpt><trkpt lat="42.80170989749408" lon="10.310232080453327"><ele>0.0</ele><time>2026-04-25T13:37:12.931Z</time></trkpt><trkpt lat="42.80175976131134" lon="10.310113934739103"><ele>0.0</ele><time>2026-04-25T13:37:13.931Z</time></trkpt><trkpt lat="42.80180754357404" lon="10.310003927734108"><ele>0.0</ele><time>2026-04-25T13:37:14.931Z</time></trkpt><trkpt lat="42.80185020061917" lon="10.309898597637698"><ele>0.0</ele><time>2026-04-25T13:37:15.931Z</time></trkpt><trkpt lat="42.80190615786964" lon="10.309807195134246"><ele>0.0</ele><time>2026-04-25T13:37:16.931Z</time></trkpt><trkpt lat="42.80193471027859" lon="10.309696244404138"><ele>0.0</ele><time>2026-04-25T13:37:17.931Z</time></trkpt><trkpt lat="42.80197854502657" lon="10.309595629735938"><ele>0.0</ele><time>2026-04-25T13:37:18.93Z</time></trkpt><trkpt lat="42.80202384644787" lon="10.309495539105356"><ele>-0.3333333333333333</ele><time>2026-04-25T13:37:19.93Z</time></trkpt><trkpt lat="42.80206814661533" lon="10.309398347630022"><ele>-0.6666666666666666</ele><time>2026-04-25T13:37:20.93Z</time></trkpt><trkpt lat="42.80211182403294" lon="10.309297007658133"><ele>-1.0</ele><time>2026-04-25T13:37:21.93Z</time></trkpt><trkpt lat="42.802157111109906" lon="10.309194081672704"><ele>-1.3333333333333333</ele><time>2026-04-25T13:37:22.93Z</time></trkpt><trkpt lat="42.80219988515263" lon="10.309092362818571"><ele>-1.6666666666666665</ele><time>2026-04-25T13:37:23.93Z</time></trkpt><trkpt lat="42.802246323969435" lon="10.309001893800572"><ele>-2.0</ele><time>2026-04-25T13:37:24.93Z</time></trkpt><trkpt lat="42.802295425737896" lon="10.308922242516477"><ele>-1.6666666666666665</ele><time>2026-04-25T13:37:25.93Z</time></trkpt><trkpt lat="42.80234683053835" lon="10.308852842022938"><ele>-1.3333333333333333</ele><time>2026-04-25T13:37:26.93Z</time></trkpt><trkpt lat="42.80240683228606" lon="10.30878816007608"><ele>-1.0</ele><time>2026-04-25T13:37:27.93Z</time></trkpt><trkpt lat="42.802458707010715" lon="10.30873103530433"><ele>-0.6666666666666666</ele><time>2026-04-25T13:37:28.93Z</time></trkpt><trkpt lat="42.80253875728353" lon="10.308666452614133"><ele>-0.3333333333333333</ele><time>2026-04-25T13:37:30.93Z</time></trkpt><trkpt lat="42.802601237892745" lon="10.308631867432075"><ele>0.0</ele><time>2026-04-25T13:37:32.93Z</time></trkpt><trkpt lat="42.80269668104977" lon="10.308530729125366"><ele>0.0</ele><time>2026-04-25T13:37:34.93Z</time></trkpt><trkpt lat="42.802748032767795" lon="10.308455191811767"><ele>0.0</ele><time>2026-04-25T13:37:35.93Z</time></trkpt><trkpt lat="42.80279247792213" lon="10.30836569263175"><ele>0.0</ele><time>2026-04-25T13:37:36.93Z</time></trkpt><trkpt lat="42.80284367458561" lon="10.308278693273024"><ele>0.0</ele><time>2026-04-25T13:37:37.93Z</time></trkpt><trkpt lat="42.8028604491054" lon="10.30816870771697"><ele>0.0</ele><time>2026-04-25T13:37:38.93Z</time></trkpt><trkpt lat="42.80285372580611" lon="10.308059926865837"><ele>0.0</ele><time>2026-04-25T13:37:39.93Z</time></trkpt><trkpt lat="42.802821396700864" lon="10.307956065026584"><ele>0.8</ele><time>2026-04-25T13:37:40.93Z</time></trkpt><trkpt lat="42.80276733819216" lon="10.30786932889219"><ele>1.6</ele><time>2026-04-25T13:37:41.93Z</time></trkpt><trkpt lat="42.802691101507776" lon="10.307799874314725"><ele>2.4000000000000004</ele><time>2026-04-25T13:37:42.93Z</time></trkpt><trkpt lat="42.80258306321311" lon="10.307763655315757"><ele>3.2</ele><time>2026-04-25T13:37:43.93Z</time></trkpt><trkpt lat="42.80247601922642" lon="10.307708813746906"><ele>4.0</ele><time>2026-04-25T13:37:44.93Z</time></trkpt><trkpt lat="42.802362338926756" lon="10.307689251331777"><ele>4.0</ele><time>2026-04-25T13:37:45.93Z</time></trkpt><trkpt lat="42.80226279261833" lon="10.307635190637203"><ele>4.0</ele><time>2026-04-25T13:37:46.93Z</time></trkpt><trkpt lat="42.802163612406694" lon="10.30757354854013"><ele>4.0</ele><time>2026-04-25T13:37:47.93Z</time></trkpt><trkpt lat="42.802067140124635" lon="10.307511099200031"><ele>4.0</ele><time>2026-04-25T13:37:48.93Z</time></trkpt><trkpt lat="42.801974981784284" lon="10.307440416840434"><ele>4.0</ele><time>2026-04-25T13:37:49.93Z</time></trkpt><trkpt lat="42.80187286563812" lon="10.307347034155985"><ele>4.0</ele><time>2026-04-25T13:37:50.93Z</time></trkpt><trkpt lat="42.80178525910215" lon="10.307225362967221"><ele>4.0</ele><time>2026-04-25T13:37:51.93Z</time></trkpt><trkpt lat="42.80169464002182" lon="10.30712339419044"><ele>4.0</ele><time>2026-04-25T13:37:52.93Z</time></trkpt><trkpt lat="42.801595079024025" lon="10.307011363561596"><ele>4.0</ele><time>2026-04-25T13:37:53.93Z</time></trkpt><trkpt lat="42.80149679320066" lon="10.306903824914475"><ele>4.0</ele><time>2026-04-25T13:37:54.93Z</time></trkpt><trkpt lat="42.80139892121536" lon="10.306797769727927"><ele>4.0</ele><time>2026-04-25T13:37:55.93Z</time></trkpt><trkpt lat="42.80129707289077" lon="10.306687443503996"><ele>4.0</ele><time>2026-04-25T13:37:56.93Z</time></trkpt><trkpt lat="42.80119913686748" lon="10.306580077713894"><ele>4.0</ele><time>2026-04-25T13:37:57.93Z</time></trkpt><trkpt lat="42.80110486336096" lon="10.306472676868568"><ele>4.0</ele><time>2026-04-25T13:37:58.93Z</time></trkpt><trkpt lat="42.8009958090045" lon="10.306376554256431"><ele>4.0</ele><time>2026-04-25T13:37:59.93Z</time></trkpt><trkpt lat="42.80090660829128" lon="10.306252783391232"><ele>4.0</ele><time>2026-04-25T13:38:00.93Z</time></trkpt><trkpt lat="42.80080841402842" lon="10.306144843441329"><ele>4.0</ele><time>2026-04-25T13:38:01.93Z</time></trkpt><trkpt lat="42.80071041311595" lon="10.30603589800121"><ele>4.0</ele><time>2026-04-25T13:38:02.93Z</time></trkpt><trkpt lat="42.800617443972946" lon="10.305929760370764"><ele>4.0</ele><time>2026-04-25T13:38:03.93Z</time></trkpt><trkpt lat="42.8005340555449" lon="10.305824207269966"><ele>4.0</ele><time>2026-04-25T13:38:04.93Z</time></trkpt><trkpt lat="42.800452446897104" lon="10.30569796706139"><ele>4.0</ele><time>2026-04-25T13:38:05.93Z</time></trkpt><trkpt lat="42.8003474116139" lon="10.305620617642914"><ele>4.25</ele><time>2026-04-25T13:38:06.93Z</time></trkpt><trkpt lat="42.8002571710362" lon="10.30550893969924"><ele>4.5</ele><time>2026-04-25T13:38:07.93Z</time></trkpt><trkpt lat="42.80015476713542" lon="10.305417153874789"><ele>4.75</ele><time>2026-04-25T13:38:08.93Z</time></trkpt><trkpt lat="42.80004866016298" lon="10.305327933083088"><ele>5.0</ele><time>2026-04-25T13:38:09.93Z</time></trkpt><trkpt lat="42.79994039837878" lon="10.305240624382769"><ele>5.0</ele><time>2026-04-25T13:38:10.93Z</time></trkpt><trkpt lat="42.79982162123258" lon="10.305172828374404"><ele>5.0</ele><time>2026-04-25T13:38:11.93Z</time></trkpt><trkpt lat="42.79972112333671" lon="10.305064057049691"><ele>5.0</ele><time>2026-04-25T13:38:12.93Z</time></trkpt><trkpt lat="42.7996111868543" lon="10.304972703611883"><ele>5.0</ele><time>2026-04-25T13:38:13.93Z</time></trkpt><trkpt lat="42.79950239774749" lon="10.304881810265307"><ele>5.0</ele><time>2026-04-25T13:38:14.93Z</time></trkpt><trkpt lat="42.799399906302526" lon="10.304796178613016"><ele>5.0</ele><time>2026-04-25T13:38:15.93Z</time></trkpt><trkpt lat="42.79929572065999" lon="10.304734808926113"><ele>5.0</ele><time>2026-04-25T13:38:16.93Z</time></trkpt><trkpt lat="42.799212421177" lon="10.30465053451969"><ele>5.0</ele><time>2026-04-25T13:38:17.93Z</time></trkpt><trkpt lat="42.799140094182675" lon="10.304587503686559"><ele>5.0</ele><time>2026-04-25T13:38:18.93Z</time></trkpt><trkpt lat="42.79907986608632" lon="10.304531571883167"><ele>5.333333333333334</ele><time>2026-04-25T13:38:19.93Z</time></trkpt><trkpt lat="42.79900270464303" lon="10.304437929734735"><ele>5.666666666666667</ele><time>2026-04-25T13:38:21.93Z</time></trkpt><trkpt lat="42.79897113806049" lon="10.304350449298516"><ele>6.0</ele><time>2026-04-25T13:38:27.929Z</time></trkpt><trkpt lat="42.79891176242305" lon="10.304292248788297"><ele>6.333333333333334</ele><time>2026-04-25T13:39:28.93Z</time></trkpt><trkpt lat="42.79900637367822" lon="10.304380065915822"><ele>6.666666666666667</ele><time>2026-04-25T13:44:26.93Z</time></trkpt><trkpt lat="42.798948409798975" lon="10.304332524285877"><ele>7.0</ele><time>2026-04-25T13:45:26.932Z</time></trkpt><trkpt lat="42.79902217684887" lon="10.304270291100263"><ele>7.0</ele><time>2026-04-25T13:50:54.903Z</time></trkpt><trkpt lat="42.79895977371322" lon="10.304239998745102"><ele>7.0</ele><time>2026-04-25T13:51:14.905Z</time></trkpt><trkpt lat="42.798896239755194" lon="10.304230737260081"><ele>7.0</ele><time>2026-04-25T13:51:20.905Z</time></trkpt><trkpt lat="42.79885319410384" lon="10.304296886518266"><ele>7.0</ele><time>2026-04-25T13:51:45.904Z</time></trkpt><trkpt lat="42.79890615867616" lon="10.304370466903215"><ele>7.0</ele><time>2026-04-25T13:51:47.904Z</time></trkpt><trkpt lat="42.7989605750401" lon="10.304419469713455"><ele>7.0</ele><time>2026-04-25T13:51:48.904Z</time></trkpt><trkpt lat="42.79902400796241" lon="10.304480542734254"><ele>7.0</ele><time>2026-04-25T13:51:49.904Z</time></trkpt><trkpt lat="42.79909072974708" lon="10.304540615566221"><ele>7.0</ele><time>2026-04-25T13:51:50.904Z</time></trkpt><trkpt lat="42.799143347831645" lon="10.304637718164855"><ele>6.999999999999999</ele><time>2026-04-25T13:51:51.904Z</time></trkpt><trkpt lat="42.79923035704062" lon="10.304656832999104"><ele>6.999999999999999</ele><time>2026-04-25T13:51:52.904Z</time></trkpt><trkpt lat="42.7993028148971" lon="10.304719874676213"><ele>7.0</ele><time>2026-04-25T13:51:53.904Z</time></trkpt><trkpt lat="42.79937914123998" lon="10.304789700554563"><ele>7.0</ele><time>2026-04-25T13:51:54.904Z</time></trkpt><trkpt lat="42.79945496801299" lon="10.30489528653536"><ele>6.6</ele><time>2026-04-25T13:51:55.904Z</time></trkpt><trkpt lat="42.799544563294944" lon="10.304970143450337"><ele>6.199999999999999</ele><time>2026-04-25T13:51:56.904Z</time></trkpt><trkpt lat="42.799632901713714" lon="10.305043950246244"><ele>5.8</ele><time>2026-04-25T13:51:57.904Z</time></trkpt><trkpt lat="42.79973709402434" lon="10.305104066790134"><ele>5.4</ele><time>2026-04-25T13:51:58.904Z</time></trkpt><trkpt lat="42.799833943388826" lon="10.30519317379092"><ele>5.0</ele><time>2026-04-25T13:51:59.904Z</time></trkpt><trkpt lat="42.79993863056948" lon="10.305284094267948"><ele>5.0</ele><time>2026-04-25T13:52:00.904Z</time></trkpt><trkpt lat="42.80003048658546" lon="10.305381694995184"><ele>5.0</ele><time>2026-04-25T13:52:01.904Z</time></trkpt><trkpt lat="42.80012762088141" lon="10.305475334776851"><ele>5.0</ele><time>2026-04-25T13:52:02.904Z</time></trkpt><trkpt lat="42.80021689742388" lon="10.305562702149835"><ele>5.0</ele><time>2026-04-25T13:52:03.904Z</time></trkpt><trkpt lat="42.80031547782329" lon="10.305650221158741"><ele>4.75</ele><time>2026-04-25T13:52:04.904Z</time></trkpt><trkpt lat="42.800414562867225" lon="10.30573660823302"><ele>4.5</ele><time>2026-04-25T13:52:05.904Z</time></trkpt><trkpt lat="42.80052355332297" lon="10.305853650178053"><ele>4.25</ele><time>2026-04-25T13:52:06.904Z</time></trkpt><trkpt lat="42.800635546885985" lon="10.305984092745584"><ele>4.0</ele><time>2026-04-25T13:52:07.904Z</time></trkpt><trkpt lat="42.80074864054588" lon="10.306125968504636"><ele>4.0</ele><time>2026-04-25T13:52:08.904Z</time></trkpt><trkpt lat="42.80086426105556" lon="10.306262881248312"><ele>4.0</ele><time>2026-04-25T13:52:09.904Z</time></trkpt><trkpt lat="42.80098386718951" lon="10.306397573764832"><ele>4.0</ele><time>2026-04-25T13:52:10.904Z</time></trkpt><trkpt lat="42.80109839494358" lon="10.306528750871177"><ele>4.0</ele><time>2026-04-25T13:52:11.904Z</time></trkpt><trkpt lat="42.80120398588921" lon="10.306647726171441"><ele>4.0</ele><time>2026-04-25T13:52:12.904Z</time></trkpt><trkpt lat="42.801311944051605" lon="10.306766725703968"><ele>4.0</ele><time>2026-04-25T13:52:13.903Z</time></trkpt><trkpt lat="42.801420325762514" lon="10.306883466993895"><ele>4.0</ele><time>2026-04-25T13:52:14.903Z</time></trkpt><trkpt lat="42.80152742509833" lon="10.307008677980237"><ele>4.0</ele><time>2026-04-25T13:52:15.903Z</time></trkpt><trkpt lat="42.80163683707998" lon="10.307120679520848"><ele>4.0</ele><time>2026-04-25T13:52:16.903Z</time></trkpt><trkpt lat="42.8017377556445" lon="10.307235686096421"><ele>4.0</ele><time>2026-04-25T13:52:17.903Z</time></trkpt><trkpt lat="42.8018258529396" lon="10.30734405413228"><ele>4.0</ele><time>2026-04-25T13:52:18.903Z</time></trkpt><trkpt lat="42.80190838964962" lon="10.307439185770926"><ele>4.0</ele><time>2026-04-25T13:52:19.903Z</time></trkpt><trkpt lat="42.801991460737725" lon="10.30753546291567"><ele>4.0</ele><time>2026-04-25T13:52:20.903Z</time></trkpt><trkpt lat="42.802065672693175" lon="10.307625151721266"><ele>4.0</ele><time>2026-04-25T13:52:21.903Z</time></trkpt><trkpt lat="42.80213219738882" lon="10.307726353815724"><ele>4.0</ele><time>2026-04-25T13:52:22.903Z</time></trkpt><trkpt lat="42.80218352761708" lon="10.307840733435164"><ele>4.0</ele><time>2026-04-25T13:52:23.903Z</time></trkpt><trkpt lat="42.802226955593994" lon="10.307961152874395"><ele>3.2</ele><time>2026-04-25T13:52:24.903Z</time></trkpt><trkpt lat="42.8022606024835" lon="10.308099659098097"><ele>2.4000000000000004</ele><time>2026-04-25T13:52:25.903Z</time></trkpt><trkpt lat="42.80227981354305" lon="10.30824541991296"><ele>1.6</ele><time>2026-04-25T13:52:26.903Z</time></trkpt><trkpt lat="42.80228131539765" lon="10.30840414795902"><ele>0.8</ele><time>2026-04-25T13:52:27.903Z</time></trkpt><trkpt lat="42.80229427842595" lon="10.308542099709893"><ele>0.0</ele><time>2026-04-25T13:52:28.903Z</time></trkpt><trkpt lat="42.802291487797355" lon="10.30868146510789"><ele>0.0</ele><time>2026-04-25T13:52:29.903Z</time></trkpt><trkpt lat="42.80226985791673" lon="10.30878989229825"><ele>0.0</ele><time>2026-04-25T13:52:30.903Z</time></trkpt><trkpt lat="42.80223621290592" lon="10.308905315169756"><ele>0.0</ele><time>2026-04-25T13:52:31.903Z</time></trkpt><trkpt lat="42.8022011235292" lon="10.309016692882473"><ele>0.0</ele><time>2026-04-25T13:52:32.903Z</time></trkpt><trkpt lat="42.80215607156855" lon="10.30913573769647"><ele>0.0</ele><time>2026-04-25T13:52:33.903Z</time></trkpt><trkpt lat="42.80208606271867" lon="10.309259084768957"><ele>-0.2</ele><time>2026-04-25T13:52:34.903Z</time></trkpt><trkpt lat="42.80202288319665" lon="10.30938474472932"><ele>-0.4</ele><time>2026-04-25T13:52:35.903Z</time></trkpt><trkpt lat="42.801973650234295" lon="10.309490884706687"><ele>-0.6000000000000001</ele><time>2026-04-25T13:52:36.903Z</time></trkpt><trkpt lat="42.801939046049675" lon="10.309594077409612"><ele>-0.8</ele><time>2026-04-25T13:52:37.903Z</time></trkpt><trkpt lat="42.801886913418166" lon="10.309714555345526"><ele>-1.0</ele><time>2026-04-25T13:52:38.903Z</time></trkpt><trkpt lat="42.801846280367556" lon="10.309823087393246"><ele>-0.8</ele><time>2026-04-25T13:52:39.903Z</time></trkpt><trkpt lat="42.80179524476194" lon="10.309943116809098"><ele>-0.6000000000000001</ele><time>2026-04-25T13:52:40.903Z</time></trkpt><trkpt lat="42.801750241678896" lon="10.310049771693453"><ele>-0.4</ele><time>2026-04-25T13:52:41.903Z</time></trkpt><trkpt lat="42.80169605729099" lon="10.310171450832161"><ele>-0.2</ele><time>2026-04-25T13:52:42.903Z</time></trkpt><trkpt lat="42.801655339533994" lon="10.310281689906816"><ele>0.0</ele><time>2026-04-25T13:52:43.903Z</time></trkpt><trkpt lat="42.80161759971084" lon="10.31039269513575"><ele>0.0</ele><time>2026-04-25T13:52:44.903Z</time></trkpt><trkpt lat="42.8015528442566" lon="10.310503096339518"><ele>0.0</ele><time>2026-04-25T13:52:45.903Z</time></trkpt><trkpt lat="42.80151644942296" lon="10.310615761295459"><ele>0.0</ele><time>2026-04-25T13:52:46.903Z</time></trkpt><trkpt lat="42.80147004774609" lon="10.310738907174876"><ele>0.0</ele><time>2026-04-25T13:52:47.903Z</time></trkpt><trkpt lat="42.801420662333655" lon="10.310857347955626"><ele>0.0</ele><time>2026-04-25T13:52:48.903Z</time></trkpt><trkpt lat="42.801367238360264" lon="10.310980900745482"><ele>0.0</ele><time>2026-04-25T13:52:49.903Z</time></trkpt><trkpt lat="42.801326710489036" lon="10.311089493706426"><ele>0.0</ele><time>2026-04-25T13:52:50.903Z</time></trkpt><trkpt lat="42.80128290124962" lon="10.311187139054118"><ele>0.0</ele><time>2026-04-25T13:52:51.903Z</time></trkpt><trkpt lat="42.80124153935668" lon="10.311291680838682"><ele>0.0</ele><time>2026-04-25T13:52:52.903Z</time></trkpt><trkpt lat="42.801191348277925" lon="10.311394439925355"><ele>0.0</ele><time>2026-04-25T13:52:53.903Z</time></trkpt><trkpt lat="42.80115035306946" lon="10.311513839593033"><ele>0.0</ele><time>2026-04-25T13:52:54.903Z</time></trkpt><trkpt lat="42.80109345625229" lon="10.311655588688605"><ele>0.0</ele><time>2026-04-25T13:52:55.903Z</time></trkpt><trkpt lat="42.80103177559286" lon="10.311757956185353"><ele>0.0</ele><time>2026-04-25T13:52:56.903Z</time></trkpt><trkpt lat="42.80097030876455" lon="10.311878376366483"><ele>0.0</ele><time>2026-04-25T13:52:57.903Z</time></trkpt><trkpt lat="42.800919855867214" lon="10.311994565991098"><ele>0.0</ele><time>2026-04-25T13:52:58.903Z</time></trkpt><trkpt lat="42.8008806319134" lon="10.31210358414846"><ele>0.0</ele><time>2026-04-25T13:52:59.903Z</time></trkpt><trkpt lat="42.80083945780092" lon="10.312212931838816"><ele>0.2</ele><time>2026-04-25T13:53:00.903Z</time></trkpt><trkpt lat="42.800794375414746" lon="10.312322240447742"><ele>0.4</ele><time>2026-04-25T13:53:01.902Z</time></trkpt><trkpt lat="42.800745598673" lon="10.312427079921521"><ele>0.6000000000000001</ele><time>2026-04-25T13:53:02.902Z</time></trkpt><trkpt lat="42.80071277509537" lon="10.312534034205205"><ele>0.8</ele><time>2026-04-25T13:53:03.902Z</time></trkpt><trkpt lat="42.800665097382804" lon="10.312648162994664"><ele>1.0</ele><time>2026-04-25T13:53:04.902Z</time></trkpt><trkpt lat="42.80062237895374" lon="10.312766857417039"><ele>1.0</ele><time>2026-04-25T13:53:05.902Z</time></trkpt><trkpt lat="42.800562637835256" lon="10.31289651237883"><ele>1.0</ele><time>2026-04-25T13:53:06.902Z</time></trkpt><trkpt lat="42.80050078033175" lon="10.313041613743957"><ele>1.0</ele><time>2026-04-25T13:53:07.902Z</time></trkpt><trkpt lat="42.800427634925676" lon="10.3131980194856"><ele>1.0</ele><time>2026-04-25T13:53:08.902Z</time></trkpt><trkpt lat="42.80036796732447" lon="10.313351963534515"><ele>1.5</ele><time>2026-04-25T13:53:09.902Z</time></trkpt><trkpt lat="42.8002992120344" lon="10.313504953953153"><ele>2.0</ele><time>2026-04-25T13:53:10.904Z</time></trkpt><trkpt lat="42.80023692376871" lon="10.313658582085951"><ele>2.5</ele><time>2026-04-25T13:53:11.904Z</time></trkpt><trkpt lat="42.80017860009997" lon="10.31381333045961"><ele>3.0</ele><time>2026-04-25T13:53:12.904Z</time></trkpt><trkpt lat="42.80013230663896" lon="10.313983921193879"><ele>3.0</ele><time>2026-04-25T13:53:13.904Z</time></trkpt><trkpt lat="42.8000731646305" lon="10.314172778552432"><ele>3.0</ele><time>2026-04-25T13:53:14.904Z</time></trkpt><trkpt lat="42.800025270162905" lon="10.3143697469862"><ele>3.0</ele><time>2026-04-25T13:53:15.904Z</time></trkpt><trkpt lat="42.799998679715195" lon="10.314567112470458"><ele>2.75</ele><time>2026-04-25T13:53:16.904Z</time></trkpt><trkpt lat="42.79997958875669" lon="10.31476411382618"><ele>2.5</ele><time>2026-04-25T13:53:17.904Z</time></trkpt><trkpt lat="42.79996255444552" lon="10.314958420329075"><ele>2.25</ele><time>2026-04-25T13:53:18.904Z</time></trkpt><trkpt lat="42.799933511768664" lon="10.315160678246913"><ele>2.0</ele><time>2026-04-25T13:53:19.904Z</time></trkpt><trkpt lat="42.799890894753965" lon="10.315351696510822"><ele>2.0</ele><time>2026-04-25T13:53:20.904Z</time></trkpt><trkpt lat="42.79987138454818" lon="10.315535427767971"><ele>2.0</ele><time>2026-04-25T13:53:21.904Z</time></trkpt><trkpt lat="42.79985294959866" lon="10.315709833190382"><ele>2.0</ele><time>2026-04-25T13:53:22.903Z</time></trkpt><trkpt lat="42.799831579219564" lon="10.315910422074518"><ele>2.0</ele><time>2026-04-25T13:53:23.904Z</time></trkpt><trkpt lat="42.79982448045915" lon="10.316114992954281"><ele>2.0</ele><time>2026-04-25T13:53:24.904Z</time></trkpt><trkpt lat="42.799803131259814" lon="10.316319985408944"><ele>2.0</ele><time>2026-04-25T13:53:25.904Z</time></trkpt><trkpt lat="42.79976789306574" lon="10.316514021163073"><ele>2.0</ele><time>2026-04-25T13:53:26.904Z</time></trkpt><trkpt lat="42.79975277130083" lon="10.316686981961967"><ele>2.0</ele><time>2026-04-25T13:53:27.904Z</time></trkpt><trkpt lat="42.79973858773857" lon="10.316861344742398"><ele>1.75</ele><time>2026-04-25T13:53:28.904Z</time></trkpt><trkpt lat="42.799718705278124" lon="10.317035008908897"><ele>1.5</ele><time>2026-04-25T13:53:29.904Z</time></trkpt><trkpt lat="42.79969966216393" lon="10.317207925095786"><ele>1.25</ele><time>2026-04-25T13:53:30.904Z</time></trkpt><trkpt lat="42.799686173927974" lon="10.317375817232701"><ele>1.0</ele><time>2026-04-25T13:53:31.904Z</time></trkpt><trkpt lat="42.799674901588425" lon="10.317528811210954"><ele>1.5</ele><time>2026-04-25T13:53:32.904Z</time></trkpt><trkpt lat="42.79964903325706" lon="10.317676035994772"><ele>2.0</ele><time>2026-04-25T13:53:33.904Z</time></trkpt><trkpt lat="42.799633838700466" lon="10.317828401644578"><ele>2.5</ele><time>2026-04-25T13:53:34.904Z</time></trkpt><trkpt lat="42.799617171765775" lon="10.318000968751301"><ele>3.0</ele><time>2026-04-25T13:53:35.904Z</time></trkpt><trkpt lat="42.79961100870813" lon="10.318157407911121"><ele>3.0</ele><time>2026-04-25T13:53:36.903Z</time></trkpt><trkpt lat="42.799600291542944" lon="10.318285509411819"><ele>3.0</ele><time>2026-04-25T13:53:37.903Z</time></trkpt><trkpt lat="42.79957542413666" lon="10.318394088473548"><ele>3.0</ele><time>2026-04-25T13:53:38.903Z</time></trkpt><trkpt lat="42.7995462411326" lon="10.318482574618274"><ele>3.0</ele><time>2026-04-25T13:53:39.903Z</time></trkpt><trkpt lat="42.79949179634735" lon="10.318533435998166"><ele>3.0</ele><time>2026-04-25T13:53:40.903Z</time></trkpt><trkpt lat="42.79942439626676" lon="10.318550520107047"><ele>3.0</ele><time>2026-04-25T13:53:41.903Z</time></trkpt><trkpt lat="42.799351237945366" lon="10.318533821681024"><ele>3.25</ele><time>2026-04-25T13:53:42.903Z</time></trkpt><trkpt lat="42.799253868999706" lon="10.318506543798751"><ele>3.5</ele><time>2026-04-25T13:53:43.903Z</time></trkpt><trkpt lat="42.79914876109977" lon="10.318483302874442"><ele>3.75</ele><time>2026-04-25T13:53:44.903Z</time></trkpt><trkpt lat="42.79902464609718" lon="10.318451145837734"><ele>4.0</ele><time>2026-04-25T13:53:45.903Z</time></trkpt><trkpt lat="42.798884240601936" lon="10.318420685249812"><ele>4.0</ele><time>2026-04-25T13:53:46.903Z</time></trkpt><trkpt lat="42.79873017812312" lon="10.318392876939098"><ele>4.0</ele><time>2026-04-25T13:53:47.903Z</time></trkpt><trkpt lat="42.79858341391304" lon="10.318368861527702"><ele>4.0</ele><time>2026-04-25T13:53:48.903Z</time></trkpt><trkpt lat="42.7984416543972" lon="10.318343794966912"><ele>4.0</ele><time>2026-04-25T13:53:49.903Z</time></trkpt><trkpt lat="42.79831034217951" lon="10.318315822693714"><ele>4.0</ele><time>2026-04-25T13:53:50.903Z</time></trkpt><trkpt lat="42.798181258984535" lon="10.318290438837675"><ele>4.0</ele><time>2026-04-25T13:53:51.903Z</time></trkpt><trkpt lat="42.79805093565604" lon="10.318263140709245"><ele>4.0</ele><time>2026-04-25T13:53:52.903Z</time></trkpt><trkpt lat="42.7979155550286" lon="10.318235805160985"><ele>4.0</ele><time>2026-04-25T13:53:53.903Z</time></trkpt><trkpt lat="42.79777372112562" lon="10.318208158347725"><ele>4.5</ele><time>2026-04-25T13:53:54.903Z</time></trkpt><trkpt lat="42.797630341361135" lon="10.318180095398656"><ele>5.0</ele><time>2026-04-25T13:53:55.903Z</time></trkpt><trkpt lat="42.7974938060246" lon="10.318153962627118"><ele>5.5</ele><time>2026-04-25T13:53:56.903Z</time></trkpt><trkpt lat="42.797363460182844" lon="10.318125070033021"><ele>6.0</ele><time>2026-04-25T13:53:57.903Z</time></trkpt><trkpt lat="42.79723417422622" lon="10.318103150140336"><ele>6.0</ele><time>2026-04-25T13:53:58.903Z</time></trkpt><trkpt lat="42.79710156497524" lon="10.318074975180172"><ele>6.0</ele><time>2026-04-25T13:53:59.903Z</time></trkpt><trkpt lat="42.79696181665535" lon="10.318046232945619"><ele>6.0</ele><time>2026-04-25T13:54:00.903Z</time></trkpt><trkpt lat="42.7968182059432" lon="10.318017985031059"><ele>6.0</ele><time>2026-04-25T13:54:01.903Z</time></trkpt><trkpt lat="42.79667149684641" lon="10.317985661887754"><ele>7.0</ele><time>2026-04-25T13:54:02.903Z</time></trkpt><trkpt lat="42.79653510993575" lon="10.317958249552834"><ele>8.0</ele><time>2026-04-25T13:54:03.903Z</time></trkpt><trkpt lat="42.79640348935042" lon="10.317931618827858"><ele>9.0</ele><time>2026-04-25T13:54:04.903Z</time></trkpt><trkpt lat="42.7962786661132" lon="10.317907136437125"><ele>10.0</ele><time>2026-04-25T13:54:05.903Z</time></trkpt><trkpt lat="42.79615536281261" lon="10.317885439586032"><ele>10.0</ele><time>2026-04-25T13:54:06.903Z</time></trkpt><trkpt lat="42.796043987219306" lon="10.3178582851957"><ele>10.0</ele><time>2026-04-25T13:54:07.903Z</time></trkpt><trkpt lat="42.795941012399965" lon="10.317833291459012"><ele>10.0</ele><time>2026-04-25T13:54:08.903Z</time></trkpt><trkpt lat="42.79584448383558" lon="10.317810483504838"><ele>10.0</ele><time>2026-04-25T13:54:09.903Z</time></trkpt><trkpt lat="42.79575664648746" lon="10.31778344767262"><ele>10.0</ele><time>2026-04-25T13:54:10.903Z</time></trkpt><trkpt lat="42.79568499188095" lon="10.317763695843556"><ele>11.0</ele><time>2026-04-25T13:54:11.903Z</time></trkpt><trkpt lat="42.79558905478696" lon="10.3177156667734"><ele>12.0</ele><time>2026-04-25T13:54:13.903Z</time></trkpt><trkpt lat="42.79552041793947" lon="10.31767870384285"><ele>13.0</ele><time>2026-04-25T13:54:15.903Z</time></trkpt><trkpt lat="42.79545955173436" lon="10.317700685831893"><ele>14.0</ele><time>2026-04-25T13:54:17.903Z</time></trkpt><trkpt lat="42.795390337190575" lon="10.317894974827423"><ele>15.0</ele><time>2026-04-25T13:54:19.903Z</time></trkpt><trkpt lat="42.79534826833876" lon="10.318015171351176"><ele>14.6</ele><time>2026-04-25T13:54:20.903Z</time></trkpt><trkpt lat="42.79529417890369" lon="10.318130685089855"><ele>14.2</ele><time>2026-04-25T13:54:21.903Z</time></trkpt><trkpt lat="42.795248340559745" lon="10.318263605976133"><ele>13.8</ele><time>2026-04-25T13:54:22.903Z</time></trkpt><trkpt lat="42.795219676981894" lon="10.318408537242998"><ele>13.4</ele><time>2026-04-25T13:54:23.903Z</time></trkpt><trkpt lat="42.79516890981925" lon="10.318542960370738"><ele>13.0</ele><time>2026-04-25T13:54:24.902Z</time></trkpt><trkpt lat="42.79512078680594" lon="10.318676852411668"><ele>13.4</ele><time>2026-04-25T13:54:25.902Z</time></trkpt><trkpt lat="42.79507657959983" lon="10.318805335220304"><ele>13.8</ele><time>2026-04-25T13:54:26.902Z</time></trkpt><trkpt lat="42.79503292737659" lon="10.318933791898305"><ele>14.2</ele><time>2026-04-25T13:54:27.902Z</time></trkpt><trkpt lat="42.79498892652234" lon="10.319059980210982"><ele>14.6</ele><time>2026-04-25T13:54:28.902Z</time></trkpt><trkpt lat="42.79494707788652" lon="10.319190124353742"><ele>15.0</ele><time>2026-04-25T13:54:29.902Z</time></trkpt><trkpt lat="42.79490318380771" lon="10.319316056929436"><ele>15.0</ele><time>2026-04-25T13:54:30.902Z</time></trkpt><trkpt lat="42.794865400842845" lon="10.319434009688694"><ele>15.0</ele><time>2026-04-25T13:54:31.902Z</time></trkpt><trkpt lat="42.794827838791" lon="10.319547555139481"><ele>15.0</ele><time>2026-04-25T13:54:32.902Z</time></trkpt><trkpt lat="42.79479157202185" lon="10.319656990855426"><ele>15.0</ele><time>2026-04-25T13:54:33.902Z</time></trkpt><trkpt lat="42.794755248408364" lon="10.319760870414079"><ele>15.0</ele><time>2026-04-25T13:54:34.902Z</time></trkpt><trkpt lat="42.794719910917024" lon="10.319863383933011"><ele>15.0</ele><time>2026-04-25T13:54:35.902Z</time></trkpt><trkpt lat="42.79467995630164" lon="10.319938672827165"><ele>15.5</ele><time>2026-04-25T13:54:36.902Z</time></trkpt><trkpt lat="42.79458991264766" lon="10.319991131546242"><ele>16.0</ele><time>2026-04-25T13:54:38.902Z</time></trkpt><trkpt lat="42.79443506342126" lon="10.319957887312784"><ele>16.5</ele><time>2026-04-25T13:54:40.902Z</time></trkpt><trkpt lat="42.79431009149221" lon="10.319918231346538"><ele>17.0</ele><time>2026-04-25T13:54:41.902Z</time></trkpt><trkpt lat="42.794183760517534" lon="10.319893883541809"><ele>17.5</ele><time>2026-04-25T13:54:42.902Z</time></trkpt><trkpt lat="42.79406979882664" lon="10.319869107576011"><ele>18.0</ele><time>2026-04-25T13:54:43.902Z</time></trkpt><trkpt lat="42.79395427213953" lon="10.319845966815716"><ele>18.5</ele><time>2026-04-25T13:54:44.902Z</time></trkpt><trkpt lat="42.79383101915567" lon="10.319819832370731"><ele>19.0</ele><time>2026-04-25T13:54:45.902Z</time></trkpt><trkpt lat="42.79370636799733" lon="10.319793445965633"><ele>19.0</ele><time>2026-04-25T13:54:46.902Z</time></trkpt><trkpt lat="42.793582050431375" lon="10.319764407702626"><ele>19.0</ele><time>2026-04-25T13:54:47.902Z</time></trkpt><trkpt lat="42.793466868663415" lon="10.319739884337123"><ele>19.0</ele><time>2026-04-25T13:54:48.902Z</time></trkpt><trkpt lat="42.79335505400213" lon="10.319717148344974"><ele>19.0</ele><time>2026-04-25T13:54:49.902Z</time></trkpt><trkpt lat="42.79324280307613" lon="10.319672769672062"><ele>20.25</ele><time>2026-04-25T13:54:50.902Z</time></trkpt><trkpt lat="42.79312616845608" lon="10.319658816948113"><ele>21.5</ele><time>2026-04-25T13:54:51.902Z</time></trkpt><trkpt lat="42.79300984991806" lon="10.319642968719078"><ele>22.75</ele><time>2026-04-25T13:54:52.902Z</time></trkpt><trkpt lat="42.79288982991474" lon="10.319628719219642"><ele>24.0</ele><time>2026-04-25T13:54:53.902Z</time></trkpt><trkpt lat="42.79276432416448" lon="10.319617277990625"><ele>25.25</ele><time>2026-04-25T13:54:54.902Z</time></trkpt><trkpt lat="42.79264656864401" lon="10.319604258817474"><ele>26.5</ele><time>2026-04-25T13:54:55.902Z</time></trkpt><trkpt lat="42.79252931043525" lon="10.319597244005479"><ele>27.75</ele><time>2026-04-25T13:54:56.902Z</time></trkpt><trkpt lat="42.79240480590611" lon="10.319582643627438"><ele>29.0</ele><time>2026-04-25T13:54:57.902Z</time></trkpt><trkpt lat="42.7922816136254" lon="10.319560107362317"><ele>29.0</ele><time>2026-04-25T13:54:58.902Z</time></trkpt><trkpt lat="42.792154321117785" lon="10.319534608775083"><ele>29.0</ele><time>2026-04-25T13:54:59.902Z</time></trkpt><trkpt lat="42.79202894156885" lon="10.319518621766024"><ele>29.0</ele><time>2026-04-25T13:55:00.902Z</time></trkpt><trkpt lat="42.79190771325094" lon="10.31951533765251"><ele>29.0</ele><time>2026-04-25T13:55:01.902Z</time></trkpt><trkpt lat="42.791788644878075" lon="10.319521390692227"><ele>30.2</ele><time>2026-04-25T13:55:02.902Z</time></trkpt><trkpt lat="42.79168424033123" lon="10.319500633802246"><ele>31.4</ele><time>2026-04-25T13:55:03.902Z</time></trkpt><trkpt lat="42.79159687468263" lon="10.319452311305739"><ele>32.6</ele><time>2026-04-25T13:55:04.902Z</time></trkpt><trkpt lat="42.79150576181986" lon="10.319383720147453"><ele>33.8</ele><time>2026-04-25T13:55:05.902Z</time></trkpt><trkpt lat="42.79140937802279" lon="10.31931444900007"><ele>35.0</ele><time>2026-04-25T13:55:06.902Z</time></trkpt><trkpt lat="42.79130921708796" lon="10.31925347427216"><ele>35.0</ele><time>2026-04-25T13:55:07.902Z</time></trkpt><trkpt lat="42.7912004745009" lon="10.319210509065217"><ele>35.0</ele><time>2026-04-25T13:55:08.902Z</time></trkpt><trkpt lat="42.79108087861508" lon="10.319194122845587"><ele>35.0</ele><time>2026-04-25T13:55:09.902Z</time></trkpt><trkpt lat="42.790968174195214" lon="10.319178411795725"><ele>35.0</ele><time>2026-04-25T13:55:10.902Z</time></trkpt><trkpt lat="42.79085331107675" lon="10.319163958220564"><ele>38.5</ele><time>2026-04-25T13:55:11.902Z</time></trkpt><trkpt lat="42.79073508733636" lon="10.319138606761879"><ele>42.0</ele><time>2026-04-25T13:55:12.902Z</time></trkpt><trkpt lat="42.79061777819838" lon="10.319091751563523"><ele>45.5</ele><time>2026-04-25T13:55:13.901Z</time></trkpt><trkpt lat="42.790517284028766" lon="10.319050239528892"><ele>49.0</ele><time>2026-04-25T13:55:14.901Z</time></trkpt><trkpt lat="42.79040763020024" lon="10.319022729425178"><ele>49.0</ele><time>2026-04-25T13:55:15.901Z</time></trkpt><trkpt lat="42.79030037930488" lon="10.319010546604616"><ele>49.0</ele><time>2026-04-25T13:55:16.904Z</time></trkpt><trkpt lat="42.79019050390937" lon="10.31899732760255"><ele>49.0</ele><time>2026-04-25T13:55:17.904Z</time></trkpt><trkpt lat="42.79008575700234" lon="10.318972681104883"><ele>49.0</ele><time>2026-04-25T13:55:18.904Z</time></trkpt><trkpt lat="42.789986453169774" lon="10.318931640166985"><ele>49.0</ele><time>2026-04-25T13:55:19.903Z</time></trkpt><trkpt lat="42.78989147410054" lon="10.3188970329319"><ele>49.800000000000004</ele><time>2026-04-25T13:55:20.903Z</time></trkpt><trkpt lat="42.78979612428879" lon="10.318881048722385"><ele>50.6</ele><time>2026-04-25T13:55:21.903Z</time></trkpt><trkpt lat="42.78968959968068" lon="10.318890241187958"><ele>51.4</ele><time>2026-04-25T13:55:22.904Z</time></trkpt><trkpt lat="42.78957755838144" lon="10.318914706742929"><ele>52.2</ele><time>2026-04-25T13:55:23.904Z</time></trkpt><trkpt lat="42.78946930880217" lon="10.3189369803937"><ele>53.0</ele><time>2026-04-25T13:55:24.904Z</time></trkpt><trkpt lat="42.7893442922468" lon="10.318920230109939"><ele>57.75</ele><time>2026-04-25T13:55:25.904Z</time></trkpt><trkpt lat="42.789203940306535" lon="10.318967147430403"><ele>62.5</ele><time>2026-04-25T13:55:26.903Z</time></trkpt><trkpt lat="42.78908681403448" lon="10.318978684141138"><ele>67.25</ele><time>2026-04-25T13:55:27.903Z</time></trkpt><trkpt lat="42.78895172414899" lon="10.318991836980379"><ele>72.0</ele><time>2026-04-25T13:55:28.904Z</time></trkpt><trkpt lat="42.788820454004565" lon="10.319020070690621"><ele>72.0</ele><time>2026-04-25T13:55:29.903Z</time></trkpt><trkpt lat="42.788685610760986" lon="10.319011845393037"><ele>72.0</ele><time>2026-04-25T13:55:30.903Z</time></trkpt><trkpt lat="42.78854190053564" lon="10.319021479182355"><ele>72.0</ele><time>2026-04-25T13:55:31.903Z</time></trkpt><trkpt lat="42.788413838479755" lon="10.319029208929624"><ele>72.0</ele><time>2026-04-25T13:55:32.903Z</time></trkpt><trkpt lat="42.788319189056985" lon="10.319034761925723"><ele>74.2</ele><time>2026-04-25T13:55:33.903Z</time></trkpt><trkpt lat="42.7882035968686" lon="10.319058833922915"><ele>76.4</ele><time>2026-04-25T13:55:34.903Z</time></trkpt><trkpt lat="42.78808505007971" lon="10.319055549409507"><ele>78.60000000000001</ele><time>2026-04-25T13:55:35.903Z</time></trkpt><trkpt lat="42.78798152840041" lon="10.31905498149629"><ele>80.80000000000001</ele><time>2026-04-25T13:55:36.903Z</time></trkpt><trkpt lat="42.78788681872863" lon="10.319059411991306"><ele>83.0</ele><time>2026-04-25T13:55:37.903Z</time></trkpt><trkpt lat="42.78780324207219" lon="10.319074242873093"><ele>83.0</ele><time>2026-04-25T13:55:38.903Z</time></trkpt><trkpt lat="42.78772921944113" lon="10.319120504362148"><ele>83.0</ele><time>2026-04-25T13:55:39.903Z</time></trkpt><trkpt lat="42.78767274528587" lon="10.319191794275406"><ele>83.0</ele><time>2026-04-25T13:55:40.903Z</time></trkpt><trkpt lat="42.78761043679817" lon="10.319279323015426"><ele>83.0</ele><time>2026-04-25T13:55:41.903Z</time></trkpt><trkpt lat="42.78754186030421" lon="10.319362399229336"><ele>83.0</ele><time>2026-04-25T13:55:42.903Z</time></trkpt><trkpt lat="42.78747287971391" lon="10.319442604677077"><ele>83.0</ele><time>2026-04-25T13:55:43.903Z</time></trkpt><trkpt lat="42.78750122274722" lon="10.319520824588773"><ele>83.0</ele><time>2026-04-25T13:55:47.903Z</time></trkpt><trkpt lat="42.78761354530959" lon="10.319512642768093"><ele>83.0</ele><time>2026-04-25T13:55:49.903Z</time></trkpt><trkpt lat="42.78769392736468" lon="10.319520396361858"><ele>83.0</ele><time>2026-04-25T13:55:50.903Z</time></trkpt><trkpt lat="42.78775445367318" lon="10.319546077591605"><ele>83.0</ele><time>2026-04-25T13:55:55.903Z</time></trkpt><trkpt lat="42.78772054435515" lon="10.319630139586907"><ele>83.0</ele><time>2026-04-25T13:55:59.903Z</time></trkpt><trkpt lat="42.78763261555929" lon="10.319710445791545"><ele>83.0</ele><time>2026-04-25T13:56:04.903Z</time></trkpt><trkpt lat="42.78757749462986" lon="10.319770015988388"><ele>90.5</ele><time>2026-04-25T13:56:06.903Z</time></trkpt><trkpt lat="42.7875122165951" lon="10.319855712694611"><ele>98.0</ele><time>2026-04-25T13:56:07.902Z</time></trkpt><trkpt lat="42.78737698313757" lon="10.319954040015794"><ele>105.5</ele><time>2026-04-25T13:56:08.902Z</time></trkpt><trkpt lat="42.78722611735319" lon="10.32003691800356"><ele>113.0</ele><time>2026-04-25T13:56:09.902Z</time></trkpt><trkpt lat="42.78708480762042" lon="10.320082138177243"><ele>112.99999999999999</ele><time>2026-04-25T13:56:10.902Z</time></trkpt><trkpt lat="42.78696035244535" lon="10.32011779841624"><ele>113.0</ele><time>2026-04-25T13:56:11.902Z</time></trkpt><trkpt lat="42.786854920506165" lon="10.320163561854942"><ele>113.0</ele><time>2026-04-25T13:56:12.902Z</time></trkpt><trkpt lat="42.78678513109317" lon="10.320153992912067"><ele>113.0</ele><time>2026-04-25T13:56:13.902Z</time></trkpt><trkpt lat="42.78672926248224" lon="10.3202247940273"><ele>112.99999999999999</ele><time>2026-04-25T13:56:15.902Z</time></trkpt><trkpt lat="42.78677540296859" lon="10.320285110750033"><ele>113.0</ele><time>2026-04-25T13:56:17.902Z</time></trkpt><trkpt lat="42.786828534867674" lon="10.320369952490385"><ele>114.85714285714286</ele><time>2026-04-25T13:56:23.902Z</time></trkpt><trkpt lat="42.78680369068097" lon="10.320449075306714"><ele>116.71428571428571</ele><time>2026-04-25T13:56:27.902Z</time></trkpt><trkpt lat="42.78673342381216" lon="10.320467818880198"><ele>118.57142857142857</ele><time>2026-04-25T13:56:31.902Z</time></trkpt><trkpt lat="42.7866675938746" lon="10.320522295678135"><ele>120.42857142857143</ele><time>2026-04-25T13:56:35.902Z</time></trkpt><trkpt lat="42.7866047619426" lon="10.32053035096262"><ele>122.28571428571428</ele><time>2026-04-25T13:56:37.902Z</time></trkpt><trkpt lat="42.78652811114139" lon="10.320505411976834"><ele>124.14285714285714</ele><time>2026-04-25T13:56:40.902Z</time></trkpt><trkpt lat="42.786464400669345" lon="10.320481158304524"><ele>126.0</ele><time>2026-04-25T13:56:42.902Z</time></trkpt><trkpt lat="42.78639709122315" lon="10.320440546002107"><ele>126.0</ele><time>2026-04-25T13:56:45.902Z</time></trkpt><trkpt lat="42.78632005593921" lon="10.320375442904554"><ele>126.0</ele><time>2026-04-25T13:56:48.902Z</time></trkpt><trkpt lat="42.786250893788484" lon="10.320356953306009"><ele>126.0</ele><time>2026-04-25T13:56:51.902Z</time></trkpt><trkpt lat="42.78617199882606" lon="10.320386721182253"><ele>126.0</ele><time>2026-04-25T13:56:56.901Z</time></trkpt><trkpt lat="42.78610518984359" lon="10.32040491321402"><ele>126.0</ele><time>2026-04-25T13:56:58.901Z</time></trkpt><trkpt lat="42.7860393372948" lon="10.320383126878243"><ele>126.0</ele><time>2026-04-25T13:57:00.901Z</time></trkpt><trkpt lat="42.78599500974052" lon="10.320320162897692"><ele>126.0</ele><time>2026-04-25T13:57:03.901Z</time></trkpt><trkpt lat="42.78592679066536" lon="10.320288785707618"><ele>130.14285714285714</ele><time>2026-04-25T13:57:06.901Z</time></trkpt><trkpt lat="42.78586888379783" lon="10.320327132956706"><ele>134.28571428571428</ele><time>2026-04-25T13:57:10.901Z</time></trkpt><trkpt lat="42.785794953402956" lon="10.32037608526761"><ele>138.42857142857144</ele><time>2026-04-25T13:57:13.901Z</time></trkpt><trkpt lat="42.785714015418996" lon="10.320365991562763"><ele>142.57142857142856</ele><time>2026-04-25T13:57:15.901Z</time></trkpt><trkpt lat="42.78564332114457" lon="10.320362353903743"><ele>146.71428571428572</ele><time>2026-04-25T13:57:17.901Z</time></trkpt><trkpt lat="42.785581347697885" lon="10.32037900786241"><ele>150.85714285714286</ele><time>2026-04-25T13:57:19.901Z</time></trkpt><trkpt lat="42.78551779974831" lon="10.32041654741517"><ele>155.0</ele><time>2026-04-25T13:57:22.903Z</time></trkpt><trkpt lat="42.78545060413847" lon="10.320425802882013"><ele>155.0</ele><time>2026-04-25T13:57:24.903Z</time></trkpt><trkpt lat="42.78537580354875" lon="10.320437404480735"><ele>155.0</ele><time>2026-04-25T13:57:27.903Z</time></trkpt><trkpt lat="42.78529761246747" lon="10.320445088063195"><ele>155.0</ele><time>2026-04-25T13:57:30.904Z</time></trkpt><trkpt lat="42.78513377681904" lon="10.320455536655093"><ele>155.0</ele><time>2026-04-25T13:58:04.902Z</time></trkpt><trkpt lat="42.78519738292383" lon="10.320403461853177"><ele>155.0</ele><time>2026-04-25T13:58:13.902Z</time></trkpt><trkpt lat="42.7853105816868" lon="10.320320602010282"><ele>155.0</ele><time>2026-04-25T13:58:15.902Z</time></trkpt><trkpt lat="42.785365531218396" lon="10.320216112297217"><ele>155.0</ele><time>2026-04-25T13:58:16.902Z</time></trkpt><trkpt lat="42.78543892981542" lon="10.320135798927057"><ele>155.0</ele><time>2026-04-25T13:58:17.902Z</time></trkpt><trkpt lat="42.78549746495459" lon="10.319996625602252"><ele>155.0</ele><time>2026-04-25T13:58:18.902Z</time></trkpt><trkpt lat="42.785528401560725" lon="10.319861586240556"><ele>155.0</ele><time>2026-04-25T13:58:19.902Z</time></trkpt><trkpt lat="42.785561034916824" lon="10.31975313463833"><ele>157.8</ele><time>2026-04-25T13:58:20.902Z</time></trkpt><trkpt lat="42.785613367204824" lon="10.319629953138309"><ele>160.6</ele><time>2026-04-25T13:58:21.902Z</time></trkpt><trkpt lat="42.7856716715936" lon="10.319509366046065"><ele>163.39999999999998</ele><time>2026-04-25T13:58:22.902Z</time></trkpt><trkpt lat="42.785730874800116" lon="10.319390254826114"><ele>166.2</ele><time>2026-04-25T13:58:23.902Z</time></trkpt><trkpt lat="42.7858016489271" lon="10.319241310402175"><ele>169.0</ele><time>2026-04-25T13:58:24.902Z</time></trkpt><trkpt lat="42.78585677612625" lon="10.319118953407406"><ele>169.0</ele><time>2026-04-25T13:58:25.902Z</time></trkpt><trkpt lat="42.7859074165326" lon="10.3190015220938"><ele>169.0</ele><time>2026-04-25T13:58:26.902Z</time></trkpt><trkpt lat="42.78595625740085" lon="10.318883241791166"><ele>169.0</ele><time>2026-04-25T13:58:27.902Z</time></trkpt><trkpt lat="42.785993506945665" lon="10.31878743396015"><ele>169.0</ele><time>2026-04-25T13:58:28.902Z</time></trkpt><trkpt lat="42.78602939039564" lon="10.318680946556425"><ele>169.0</ele><time>2026-04-25T13:58:29.902Z</time></trkpt><trkpt lat="42.786063054463" lon="10.318554363715018"><ele>169.75</ele><time>2026-04-25T13:58:30.902Z</time></trkpt><trkpt lat="42.78605537411176" lon="10.31837981871201"><ele>170.5</ele><time>2026-04-25T13:58:31.902Z</time></trkpt><trkpt lat="42.78601283594652" lon="10.318227024555126"><ele>171.25</ele><time>2026-04-25T13:58:32.902Z</time></trkpt><trkpt lat="42.78594281764744" lon="10.318093893007472"><ele>172.0</ele><time>2026-04-25T13:58:33.902Z</time></trkpt><trkpt lat="42.78587037665713" lon="10.317978489089434"><ele>168.25</ele><time>2026-04-25T13:58:34.902Z</time></trkpt><trkpt lat="42.78573859637499" lon="10.317944975090478"><ele>164.5</ele><time>2026-04-25T13:58:35.902Z</time></trkpt><trkpt lat="42.785667252757385" lon="10.317850129344482"><ele>160.75</ele><time>2026-04-25T13:58:36.902Z</time></trkpt><trkpt lat="42.78557897646023" lon="10.317734090303464"><ele>157.0</ele><time>2026-04-25T13:58:37.902Z</time></trkpt><trkpt lat="42.7854901107588" lon="10.317608265436785"><ele>157.0</ele><time>2026-04-25T13:58:38.902Z</time></trkpt><trkpt lat="42.78540898967247" lon="10.317483764365372"><ele>157.0</ele><time>2026-04-25T13:58:39.902Z</time></trkpt><trkpt lat="42.785329546931266" lon="10.317377784454118"><ele>157.0</ele><time>2026-04-25T13:58:40.902Z</time></trkpt><trkpt lat="42.78524857608235" lon="10.317281450961007"><ele>157.0</ele><time>2026-04-25T13:58:41.902Z</time></trkpt><trkpt lat="42.785164033691885" lon="10.317163314974504"><ele>161.0</ele><time>2026-04-25T13:58:42.902Z</time></trkpt><trkpt lat="42.785088415436974" lon="10.317027731967254"><ele>165.0</ele><time>2026-04-25T13:58:43.901Z</time></trkpt><trkpt lat="42.78500684033553" lon="10.31689990788605"><ele>169.0</ele><time>2026-04-25T13:58:44.901Z</time></trkpt><trkpt lat="42.784925173188185" lon="10.316772221515032"><ele>173.0</ele><time>2026-04-25T13:58:45.901Z</time></trkpt><trkpt lat="42.78476468304338" lon="10.316596758639248"><ele>173.0</ele><time>2026-04-25T13:58:47.901Z</time></trkpt><trkpt lat="42.78468414237998" lon="10.316522476224515"><ele>173.0</ele><time>2026-04-25T13:58:48.901Z</time></trkpt><trkpt lat="42.78461184365328" lon="10.316425714888146"><ele>173.0</ele><time>2026-04-25T13:58:49.901Z</time></trkpt><trkpt lat="42.78454911183783" lon="10.316321260531696"><ele>173.0</ele><time>2026-04-25T13:58:50.901Z</time></trkpt><trkpt lat="42.78449328525445" lon="10.316225689150265"><ele>173.0</ele><time>2026-04-25T13:58:51.901Z</time></trkpt><trkpt lat="42.78442280917238" lon="10.316140544107302"><ele>173.5</ele><time>2026-04-25T13:58:52.901Z</time></trkpt><trkpt lat="42.784339699165564" lon="10.316053925463912"><ele>174.0</ele><time>2026-04-25T13:58:53.901Z</time></trkpt><trkpt lat="42.7842439500562" lon="10.315963947785653"><ele>174.5</ele><time>2026-04-25T13:58:54.901Z</time></trkpt><trkpt lat="42.78414312767827" lon="10.315859098318457"><ele>175.0</ele><time>2026-04-25T13:58:55.901Z</time></trkpt><trkpt lat="42.78404198677299" lon="10.315747445874297"><ele>175.0</ele><time>2026-04-25T13:58:56.901Z</time></trkpt><trkpt lat="42.7839542471856" lon="10.315621565575148"><ele>175.0</ele><time>2026-04-25T13:58:57.901Z</time></trkpt><trkpt lat="42.78384531820778" lon="10.315465158231566"><ele>175.0</ele><time>2026-04-25T13:58:58.901Z</time></trkpt><trkpt lat="42.78374834057754" lon="10.315314348345716"><ele>175.0</ele><time>2026-04-25T13:58:59.901Z</time></trkpt><trkpt lat="42.78365292887095" lon="10.315163134044948"><ele>174.66666666666669</ele><time>2026-04-25T13:59:00.901Z</time></trkpt><trkpt lat="42.7835571165126" lon="10.314993058247339"><ele>174.33333333333334</ele><time>2026-04-25T13:59:01.901Z</time></trkpt><trkpt lat="42.78346583328458" lon="10.31481180888709"><ele>174.0</ele><time>2026-04-25T13:59:02.901Z</time></trkpt><trkpt lat="42.7833902201629" lon="10.314625595272899"><ele>174.0</ele><time>2026-04-25T13:59:03.901Z</time></trkpt><trkpt lat="42.78331886572303" lon="10.314458299352086"><ele>174.0</ele><time>2026-04-25T13:59:04.901Z</time></trkpt><trkpt lat="42.78324758614982" lon="10.314301454213304"><ele>174.0</ele><time>2026-04-25T13:59:05.901Z</time></trkpt><trkpt lat="42.78319350035524" lon="10.314169761754265"><ele>174.0</ele><time>2026-04-25T13:59:06.901Z</time></trkpt><trkpt lat="42.78313632740356" lon="10.314022415739021"><ele>174.39999999999998</ele><time>2026-04-25T13:59:07.901Z</time></trkpt><trkpt lat="42.78308648969376" lon="10.313887278310332"><ele>174.8</ele><time>2026-04-25T13:59:08.901Z</time></trkpt><trkpt lat="42.783088083219255" lon="10.313778013528552"><ele>175.2</ele><time>2026-04-25T13:59:09.901Z</time></trkpt><trkpt lat="42.78310021341853" lon="10.313653901428903"><ele>175.60000000000002</ele><time>2026-04-25T13:59:10.901Z</time></trkpt><trkpt lat="42.78311686238607" lon="10.313548678232586"><ele>176.0</ele><time>2026-04-25T13:59:11.901Z</time></trkpt><trkpt lat="42.78311094739731" lon="10.313410173028855"><ele>176.0</ele><time>2026-04-25T13:59:13.901Z</time></trkpt><trkpt lat="42.78305264013295" lon="10.313327405136393"><ele>176.0</ele><time>2026-04-25T13:59:15.901Z</time></trkpt><trkpt lat="42.78292009550435" lon="10.313280140994708"><ele>176.0</ele><time>2026-04-25T13:59:17.901Z</time></trkpt><trkpt lat="42.78283679420533" lon="10.313262464791624"><ele>176.0</ele><time>2026-04-25T13:59:18.901Z</time></trkpt><trkpt lat="42.782727286268134" lon="10.313237530779485"><ele>176.0</ele><time>2026-04-25T13:59:19.901Z</time></trkpt><trkpt lat="42.78257240661544" lon="10.313182518897461"><ele>178.25</ele><time>2026-04-25T13:59:20.901Z</time></trkpt><trkpt lat="42.78244176078433" lon="10.313104339977757"><ele>180.5</ele><time>2026-04-25T13:59:21.901Z</time></trkpt><trkpt lat="42.782318807231405" lon="10.313050066742212"><ele>182.75</ele><time>2026-04-25T13:59:22.901Z</time></trkpt><trkpt lat="42.782210815786996" lon="10.312950921653858"><ele>185.0</ele><time>2026-04-25T13:59:23.901Z</time></trkpt><trkpt lat="42.782095470602826" lon="10.312848093289219"><ele>186.25</ele><time>2026-04-25T13:59:24.901Z</time></trkpt><trkpt lat="42.78198544167231" lon="10.312747244200752"><ele>187.5</ele><time>2026-04-25T13:59:25.901Z</time></trkpt><trkpt lat="42.78187769502995" lon="10.312640706477188"><ele>188.75</ele><time>2026-04-25T13:59:26.901Z</time></trkpt><trkpt lat="42.781769170478015" lon="10.312535021188168"><ele>190.0</ele><time>2026-04-25T13:59:27.901Z</time></trkpt><trkpt lat="42.78167205996575" lon="10.312413405249869"><ele>191.16666666666669</ele><time>2026-04-25T13:59:28.903Z</time></trkpt><trkpt lat="42.781583508338834" lon="10.3123422606854"><ele>192.33333333333334</ele><time>2026-04-25T13:59:29.902Z</time></trkpt><trkpt lat="42.78151482579668" lon="10.312274169322023"><ele>193.5</ele><time>2026-04-25T13:59:30.902Z</time></trkpt><trkpt lat="42.781439080344235" lon="10.312229952793547"><ele>194.66666666666669</ele><time>2026-04-25T13:59:31.902Z</time></trkpt><trkpt lat="42.78135599783979" lon="10.312208204148158"><ele>195.83333333333334</ele><time>2026-04-25T13:59:32.903Z</time></trkpt><trkpt lat="42.78127014551424" lon="10.31219937569779"><ele>197.0</ele><time>2026-04-25T13:59:33.903Z</time></trkpt><trkpt lat="42.78119492153924" lon="10.312204930432882"><ele>197.2</ele><time>2026-04-25T13:59:34.903Z</time></trkpt><trkpt lat="42.78110510947332" lon="10.312171474042671"><ele>197.39999999999998</ele><time>2026-04-25T13:59:35.903Z</time></trkpt><trkpt lat="42.78101965439285" lon="10.31216532677609"><ele>197.60000000000002</ele><time>2026-04-25T13:59:36.903Z</time></trkpt><trkpt lat="42.78087961604381" lon="10.312159085880452"><ele>197.8</ele><time>2026-04-25T13:59:38.903Z</time></trkpt><trkpt lat="42.78080938786515" lon="10.31218550051191"><ele>198.0</ele><time>2026-04-25T13:59:39.903Z</time></trkpt><trkpt lat="42.78072062306997" lon="10.312247658723035"><ele>198.0</ele><time>2026-04-25T13:59:40.903Z</time></trkpt><trkpt lat="42.78063362749648" lon="10.312318916649813"><ele>198.0</ele><time>2026-04-25T13:59:41.903Z</time></trkpt><trkpt lat="42.780546489414164" lon="10.31239236396405"><ele>198.0</ele><time>2026-04-25T13:59:42.903Z</time></trkpt><trkpt lat="42.780449080446935" lon="10.312456283193718"><ele>198.0</ele><time>2026-04-25T13:59:43.903Z</time></trkpt><trkpt lat="42.780353610554265" lon="10.312483378616522"><ele>198.0</ele><time>2026-04-25T13:59:44.903Z</time></trkpt><trkpt lat="42.780283861762506" lon="10.312485345815258"><ele>198.0</ele><time>2026-04-25T13:59:45.902Z</time></trkpt><trkpt lat="42.78019210108768" lon="10.312442062731092"><ele>198.0</ele><time>2026-04-25T13:59:46.902Z</time></trkpt><trkpt lat="42.78009816899573" lon="10.312357612359332"><ele>198.0</ele><time>2026-04-25T13:59:47.902Z</time></trkpt><trkpt lat="42.780005944214714" lon="10.312312196991705"><ele>198.0</ele><time>2026-04-25T13:59:48.902Z</time></trkpt><trkpt lat="42.77991729425569" lon="10.312314406205708"><ele>198.0</ele><time>2026-04-25T13:59:49.902Z</time></trkpt><trkpt lat="42.77984358437358" lon="10.312378383089396"><ele>193.75</ele><time>2026-04-25T13:59:50.902Z</time></trkpt><trkpt lat="42.77976509246085" lon="10.312478158122106"><ele>189.5</ele><time>2026-04-25T13:59:51.902Z</time></trkpt><trkpt lat="42.77968118815384" lon="10.312594695823991"><ele>185.25</ele><time>2026-04-25T13:59:52.902Z</time></trkpt><trkpt lat="42.779580030184476" lon="10.31270875635773"><ele>181.0</ele><time>2026-04-25T13:59:53.902Z</time></trkpt><trkpt lat="42.77945883027879" lon="10.312796295285779"><ele>176.75</ele><time>2026-04-25T13:59:54.902Z</time></trkpt><trkpt lat="42.77934775197312" lon="10.312830544225857"><ele>172.5</ele><time>2026-04-25T13:59:55.902Z</time></trkpt><trkpt lat="42.779210875777146" lon="10.312839338109429"><ele>168.25</ele><time>2026-04-25T13:59:56.902Z</time></trkpt><trkpt lat="42.77906996885298" lon="10.312859105394882"><ele>164.0</ele><time>2026-04-25T13:59:57.902Z</time></trkpt><trkpt lat="42.778932968598035" lon="10.31290853732497"><ele>164.0</ele><time>2026-04-25T13:59:58.902Z</time></trkpt><trkpt lat="42.778797995456785" lon="10.312963154518098"><ele>164.0</ele><time>2026-04-25T13:59:59.902Z</time></trkpt><trkpt lat="42.77865932767332" lon="10.313010177791654"><ele>164.0</ele><time>2026-04-25T14:00:00.902Z</time></trkpt><trkpt lat="42.77851852063536" lon="10.313053598083922"><ele>164.0</ele><time>2026-04-25T14:00:01.902Z</time></trkpt><trkpt lat="42.77837211370962" lon="10.313109788723377"><ele>162.25</ele><time>2026-04-25T14:00:02.902Z</time></trkpt><trkpt lat="42.77822418848668" lon="10.313171252074136"><ele>160.5</ele><time>2026-04-25T14:00:03.902Z</time></trkpt><trkpt lat="42.77808627972021" lon="10.313237158415301"><ele>158.75</ele><time>2026-04-25T14:00:04.902Z</time></trkpt><trkpt lat="42.7779689528538" lon="10.31328769583473"><ele>157.0</ele><time>2026-04-25T14:00:05.902Z</time></trkpt><trkpt lat="42.77786225554866" lon="10.313305689251901"><ele>157.0</ele><time>2026-04-25T14:00:06.902Z</time></trkpt><trkpt lat="42.77775040491864" lon="10.313277829135501"><ele>157.0</ele><time>2026-04-25T14:00:07.902Z</time></trkpt><trkpt lat="42.77763012208306" lon="10.313221927170888"><ele>157.0</ele><time>2026-04-25T14:00:08.902Z</time></trkpt><trkpt lat="42.7775064926649" lon="10.31317619112872"><ele>157.0</ele><time>2026-04-25T14:00:09.902Z</time></trkpt><trkpt lat="42.77739126309742" lon="10.313153454638133"><ele>153.0</ele><time>2026-04-25T14:00:10.902Z</time></trkpt><trkpt lat="42.777245597228585" lon="10.31311255099996"><ele>149.0</ele><time>2026-04-25T14:00:11.902Z</time></trkpt><trkpt lat="42.7771306058733" lon="10.31309182507747"><ele>145.0</ele><time>2026-04-25T14:00:12.902Z</time></trkpt><trkpt lat="42.7770194778777" lon="10.313114916941489"><ele>141.0</ele><time>2026-04-25T14:00:13.902Z</time></trkpt><trkpt lat="42.77689670800943" lon="10.313177120471"><ele>138.25</ele><time>2026-04-25T14:00:14.902Z</time></trkpt><trkpt lat="42.776785558448864" lon="10.313257791026958"><ele>135.5</ele><time>2026-04-25T14:00:15.902Z</time></trkpt><trkpt lat="42.77666813145231" lon="10.31331159420751"><ele>132.75</ele><time>2026-04-25T14:00:16.902Z</time></trkpt><trkpt lat="42.77653528684434" lon="10.313317988634504"><ele>130.0</ele><time>2026-04-25T14:00:17.902Z</time></trkpt><trkpt lat="42.77637933044815" lon="10.313289494083067"><ele>130.0</ele><time>2026-04-25T14:00:18.902Z</time></trkpt><trkpt lat="42.77623504432187" lon="10.313290094949101"><ele>130.0</ele><time>2026-04-25T14:00:19.902Z</time></trkpt><trkpt lat="42.77607713979049" lon="10.313310097764676"><ele>130.0</ele><time>2026-04-25T14:00:20.902Z</time></trkpt><trkpt lat="42.77594170444835" lon="10.313307492240938"><ele>130.0</ele><time>2026-04-25T14:00:21.902Z</time></trkpt><trkpt lat="42.77579391444898" lon="10.313284499272198"><ele>126.25</ele><time>2026-04-25T14:00:22.902Z</time></trkpt><trkpt lat="42.77565422745899" lon="10.3132252358731"><ele>122.5</ele><time>2026-04-25T14:00:23.902Z</time></trkpt><trkpt lat="42.77554047541645" lon="10.313169619659144"><ele>118.75</ele><time>2026-04-25T14:00:24.902Z</time></trkpt><trkpt lat="42.77541631350723" lon="10.31315038918511"><ele>115.0</ele><time>2026-04-25T14:00:25.902Z</time></trkpt><trkpt lat="42.77527366302748" lon="10.313140855402716"><ele>108.33333333333334</ele><time>2026-04-25T14:00:26.902Z</time></trkpt><trkpt lat="42.7751086031247" lon="10.31321608464333"><ele>101.66666666666667</ele><time>2026-04-25T14:00:27.902Z</time></trkpt><trkpt lat="42.77492587784651" lon="10.31324885255441"><ele>95.0</ele><time>2026-04-25T14:00:28.902Z</time></trkpt><trkpt lat="42.774740251697835" lon="10.31327217424069"><ele>95.0</ele><time>2026-04-25T14:00:29.902Z</time></trkpt><trkpt lat="42.77455239824353" lon="10.313288785732004"><ele>95.0</ele><time>2026-04-25T14:00:30.902Z</time></trkpt><trkpt lat="42.77436739135708" lon="10.313311164553106"><ele>95.0</ele><time>2026-04-25T14:00:31.902Z</time></trkpt><trkpt lat="42.77418727469945" lon="10.313324996184797"><ele>91.33333333333334</ele><time>2026-04-25T14:00:32.902Z</time></trkpt><trkpt lat="42.774004288916416" lon="10.31333300977314"><ele>87.66666666666667</ele><time>2026-04-25T14:00:33.901Z</time></trkpt><trkpt lat="42.773823213554614" lon="10.313354055032448"><ele>84.0</ele><time>2026-04-25T14:00:34.901Z</time></trkpt><trkpt lat="42.7736437290884" lon="10.313381010877565"><ele>79.66666666666667</ele><time>2026-04-25T14:00:35.901Z</time></trkpt><trkpt lat="42.7734716425563" lon="10.313411305502354"><ele>75.33333333333334</ele><time>2026-04-25T14:00:36.901Z</time></trkpt><trkpt lat="42.7732960555615" lon="10.313457677989172"><ele>71.0</ele><time>2026-04-25T14:00:37.901Z</time></trkpt><trkpt lat="42.773137735949476" lon="10.313519470378747"><ele>71.0</ele><time>2026-04-25T14:00:38.901Z</time></trkpt><trkpt lat="42.77299115368587" lon="10.313586901598669"><ele>71.0</ele><time>2026-04-25T14:00:39.901Z</time></trkpt><trkpt lat="42.77286094154047" lon="10.313636914455191"><ele>71.0</ele><time>2026-04-25T14:00:40.901Z</time></trkpt><trkpt lat="42.77273522634187" lon="10.313662090058184"><ele>71.0</ele><time>2026-04-25T14:00:41.901Z</time></trkpt><trkpt lat="42.77260747293976" lon="10.313655593335188"><ele>69.25</ele><time>2026-04-25T14:00:42.901Z</time></trkpt><trkpt lat="42.772474036622825" lon="10.313626106900516"><ele>67.5</ele><time>2026-04-25T14:00:43.901Z</time></trkpt><trkpt lat="42.77234356273032" lon="10.31359810665326"><ele>65.75</ele><time>2026-04-25T14:00:44.901Z</time></trkpt><trkpt lat="42.77221096793047" lon="10.313575354652144"><ele>64.0</ele><time>2026-04-25T14:00:45.901Z</time></trkpt><trkpt lat="42.77206971084397" lon="10.313554166932265"><ele>64.0</ele><time>2026-04-25T14:00:46.901Z</time></trkpt><trkpt lat="42.7719348296084" lon="10.31353181271685"><ele>64.0</ele><time>2026-04-25T14:00:47.901Z</time></trkpt><trkpt lat="42.77179865026639" lon="10.313534540078619"><ele>64.0</ele><time>2026-04-25T14:00:48.901Z</time></trkpt><trkpt lat="42.771657098820185" lon="10.313541403242906"><ele>64.0</ele><time>2026-04-25T14:00:49.901Z</time></trkpt><trkpt lat="42.771519938991176" lon="10.313550599070876"><ele>61.5</ele><time>2026-04-25T14:00:50.901Z</time></trkpt><trkpt lat="42.77137351064049" lon="10.313566121634938"><ele>59.0</ele><time>2026-04-25T14:00:51.901Z</time></trkpt><trkpt lat="42.771224197398524" lon="10.313579911482496"><ele>56.5</ele><time>2026-04-25T14:00:52.901Z</time></trkpt><trkpt lat="42.77107553070978" lon="10.313589783516068"><ele>54.0</ele><time>2026-04-25T14:00:53.901Z</time></trkpt><trkpt lat="42.77092486119786" lon="10.313589847415686"><ele>52.25</ele><time>2026-04-25T14:00:54.901Z</time></trkpt><trkpt lat="42.77077981551688" lon="10.313575672919614"><ele>50.5</ele><time>2026-04-25T14:00:55.901Z</time></trkpt><trkpt lat="42.77063594804943" lon="10.31355508090139"><ele>48.75</ele><time>2026-04-25T14:00:56.901Z</time></trkpt><trkpt lat="42.77049799045715" lon="10.313532352927318"><ele>47.0</ele><time>2026-04-25T14:00:57.901Z</time></trkpt><trkpt lat="42.77036440628441" lon="10.313510162485565"><ele>47.0</ele><time>2026-04-25T14:00:58.901Z</time></trkpt><trkpt lat="42.770235781685" lon="10.313481324719659"><ele>47.0</ele><time>2026-04-25T14:00:59.901Z</time></trkpt><trkpt lat="42.77009929072837" lon="10.313451362850303"><ele>47.0</ele><time>2026-04-25T14:01:00.901Z</time></trkpt><trkpt lat="42.769968169915245" lon="10.313418556253255"><ele>47.0</ele><time>2026-04-25T14:01:01.901Z</time></trkpt><trkpt lat="42.769844655141824" lon="10.313368374581326"><ele>46.25</ele><time>2026-04-25T14:01:02.901Z</time></trkpt><trkpt lat="42.7697295885391" lon="10.313304602257851"><ele>45.5</ele><time>2026-04-25T14:01:03.901Z</time></trkpt><trkpt lat="42.769621459183185" lon="10.313242369756423"><ele>44.75</ele><time>2026-04-25T14:01:04.901Z</time></trkpt><trkpt lat="42.769509209115775" lon="10.313187524483881"><ele>44.0</ele><time>2026-04-25T14:01:05.901Z</time></trkpt><trkpt lat="42.7694046215185" lon="10.313178098608644"><ele>43.166666666666664</ele><time>2026-04-25T14:01:06.901Z</time></trkpt><trkpt lat="42.76929926452984" lon="10.313175373876412"><ele>42.33333333333333</ele><time>2026-04-25T14:01:07.901Z</time></trkpt><trkpt lat="42.769213452960976" lon="10.31319217523925"><ele>41.5</ele><time>2026-04-25T14:01:08.901Z</time></trkpt><trkpt lat="42.769131729809295" lon="10.313196721659114"><ele>40.666666666666664</ele><time>2026-04-25T14:01:09.901Z</time></trkpt><trkpt lat="42.76905710964284" lon="10.313198099918663"><ele>39.833333333333336</ele><time>2026-04-25T14:01:10.901Z</time></trkpt><trkpt lat="42.76896794532575" lon="10.31321111744198"><ele>39.0</ele><time>2026-04-25T14:01:12.901Z</time></trkpt><trkpt lat="42.76889190065169" lon="10.313208713776309"><ele>39.0</ele><time>2026-04-25T14:01:15.901Z</time></trkpt><trkpt lat="42.76882354915243" lon="10.31322790694015"><ele>39.0</ele><time>2026-04-25T14:01:58.901Z</time></trkpt><trkpt lat="42.76873931055863" lon="10.313243221984518"><ele>39.0</ele><time>2026-04-25T14:01:59.901Z</time></trkpt><trkpt lat="42.76859806450864" lon="10.313265723907914"><ele>39.0</ele><time>2026-04-25T14:02:00.901Z</time></trkpt><trkpt lat="42.76843898760086" lon="10.313279427440419"><ele>38.0</ele><time>2026-04-25T14:02:01.901Z</time></trkpt><trkpt lat="42.76829218232785" lon="10.313289144350957"><ele>37.0</ele><time>2026-04-25T14:02:02.901Z</time></trkpt><trkpt lat="42.76815946132016" lon="10.313300330184116"><ele>36.0</ele><time>2026-04-25T14:02:03.901Z</time></trkpt><trkpt lat="42.768017068086905" lon="10.31332256993651"><ele>35.0</ele><time>2026-04-25T14:02:04.901Z</time></trkpt><trkpt lat="42.76787700610956" lon="10.31333419832366"><ele>35.0</ele><time>2026-04-25T14:02:05.901Z</time></trkpt><trkpt lat="42.76773785309952" lon="10.313353329065247"><ele>35.0</ele><time>2026-04-25T14:02:06.901Z</time></trkpt><trkpt lat="42.76758884930739" lon="10.313390381846045"><ele>35.0</ele><time>2026-04-25T14:02:07.901Z</time></trkpt><trkpt lat="42.76743354170448" lon="10.313435084002496"><ele>33.0</ele><time>2026-04-25T14:02:08.901Z</time></trkpt><trkpt lat="42.7672662407372" lon="10.313489644648667"><ele>31.0</ele><time>2026-04-25T14:02:09.901Z</time></trkpt><trkpt lat="42.76709921420579" lon="10.313545738778606"><ele>29.0</ele><time>2026-04-25T14:02:10.901Z</time></trkpt><trkpt lat="42.76693951882052" lon="10.313592299551283"><ele>27.0</ele><time>2026-04-25T14:02:11.901Z</time></trkpt><trkpt lat="42.76678307690342" lon="10.31362182648729"><ele>25.0</ele><time>2026-04-25T14:02:12.901Z</time></trkpt><trkpt lat="42.766632060593864" lon="10.313642051885138"><ele>23.0</ele><time>2026-04-25T14:02:13.901Z</time></trkpt><trkpt lat="42.76648142899891" lon="10.313658754397597"><ele>23.0</ele><time>2026-04-25T14:02:14.901Z</time></trkpt><trkpt lat="42.766345877038574" lon="10.31367234261951"><ele>23.0</ele><time>2026-04-25T14:02:15.901Z</time></trkpt><trkpt lat="42.766213978682075" lon="10.31367957165145"><ele>23.0</ele><time>2026-04-25T14:02:16.901Z</time></trkpt><trkpt lat="42.766087310481666" lon="10.313683742810293"><ele>23.0</ele><time>2026-04-25T14:02:17.901Z</time></trkpt><trkpt lat="42.76596354970647" lon="10.31368580105289"><ele>22.2</ele><time>2026-04-25T14:02:18.901Z</time></trkpt><trkpt lat="42.765837066365" lon="10.313686917918453"><ele>21.4</ele><time>2026-04-25T14:02:19.901Z</time></trkpt><trkpt lat="42.76572845560986" lon="10.31366504104242"><ele>20.599999999999998</ele><time>2026-04-25T14:02:20.901Z</time></trkpt><trkpt lat="42.76564042861151" lon="10.313644421848814"><ele>19.799999999999997</ele><time>2026-04-25T14:02:21.901Z</time></trkpt><trkpt lat="42.76557825507373" lon="10.313627679647874"><ele>19.0</ele><time>2026-04-25T14:02:22.901Z</time></trkpt><trkpt lat="42.76549205933244" lon="10.313660729677025"><ele>19.0</ele><time>2026-04-25T14:02:24.901Z</time></trkpt><trkpt lat="42.76547248284144" lon="10.31344796339606"><ele>19.0</ele><time>2026-04-25T14:02:25.901Z</time></trkpt><trkpt lat="42.76544044164396" lon="10.313338755846766"><ele>19.0</ele><time>2026-04-25T14:02:26.901Z</time></trkpt><trkpt lat="42.76540277285449" lon="10.313225590465999"><ele>19.0</ele><time>2026-04-25T14:02:27.901Z</time></trkpt><trkpt lat="42.76535866929051" lon="10.313100650046067"><ele>19.0</ele><time>2026-04-25T14:02:28.901Z</time></trkpt><trkpt lat="42.7653134652685" lon="10.312966404899552"><ele>19.2</ele><time>2026-04-25T14:02:29.901Z</time></trkpt><trkpt lat="42.765262536761504" lon="10.312823428478803"><ele>19.4</ele><time>2026-04-25T14:02:30.901Z</time></trkpt><trkpt lat="42.76520980445575" lon="10.312696847182325"><ele>19.6</ele><time>2026-04-25T14:02:31.901Z</time></trkpt><trkpt lat="42.765160512260536" lon="10.312558231610787"><ele>19.8</ele><time>2026-04-25T14:02:32.901Z</time></trkpt><trkpt lat="42.76511292767841" lon="10.312423720542517"><ele>20.0</ele><time>2026-04-25T14:02:33.9Z</time></trkpt><trkpt lat="42.765070857478214" lon="10.312291455002416"><ele>19.8</ele><time>2026-04-25T14:02:34.9Z</time></trkpt><trkpt lat="42.76503963245163" lon="10.312150538054599"><ele>19.6</ele><time>2026-04-25T14:02:35.9Z</time></trkpt><trkpt lat="42.76501336936636" lon="10.31200705037292"><ele>19.4</ele><time>2026-04-25T14:02:36.9Z</time></trkpt><trkpt lat="42.76499783825093" lon="10.311867373417344"><ele>19.2</ele><time>2026-04-25T14:02:37.9Z</time></trkpt><trkpt lat="42.76499189300623" lon="10.311735582903651"><ele>19.0</ele><time>2026-04-25T14:02:38.9Z</time></trkpt><trkpt lat="42.76501362562567" lon="10.3116041148138"><ele>19.0</ele><time>2026-04-25T14:02:39.9Z</time></trkpt><trkpt lat="42.76505008556933" lon="10.311497123829906"><ele>19.0</ele><time>2026-04-25T14:02:40.9Z</time></trkpt><trkpt lat="42.765099673665844" lon="10.311403084447715"><ele>19.0</ele><time>2026-04-25T14:02:41.9Z</time></trkpt><trkpt lat="42.76516059516611" lon="10.311284708199018"><ele>19.0</ele><time>2026-04-25T14:02:42.9Z</time></trkpt><trkpt lat="42.76522100610794" lon="10.311166832042545"><ele>19.0</ele><time>2026-04-25T14:02:43.9Z</time></trkpt><trkpt lat="42.765281349368856" lon="10.31105234191987"><ele>19.2</ele><time>2026-04-25T14:02:44.9Z</time></trkpt><trkpt lat="42.76533047929599" lon="10.3109339751927"><ele>19.4</ele><time>2026-04-25T14:02:45.9Z</time></trkpt><trkpt lat="42.76535637370774" lon="10.310789268006278"><ele>19.6</ele><time>2026-04-25T14:02:46.9Z</time></trkpt><trkpt lat="42.76535172756757" lon="10.310649066581908"><ele>19.8</ele><time>2026-04-25T14:02:47.9Z</time></trkpt><trkpt lat="42.76532177274229" lon="10.310511556059827"><ele>20.0</ele><time>2026-04-25T14:02:48.9Z</time></trkpt><trkpt lat="42.76526867685974" lon="10.310360031837908"><ele>20.75</ele><time>2026-04-25T14:02:49.9Z</time></trkpt><trkpt lat="42.765208047345" lon="10.310204675875195"><ele>21.5</ele><time>2026-04-25T14:02:50.9Z</time></trkpt><trkpt lat="42.76514344203425" lon="10.31004741867022"><ele>22.25</ele><time>2026-04-25T14:02:51.9Z</time></trkpt><trkpt lat="42.765086192617794" lon="10.309911287853165"><ele>23.0</ele><time>2026-04-25T14:02:52.9Z</time></trkpt><trkpt lat="42.76502346667959" lon="10.309802361475723"><ele>23.0</ele><time>2026-04-25T14:02:53.9Z</time></trkpt><trkpt lat="42.764991043805026" lon="10.309682963972245"><ele>23.0</ele><time>2026-04-25T14:02:54.9Z</time></trkpt><trkpt lat="42.764995334021656" lon="10.309550955567783"><ele>23.0</ele><time>2026-04-25T14:02:55.9Z</time></trkpt><trkpt lat="42.7649815567335" lon="10.309407971512703"><ele>23.0</ele><time>2026-04-25T14:02:56.9Z</time></trkpt><trkpt lat="42.76497802961503" lon="10.309231971114224"><ele>23.0</ele><time>2026-04-25T14:02:57.9Z</time></trkpt><trkpt lat="42.76497603009339" lon="10.309059120992355"><ele>21.25</ele><time>2026-04-25T14:02:58.9Z</time></trkpt><trkpt lat="42.76496637233107" lon="10.30888954206267"><ele>19.5</ele><time>2026-04-25T14:02:59.9Z</time></trkpt><trkpt lat="42.76494855088101" lon="10.308730838559367"><ele>17.75</ele><time>2026-04-25T14:03:00.9Z</time></trkpt><trkpt lat="42.76493988515788" lon="10.308572520702334"><ele>16.0</ele><time>2026-04-25T14:03:01.9Z</time></trkpt><trkpt lat="42.76491814450529" lon="10.308419245947885"><ele>16.0</ele><time>2026-04-25T14:03:02.9Z</time></trkpt><trkpt lat="42.76489781298395" lon="10.308261543827765"><ele>16.0</ele><time>2026-04-25T14:03:03.9Z</time></trkpt><trkpt lat="42.764882115751185" lon="10.308092745707942"><ele>16.0</ele><time>2026-04-25T14:03:04.9Z</time></trkpt><trkpt lat="42.76487401045235" lon="10.307912328941253"><ele>16.0</ele><time>2026-04-25T14:03:05.9Z</time></trkpt><trkpt lat="42.76487194013381" lon="10.307726606628767"><ele>15.0</ele><time>2026-04-25T14:03:06.9Z</time></trkpt><trkpt lat="42.764865136551215" lon="10.307538596845735"><ele>14.0</ele><time>2026-04-25T14:03:07.9Z</time></trkpt><trkpt lat="42.76486043143809" lon="10.307362520762213"><ele>13.0</ele><time>2026-04-25T14:03:08.9Z</time></trkpt><trkpt lat="42.76485300169099" lon="10.307193551896017"><ele>12.0</ele><time>2026-04-25T14:03:09.9Z</time></trkpt><trkpt lat="42.764841913333015" lon="10.307026697922984"><ele>11.5</ele><time>2026-04-25T14:03:10.9Z</time></trkpt><trkpt lat="42.76481355205063" lon="10.306849751606581"><ele>11.0</ele><time>2026-04-25T14:03:11.9Z</time></trkpt><trkpt lat="42.764766431453275" lon="10.306659801984873"><ele>10.5</ele><time>2026-04-25T14:03:12.9Z</time></trkpt><trkpt lat="42.7647131401901" lon="10.306470821079321"><ele>10.0</ele><time>2026-04-25T14:03:13.9Z</time></trkpt><trkpt lat="42.76467948226747" lon="10.306284317310752"><ele>10.0</ele><time>2026-04-25T14:03:14.9Z</time></trkpt><trkpt lat="42.764617020772064" lon="10.306123022483723"><ele>10.0</ele><time>2026-04-25T14:03:15.9Z</time></trkpt><trkpt lat="42.76458174176841" lon="10.305949025511882"><ele>10.0</ele><time>2026-04-25T14:03:16.9Z</time></trkpt><trkpt lat="42.764539280053384" lon="10.305784438124446"><ele>10.0</ele><time>2026-04-25T14:03:17.9Z</time></trkpt><trkpt lat="42.76450575124696" lon="10.305619085378176"><ele>10.0</ele><time>2026-04-25T14:03:18.9Z</time></trkpt><trkpt lat="42.7644738288708" lon="10.305456616752032"><ele>10.0</ele><time>2026-04-25T14:03:19.9Z</time></trkpt><trkpt lat="42.76444557020123" lon="10.305293814041974"><ele>10.0</ele><time>2026-04-25T14:03:20.9Z</time></trkpt><trkpt lat="42.76441641187516" lon="10.305131128221639"><ele>10.0</ele><time>2026-04-25T14:03:21.899Z</time></trkpt><trkpt lat="42.76440039830659" lon="10.304961449806852"><ele>10.0</ele><time>2026-04-25T14:03:22.899Z</time></trkpt><trkpt lat="42.76436907454347" lon="10.304786666752134"><ele>10.0</ele><time>2026-04-25T14:03:23.899Z</time></trkpt><trkpt lat="42.76434190447078" lon="10.30460772615176"><ele>10.0</ele><time>2026-04-25T14:03:24.899Z</time></trkpt><trkpt lat="42.76431488271926" lon="10.304421697292588"><ele>10.0</ele><time>2026-04-25T14:03:25.899Z</time></trkpt><trkpt lat="42.7642850280841" lon="10.304232772366122"><ele>10.25</ele><time>2026-04-25T14:03:26.899Z</time></trkpt><trkpt lat="42.764257015399366" lon="10.304044675084352"><ele>10.5</ele><time>2026-04-25T14:03:27.899Z</time></trkpt><trkpt lat="42.76422655031979" lon="10.303869472690451"><ele>10.75</ele><time>2026-04-25T14:03:28.899Z</time></trkpt><trkpt lat="42.76419515588377" lon="10.303704861279284"><ele>11.0</ele><time>2026-04-25T14:03:29.899Z</time></trkpt><trkpt lat="42.764165632382195" lon="10.303549997605321"><ele>11.0</ele><time>2026-04-25T14:03:30.899Z</time></trkpt><trkpt lat="42.76413900810435" lon="10.303400397993673"><ele>11.0</ele><time>2026-04-25T14:03:31.899Z</time></trkpt><trkpt lat="42.7641103405522" lon="10.303268725967614"><ele>11.0</ele><time>2026-04-25T14:03:32.899Z</time></trkpt><trkpt lat="42.7640818936129" lon="10.303136968088918"><ele>11.0</ele><time>2026-04-25T14:03:33.899Z</time></trkpt><trkpt lat="42.7640431365784" lon="10.30303497610297"><ele>11.0</ele><time>2026-04-25T14:03:34.899Z</time></trkpt><trkpt lat="42.76400609866344" lon="10.302938634153461"><ele>11.0</ele><time>2026-04-25T14:03:35.899Z</time></trkpt><trkpt lat="42.76392294539532" lon="10.302885003893202"><ele>11.0</ele><time>2026-04-25T14:03:36.899Z</time></trkpt><trkpt lat="42.76383010526213" lon="10.302820191480922"><ele>11.0</ele><time>2026-04-25T14:03:37.899Z</time></trkpt><trkpt lat="42.7637263507903" lon="10.302749338791195"><ele>11.0</ele><time>2026-04-25T14:03:38.899Z</time></trkpt><trkpt lat="42.76362332730053" lon="10.30267102092765"><ele>11.0</ele><time>2026-04-25T14:03:39.899Z</time></trkpt><trkpt lat="42.76351910395338" lon="10.302596835238523"><ele>11.0</ele><time>2026-04-25T14:03:40.901Z</time></trkpt><trkpt lat="42.763410258512835" lon="10.302516157652072"><ele>11.0</ele><time>2026-04-25T14:03:41.901Z</time></trkpt><trkpt lat="42.76330468038958" lon="10.302426504738712"><ele>11.0</ele><time>2026-04-25T14:03:42.901Z</time></trkpt><trkpt lat="42.76319943459038" lon="10.302335442925017"><ele>11.0</ele><time>2026-04-25T14:03:43.902Z</time></trkpt><trkpt lat="42.76309654852068" lon="10.302245898918379"><ele>12.200000000000001</ele><time>2026-04-25T14:03:44.902Z</time></trkpt><trkpt lat="42.762999928117786" lon="10.302157277312027"><ele>13.4</ele><time>2026-04-25T14:03:45.902Z</time></trkpt><trkpt lat="42.762910227044394" lon="10.302065634098188"><ele>14.6</ele><time>2026-04-25T14:03:46.902Z</time></trkpt><trkpt lat="42.762831751421366" lon="10.301967108289817"><ele>15.8</ele><time>2026-04-25T14:03:47.901Z</time></trkpt><trkpt lat="42.76276181751293" lon="10.30186521645377"><ele>17.0</ele><time>2026-04-25T14:03:48.901Z</time></trkpt><trkpt lat="42.76269930467303" lon="10.301752263151418"><ele>15.25</ele><time>2026-04-25T14:03:49.902Z</time></trkpt><trkpt lat="42.76266878987249" lon="10.301601317235079"><ele>13.5</ele><time>2026-04-25T14:03:50.902Z</time></trkpt><trkpt lat="42.76261048415578" lon="10.301449498611653"><ele>11.75</ele><time>2026-04-25T14:03:51.902Z</time></trkpt><trkpt lat="42.762547828996034" lon="10.301292837353795"><ele>10.0</ele><time>2026-04-25T14:03:52.902Z</time></trkpt><trkpt lat="42.76248577083246" lon="10.301139065760266"><ele>10.0</ele><time>2026-04-25T14:03:53.902Z</time></trkpt><trkpt lat="42.76241173687966" lon="10.301002845689775"><ele>10.0</ele><time>2026-04-25T14:03:54.902Z</time></trkpt><trkpt lat="42.762356173202356" lon="10.300843488869932"><ele>10.0</ele><time>2026-04-25T14:03:55.902Z</time></trkpt><trkpt lat="42.762293583937094" lon="10.3006982120997"><ele>10.0</ele><time>2026-04-25T14:03:56.902Z</time></trkpt><trkpt lat="42.76223398102266" lon="10.300552047260755"><ele>10.6</ele><time>2026-04-25T14:03:57.902Z</time></trkpt><trkpt lat="42.76218163536069" lon="10.30040963735024"><ele>11.2</ele><time>2026-04-25T14:03:58.902Z</time></trkpt><trkpt lat="42.76213493347281" lon="10.30027229384904"><ele>11.8</ele><time>2026-04-25T14:03:59.902Z</time></trkpt><trkpt lat="42.76209397998515" lon="10.300145455797457"><ele>12.4</ele><time>2026-04-25T14:04:00.902Z</time></trkpt><trkpt lat="42.76208762297488" lon="10.300014209353764"><ele>13.0</ele><time>2026-04-25T14:04:01.902Z</time></trkpt><trkpt lat="42.762073895197425" lon="10.299893271092637"><ele>13.0</ele><time>2026-04-25T14:04:02.901Z</time></trkpt><trkpt lat="42.7620877995236" lon="10.299772072792894"><ele>13.0</ele><time>2026-04-25T14:04:03.901Z</time></trkpt><trkpt lat="42.76208513681179" lon="10.299655551150716"><ele>13.0</ele><time>2026-04-25T14:04:04.901Z</time></trkpt><trkpt lat="42.76210200002685" lon="10.299534058362427"><ele>13.0</ele><time>2026-04-25T14:04:05.901Z</time></trkpt><trkpt lat="42.762083805421085" lon="10.299409415523437"><ele>13.0</ele><time>2026-04-25T14:04:06.901Z</time></trkpt><trkpt lat="42.76214451077279" lon="10.299272316118133"><ele>12.999999999999998</ele><time>2026-04-25T14:04:07.901Z</time></trkpt><trkpt lat="42.762189040499315" lon="10.299157593511508"><ele>13.0</ele><time>2026-04-25T14:04:08.901Z</time></trkpt><trkpt lat="42.7622160595299" lon="10.299041660555107"><ele>13.0</ele><time>2026-04-25T14:04:09.901Z</time></trkpt><trkpt lat="42.76223968812392" lon="10.298940072051394"><ele>13.0</ele><time>2026-04-25T14:04:10.901Z</time></trkpt><trkpt lat="42.76224619928238" lon="10.298836528754887"><ele>12.999999999999998</ele><time>2026-04-25T14:04:11.901Z</time></trkpt><trkpt lat="42.76228086166652" lon="10.298751934094417"><ele>13.0</ele><time>2026-04-25T14:04:12.901Z</time></trkpt><trkpt lat="42.76229657172958" lon="10.29866718709406"><ele>12.8</ele><time>2026-04-25T14:04:13.901Z</time></trkpt><trkpt lat="42.76232393348689" lon="10.298530368289482"><ele>12.600000000000001</ele><time>2026-04-25T14:04:15.901Z</time></trkpt><trkpt lat="42.76234390007065" lon="10.298433733131755"><ele>12.399999999999999</ele><time>2026-04-25T14:04:17.901Z</time></trkpt><trkpt lat="42.762376854760774" lon="10.29828229147002"><ele>12.2</ele><time>2026-04-25T14:04:55.9Z</time></trkpt><trkpt lat="42.76239559646728" lon="10.298181801339652"><ele>12.0</ele><time>2026-04-25T14:04:56.9Z</time></trkpt><trkpt lat="42.76242526761988" lon="10.298059439963044"><ele>11.8</ele><time>2026-04-25T14:04:57.9Z</time></trkpt><trkpt lat="42.76246765277379" lon="10.297929250269556"><ele>11.6</ele><time>2026-04-25T14:04:58.9Z</time></trkpt><trkpt lat="42.76251653475915" lon="10.297795481398817"><ele>11.4</ele><time>2026-04-25T14:04:59.9Z</time></trkpt><trkpt lat="42.76255020685188" lon="10.297659427526828"><ele>11.200000000000001</ele><time>2026-04-25T14:05:00.9Z</time></trkpt><trkpt lat="42.76256779826328" lon="10.297526296223229"><ele>11.0</ele><time>2026-04-25T14:05:01.9Z</time></trkpt><trkpt lat="42.76257094938735" lon="10.297402953260942"><ele>11.0</ele><time>2026-04-25T14:05:02.9Z</time></trkpt><trkpt lat="42.76254951831681" lon="10.297264352687607"><ele>11.0</ele><time>2026-04-25T14:05:03.9Z</time></trkpt><trkpt lat="42.762528518610864" lon="10.297118188369668"><ele>11.0</ele><time>2026-04-25T14:05:04.9Z</time></trkpt><trkpt lat="42.762486116959884" lon="10.296978520963322"><ele>11.0</ele><time>2026-04-25T14:05:05.9Z</time></trkpt><trkpt lat="42.76242032594884" lon="10.296837014913134"><ele>11.0</ele><time>2026-04-25T14:05:06.9Z</time></trkpt><trkpt lat="42.76234421193439" lon="10.296698576707415"><ele>11.4</ele><time>2026-04-25T14:05:07.9Z</time></trkpt><trkpt lat="42.762263886005336" lon="10.296561660589527"><ele>11.8</ele><time>2026-04-25T14:05:08.9Z</time></trkpt><trkpt lat="42.7621920804028" lon="10.296440647425566"><ele>12.200000000000001</ele><time>2026-04-25T14:05:09.9Z</time></trkpt><trkpt lat="42.762111280512784" lon="10.296334119531542"><ele>12.600000000000001</ele><time>2026-04-25T14:05:10.9Z</time></trkpt><trkpt lat="42.76207180739129" lon="10.296230978911439"><ele>13.0</ele><time>2026-04-25T14:05:11.9Z</time></trkpt><trkpt lat="42.762011251014414" lon="10.296148578624848"><ele>13.499999999999998</ele><time>2026-04-25T14:05:12.9Z</time></trkpt><trkpt lat="42.761972286120674" lon="10.296077555401961"><ele>14.0</ele><time>2026-04-25T14:05:13.9Z</time></trkpt><trkpt lat="42.76192936174671" lon="10.295986481260107"><ele>14.5</ele><time>2026-04-25T14:05:15.9Z</time></trkpt><trkpt lat="42.76181210722278" lon="10.296085616654784"><ele>15.0</ele><time>2026-04-25T14:05:20.9Z</time></trkpt><trkpt lat="42.76182755027313" lon="10.296195150163173"><ele>15.499999999999998</ele><time>2026-04-25T14:05:22.9Z</time></trkpt><trkpt lat="42.7618460344138" lon="10.296296937512517"><ele>16.0</ele><time>2026-04-25T14:05:29.9Z</time></trkpt><trkpt lat="42.76181903564143" lon="10.296390980483753"><ele>16.6</ele><time>2026-04-25T14:05:31.9Z</time></trkpt><trkpt lat="42.76174094026985" lon="10.29646835412523"><ele>17.200000000000003</ele><time>2026-04-25T14:05:32.9Z</time></trkpt><trkpt lat="42.76168160584132" lon="10.296512359229695"><ele>17.799999999999997</ele><time>2026-04-25T14:05:33.9Z</time></trkpt><trkpt lat="42.761596551674685" lon="10.29660403189267"><ele>18.4</ele><time>2026-04-25T14:05:35.9Z</time></trkpt><trkpt lat="42.76150807476712" lon="10.296722521114082"><ele>19.0</ele><time>2026-04-25T14:05:37.9Z</time></trkpt><trkpt lat="42.76145046711431" lon="10.296796331270139"><ele>19.0</ele><time>2026-04-25T14:05:38.9Z</time></trkpt><trkpt lat="42.76136112014982" lon="10.296870922036552"><ele>19.0</ele><time>2026-04-25T14:05:39.899Z</time></trkpt><trkpt lat="42.761282684006574" lon="10.29697522018792"><ele>19.0</ele><time>2026-04-25T14:05:40.899Z</time></trkpt><trkpt lat="42.76121767278372" lon="10.29706531203449"><ele>19.0</ele><time>2026-04-25T14:05:41.899Z</time></trkpt><trkpt lat="42.761160628161505" lon="10.29715681051392"><ele>19.0</ele><time>2026-04-25T14:05:42.899Z</time></trkpt><trkpt lat="42.76106676006682" lon="10.297248059134679"><ele>20.0</ele><time>2026-04-25T14:05:43.899Z</time></trkpt><trkpt lat="42.76093622506163" lon="10.29730818852436"><ele>21.0</ele><time>2026-04-25T14:05:44.899Z</time></trkpt><trkpt lat="42.760813084309" lon="10.297392344144004"><ele>22.0</ele><time>2026-04-25T14:05:45.899Z</time></trkpt><trkpt lat="42.76068936687323" lon="10.297473197763075"><ele>23.0</ele><time>2026-04-25T14:05:46.902Z</time></trkpt><trkpt lat="42.760564266246966" lon="10.297544709185898"><ele>23.0</ele><time>2026-04-25T14:05:47.901Z</time></trkpt><trkpt lat="42.76044253699393" lon="10.29762233227056"><ele>23.0</ele><time>2026-04-25T14:05:48.901Z</time></trkpt><trkpt lat="42.76031576280796" lon="10.297676635510758"><ele>23.0</ele><time>2026-04-25T14:05:49.902Z</time></trkpt><trkpt lat="42.7601927300162" lon="10.297721584104886"><ele>23.0</ele><time>2026-04-25T14:05:50.901Z</time></trkpt><trkpt lat="42.76007342322762" lon="10.297772220489334"><ele>22.4</ele><time>2026-04-25T14:05:51.901Z</time></trkpt><trkpt lat="42.759962525215066" lon="10.297829651753474"><ele>21.799999999999997</ele><time>2026-04-25T14:05:52.901Z</time></trkpt><trkpt lat="42.759864310132336" lon="10.297892655637593"><ele>21.2</ele><time>2026-04-25T14:05:53.901Z</time></trkpt><trkpt lat="42.759770638409" lon="10.297947713289544"><ele>20.6</ele><time>2026-04-25T14:05:54.901Z</time></trkpt><trkpt lat="42.75968751258059" lon="10.298024053901342"><ele>20.0</ele><time>2026-04-25T14:05:55.902Z</time></trkpt><trkpt lat="42.75962148719756" lon="10.29811075952692"><ele>20.0</ele><time>2026-04-25T14:05:56.901Z</time></trkpt><trkpt lat="42.75958688795263" lon="10.29820201667849"><ele>20.0</ele><time>2026-04-25T14:05:57.901Z</time></trkpt><trkpt lat="42.75947237730794" lon="10.29819986944396"><ele>20.0</ele><time>2026-04-25T14:06:02.901Z</time></trkpt><trkpt lat="42.75946314041708" lon="10.298093285756194"><ele>20.0</ele><time>2026-04-25T14:06:03.901Z</time></trkpt><trkpt lat="42.75944481369887" lon="10.297929225975576"><ele>20.0</ele><time>2026-04-25T14:06:05.901Z</time></trkpt><trkpt lat="42.7594351438523" lon="10.297810770223197"><ele>21.666666666666668</ele><time>2026-04-25T14:06:06.901Z</time></trkpt><trkpt lat="42.759398529386644" lon="10.297706845831227"><ele>23.333333333333336</ele><time>2026-04-25T14:06:07.901Z</time></trkpt><trkpt lat="42.75936791705712" lon="10.297606609300837"><ele>25.0</ele><time>2026-04-25T14:06:08.901Z</time></trkpt><trkpt lat="42.759338788424174" lon="10.297501935144236"><ele>26.666666666666668</ele><time>2026-04-25T14:06:09.901Z</time></trkpt><trkpt lat="42.759314879856475" lon="10.297399059078169"><ele>28.333333333333332</ele><time>2026-04-25T14:06:10.901Z</time></trkpt><trkpt lat="42.75929806989829" lon="10.29731173942108"><ele>30.0</ele><time>2026-04-25T14:06:11.901Z</time></trkpt><trkpt lat="42.75927431852202" lon="10.297182212876072"><ele>30.75</ele><time>2026-04-25T14:06:12.901Z</time></trkpt><trkpt lat="42.75925629504421" lon="10.29700515956261"><ele>31.5</ele><time>2026-04-25T14:06:13.901Z</time></trkpt><trkpt lat="42.75925218834422" lon="10.296834912210892"><ele>32.25</ele><time>2026-04-25T14:06:14.901Z</time></trkpt><trkpt lat="42.75925806065179" lon="10.296684952103936"><ele>33.0</ele><time>2026-04-25T14:06:15.901Z</time></trkpt><trkpt lat="42.75928468237715" lon="10.296549637865247"><ele>33.0</ele><time>2026-04-25T14:06:16.901Z</time></trkpt><trkpt lat="42.759311950128975" lon="10.296433758591077"><ele>33.0</ele><time>2026-04-25T14:06:17.901Z</time></trkpt><trkpt lat="42.75932715791668" lon="10.296322771125034"><ele>33.0</ele><time>2026-04-25T14:06:18.901Z</time></trkpt><trkpt lat="42.75933268679183" lon="10.296219688598098"><ele>33.0</ele><time>2026-04-25T14:06:19.901Z</time></trkpt><trkpt lat="42.75930824663523" lon="10.296112618143823"><ele>33.0</ele><time>2026-04-25T14:06:20.901Z</time></trkpt><trkpt lat="42.7592727915472" lon="10.296023317356791"><ele>33.0</ele><time>2026-04-25T14:06:21.901Z</time></trkpt><trkpt lat="42.75924791955949" lon="10.295918452546491"><ele>33.5</ele><time>2026-04-25T14:06:22.901Z</time></trkpt><trkpt lat="42.75922402139529" lon="10.295819274906254"><ele>34.0</ele><time>2026-04-25T14:06:23.901Z</time></trkpt><trkpt lat="42.75918173283706" lon="10.295725013872026"><ele>34.5</ele><time>2026-04-25T14:06:24.901Z</time></trkpt><trkpt lat="42.75911866590319" lon="10.295653729194672"><ele>35.0</ele><time>2026-04-25T14:06:25.901Z</time></trkpt><trkpt lat="42.75905074734878" lon="10.295617197499805"><ele>35.5</ele><time>2026-04-25T14:06:26.9Z</time></trkpt><trkpt lat="42.75898996085365" lon="10.295570583332092"><ele>36.0</ele><time>2026-04-25T14:06:27.9Z</time></trkpt><trkpt lat="42.75893409277612" lon="10.295493750318919"><ele>37.8</ele><time>2026-04-25T14:06:28.9Z</time></trkpt><trkpt lat="42.758879552302815" lon="10.295391730213954"><ele>39.6</ele><time>2026-04-25T14:06:29.9Z</time></trkpt><trkpt lat="42.75882821770938" lon="10.29530231264219"><ele>41.4</ele><time>2026-04-25T14:06:30.9Z</time></trkpt><trkpt lat="42.75876210989337" lon="10.295223110735732"><ele>43.2</ele><time>2026-04-25T14:06:31.9Z</time></trkpt><trkpt lat="42.758679748558635" lon="10.295159180829945"><ele>45.0</ele><time>2026-04-25T14:06:32.9Z</time></trkpt><trkpt lat="42.7585943338585" lon="10.295111353463634"><ele>42.833333333333336</ele><time>2026-04-25T14:06:33.9Z</time></trkpt><trkpt lat="42.75851038018196" lon="10.295053609370964"><ele>40.666666666666664</ele><time>2026-04-25T14:06:34.9Z</time></trkpt><trkpt lat="42.75843457340343" lon="10.295007282368292"><ele>38.5</ele><time>2026-04-25T14:06:35.9Z</time></trkpt><trkpt lat="42.75835208921472" lon="10.294980184842572"><ele>36.33333333333333</ele><time>2026-04-25T14:06:36.9Z</time></trkpt><trkpt lat="42.75827462208958" lon="10.29498317398803"><ele>34.166666666666664</ele><time>2026-04-25T14:06:37.9Z</time></trkpt><trkpt lat="42.758196878199726" lon="10.295017774215518"><ele>32.0</ele><time>2026-04-25T14:06:38.9Z</time></trkpt><trkpt lat="42.75812571415065" lon="10.295065603951848"><ele>31.999999999999996</ele><time>2026-04-25T14:06:39.9Z</time></trkpt><trkpt lat="42.758034321537885" lon="10.295073758090412"><ele>32.0</ele><time>2026-04-25T14:06:40.9Z</time></trkpt><trkpt lat="42.75795026938202" lon="10.29506050699982"><ele>32.0</ele><time>2026-04-25T14:06:41.9Z</time></trkpt><trkpt lat="42.75787117724816" lon="10.295052101806746"><ele>32.0</ele><time>2026-04-25T14:06:42.9Z</time></trkpt><trkpt lat="42.75779246738689" lon="10.295052800928394"><ele>31.999999999999996</ele><time>2026-04-25T14:06:43.9Z</time></trkpt><trkpt lat="42.75771337846516" lon="10.295035748921736"><ele>32.0</ele><time>2026-04-25T14:06:44.9Z</time></trkpt><trkpt lat="42.75764558624735" lon="10.294990895927997"><ele>33.2</ele><time>2026-04-25T14:06:45.9Z</time></trkpt><trkpt lat="42.75758415463536" lon="10.294919411872444"><ele>34.400000000000006</ele><time>2026-04-25T14:06:46.9Z</time></trkpt><trkpt lat="42.75752646538483" lon="10.294827691911282"><ele>35.599999999999994</ele><time>2026-04-25T14:06:47.9Z</time></trkpt><trkpt lat="42.757471703083866" lon="10.29470701130678"><ele>36.8</ele><time>2026-04-25T14:06:48.9Z</time></trkpt><trkpt lat="42.7574164039824" lon="10.294590190355075"><ele>38.0</ele><time>2026-04-25T14:06:49.9Z</time></trkpt><trkpt lat="42.7573567548398" lon="10.294480897839392"><ele>38.0</ele><time>2026-04-25T14:06:50.9Z</time></trkpt><trkpt lat="42.7572821306239" lon="10.294372118111083"><ele>38.0</ele><time>2026-04-25T14:06:51.9Z</time></trkpt><trkpt lat="42.75720558950087" lon="10.294269105367412"><ele>38.0</ele><time>2026-04-25T14:06:52.9Z</time></trkpt><trkpt lat="42.75713942019241" lon="10.29416771162993"><ele>38.0</ele><time>2026-04-25T14:06:53.9Z</time></trkpt><trkpt lat="42.75708436565507" lon="10.294086452072472"><ele>38.0</ele><time>2026-04-25T14:06:54.9Z</time></trkpt><trkpt lat="42.757042043559565" lon="10.294010468845226"><ele>38.0</ele><time>2026-04-25T14:06:55.9Z</time></trkpt><trkpt lat="42.75697447744606" lon="10.29393150742883"><ele>38.0</ele><time>2026-04-25T14:06:56.9Z</time></trkpt><trkpt lat="42.756914279523535" lon="10.293865412323102"><ele>38.0</ele><time>2026-04-25T14:06:57.9Z</time></trkpt><trkpt lat="42.756841392771065" lon="10.293821178839261"><ele>38.0</ele><time>2026-04-25T14:06:58.9Z</time></trkpt><trkpt lat="42.75677612485862" lon="10.293807725100672"><ele>38.0</ele><time>2026-04-25T14:06:59.9Z</time></trkpt><trkpt lat="42.756696865764894" lon="10.29379223226184"><ele>38.0</ele><time>2026-04-25T14:07:00.9Z</time></trkpt><trkpt lat="42.75662832233738" lon="10.29373804727391"><ele>37.6</ele><time>2026-04-25T14:07:01.9Z</time></trkpt><trkpt lat="42.75656221209511" lon="10.293650319145922"><ele>37.199999999999996</ele><time>2026-04-25T14:07:02.9Z</time></trkpt><trkpt lat="42.75649849072362" lon="10.29355968858463"><ele>36.8</ele><time>2026-04-25T14:07:03.9Z</time></trkpt><trkpt lat="42.75642995176011" lon="10.293470750165431"><ele>36.4</ele><time>2026-04-25T14:07:04.9Z</time></trkpt><trkpt lat="42.75637682645814" lon="10.293364645049152"><ele>36.0</ele><time>2026-04-25T14:07:05.9Z</time></trkpt><trkpt lat="42.75630678719743" lon="10.293282116724438"><ele>36.0</ele><time>2026-04-25T14:07:06.9Z</time></trkpt><trkpt lat="42.7562280554909" lon="10.293182717809923"><ele>36.0</ele><time>2026-04-25T14:07:07.9Z</time></trkpt><trkpt lat="42.75617465510583" lon="10.293080790397378"><ele>36.0</ele><time>2026-04-25T14:07:08.9Z</time></trkpt><trkpt lat="42.75610889209454" lon="10.292990392115957"><ele>36.0</ele><time>2026-04-25T14:07:09.9Z</time></trkpt><trkpt lat="42.756027458272754" lon="10.292880798436803"><ele>36.0</ele><time>2026-04-25T14:07:10.9Z</time></trkpt><trkpt lat="42.75595772361832" lon="10.292818427813557"><ele>35.333333333333336</ele><time>2026-04-25T14:07:11.9Z</time></trkpt><trkpt lat="42.75589971946018" lon="10.29275665768353"><ele>34.666666666666664</ele><time>2026-04-25T14:07:12.9Z</time></trkpt><trkpt lat="42.755832439526664" lon="10.292709845653663"><ele>34.0</ele><time>2026-04-25T14:07:13.9Z</time></trkpt><trkpt lat="42.75575268550214" lon="10.292689616819512"><ele>33.33333333333333</ele><time>2026-04-25T14:07:14.899Z</time></trkpt><trkpt lat="42.75568191253834" lon="10.292649612900828"><ele>32.666666666666664</ele><time>2026-04-25T14:07:15.899Z</time></trkpt><trkpt lat="42.755632190440906" lon="10.2925657730717"><ele>32.0</ele><time>2026-04-25T14:07:16.899Z</time></trkpt><trkpt lat="42.755616118158706" lon="10.29246690135928"><ele>31.999999999999996</ele><time>2026-04-25T14:07:17.899Z</time></trkpt><trkpt lat="42.755604472479575" lon="10.292349597514004"><ele>32.0</ele><time>2026-04-25T14:07:18.899Z</time></trkpt><trkpt lat="42.755581172626066" lon="10.292267742859796"><ele>32.0</ele><time>2026-04-25T14:07:19.899Z</time></trkpt><trkpt lat="42.75550814546256" lon="10.292233723796773"><ele>32.0</ele><time>2026-04-25T14:07:20.899Z</time></trkpt><trkpt lat="42.755421657406515" lon="10.292206814679178"><ele>31.999999999999996</ele><time>2026-04-25T14:07:21.899Z</time></trkpt><trkpt lat="42.755332555664474" lon="10.292153525256042"><ele>32.0</ele><time>2026-04-25T14:07:22.899Z</time></trkpt><trkpt lat="42.75526704659647" lon="10.292054161799209"><ele>30.25</ele><time>2026-04-25T14:07:23.899Z</time></trkpt><trkpt lat="42.75518782043344" lon="10.29195702504532"><ele>28.5</ele><time>2026-04-25T14:07:24.899Z</time></trkpt><trkpt lat="42.755127499436085" lon="10.291850341204285"><ele>26.75</ele><time>2026-04-25T14:07:25.899Z</time></trkpt><trkpt lat="42.75508228466163" lon="10.29169975485401"><ele>25.0</ele><time>2026-04-25T14:07:26.899Z</time></trkpt><trkpt lat="42.755040747646234" lon="10.29153360990228"><ele>26.6</ele><time>2026-04-25T14:07:27.899Z</time></trkpt><trkpt lat="42.75499776916315" lon="10.291386905665743"><ele>28.2</ele><time>2026-04-25T14:07:28.899Z</time></trkpt><trkpt lat="42.75496571508314" lon="10.291251437601245"><ele>29.799999999999997</ele><time>2026-04-25T14:07:29.899Z</time></trkpt><trkpt lat="42.75495787952082" lon="10.291126451523528"><ele>31.4</ele><time>2026-04-25T14:07:30.899Z</time></trkpt><trkpt lat="42.75497119769969" lon="10.291005548382168"><ele>33.0</ele><time>2026-04-25T14:07:31.899Z</time></trkpt><trkpt lat="42.754988129955876" lon="10.29087435133524"><ele>33.0</ele><time>2026-04-25T14:07:32.899Z</time></trkpt><trkpt lat="42.75500437661498" lon="10.290765122072152"><ele>33.0</ele><time>2026-04-25T14:07:33.899Z</time></trkpt><trkpt lat="42.75501193868856" lon="10.29067755506432"><ele>33.0</ele><time>2026-04-25T14:07:34.899Z</time></trkpt><trkpt lat="42.755013973126886" lon="10.290584357198936"><ele>33.0</ele><time>2026-04-25T14:07:35.899Z</time></trkpt><trkpt lat="42.75496622258725" lon="10.290417756361315"><ele>33.0</ele><time>2026-04-25T14:07:37.899Z</time></trkpt><trkpt lat="42.75492656595773" lon="10.290322681949148"><ele>33.0</ele><time>2026-04-25T14:07:38.899Z</time></trkpt><trkpt lat="42.7548853376795" lon="10.290204078684084"><ele>34.5</ele><time>2026-04-25T14:07:39.899Z</time></trkpt><trkpt lat="42.75484534894216" lon="10.290073645860142"><ele>36.0</ele><time>2026-04-25T14:07:40.899Z</time></trkpt><trkpt lat="42.75480867155393" lon="10.289981184963949"><ele>37.5</ele><time>2026-04-25T14:07:41.899Z</time></trkpt><trkpt lat="42.75477168605704" lon="10.289890213194917"><ele>39.0</ele><time>2026-04-25T14:07:42.899Z</time></trkpt><trkpt lat="42.754733865943614" lon="10.28978968720678"><ele>40.5</ele><time>2026-04-25T14:07:43.899Z</time></trkpt><trkpt lat="42.75468978744638" lon="10.28967110438011"><ele>42.0</ele><time>2026-04-25T14:07:44.899Z</time></trkpt><trkpt lat="42.75466146492646" lon="10.289579122811976"><ele>44.5</ele><time>2026-04-25T14:07:45.899Z</time></trkpt><trkpt lat="42.75461891958996" lon="10.289480261974399"><ele>47.0</ele><time>2026-04-25T14:07:46.899Z</time></trkpt><trkpt lat="42.75458170229119" lon="10.28935230565445"><ele>49.5</ele><time>2026-04-25T14:07:47.899Z</time></trkpt><trkpt lat="42.754553822025194" lon="10.289223767599756"><ele>52.0</ele><time>2026-04-25T14:07:48.899Z</time></trkpt><trkpt lat="42.75453884808794" lon="10.289128228710375"><ele>54.5</ele><time>2026-04-25T14:07:49.899Z</time></trkpt><trkpt lat="42.75451991111579" lon="10.289026091966099"><ele>57.0</ele><time>2026-04-25T14:07:50.899Z</time></trkpt><trkpt lat="42.75449543298037" lon="10.288910253669844"><ele>56.8</ele><time>2026-04-25T14:07:51.899Z</time></trkpt><trkpt lat="42.754487131990736" lon="10.288800859183572"><ele>56.6</ele><time>2026-04-25T14:07:52.901Z</time></trkpt><trkpt lat="42.75444692123925" lon="10.288652892524532"><ele>56.39999999999999</ele><time>2026-04-25T14:07:54.901Z</time></trkpt><trkpt lat="42.754323855322916" lon="10.28861928173035"><ele>56.199999999999996</ele><time>2026-04-25T14:07:56.9Z</time></trkpt><trkpt lat="42.754232283162594" lon="10.2886484924111"><ele>56.0</ele><time>2026-04-25T14:07:57.9Z</time></trkpt><trkpt lat="42.75413225784563" lon="10.2887152503738"><ele>56.00000000000001</ele><time>2026-04-25T14:07:58.9Z</time></trkpt><trkpt lat="42.75404554074923" lon="10.288766378733785"><ele>56.0</ele><time>2026-04-25T14:07:59.901Z</time></trkpt><trkpt lat="42.75396240671547" lon="10.288798989368411"><ele>56.0</ele><time>2026-04-25T14:08:00.901Z</time></trkpt><trkpt lat="42.75388714851162" lon="10.28880163237012"><ele>56.0</ele><time>2026-04-25T14:08:01.901Z</time></trkpt><trkpt lat="42.7538050501147" lon="10.288788378216026"><ele>56.00000000000001</ele><time>2026-04-25T14:08:02.9Z</time></trkpt><trkpt lat="42.75372111778069" lon="10.28875451248064"><ele>56.0</ele><time>2026-04-25T14:08:03.9Z</time></trkpt><trkpt lat="42.753648245787154" lon="10.288705997032302"><ele>56.00000000000001</ele><time>2026-04-25T14:08:04.901Z</time></trkpt><trkpt lat="42.75358283368912" lon="10.288648354972489"><ele>56.0</ele><time>2026-04-25T14:08:05.9Z</time></trkpt><trkpt lat="42.75352837165279" lon="10.288597595906127"><ele>56.0</ele><time>2026-04-25T14:08:06.9Z</time></trkpt><trkpt lat="42.75345790116554" lon="10.288463912686973"><ele>56.0</ele><time>2026-04-25T14:08:08.9Z</time></trkpt><trkpt lat="42.75341921750311" lon="10.288384758857502"><ele>56.00000000000001</ele><time>2026-04-25T14:08:09.9Z</time></trkpt><trkpt lat="42.75337203009447" lon="10.288304296570804"><ele>56.0</ele><time>2026-04-25T14:08:10.9Z</time></trkpt><trkpt lat="42.75333818754803" lon="10.288225084419869"><ele>58.75</ele><time>2026-04-25T14:08:11.9Z</time></trkpt><trkpt lat="42.75329919537475" lon="10.28807293496246"><ele>61.5</ele><time>2026-04-25T14:08:13.9Z</time></trkpt><trkpt lat="42.75328088786971" lon="10.287917489279076"><ele>64.25</ele><time>2026-04-25T14:08:15.9Z</time></trkpt><trkpt lat="42.75320845487799" lon="10.287856474612992"><ele>67.0</ele><time>2026-04-25T14:08:17.9Z</time></trkpt><trkpt lat="42.753089427770846" lon="10.287945840646682"><ele>67.0</ele><time>2026-04-25T14:08:19.9Z</time></trkpt><trkpt lat="42.75304193605489" lon="10.288031399676926"><ele>67.0</ele><time>2026-04-25T14:08:20.9Z</time></trkpt><trkpt lat="42.75300611872752" lon="10.288156180500657"><ele>67.0</ele><time>2026-04-25T14:08:21.9Z</time></trkpt><trkpt lat="42.75297320073157" lon="10.288264001101924"><ele>67.0</ele><time>2026-04-25T14:08:22.9Z</time></trkpt><trkpt lat="42.75293727645102" lon="10.288347286826516"><ele>67.0</ele><time>2026-04-25T14:08:23.9Z</time></trkpt><trkpt lat="42.75289662664425" lon="10.288419326728024"><ele>67.0</ele><time>2026-04-25T14:08:24.9Z</time></trkpt><trkpt lat="42.752826896001054" lon="10.2885365319649"><ele>67.0</ele><time>2026-04-25T14:08:26.9Z</time></trkpt><trkpt lat="42.7527586946188" lon="10.28860126384409"><ele>67.0</ele><time>2026-04-25T14:08:27.9Z</time></trkpt><trkpt lat="42.75269828859743" lon="10.288666520967132"><ele>67.0</ele><time>2026-04-25T14:08:28.9Z</time></trkpt><trkpt lat="42.75264394383476" lon="10.288711209933004"><ele>67.0</ele><time>2026-04-25T14:08:29.9Z</time></trkpt><trkpt lat="42.752576455932136" lon="10.28875314083461"><ele>67.0</ele><time>2026-04-25T14:08:30.9Z</time></trkpt><trkpt lat="42.75251584928752" lon="10.288780188296608"><ele>67.0</ele><time>2026-04-25T14:08:31.9Z</time></trkpt><trkpt lat="42.75241093539565" lon="10.288822636832773"><ele>67.0</ele><time>2026-04-25T14:08:33.9Z</time></trkpt><trkpt lat="42.75230032422731" lon="10.288843558819272"><ele>67.0</ele><time>2026-04-25T14:08:35.9Z</time></trkpt><trkpt lat="42.752182586588546" lon="10.288828437456852"><ele>67.0</ele><time>2026-04-25T14:08:37.9Z</time></trkpt><trkpt lat="42.7521094061923" lon="10.288817555831818"><ele>67.0</ele><time>2026-04-25T14:08:38.9Z</time></trkpt><trkpt lat="42.752029688146926" lon="10.288808039755722"><ele>67.0</ele><time>2026-04-25T14:08:40.9Z</time></trkpt><trkpt lat="42.75195387438604" lon="10.288770718030596"><ele>67.0</ele><time>2026-04-25T14:08:42.9Z</time></trkpt><trkpt lat="42.75187632630372" lon="10.288740921747522"><ele>67.0</ele><time>2026-04-25T14:08:44.9Z</time></trkpt><trkpt lat="42.751793216403584" lon="10.288684863200096"><ele>67.0</ele><time>2026-04-25T14:08:47.9Z</time></trkpt><trkpt lat="42.75172708542504" lon="10.288636067764795"><ele>67.0</ele><time>2026-04-25T14:08:48.9Z</time></trkpt><trkpt lat="42.75165777227276" lon="10.288589347271127"><ele>67.0</ele><time>2026-04-25T14:08:49.9Z</time></trkpt><trkpt lat="42.75160150817111" lon="10.288538893140718"><ele>67.0</ele><time>2026-04-25T14:08:50.9Z</time></trkpt><trkpt lat="42.75150078978241" lon="10.288440960593874"><ele>69.4</ele><time>2026-04-25T14:08:52.9Z</time></trkpt><trkpt lat="42.751410371554165" lon="10.288367609259561"><ele>71.80000000000001</ele><time>2026-04-25T14:08:54.899Z</time></trkpt><trkpt lat="42.751342976354486" lon="10.288307041575138"><ele>74.2</ele><time>2026-04-25T14:08:55.899Z</time></trkpt><trkpt lat="42.75128892993274" lon="10.288262465933398"><ele>76.60000000000001</ele><time>2026-04-25T14:08:56.899Z</time></trkpt><trkpt lat="42.75118770732985" lon="10.28818265764552"><ele>79.0</ele><time>2026-04-25T14:08:58.899Z</time></trkpt><trkpt lat="42.75110568231975" lon="10.288126256673685"><ele>78.4</ele><time>2026-04-25T14:09:00.899Z</time></trkpt><trkpt lat="42.750978601621625" lon="10.288097605892677"><ele>77.80000000000001</ele><time>2026-04-25T14:09:02.899Z</time></trkpt><trkpt lat="42.750888583521714" lon="10.288083987951788"><ele>77.19999999999999</ele><time>2026-04-25T14:09:03.899Z</time></trkpt><trkpt lat="42.75080566722448" lon="10.288082711493313"><ele>76.6</ele><time>2026-04-25T14:09:05.899Z</time></trkpt><trkpt lat="42.750728298467834" lon="10.288094774188648"><ele>76.0</ele><time>2026-04-25T14:09:07.899Z</time></trkpt><trkpt lat="42.75064375168497" lon="10.288127235669467"><ele>76.0</ele><time>2026-04-25T14:09:09.899Z</time></trkpt><trkpt lat="42.75055137098531" lon="10.28813768694331"><ele>76.0</ele><time>2026-04-25T14:09:11.899Z</time></trkpt><trkpt lat="42.75045365945166" lon="10.288090422591964"><ele>76.0</ele><time>2026-04-25T14:09:13.899Z</time></trkpt><trkpt lat="42.750395165370655" lon="10.288005113256474"><ele>76.0</ele><time>2026-04-25T14:09:15.899Z</time></trkpt><trkpt lat="42.750362500401124" lon="10.287922091250056"><ele>76.0</ele><time>2026-04-25T14:09:16.899Z</time></trkpt><trkpt lat="42.750321170005954" lon="10.287849540949754"><ele>76.0</ele><time>2026-04-25T14:09:17.899Z</time></trkpt><trkpt lat="42.750312078963844" lon="10.287738701836005"><ele>80.4</ele><time>2026-04-25T14:09:19.899Z</time></trkpt><trkpt lat="42.75036536699688" lon="10.287681037123946"><ele>84.8</ele><time>2026-04-25T14:09:21.899Z</time></trkpt><trkpt lat="42.750460453411414" lon="10.28765126438941"><ele>89.2</ele><time>2026-04-25T14:13:26.898Z</time></trkpt><trkpt lat="42.750566759074765" lon="10.287605471799898"><ele>93.60000000000001</ele><time>2026-04-25T14:13:28.898Z</time></trkpt><trkpt lat="42.750682168005625" lon="10.287578037195585"><ele>98.0</ele><time>2026-04-25T14:13:30.898Z</time></trkpt><trkpt lat="42.75076218281979" lon="10.287572884018198"><ele>98.0</ele><time>2026-04-25T14:13:31.898Z</time></trkpt><trkpt lat="42.75088320030867" lon="10.287571715895792"><ele>98.0</ele><time>2026-04-25T14:13:33.898Z</time></trkpt><trkpt lat="42.75103164526499" lon="10.287563230534833"><ele>98.0</ele><time>2026-04-25T14:13:35.898Z</time></trkpt><trkpt lat="42.7511057946444" lon="10.287555452746739"><ele>98.0</ele><time>2026-04-25T14:13:36.898Z</time></trkpt><trkpt lat="42.75117971944617" lon="10.287562373334247"><ele>98.0</ele><time>2026-04-25T14:13:37.898Z</time></trkpt><trkpt lat="42.75125254129532" lon="10.287567241586823"><ele>99.60000000000001</ele><time>2026-04-25T14:13:38.898Z</time></trkpt><trkpt lat="42.75132518495821" lon="10.287587535967022"><ele>101.2</ele><time>2026-04-25T14:13:39.898Z</time></trkpt><trkpt lat="42.75143505202125" lon="10.287645838334756"><ele>102.8</ele><time>2026-04-25T14:13:41.898Z</time></trkpt><trkpt lat="42.751537855581105" lon="10.287704801902825"><ele>104.4</ele><time>2026-04-25T14:13:43.898Z</time></trkpt><trkpt lat="42.75165913775649" lon="10.287748913491304"><ele>106.0</ele><time>2026-04-25T14:13:45.898Z</time></trkpt><trkpt lat="42.75178772818441" lon="10.287697323241863"><ele>106.0</ele><time>2026-04-25T14:13:47.898Z</time></trkpt><trkpt lat="42.751853798609794" lon="10.287650264667578"><ele>106.0</ele><time>2026-04-25T14:13:48.898Z</time></trkpt><trkpt lat="42.751920757819946" lon="10.287609777525166"><ele>106.0</ele><time>2026-04-25T14:13:49.898Z</time></trkpt><trkpt lat="42.75198267701774" lon="10.287577810765413"><ele>106.0</ele><time>2026-04-25T14:13:50.898Z</time></trkpt><trkpt lat="42.75206002232508" lon="10.287476666979975"><ele>106.0</ele><time>2026-04-25T14:13:52.898Z</time></trkpt><trkpt lat="42.752081376194056" lon="10.287395011135839"><ele>106.0</ele><time>2026-04-25T14:13:53.898Z</time></trkpt><trkpt lat="42.75210455189177" lon="10.287314346835668"><ele>106.0</ele><time>2026-04-25T14:13:54.898Z</time></trkpt><trkpt lat="42.75211134399625" lon="10.28722410935595"><ele>104.16666666666667</ele><time>2026-04-25T14:13:55.898Z</time></trkpt><trkpt lat="42.7521232960926" lon="10.287132581208665"><ele>102.33333333333334</ele><time>2026-04-25T14:13:56.898Z</time></trkpt><trkpt lat="42.75214967694934" lon="10.287019085694993"><ele>100.5</ele><time>2026-04-25T14:13:57.897Z</time></trkpt><trkpt lat="42.752175596331135" lon="10.286896055765153"><ele>98.66666666666667</ele><time>2026-04-25T14:13:58.897Z</time></trkpt><trkpt lat="42.75219564368694" lon="10.286774643919523"><ele>96.83333333333334</ele><time>2026-04-25T14:13:59.897Z</time></trkpt><trkpt lat="42.752196358495645" lon="10.286652167130326"><ele>95.0</ele><time>2026-04-25T14:14:00.897Z</time></trkpt><trkpt lat="42.75219049005959" lon="10.286513964391242"><ele>96.66666666666667</ele><time>2026-04-25T14:14:01.897Z</time></trkpt><trkpt lat="42.752189358647094" lon="10.28639315659115"><ele>98.33333333333334</ele><time>2026-04-25T14:14:02.897Z</time></trkpt><trkpt lat="42.75220121240291" lon="10.286292419473932"><ele>100.0</ele><time>2026-04-25T14:14:03.897Z</time></trkpt><trkpt lat="42.752229229255846" lon="10.286184274519185"><ele>101.66666666666667</ele><time>2026-04-25T14:14:04.897Z</time></trkpt><trkpt lat="42.75224818815921" lon="10.286093716271314"><ele>103.33333333333333</ele><time>2026-04-25T14:14:05.897Z</time></trkpt><trkpt lat="42.75227397163224" lon="10.286009798258647"><ele>105.0</ele><time>2026-04-25T14:14:06.897Z</time></trkpt><trkpt lat="42.7522760405607" lon="10.28584576632791"><ele>105.0</ele><time>2026-04-25T14:14:08.897Z</time></trkpt><trkpt lat="42.752264567430686" lon="10.285741395562928"><ele>105.0</ele><time>2026-04-25T14:14:09.897Z</time></trkpt><trkpt lat="42.75225148514631" lon="10.285638330965979"><ele>105.0</ele><time>2026-04-25T14:14:10.9Z</time></trkpt><trkpt lat="42.752226525776756" lon="10.285546087863388"><ele>105.0</ele><time>2026-04-25T14:14:11.899Z</time></trkpt><trkpt lat="42.75218480603671" lon="10.285382578284167"><ele>105.0</ele><time>2026-04-25T14:14:13.9Z</time></trkpt><trkpt lat="42.75218504347816" lon="10.285282081454865"><ele>105.0</ele><time>2026-04-25T14:14:14.9Z</time></trkpt><trkpt lat="42.752185215454055" lon="10.28517597924433"><ele>107.33333333333333</ele><time>2026-04-25T14:14:15.9Z</time></trkpt><trkpt lat="42.75215296848344" lon="10.285073539708836"><ele>109.66666666666666</ele><time>2026-04-25T14:14:16.9Z</time></trkpt><trkpt lat="42.752114804614884" lon="10.284978413087194"><ele>112.0</ele><time>2026-04-25T14:14:17.9Z</time></trkpt><trkpt lat="42.75210106374776" lon="10.284889418389081"><ele>114.33333333333333</ele><time>2026-04-25T14:14:18.9Z</time></trkpt><trkpt lat="42.7521252198578" lon="10.284736610353548"><ele>116.66666666666666</ele><time>2026-04-25T14:14:20.899Z</time></trkpt><trkpt lat="42.752227316530146" lon="10.28471086256879"><ele>119.0</ele><time>2026-04-25T14:14:22.9Z</time></trkpt><trkpt lat="42.7523075362734" lon="10.284759530426646"><ele>119.0</ele><time>2026-04-25T14:14:24.9Z</time></trkpt><trkpt lat="42.75236885880318" lon="10.284824731797833"><ele>119.0</ele><time>2026-04-25T14:14:26.9Z</time></trkpt><trkpt lat="42.75249773502601" lon="10.284843639834689"><ele>119.0</ele><time>2026-04-25T14:14:28.9Z</time></trkpt><trkpt lat="42.7525662417231" lon="10.28484897388051"><ele>119.0</ele><time>2026-04-25T14:14:29.9Z</time></trkpt><trkpt lat="42.75269357170734" lon="10.28484991837499"><ele>119.0</ele><time>2026-04-25T14:14:31.9Z</time></trkpt><trkpt lat="42.752762690988455" lon="10.284844360845069"><ele>121.4</ele><time>2026-04-25T14:14:32.9Z</time></trkpt><trkpt lat="42.75285673680598" lon="10.284825747977083"><ele>123.80000000000001</ele><time>2026-04-25T14:15:07.899Z</time></trkpt><trkpt lat="42.75296584476792" lon="10.284827564829998"><ele>126.19999999999999</ele><time>2026-04-25T14:15:09.899Z</time></trkpt><trkpt lat="42.75308720901947" lon="10.284799573310492"><ele>128.6</ele><time>2026-04-25T14:15:11.899Z</time></trkpt><trkpt lat="42.7531523764843" lon="10.284781380415204"><ele>131.0</ele><time>2026-04-25T14:15:12.899Z</time></trkpt><trkpt lat="42.75322542778704" lon="10.284759387283703"><ele>131.0</ele><time>2026-04-25T14:15:13.899Z</time></trkpt><trkpt lat="42.7532952838205" lon="10.28470437292453"><ele>131.0</ele><time>2026-04-25T14:15:14.899Z</time></trkpt><trkpt lat="42.753396532972985" lon="10.284690652263082"><ele>131.0</ele><time>2026-04-25T14:15:16.899Z</time></trkpt><trkpt lat="42.75347147775729" lon="10.28479322480529"><ele>131.0</ele><time>2026-04-25T14:15:18.899Z</time></trkpt><trkpt lat="42.75351696440229" lon="10.284860553516488"><ele>131.0</ele><time>2026-04-25T14:15:19.899Z</time></trkpt><trkpt lat="42.75355044930487" lon="10.28494940991514"><ele>131.0</ele><time>2026-04-25T14:15:20.899Z</time></trkpt><trkpt lat="42.75358331093349" lon="10.285027352252133"><ele>136.5</ele><time>2026-04-25T14:15:21.899Z</time></trkpt><trkpt lat="42.75363328594866" lon="10.285121072660766"><ele>142.0</ele><time>2026-04-25T14:15:22.899Z</time></trkpt><trkpt lat="42.753674262284285" lon="10.28521029514409"><ele>147.5</ele><time>2026-04-25T14:15:23.899Z</time></trkpt><trkpt lat="42.75371165370055" lon="10.285300430537974"><ele>153.0</ele><time>2026-04-25T14:15:24.899Z</time></trkpt><trkpt lat="42.753749708847984" lon="10.285379181471884"><ele>158.5</ele><time>2026-04-25T14:15:25.899Z</time></trkpt><trkpt lat="42.753788952027016" lon="10.285469932810686"><ele>164.0</ele><time>2026-04-25T14:15:26.899Z</time></trkpt><trkpt lat="42.75381708196925" lon="10.28558314227734"><ele>160.33333333333331</ele><time>2026-04-25T14:15:27.899Z</time></trkpt><trkpt lat="42.753853249520375" lon="10.285699526747608"><ele>156.66666666666666</ele><time>2026-04-25T14:15:28.899Z</time></trkpt><trkpt lat="42.75390040195597" lon="10.285823341146159"><ele>153.0</ele><time>2026-04-25T14:15:29.899Z</time></trkpt><trkpt lat="42.753934028470944" lon="10.285943979691027"><ele>149.33333333333334</ele><time>2026-04-25T14:15:30.899Z</time></trkpt><trkpt lat="42.753961878980014" lon="10.28603596086438"><ele>145.66666666666669</ele><time>2026-04-25T14:15:31.899Z</time></trkpt><trkpt lat="42.75400491681097" lon="10.286109750254766"><ele>142.0</ele><time>2026-04-25T14:15:32.899Z</time></trkpt><trkpt lat="42.75405792620369" lon="10.286158158604435"><ele>142.0</ele><time>2026-04-25T14:15:33.899Z</time></trkpt><trkpt lat="42.75411398836478" lon="10.286222897065874"><ele>142.0</ele><time>2026-04-25T14:15:34.899Z</time></trkpt><trkpt lat="42.754165608048375" lon="10.28629313107852"><ele>142.0</ele><time>2026-04-25T14:15:35.898Z</time></trkpt><trkpt lat="42.754215537841205" lon="10.28635354366183"><ele>142.0</ele><time>2026-04-25T14:15:36.898Z</time></trkpt><trkpt lat="42.75427511504805" lon="10.286385109013349"><ele>142.0</ele><time>2026-04-25T14:15:37.898Z</time></trkpt><trkpt lat="42.75438257013351" lon="10.286369853937863"><ele>142.0</ele><time>2026-04-25T14:15:39.898Z</time></trkpt><trkpt lat="42.7544793832326" lon="10.286295595522573"><ele>137.75</ele><time>2026-04-25T14:15:41.898Z</time></trkpt><trkpt lat="42.754541194072736" lon="10.286161686680176"><ele>133.5</ele><time>2026-04-25T14:15:43.898Z</time></trkpt><trkpt lat="42.754591809430224" lon="10.286023024642411"><ele>129.25</ele><time>2026-04-25T14:15:45.898Z</time></trkpt><trkpt lat="42.754638862820336" lon="10.285880853860608"><ele>125.0</ele><time>2026-04-25T14:15:47.898Z</time></trkpt><trkpt lat="42.75469760986492" lon="10.285751557445286"><ele>125.0</ele><time>2026-04-25T14:15:49.898Z</time></trkpt><trkpt lat="42.754737701534836" lon="10.285653553573942"><ele>125.0</ele><time>2026-04-25T14:15:51.898Z</time></trkpt><trkpt lat="42.75478104739705" lon="10.28554769786677"><ele>125.0</ele><time>2026-04-25T14:15:53.898Z</time></trkpt><trkpt lat="42.75481958820874" lon="10.285393811113172"><ele>125.0</ele><time>2026-04-25T14:15:55.898Z</time></trkpt><trkpt lat="42.754861795840704" lon="10.285291253971664"><ele>125.0</ele><time>2026-04-25T14:15:56.898Z</time></trkpt><trkpt lat="42.75489714531291" lon="10.285177290763338"><ele>129.5</ele><time>2026-04-25T14:15:57.898Z</time></trkpt><trkpt lat="42.75495125961934" lon="10.285086900867366"><ele>134.0</ele><time>2026-04-25T14:15:58.898Z</time></trkpt><trkpt lat="42.75500134188567" lon="10.284982756916996"><ele>138.5</ele><time>2026-04-25T14:15:59.898Z</time></trkpt><trkpt lat="42.75504817646526" lon="10.284887676273852"><ele>143.0</ele><time>2026-04-25T14:16:00.898Z</time></trkpt><trkpt lat="42.75508677453063" lon="10.284807827286938"><ele>147.5</ele><time>2026-04-25T14:16:01.898Z</time></trkpt><trkpt lat="42.75512470432459" lon="10.284729728807244"><ele>152.0</ele><time>2026-04-25T14:16:02.898Z</time></trkpt><trkpt lat="42.75518157407237" lon="10.284656373805229"><ele>156.5</ele><time>2026-04-25T14:16:03.898Z</time></trkpt><trkpt lat="42.75523503021665" lon="10.284601342648758"><ele>161.0</ele><time>2026-04-25T14:16:04.898Z</time></trkpt><trkpt lat="42.75532474690935" lon="10.284502588089087"><ele>165.5</ele><time>2026-04-25T14:16:06.898Z</time></trkpt><trkpt lat="42.755366221205556" lon="10.28443360520455"><ele>170.0</ele><time>2026-04-25T14:16:07.898Z</time></trkpt><trkpt lat="42.755432118560954" lon="10.284310276071729"><ele>174.5</ele><time>2026-04-25T14:16:09.898Z</time></trkpt><trkpt lat="42.75548608868528" lon="10.28423811650929"><ele>179.0</ele><time>2026-04-25T14:16:11.898Z</time></trkpt><trkpt lat="42.75556322857196" lon="10.284277036932455"><ele>179.0</ele><time>2026-04-25T14:16:14.898Z</time></trkpt><trkpt lat="42.75561700431987" lon="10.284338840158929"><ele>179.0</ele><time>2026-04-25T14:16:15.898Z</time></trkpt><trkpt lat="42.75566624642055" lon="10.28442523837316"><ele>179.0</ele><time>2026-04-25T14:16:16.899Z</time></trkpt><trkpt lat="42.75571235249473" lon="10.284518120717493"><ele>179.0</ele><time>2026-04-25T14:16:17.9Z</time></trkpt><trkpt lat="42.75575609963772" lon="10.284629112270549"><ele>179.0</ele><time>2026-04-25T14:16:18.9Z</time></trkpt><trkpt lat="42.75579214718582" lon="10.28472648180598"><ele>179.0</ele><time>2026-04-25T14:16:19.9Z</time></trkpt><trkpt lat="42.75584326481402" lon="10.28482569149546"><ele>181.0</ele><time>2026-04-25T14:16:20.899Z</time></trkpt><trkpt lat="42.75590112462246" lon="10.284917577393275"><ele>183.0</ele><time>2026-04-25T14:16:21.899Z</time></trkpt><trkpt lat="42.75596580705977" lon="10.285011795697136"><ele>185.0</ele><time>2026-04-25T14:16:22.899Z</time></trkpt><trkpt lat="42.75602671996817" lon="10.28510958659878"><ele>187.0</ele><time>2026-04-25T14:16:23.899Z</time></trkpt><trkpt lat="42.75608018803642" lon="10.285207633353217"><ele>189.0</ele><time>2026-04-25T14:16:24.899Z</time></trkpt><trkpt lat="42.756143220968426" lon="10.285304050927216"><ele>189.0</ele><time>2026-04-25T14:16:25.899Z</time></trkpt><trkpt lat="42.7562153945624" lon="10.285406521410666"><ele>189.0</ele><time>2026-04-25T14:16:26.899Z</time></trkpt><trkpt lat="42.7562952873837" lon="10.2855012369853"><ele>189.0</ele><time>2026-04-25T14:16:27.899Z</time></trkpt><trkpt lat="42.75637254479154" lon="10.285604722395147"><ele>189.0</ele><time>2026-04-25T14:16:28.899Z</time></trkpt><trkpt lat="42.75644844677883" lon="10.28570321128137"><ele>189.0</ele><time>2026-04-25T14:16:29.899Z</time></trkpt><trkpt lat="42.75659214839162" lon="10.285882054974364"><ele>188.6</ele><time>2026-04-25T14:16:31.899Z</time></trkpt><trkpt lat="42.756667376438536" lon="10.285986745984447"><ele>188.2</ele><time>2026-04-25T14:16:32.899Z</time></trkpt><trkpt lat="42.75674010355444" lon="10.286098347799529"><ele>187.79999999999998</ele><time>2026-04-25T14:16:33.899Z</time></trkpt><trkpt lat="42.75679421541482" lon="10.28620659039436"><ele>187.39999999999998</ele><time>2026-04-25T14:16:34.899Z</time></trkpt><trkpt lat="42.756885117067554" lon="10.286315987769424"><ele>187.0</ele><time>2026-04-25T14:16:36.899Z</time></trkpt><trkpt lat="42.75694261667448" lon="10.28635494170814"><ele>187.0</ele><time>2026-04-25T14:16:37.899Z</time></trkpt><trkpt lat="42.757003577612416" lon="10.286384597018472"><ele>187.0</ele><time>2026-04-25T14:16:38.899Z</time></trkpt><trkpt lat="42.75706985503851" lon="10.286406767949966"><ele>187.0</ele><time>2026-04-25T14:16:39.899Z</time></trkpt><trkpt lat="42.757139055341476" lon="10.286420327206924"><ele>187.0</ele><time>2026-04-25T14:16:40.899Z</time></trkpt><trkpt lat="42.75721527008497" lon="10.286433864744073"><ele>187.0</ele><time>2026-04-25T14:16:41.899Z</time></trkpt><trkpt lat="42.757288902850426" lon="10.286433841300195"><ele>187.0</ele><time>2026-04-25T14:16:42.899Z</time></trkpt><trkpt lat="42.75741089806072" lon="10.286416909117468"><ele>187.0</ele><time>2026-04-25T14:16:44.899Z</time></trkpt><trkpt lat="42.75752580432197" lon="10.28637038150753"><ele>187.0</ele><time>2026-04-25T14:16:46.899Z</time></trkpt><trkpt lat="42.75758538405771" lon="10.286338725232243"><ele>187.0</ele><time>2026-04-25T14:16:47.899Z</time></trkpt><trkpt lat="42.75765013300955" lon="10.28631329324656"><ele>187.0</ele><time>2026-04-25T14:16:48.899Z</time></trkpt><trkpt lat="42.75772147893868" lon="10.286285522269482"><ele>187.0</ele><time>2026-04-25T14:16:49.899Z</time></trkpt><trkpt lat="42.757793172579646" lon="10.286256092304695"><ele>187.0</ele><time>2026-04-25T14:16:50.899Z</time></trkpt><trkpt lat="42.757859595995406" lon="10.286207365858314"><ele>186.57142857142856</ele><time>2026-04-25T14:16:51.899Z</time></trkpt><trkpt lat="42.75792080369272" lon="10.286177848832594"><ele>186.14285714285717</ele><time>2026-04-25T14:16:52.899Z</time></trkpt><trkpt lat="42.757977757622584" lon="10.286122364048085"><ele>185.71428571428572</ele><time>2026-04-25T14:16:53.899Z</time></trkpt><trkpt lat="42.758039870610524" lon="10.286057204022821"><ele>185.28571428571428</ele><time>2026-04-25T14:16:54.899Z</time></trkpt><trkpt lat="42.75809639138526" lon="10.28599412543942"><ele>184.85714285714283</ele><time>2026-04-25T14:16:55.899Z</time></trkpt><trkpt lat="42.75814905069454" lon="10.285940891777212"><ele>184.42857142857144</ele><time>2026-04-25T14:16:56.899Z</time></trkpt><trkpt lat="42.758208702959486" lon="10.285888452739986"><ele>184.0</ele><time>2026-04-25T14:16:57.899Z</time></trkpt><trkpt lat="42.7582898736602" lon="10.285859867592233"><ele>184.0</ele><time>2026-04-25T14:16:58.899Z</time></trkpt><trkpt lat="42.75836590200572" lon="10.285815482167145"><ele>184.0</ele><time>2026-04-25T14:16:59.899Z</time></trkpt><trkpt lat="42.75843408299414" lon="10.28579037813732"><ele>184.0</ele><time>2026-04-25T14:17:00.899Z</time></trkpt><trkpt lat="42.758504700104716" lon="10.285779421689389"><ele>184.0</ele><time>2026-04-25T14:17:01.899Z</time></trkpt><trkpt lat="42.75858435322839" lon="10.285717941569354"><ele>184.0</ele><time>2026-04-25T14:17:03.899Z</time></trkpt><trkpt lat="42.758614281923606" lon="10.285620601139245"><ele>184.0</ele><time>2026-04-25T14:17:05.899Z</time></trkpt><trkpt lat="42.75861579059623" lon="10.285472690093176"><ele>187.16666666666669</ele><time>2026-04-25T14:17:07.898Z</time></trkpt><trkpt lat="42.7586284322134" lon="10.285343800436722"><ele>190.33333333333334</ele><time>2026-04-25T14:17:09.898Z</time></trkpt><trkpt lat="42.75871185027584" lon="10.285355715017136"><ele>193.5</ele><time>2026-04-25T14:17:11.898Z</time></trkpt><trkpt lat="42.758771983265966" lon="10.285382074512656"><ele>196.66666666666669</ele><time>2026-04-25T14:17:12.898Z</time></trkpt><trkpt lat="42.75884268376982" lon="10.285404337493386"><ele>199.83333333333334</ele><time>2026-04-25T14:17:13.898Z</time></trkpt><trkpt lat="42.75895442921061" lon="10.285419408918733"><ele>203.0</ele><time>2026-04-25T14:17:15.898Z</time></trkpt><trkpt lat="42.759066513293035" lon="10.285381224342972"><ele>203.00000000000003</ele><time>2026-04-25T14:17:17.898Z</time></trkpt><trkpt lat="42.759137069225524" lon="10.285395743595666"><ele>203.0</ele><time>2026-04-25T14:17:18.898Z</time></trkpt><trkpt lat="42.759207103540454" lon="10.2854072847248"><ele>203.0</ele><time>2026-04-25T14:17:19.898Z</time></trkpt><trkpt lat="42.75927217179749" lon="10.285406678232766"><ele>203.0</ele><time>2026-04-25T14:17:21.898Z</time></trkpt><trkpt lat="42.75925912658733" lon="10.285315270062611"><ele>203.00000000000003</ele><time>2026-04-25T14:17:24.898Z</time></trkpt><trkpt lat="42.759168654687386" lon="10.285247770142211"><ele>203.0</ele><time>2026-04-25T14:17:26.898Z</time></trkpt><trkpt lat="42.759097977505164" lon="10.285184206863853"><ele>203.0</ele><time>2026-04-25T14:17:28.898Z</time></trkpt><trkpt lat="42.75902768739889" lon="10.285089383070835"><ele>203.0</ele><time>2026-04-25T14:17:30.898Z</time></trkpt><trkpt lat="42.75895257914825" lon="10.284969881884797"><ele>203.0</ele><time>2026-04-25T14:17:32.898Z</time></trkpt><trkpt lat="42.75887784213035" lon="10.28487204625302"><ele>203.0</ele><time>2026-04-25T14:17:34.898Z</time></trkpt><trkpt lat="42.758789767848505" lon="10.284780862288963"><ele>203.0</ele><time>2026-04-25T14:17:36.898Z</time></trkpt><trkpt lat="42.7587277124849" lon="10.284721232849716"><ele>204.28571428571428</ele><time>2026-04-25T14:17:37.898Z</time></trkpt><trkpt lat="42.75866985339578" lon="10.284654269403996"><ele>205.57142857142856</ele><time>2026-04-25T14:17:38.898Z</time></trkpt><trkpt lat="42.758611008073224" lon="10.284598181108716"><ele>206.85714285714286</ele><time>2026-04-25T14:17:39.898Z</time></trkpt><trkpt lat="42.75855394960268" lon="10.284542649340354"><ele>208.14285714285714</ele><time>2026-04-25T14:17:40.898Z</time></trkpt><trkpt lat="42.758490112349556" lon="10.284487470924127"><ele>209.42857142857142</ele><time>2026-04-25T14:17:41.898Z</time></trkpt><trkpt lat="42.75843442877911" lon="10.28441641650033"><ele>210.71428571428572</ele><time>2026-04-25T14:17:42.898Z</time></trkpt><trkpt lat="42.75839436019538" lon="10.284348457075524"><ele>212.0</ele><time>2026-04-25T14:17:43.898Z</time></trkpt><trkpt lat="42.75835221279398" lon="10.284270353866294"><ele>212.66666666666669</ele><time>2026-04-25T14:17:44.898Z</time></trkpt><trkpt lat="42.75830175815007" lon="10.284168363062124"><ele>213.33333333333334</ele><time>2026-04-25T14:17:45.898Z</time></trkpt><trkpt lat="42.758248745679595" lon="10.284081338868106"><ele>214.0</ele><time>2026-04-25T14:17:46.898Z</time></trkpt><trkpt lat="42.75817406435119" lon="10.283950016261263"><ele>214.66666666666669</ele><time>2026-04-25T14:17:48.898Z</time></trkpt><trkpt lat="42.75811989249308" lon="10.283903018609028"><ele>215.33333333333334</ele><time>2026-04-25T14:17:49.898Z</time></trkpt><trkpt lat="42.75803490276757" lon="10.283901304802153"><ele>216.0</ele><time>2026-04-25T14:17:51.898Z</time></trkpt><trkpt lat="42.75798359163393" lon="10.284025645979852"><ele>216.0</ele><time>2026-04-25T14:17:53.898Z</time></trkpt><trkpt lat="42.757927516368994" lon="10.284117935586679"><ele>216.0</ele><time>2026-04-25T14:17:54.898Z</time></trkpt><trkpt lat="42.757884378567496" lon="10.284217933903468"><ele>216.0</ele><time>2026-04-25T14:17:55.897Z</time></trkpt><trkpt lat="42.75783811419023" lon="10.284285234878872"><ele>216.0</ele><time>2026-04-25T14:17:56.897Z</time></trkpt><trkpt lat="42.75777492714778" lon="10.284323612334612"><ele>216.0</ele><time>2026-04-25T14:17:57.897Z</time></trkpt><trkpt lat="42.757708230542455" lon="10.284367351141865"><ele>216.0</ele><time>2026-04-25T14:17:58.897Z</time></trkpt><trkpt lat="42.75764018779364" lon="10.2844087415384"><ele>217.66666666666666</ele><time>2026-04-25T14:17:59.897Z</time></trkpt><trkpt lat="42.75757089425401" lon="10.28444112538556"><ele>219.33333333333331</ele><time>2026-04-25T14:18:00.897Z</time></trkpt><trkpt lat="42.75750387662669" lon="10.284475491315916"><ele>221.0</ele><time>2026-04-25T14:18:01.897Z</time></trkpt><trkpt lat="42.75743000727388" lon="10.284492367151513"><ele>222.66666666666666</ele><time>2026-04-25T14:18:02.897Z</time></trkpt><trkpt lat="42.75732567057881" lon="10.284456726504942"><ele>224.33333333333331</ele><time>2026-04-25T14:18:04.897Z</time></trkpt><trkpt lat="42.7572729083172" lon="10.284404947419922"><ele>226.0</ele><time>2026-04-25T14:18:05.897Z</time></trkpt><trkpt lat="42.7572134825712" lon="10.284326595236545"><ele>225.99999999999997</ele><time>2026-04-25T14:18:06.897Z</time></trkpt><trkpt lat="42.75715363160994" lon="10.284246135361975"><ele>226.0</ele><time>2026-04-25T14:18:07.897Z</time></trkpt><trkpt lat="42.75708990181194" lon="10.284197007879026"><ele>226.0</ele><time>2026-04-25T14:18:08.897Z</time></trkpt><trkpt lat="42.757028016932196" lon="10.284147919249847"><ele>226.0</ele><time>2026-04-25T14:18:09.897Z</time></trkpt><trkpt lat="42.75697286734506" lon="10.284088249442304"><ele>225.99999999999997</ele><time>2026-04-25T14:18:10.897Z</time></trkpt><trkpt lat="42.75691252852771" lon="10.284010845564428"><ele>226.0</ele><time>2026-04-25T14:18:11.897Z</time></trkpt><trkpt lat="42.75686392021921" lon="10.28390165306968"><ele>228.16666666666666</ele><time>2026-04-25T14:18:12.897Z</time></trkpt><trkpt lat="42.7568184733588" lon="10.283804861922436"><ele>230.33333333333331</ele><time>2026-04-25T14:18:13.897Z</time></trkpt><trkpt lat="42.75677149088913" lon="10.283717677495599"><ele>232.5</ele><time>2026-04-25T14:18:14.897Z</time></trkpt><trkpt lat="42.7567271856195" lon="10.28364391277319"><ele>234.66666666666669</ele><time>2026-04-25T14:18:15.897Z</time></trkpt><trkpt lat="42.75667559364757" lon="10.283575379795021"><ele>236.83333333333334</ele><time>2026-04-25T14:18:16.897Z</time></trkpt><trkpt lat="42.75662724332613" lon="10.28350846905753"><ele>239.0</ele><time>2026-04-25T14:18:17.897Z</time></trkpt><trkpt lat="42.756555978874815" lon="10.283439409958413"><ele>239.00000000000003</ele><time>2026-04-25T14:18:18.897Z</time></trkpt><trkpt lat="42.756481009161185" lon="10.283357453427236"><ele>239.0</ele><time>2026-04-25T14:18:19.897Z</time></trkpt><trkpt lat="42.75640977187631" lon="10.283276886209991"><ele>239.0</ele><time>2026-04-25T14:18:20.897Z</time></trkpt><trkpt lat="42.756357580436365" lon="10.283203250457388"><ele>239.0</ele><time>2026-04-25T14:18:21.897Z</time></trkpt><trkpt lat="42.75631644269238" lon="10.283127383108788"><ele>239.00000000000003</ele><time>2026-04-25T14:18:22.899Z</time></trkpt><trkpt lat="42.756299190235495" lon="10.283042045393017"><ele>239.0</ele><time>2026-04-25T14:18:23.899Z</time></trkpt><trkpt lat="42.756309402503284" lon="10.282950457959862"><ele>241.16666666666669</ele><time>2026-04-25T14:18:24.899Z</time></trkpt><trkpt lat="42.75631315038303" lon="10.28284795981433"><ele>243.33333333333334</ele><time>2026-04-25T14:18:25.899Z</time></trkpt><trkpt lat="42.756308466471495" lon="10.282736346267246"><ele>245.5</ele><time>2026-04-25T14:18:26.899Z</time></trkpt><trkpt lat="42.7562818508087" lon="10.282634738744331"><ele>247.66666666666669</ele><time>2026-04-25T14:18:27.899Z</time></trkpt><trkpt lat="42.7562535693432" lon="10.28254077668757"><ele>249.83333333333334</ele><time>2026-04-25T14:18:28.899Z</time></trkpt><trkpt lat="42.75623620115704" lon="10.282430569615903"><ele>252.0</ele><time>2026-04-25T14:18:29.898Z</time></trkpt><trkpt lat="42.75620637710335" lon="10.282334148942821"><ele>252.66666666666666</ele><time>2026-04-25T14:18:30.898Z</time></trkpt><trkpt lat="42.756170036708255" lon="10.282239303140537"><ele>253.33333333333331</ele><time>2026-04-25T14:18:31.899Z</time></trkpt><trkpt lat="42.7561210116393" lon="10.282164359101458"><ele>254.0</ele><time>2026-04-25T14:18:32.899Z</time></trkpt><trkpt lat="42.75606198770706" lon="10.282119740354586"><ele>254.66666666666666</ele><time>2026-04-25T14:18:33.899Z</time></trkpt><trkpt lat="42.756008082751855" lon="10.282072383389197"><ele>255.33333333333331</ele><time>2026-04-25T14:18:34.899Z</time></trkpt><trkpt lat="42.75594338523928" lon="10.282018607771777"><ele>256.0</ele><time>2026-04-25T14:18:35.899Z</time></trkpt><trkpt lat="42.755863971830664" lon="10.281952245124518"><ele>255.99999999999997</ele><time>2026-04-25T14:18:36.899Z</time></trkpt><trkpt lat="42.75578054542808" lon="10.281888813040778"><ele>256.0</ele><time>2026-04-25T14:18:37.899Z</time></trkpt><trkpt lat="42.755692163746026" lon="10.281838553747063"><ele>256.0</ele><time>2026-04-25T14:18:38.899Z</time></trkpt><trkpt lat="42.75561610024225" lon="10.281799337564669"><ele>256.0</ele><time>2026-04-25T14:18:39.899Z</time></trkpt><trkpt lat="42.75554441352899" lon="10.28172521368114"><ele>255.99999999999997</ele><time>2026-04-25T14:18:40.899Z</time></trkpt><trkpt lat="42.7554763959048" lon="10.281657931529063"><ele>256.0</ele><time>2026-04-25T14:18:41.899Z</time></trkpt><trkpt lat="42.75542520165355" lon="10.281595936794838"><ele>256.0</ele><time>2026-04-25T14:18:42.899Z</time></trkpt><trkpt lat="42.75535838902922" lon="10.281558117818127"><ele>256.0</ele><time>2026-04-25T14:18:43.899Z</time></trkpt><trkpt lat="42.75523029516585" lon="10.28151454528619"><ele>256.0</ele><time>2026-04-25T14:18:45.898Z</time></trkpt><trkpt lat="42.75515624626222" lon="10.281491366341925"><ele>256.0</ele><time>2026-04-25T14:18:46.898Z</time></trkpt><trkpt lat="42.75508449456913" lon="10.281550497322897"><ele>256.0</ele><time>2026-04-25T14:18:48.898Z</time></trkpt><trkpt lat="42.755064631369514" lon="10.281683659826436"><ele>255.8</ele><time>2026-04-25T14:18:50.898Z</time></trkpt><trkpt lat="42.75504438524896" lon="10.281816516947124"><ele>255.60000000000002</ele><time>2026-04-25T14:18:51.898Z</time></trkpt><trkpt lat="42.75500608849095" lon="10.281961595139128"><ele>255.4</ele><time>2026-04-25T14:18:52.898Z</time></trkpt><trkpt lat="42.75496673323844" lon="10.282096904992375"><ele>255.2</ele><time>2026-04-25T14:18:53.898Z</time></trkpt><trkpt lat="42.75492672937065" lon="10.282224996124441"><ele>255.0</ele><time>2026-04-25T14:18:54.898Z</time></trkpt><trkpt lat="42.754892297165185" lon="10.282340969150388"><ele>252.16666666666666</ele><time>2026-04-25T14:18:55.898Z</time></trkpt><trkpt lat="42.75485190794174" lon="10.28245426348057"><ele>249.33333333333331</ele><time>2026-04-25T14:18:56.898Z</time></trkpt><trkpt lat="42.75480735685487" lon="10.282543842256851"><ele>246.5</ele><time>2026-04-25T14:18:57.898Z</time></trkpt><trkpt lat="42.75477370836449" lon="10.282621557379729"><ele>243.66666666666666</ele><time>2026-04-25T14:18:58.898Z</time></trkpt><trkpt lat="42.754711700270946" lon="10.282673853306846"><ele>240.83333333333331</ele><time>2026-04-25T14:18:59.898Z</time></trkpt><trkpt lat="42.754639838555484" lon="10.28270601944059"><ele>238.0</ele><time>2026-04-25T14:19:00.898Z</time></trkpt><trkpt lat="42.75456560221096" lon="10.282725823892209"><ele>237.99999999999997</ele><time>2026-04-25T14:19:01.898Z</time></trkpt><trkpt lat="42.75450142689514" lon="10.28272843299496"><ele>238.0</ele><time>2026-04-25T14:19:02.898Z</time></trkpt><trkpt lat="42.75442429276057" lon="10.28267737819677"><ele>238.0</ele><time>2026-04-25T14:19:03.898Z</time></trkpt><trkpt lat="42.75437120523332" lon="10.282588937905963"><ele>238.0</ele><time>2026-04-25T14:19:04.898Z</time></trkpt><trkpt lat="42.754329554282386" lon="10.282491088689534"><ele>237.99999999999997</ele><time>2026-04-25T14:19:05.898Z</time></trkpt><trkpt lat="42.754286283907476" lon="10.282396207797781"><ele>238.0</ele><time>2026-04-25T14:19:06.898Z</time></trkpt><trkpt lat="42.75422593224643" lon="10.282293001663655"><ele>241.66666666666666</ele><time>2026-04-25T14:19:07.898Z</time></trkpt><trkpt lat="42.75417344269737" lon="10.282186422296846"><ele>245.33333333333331</ele><time>2026-04-25T14:19:08.898Z</time></trkpt><trkpt lat="42.75412714875742" lon="10.282089809263269"><ele>249.0</ele><time>2026-04-25T14:19:09.898Z</time></trkpt><trkpt lat="42.75406326338341" lon="10.28199259335693"><ele>252.66666666666669</ele><time>2026-04-25T14:19:10.898Z</time></trkpt><trkpt lat="42.753989363442386" lon="10.281910212520925"><ele>256.33333333333337</ele><time>2026-04-25T14:19:11.898Z</time></trkpt><trkpt lat="42.753932038237025" lon="10.281862830392257"><ele>260.0</ele><time>2026-04-25T14:19:12.898Z</time></trkpt><trkpt lat="42.75380001661112" lon="10.281827249293395"><ele>260.0</ele><time>2026-04-25T14:19:14.898Z</time></trkpt><trkpt lat="42.75371592450154" lon="10.281800289075441"><ele>260.0</ele><time>2026-04-25T14:19:15.898Z</time></trkpt><trkpt lat="42.753619442892685" lon="10.28174120037327"><ele>260.0</ele><time>2026-04-25T14:19:16.898Z</time></trkpt><trkpt lat="42.75352379845401" lon="10.281665010027245"><ele>260.0</ele><time>2026-04-25T14:19:17.898Z</time></trkpt><trkpt lat="42.75345358138751" lon="10.281567864587158"><ele>260.0</ele><time>2026-04-25T14:19:18.898Z</time></trkpt><trkpt lat="42.75340165160585" lon="10.281476793537172"><ele>259.83333333333337</ele><time>2026-04-25T14:19:19.898Z</time></trkpt><trkpt lat="42.75335461952669" lon="10.281390903285205"><ele>259.6666666666667</ele><time>2026-04-25T14:19:20.898Z</time></trkpt><trkpt lat="42.753315287864986" lon="10.281292263912478"><ele>259.5</ele><time>2026-04-25T14:19:21.898Z</time></trkpt><trkpt lat="42.7532868485586" lon="10.28117559372325"><ele>259.3333333333333</ele><time>2026-04-25T14:19:22.898Z</time></trkpt><trkpt lat="42.75326585523586" lon="10.281047209633282"><ele>259.16666666666663</ele><time>2026-04-25T14:19:23.898Z</time></trkpt><trkpt lat="42.7532514425965" lon="10.28093482935495"><ele>259.0</ele><time>2026-04-25T14:19:24.898Z</time></trkpt><trkpt lat="42.7532426742922" lon="10.280800848360661"><ele>259.0</ele><time>2026-04-25T14:19:25.898Z</time></trkpt><trkpt lat="42.75324034471699" lon="10.280669250423893"><ele>259.0</ele><time>2026-04-25T14:19:26.898Z</time></trkpt><trkpt lat="42.75324140159535" lon="10.280542162264704"><ele>259.0</ele><time>2026-04-25T14:19:27.898Z</time></trkpt><trkpt lat="42.75326405369676" lon="10.280446867188282"><ele>259.0</ele><time>2026-04-25T14:19:28.898Z</time></trkpt><trkpt lat="42.75327207807046" lon="10.280336411034195"><ele>259.0</ele><time>2026-04-25T14:19:29.898Z</time></trkpt><trkpt lat="42.75327304948078" lon="10.280223479649447"><ele>259.0</ele><time>2026-04-25T14:19:30.898Z</time></trkpt><trkpt lat="42.7532821477824" lon="10.28011842288261"><ele>259.8333333333333</ele><time>2026-04-25T14:19:31.898Z</time></trkpt><trkpt lat="42.75329453192795" lon="10.280000374860641"><ele>260.66666666666663</ele><time>2026-04-25T14:19:32.898Z</time></trkpt><trkpt lat="42.75330464817105" lon="10.279879348295292"><ele>261.5</ele><time>2026-04-25T14:19:33.898Z</time></trkpt><trkpt lat="42.753313462114356" lon="10.279763424270948"><ele>262.3333333333333</ele><time>2026-04-25T14:19:34.897Z</time></trkpt><trkpt lat="42.75332059144236" lon="10.279642907453379"><ele>263.1666666666667</ele><time>2026-04-25T14:19:35.897Z</time></trkpt><trkpt lat="42.75332523392601" lon="10.27954246951327"><ele>264.0</ele><time>2026-04-25T14:19:36.897Z</time></trkpt><trkpt lat="42.75333721852108" lon="10.279454332892069"><ele>265.5</ele><time>2026-04-25T14:19:37.897Z</time></trkpt><trkpt lat="42.75330507557179" lon="10.27932262809943"><ele>267.0</ele><time>2026-04-25T14:19:39.897Z</time></trkpt><trkpt lat="42.75318395317915" lon="10.279270350529547"><ele>268.5</ele><time>2026-04-25T14:19:41.897Z</time></trkpt><trkpt lat="42.753083909675865" lon="10.279201758537367"><ele>270.0</ele><time>2026-04-25T14:19:42.897Z</time></trkpt><trkpt lat="42.75298045065424" lon="10.27910552270127"><ele>270.0</ele><time>2026-04-25T14:19:43.897Z</time></trkpt><trkpt lat="42.75289452655734" lon="10.279011976248789"><ele>270.0</ele><time>2026-04-25T14:19:44.897Z</time></trkpt><trkpt lat="42.75282828118237" lon="10.278915789564238"><ele>270.0</ele><time>2026-04-25T14:19:45.897Z</time></trkpt><trkpt lat="42.75277799248699" lon="10.278815503459452"><ele>270.0</ele><time>2026-04-25T14:19:46.897Z</time></trkpt><trkpt lat="42.75272203280962" lon="10.278740715443332"><ele>270.0</ele><time>2026-04-25T14:19:47.897Z</time></trkpt><trkpt lat="42.75266369586199" lon="10.278680673384995"><ele>270.0</ele><time>2026-04-25T14:19:48.897Z</time></trkpt><trkpt lat="42.752604383139804" lon="10.278633165241885"><ele>272.5</ele><time>2026-04-25T14:19:49.897Z</time></trkpt><trkpt lat="42.75248900132662" lon="10.278569064267861"><ele>275.0</ele><time>2026-04-25T14:19:51.897Z</time></trkpt><trkpt lat="42.752388170753974" lon="10.278601854180804"><ele>277.5</ele><time>2026-04-25T14:19:53.897Z</time></trkpt><trkpt lat="42.7523792287199" lon="10.278756624987556"><ele>280.0</ele><time>2026-04-25T14:19:55.897Z</time></trkpt><trkpt lat="42.75237445450379" lon="10.27891530160952"><ele>276.4</ele><time>2026-04-25T14:19:56.897Z</time></trkpt><trkpt lat="42.75235346738929" lon="10.279051530079833"><ele>272.8</ele><time>2026-04-25T14:19:57.897Z</time></trkpt><trkpt lat="42.75232315259618" lon="10.279193757561487"><ele>269.2</ele><time>2026-04-25T14:19:58.897Z</time></trkpt><trkpt lat="42.7522992607404" lon="10.279320857314948"><ele>265.6</ele><time>2026-04-25T14:19:59.897Z</time></trkpt><trkpt lat="42.752246872589325" lon="10.279440108617528"><ele>262.0</ele><time>2026-04-25T14:20:00.897Z</time></trkpt><trkpt lat="42.75218496337647" lon="10.27956170995589"><ele>262.0</ele><time>2026-04-25T14:20:01.897Z</time></trkpt><trkpt lat="42.75212025064261" lon="10.279692329821684"><ele>262.0</ele><time>2026-04-25T14:20:02.897Z</time></trkpt><trkpt lat="42.752062575137195" lon="10.279801673372802"><ele>262.0</ele><time>2026-04-25T14:20:03.897Z</time></trkpt><trkpt lat="42.752009727508394" lon="10.2798815281251"><ele>262.0</ele><time>2026-04-25T14:20:04.897Z</time></trkpt><trkpt lat="42.75195208770896" lon="10.279943778588043"><ele>262.0</ele><time>2026-04-25T14:20:05.897Z</time></trkpt><trkpt lat="42.75188341354996" lon="10.27999159112915"><ele>262.0</ele><time>2026-04-25T14:20:06.897Z</time></trkpt><trkpt lat="42.75181234780327" lon="10.280018295227979"><ele>262.4</ele><time>2026-04-25T14:20:07.897Z</time></trkpt><trkpt lat="42.75174064356099" lon="10.280049046793183"><ele>262.79999999999995</ele><time>2026-04-25T14:20:08.897Z</time></trkpt><trkpt lat="42.75167012274112" lon="10.280206998747012"><ele>263.2</ele><time>2026-04-25T14:20:10.897Z</time></trkpt><trkpt lat="42.751587268091576" lon="10.28033862370274"><ele>263.59999999999997</ele><time>2026-04-25T14:20:12.897Z</time></trkpt><trkpt lat="42.751506300325495" lon="10.280381697344543"><ele>264.0</ele><time>2026-04-25T14:20:13.897Z</time></trkpt><trkpt lat="42.75142255433017" lon="10.280418018570744"><ele>264.0</ele><time>2026-04-25T14:20:14.897Z</time></trkpt><trkpt lat="42.751330171253585" lon="10.280471031894965"><ele>264.0</ele><time>2026-04-25T14:20:15.897Z</time></trkpt><trkpt lat="42.751245273410845" lon="10.280538316583172"><ele>264.0</ele><time>2026-04-25T14:20:16.897Z</time></trkpt><trkpt lat="42.75115578434783" lon="10.280623869134264"><ele>264.0</ele><time>2026-04-25T14:20:17.897Z</time></trkpt><trkpt lat="42.7510565658452" lon="10.280697524382086"><ele>264.0</ele><time>2026-04-25T14:20:18.897Z</time></trkpt><trkpt lat="42.75095453518016" lon="10.280764152532962"><ele>262.0</ele><time>2026-04-25T14:20:19.897Z</time></trkpt><trkpt lat="42.75086162327371" lon="10.280812660451375"><ele>260.0</ele><time>2026-04-25T14:20:20.897Z</time></trkpt><trkpt lat="42.75076884361815" lon="10.280851983062982"><ele>258.0</ele><time>2026-04-25T14:20:21.897Z</time></trkpt><trkpt lat="42.75065549203805" lon="10.280890061654526"><ele>256.0</ele><time>2026-04-25T14:20:22.897Z</time></trkpt><trkpt lat="42.750528002916376" lon="10.28092921006276"><ele>254.0</ele><time>2026-04-25T14:20:23.896Z</time></trkpt><trkpt lat="42.750405414904954" lon="10.280965732292941"><ele>254.0</ele><time>2026-04-25T14:20:24.896Z</time></trkpt><trkpt lat="42.750291660860135" lon="10.2809995394307"><ele>253.99999999999997</ele><time>2026-04-25T14:20:25.896Z</time></trkpt><trkpt lat="42.75018194715982" lon="10.281027426803456"><ele>253.99999999999997</ele><time>2026-04-25T14:20:26.896Z</time></trkpt><trkpt lat="42.750084954782366" lon="10.281048753955503"><ele>254.0</ele><time>2026-04-25T14:20:27.896Z</time></trkpt><trkpt lat="42.75000275166485" lon="10.281053906968753"><ele>254.0</ele><time>2026-04-25T14:20:28.899Z</time></trkpt><trkpt lat="42.749927686905465" lon="10.281044300544742"><ele>255.66666666666669</ele><time>2026-04-25T14:20:29.898Z</time></trkpt><trkpt lat="42.7498377243982" lon="10.280998101325519"><ele>257.33333333333337</ele><time>2026-04-25T14:20:30.898Z</time></trkpt><trkpt lat="42.74974843548451" lon="10.28095107823382"><ele>259.0</ele><time>2026-04-25T14:20:31.898Z</time></trkpt><trkpt lat="42.749672901152586" lon="10.280916003489324"><ele>260.6666666666667</ele><time>2026-04-25T14:20:32.898Z</time></trkpt><trkpt lat="42.749611365066805" lon="10.280895654837735"><ele>262.3333333333333</ele><time>2026-04-25T14:20:33.898Z</time></trkpt><trkpt lat="42.74954679315252" lon="10.280964320983633"><ele>264.0</ele><time>2026-04-25T14:20:35.898Z</time></trkpt><trkpt lat="42.74957112344675" lon="10.281064845944258"><ele>264.0</ele><time>2026-04-25T14:20:37.898Z</time></trkpt><trkpt lat="42.749555999854394" lon="10.281258612940057"><ele>264.0</ele><time>2026-04-25T14:20:39.899Z</time></trkpt><trkpt lat="42.74952544476495" lon="10.281380532258758"><ele>264.0</ele><time>2026-04-25T14:20:40.899Z</time></trkpt><trkpt lat="42.74947415345592" lon="10.281481712887425"><ele>264.0</ele><time>2026-04-25T14:20:41.898Z</time></trkpt><trkpt lat="42.74940790007294" lon="10.281543395859536"><ele>264.0</ele><time>2026-04-25T14:20:42.898Z</time></trkpt><trkpt lat="42.74934608112062" lon="10.2815738679683"><ele>262.8</ele><time>2026-04-25T14:20:43.898Z</time></trkpt><trkpt lat="42.74928194857632" lon="10.281584748292179"><ele>261.59999999999997</ele><time>2026-04-25T14:20:44.898Z</time></trkpt><trkpt lat="42.74919779934203" lon="10.281592208039354"><ele>260.4</ele><time>2026-04-25T14:20:45.898Z</time></trkpt><trkpt lat="42.74909478338351" lon="10.281580463801276"><ele>259.2</ele><time>2026-04-25T14:20:46.898Z</time></trkpt><trkpt lat="42.74896017286246" lon="10.281565736859655"><ele>258.0</ele><time>2026-04-25T14:20:47.898Z</time></trkpt><trkpt lat="42.74883921742961" lon="10.281550256677312"><ele>258.0</ele><time>2026-04-25T14:20:48.898Z</time></trkpt><trkpt lat="42.74873677611027" lon="10.281540368930115"><ele>258.0</ele><time>2026-04-25T14:20:49.898Z</time></trkpt><trkpt lat="42.74863853577635" lon="10.281509016198411"><ele>258.0</ele><time>2026-04-25T14:20:50.898Z</time></trkpt><trkpt lat="42.74853134738387" lon="10.281482468696217"><ele>258.0</ele><time>2026-04-25T14:20:51.898Z</time></trkpt><trkpt lat="42.74841835799006" lon="10.281467553032511"><ele>258.0</ele><time>2026-04-25T14:20:52.898Z</time></trkpt><trkpt lat="42.748302066940305" lon="10.281452641017681"><ele>260.0</ele><time>2026-04-25T14:20:53.898Z</time></trkpt><trkpt lat="42.74819372263363" lon="10.281461758727408"><ele>262.0</ele><time>2026-04-25T14:20:54.898Z</time></trkpt><trkpt lat="42.74811285741305" lon="10.281455254824674"><ele>264.0</ele><time>2026-04-25T14:20:55.898Z</time></trkpt><trkpt lat="42.748090854599646" lon="10.281364821554183"><ele>266.0</ele><time>2026-04-25T14:20:58.898Z</time></trkpt><trkpt lat="42.74819947282891" lon="10.281332980895968"><ele>268.0</ele><time>2026-04-25T14:21:00.898Z</time></trkpt><trkpt lat="42.74830260327826" lon="10.281335658451553"><ele>269.8</ele><time>2026-04-25T14:21:01.898Z</time></trkpt><trkpt lat="42.748407945322676" lon="10.281318419205022"><ele>271.6</ele><time>2026-04-25T14:21:02.898Z</time></trkpt><trkpt lat="42.74848754072222" lon="10.281290615649297"><ele>273.4</ele><time>2026-04-25T14:21:03.898Z</time></trkpt><trkpt lat="42.74858607636663" lon="10.281233469580823"><ele>275.2</ele><time>2026-04-25T14:21:04.898Z</time></trkpt><trkpt lat="42.74870953674415" lon="10.281168936118954"><ele>277.0</ele><time>2026-04-25T14:21:05.898Z</time></trkpt><trkpt lat="42.748818939051766" lon="10.281117132030266"><ele>277.0</ele><time>2026-04-25T14:21:06.898Z</time></trkpt><trkpt lat="42.74888356863559" lon="10.28105165864054"><ele>277.0</ele><time>2026-04-25T14:21:07.898Z</time></trkpt><trkpt lat="42.748929437786884" lon="10.28096331810825"><ele>277.0</ele><time>2026-04-25T14:21:08.898Z</time></trkpt><trkpt lat="42.74896081552006" lon="10.280857113542053"><ele>277.0</ele><time>2026-04-25T14:21:09.898Z</time></trkpt><trkpt lat="42.74898678681698" lon="10.280725618994262"><ele>277.0</ele><time>2026-04-25T14:21:10.898Z</time></trkpt><trkpt lat="42.74902220959005" lon="10.280600049707784"><ele>277.0</ele><time>2026-04-25T14:21:11.898Z</time></trkpt><trkpt lat="42.749064746044176" lon="10.280481099595274"><ele>279.0</ele><time>2026-04-25T14:21:12.898Z</time></trkpt><trkpt lat="42.74912100602057" lon="10.280375457544093"><ele>281.0</ele><time>2026-04-25T14:21:13.898Z</time></trkpt><trkpt lat="42.749178199132295" lon="10.280271136546107"><ele>283.0</ele><time>2026-04-25T14:21:14.898Z</time></trkpt><trkpt lat="42.749243981837836" lon="10.280204342031066"><ele>285.0</ele><time>2026-04-25T14:21:15.898Z</time></trkpt><trkpt lat="42.74932174307346" lon="10.28016490288497"><ele>287.0</ele><time>2026-04-25T14:21:16.898Z</time></trkpt><trkpt lat="42.749432867460264" lon="10.28016186655893"><ele>287.0</ele><time>2026-04-25T14:21:17.898Z</time></trkpt><trkpt lat="42.74957738241197" lon="10.280165858882315"><ele>287.0</ele><time>2026-04-25T14:21:18.898Z</time></trkpt><trkpt lat="42.74970746527837" lon="10.280151704720906"><ele>287.0</ele><time>2026-04-25T14:21:19.898Z</time></trkpt><trkpt lat="42.74981363859748" lon="10.280137969056554"><ele>287.0</ele><time>2026-04-25T14:21:20.898Z</time></trkpt><trkpt lat="42.74991417352144" lon="10.280122857198243"><ele>287.0</ele><time>2026-04-25T14:21:21.897Z</time></trkpt><trkpt lat="42.75000828105709" lon="10.280093887299701"><ele>287.0</ele><time>2026-04-25T14:21:22.897Z</time></trkpt><trkpt lat="42.75009815315598" lon="10.280053874779727"><ele>287.0</ele><time>2026-04-25T14:21:23.897Z</time></trkpt><trkpt lat="42.75017785179244" lon="10.280010196811684"><ele>287.0</ele><time>2026-04-25T14:21:24.897Z</time></trkpt><trkpt lat="42.75025542553053" lon="10.27993871071387"><ele>287.0</ele><time>2026-04-25T14:21:25.897Z</time></trkpt><trkpt lat="42.7503177848366" lon="10.279873609097274"><ele>287.0</ele><time>2026-04-25T14:21:26.897Z</time></trkpt><trkpt lat="42.75038516701462" lon="10.279855698222061"><ele>288.1666666666667</ele><time>2026-04-25T14:21:27.897Z</time></trkpt><trkpt lat="42.75047622970188" lon="10.279872515211686"><ele>289.33333333333337</ele><time>2026-04-25T14:21:28.897Z</time></trkpt><trkpt lat="42.750569345047325" lon="10.279892429324319"><ele>290.5</ele><time>2026-04-25T14:21:29.897Z</time></trkpt><trkpt lat="42.750657304365426" lon="10.279885911356322"><ele>291.6666666666667</ele><time>2026-04-25T14:21:30.897Z</time></trkpt><trkpt lat="42.75073105854095" lon="10.279852170649054"><ele>292.8333333333333</ele><time>2026-04-25T14:21:31.897Z</time></trkpt><trkpt lat="42.750794153837006" lon="10.279779923419765"><ele>294.0</ele><time>2026-04-25T14:21:32.897Z</time></trkpt><trkpt lat="42.7508416568836" lon="10.279689815547965"><ele>294.0</ele><time>2026-04-25T14:21:33.897Z</time></trkpt><trkpt lat="42.750866799581544" lon="10.279571241038356"><ele>294.0</ele><time>2026-04-25T14:21:34.897Z</time></trkpt><trkpt lat="42.75088950057831" lon="10.27941307379747"><ele>294.0</ele><time>2026-04-25T14:21:35.897Z</time></trkpt><trkpt lat="42.750912352573444" lon="10.279281525056003"><ele>294.0</ele><time>2026-04-25T14:21:36.897Z</time></trkpt><trkpt lat="42.750968657852376" lon="10.279140107669999"><ele>294.0</ele><time>2026-04-25T14:21:37.897Z</time></trkpt><trkpt lat="42.75101043967742" lon="10.279000960882469"><ele>295.0</ele><time>2026-04-25T14:21:38.897Z</time></trkpt><trkpt lat="42.7510170929856" lon="10.278860808230947"><ele>296.0</ele><time>2026-04-25T14:21:39.897Z</time></trkpt><trkpt lat="42.75102575176493" lon="10.278710820779684"><ele>297.0</ele><time>2026-04-25T14:21:40.897Z</time></trkpt><trkpt lat="42.75102803372223" lon="10.278591017352367"><ele>298.0</ele><time>2026-04-25T14:21:41.897Z</time></trkpt><trkpt lat="42.75101182019947" lon="10.278490997792453"><ele>299.0</ele><time>2026-04-25T14:21:42.897Z</time></trkpt><trkpt lat="42.750978403009626" lon="10.278356422841023"><ele>299.0</ele><time>2026-04-25T14:21:44.897Z</time></trkpt><trkpt lat="42.75103299393532" lon="10.278305967941916"><ele>299.0</ele><time>2026-04-25T14:22:53.898Z</time></trkpt><trkpt lat="42.75100431938023" lon="10.278177794420593"><ele>299.0</ele><time>2026-04-25T14:22:57.898Z</time></trkpt><trkpt lat="42.75098933018936" lon="10.278071584272391"><ele>299.0</ele><time>2026-04-25T14:22:59.898Z</time></trkpt><trkpt lat="42.75101371002376" lon="10.277931507109479"><ele>299.0</ele><time>2026-04-25T14:23:01.898Z</time></trkpt><trkpt lat="42.75103763160295" lon="10.277847615413167"><ele>299.0</ele><time>2026-04-25T14:23:02.898Z</time></trkpt><trkpt lat="42.75105764174616" lon="10.277741966310682"><ele>298.6666666666667</ele><time>2026-04-25T14:23:03.898Z</time></trkpt><trkpt lat="42.75108273728247" lon="10.277627643965156"><ele>298.33333333333337</ele><time>2026-04-25T14:23:04.898Z</time></trkpt><trkpt lat="42.75111729664611" lon="10.277517325961492"><ele>298.0</ele><time>2026-04-25T14:23:05.898Z</time></trkpt><trkpt lat="42.751147202506175" lon="10.277425984733995"><ele>297.6666666666667</ele><time>2026-04-25T14:23:06.898Z</time></trkpt><trkpt lat="42.75116991587455" lon="10.2773267534633"><ele>297.3333333333333</ele><time>2026-04-25T14:23:07.898Z</time></trkpt><trkpt lat="42.75119559155987" lon="10.27721833294527"><ele>297.0</ele><time>2026-04-25T14:23:08.898Z</time></trkpt><trkpt lat="42.75123083825663" lon="10.277102990314889"><ele>296.4</ele><time>2026-04-25T14:23:09.898Z</time></trkpt><trkpt lat="42.751263438699745" lon="10.276986769675755"><ele>295.79999999999995</ele><time>2026-04-25T14:23:10.898Z</time></trkpt><trkpt lat="42.751288911062986" lon="10.27686952639815"><ele>295.2</ele><time>2026-04-25T14:23:11.898Z</time></trkpt><trkpt lat="42.75131531670115" lon="10.276752329884271"><ele>294.59999999999997</ele><time>2026-04-25T14:23:12.898Z</time></trkpt><trkpt lat="42.75134500680466" lon="10.276632992913571"><ele>294.0</ele><time>2026-04-25T14:23:13.898Z</time></trkpt><trkpt lat="42.751381429799025" lon="10.276503059121053"><ele>291.59999999999997</ele><time>2026-04-25T14:23:14.898Z</time></trkpt><trkpt lat="42.75142711660762" lon="10.276378012441342"><ele>289.2</ele><time>2026-04-25T14:23:15.897Z</time></trkpt><trkpt lat="42.75146941803159" lon="10.276257893349802"><ele>286.79999999999995</ele><time>2026-04-25T14:23:16.897Z</time></trkpt><trkpt lat="42.751510653949005" lon="10.276147471934214"><ele>284.4</ele><time>2026-04-25T14:23:17.897Z</time></trkpt><trkpt lat="42.751551876337125" lon="10.276045645015001"><ele>282.0</ele><time>2026-04-25T14:23:18.897Z</time></trkpt><trkpt lat="42.751586497422366" lon="10.275932327779739"><ele>282.0</ele><time>2026-04-25T14:23:19.897Z</time></trkpt><trkpt lat="42.75162669313089" lon="10.275833473933085"><ele>282.0</ele><time>2026-04-25T14:23:20.897Z</time></trkpt><trkpt lat="42.75166124188123" lon="10.275722868986527"><ele>282.0</ele><time>2026-04-25T14:23:21.897Z</time></trkpt><trkpt lat="42.7516933722736" lon="10.275607567744343"><ele>282.0</ele><time>2026-04-25T14:23:22.897Z</time></trkpt><trkpt lat="42.751725430579114" lon="10.27548410317404"><ele>282.0</ele><time>2026-04-25T14:23:23.897Z</time></trkpt><trkpt lat="42.751742356972315" lon="10.275378041342584"><ele>282.0</ele><time>2026-04-25T14:23:24.897Z</time></trkpt><trkpt lat="42.75176199516696" lon="10.275272898478727"><ele>282.0</ele><time>2026-04-25T14:23:25.897Z</time></trkpt><trkpt lat="42.75178250611348" lon="10.275159642169848"><ele>282.0</ele><time>2026-04-25T14:23:26.897Z</time></trkpt><trkpt lat="42.75181455737259" lon="10.27506403383447"><ele>282.0</ele><time>2026-04-25T14:23:27.897Z</time></trkpt><trkpt lat="42.751867406171755" lon="10.274991225404035"><ele>282.0</ele><time>2026-04-25T14:23:28.897Z</time></trkpt><trkpt lat="42.75193031504018" lon="10.274936151778313"><ele>282.0</ele><time>2026-04-25T14:23:29.897Z</time></trkpt><trkpt lat="42.75199660818873" lon="10.274898627974263"><ele>282.0</ele><time>2026-04-25T14:23:30.897Z</time></trkpt><trkpt lat="42.75206896265104" lon="10.27488547567349"><ele>282.0</ele><time>2026-04-25T14:23:31.897Z</time></trkpt><trkpt lat="42.75215112176499" lon="10.274876590206443"><ele>282.0</ele><time>2026-04-25T14:23:32.897Z</time></trkpt><trkpt lat="42.75223319807595" lon="10.274871700132282"><ele>282.0</ele><time>2026-04-25T14:23:33.897Z</time></trkpt><trkpt lat="42.75231420220936" lon="10.274872951988991"><ele>282.0</ele><time>2026-04-25T14:23:34.897Z</time></trkpt><trkpt lat="42.75238156853333" lon="10.274855303592666"><ele>282.0</ele><time>2026-04-25T14:23:35.897Z</time></trkpt><trkpt lat="42.752434339195524" lon="10.274804878057768"><ele>282.0</ele><time>2026-04-25T14:23:36.897Z</time></trkpt><trkpt lat="42.75248028801751" lon="10.274738508038684"><ele>282.0</ele><time>2026-04-25T14:23:37.897Z</time></trkpt><trkpt lat="42.75252208557708" lon="10.274654155229591"><ele>281.4</ele><time>2026-04-25T14:23:38.897Z</time></trkpt><trkpt lat="42.75258533894383" lon="10.274549314535777"><ele>280.79999999999995</ele><time>2026-04-25T14:23:39.897Z</time></trkpt><trkpt lat="42.75265846627694" lon="10.274459126621501"><ele>280.2</ele><time>2026-04-25T14:23:40.897Z</time></trkpt><trkpt lat="42.75271718287095" lon="10.274370859189133"><ele>279.59999999999997</ele><time>2026-04-25T14:23:41.897Z</time></trkpt><trkpt lat="42.752779260588916" lon="10.274283243079152"><ele>279.0</ele><time>2026-04-25T14:23:42.897Z</time></trkpt><trkpt lat="42.752837297931315" lon="10.274205370424893"><ele>279.0</ele><time>2026-04-25T14:23:43.897Z</time></trkpt><trkpt lat="42.75290163662713" lon="10.274139710454355"><ele>279.0</ele><time>2026-04-25T14:23:44.897Z</time></trkpt><trkpt lat="42.7529781994597" lon="10.27410975381915"><ele>279.0</ele><time>2026-04-25T14:23:45.897Z</time></trkpt><trkpt lat="42.75304000598116" lon="10.274070553413257"><ele>279.0</ele><time>2026-04-25T14:23:46.897Z</time></trkpt><trkpt lat="42.753091061582296" lon="10.274017316267207"><ele>279.0</ele><time>2026-04-25T14:23:47.897Z</time></trkpt><trkpt lat="42.75314790199504" lon="10.273881777045247"><ele>279.0</ele><time>2026-04-25T14:23:49.897Z</time></trkpt><trkpt lat="42.75318801550481" lon="10.27374712974265"><ele>279.3333333333333</ele><time>2026-04-25T14:23:51.897Z</time></trkpt><trkpt lat="42.75314849244343" lon="10.273656236961008"><ele>279.6666666666667</ele><time>2026-04-25T14:23:53.897Z</time></trkpt><trkpt lat="42.7530929847328" lon="10.273600192274204"><ele>280.0</ele><time>2026-04-25T14:23:54.897Z</time></trkpt><trkpt lat="42.75304041345912" lon="10.273538243726549"><ele>280.33333333333337</ele><time>2026-04-25T14:23:55.897Z</time></trkpt><trkpt lat="42.752946957617304" lon="10.273400836502807"><ele>280.6666666666667</ele><time>2026-04-25T14:23:57.897Z</time></trkpt><trkpt lat="42.75289874183295" lon="10.273326918298178"><ele>281.0</ele><time>2026-04-25T14:23:58.897Z</time></trkpt><trkpt lat="42.752842318159885" lon="10.273219381717768"><ele>281.0</ele><time>2026-04-25T14:24:00.897Z</time></trkpt><trkpt lat="42.75276463702593" lon="10.27312278816837"><ele>281.0</ele><time>2026-04-25T14:24:02.897Z</time></trkpt><trkpt lat="42.752688834923035" lon="10.27299691334791"><ele>281.0</ele><time>2026-04-25T14:24:04.896Z</time></trkpt><trkpt lat="42.75263511230041" lon="10.27285464566863"><ele>281.0</ele><time>2026-04-25T14:24:06.896Z</time></trkpt><trkpt lat="42.75257648885673" lon="10.272710976454135"><ele>274.6</ele><time>2026-04-25T14:24:08.896Z</time></trkpt><trkpt lat="42.75252719966889" lon="10.272567120960906"><ele>268.20000000000005</ele><time>2026-04-25T14:24:10.896Z</time></trkpt><trkpt lat="42.752472306798474" lon="10.272406160738042"><ele>261.79999999999995</ele><time>2026-04-25T14:24:12.896Z</time></trkpt><trkpt lat="42.752433544008134" lon="10.27231300374595"><ele>255.39999999999998</ele><time>2026-04-25T14:24:13.896Z</time></trkpt><trkpt lat="42.7523984217835" lon="10.27222873309038"><ele>249.0</ele><time>2026-04-25T14:24:14.896Z</time></trkpt><trkpt lat="42.75235875382974" lon="10.272132713353534"><ele>249.0</ele><time>2026-04-25T14:24:15.896Z</time></trkpt><trkpt lat="42.75230637489821" lon="10.272040961935533"><ele>248.99999999999997</ele><time>2026-04-25T14:24:16.896Z</time></trkpt><trkpt lat="42.75225477371682" lon="10.271963344980142"><ele>249.0</ele><time>2026-04-25T14:24:17.896Z</time></trkpt><trkpt lat="42.752215664087046" lon="10.271891673396997"><ele>249.0</ele><time>2026-04-25T14:24:18.896Z</time></trkpt><trkpt lat="42.75217234988996" lon="10.271823520341767"><ele>248.99999999999997</ele><time>2026-04-25T14:24:19.896Z</time></trkpt><trkpt lat="42.75211714029575" lon="10.271761422447959"><ele>249.0</ele><time>2026-04-25T14:24:20.896Z</time></trkpt><trkpt lat="42.752061571634584" lon="10.271697839181066"><ele>249.0</ele><time>2026-04-25T14:24:21.896Z</time></trkpt><trkpt lat="42.752015408857055" lon="10.271634873705922"><ele>249.0</ele><time>2026-04-25T14:24:22.896Z</time></trkpt><trkpt lat="42.75198610598391" lon="10.27155440224184"><ele>248.99999999999997</ele><time>2026-04-25T14:24:23.896Z</time></trkpt><trkpt lat="42.75198104091708" lon="10.27142104165546"><ele>248.99999999999997</ele><time>2026-04-25T14:24:25.896Z</time></trkpt><trkpt lat="42.75202487524289" lon="10.271305561991085"><ele>249.0</ele><time>2026-04-25T14:24:27.896Z</time></trkpt><trkpt lat="42.75207807465102" lon="10.271153033884483"><ele>249.0</ele><time>2026-04-25T14:24:29.896Z</time></trkpt><trkpt lat="42.75211341107977" lon="10.271066744900796"><ele>246.83333333333334</ele><time>2026-04-25T14:24:30.896Z</time></trkpt><trkpt lat="42.7521467068484" lon="10.270984817590428"><ele>244.66666666666669</ele><time>2026-04-25T14:24:31.896Z</time></trkpt><trkpt lat="42.75217156274845" lon="10.270902664640412"><ele>242.5</ele><time>2026-04-25T14:24:32.896Z</time></trkpt><trkpt lat="42.75220617112972" lon="10.270753290547617"><ele>240.33333333333334</ele><time>2026-04-25T14:24:34.896Z</time></trkpt><trkpt lat="42.752235682892454" lon="10.27064074505397"><ele>238.16666666666669</ele><time>2026-04-25T14:24:36.896Z</time></trkpt><trkpt lat="42.75218889360842" lon="10.270567329166449"><ele>236.0</ele><time>2026-04-25T14:24:39.897Z</time></trkpt><trkpt lat="42.7520998382731" lon="10.270595390165518"><ele>236.0</ele><time>2026-04-25T14:24:42.897Z</time></trkpt><trkpt lat="42.752027201462695" lon="10.270686816354003"><ele>236.00000000000003</ele><time>2026-04-25T14:24:44.898Z</time></trkpt><trkpt lat="42.75197207487794" lon="10.27079743501547"><ele>236.00000000000003</ele><time>2026-04-25T14:24:46.897Z</time></trkpt><trkpt lat="42.75189761108102" lon="10.270868949581208"><ele>236.0</ele><time>2026-04-25T14:24:48.898Z</time></trkpt><trkpt lat="42.751806842177906" lon="10.270905305958406"><ele>236.0</ele><time>2026-04-25T14:24:50.898Z</time></trkpt><trkpt lat="42.75169406633948" lon="10.270916098597544"><ele>229.60000000000002</ele><time>2026-04-25T14:24:52.897Z</time></trkpt><trkpt lat="42.75156770112334" lon="10.270904133923898"><ele>223.20000000000002</ele><time>2026-04-25T14:24:54.897Z</time></trkpt><trkpt lat="42.75150204654728" lon="10.270903035491253"><ele>216.8</ele><time>2026-04-25T14:24:55.897Z</time></trkpt><trkpt lat="42.751407580153995" lon="10.27092942062852"><ele>210.39999999999998</ele><time>2026-04-25T14:24:57.897Z</time></trkpt><trkpt lat="42.75132620611048" lon="10.270973441306879"><ele>204.0</ele><time>2026-04-25T14:24:59.897Z</time></trkpt><trkpt lat="42.751238271911255" lon="10.271029801552272"><ele>204.0</ele><time>2026-04-25T14:25:01.897Z</time></trkpt><trkpt lat="42.751167740200145" lon="10.27104728040813"><ele>204.0</ele><time>2026-04-25T14:25:03.897Z</time></trkpt><trkpt lat="42.75118468577428" lon="10.270924069865115"><ele>204.0</ele><time>2026-04-25T14:25:06.897Z</time></trkpt><trkpt lat="42.75123837304462" lon="10.270844401875742"><ele>204.0</ele><time>2026-04-25T14:25:08.897Z</time></trkpt><trkpt lat="42.751292031239856" lon="10.270769557177418"><ele>204.0</ele><time>2026-04-25T14:25:10.897Z</time></trkpt><trkpt lat="42.75135375043197" lon="10.270699298604482"><ele>204.0</ele><time>2026-04-25T14:25:12.896Z</time></trkpt><trkpt lat="42.751407291551594" lon="10.27064257944889"><ele>200.2</ele><time>2026-04-25T14:25:14.896Z</time></trkpt><trkpt lat="42.75147473469968" lon="10.27056457975549"><ele>196.39999999999998</ele><time>2026-04-25T14:25:16.896Z</time></trkpt><trkpt lat="42.7515461831324" lon="10.270468684358617"><ele>192.6</ele><time>2026-04-25T14:25:18.896Z</time></trkpt><trkpt lat="42.751596839522" lon="10.270387227018558"><ele>188.8</ele><time>2026-04-25T14:25:20.896Z</time></trkpt><trkpt lat="42.75160309563351" lon="10.270255869764197"><ele>185.0</ele><time>2026-04-25T14:25:22.896Z</time></trkpt><trkpt lat="42.75163479218304" lon="10.270124293998734"><ele>185.0</ele><time>2026-04-25T14:25:24.896Z</time></trkpt><trkpt lat="42.75170920046443" lon="10.270015967963548"><ele>185.0</ele><time>2026-04-25T14:25:26.896Z</time></trkpt><trkpt lat="42.75181909290682" lon="10.269972622842305"><ele>185.0</ele><time>2026-04-25T14:25:28.896Z</time></trkpt><trkpt lat="42.751870029882966" lon="10.269889895851755"><ele>185.0</ele><time>2026-04-25T14:25:30.896Z</time></trkpt><trkpt lat="42.75185074655221" lon="10.269784722271702"><ele>185.0</ele><time>2026-04-25T14:25:32.897Z</time></trkpt><trkpt lat="42.75181619308312" lon="10.269684822059164"><ele>184.25</ele><time>2026-04-25T14:25:34.897Z</time></trkpt><trkpt lat="42.75175245999752" lon="10.269548081883833"><ele>183.5</ele><time>2026-04-25T14:25:36.898Z</time></trkpt><trkpt lat="42.75174223538356" lon="10.269397053653885"><ele>182.75</ele><time>2026-04-25T14:25:38.898Z</time></trkpt><trkpt lat="42.75169914309266" lon="10.269244656584911"><ele>182.0</ele><time>2026-04-25T14:25:40.898Z</time></trkpt><trkpt lat="42.75168133553373" lon="10.269091659398583"><ele>182.0</ele><time>2026-04-25T14:25:42.898Z</time></trkpt><trkpt lat="42.75168453341209" lon="10.26897357835849"><ele>182.0</ele><time>2026-04-25T14:25:44.899Z</time></trkpt><trkpt lat="42.751626084523146" lon="10.268922735513852"><ele>182.0</ele><time>2026-04-25T14:25:46.899Z</time></trkpt><trkpt lat="42.751544408206556" lon="10.268888916136815"><ele>182.0</ele><time>2026-04-25T14:25:48.899Z</time></trkpt><trkpt lat="42.7514434165257" lon="10.268851738904862"><ele>182.0</ele><time>2026-04-25T14:25:50.899Z</time></trkpt><trkpt lat="42.75138125739606" lon="10.268818069971012"><ele>182.0</ele><time>2026-04-25T14:25:51.899Z</time></trkpt><trkpt lat="42.7512735924547" lon="10.26874026040298"><ele>184.83333333333331</ele><time>2026-04-25T14:25:53.899Z</time></trkpt><trkpt lat="42.75118428215032" lon="10.268636952398625"><ele>187.66666666666666</ele><time>2026-04-25T14:25:55.9Z</time></trkpt><trkpt lat="42.75113745458194" lon="10.268568043954568"><ele>190.5</ele><time>2026-04-25T14:25:56.9Z</time></trkpt><trkpt lat="42.75109733893947" lon="10.268499569234988"><ele>193.33333333333331</ele><time>2026-04-25T14:25:57.9Z</time></trkpt><trkpt lat="42.75105183987503" lon="10.2683695335687"><ele>196.16666666666666</ele><time>2026-04-25T14:25:59.9Z</time></trkpt><trkpt lat="42.750994096218776" lon="10.268270736580657"><ele>199.0</ele><time>2026-04-25T14:26:01.9Z</time></trkpt><trkpt lat="42.75095935548918" lon="10.268173603833551"><ele>191.66666666666666</ele><time>2026-04-25T14:26:03.9Z</time></trkpt><trkpt lat="42.75089484557849" lon="10.268143684765612"><ele>184.33333333333331</ele><time>2026-04-25T14:26:05.9Z</time></trkpt><trkpt lat="42.75088447969344" lon="10.268257375750544"><ele>177.0</ele><time>2026-04-25T14:26:08.9Z</time></trkpt><trkpt lat="42.75089483607762" lon="10.268353437854659"><ele>169.66666666666666</ele><time>2026-04-25T14:26:09.9Z</time></trkpt><trkpt lat="42.75090093358468" lon="10.268471316466954"><ele>162.33333333333331</ele><time>2026-04-25T14:26:10.9Z</time></trkpt><trkpt lat="42.75090940099715" lon="10.268578893031966"><ele>155.0</ele><time>2026-04-25T14:26:11.9Z</time></trkpt><trkpt lat="42.750926646972054" lon="10.268678707499035"><ele>155.0</ele><time>2026-04-25T14:26:12.9Z</time></trkpt><trkpt lat="42.750953981785166" lon="10.268772706107471"><ele>155.0</ele><time>2026-04-25T14:26:13.9Z</time></trkpt><trkpt lat="42.75098443153159" lon="10.268869297553454"><ele>155.0</ele><time>2026-04-25T14:26:14.9Z</time></trkpt><trkpt lat="42.75102095828846" lon="10.268970188790139"><ele>155.0</ele><time>2026-04-25T14:26:15.9Z</time></trkpt><trkpt lat="42.7510631203043" lon="10.269063001716118"><ele>155.0</ele><time>2026-04-25T14:26:16.9Z</time></trkpt><trkpt lat="42.75110303690842" lon="10.269150845066624"><ele>155.0</ele><time>2026-04-25T14:26:17.9Z</time></trkpt><trkpt lat="42.7511352829867" lon="10.26922947046316"><ele>152.83333333333331</ele><time>2026-04-25T14:26:18.9Z</time></trkpt><trkpt lat="42.75112402963945" lon="10.26934967729347"><ele>150.66666666666666</ele><time>2026-04-25T14:26:20.9Z</time></trkpt><trkpt lat="42.75107662440383" lon="10.269412120144217"><ele>148.5</ele><time>2026-04-25T14:26:22.9Z</time></trkpt><trkpt lat="42.75100337296407" lon="10.269293461930566"><ele>146.33333333333334</ele><time>2026-04-25T14:26:25.9Z</time></trkpt><trkpt lat="42.75098194719068" lon="10.269179128687144"><ele>144.16666666666669</ele><time>2026-04-25T14:26:27.9Z</time></trkpt><trkpt lat="42.75091776752223" lon="10.269107823004074"><ele>142.0</ele><time>2026-04-25T14:26:29.9Z</time></trkpt><trkpt lat="42.75084715077463" lon="10.269012617049226"><ele>144.6</ele><time>2026-04-25T14:26:31.9Z</time></trkpt><trkpt lat="42.75077605551694" lon="10.268885769228854"><ele>147.2</ele><time>2026-04-25T14:26:33.9Z</time></trkpt><trkpt lat="42.750689872134096" lon="10.268775439325589"><ele>149.8</ele><time>2026-04-25T14:26:35.9Z</time></trkpt><trkpt lat="42.75064650237149" lon="10.268712485727509"><ele>152.4</ele><time>2026-04-25T14:26:36.9Z</time></trkpt><trkpt lat="42.75057382983442" lon="10.268600007687796"><ele>155.0</ele><time>2026-04-25T14:26:38.9Z</time></trkpt><trkpt lat="42.750540799290306" lon="10.268524841011141"><ele>155.0</ele><time>2026-04-25T14:26:39.9Z</time></trkpt><trkpt lat="42.750504486881255" lon="10.268366012906702"><ele>155.0</ele><time>2026-04-25T14:26:41.9Z</time></trkpt><trkpt lat="42.750469516776185" lon="10.268283716177034"><ele>155.0</ele><time>2026-04-25T14:26:42.9Z</time></trkpt><trkpt lat="42.75041692008929" lon="10.268212175926259"><ele>155.0</ele><time>2026-04-25T14:26:43.9Z</time></trkpt><trkpt lat="42.75036183585308" lon="10.268094340755669"><ele>155.0</ele><time>2026-04-25T14:26:45.902Z</time></trkpt><trkpt lat="42.75030636892968" lon="10.26796560449095"><ele>159.0</ele><time>2026-04-25T14:26:47.902Z</time></trkpt><trkpt lat="42.75021083650198" lon="10.267879878679139"><ele>163.0</ele><time>2026-04-25T14:26:49.903Z</time></trkpt><trkpt lat="42.75011263223615" lon="10.267832535161968"><ele>167.0</ele><time>2026-04-25T14:26:51.902Z</time></trkpt><trkpt lat="42.75004157694118" lon="10.26773161286398"><ele>171.0</ele><time>2026-04-25T14:26:53.902Z</time></trkpt><trkpt lat="42.749946776879575" lon="10.267656927294471"><ele>175.0</ele><time>2026-04-25T14:26:55.903Z</time></trkpt><trkpt lat="42.74984158622536" lon="10.267556443299599"><ele>168.2</ele><time>2026-04-25T14:26:57.902Z</time></trkpt><trkpt lat="42.7497706715508" lon="10.267456981380304"><ele>161.4</ele><time>2026-04-25T14:26:59.903Z</time></trkpt><trkpt lat="42.74972130126473" lon="10.267359877016522"><ele>154.6</ele><time>2026-04-25T14:27:01.903Z</time></trkpt><trkpt lat="42.74963328726727" lon="10.267302978249607"><ele>147.8</ele><time>2026-04-25T14:27:03.902Z</time></trkpt><trkpt lat="42.7495199333674" lon="10.267252228614304"><ele>141.0</ele><time>2026-04-25T14:27:05.902Z</time></trkpt><trkpt lat="42.74947732233729" lon="10.267187553196145"><ele>141.0</ele><time>2026-04-25T14:27:06.902Z</time></trkpt><trkpt lat="42.749441793636784" lon="10.267110177866478"><ele>141.0</ele><time>2026-04-25T14:27:07.902Z</time></trkpt><trkpt lat="42.74941133530187" lon="10.267034595436058"><ele>141.0</ele><time>2026-04-25T14:27:08.902Z</time></trkpt><trkpt lat="42.74940151867315" lon="10.26686698499385"><ele>141.0</ele><time>2026-04-25T14:27:10.902Z</time></trkpt><trkpt lat="42.74938705341168" lon="10.26669676668148"><ele>141.0</ele><time>2026-04-25T14:27:12.902Z</time></trkpt><trkpt lat="42.74936421993172" lon="10.266573660736805"><ele>140.33333333333334</ele><time>2026-04-25T14:27:13.902Z</time></trkpt><trkpt lat="42.74934773963077" lon="10.266444370046603"><ele>139.66666666666666</ele><time>2026-04-25T14:27:14.902Z</time></trkpt><trkpt lat="42.749344480565426" lon="10.266317106285621"><ele>139.0</ele><time>2026-04-25T14:27:15.902Z</time></trkpt><trkpt lat="42.74935084430901" lon="10.26620623099953"><ele>138.33333333333331</ele><time>2026-04-25T14:27:16.902Z</time></trkpt><trkpt lat="42.749359858092916" lon="10.266094062923555"><ele>137.66666666666666</ele><time>2026-04-25T14:27:17.902Z</time></trkpt><trkpt lat="42.749378163196226" lon="10.26599332481621"><ele>137.0</ele><time>2026-04-25T14:27:18.902Z</time></trkpt><trkpt lat="42.74940120830988" lon="10.265912155602326"><ele>137.0</ele><time>2026-04-25T14:27:19.902Z</time></trkpt><trkpt lat="42.74942867110549" lon="10.265803956510425"><ele>137.0</ele><time>2026-04-25T14:27:21.902Z</time></trkpt><trkpt lat="42.74937454018002" lon="10.265712791861704"><ele>137.0</ele><time>2026-04-25T14:27:23.902Z</time></trkpt><trkpt lat="42.749276716673606" lon="10.265719535671177"><ele>137.0</ele><time>2026-04-25T14:27:25.902Z</time></trkpt><trkpt lat="42.749183460126865" lon="10.265776816131272"><ele>137.0</ele><time>2026-04-25T14:27:27.902Z</time></trkpt><trkpt lat="42.749092192148794" lon="10.265726120204024"><ele>133.5</ele><time>2026-04-25T14:27:29.902Z</time></trkpt><trkpt lat="42.74901323690494" lon="10.26562782537393"><ele>130.0</ele><time>2026-04-25T14:27:31.902Z</time></trkpt><trkpt lat="42.74896368711408" lon="10.265542305695417"><ele>126.5</ele><time>2026-04-25T14:27:32.902Z</time></trkpt><trkpt lat="42.74890816442636" lon="10.265439089895205"><ele>123.0</ele><time>2026-04-25T14:27:33.902Z</time></trkpt><trkpt lat="42.748864752530714" lon="10.265352583226413"><ele>119.49999999999999</ele><time>2026-04-25T14:27:34.902Z</time></trkpt><trkpt lat="42.74881157125723" lon="10.2652840914699"><ele>116.0</ele><time>2026-04-25T14:27:35.902Z</time></trkpt><trkpt lat="42.74875932071894" lon="10.26521738646812"><ele>115.99999999999999</ele><time>2026-04-25T14:27:36.902Z</time></trkpt><trkpt lat="42.74871236796826" lon="10.265156022817289"><ele>116.0</ele><time>2026-04-25T14:27:37.902Z</time></trkpt><trkpt lat="42.748652489791205" lon="10.265073525771863"><ele>116.0</ele><time>2026-04-25T14:27:39.902Z</time></trkpt><trkpt lat="42.74858357067822" lon="10.26509597123284"><ele>116.0</ele><time>2026-04-25T14:27:41.902Z</time></trkpt><trkpt lat="42.748519204929245" lon="10.265075021665831"><ele>115.99999999999999</ele><time>2026-04-25T14:27:43.902Z</time></trkpt><trkpt lat="42.7484442020646" lon="10.265003471130257"><ele>116.0</ele><time>2026-04-25T14:27:45.902Z</time></trkpt><trkpt lat="42.74838429454384" lon="10.26490683231565"><ele>111.4</ele><time>2026-04-25T14:27:47.902Z</time></trkpt><trkpt lat="42.74833193172573" lon="10.264812491735936"><ele>106.8</ele><time>2026-04-25T14:27:49.902Z</time></trkpt><trkpt lat="42.74822808080709" lon="10.264651402864185"><ele>102.2</ele><time>2026-04-25T14:27:51.902Z</time></trkpt><trkpt lat="42.74816737161488" lon="10.264550651868802"><ele>97.60000000000001</ele><time>2026-04-25T14:27:52.902Z</time></trkpt><trkpt lat="42.74813484008678" lon="10.264456697315952"><ele>93.0</ele><time>2026-04-25T14:27:53.902Z</time></trkpt><trkpt lat="42.748110060322446" lon="10.264349270274252"><ele>93.0</ele><time>2026-04-25T14:27:54.901Z</time></trkpt><trkpt lat="42.74810373825182" lon="10.264230707248826"><ele>93.0</ele><time>2026-04-25T14:27:55.901Z</time></trkpt><trkpt lat="42.7481069744294" lon="10.264133803296081"><ele>93.0</ele><time>2026-04-25T14:27:56.901Z</time></trkpt><trkpt lat="42.748117127065605" lon="10.264047275551661"><ele>93.0</ele><time>2026-04-25T14:27:57.901Z</time></trkpt><trkpt lat="42.74813400881869" lon="10.263887341857515"><ele>93.0</ele><time>2026-04-25T14:27:59.901Z</time></trkpt><trkpt lat="42.74816002885187" lon="10.263790705455381"><ele>93.0</ele><time>2026-04-25T14:28:01.901Z</time></trkpt><trkpt lat="42.74819206731882" lon="10.263680409202406"><ele>94.2</ele><time>2026-04-25T14:29:09.902Z</time></trkpt><trkpt lat="42.74823692132368" lon="10.263536436965746"><ele>95.4</ele><time>2026-04-25T14:29:11.902Z</time></trkpt><trkpt lat="42.7482011602341" lon="10.2633886333224"><ele>96.60000000000001</ele><time>2026-04-25T14:29:13.902Z</time></trkpt><trkpt lat="42.74811080391874" lon="10.263301884451021"><ele>97.80000000000001</ele><time>2026-04-25T14:29:15.902Z</time></trkpt><trkpt lat="42.74805478059237" lon="10.263255522344709"><ele>99.0</ele><time>2026-04-25T14:29:16.902Z</time></trkpt><trkpt lat="42.74798846920962" lon="10.263203285554603"><ele>99.0</ele><time>2026-04-25T14:29:17.902Z</time></trkpt><trkpt lat="42.74791719551325" lon="10.263162150074258"><ele>99.0</ele><time>2026-04-25T14:29:18.902Z</time></trkpt><trkpt lat="42.74784057879731" lon="10.263129149063696"><ele>99.0</ele><time>2026-04-25T14:29:19.902Z</time></trkpt><trkpt lat="42.747750573276086" lon="10.263081320178417"><ele>99.0</ele><time>2026-04-25T14:29:20.902Z</time></trkpt><trkpt lat="42.74769149034778" lon="10.263033364008617"><ele>99.0</ele><time>2026-04-25T14:29:21.902Z</time></trkpt><trkpt lat="42.747646540215825" lon="10.262966075959135"><ele>99.0</ele><time>2026-04-25T14:29:22.902Z</time></trkpt><trkpt lat="42.747598204674475" lon="10.262880941845149"><ele>94.0</ele><time>2026-04-25T14:29:23.901Z</time></trkpt><trkpt lat="42.747558321754106" lon="10.262778923387279"><ele>89.0</ele><time>2026-04-25T14:29:24.901Z</time></trkpt><trkpt lat="42.747540166988024" lon="10.262658828460667"><ele>84.0</ele><time>2026-04-25T14:29:25.901Z</time></trkpt><trkpt lat="42.747536509201105" lon="10.262526642756647"><ele>79.0</ele><time>2026-04-25T14:29:26.901Z</time></trkpt><trkpt lat="42.747553635455695" lon="10.26239942000865"><ele>74.0</ele><time>2026-04-25T14:29:27.901Z</time></trkpt><trkpt lat="42.74758706627538" lon="10.26224712604044"><ele>72.4</ele><time>2026-04-25T14:29:28.901Z</time></trkpt><trkpt lat="42.7476359895045" lon="10.262101895701486"><ele>70.80000000000001</ele><time>2026-04-25T14:29:29.901Z</time></trkpt><trkpt lat="42.747687223402" lon="10.261980466995993"><ele>69.19999999999999</ele><time>2026-04-25T14:29:30.901Z</time></trkpt><trkpt lat="42.74774709900676" lon="10.261862749321358"><ele>67.6</ele><time>2026-04-25T14:29:31.901Z</time></trkpt><trkpt lat="42.747813196416175" lon="10.261737335076353"><ele>66.0</ele><time>2026-04-25T14:29:32.901Z</time></trkpt><trkpt lat="42.747877266874454" lon="10.261622285160481"><ele>72.19999999999999</ele><time>2026-04-25T14:29:33.901Z</time></trkpt><trkpt lat="42.74792952447535" lon="10.261521383689422"><ele>78.39999999999999</ele><time>2026-04-25T14:29:34.901Z</time></trkpt><trkpt lat="42.74796473851985" lon="10.261435783559088"><ele>84.6</ele><time>2026-04-25T14:29:35.901Z</time></trkpt><trkpt lat="42.747963820931844" lon="10.26129658513293"><ele>90.8</ele><time>2026-04-25T14:29:37.901Z</time></trkpt><trkpt lat="42.74788220209572" lon="10.261176318172549"><ele>97.0</ele><time>2026-04-25T14:29:39.901Z</time></trkpt><trkpt lat="42.74777560417251" lon="10.26112345984794"><ele>97.66666666666667</ele><time>2026-04-25T14:29:41.901Z</time></trkpt><trkpt lat="42.74771573378375" lon="10.261068130809207"><ele>98.33333333333334</ele><time>2026-04-25T14:29:42.901Z</time></trkpt><trkpt lat="42.74764638544153" lon="10.261002875220708"><ele>99.0</ele><time>2026-04-25T14:29:43.901Z</time></trkpt><trkpt lat="42.74758447559897" lon="10.260943850074574"><ele>99.66666666666666</ele><time>2026-04-25T14:29:44.901Z</time></trkpt><trkpt lat="42.747519277427415" lon="10.26092724405308"><ele>100.33333333333333</ele><time>2026-04-25T14:29:45.901Z</time></trkpt><trkpt lat="42.747454289094776" lon="10.26094495949063"><ele>101.0</ele><time>2026-04-25T14:29:46.901Z</time></trkpt><trkpt lat="42.74735702192268" lon="10.260957578391956"><ele>97.4</ele><time>2026-04-25T14:29:47.901Z</time></trkpt><trkpt lat="42.74724598980005" lon="10.260934853480965"><ele>93.8</ele><time>2026-04-25T14:29:48.901Z</time></trkpt><trkpt lat="42.74714352341014" lon="10.260905260564037"><ele>90.2</ele><time>2026-04-25T14:29:49.901Z</time></trkpt><trkpt lat="42.747034908689216" lon="10.260881715659695"><ele>86.60000000000001</ele><time>2026-04-25T14:29:50.901Z</time></trkpt><trkpt lat="42.746932485673334" lon="10.260875505019792"><ele>83.0</ele><time>2026-04-25T14:29:51.901Z</time></trkpt><trkpt lat="42.74683631366136" lon="10.260878512452075"><ele>82.5</ele><time>2026-04-25T14:29:52.901Z</time></trkpt><trkpt lat="42.74673737102941" lon="10.260883339394478"><ele>82.0</ele><time>2026-04-25T14:29:53.901Z</time></trkpt><trkpt lat="42.746643202876406" lon="10.26088957518567"><ele>81.5</ele><time>2026-04-25T14:29:54.901Z</time></trkpt><trkpt lat="42.74655586077617" lon="10.260893892799173"><ele>81.0</ele><time>2026-04-25T14:29:55.901Z</time></trkpt><trkpt lat="42.7464797167276" lon="10.260884899496435"><ele>80.5</ele><time>2026-04-25T14:29:56.901Z</time></trkpt><trkpt lat="42.746429405619146" lon="10.260797296648494"><ele>80.0</ele><time>2026-04-25T14:29:58.901Z</time></trkpt><trkpt lat="42.74649149508233" lon="10.260702447252235"><ele>80.0</ele><time>2026-04-25T14:30:00.901Z</time></trkpt><trkpt lat="42.74660829534914" lon="10.260651515927554"><ele>80.0</ele><time>2026-04-25T14:30:02.901Z</time></trkpt><trkpt lat="42.746690772913176" lon="10.260606180950566"><ele>80.0</ele><time>2026-04-25T14:30:04.901Z</time></trkpt><trkpt lat="42.74675208929152" lon="10.260574048227312"><ele>80.0</ele><time>2026-04-25T14:30:05.901Z</time></trkpt><trkpt lat="42.746823952736925" lon="10.260520644180326"><ele>80.0</ele><time>2026-04-25T14:30:06.901Z</time></trkpt><trkpt lat="42.746915610344466" lon="10.260434194390648"><ele>84.2</ele><time>2026-04-25T14:30:07.901Z</time></trkpt><trkpt lat="42.7470003570511" lon="10.260339711142354"><ele>88.4</ele><time>2026-04-25T14:30:08.901Z</time></trkpt><trkpt lat="42.74705932106954" lon="10.26025798694262"><ele>92.6</ele><time>2026-04-25T14:30:09.901Z</time></trkpt><trkpt lat="42.74710887282754" lon="10.260156078405851"><ele>96.8</ele><time>2026-04-25T14:30:10.901Z</time></trkpt><trkpt lat="42.74715581032868" lon="10.260028624893085"><ele>101.0</ele><time>2026-04-25T14:30:11.901Z</time></trkpt><trkpt lat="42.74718579868938" lon="10.259910495970843"><ele>101.6</ele><time>2026-04-25T14:30:12.901Z</time></trkpt><trkpt lat="42.74719918318422" lon="10.259783432377429"><ele>102.19999999999999</ele><time>2026-04-25T14:30:13.901Z</time></trkpt><trkpt lat="42.74720784974115" lon="10.259635162001606"><ele>102.80000000000001</ele><time>2026-04-25T14:30:14.901Z</time></trkpt><trkpt lat="42.74722665559883" lon="10.259483462827713"><ele>103.4</ele><time>2026-04-25T14:30:15.9Z</time></trkpt><trkpt lat="42.74725919827181" lon="10.259337673000715"><ele>104.0</ele><time>2026-04-25T14:30:16.9Z</time></trkpt><trkpt lat="42.74729747773721" lon="10.25920547956349"><ele>103.99999999999999</ele><time>2026-04-25T14:30:17.9Z</time></trkpt><trkpt lat="42.74733973631621" lon="10.259083248875072"><ele>104.0</ele><time>2026-04-25T14:30:18.9Z</time></trkpt><trkpt lat="42.747380492791535" lon="10.258971001663493"><ele>104.0</ele><time>2026-04-25T14:30:19.9Z</time></trkpt><trkpt lat="42.74740299256141" lon="10.258866831602234"><ele>104.0</ele><time>2026-04-25T14:30:20.9Z</time></trkpt><trkpt lat="42.74740827227308" lon="10.258756962197435"><ele>103.99999999999999</ele><time>2026-04-25T14:30:21.9Z</time></trkpt><trkpt lat="42.74739530564564" lon="10.258629670777216"><ele>104.0</ele><time>2026-04-25T14:30:22.9Z</time></trkpt><trkpt lat="42.74738183471754" lon="10.258496700661272"><ele>103.49999999999999</ele><time>2026-04-25T14:30:23.9Z</time></trkpt><trkpt lat="42.74737745336142" lon="10.258362621018616"><ele>103.0</ele><time>2026-04-25T14:30:24.9Z</time></trkpt><trkpt lat="42.74738560611959" lon="10.258240562654331"><ele>102.5</ele><time>2026-04-25T14:30:25.9Z</time></trkpt><trkpt lat="42.74740526489315" lon="10.258138144303734"><ele>102.0</ele><time>2026-04-25T14:30:26.9Z</time></trkpt><trkpt lat="42.747455771651836" lon="10.258063209028624"><ele>101.49999999999999</ele><time>2026-04-25T14:30:27.9Z</time></trkpt><trkpt lat="42.74752565675323" lon="10.258023857863996"><ele>101.0</ele><time>2026-04-25T14:30:28.9Z</time></trkpt><trkpt lat="42.74761794946427" lon="10.257980773973008"><ele>100.5</ele><time>2026-04-25T14:30:29.9Z</time></trkpt><trkpt lat="42.747723289730295" lon="10.257921147896656"><ele>100.0</ele><time>2026-04-25T14:30:30.9Z</time></trkpt><trkpt lat="42.74781948462659" lon="10.257828707205531"><ele>99.5</ele><time>2026-04-25T14:30:31.9Z</time></trkpt><trkpt lat="42.74792842166235" lon="10.257719169944247"><ele>99.0</ele><time>2026-04-25T14:30:32.9Z</time></trkpt><trkpt lat="42.74803088936877" lon="10.257638524906449"><ele>99.0</ele><time>2026-04-25T14:30:33.9Z</time></trkpt><trkpt lat="42.74812243251404" lon="10.257583182411102"><ele>99.0</ele><time>2026-04-25T14:30:34.9Z</time></trkpt><trkpt lat="42.74820743501253" lon="10.257558999577642"><ele>99.0</ele><time>2026-04-25T14:30:35.9Z</time></trkpt><trkpt lat="42.748323556902186" lon="10.257563145073068"><ele>99.0</ele><time>2026-04-25T14:30:36.9Z</time></trkpt><trkpt lat="42.74845396827466" lon="10.257564261807962"><ele>99.0</ele><time>2026-04-25T14:30:37.9Z</time></trkpt><trkpt lat="42.74857780863703" lon="10.257539310172952"><ele>100.83333333333333</ele><time>2026-04-25T14:30:38.9Z</time></trkpt><trkpt lat="42.74868150691053" lon="10.257511167509746"><ele>102.66666666666666</ele><time>2026-04-25T14:30:39.9Z</time></trkpt><trkpt lat="42.74876803863304" lon="10.257487934859803"><ele>104.5</ele><time>2026-04-25T14:30:40.9Z</time></trkpt><trkpt lat="42.74882807343363" lon="10.257450040712575"><ele>106.33333333333333</ele><time>2026-04-25T14:30:41.9Z</time></trkpt><trkpt lat="42.74886906866876" lon="10.257380891069312"><ele>108.16666666666666</ele><time>2026-04-25T14:30:42.9Z</time></trkpt><trkpt lat="42.74889867918454" lon="10.257287696281765"><ele>110.0</ele><time>2026-04-25T14:30:43.9Z</time></trkpt><trkpt lat="42.74893370098931" lon="10.257190627730802"><ele>110.0</ele><time>2026-04-25T14:30:44.9Z</time></trkpt><trkpt lat="42.74895243902668" lon="10.25707901602905"><ele>110.0</ele><time>2026-04-25T14:30:45.9Z</time></trkpt><trkpt lat="42.74895049895397" lon="10.256961731347173"><ele>110.0</ele><time>2026-04-25T14:30:46.9Z</time></trkpt><trkpt lat="42.74893526546986" lon="10.256824772236824"><ele>110.0</ele><time>2026-04-25T14:30:47.9Z</time></trkpt><trkpt lat="42.74892253233765" lon="10.256684793129626"><ele>110.0</ele><time>2026-04-25T14:30:48.9Z</time></trkpt><trkpt lat="42.748911500638876" lon="10.256533996314106"><ele>109.6</ele><time>2026-04-25T14:30:49.9Z</time></trkpt><trkpt lat="42.748900749781434" lon="10.256373086401052"><ele>109.2</ele><time>2026-04-25T14:30:50.9Z</time></trkpt><trkpt lat="42.74889641484593" lon="10.256227015212017"><ele>108.80000000000001</ele><time>2026-04-25T14:30:51.9Z</time></trkpt><trkpt lat="42.74889753338167" lon="10.256083473623312"><ele>108.4</ele><time>2026-04-25T14:30:52.9Z</time></trkpt><trkpt lat="42.74891004944292" lon="10.255928479140122"><ele>108.0</ele><time>2026-04-25T14:30:53.9Z</time></trkpt><trkpt lat="42.748918036811695" lon="10.255783431755125"><ele>108.0</ele><time>2026-04-25T14:30:54.9Z</time></trkpt><trkpt lat="42.74892494588693" lon="10.255659231152178"><ele>108.0</ele><time>2026-04-25T14:30:55.9Z</time></trkpt><trkpt lat="42.74892422654837" lon="10.25554473379299"><ele>108.0</ele><time>2026-04-25T14:30:56.9Z</time></trkpt><trkpt lat="42.74893087231799" lon="10.255429996060057"><ele>108.0</ele><time>2026-04-25T14:30:57.902Z</time></trkpt><trkpt lat="42.74894880604393" lon="10.255325288642075"><ele>108.0</ele><time>2026-04-25T14:30:58.902Z</time></trkpt><trkpt lat="42.74898444056526" lon="10.255251921557832"><ele>108.0</ele><time>2026-04-25T14:30:59.902Z</time></trkpt><trkpt lat="42.7490423525553" lon="10.255209677139895"><ele>107.16666666666667</ele><time>2026-04-25T14:31:00.902Z</time></trkpt><trkpt lat="42.74912877116783" lon="10.255152534237986"><ele>106.33333333333334</ele><time>2026-04-25T14:31:02.901Z</time></trkpt><trkpt lat="42.749192485763366" lon="10.255130975268901"><ele>105.5</ele><time>2026-04-25T14:32:01.9Z</time></trkpt><trkpt lat="42.749183823295134" lon="10.25522086529603"><ele>104.66666666666667</ele><time>2026-04-25T14:32:04.9Z</time></trkpt><trkpt lat="42.74911237306191" lon="10.255290841953727"><ele>103.83333333333334</ele><time>2026-04-25T14:32:08.9Z</time></trkpt><trkpt lat="42.74905737591211" lon="10.25537874428168"><ele>103.0</ele><time>2026-04-25T14:32:11.9Z</time></trkpt><trkpt lat="42.74902433644983" lon="10.255490041533571"><ele>103.00000000000001</ele><time>2026-04-25T14:32:14.9Z</time></trkpt><trkpt lat="42.74902726969565" lon="10.255594976545183"><ele>103.0</ele><time>2026-04-25T14:32:16.9Z</time></trkpt><trkpt lat="42.749068904006776" lon="10.255698300923116"><ele>103.0</ele><time>2026-04-25T14:32:18.9Z</time></trkpt><trkpt lat="42.749168469373956" lon="10.255769330805729"><ele>103.0</ele><time>2026-04-25T14:32:20.9Z</time></trkpt><trkpt lat="42.7491710572684" lon="10.255895639773692"><ele>103.00000000000001</ele><time>2026-04-25T14:32:24.9Z</time></trkpt><trkpt lat="42.74915102077057" lon="10.256001397011811"><ele>103.0</ele><time>2026-04-25T14:32:27.9Z</time></trkpt><trkpt lat="42.74915296844708" lon="10.256129325687422"><ele>104.0</ele><time>2026-04-25T14:32:30.9Z</time></trkpt><trkpt lat="42.74915006226183" lon="10.256246060184141"><ele>105.0</ele><time>2026-04-25T14:32:33.9Z</time></trkpt><trkpt lat="42.74916056737104" lon="10.256333686724249"><ele>106.00000000000001</ele><time>2026-04-25T14:32:35.9Z</time></trkpt><trkpt lat="42.749202282148964" lon="10.256464113387283"><ele>107.0</ele><time>2026-04-25T14:32:37.9Z</time></trkpt><trkpt lat="42.74922986650597" lon="10.25659695414115"><ele>108.0</ele><time>2026-04-25T14:32:39.9Z</time></trkpt><trkpt lat="42.749216289202785" lon="10.256731080531795"><ele>108.33333333333333</ele><time>2026-04-25T14:32:41.9Z</time></trkpt><trkpt lat="42.74918881723425" lon="10.256842505679838"><ele>108.66666666666666</ele><time>2026-04-25T14:32:43.9Z</time></trkpt><trkpt lat="42.74921311110012" lon="10.256964687094873"><ele>109.0</ele><time>2026-04-25T14:32:45.9Z</time></trkpt><trkpt lat="42.7492378142132" lon="10.257058467649733"><ele>109.33333333333333</ele><time>2026-04-25T14:32:46.9Z</time></trkpt><trkpt lat="42.74925890346981" lon="10.257144039962956"><ele>109.66666666666666</ele><time>2026-04-25T14:32:47.899Z</time></trkpt><trkpt lat="42.74927877806149" lon="10.257233575223045"><ele>110.0</ele><time>2026-04-25T14:32:48.899Z</time></trkpt><trkpt lat="42.74927793046097" lon="10.257328782516279"><ele>111.16666666666666</ele><time>2026-04-25T14:32:49.899Z</time></trkpt><trkpt lat="42.74929312090877" lon="10.257502561611581"><ele>112.33333333333333</ele><time>2026-04-25T14:32:51.899Z</time></trkpt><trkpt lat="42.74929551724409" lon="10.257595715073746"><ele>113.5</ele><time>2026-04-25T14:32:52.899Z</time></trkpt><trkpt lat="42.74927511550169" lon="10.257716115667105"><ele>114.66666666666666</ele><time>2026-04-25T14:32:54.899Z</time></trkpt><trkpt lat="42.74923050511299" lon="10.257797931538677"><ele>115.83333333333333</ele><time>2026-04-25T14:32:56.899Z</time></trkpt><trkpt lat="42.74924289719751" lon="10.257885636735304"><ele>117.0</ele><time>2026-04-25T14:32:58.899Z</time></trkpt><trkpt lat="42.749256777363854" lon="10.257980595227302"><ele>117.0</ele><time>2026-04-25T14:33:00.899Z</time></trkpt><trkpt lat="42.74927897272264" lon="10.258075032841722"><ele>117.0</ele><time>2026-04-25T14:33:02.899Z</time></trkpt><trkpt lat="42.74929612481981" lon="10.25818484297297"><ele>117.0</ele><time>2026-04-25T14:33:05.901Z</time></trkpt><trkpt lat="42.74931911752769" lon="10.258279727301666"><ele>117.0</ele><time>2026-04-25T14:33:08.901Z</time></trkpt><trkpt lat="42.7493423846904" lon="10.2583753970692"><ele>117.0</ele><time>2026-04-25T14:33:11.901Z</time></trkpt><trkpt lat="42.74934781375598" lon="10.258496942322948"><ele>117.0</ele><time>2026-04-25T14:33:16.901Z</time></trkpt><trkpt lat="42.74935219243644" lon="10.258632818781363"><ele>119.33333333333333</ele><time>2026-04-25T14:33:26.901Z</time></trkpt><trkpt lat="42.74934352333059" lon="10.258749468673027"><ele>121.66666666666666</ele><time>2026-04-25T14:33:29.901Z</time></trkpt><trkpt lat="42.74937747122527" lon="10.258841724397701"><ele>124.0</ele><time>2026-04-25T14:33:31.901Z</time></trkpt><trkpt lat="42.74938587002714" lon="10.258934276470047"><ele>126.33333333333333</ele><time>2026-04-25T14:33:35.901Z</time></trkpt><trkpt lat="42.749402185079134" lon="10.2590431657405"><ele>128.66666666666666</ele><time>2026-04-25T14:33:38.901Z</time></trkpt><trkpt lat="42.74942181573535" lon="10.259143089656346"><ele>131.0</ele><time>2026-04-25T14:33:41.901Z</time></trkpt><trkpt lat="42.74948668920254" lon="10.259239833616537"><ele>134.14285714285714</ele><time>2026-04-25T14:33:44.9Z</time></trkpt><trkpt lat="42.7495529095313" lon="10.259281932514545"><ele>137.2857142857143</ele><time>2026-04-25T14:33:46.9Z</time></trkpt><trkpt lat="42.74962842924938" lon="10.259285096112247"><ele>140.42857142857144</ele><time>2026-04-25T14:33:48.9Z</time></trkpt><trkpt lat="42.74969620491811" lon="10.259267822242144"><ele>143.57142857142858</ele><time>2026-04-25T14:33:50.9Z</time></trkpt><trkpt lat="42.749763652964894" lon="10.25923415417955"><ele>146.71428571428572</ele><time>2026-04-25T14:33:52.9Z</time></trkpt><trkpt lat="42.74984508276111" lon="10.259198565339581"><ele>149.85714285714286</ele><time>2026-04-25T14:33:54.9Z</time></trkpt><trkpt lat="42.749912820323566" lon="10.259179366097955"><ele>153.0</ele><time>2026-04-25T14:33:58.9Z</time></trkpt><trkpt lat="42.74997169171072" lon="10.259136806615878"><ele>153.0</ele><time>2026-04-25T14:34:00.9Z</time></trkpt><trkpt lat="42.75003295295878" lon="10.259174385582218"><ele>153.0</ele><time>2026-04-25T14:34:02.9Z</time></trkpt><trkpt lat="42.75003399539954" lon="10.259289517115297"><ele>153.0</ele><time>2026-04-25T14:34:05.9Z</time></trkpt><trkpt lat="42.750025999095264" lon="10.259394191543473"><ele>153.0</ele><time>2026-04-25T14:34:08.9Z</time></trkpt><trkpt lat="42.75009546523775" lon="10.259488932841503"><ele>153.0</ele><time>2026-04-25T14:34:10.9Z</time></trkpt><trkpt lat="42.75014076843226" lon="10.259548709491373"><ele>153.0</ele><time>2026-04-25T14:34:12.9Z</time></trkpt><trkpt lat="42.75022292870091" lon="10.259566133871921"><ele>152.66666666666666</ele><time>2026-04-25T14:34:16.9Z</time></trkpt><trkpt lat="42.7502907682692" lon="10.25957951240687"><ele>152.33333333333334</ele><time>2026-04-25T14:34:18.9Z</time></trkpt><trkpt lat="42.75031100468231" lon="10.259671603733299"><ele>152.0</ele><time>2026-04-25T14:34:20.9Z</time></trkpt><trkpt lat="42.75032640681013" lon="10.259780134344682"><ele>151.66666666666669</ele><time>2026-04-25T14:34:23.9Z</time></trkpt><trkpt lat="42.750348654310606" lon="10.25988645980327"><ele>151.33333333333334</ele><time>2026-04-25T14:34:26.9Z</time></trkpt><trkpt lat="42.75040763320085" lon="10.259991933552522"><ele>151.0</ele><time>2026-04-25T14:34:29.9Z</time></trkpt><trkpt lat="42.75046877815788" lon="10.260058225133763"><ele>152.83333333333334</ele><time>2026-04-25T14:34:32.9Z</time></trkpt><trkpt lat="42.750516129844804" lon="10.260152132799885"><ele>154.66666666666669</ele><time>2026-04-25T14:34:35.899Z</time></trkpt><trkpt lat="42.75055797852146" lon="10.260247051724859"><ele>156.5</ele><time>2026-04-25T14:34:37.899Z</time></trkpt><trkpt lat="42.750645831588976" lon="10.260402716615578"><ele>158.33333333333334</ele><time>2026-04-25T14:34:38.899Z</time></trkpt><trkpt lat="42.750656742864706" lon="10.26048729658965"><ele>160.16666666666666</ele><time>2026-04-25T14:34:40.899Z</time></trkpt><trkpt lat="42.75066418308746" lon="10.260584791091494"><ele>162.0</ele><time>2026-04-25T14:34:42.899Z</time></trkpt><trkpt lat="42.75066089885603" lon="10.26071143286035"><ele>164.33333333333334</ele><time>2026-04-25T14:34:45.899Z</time></trkpt><trkpt lat="42.750677098523106" lon="10.260797624279688"><ele>166.66666666666666</ele><time>2026-04-25T14:34:53.899Z</time></trkpt><trkpt lat="42.75072520347573" lon="10.260911744076587"><ele>169.0</ele><time>2026-04-25T14:34:56.899Z</time></trkpt><trkpt lat="42.750668141690134" lon="10.26102204803034"><ele>171.33333333333331</ele><time>2026-04-25T14:34:59.899Z</time></trkpt><trkpt lat="42.75061371999491" lon="10.261087785225243"><ele>173.66666666666666</ele><time>2026-04-25T14:35:02.899Z</time></trkpt><trkpt lat="42.75063804620569" lon="10.26117666027943"><ele>176.0</ele><time>2026-04-25T14:35:10.9Z</time></trkpt><trkpt lat="42.75068184841" lon="10.261256705360996"><ele>176.0</ele><time>2026-04-25T14:35:14.901Z</time></trkpt><trkpt lat="42.75072634896235" lon="10.261348169773028"><ele>176.0</ele><time>2026-04-25T14:35:18.9Z</time></trkpt><trkpt lat="42.75078380580299" lon="10.26141509870339"><ele>176.0</ele><time>2026-04-25T14:35:20.901Z</time></trkpt><trkpt lat="42.75083168751358" lon="10.26148329827122"><ele>176.0</ele><time>2026-04-25T14:35:22.901Z</time></trkpt><trkpt lat="42.750882453554595" lon="10.261555993713136"><ele>176.0</ele><time>2026-04-25T14:35:24.901Z</time></trkpt><trkpt lat="42.750922344734185" lon="10.261653077766221"><ele>176.0</ele><time>2026-04-25T14:35:26.901Z</time></trkpt><trkpt lat="42.75095143486471" lon="10.261745164544466"><ele>177.16666666666666</ele><time>2026-04-25T14:35:28.901Z</time></trkpt><trkpt lat="42.75099874003053" lon="10.261802228757782"><ele>178.33333333333331</ele><time>2026-04-25T14:35:30.901Z</time></trkpt><trkpt lat="42.75106785099224" lon="10.261837213115564"><ele>179.5</ele><time>2026-04-25T14:35:33.901Z</time></trkpt><trkpt lat="42.75112013723931" lon="10.261910806773678"><ele>180.66666666666666</ele><time>2026-04-25T14:35:35.901Z</time></trkpt><trkpt lat="42.751133176585704" lon="10.262013112373431"><ele>181.83333333333334</ele><time>2026-04-25T14:35:38.9Z</time></trkpt><trkpt lat="42.75110298179806" lon="10.262107172741368"><ele>183.0</ele><time>2026-04-25T14:35:41.9Z</time></trkpt><trkpt lat="42.75116028611262" lon="10.262205872350584"><ele>183.0</ele><time>2026-04-25T14:35:44.9Z</time></trkpt><trkpt lat="42.75120931414556" lon="10.26225997202928"><ele>183.0</ele><time>2026-04-25T14:35:47.9Z</time></trkpt><trkpt lat="42.751221054482166" lon="10.26235976002697"><ele>183.0</ele><time>2026-04-25T14:36:00.9Z</time></trkpt><trkpt lat="42.75124805529573" lon="10.2624398261246"><ele>183.0</ele><time>2026-04-25T14:36:43.899Z</time></trkpt><trkpt lat="42.75129851620567" lon="10.262527893153099"><ele>183.0</ele><time>2026-04-25T14:36:47.899Z</time></trkpt><trkpt lat="42.75134859465383" lon="10.262581433883252"><ele>183.0</ele><time>2026-04-25T14:36:56.899Z</time></trkpt><trkpt lat="42.75141944973174" lon="10.262620694531371"><ele>183.0</ele><time>2026-04-25T14:36:59.899Z</time></trkpt><trkpt lat="42.751483034138296" lon="10.26268032954732"><ele>187.14285714285714</ele><time>2026-04-25T14:37:03.899Z</time></trkpt><trkpt lat="42.75146122147341" lon="10.26276896136267"><ele>191.28571428571428</ele><time>2026-04-25T14:37:12.899Z</time></trkpt><trkpt lat="42.751452448649495" lon="10.262857632288338"><ele>195.42857142857144</ele><time>2026-04-25T14:37:22.9Z</time></trkpt><trkpt lat="42.751504307721596" lon="10.262935334114372"><ele>199.57142857142856</ele><time>2026-04-25T14:37:27.9Z</time></trkpt><trkpt lat="42.751566991679425" lon="10.263013079044477"><ele>203.7142857142857</ele><time>2026-04-25T14:37:49.9Z</time></trkpt><trkpt lat="42.751616343501105" lon="10.263072212719983"><ele>207.85714285714286</ele><time>2026-04-25T14:37:53.9Z</time></trkpt><trkpt lat="42.75166604000297" lon="10.263136155888125"><ele>212.0</ele><time>2026-04-25T14:37:56.9Z</time></trkpt><trkpt lat="42.751720711656816" lon="10.263207224178382"><ele>215.00000000000003</ele><time>2026-04-25T14:38:00.899Z</time></trkpt><trkpt lat="42.751763630502666" lon="10.263313554586302"><ele>218.0</ele><time>2026-04-25T14:38:04.899Z</time></trkpt><trkpt lat="42.75180332442651" lon="10.26341922798034"><ele>221.0</ele><time>2026-04-25T14:38:06.899Z</time></trkpt><trkpt lat="42.75184443741332" lon="10.263493438789865"><ele>224.0</ele><time>2026-04-25T14:38:08.899Z</time></trkpt><trkpt lat="42.751887462339496" lon="10.263556254175537"><ele>227.00000000000003</ele><time>2026-04-25T14:38:11.899Z</time></trkpt><trkpt lat="42.7519429732049" lon="10.263609851868022"><ele>230.0</ele><time>2026-04-25T14:38:19.899Z</time></trkpt><trkpt lat="42.752014558655176" lon="10.263690073281431"><ele>230.00000000000003</ele><time>2026-04-25T14:38:43.899Z</time></trkpt><trkpt lat="42.752073659385964" lon="10.263788161286215"><ele>230.0</ele><time>2026-04-25T14:38:46.899Z</time></trkpt><trkpt lat="42.75209309406706" lon="10.263885499656174"><ele>230.0</ele><time>2026-04-25T14:38:49.898Z</time></trkpt><trkpt lat="42.752133974188666" lon="10.263969924802138"><ele>230.0</ele><time>2026-04-25T14:38:52.898Z</time></trkpt><trkpt lat="42.75217337205323" lon="10.264055121550154"><ele>230.00000000000003</ele><time>2026-04-25T14:38:55.898Z</time></trkpt><trkpt lat="42.75219982651699" lon="10.264160918505716"><ele>230.0</ele><time>2026-04-25T14:38:58.898Z</time></trkpt><trkpt lat="42.752229367574735" lon="10.264240652251566"><ele>233.00000000000003</ele><time>2026-04-25T14:39:01.898Z</time></trkpt><trkpt lat="42.75226067353552" lon="10.264326862983228"><ele>236.0</ele><time>2026-04-25T14:39:04.898Z</time></trkpt><trkpt lat="42.752298729143604" lon="10.264447056276605"><ele>239.0</ele><time>2026-04-25T14:39:07.898Z</time></trkpt><trkpt lat="42.752357145224025" lon="10.26455179953221"><ele>242.0</ele><time>2026-04-25T14:39:09.898Z</time></trkpt><trkpt lat="42.752406345110195" lon="10.264642384819496"><ele>245.00000000000003</ele><time>2026-04-25T14:39:12.898Z</time></trkpt><trkpt lat="42.75245280661201" lon="10.264739457162516"><ele>248.0</ele><time>2026-04-25T14:39:14.898Z</time></trkpt><trkpt lat="42.752481411749535" lon="10.26486323273071"><ele>248.50000000000003</ele><time>2026-04-25T14:39:17.898Z</time></trkpt><trkpt lat="42.752517014493044" lon="10.264950615209813"><ele>249.0</ele><time>2026-04-25T14:39:20.9Z</time></trkpt><trkpt lat="42.752547110224796" lon="10.265045461654479"><ele>249.5</ele><time>2026-04-25T14:39:23.901Z</time></trkpt><trkpt lat="42.75256506393411" lon="10.2651573094205"><ele>250.0</ele><time>2026-04-25T14:39:26.9Z</time></trkpt><trkpt lat="42.75257782792839" lon="10.265270072972665"><ele>250.50000000000003</ele><time>2026-04-25T14:39:29.9Z</time></trkpt><trkpt lat="42.75259822299089" lon="10.265374488627016"><ele>251.0</ele><time>2026-04-25T14:39:32.9Z</time></trkpt><trkpt lat="42.75262831351233" lon="10.265488081068211"><ele>251.00000000000003</ele><time>2026-04-25T14:39:35.899Z</time></trkpt><trkpt lat="42.75265252332494" lon="10.265584573639392"><ele>251.0</ele><time>2026-04-25T14:39:38.899Z</time></trkpt><trkpt lat="42.752657728982" lon="10.265677477648618"><ele>251.0</ele><time>2026-04-25T14:39:41.899Z</time></trkpt><trkpt lat="42.752675262685585" lon="10.265767850905846"><ele>251.0</ele><time>2026-04-25T14:39:43.899Z</time></trkpt><trkpt lat="42.75268558094802" lon="10.265857991255013"><ele>251.00000000000003</ele><time>2026-04-25T14:39:45.899Z</time></trkpt><trkpt lat="42.75268920747348" lon="10.265983650084756"><ele>251.0</ele><time>2026-04-25T14:39:48.899Z</time></trkpt><trkpt lat="42.75272081442846" lon="10.266095150053799"><ele>250.16666666666669</ele><time>2026-04-25T14:39:50.899Z</time></trkpt><trkpt lat="42.752754677779265" lon="10.26619139454501"><ele>249.33333333333334</ele><time>2026-04-25T14:39:53.899Z</time></trkpt><trkpt lat="42.75278183502093" lon="10.266297270070035"><ele>248.5</ele><time>2026-04-25T14:39:55.899Z</time></trkpt><trkpt lat="42.752808631440004" lon="10.266378882047997"><ele>247.66666666666669</ele><time>2026-04-25T14:39:57.899Z</time></trkpt><trkpt lat="42.75283298648769" lon="10.26648517057421"><ele>246.83333333333334</ele><time>2026-04-25T14:40:01.899Z</time></trkpt><trkpt lat="42.752862075616704" lon="10.266589256021799"><ele>246.0</ele><time>2026-04-25T14:40:04.899Z</time></trkpt><trkpt lat="42.752855138168854" lon="10.26668830182005"><ele>247.42857142857144</ele><time>2026-04-25T14:40:07.899Z</time></trkpt><trkpt lat="42.75284029443219" lon="10.26678107473993"><ele>248.85714285714286</ele><time>2026-04-25T14:40:10.899Z</time></trkpt><trkpt lat="42.752850046503035" lon="10.266871118640863"><ele>250.28571428571428</ele><time>2026-04-25T14:40:13.899Z</time></trkpt><trkpt lat="42.752865737183065" lon="10.266969262748013"><ele>251.71428571428572</ele><time>2026-04-25T14:40:16.899Z</time></trkpt><trkpt lat="42.75289463126407" lon="10.267052547114034"><ele>253.1428571428571</ele><time>2026-04-25T14:40:18.898Z</time></trkpt><trkpt lat="42.75292864713052" lon="10.267150412281767"><ele>254.57142857142856</ele><time>2026-04-25T14:40:21.898Z</time></trkpt><trkpt lat="42.75298365940291" lon="10.267229308715432"><ele>256.0</ele><time>2026-04-25T14:40:24.898Z</time></trkpt><trkpt lat="42.753036027337195" lon="10.26730534081981"><ele>258.3333333333333</ele><time>2026-04-25T14:40:27.898Z</time></trkpt><trkpt lat="42.75307897478991" lon="10.267381051458294"><ele>260.66666666666663</ele><time>2026-04-25T14:40:29.898Z</time></trkpt><trkpt lat="42.753142235738885" lon="10.267442669067838"><ele>263.0</ele><time>2026-04-25T14:40:32.898Z</time></trkpt><trkpt lat="42.75321002240487" lon="10.267487311542522"><ele>265.3333333333333</ele><time>2026-04-25T14:40:35.897Z</time></trkpt><trkpt lat="42.75326538024204" lon="10.267561025088428"><ele>267.6666666666667</ele><time>2026-04-25T14:40:37.897Z</time></trkpt><trkpt lat="42.75331894900053" lon="10.267671180253116"><ele>270.0</ele><time>2026-04-25T14:40:41.897Z</time></trkpt><trkpt lat="42.753361851488386" lon="10.26774447168056"><ele>270.0</ele><time>2026-04-25T14:40:47.896Z</time></trkpt><trkpt lat="42.75340406372288" lon="10.267822895659963"><ele>270.0</ele><time>2026-04-25T14:40:52.896Z</time></trkpt><trkpt lat="42.753437633494634" lon="10.267902518082142"><ele>270.0</ele><time>2026-04-25T14:40:57.896Z</time></trkpt><trkpt lat="42.75348182784233" lon="10.2679846416268"><ele>270.0</ele><time>2026-04-25T14:41:07.895Z</time></trkpt><trkpt lat="42.75352311128664" lon="10.268059276767977"><ele>270.0</ele><time>2026-04-25T14:41:11.895Z</time></trkpt><trkpt lat="42.753571887369006" lon="10.268145834362748"><ele>270.0</ele><time>2026-04-25T14:41:15.895Z</time></trkpt><trkpt lat="42.75361355015978" lon="10.268219802394825"><ele>270.0</ele><time>2026-04-25T14:41:19.895Z</time></trkpt><trkpt lat="42.75365439469975" lon="10.26828995061395"><ele>270.85714285714283</ele><time>2026-04-25T14:41:22.895Z</time></trkpt><trkpt lat="42.75368373004063" lon="10.268386737724951"><ele>271.71428571428567</ele><time>2026-04-25T14:41:26.898Z</time></trkpt><trkpt lat="42.75373132080225" lon="10.268476484705845"><ele>272.57142857142856</ele><time>2026-04-25T14:41:30.897Z</time></trkpt><trkpt lat="42.753787548507816" lon="10.268541926167867"><ele>273.42857142857144</ele><time>2026-04-25T14:41:37.897Z</time></trkpt><trkpt lat="42.753856068602666" lon="10.268604465301834"><ele>274.28571428571433</ele><time>2026-04-25T14:41:40.897Z</time></trkpt><trkpt lat="42.75391587077886" lon="10.268635169279493"><ele>275.14285714285717</ele><time>2026-04-25T14:41:43.897Z</time></trkpt><trkpt lat="42.75394307173173" lon="10.268723138368504"><ele>276.0</ele><time>2026-04-25T14:41:46.897Z</time></trkpt><trkpt lat="42.75391994296319" lon="10.268820493237053"><ele>276.0</ele><time>2026-04-25T14:41:50.897Z</time></trkpt><trkpt lat="42.75390370158907" lon="10.268923767434474"><ele>276.0</ele><time>2026-04-25T14:41:55.897Z</time></trkpt><trkpt lat="42.75391645857718" lon="10.269016831184732"><ele>276.0</ele><time>2026-04-25T14:41:59.897Z</time></trkpt><trkpt lat="42.75394028006683" lon="10.269111071873459"><ele>276.0</ele><time>2026-04-25T14:42:02.897Z</time></trkpt><trkpt lat="42.753976371098666" lon="10.269187856340137"><ele>276.0</ele><time>2026-04-25T14:42:05.897Z</time></trkpt><trkpt lat="42.75401203548712" lon="10.269287302170252"><ele>276.0</ele><time>2026-04-25T14:42:09.897Z</time></trkpt><trkpt lat="42.75403092748599" lon="10.269370258473538"><ele>276.0</ele><time>2026-04-25T14:42:12.897Z</time></trkpt><trkpt lat="42.75407014120679" lon="10.26946410440669"><ele>278.3333333333333</ele><time>2026-04-25T14:42:16.897Z</time></trkpt><trkpt lat="42.75411392493291" lon="10.269550914189887"><ele>280.6666666666667</ele><time>2026-04-25T14:42:19.897Z</time></trkpt><trkpt lat="42.75415629856375" lon="10.269644985051755"><ele>283.0</ele><time>2026-04-25T14:42:21.897Z</time></trkpt><trkpt lat="42.75418707686086" lon="10.269723804107482"><ele>285.33333333333337</ele><time>2026-04-25T14:42:24.897Z</time></trkpt><trkpt lat="42.75421027035235" lon="10.269824101753821"><ele>287.6666666666667</ele><time>2026-04-25T14:42:27.897Z</time></trkpt><trkpt lat="42.75422470177814" lon="10.269919648289308"><ele>290.0</ele><time>2026-04-25T14:42:30.896Z</time></trkpt><trkpt lat="42.754221290165" lon="10.270026175660924"><ele>291.0</ele><time>2026-04-25T14:42:34.896Z</time></trkpt><trkpt lat="42.754210595007855" lon="10.270124639132808"><ele>292.0</ele><time>2026-04-25T14:42:38.896Z</time></trkpt><trkpt lat="42.75425007654772" lon="10.270192322504286"><ele>293.0</ele><time>2026-04-25T14:42:40.896Z</time></trkpt><trkpt lat="42.75430527258079" lon="10.270280343405672"><ele>294.0</ele><time>2026-04-25T14:42:43.896Z</time></trkpt><trkpt lat="42.7543555039325" lon="10.270332147992995"><ele>295.0</ele><time>2026-04-25T14:42:45.896Z</time></trkpt><trkpt lat="42.7544078087656" lon="10.270383373451626"><ele>296.0</ele><time>2026-04-25T14:42:47.896Z</time></trkpt><trkpt lat="42.75446228246441" lon="10.270447438701808"><ele>297.0</ele><time>2026-04-25T14:42:52.896Z</time></trkpt><trkpt lat="42.75451213685922" lon="10.270528256379462"><ele>300.5</ele><time>2026-04-25T14:42:55.896Z</time></trkpt><trkpt lat="42.754541450294006" lon="10.270613356650959"><ele>304.0</ele><time>2026-04-25T14:42:59.896Z</time></trkpt><trkpt lat="42.75456437691829" lon="10.270714530162042"><ele>307.5</ele><time>2026-04-25T14:43:02.896Z</time></trkpt><trkpt lat="42.754608931561876" lon="10.270810575884179"><ele>311.0</ele><time>2026-04-25T14:43:05.896Z</time></trkpt><trkpt lat="42.754650334431176" lon="10.270879458198097"><ele>314.5</ele><time>2026-04-25T14:43:08.896Z</time></trkpt><trkpt lat="42.75469701953037" lon="10.270958509851944"><ele>318.0</ele><time>2026-04-25T14:43:11.896Z</time></trkpt><trkpt lat="42.75476568204112" lon="10.271029078793106"><ele>318.0</ele><time>2026-04-25T14:43:15.896Z</time></trkpt><trkpt lat="42.754838305822595" lon="10.271080715260915"><ele>318.0</ele><time>2026-04-25T14:43:18.896Z</time></trkpt><trkpt lat="42.75488330835226" lon="10.271152389351741"><ele>318.0</ele><time>2026-04-25T14:43:21.895Z</time></trkpt><trkpt lat="42.754927940186846" lon="10.27121786748917"><ele>318.0</ele><time>2026-04-25T14:43:24.895Z</time></trkpt><trkpt lat="42.754986630339424" lon="10.271279763404461"><ele>318.0</ele><time>2026-04-25T14:43:27.895Z</time></trkpt><trkpt lat="42.75500208153305" lon="10.27137090702073"><ele>318.0</ele><time>2026-04-25T14:43:31.895Z</time></trkpt><trkpt lat="42.75499910485663" lon="10.271463796419118"><ele>318.0</ele><time>2026-04-25T14:43:34.897Z</time></trkpt><trkpt lat="42.75502405095818" lon="10.271544793412861"><ele>321.3333333333333</ele><time>2026-04-25T14:43:41.897Z</time></trkpt><trkpt lat="42.75506485704722" lon="10.271662058740608"><ele>324.6666666666667</ele><time>2026-04-25T14:44:16.895Z</time></trkpt><trkpt lat="42.75513241628244" lon="10.271748495473414"><ele>328.0</ele><time>2026-04-25T14:44:19.895Z</time></trkpt><trkpt lat="42.75520852963839" lon="10.271774349257106"><ele>331.33333333333337</ele><time>2026-04-25T14:44:22.895Z</time></trkpt><trkpt lat="42.75524440705355" lon="10.271857566324103"><ele>334.6666666666667</ele><time>2026-04-25T14:44:24.895Z</time></trkpt><trkpt lat="42.755289362825" lon="10.271980643558129"><ele>338.0</ele><time>2026-04-25T14:44:26.895Z</time></trkpt><trkpt lat="42.75537522116332" lon="10.271996933007896"><ele>340.33333333333337</ele><time>2026-04-25T14:44:29.895Z</time></trkpt><trkpt lat="42.75545219468892" lon="10.272058297822587"><ele>342.6666666666667</ele><time>2026-04-25T14:44:32.895Z</time></trkpt><trkpt lat="42.75552495143365" lon="10.272131622014527"><ele>345.0</ele><time>2026-04-25T14:44:35.895Z</time></trkpt><trkpt lat="42.75558378495953" lon="10.272192560583237"><ele>347.3333333333333</ele><time>2026-04-25T14:44:38.895Z</time></trkpt><trkpt lat="42.755638940131874" lon="10.272265944530062"><ele>349.66666666666663</ele><time>2026-04-25T14:44:41.895Z</time></trkpt><trkpt lat="42.75570146506157" lon="10.272347824850224"><ele>352.0</ele><time>2026-04-25T14:44:45.895Z</time></trkpt><trkpt lat="42.755731774645916" lon="10.272436098267281"><ele>353.8333333333333</ele><time>2026-04-25T14:44:48.895Z</time></trkpt><trkpt lat="42.75578206355038" lon="10.272527063750147"><ele>355.66666666666663</ele><time>2026-04-25T14:44:51.895Z</time></trkpt><trkpt lat="42.75583602456344" lon="10.272610248791876"><ele>357.5</ele><time>2026-04-25T14:44:54.895Z</time></trkpt><trkpt lat="42.75588722966178" lon="10.272688962580217"><ele>359.3333333333333</ele><time>2026-04-25T14:44:57.895Z</time></trkpt><trkpt lat="42.75588490586497" lon="10.272800007937443"><ele>361.1666666666667</ele><time>2026-04-25T14:47:38.894Z</time></trkpt><trkpt lat="42.75582503508565" lon="10.272892742479597"><ele>363.0</ele><time>2026-04-25T14:47:40.894Z</time></trkpt><trkpt lat="42.755780554380436" lon="10.27297878621232"><ele>362.99999999999994</ele><time>2026-04-25T14:47:42.893Z</time></trkpt><trkpt lat="42.75576766564048" lon="10.273090491024279"><ele>363.0</ele><time>2026-04-25T14:47:45.895Z</time></trkpt><trkpt lat="42.755784824371666" lon="10.273190473324274"><ele>363.0</ele><time>2026-04-25T14:47:47.896Z</time></trkpt><trkpt lat="42.755775115571865" lon="10.27329361955575"><ele>363.0</ele><time>2026-04-25T15:04:43.898Z</time></trkpt><trkpt lat="42.755760794404814" lon="10.273206186099374"><ele>363.0</ele><time>2026-04-25T15:16:06.921Z</time></trkpt><trkpt lat="42.75574934427329" lon="10.273113138190022"><ele>362.99999999999994</ele><time>2026-04-25T15:16:13.921Z</time></trkpt><trkpt lat="42.755739101504695" lon="10.273012640285447"><ele>363.0</ele><time>2026-04-25T15:17:13.922Z</time></trkpt><trkpt lat="42.75573306740788" lon="10.273108727478004"><ele>363.1666666666667</ele><time>2026-04-25T15:31:38.94Z</time></trkpt><trkpt lat="42.75574444728832" lon="10.273204453089788"><ele>363.3333333333333</ele><time>2026-04-25T15:31:44.939Z</time></trkpt><trkpt lat="42.75574078608127" lon="10.273292407937356"><ele>363.5</ele><time>2026-04-25T15:31:51.94Z</time></trkpt><trkpt lat="42.755714907053154" lon="10.273385702828778"><ele>363.66666666666663</ele><time>2026-04-25T15:39:47.941Z</time></trkpt><trkpt lat="42.75568753925611" lon="10.273472015850581"><ele>363.8333333333333</ele><time>2026-04-25T15:39:51.941Z</time></trkpt><trkpt lat="42.75568663438418" lon="10.273600538730257"><ele>364.0</ele><time>2026-04-25T15:39:54.941Z</time></trkpt><trkpt lat="42.755687455241684" lon="10.273706437308128"><ele>364.0</ele><time>2026-04-25T15:39:56.941Z</time></trkpt><trkpt lat="42.75568699178444" lon="10.273817182262967"><ele>364.0</ele><time>2026-04-25T15:39:58.941Z</time></trkpt><trkpt lat="42.755661528035695" lon="10.273940306024697"><ele>364.0</ele><time>2026-04-25T15:40:00.941Z</time></trkpt><trkpt lat="42.75565088158511" lon="10.274028680173517"><ele>364.0</ele><time>2026-04-25T15:40:02.941Z</time></trkpt><trkpt lat="42.755644575790555" lon="10.274158330689062"><ele>364.0</ele><time>2026-04-25T15:40:04.941Z</time></trkpt><trkpt lat="42.75562340688883" lon="10.274283726878965"><ele>364.0</ele><time>2026-04-25T15:40:06.941Z</time></trkpt><trkpt lat="42.7555986313319" lon="10.274411959356065"><ele>362.2</ele><time>2026-04-25T15:40:08.941Z</time></trkpt><trkpt lat="42.75558396854217" lon="10.274569941946007"><ele>360.4</ele><time>2026-04-25T15:40:10.943Z</time></trkpt><trkpt lat="42.755575929537414" lon="10.274678588838263"><ele>358.6</ele><time>2026-04-25T15:40:11.943Z</time></trkpt><trkpt lat="42.75556791117443" lon="10.274797069143009"><ele>356.8</ele><time>2026-04-25T15:40:12.943Z</time></trkpt><trkpt lat="42.75553654828871" lon="10.274905676179324"><ele>355.0</ele><time>2026-04-25T15:40:13.944Z</time></trkpt><trkpt lat="42.75552323110269" lon="10.27501478905519"><ele>353.5</ele><time>2026-04-25T15:40:14.943Z</time></trkpt><trkpt lat="42.75549766809427" lon="10.275127262495166"><ele>352.0</ele><time>2026-04-25T15:40:15.943Z</time></trkpt><trkpt lat="42.75548077974632" lon="10.275241749572823"><ele>350.5</ele><time>2026-04-25T15:40:16.943Z</time></trkpt><trkpt lat="42.75546619341918" lon="10.27534731466931"><ele>349.0</ele><time>2026-04-25T15:40:17.943Z</time></trkpt><trkpt lat="42.75544801253076" lon="10.27543958778028"><ele>347.5</ele><time>2026-04-25T15:40:18.943Z</time></trkpt><trkpt lat="42.75542075480648" lon="10.275527424657957"><ele>346.0</ele><time>2026-04-25T15:40:19.943Z</time></trkpt><trkpt lat="42.75537932124041" lon="10.275608953621337"><ele>345.57142857142856</ele><time>2026-04-25T15:40:20.943Z</time></trkpt><trkpt lat="42.75532390581596" lon="10.275662279002574"><ele>345.14285714285717</ele><time>2026-04-25T15:40:21.943Z</time></trkpt><trkpt lat="42.75525322439372" lon="10.275688882228318"><ele>344.7142857142857</ele><time>2026-04-25T15:40:22.944Z</time></trkpt><trkpt lat="42.75517755578178" lon="10.275697781270916"><ele>344.2857142857143</ele><time>2026-04-25T15:40:23.944Z</time></trkpt><trkpt lat="42.7551066825962" lon="10.275722232902508"><ele>343.8571428571429</ele><time>2026-04-25T15:40:24.944Z</time></trkpt><trkpt lat="42.75504107344493" lon="10.275760077127401"><ele>343.42857142857144</ele><time>2026-04-25T15:40:25.944Z</time></trkpt><trkpt lat="42.75497768110373" lon="10.275816443520212"><ele>343.0</ele><time>2026-04-25T15:40:26.944Z</time></trkpt><trkpt lat="42.75491849884934" lon="10.27588140439481"><ele>343.0</ele><time>2026-04-25T15:40:27.944Z</time></trkpt><trkpt lat="42.7548555853465" lon="10.275962243600928"><ele>343.0</ele><time>2026-04-25T15:40:28.944Z</time></trkpt><trkpt lat="42.75479331727654" lon="10.27603725402664"><ele>343.0</ele><time>2026-04-25T15:40:29.944Z</time></trkpt><trkpt lat="42.75473178117423" lon="10.276116291768808"><ele>343.0</ele><time>2026-04-25T15:40:30.944Z</time></trkpt><trkpt lat="42.75467091025646" lon="10.276193421939173"><ele>343.0</ele><time>2026-04-25T15:40:31.944Z</time></trkpt><trkpt lat="42.754609805148974" lon="10.27624568082766"><ele>343.0</ele><time>2026-04-25T15:40:32.944Z</time></trkpt><trkpt lat="42.7545368471277" lon="10.276285525195416"><ele>343.0</ele><time>2026-04-25T15:40:33.944Z</time></trkpt><trkpt lat="42.75442935934422" lon="10.276332711622388"><ele>343.0</ele><time>2026-04-25T15:40:35.944Z</time></trkpt><trkpt lat="42.75436371250241" lon="10.276370735156924"><ele>343.0</ele><time>2026-04-25T15:40:37.944Z</time></trkpt><trkpt lat="42.75430977700012" lon="10.276415011049433"><ele>343.0</ele><time>2026-04-25T15:40:50.944Z</time></trkpt><trkpt lat="42.7542176679123" lon="10.276431800295104"><ele>343.0</ele><time>2026-04-25T15:40:52.944Z</time></trkpt><trkpt lat="42.754122122078876" lon="10.276457099439249"><ele>343.0</ele><time>2026-04-25T15:40:54.945Z</time></trkpt><trkpt lat="42.7540086087682" lon="10.276482423627547"><ele>341.5</ele><time>2026-04-25T15:40:56.945Z</time></trkpt><trkpt lat="42.75394596415674" lon="10.27647297311901"><ele>340.0</ele><time>2026-04-25T15:40:57.945Z</time></trkpt><trkpt lat="42.75388048530907" lon="10.276467846207051"><ele>338.5</ele><time>2026-04-25T15:40:58.945Z</time></trkpt><trkpt lat="42.75374536507126" lon="10.276504347340962"><ele>337.0</ele><time>2026-04-25T15:41:00.946Z</time></trkpt><trkpt lat="42.75365890078505" lon="10.276528856347134"><ele>335.5</ele><time>2026-04-25T15:41:01.946Z</time></trkpt><trkpt lat="42.753578506654186" lon="10.276547026189224"><ele>334.0</ele><time>2026-04-25T15:41:02.946Z</time></trkpt><trkpt lat="42.753504249038876" lon="10.27657375530461"><ele>332.0</ele><time>2026-04-25T15:41:03.946Z</time></trkpt><trkpt lat="42.75343711105032" lon="10.276580307107047"><ele>330.0</ele><time>2026-04-25T15:41:04.946Z</time></trkpt><trkpt lat="42.75337092201486" lon="10.276603339465609"><ele>328.0</ele><time>2026-04-25T15:41:05.946Z</time></trkpt><trkpt lat="42.753287712622225" lon="10.276621496488993"><ele>326.0</ele><time>2026-04-25T15:41:06.946Z</time></trkpt><trkpt lat="42.753207079532345" lon="10.276638167413289"><ele>324.0</ele><time>2026-04-25T15:41:07.947Z</time></trkpt><trkpt lat="42.75312059025553" lon="10.276653903231669"><ele>322.0</ele><time>2026-04-25T15:41:08.947Z</time></trkpt><trkpt lat="42.75303607119735" lon="10.276675860104035"><ele>322.0</ele><time>2026-04-25T15:41:09.947Z</time></trkpt><trkpt lat="42.752960637212816" lon="10.27669850510475"><ele>322.0</ele><time>2026-04-25T15:41:10.947Z</time></trkpt><trkpt lat="42.75286281563023" lon="10.27671038150702"><ele>322.0</ele><time>2026-04-25T15:41:11.947Z</time></trkpt><trkpt lat="42.75277797119074" lon="10.276707878894491"><ele>322.0</ele><time>2026-04-25T15:41:12.947Z</time></trkpt><trkpt lat="42.752696651764246" lon="10.276718326537127"><ele>322.0</ele><time>2026-04-25T15:41:13.947Z</time></trkpt><trkpt lat="42.75261709048368" lon="10.276734229864582"><ele>322.0</ele><time>2026-04-25T15:41:14.947Z</time></trkpt><trkpt lat="42.752545890398736" lon="10.27677396145447"><ele>319.85714285714283</ele><time>2026-04-25T15:41:15.947Z</time></trkpt><trkpt lat="42.75247365523568" lon="10.276813303598006"><ele>317.7142857142857</ele><time>2026-04-25T15:41:16.947Z</time></trkpt><trkpt lat="42.75240338599326" lon="10.276827052589734"><ele>315.57142857142856</ele><time>2026-04-25T15:41:17.947Z</time></trkpt><trkpt lat="42.75233207394679" lon="10.276817987875875"><ele>313.42857142857144</ele><time>2026-04-25T15:41:18.947Z</time></trkpt><trkpt lat="42.75226360488822" lon="10.276803249908264"><ele>311.2857142857143</ele><time>2026-04-25T15:41:19.947Z</time></trkpt><trkpt lat="42.75220592977054" lon="10.276761793252955"><ele>309.1428571428571</ele><time>2026-04-25T15:41:20.947Z</time></trkpt><trkpt lat="42.75215484248521" lon="10.276707132834328"><ele>307.0</ele><time>2026-04-25T15:41:21.947Z</time></trkpt><trkpt lat="42.752068501217174" lon="10.276691669288795"><ele>307.0</ele><time>2026-04-25T15:41:23.947Z</time></trkpt><trkpt lat="42.75201083839582" lon="10.276808907334784"><ele>307.0</ele><time>2026-04-25T15:41:25.948Z</time></trkpt><trkpt lat="42.751970217648996" lon="10.276893899222427"><ele>307.0</ele><time>2026-04-25T15:41:26.948Z</time></trkpt><trkpt lat="42.75191095296989" lon="10.276996949558898"><ele>307.0</ele><time>2026-04-25T15:41:27.948Z</time></trkpt><trkpt lat="42.751838042909924" lon="10.277094196383784"><ele>307.0</ele><time>2026-04-25T15:41:28.948Z</time></trkpt><trkpt lat="42.75177812265792" lon="10.277175358021344"><ele>305.3333333333333</ele><time>2026-04-25T15:41:29.948Z</time></trkpt><trkpt lat="42.75172773578852" lon="10.277265531713489"><ele>303.66666666666663</ele><time>2026-04-25T15:41:30.948Z</time></trkpt><trkpt lat="42.7516913702389" lon="10.27736908052999"><ele>302.0</ele><time>2026-04-25T15:41:31.948Z</time></trkpt><trkpt lat="42.75165052618633" lon="10.277475431760818"><ele>300.3333333333333</ele><time>2026-04-25T15:41:32.948Z</time></trkpt><trkpt lat="42.751596196223296" lon="10.277559252605494"><ele>298.6666666666667</ele><time>2026-04-25T15:41:33.948Z</time></trkpt><trkpt lat="42.751524845544154" lon="10.277623977083767"><ele>297.0</ele><time>2026-04-25T15:41:34.948Z</time></trkpt><trkpt lat="42.75143504377244" lon="10.277680942432667"><ele>297.0</ele><time>2026-04-25T15:41:35.948Z</time></trkpt><trkpt lat="42.75134931343454" lon="10.277751532504144"><ele>297.0</ele><time>2026-04-25T15:41:36.948Z</time></trkpt><trkpt lat="42.75127729386369" lon="10.27782845823281"><ele>297.0</ele><time>2026-04-25T15:41:37.948Z</time></trkpt><trkpt lat="42.75122089247915" lon="10.277917850885695"><ele>297.0</ele><time>2026-04-25T15:41:38.948Z</time></trkpt><trkpt lat="42.751172081426105" lon="10.278002525490772"><ele>297.0</ele><time>2026-04-25T15:41:39.948Z</time></trkpt><trkpt lat="42.75112684220943" lon="10.278083799315517"><ele>297.0</ele><time>2026-04-25T15:41:40.948Z</time></trkpt><trkpt lat="42.751082702768244" lon="10.278152695279184"><ele>297.3333333333333</ele><time>2026-04-25T15:41:41.948Z</time></trkpt><trkpt lat="42.75100678802432" lon="10.278278651975398"><ele>297.6666666666667</ele><time>2026-04-25T15:41:43.948Z</time></trkpt><trkpt lat="42.750969151645066" lon="10.278358916457021"><ele>298.0</ele><time>2026-04-25T15:41:46.948Z</time></trkpt><trkpt lat="42.75103076754909" lon="10.278472143363214"><ele>298.33333333333337</ele><time>2026-04-25T15:42:00.948Z</time></trkpt><trkpt lat="42.751058515849024" lon="10.278554239041387"><ele>298.6666666666667</ele><time>2026-04-25T15:42:01.948Z</time></trkpt><trkpt lat="42.75106497609485" lon="10.278650940348932"><ele>299.0</ele><time>2026-04-25T15:42:02.948Z</time></trkpt><trkpt lat="42.75106219301676" lon="10.278752567043838"><ele>298.1666666666667</ele><time>2026-04-25T15:42:03.948Z</time></trkpt><trkpt lat="42.75105306249015" lon="10.278878430350353"><ele>297.33333333333337</ele><time>2026-04-25T15:42:04.948Z</time></trkpt><trkpt lat="42.751024661093005" lon="10.278984812433478"><ele>296.5</ele><time>2026-04-25T15:42:05.948Z</time></trkpt><trkpt lat="42.75101245489583" lon="10.279110496969766"><ele>295.6666666666667</ele><time>2026-04-25T15:42:06.948Z</time></trkpt><trkpt lat="42.750983677077926" lon="10.279209351708438"><ele>294.8333333333333</ele><time>2026-04-25T15:42:07.948Z</time></trkpt><trkpt lat="42.750936021851224" lon="10.279308449358854"><ele>294.0</ele><time>2026-04-25T15:42:08.948Z</time></trkpt><trkpt lat="42.75089286111476" lon="10.279416803896583"><ele>294.0</ele><time>2026-04-25T15:42:09.948Z</time></trkpt><trkpt lat="42.750866451930776" lon="10.279542961576333"><ele>294.0</ele><time>2026-04-25T15:42:10.948Z</time></trkpt><trkpt lat="42.75083887672279" lon="10.279650138041857"><ele>294.0</ele><time>2026-04-25T15:42:11.948Z</time></trkpt><trkpt lat="42.75080633107583" lon="10.279748074733503"><ele>294.0</ele><time>2026-04-25T15:42:12.948Z</time></trkpt><trkpt lat="42.75075090763481" lon="10.279830819463776"><ele>294.0</ele><time>2026-04-25T15:42:13.948Z</time></trkpt><trkpt lat="42.750676735391124" lon="10.27987217667953"><ele>294.0</ele><time>2026-04-25T15:42:14.948Z</time></trkpt><trkpt lat="42.750591906700265" lon="10.279882375391175"><ele>292.59999999999997</ele><time>2026-04-25T15:42:15.948Z</time></trkpt><trkpt lat="42.75048696199096" lon="10.279861560312801"><ele>291.2</ele><time>2026-04-25T15:42:16.948Z</time></trkpt><trkpt lat="42.75039122292748" lon="10.279840585047618"><ele>289.79999999999995</ele><time>2026-04-25T15:42:17.948Z</time></trkpt><trkpt lat="42.75031745568562" lon="10.279832314817519"><ele>288.4</ele><time>2026-04-25T15:42:18.948Z</time></trkpt><trkpt lat="42.75025431344363" lon="10.279868248893512"><ele>287.0</ele><time>2026-04-25T15:42:19.948Z</time></trkpt><trkpt lat="42.75017197745555" lon="10.279962501675021"><ele>287.0</ele><time>2026-04-25T15:42:20.948Z</time></trkpt><trkpt lat="42.75007451388318" lon="10.280047731999392"><ele>287.0</ele><time>2026-04-25T15:42:21.948Z</time></trkpt><trkpt lat="42.74997211132136" lon="10.280093209988983"><ele>287.0</ele><time>2026-04-25T15:42:22.949Z</time></trkpt><trkpt lat="42.74986554367191" lon="10.280109563775133"><ele>287.0</ele><time>2026-04-25T15:42:23.949Z</time></trkpt><trkpt lat="42.74972262422124" lon="10.280118067072218"><ele>287.0</ele><time>2026-04-25T15:42:24.949Z</time></trkpt><trkpt lat="42.74957160450618" lon="10.280128982772544"><ele>287.0</ele><time>2026-04-25T15:42:25.949Z</time></trkpt><trkpt lat="42.74943600521382" lon="10.280141616788146"><ele>287.0</ele><time>2026-04-25T15:42:26.949Z</time></trkpt><trkpt lat="42.74931053235816" lon="10.280171582975706"><ele>287.0</ele><time>2026-04-25T15:42:27.949Z</time></trkpt><trkpt lat="42.74922377036561" lon="10.28022594323524"><ele>288.8</ele><time>2026-04-25T15:42:28.948Z</time></trkpt><trkpt lat="42.74916266135908" lon="10.280285245592948"><ele>290.6</ele><time>2026-04-25T15:42:29.949Z</time></trkpt><trkpt lat="42.74910922005369" lon="10.28038076226677"><ele>292.40000000000003</ele><time>2026-04-25T15:42:30.949Z</time></trkpt><trkpt lat="42.74905272873221" lon="10.280510832724836"><ele>294.2</ele><time>2026-04-25T15:42:31.949Z</time></trkpt><trkpt lat="42.748992876059845" lon="10.280655913522088"><ele>296.0</ele><time>2026-04-25T15:42:32.949Z</time></trkpt><trkpt lat="42.7489535075415" lon="10.280805249457435"><ele>292.83333333333337</ele><time>2026-04-25T15:42:33.949Z</time></trkpt><trkpt lat="42.748920280550735" lon="10.280913286857716"><ele>289.6666666666667</ele><time>2026-04-25T15:42:34.949Z</time></trkpt><trkpt lat="42.74888783171094" lon="10.280995711397543"><ele>286.5</ele><time>2026-04-25T15:42:35.949Z</time></trkpt><trkpt lat="42.74884344065057" lon="10.281071941878624"><ele>283.3333333333333</ele><time>2026-04-25T15:42:36.949Z</time></trkpt><trkpt lat="42.74878455262612" lon="10.281133451999446"><ele>280.16666666666663</ele><time>2026-04-25T15:42:37.949Z</time></trkpt><trkpt lat="42.7486952201634" lon="10.28117534504775"><ele>277.0</ele><time>2026-04-25T15:42:38.949Z</time></trkpt><trkpt lat="42.748597452061844" lon="10.281206803501306"><ele>281.0</ele><time>2026-04-25T15:42:39.949Z</time></trkpt><trkpt lat="42.74849595577333" lon="10.281235896930102"><ele>285.0</ele><time>2026-04-25T15:42:40.949Z</time></trkpt><trkpt lat="42.7484040342756" lon="10.281269762800184"><ele>289.0</ele><time>2026-04-25T15:42:41.949Z</time></trkpt><trkpt lat="42.74831591544334" lon="10.281304920177071"><ele>293.0</ele><time>2026-04-25T15:42:42.949Z</time></trkpt><trkpt lat="42.74823048547958" lon="10.281340477263653"><ele>297.0</ele><time>2026-04-25T15:42:43.949Z</time></trkpt><trkpt lat="42.7481581119499" lon="10.281365346376203"><ele>297.0</ele><time>2026-04-25T15:42:44.949Z</time></trkpt><trkpt lat="42.7480770128623" lon="10.281398165984013"><ele>297.0</ele><time>2026-04-25T15:42:46.949Z</time></trkpt><trkpt lat="42.74812705134302" lon="10.281485144604627"><ele>297.0</ele><time>2026-04-25T15:42:49.949Z</time></trkpt><trkpt lat="42.74819641613544" lon="10.281477760373432"><ele>297.0</ele><time>2026-04-25T15:42:50.949Z</time></trkpt><trkpt lat="42.74826541721722" lon="10.281479825823968"><ele>297.0</ele><time>2026-04-25T15:42:51.949Z</time></trkpt><trkpt lat="42.74834317310355" lon="10.281498564859815"><ele>297.0</ele><time>2026-04-25T15:42:52.949Z</time></trkpt><trkpt lat="42.74842463063329" lon="10.281509555484766"><ele>291.2</ele><time>2026-04-25T15:42:53.949Z</time></trkpt><trkpt lat="42.74851809761044" lon="10.281523639629429"><ele>285.4</ele><time>2026-04-25T15:42:54.949Z</time></trkpt><trkpt lat="42.7486249862048" lon="10.281549903431857"><ele>279.6</ele><time>2026-04-25T15:42:55.949Z</time></trkpt><trkpt lat="42.74872685929506" lon="10.281577244323378"><ele>273.8</ele><time>2026-04-25T15:42:56.949Z</time></trkpt><trkpt lat="42.74883391245323" lon="10.281596086798087"><ele>268.0</ele><time>2026-04-25T15:42:57.949Z</time></trkpt><trkpt lat="42.748941178986655" lon="10.281609913772911"><ele>266.3333333333333</ele><time>2026-04-25T15:42:58.949Z</time></trkpt><trkpt lat="42.74904553294872" lon="10.281626698387134"><ele>264.66666666666663</ele><time>2026-04-25T15:42:59.949Z</time></trkpt><trkpt lat="42.74914516590458" lon="10.281650262825663"><ele>263.0</ele><time>2026-04-25T15:43:00.949Z</time></trkpt><trkpt lat="42.749232102280715" lon="10.281662187276519"><ele>261.3333333333333</ele><time>2026-04-25T15:43:01.949Z</time></trkpt><trkpt lat="42.74930300296827" lon="10.281643365906747"><ele>259.6666666666667</ele><time>2026-04-25T15:43:02.948Z</time></trkpt><trkpt lat="42.74936900543041" lon="10.281601125715463"><ele>258.0</ele><time>2026-04-25T15:43:03.948Z</time></trkpt><trkpt lat="42.74942743935352" lon="10.281543134398552"><ele>259.0</ele><time>2026-04-25T15:43:04.948Z</time></trkpt><trkpt lat="42.74947814775623" lon="10.281457883570193"><ele>260.0</ele><time>2026-04-25T15:43:05.948Z</time></trkpt><trkpt lat="42.74951114785969" lon="10.281351373183778"><ele>261.0</ele><time>2026-04-25T15:43:06.948Z</time></trkpt><trkpt lat="42.749533348220055" lon="10.281226333409007"><ele>262.0</ele><time>2026-04-25T15:43:07.948Z</time></trkpt><trkpt lat="42.74952959501482" lon="10.281095618232209"><ele>263.0</ele><time>2026-04-25T15:43:08.948Z</time></trkpt><trkpt lat="42.7495198221046" lon="10.281002035988438"><ele>264.0</ele><time>2026-04-25T15:43:09.948Z</time></trkpt><trkpt lat="42.74956915350598" lon="10.280903904758091"><ele>264.0</ele><time>2026-04-25T15:43:11.948Z</time></trkpt><trkpt lat="42.74964636441931" lon="10.280908092433036"><ele>264.0</ele><time>2026-04-25T15:43:12.948Z</time></trkpt><trkpt lat="42.74973796627128" lon="10.280950034364754"><ele>264.0</ele><time>2026-04-25T15:43:13.948Z</time></trkpt><trkpt lat="42.7498458923795" lon="10.281036218920443"><ele>264.0</ele><time>2026-04-25T15:43:14.948Z</time></trkpt><trkpt lat="42.74992466945596" lon="10.281085213796942"><ele>264.0</ele><time>2026-04-25T15:43:15.948Z</time></trkpt><trkpt lat="42.750016735931176" lon="10.281096556319222"><ele>264.0</ele><time>2026-04-25T15:43:16.948Z</time></trkpt><trkpt lat="42.75011666766803" lon="10.281083530892314"><ele>264.0</ele><time>2026-04-25T15:43:17.948Z</time></trkpt><trkpt lat="42.750220764002016" lon="10.28106499587244"><ele>264.0</ele><time>2026-04-25T15:43:18.948Z</time></trkpt><trkpt lat="42.750342657500944" lon="10.281019043742567"><ele>264.0</ele><time>2026-04-25T15:43:19.948Z</time></trkpt><trkpt lat="42.75045693946857" lon="10.280972405264688"><ele>261.5</ele><time>2026-04-25T15:43:20.948Z</time></trkpt><trkpt lat="42.75056997422535" lon="10.280935359698022"><ele>259.0</ele><time>2026-04-25T15:43:21.948Z</time></trkpt><trkpt lat="42.75067571124233" lon="10.280909491514441"><ele>256.5</ele><time>2026-04-25T15:43:22.948Z</time></trkpt><trkpt lat="42.7507836204404" lon="10.280861843395655"><ele>254.0</ele><time>2026-04-25T15:43:23.948Z</time></trkpt><trkpt lat="42.750905810887964" lon="10.280809270547381"><ele>254.0</ele><time>2026-04-25T15:43:24.948Z</time></trkpt><trkpt lat="42.75102512985458" lon="10.280733125393532"><ele>254.0</ele><time>2026-04-25T15:43:25.948Z</time></trkpt><trkpt lat="42.75113441126373" lon="10.280653569565104"><ele>254.0</ele><time>2026-04-25T15:43:26.948Z</time></trkpt><trkpt lat="42.75124738018336" lon="10.280576900976564"><ele>254.0</ele><time>2026-04-25T15:43:27.948Z</time></trkpt><trkpt lat="42.751337982470886" lon="10.280496759630477"><ele>256.0</ele><time>2026-04-25T15:43:28.948Z</time></trkpt><trkpt lat="42.751429094115146" lon="10.280411049585656"><ele>258.0</ele><time>2026-04-25T15:43:29.948Z</time></trkpt><trkpt lat="42.75151648561835" lon="10.280360089719295"><ele>260.0</ele><time>2026-04-25T15:43:30.948Z</time></trkpt><trkpt lat="42.75163151672542" lon="10.28028833459764"><ele>262.0</ele><time>2026-04-25T15:43:32.948Z</time></trkpt><trkpt lat="42.751673418395114" lon="10.280204338307266"><ele>264.0</ele><time>2026-04-25T15:43:33.948Z</time></trkpt><trkpt lat="42.751704704203696" lon="10.280125647553458"><ele>264.0</ele><time>2026-04-25T15:43:34.948Z</time></trkpt><trkpt lat="42.75173491237799" lon="10.280047396202747"><ele>264.0</ele><time>2026-04-25T15:43:35.948Z</time></trkpt><trkpt lat="42.75179570760154" lon="10.280001583832885"><ele>264.0</ele><time>2026-04-25T15:43:36.948Z</time></trkpt><trkpt lat="42.75186318020617" lon="10.27998615288152"><ele>264.0</ele><time>2026-04-25T15:43:37.948Z</time></trkpt><trkpt lat="42.751926412743536" lon="10.27996252759596"><ele>264.0</ele><time>2026-04-25T15:43:38.948Z</time></trkpt><trkpt lat="42.75199778639223" lon="10.279897620190797"><ele>264.0</ele><time>2026-04-25T15:43:39.948Z</time></trkpt><trkpt lat="42.75206034671889" lon="10.279822090857826"><ele>264.0</ele><time>2026-04-25T15:43:40.948Z</time></trkpt><trkpt lat="42.752110974199624" lon="10.279716872116925"><ele>263.5</ele><time>2026-04-25T15:43:41.948Z</time></trkpt><trkpt lat="42.75217771041848" lon="10.27956683139672"><ele>263.0</ele><time>2026-04-25T15:43:42.948Z</time></trkpt><trkpt lat="42.75223192161256" lon="10.279390327203519"><ele>262.5</ele><time>2026-04-25T15:43:43.948Z</time></trkpt><trkpt lat="42.75226808501801" lon="10.279238518327999"><ele>262.0</ele><time>2026-04-25T15:43:44.948Z</time></trkpt><trkpt lat="42.75229755806373" lon="10.279112876486357"><ele>262.0</ele><time>2026-04-25T15:43:45.948Z</time></trkpt><trkpt lat="42.75232815072142" lon="10.278978238332698"><ele>262.0</ele><time>2026-04-25T15:43:46.948Z</time></trkpt><trkpt lat="42.75235727795385" lon="10.27884743895789"><ele>262.0</ele><time>2026-04-25T15:43:47.948Z</time></trkpt><trkpt lat="42.75236623621021" lon="10.278733197500005"><ele>262.0</ele><time>2026-04-25T15:43:48.948Z</time></trkpt><trkpt lat="42.75238807521183" lon="10.278642881416586"><ele>262.0</ele><time>2026-04-25T15:43:49.948Z</time></trkpt><trkpt lat="42.7524668072066" lon="10.278563870866174"><ele>263.6</ele><time>2026-04-25T15:43:51.948Z</time></trkpt><trkpt lat="42.752538266848774" lon="10.27859218125103"><ele>265.2</ele><time>2026-04-25T15:43:52.948Z</time></trkpt><trkpt lat="42.752626519349555" lon="10.278664489327415"><ele>266.8</ele><time>2026-04-25T15:43:53.948Z</time></trkpt><trkpt lat="42.75273830074434" lon="10.278778690808517"><ele>268.4</ele><time>2026-04-25T15:43:54.948Z</time></trkpt><trkpt lat="42.75281803082929" lon="10.278893373486474"><ele>270.0</ele><time>2026-04-25T15:43:55.948Z</time></trkpt><trkpt lat="42.752880887759524" lon="10.279002008697962"><ele>270.0</ele><time>2026-04-25T15:43:56.948Z</time></trkpt><trkpt lat="42.75294585923646" lon="10.279106302954299"><ele>270.0</ele><time>2026-04-25T15:43:57.948Z</time></trkpt><trkpt lat="42.75302024290818" lon="10.279186863242302"><ele>270.0</ele><time>2026-04-25T15:43:58.948Z</time></trkpt><trkpt lat="42.753100956034636" lon="10.279237422636813"><ele>270.0</ele><time>2026-04-25T15:43:59.948Z</time></trkpt><trkpt lat="42.75318335072281" lon="10.27928590882665"><ele>270.0</ele><time>2026-04-25T15:44:00.948Z</time></trkpt><trkpt lat="42.75325224975721" lon="10.279335862174248"><ele>270.0</ele><time>2026-04-25T15:44:01.948Z</time></trkpt><trkpt lat="42.75330967996106" lon="10.279380453181538"><ele>270.0</ele><time>2026-04-25T15:44:02.948Z</time></trkpt><trkpt lat="42.75334908059437" lon="10.279495898423317"><ele>270.0</ele><time>2026-04-25T15:44:04.948Z</time></trkpt><trkpt lat="42.753326693335666" lon="10.279622722675722"><ele>270.0</ele><time>2026-04-25T15:44:05.948Z</time></trkpt><trkpt lat="42.7533056134152" lon="10.279796049575515"><ele>270.0</ele><time>2026-04-25T15:44:06.948Z</time></trkpt><trkpt lat="42.753288469268035" lon="10.27998007289798"><ele>268.8</ele><time>2026-04-25T15:44:07.948Z</time></trkpt><trkpt lat="42.75327456628975" lon="10.280149271293094"><ele>267.6</ele><time>2026-04-25T15:44:08.948Z</time></trkpt><trkpt lat="42.75326635711277" lon="10.280289145405886"><ele>266.4</ele><time>2026-04-25T15:44:09.948Z</time></trkpt><trkpt lat="42.753252510147924" lon="10.280429128223124"><ele>265.2</ele><time>2026-04-25T15:44:10.948Z</time></trkpt><trkpt lat="42.75324663639049" lon="10.280554789132648"><ele>264.0</ele><time>2026-04-25T15:44:11.948Z</time></trkpt><trkpt lat="42.75324065636803" lon="10.280669672378785"><ele>262.75</ele><time>2026-04-25T15:44:12.948Z</time></trkpt><trkpt lat="42.75323019986437" lon="10.280888420917131"><ele>261.5</ele><time>2026-04-25T15:44:14.948Z</time></trkpt><trkpt lat="42.75324804928048" lon="10.280990443626"><ele>260.25</ele><time>2026-04-25T15:44:15.948Z</time></trkpt><trkpt lat="42.75329724258327" lon="10.2811937151434"><ele>259.0</ele><time>2026-04-25T15:44:17.948Z</time></trkpt><trkpt lat="42.75332063512053" lon="10.281291962060319"><ele>259.0</ele><time>2026-04-25T15:44:18.948Z</time></trkpt><trkpt lat="42.75334716168903" lon="10.281383797551653"><ele>259.0</ele><time>2026-04-25T15:44:19.948Z</time></trkpt><trkpt lat="42.75339493511558" lon="10.28147104649288"><ele>259.0</ele><time>2026-04-25T15:44:20.948Z</time></trkpt><trkpt lat="42.753455359764146" lon="10.28156300832047"><ele>259.0</ele><time>2026-04-25T15:44:21.948Z</time></trkpt><trkpt lat="42.753516513185524" lon="10.281647616898049"><ele>259.0</ele><time>2026-04-25T15:44:22.949Z</time></trkpt><trkpt lat="42.7535777080572" lon="10.281730821653555"><ele>259.0</ele><time>2026-04-25T15:44:23.95Z</time></trkpt><trkpt lat="42.7536603579154" lon="10.281786706767672"><ele>259.16666666666663</ele><time>2026-04-25T15:44:24.95Z</time></trkpt><trkpt lat="42.75375395753034" lon="10.281835054072243"><ele>259.3333333333333</ele><time>2026-04-25T15:44:25.95Z</time></trkpt><trkpt lat="42.753846469155995" lon="10.281865180820493"><ele>259.5</ele><time>2026-04-25T15:44:26.95Z</time></trkpt><trkpt lat="42.753936027018774" lon="10.281902656889622"><ele>259.6666666666667</ele><time>2026-04-25T15:44:27.95Z</time></trkpt><trkpt lat="42.754015351058726" lon="10.281936378953748"><ele>259.83333333333337</ele><time>2026-04-25T15:44:28.95Z</time></trkpt><trkpt lat="42.75407709916212" lon="10.281993254796829"><ele>260.0</ele><time>2026-04-25T15:44:29.95Z</time></trkpt><trkpt lat="42.75413824743949" lon="10.282089262063597"><ele>260.0</ele><time>2026-04-25T15:44:30.95Z</time></trkpt><trkpt lat="42.75420003738306" lon="10.282230343957892"><ele>260.0</ele><time>2026-04-25T15:44:31.95Z</time></trkpt><trkpt lat="42.75424654741896" lon="10.282353373486504"><ele>260.0</ele><time>2026-04-25T15:44:32.95Z</time></trkpt><trkpt lat="42.7543013335878" lon="10.282473171021357"><ele>260.0</ele><time>2026-04-25T15:44:33.95Z</time></trkpt><trkpt lat="42.754365848524" lon="10.282576342468127"><ele>260.0</ele><time>2026-04-25T15:44:34.95Z</time></trkpt><trkpt lat="42.754423471556535" lon="10.282658004107539"><ele>255.6</ele><time>2026-04-25T15:44:35.949Z</time></trkpt><trkpt lat="42.75447398871616" lon="10.282720119751481"><ele>251.2</ele><time>2026-04-25T15:44:36.949Z</time></trkpt><trkpt lat="42.75459776065299" lon="10.282749552419144"><ele>246.8</ele><time>2026-04-25T15:44:38.949Z</time></trkpt><trkpt lat="42.754687339360245" lon="10.282703631608644"><ele>242.4</ele><time>2026-04-25T15:44:39.949Z</time></trkpt><trkpt lat="42.7547607659436" lon="10.282639125030515"><ele>238.0</ele><time>2026-04-25T15:44:40.949Z</time></trkpt><trkpt lat="42.754813571421614" lon="10.28256561600969"><ele>238.0</ele><time>2026-04-25T15:44:41.949Z</time></trkpt><trkpt lat="42.75486744435489" lon="10.282454021841295"><ele>238.0</ele><time>2026-04-25T15:44:42.949Z</time></trkpt><trkpt lat="42.75491995888099" lon="10.282314967627158"><ele>238.0</ele><time>2026-04-25T15:44:43.949Z</time></trkpt><trkpt lat="42.75496074102145" lon="10.28217105993774"><ele>238.0</ele><time>2026-04-25T15:44:44.949Z</time></trkpt><trkpt lat="42.755000594557075" lon="10.282026790564743"><ele>238.0</ele><time>2026-04-25T15:44:45.949Z</time></trkpt><trkpt lat="42.75503841149741" lon="10.28189211109883"><ele>241.4</ele><time>2026-04-25T15:44:46.949Z</time></trkpt><trkpt lat="42.75506357517395" lon="10.281774316329374"><ele>244.8</ele><time>2026-04-25T15:44:47.949Z</time></trkpt><trkpt lat="42.75508602616209" lon="10.28166584648716"><ele>248.2</ele><time>2026-04-25T15:44:48.949Z</time></trkpt><trkpt lat="42.75510885536489" lon="10.281581839412947"><ele>251.6</ele><time>2026-04-25T15:44:49.949Z</time></trkpt><trkpt lat="42.75516841805336" lon="10.281494051053324"><ele>255.0</ele><time>2026-04-25T15:44:51.949Z</time></trkpt><trkpt lat="42.75529588401077" lon="10.2815497869578"><ele>255.2</ele><time>2026-04-25T15:44:53.949Z</time></trkpt><trkpt lat="42.75541654331089" lon="10.28159390261152"><ele>255.4</ele><time>2026-04-25T15:44:54.949Z</time></trkpt><trkpt lat="42.75550946371341" lon="10.28165982037673"><ele>255.60000000000002</ele><time>2026-04-25T15:44:55.949Z</time></trkpt><trkpt lat="42.75558395081803" lon="10.281740011648692"><ele>255.8</ele><time>2026-04-25T15:44:56.949Z</time></trkpt><trkpt lat="42.755662058236766" lon="10.281803988900442"><ele>256.0</ele><time>2026-04-25T15:44:57.949Z</time></trkpt><trkpt lat="42.755768215631356" lon="10.281879884849955"><ele>256.0</ele><time>2026-04-25T15:44:58.949Z</time></trkpt><trkpt lat="42.75587338522897" lon="10.281944286917819"><ele>256.0</ele><time>2026-04-25T15:44:59.949Z</time></trkpt><trkpt lat="42.75596121628981" lon="10.282002185367642"><ele>256.0</ele><time>2026-04-25T15:45:00.949Z</time></trkpt><trkpt lat="42.756049182799025" lon="10.282084912362034"><ele>256.0</ele><time>2026-04-25T15:45:01.949Z</time></trkpt><trkpt lat="42.756128609108934" lon="10.28216309700463"><ele>256.0</ele><time>2026-04-25T15:45:02.949Z</time></trkpt><trkpt lat="42.75619609775906" lon="10.282244595210756"><ele>255.20000000000002</ele><time>2026-04-25T15:45:03.949Z</time></trkpt><trkpt lat="42.75623863467425" lon="10.282345924548569"><ele>254.40000000000003</ele><time>2026-04-25T15:45:04.949Z</time></trkpt><trkpt lat="42.75627336531222" lon="10.282466959965289"><ele>253.6</ele><time>2026-04-25T15:45:05.949Z</time></trkpt><trkpt lat="42.756292416824955" lon="10.282593964764729"><ele>252.8</ele><time>2026-04-25T15:45:06.949Z</time></trkpt><trkpt lat="42.75631004888996" lon="10.282711817550533"><ele>252.0</ele><time>2026-04-25T15:45:07.949Z</time></trkpt><trkpt lat="42.756331420537144" lon="10.282830641521949"><ele>252.0</ele><time>2026-04-25T15:45:08.949Z</time></trkpt><trkpt lat="42.75635000426114" lon="10.282947780480413"><ele>252.0</ele><time>2026-04-25T15:45:09.949Z</time></trkpt><trkpt lat="42.75635299506349" lon="10.28305867926586"><ele>252.0</ele><time>2026-04-25T15:45:10.949Z</time></trkpt><trkpt lat="42.7563561886534" lon="10.283150223977309"><ele>252.0</ele><time>2026-04-25T15:45:11.949Z</time></trkpt><trkpt lat="42.75638376651422" lon="10.283240647764167"><ele>252.0</ele><time>2026-04-25T15:45:12.949Z</time></trkpt><trkpt lat="42.75645742567438" lon="10.28333328728904"><ele>252.0</ele><time>2026-04-25T15:45:13.949Z</time></trkpt><trkpt lat="42.75656839580076" lon="10.28345447038187"><ele>248.75</ele><time>2026-04-25T15:45:14.949Z</time></trkpt><trkpt lat="42.75667201443347" lon="10.283575101169646"><ele>245.5</ele><time>2026-04-25T15:45:15.949Z</time></trkpt><trkpt lat="42.75675766749172" lon="10.2836809575775"><ele>242.25</ele><time>2026-04-25T15:45:16.949Z</time></trkpt><trkpt lat="42.756823264415424" lon="10.283795006771403"><ele>239.0</ele><time>2026-04-25T15:45:17.949Z</time></trkpt><trkpt lat="42.75687638441376" lon="10.283916678425985"><ele>236.39999999999998</ele><time>2026-04-25T15:45:18.949Z</time></trkpt><trkpt lat="42.756922810441814" lon="10.284026450221742"><ele>233.79999999999998</ele><time>2026-04-25T15:45:19.949Z</time></trkpt><trkpt lat="42.7569778072551" lon="10.28412916292774"><ele>231.20000000000002</ele><time>2026-04-25T15:45:20.949Z</time></trkpt><trkpt lat="42.75704985648034" lon="10.284212228381538"><ele>228.60000000000002</ele><time>2026-04-25T15:45:21.949Z</time></trkpt><trkpt lat="42.75712829421232" lon="10.284280008279918"><ele>226.0</ele><time>2026-04-25T15:45:22.949Z</time></trkpt><trkpt lat="42.757205810453364" lon="10.284346819348333"><ele>225.99999999999997</ele><time>2026-04-25T15:45:23.949Z</time></trkpt><trkpt lat="42.7572627070095" lon="10.284429366730617"><ele>226.0</ele><time>2026-04-25T15:45:24.949Z</time></trkpt><trkpt lat="42.757318063028265" lon="10.284485983396145"><ele>226.0</ele><time>2026-04-25T15:45:25.949Z</time></trkpt><trkpt lat="42.75738242024715" lon="10.284516407952868"><ele>226.0</ele><time>2026-04-25T15:45:26.949Z</time></trkpt><trkpt lat="42.75745877561859" lon="10.284516229703641"><ele>225.99999999999997</ele><time>2026-04-25T15:45:27.949Z</time></trkpt><trkpt lat="42.75753978124401" lon="10.284489616379378"><ele>226.0</ele><time>2026-04-25T15:45:28.949Z</time></trkpt><trkpt lat="42.75761638620422" lon="10.284441479409102"><ele>225.99999999999997</ele><time>2026-04-25T15:45:29.949Z</time></trkpt><trkpt lat="42.75769291234362" lon="10.2843909856522"><ele>226.0</ele><time>2026-04-25T15:45:30.949Z</time></trkpt><trkpt lat="42.75776404962866" lon="10.284338899943002"><ele>226.0</ele><time>2026-04-25T15:45:31.949Z</time></trkpt><trkpt lat="42.75782878899135" lon="10.28427685998183"><ele>226.0</ele><time>2026-04-25T15:45:32.949Z</time></trkpt><trkpt lat="42.75788273525672" lon="10.284200209781673"><ele>225.99999999999997</ele><time>2026-04-25T15:45:33.949Z</time></trkpt><trkpt lat="42.757924671448706" lon="10.284106393311045"><ele>226.0</ele><time>2026-04-25T15:45:34.949Z</time></trkpt><trkpt lat="42.75796262286946" lon="10.284008188565966"><ele>226.20000000000002</ele><time>2026-04-25T15:45:35.949Z</time></trkpt><trkpt lat="42.75799979599778" lon="10.28392401805318"><ele>226.40000000000003</ele><time>2026-04-25T15:45:36.949Z</time></trkpt><trkpt lat="42.75807928547802" lon="10.283857149057123"><ele>226.6</ele><time>2026-04-25T15:45:38.949Z</time></trkpt><trkpt lat="42.758182826642276" lon="10.28393169222486"><ele>226.8</ele><time>2026-04-25T15:45:40.949Z</time></trkpt><trkpt lat="42.75824743067063" lon="10.284014265763927"><ele>227.0</ele><time>2026-04-25T15:45:41.949Z</time></trkpt><trkpt lat="42.75831446799948" lon="10.284144271335812"><ele>224.8</ele><time>2026-04-25T15:45:42.949Z</time></trkpt><trkpt lat="42.75838763820207" lon="10.284281117021097"><ele>222.6</ele><time>2026-04-25T15:45:43.949Z</time></trkpt><trkpt lat="42.75845056511522" lon="10.284382497465598"><ele>220.40000000000003</ele><time>2026-04-25T15:45:44.949Z</time></trkpt><trkpt lat="42.758511908866346" lon="10.284462557455209"><ele>218.20000000000002</ele><time>2026-04-25T15:45:45.949Z</time></trkpt><trkpt lat="42.75858789150773" lon="10.284537906983621"><ele>216.0</ele><time>2026-04-25T15:45:46.949Z</time></trkpt><trkpt lat="42.75869303996217" lon="10.28463553504507"><ele>215.20000000000002</ele><time>2026-04-25T15:45:47.949Z</time></trkpt><trkpt lat="42.75879525479206" lon="10.284734434293748"><ele>214.40000000000003</ele><time>2026-04-25T15:45:48.949Z</time></trkpt><trkpt lat="42.75889283266258" lon="10.284827168593548"><ele>213.6</ele><time>2026-04-25T15:45:49.948Z</time></trkpt><trkpt lat="42.758966575853684" lon="10.284923572583399"><ele>212.8</ele><time>2026-04-25T15:45:50.948Z</time></trkpt><trkpt lat="42.75902790417176" lon="10.285013573534199"><ele>212.0</ele><time>2026-04-25T15:45:51.948Z</time></trkpt><trkpt lat="42.759077641882214" lon="10.285093658355795"><ele>210.50000000000003</ele><time>2026-04-25T15:45:52.948Z</time></trkpt><trkpt lat="42.75912588831064" lon="10.285168822519804"><ele>209.0</ele><time>2026-04-25T15:45:53.948Z</time></trkpt><trkpt lat="42.75918210543022" lon="10.285227941897075"><ele>207.5</ele><time>2026-04-25T15:45:54.948Z</time></trkpt><trkpt lat="42.75926868735847" lon="10.285307138218784"><ele>206.0</ele><time>2026-04-25T15:45:56.948Z</time></trkpt><trkpt lat="42.75932542289207" lon="10.28536716868595"><ele>204.50000000000003</ele><time>2026-04-25T15:46:52.95Z</time></trkpt><trkpt lat="42.75939248420117" lon="10.285386374846105"><ele>203.0</ele><time>2026-04-25T15:46:54.95Z</time></trkpt><trkpt lat="42.75945736626438" lon="10.285385486124456"><ele>202.83333333333334</ele><time>2026-04-25T15:46:55.95Z</time></trkpt><trkpt lat="42.75953965615754" lon="10.285373929864534"><ele>202.66666666666669</ele><time>2026-04-25T15:46:56.95Z</time></trkpt><trkpt lat="42.759619249192305" lon="10.28538514423448"><ele>202.5</ele><time>2026-04-25T15:46:57.95Z</time></trkpt><trkpt lat="42.75973525891673" lon="10.285436055853152"><ele>202.33333333333331</ele><time>2026-04-25T15:46:59.95Z</time></trkpt><trkpt lat="42.759805227904096" lon="10.285461105167705"><ele>202.16666666666666</ele><time>2026-04-25T15:47:00.95Z</time></trkpt><trkpt lat="42.75987473212276" lon="10.285463448282444"><ele>202.0</ele><time>2026-04-25T15:47:01.95Z</time></trkpt><trkpt lat="42.75994130346746" lon="10.285443916137302"><ele>201.99999999999997</ele><time>2026-04-25T15:47:02.95Z</time></trkpt><trkpt lat="42.76001308370922" lon="10.285394726332944"><ele>202.0</ele><time>2026-04-25T15:47:03.95Z</time></trkpt><trkpt lat="42.760103151788876" lon="10.285342190249658"><ele>202.0</ele><time>2026-04-25T15:47:04.95Z</time></trkpt><trkpt lat="42.76019141004045" lon="10.285288402266056"><ele>202.0</ele><time>2026-04-25T15:47:05.95Z</time></trkpt><trkpt lat="42.76027221591387" lon="10.285245557162158"><ele>201.99999999999997</ele><time>2026-04-25T15:47:06.95Z</time></trkpt><trkpt lat="42.76034569267994" lon="10.285209352516587"><ele>202.0</ele><time>2026-04-25T15:47:07.95Z</time></trkpt><trkpt lat="42.76042956085431" lon="10.285177595942"><ele>199.66666666666666</ele><time>2026-04-25T15:47:08.95Z</time></trkpt><trkpt lat="42.76050946575209" lon="10.285137704397545"><ele>197.33333333333331</ele><time>2026-04-25T15:47:09.95Z</time></trkpt><trkpt lat="42.76056883718897" lon="10.285085590175566"><ele>195.0</ele><time>2026-04-25T15:47:10.95Z</time></trkpt><trkpt lat="42.76060377111561" lon="10.285001387537704"><ele>192.66666666666666</ele><time>2026-04-25T15:47:11.95Z</time></trkpt><trkpt lat="42.760616481009464" lon="10.28489828791237"><ele>190.33333333333331</ele><time>2026-04-25T15:47:12.95Z</time></trkpt><trkpt lat="42.76059557438941" lon="10.284787657644682"><ele>188.0</ele><time>2026-04-25T15:47:13.95Z</time></trkpt><trkpt lat="42.760554920037436" lon="10.284661035389645"><ele>186.2</ele><time>2026-04-25T15:47:14.95Z</time></trkpt><trkpt lat="42.76052906331652" lon="10.284541847244096"><ele>184.4</ele><time>2026-04-25T15:47:15.95Z</time></trkpt><trkpt lat="42.760514180004684" lon="10.284406806791436"><ele>182.6</ele><time>2026-04-25T15:47:16.95Z</time></trkpt><trkpt lat="42.760507399273735" lon="10.2842673574012"><ele>180.79999999999998</ele><time>2026-04-25T15:47:17.95Z</time></trkpt><trkpt lat="42.76051563789975" lon="10.284130309498485"><ele>179.0</ele><time>2026-04-25T15:47:18.95Z</time></trkpt><trkpt lat="42.76053333894026" lon="10.283994503416132"><ele>176.39999999999998</ele><time>2026-04-25T15:47:19.95Z</time></trkpt><trkpt lat="42.76054763438791" lon="10.28385266506085"><ele>173.8</ele><time>2026-04-25T15:47:20.95Z</time></trkpt><trkpt lat="42.76055784901131" lon="10.28371864646652"><ele>171.2</ele><time>2026-04-25T15:47:21.95Z</time></trkpt><trkpt lat="42.76056640547077" lon="10.283596696467008"><ele>168.60000000000002</ele><time>2026-04-25T15:47:22.95Z</time></trkpt><trkpt lat="42.76057919748836" lon="10.283469474544377"><ele>166.0</ele><time>2026-04-25T15:47:23.95Z</time></trkpt><trkpt lat="42.76058393175286" lon="10.283338227175186"><ele>166.0</ele><time>2026-04-25T15:47:24.95Z</time></trkpt><trkpt lat="42.760569424724" lon="10.28319684490689"><ele>166.0</ele><time>2026-04-25T15:47:25.95Z</time></trkpt><trkpt lat="42.76054379787088" lon="10.283059959651204"><ele>166.0</ele><time>2026-04-25T15:47:26.95Z</time></trkpt><trkpt lat="42.76051357411292" lon="10.282940434767037"><ele>166.0</ele><time>2026-04-25T15:47:27.95Z</time></trkpt><trkpt lat="42.76046239657441" lon="10.282825278039992"><ele>166.0</ele><time>2026-04-25T15:47:28.95Z</time></trkpt><trkpt lat="42.760411116336755" lon="10.282739993818755"><ele>168.16666666666669</ele><time>2026-04-25T15:47:29.95Z</time></trkpt><trkpt lat="42.760354375876666" lon="10.282669897636396"><ele>170.33333333333334</ele><time>2026-04-25T15:47:30.95Z</time></trkpt><trkpt lat="42.7603055849811" lon="10.282614887268279"><ele>172.5</ele><time>2026-04-25T15:47:31.95Z</time></trkpt><trkpt lat="42.760244376253475" lon="10.282579580391431"><ele>174.66666666666666</ele><time>2026-04-25T15:47:32.95Z</time></trkpt><trkpt lat="42.7601901592558" lon="10.282496998094754"><ele>176.83333333333331</ele><time>2026-04-25T15:47:34.95Z</time></trkpt><trkpt lat="42.760281491642274" lon="10.282354426583442"><ele>179.0</ele><time>2026-04-25T15:47:36.95Z</time></trkpt><trkpt lat="42.76034580728097" lon="10.28225024235092"><ele>173.0</ele><time>2026-04-25T15:47:37.95Z</time></trkpt><trkpt lat="42.760383328786745" lon="10.282172237465844"><ele>167.0</ele><time>2026-04-25T15:47:38.95Z</time></trkpt><trkpt lat="42.76039927875352" lon="10.282077059029536"><ele>161.0</ele><time>2026-04-25T15:47:39.95Z</time></trkpt><trkpt lat="42.760387598740145" lon="10.281969996222413"><ele>155.0</ele><time>2026-04-25T15:47:40.95Z</time></trkpt><trkpt lat="42.76037681721227" lon="10.28183203620823"><ele>149.0</ele><time>2026-04-25T15:47:41.95Z</time></trkpt><trkpt lat="42.76036523056857" lon="10.281696593954733"><ele>143.0</ele><time>2026-04-25T15:47:42.95Z</time></trkpt><trkpt lat="42.760359815312285" lon="10.281593812708204"><ele>143.0</ele><time>2026-04-25T15:47:43.95Z</time></trkpt><trkpt lat="42.760334798261475" lon="10.281452745782465"><ele>143.0</ele><time>2026-04-25T15:47:45.95Z</time></trkpt><trkpt lat="42.760302377181496" lon="10.2813524331765"><ele>143.0</ele><time>2026-04-25T15:47:47.95Z</time></trkpt><trkpt lat="42.76039394175933" lon="10.281338959475727"><ele>143.0</ele><time>2026-04-25T15:47:52.95Z</time></trkpt><trkpt lat="42.760465110648816" lon="10.281415801261694"><ele>143.0</ele><time>2026-04-25T15:47:53.95Z</time></trkpt><trkpt lat="42.76055014238388" lon="10.28151576039652"><ele>143.0</ele><time>2026-04-25T15:47:54.95Z</time></trkpt><trkpt lat="42.76063959435449" lon="10.28162731103837"><ele>143.0</ele><time>2026-04-25T15:47:55.95Z</time></trkpt><trkpt lat="42.76072501755848" lon="10.28172026262743"><ele>143.0</ele><time>2026-04-25T15:47:56.95Z</time></trkpt><trkpt lat="42.76080996259472" lon="10.28180643619232"><ele>143.0</ele><time>2026-04-25T15:47:57.95Z</time></trkpt><trkpt lat="42.760900908776506" lon="10.281889322413134"><ele>143.0</ele><time>2026-04-25T15:47:58.95Z</time></trkpt><trkpt lat="42.76098142959847" lon="10.28196790406505"><ele>139.20000000000002</ele><time>2026-04-25T15:47:59.95Z</time></trkpt><trkpt lat="42.76105519543891" lon="10.282050938121044"><ele>135.4</ele><time>2026-04-25T15:48:00.95Z</time></trkpt><trkpt lat="42.76110601622288" lon="10.282158683523644"><ele>131.60000000000002</ele><time>2026-04-25T15:48:01.95Z</time></trkpt><trkpt lat="42.76114373498712" lon="10.282292197156638"><ele>127.80000000000001</ele><time>2026-04-25T15:48:02.95Z</time></trkpt><trkpt lat="42.761191188666096" lon="10.282419880831956"><ele>124.0</ele><time>2026-04-25T15:48:03.95Z</time></trkpt><trkpt lat="42.76124237675934" lon="10.28254489127816"><ele>124.0</ele><time>2026-04-25T15:48:04.95Z</time></trkpt><trkpt lat="42.761305594678" lon="10.282662179940422"><ele>124.0</ele><time>2026-04-25T15:48:05.95Z</time></trkpt><trkpt lat="42.76136898792863" lon="10.282772507655466"><ele>124.0</ele><time>2026-04-25T15:48:06.95Z</time></trkpt><trkpt lat="42.76142447612326" lon="10.282886079903312"><ele>124.0</ele><time>2026-04-25T15:48:07.95Z</time></trkpt><trkpt lat="42.76149068793888" lon="10.282994341533145"><ele>124.0</ele><time>2026-04-25T15:48:08.95Z</time></trkpt><trkpt lat="42.76154681775931" lon="10.2831020101554"><ele>126.2</ele><time>2026-04-25T15:48:09.95Z</time></trkpt><trkpt lat="42.7616104483987" lon="10.283200287546698"><ele>128.4</ele><time>2026-04-25T15:48:10.95Z</time></trkpt><trkpt lat="42.761672910358435" lon="10.283287644933555"><ele>130.6</ele><time>2026-04-25T15:48:11.95Z</time></trkpt><trkpt lat="42.761753451167316" lon="10.283351421967824"><ele>132.8</ele><time>2026-04-25T15:48:12.95Z</time></trkpt><trkpt lat="42.76184070998198" lon="10.283399585883096"><ele>135.0</ele><time>2026-04-25T15:48:13.95Z</time></trkpt><trkpt lat="42.7619333234108" lon="10.283442985409456"><ele>129.8</ele><time>2026-04-25T15:48:14.95Z</time></trkpt><trkpt lat="42.762014525341975" lon="10.283506329037161"><ele>124.6</ele><time>2026-04-25T15:48:15.95Z</time></trkpt><trkpt lat="42.762081264713004" lon="10.283616276116023"><ele>119.4</ele><time>2026-04-25T15:48:16.95Z</time></trkpt><trkpt lat="42.76215329480026" lon="10.283705645502664"><ele>114.2</ele><time>2026-04-25T15:48:17.95Z</time></trkpt><trkpt lat="42.762211733413594" lon="10.283805069732043"><ele>109.0</ele><time>2026-04-25T15:48:18.949Z</time></trkpt><trkpt lat="42.76226868601219" lon="10.283906030594192"><ele>111.6</ele><time>2026-04-25T15:48:19.949Z</time></trkpt><trkpt lat="42.76233033199416" lon="10.283977862538654"><ele>114.2</ele><time>2026-04-25T15:48:20.949Z</time></trkpt><trkpt lat="42.76241128736839" lon="10.284034402217749"><ele>116.79999999999998</ele><time>2026-04-25T15:48:21.949Z</time></trkpt><trkpt lat="42.762487141050045" lon="10.284098901588138"><ele>119.39999999999999</ele><time>2026-04-25T15:48:22.949Z</time></trkpt><trkpt lat="42.76255390118716" lon="10.284182184971892"><ele>122.0</ele><time>2026-04-25T15:48:23.949Z</time></trkpt><trkpt lat="42.76262175296969" lon="10.284296840842154"><ele>122.0</ele><time>2026-04-25T15:48:24.949Z</time></trkpt><trkpt lat="42.76267044981115" lon="10.284443973444946"><ele>122.0</ele><time>2026-04-25T15:48:25.949Z</time></trkpt><trkpt lat="42.76271118537741" lon="10.284600082212577"><ele>122.0</ele><time>2026-04-25T15:48:26.949Z</time></trkpt><trkpt lat="42.76274510590628" lon="10.284750605875303"><ele>122.0</ele><time>2026-04-25T15:48:27.949Z</time></trkpt><trkpt lat="42.76276633635313" lon="10.284895709723324"><ele>115.5</ele><time>2026-04-25T15:48:28.949Z</time></trkpt><trkpt lat="42.76282296418978" lon="10.285026348212302"><ele>109.0</ele><time>2026-04-25T15:48:29.949Z</time></trkpt><trkpt lat="42.76290645138742" lon="10.285141711723893"><ele>102.5</ele><time>2026-04-25T15:48:30.949Z</time></trkpt><trkpt lat="42.76300531558654" lon="10.285234770339825"><ele>96.0</ele><time>2026-04-25T15:48:31.949Z</time></trkpt><trkpt lat="42.763071370197686" lon="10.28536289347141"><ele>96.0</ele><time>2026-04-25T15:48:32.949Z</time></trkpt><trkpt lat="42.76312590122552" lon="10.285497101407232"><ele>96.0</ele><time>2026-04-25T15:48:33.949Z</time></trkpt><trkpt lat="42.76318130342629" lon="10.285636957798598"><ele>96.0</ele><time>2026-04-25T15:48:34.951Z</time></trkpt><trkpt lat="42.76322393537275" lon="10.28579083728165"><ele>96.0</ele><time>2026-04-25T15:48:35.951Z</time></trkpt><trkpt lat="42.763274699616" lon="10.285925443977705"><ele>97.75</ele><time>2026-04-25T15:48:36.951Z</time></trkpt><trkpt lat="42.76328074329" lon="10.286084633788866"><ele>99.5</ele><time>2026-04-25T15:48:37.952Z</time></trkpt><trkpt lat="42.763305565906386" lon="10.2862427083563"><ele>101.25</ele><time>2026-04-25T15:48:38.951Z</time></trkpt><trkpt lat="42.76335560578515" lon="10.286396629303097"><ele>103.0</ele><time>2026-04-25T15:48:39.951Z</time></trkpt><trkpt lat="42.76342158082689" lon="10.286538903171929"><ele>103.5</ele><time>2026-04-25T15:48:40.951Z</time></trkpt><trkpt lat="42.76346264301224" lon="10.286697077512358"><ele>104.0</ele><time>2026-04-25T15:48:41.951Z</time></trkpt><trkpt lat="42.76348811925143" lon="10.286860300019388"><ele>104.5</ele><time>2026-04-25T15:48:42.951Z</time></trkpt><trkpt lat="42.76349926093846" lon="10.287010987134886"><ele>105.0</ele><time>2026-04-25T15:48:43.951Z</time></trkpt><trkpt lat="42.76349178619905" lon="10.287156526256283"><ele>103.75</ele><time>2026-04-25T15:48:44.951Z</time></trkpt><trkpt lat="42.763466287627985" lon="10.287310838608029"><ele>102.5</ele><time>2026-04-25T15:48:45.951Z</time></trkpt><trkpt lat="42.76342885483961" lon="10.287475158403108"><ele>101.25</ele><time>2026-04-25T15:48:46.951Z</time></trkpt><trkpt lat="42.763388892153124" lon="10.287645109912264"><ele>100.0</ele><time>2026-04-25T15:48:47.951Z</time></trkpt><trkpt lat="42.76333492308263" lon="10.287810776656325"><ele>100.0</ele><time>2026-04-25T15:48:48.951Z</time></trkpt><trkpt lat="42.76325929946711" lon="10.287961170289549"><ele>100.0</ele><time>2026-04-25T15:48:49.951Z</time></trkpt><trkpt lat="42.76320269941191" lon="10.288117871656272"><ele>100.0</ele><time>2026-04-25T15:48:50.951Z</time></trkpt><trkpt lat="42.763169096385404" lon="10.288286659516416"><ele>100.0</ele><time>2026-04-25T15:48:51.951Z</time></trkpt><trkpt lat="42.76311332909762" lon="10.288436202136442"><ele>95.25</ele><time>2026-04-25T15:48:52.951Z</time></trkpt><trkpt lat="42.76308781483645" lon="10.288589539468365"><ele>90.5</ele><time>2026-04-25T15:48:53.951Z</time></trkpt><trkpt lat="42.76305901267286" lon="10.288742676061688"><ele>85.75</ele><time>2026-04-25T15:48:54.951Z</time></trkpt><trkpt lat="42.763028278361745" lon="10.288892237238965"><ele>81.0</ele><time>2026-04-25T15:48:55.951Z</time></trkpt><trkpt lat="42.76299127776299" lon="10.289033156073796"><ele>81.16666666666667</ele><time>2026-04-25T15:48:56.951Z</time></trkpt><trkpt lat="42.76295858537899" lon="10.289159249422221"><ele>81.33333333333333</ele><time>2026-04-25T15:48:57.951Z</time></trkpt><trkpt lat="42.76292365419775" lon="10.289269546632946"><ele>81.5</ele><time>2026-04-25T15:48:58.951Z</time></trkpt><trkpt lat="42.762874599120956" lon="10.289354851427575"><ele>81.66666666666666</ele><time>2026-04-25T15:48:59.951Z</time></trkpt><trkpt lat="42.76280692802156" lon="10.289411888958409"><ele>81.83333333333333</ele><time>2026-04-25T15:49:00.951Z</time></trkpt><trkpt lat="42.762725127137266" lon="10.289432389865807"><ele>82.0</ele><time>2026-04-25T15:49:01.951Z</time></trkpt><trkpt lat="42.76261846169277" lon="10.289404035976586"><ele>82.0</ele><time>2026-04-25T15:49:02.951Z</time></trkpt><trkpt lat="42.76251325636846" lon="10.28934655110179"><ele>82.0</ele><time>2026-04-25T15:49:03.951Z</time></trkpt><trkpt lat="42.76242031216232" lon="10.289276793167351"><ele>82.0</ele><time>2026-04-25T15:49:04.951Z</time></trkpt><trkpt lat="42.76233470864249" lon="10.289219316157235"><ele>82.0</ele><time>2026-04-25T15:49:05.951Z</time></trkpt><trkpt lat="42.76226053534651" lon="10.289196809032413"><ele>82.0</ele><time>2026-04-25T15:49:06.951Z</time></trkpt><trkpt lat="42.76218770385808" lon="10.289215931960486"><ele>82.0</ele><time>2026-04-25T15:49:07.951Z</time></trkpt><trkpt lat="42.76212521071414" lon="10.289284009372357"><ele>82.0</ele><time>2026-04-25T15:49:08.951Z</time></trkpt><trkpt lat="42.76207905740514" lon="10.289386854344807"><ele>82.0</ele><time>2026-04-25T15:49:09.951Z</time></trkpt><trkpt lat="42.76204409398296" lon="10.289545887762067"><ele>82.0</ele><time>2026-04-25T15:49:10.951Z</time></trkpt><trkpt lat="42.76201388211303" lon="10.289727168077881"><ele>82.0</ele><time>2026-04-25T15:49:11.951Z</time></trkpt><trkpt lat="42.76196268498831" lon="10.289886711941735"><ele>78.8</ele><time>2026-04-25T15:49:12.951Z</time></trkpt><trkpt lat="42.76191252412574" lon="10.290038604157772"><ele>75.6</ele><time>2026-04-25T15:49:13.951Z</time></trkpt><trkpt lat="42.76185264987866" lon="10.290182332491584"><ele>72.39999999999999</ele><time>2026-04-25T15:49:14.951Z</time></trkpt><trkpt lat="42.76180654407507" lon="10.290299774928497"><ele>69.19999999999999</ele><time>2026-04-25T15:49:15.951Z</time></trkpt><trkpt lat="42.761739347527495" lon="10.290363197827274"><ele>66.0</ele><time>2026-04-25T15:49:16.951Z</time></trkpt><trkpt lat="42.76164493719752" lon="10.290383809560389"><ele>66.0</ele><time>2026-04-25T15:49:17.951Z</time></trkpt><trkpt lat="42.76152449825011" lon="10.290351120090818"><ele>66.0</ele><time>2026-04-25T15:49:18.951Z</time></trkpt><trkpt lat="42.761407246145595" lon="10.29027765032262"><ele>66.0</ele><time>2026-04-25T15:49:19.951Z</time></trkpt><trkpt lat="42.76131250392943" lon="10.290184067224551"><ele>66.0</ele><time>2026-04-25T15:49:20.951Z</time></trkpt><trkpt lat="42.76123955828532" lon="10.290090918699333"><ele>66.0</ele><time>2026-04-25T15:49:21.951Z</time></trkpt><trkpt lat="42.7611472050448" lon="10.290074300288808"><ele>66.0</ele><time>2026-04-25T15:49:22.951Z</time></trkpt><trkpt lat="42.761056485466206" lon="10.290099962829036"><ele>66.0</ele><time>2026-04-25T15:49:23.951Z</time></trkpt><trkpt lat="42.76098967632581" lon="10.290195144709916"><ele>66.0</ele><time>2026-04-25T15:49:24.951Z</time></trkpt><trkpt lat="42.76099067276078" lon="10.290336599363066"><ele>66.0</ele><time>2026-04-25T15:49:25.95Z</time></trkpt><trkpt lat="42.76099410764771" lon="10.290484080771686"><ele>65.0</ele><time>2026-04-25T15:49:26.95Z</time></trkpt><trkpt lat="42.761001110482155" lon="10.290651483139495"><ele>64.0</ele><time>2026-04-25T15:49:27.95Z</time></trkpt><trkpt lat="42.7610060839484" lon="10.290833599091483"><ele>63.0</ele><time>2026-04-25T15:49:28.95Z</time></trkpt><trkpt lat="42.76103414540936" lon="10.291041205652098"><ele>62.0</ele><time>2026-04-25T15:49:29.95Z</time></trkpt><trkpt lat="42.7610854233766" lon="10.291272511298054"><ele>55.0</ele><time>2026-04-25T15:49:30.95Z</time></trkpt><trkpt lat="42.76112471816498" lon="10.29149336547904"><ele>48.0</ele><time>2026-04-25T15:49:31.95Z</time></trkpt><trkpt lat="42.76115754540066" lon="10.291706627298685"><ele>41.0</ele><time>2026-04-25T15:49:32.95Z</time></trkpt><trkpt lat="42.76118560014993" lon="10.291901122892062"><ele>41.0</ele><time>2026-04-25T15:49:33.95Z</time></trkpt><trkpt lat="42.761210656543525" lon="10.292084622183252"><ele>41.0</ele><time>2026-04-25T15:49:34.95Z</time></trkpt><trkpt lat="42.76124098155151" lon="10.29226156060932"><ele>41.0</ele><time>2026-04-25T15:49:35.95Z</time></trkpt><trkpt lat="42.76127248365137" lon="10.292434600635827"><ele>41.0</ele><time>2026-04-25T15:49:36.95Z</time></trkpt><trkpt lat="42.76130845664046" lon="10.292611460939577"><ele>39.75</ele><time>2026-04-25T15:49:37.95Z</time></trkpt><trkpt lat="42.76134698666279" lon="10.292793656844973"><ele>38.5</ele><time>2026-04-25T15:49:38.95Z</time></trkpt><trkpt lat="42.76139215863881" lon="10.292975307955547"><ele>37.25</ele><time>2026-04-25T15:49:39.95Z</time></trkpt><trkpt lat="42.76144765960474" lon="10.2931638592996"><ele>36.0</ele><time>2026-04-25T15:49:40.95Z</time></trkpt><trkpt lat="42.76148620354946" lon="10.293354946057702"><ele>35.0</ele><time>2026-04-25T15:49:41.95Z</time></trkpt><trkpt lat="42.76154926278398" lon="10.293535361922043"><ele>34.0</ele><time>2026-04-25T15:49:42.95Z</time></trkpt><trkpt lat="42.76159360135224" lon="10.293712347416152"><ele>33.0</ele><time>2026-04-25T15:49:43.95Z</time></trkpt><trkpt lat="42.76164711992572" lon="10.293879061164828"><ele>32.0</ele><time>2026-04-25T15:49:44.95Z</time></trkpt><trkpt lat="42.76170142822791" lon="10.294045774025218"><ele>32.0</ele><time>2026-04-25T15:49:45.95Z</time></trkpt><trkpt lat="42.76175679724171" lon="10.294212495308928"><ele>32.0</ele><time>2026-04-25T15:49:46.95Z</time></trkpt><trkpt lat="42.76180282007409" lon="10.294380187980058"><ele>32.0</ele><time>2026-04-25T15:49:47.95Z</time></trkpt><trkpt lat="42.76183023795465" lon="10.294549079196612"><ele>32.0</ele><time>2026-04-25T15:49:48.95Z</time></trkpt><trkpt lat="42.76184429990634" lon="10.294733391292514"><ele>31.25</ele><time>2026-04-25T15:49:49.95Z</time></trkpt><trkpt lat="42.76183954603396" lon="10.29491802692559"><ele>30.5</ele><time>2026-04-25T15:49:50.95Z</time></trkpt><trkpt lat="42.7618168246518" lon="10.295101464575364"><ele>29.75</ele><time>2026-04-25T15:49:51.95Z</time></trkpt><trkpt lat="42.76178540120612" lon="10.295272724712502"><ele>29.0</ele><time>2026-04-25T15:49:52.95Z</time></trkpt><trkpt lat="42.76176549243743" lon="10.2954228473461"><ele>29.0</ele><time>2026-04-25T15:49:53.95Z</time></trkpt><trkpt lat="42.76175674490933" lon="10.295567958741097"><ele>29.0</ele><time>2026-04-25T15:49:54.95Z</time></trkpt><trkpt lat="42.76176260022637" lon="10.29570480439212"><ele>29.0</ele><time>2026-04-25T15:49:55.95Z</time></trkpt><trkpt lat="42.761800328303096" lon="10.295838195697018"><ele>29.0</ele><time>2026-04-25T15:49:56.95Z</time></trkpt><trkpt lat="42.76186974946321" lon="10.295965668835898"><ele>29.0</ele><time>2026-04-25T15:49:57.95Z</time></trkpt><trkpt lat="42.76195275439811" lon="10.296107211909932"><ele>25.75</ele><time>2026-04-25T15:49:58.95Z</time></trkpt><trkpt lat="42.76203905235266" lon="10.296249873315809"><ele>22.5</ele><time>2026-04-25T15:49:59.95Z</time></trkpt><trkpt lat="42.76212488230393" lon="10.296394787449405"><ele>19.25</ele><time>2026-04-25T15:50:00.95Z</time></trkpt><trkpt lat="42.76221080005275" lon="10.296542883069908"><ele>16.0</ele><time>2026-04-25T15:50:01.95Z</time></trkpt><trkpt lat="42.76229978493633" lon="10.296689182303016"><ele>15.25</ele><time>2026-04-25T15:50:02.95Z</time></trkpt><trkpt lat="42.76238728597" lon="10.296835065922872"><ele>14.5</ele><time>2026-04-25T15:50:03.95Z</time></trkpt><trkpt lat="42.76245595308653" lon="10.296989585996497"><ele>13.75</ele><time>2026-04-25T15:50:04.95Z</time></trkpt><trkpt lat="42.76250335425807" lon="10.297155639896072"><ele>13.0</ele><time>2026-04-25T15:50:05.95Z</time></trkpt><trkpt lat="42.762531218640085" lon="10.29732482887296"><ele>12.5</ele><time>2026-04-25T15:50:06.95Z</time></trkpt><trkpt lat="42.76254142235825" lon="10.297490768021255"><ele>12.0</ele><time>2026-04-25T15:50:07.95Z</time></trkpt><trkpt lat="42.76252272980241" lon="10.297641711896274"><ele>11.5</ele><time>2026-04-25T15:50:08.95Z</time></trkpt><trkpt lat="42.76247589295334" lon="10.2977857528567"><ele>11.0</ele><time>2026-04-25T15:50:09.95Z</time></trkpt><trkpt lat="42.76241707077237" lon="10.297929946312218"><ele>11.0</ele><time>2026-04-25T15:50:10.95Z</time></trkpt><trkpt lat="42.76236811063331" lon="10.298077416416605"><ele>11.0</ele><time>2026-04-25T15:50:11.95Z</time></trkpt><trkpt lat="42.762331594498" lon="10.29822515943558"><ele>11.0</ele><time>2026-04-25T15:50:12.95Z</time></trkpt><trkpt lat="42.7623040277542" lon="10.298379686318967"><ele>11.0</ele><time>2026-04-25T15:50:13.95Z</time></trkpt><trkpt lat="42.76227590252367" lon="10.298536515515456"><ele>11.25</ele><time>2026-04-25T15:50:14.95Z</time></trkpt><trkpt lat="42.76224527117139" lon="10.298702538465001"><ele>11.5</ele><time>2026-04-25T15:50:15.95Z</time></trkpt><trkpt lat="42.762210521937554" lon="10.298855553535368"><ele>11.75</ele><time>2026-04-25T15:50:16.95Z</time></trkpt><trkpt lat="42.76217711441902" lon="10.299018169298817"><ele>12.0</ele><time>2026-04-25T15:50:17.95Z</time></trkpt><trkpt lat="42.762137805203835" lon="10.29917266257245"><ele>12.25</ele><time>2026-04-25T15:50:18.95Z</time></trkpt><trkpt lat="42.76209414666222" lon="10.299319308082307"><ele>12.5</ele><time>2026-04-25T15:50:19.95Z</time></trkpt><trkpt lat="42.76204658951594" lon="10.299457228911564"><ele>12.75</ele><time>2026-04-25T15:50:20.95Z</time></trkpt><trkpt lat="42.76198925943964" lon="10.299586226273126"><ele>13.0</ele><time>2026-04-25T15:50:21.95Z</time></trkpt><trkpt lat="42.76192872494246" lon="10.299719271088291"><ele>13.0</ele><time>2026-04-25T15:50:22.95Z</time></trkpt><trkpt lat="42.76186957809499" lon="10.299859237922979"><ele>13.0</ele><time>2026-04-25T15:50:23.95Z</time></trkpt><trkpt lat="42.761813243073206" lon="10.300014072237435"><ele>13.0</ele><time>2026-04-25T15:50:24.95Z</time></trkpt><trkpt lat="42.76176528189277" lon="10.300182299901994"><ele>13.0</ele><time>2026-04-25T15:50:25.95Z</time></trkpt><trkpt lat="42.76173690554771" lon="10.30036485779235"><ele>11.0</ele><time>2026-04-25T15:50:26.95Z</time></trkpt><trkpt lat="42.761734283517534" lon="10.300545506258263"><ele>9.0</ele><time>2026-04-25T15:50:27.95Z</time></trkpt><trkpt lat="42.76174499866152" lon="10.300751350271394"><ele>7.0</ele><time>2026-04-25T15:50:28.95Z</time></trkpt><trkpt lat="42.761763038904895" lon="10.3009705436751"><ele>5.0</ele><time>2026-04-25T15:50:29.95Z</time></trkpt><trkpt lat="42.76177804780743" lon="10.301170467551174"><ele>5.0</ele><time>2026-04-25T15:50:30.95Z</time></trkpt><trkpt lat="42.76179777042428" lon="10.301363581663193"><ele>5.0</ele><time>2026-04-25T15:50:31.95Z</time></trkpt><trkpt lat="42.76181244388061" lon="10.301550394065737"><ele>5.0</ele><time>2026-04-25T15:50:32.95Z</time></trkpt><trkpt lat="42.761823733142336" lon="10.301735261568796"><ele>5.0</ele><time>2026-04-25T15:50:33.95Z</time></trkpt><trkpt lat="42.761831179320694" lon="10.3019203810064"><ele>5.0</ele><time>2026-04-25T15:50:34.95Z</time></trkpt><trkpt lat="42.76183832391997" lon="10.302103228575046"><ele>5.0</ele><time>2026-04-25T15:50:35.95Z</time></trkpt><trkpt lat="42.76184196387443" lon="10.302296382713061"><ele>5.0</ele><time>2026-04-25T15:50:36.95Z</time></trkpt><trkpt lat="42.76184872946656" lon="10.30249848909309"><ele>5.0</ele><time>2026-04-25T15:50:37.95Z</time></trkpt><trkpt lat="42.76185481548982" lon="10.302705454195156"><ele>5.5</ele><time>2026-04-25T15:50:38.95Z</time></trkpt><trkpt lat="42.76186601105636" lon="10.302919425977146"><ele>6.0</ele><time>2026-04-25T15:50:39.95Z</time></trkpt><trkpt lat="42.76187163716393" lon="10.303117771219004"><ele>6.5</ele><time>2026-04-25T15:50:40.952Z</time></trkpt><trkpt lat="42.76188131476221" lon="10.303315695402036"><ele>7.0</ele><time>2026-04-25T15:50:41.952Z</time></trkpt><trkpt lat="42.76188939135067" lon="10.30351155874175"><ele>7.0</ele><time>2026-04-25T15:50:42.952Z</time></trkpt><trkpt lat="42.76189706969872" lon="10.303713284776284"><ele>7.0</ele><time>2026-04-25T15:50:43.952Z</time></trkpt><trkpt lat="42.7619036470784" lon="10.303918961971158"><ele>7.0</ele><time>2026-04-25T15:50:44.952Z</time></trkpt><trkpt lat="42.76191417232103" lon="10.304119978950785"><ele>7.0</ele><time>2026-04-25T15:50:45.952Z</time></trkpt><trkpt lat="42.761921390945396" lon="10.304316652671753"><ele>7.5</ele><time>2026-04-25T15:50:46.952Z</time></trkpt><trkpt lat="42.761928528458576" lon="10.304518036819479"><ele>8.0</ele><time>2026-04-25T15:50:47.952Z</time></trkpt><trkpt lat="42.761935396771044" lon="10.30471395912411"><ele>8.5</ele><time>2026-04-25T15:50:48.952Z</time></trkpt><trkpt lat="42.76194181705741" lon="10.304904949944925"><ele>9.0</ele><time>2026-04-25T15:50:49.952Z</time></trkpt><trkpt lat="42.76194753126028" lon="10.305093100350971"><ele>9.0</ele><time>2026-04-25T15:50:50.953Z</time></trkpt><trkpt lat="42.76194923181381" lon="10.305285442849616"><ele>9.0</ele><time>2026-04-25T15:50:51.953Z</time></trkpt><trkpt lat="42.76195825614381" lon="10.305472845532552"><ele>9.0</ele><time>2026-04-25T15:50:52.952Z</time></trkpt><trkpt lat="42.76197127586913" lon="10.305659097760927"><ele>9.0</ele><time>2026-04-25T15:50:53.952Z</time></trkpt><trkpt lat="42.7619774743202" lon="10.305845714305317"><ele>8.25</ele><time>2026-04-25T15:50:54.952Z</time></trkpt><trkpt lat="42.76198073745671" lon="10.306040161107878"><ele>7.5</ele><time>2026-04-25T15:50:55.952Z</time></trkpt><trkpt lat="42.76199154570425" lon="10.30623916302136"><ele>6.75</ele><time>2026-04-25T15:50:56.952Z</time></trkpt><trkpt lat="42.76196735414435" lon="10.306406698215918"><ele>6.0</ele><time>2026-04-25T15:50:57.952Z</time></trkpt><trkpt lat="42.76196901421392" lon="10.306582654835019"><ele>6.0</ele><time>2026-04-25T15:50:58.952Z</time></trkpt><trkpt lat="42.761971411983254" lon="10.306759040185879"><ele>6.0</ele><time>2026-04-25T15:50:59.952Z</time></trkpt><trkpt lat="42.761967436503475" lon="10.30693742445541"><ele>6.0</ele><time>2026-04-25T15:51:00.952Z</time></trkpt><trkpt lat="42.7619558457969" lon="10.30711781383101"><ele>6.0</ele><time>2026-04-25T15:51:01.952Z</time></trkpt><trkpt lat="42.761933655546905" lon="10.307301263899294"><ele>5.25</ele><time>2026-04-25T15:51:02.952Z</time></trkpt><trkpt lat="42.76190356223339" lon="10.307488395427683"><ele>4.5</ele><time>2026-04-25T15:51:03.952Z</time></trkpt><trkpt lat="42.76187359112931" lon="10.307673538298237"><ele>3.75</ele><time>2026-04-25T15:51:04.952Z</time></trkpt><trkpt lat="42.761843473607776" lon="10.307855317571105"><ele>3.0</ele><time>2026-04-25T15:51:05.952Z</time></trkpt><trkpt lat="42.76181440426439" lon="10.308034328485029"><ele>2.75</ele><time>2026-04-25T15:51:06.952Z</time></trkpt><trkpt lat="42.761784230149125" lon="10.308216188961257"><ele>2.5</ele><time>2026-04-25T15:51:07.952Z</time></trkpt><trkpt lat="42.761750147096535" lon="10.308402629468311"><ele>2.25</ele><time>2026-04-25T15:51:08.952Z</time></trkpt><trkpt lat="42.76170682187368" lon="10.308589991431997"><ele>2.0</ele><time>2026-04-25T15:51:09.952Z</time></trkpt><trkpt lat="42.76164673295718" lon="10.308768224295395"><ele>3.0</ele><time>2026-04-25T15:51:10.952Z</time></trkpt><trkpt lat="42.761578050537906" lon="10.308943554851831"><ele>4.0</ele><time>2026-04-25T15:51:11.952Z</time></trkpt><trkpt lat="42.761506605596516" lon="10.309123523306202"><ele>5.0</ele><time>2026-04-25T15:51:12.952Z</time></trkpt><trkpt lat="42.76144009497321" lon="10.309304925853011"><ele>6.0</ele><time>2026-04-25T15:51:13.952Z</time></trkpt><trkpt lat="42.76138033765755" lon="10.309478680498337"><ele>6.0</ele><time>2026-04-25T15:51:14.952Z</time></trkpt><trkpt lat="42.76132409364887" lon="10.3096509174495"><ele>6.0</ele><time>2026-04-25T15:51:15.952Z</time></trkpt><trkpt lat="42.76127120183605" lon="10.309823943899062"><ele>6.0</ele><time>2026-04-25T15:51:16.952Z</time></trkpt><trkpt lat="42.76122103393599" lon="10.309995225365823"><ele>6.0</ele><time>2026-04-25T15:51:17.952Z</time></trkpt><trkpt lat="42.7611690503423" lon="10.310162027113421"><ele>5.75</ele><time>2026-04-25T15:51:18.952Z</time></trkpt><trkpt lat="42.76111875650226" lon="10.310333138425497"><ele>5.5</ele><time>2026-04-25T15:51:19.952Z</time></trkpt><trkpt lat="42.76107059217191" lon="10.310503559151053"><ele>5.25</ele><time>2026-04-25T15:51:20.952Z</time></trkpt><trkpt lat="42.761018204462964" lon="10.310669809657822"><ele>5.0</ele><time>2026-04-25T15:51:21.952Z</time></trkpt><trkpt lat="42.760961069709026" lon="10.31084093182453"><ele>5.0</ele><time>2026-04-25T15:51:22.952Z</time></trkpt><trkpt lat="42.76090649497156" lon="10.311009164465473"><ele>5.0</ele><time>2026-04-25T15:51:23.952Z</time></trkpt><trkpt lat="42.76085805238608" lon="10.311175543996804"><ele>5.0</ele><time>2026-04-25T15:51:24.952Z</time></trkpt><trkpt lat="42.760808744945194" lon="10.31133290203611"><ele>5.0</ele><time>2026-04-25T15:51:25.952Z</time></trkpt><trkpt lat="42.76076546451525" lon="10.311491151133582"><ele>4.75</ele><time>2026-04-25T15:51:26.952Z</time></trkpt><trkpt lat="42.76073409426719" lon="10.311651656577109"><ele>4.5</ele><time>2026-04-25T15:51:27.952Z</time></trkpt><trkpt lat="42.76071759107266" lon="10.311816665707358"><ele>4.25</ele><time>2026-04-25T15:51:28.952Z</time></trkpt><trkpt lat="42.760715766929714" lon="10.311982229427729"><ele>4.0</ele><time>2026-04-25T15:51:29.952Z</time></trkpt><trkpt lat="42.76071559733904" lon="10.312122491385244"><ele>3.9999999999999996</ele><time>2026-04-25T15:51:30.952Z</time></trkpt><trkpt lat="42.76072026082887" lon="10.312240810326626"><ele>4.0</ele><time>2026-04-25T15:51:31.952Z</time></trkpt><trkpt lat="42.76071847087136" lon="10.312357439857898"><ele>4.0</ele><time>2026-04-25T15:51:33.952Z</time></trkpt><trkpt lat="42.760620543577936" lon="10.312394699181732"><ele>4.0</ele><time>2026-04-25T15:51:36.952Z</time></trkpt><trkpt lat="42.76054004701952" lon="10.31239282808851"><ele>3.9999999999999996</ele><time>2026-04-25T15:51:37.952Z</time></trkpt><trkpt lat="42.76046327720386" lon="10.312392614748756"><ele>4.0</ele><time>2026-04-25T15:51:38.952Z</time></trkpt><trkpt lat="42.76037402953434" lon="10.312407885111282"><ele>4.0</ele><time>2026-04-25T15:51:39.952Z</time></trkpt><trkpt lat="42.76027412255778" lon="10.312431279163455"><ele>4.0</ele><time>2026-04-25T15:51:40.952Z</time></trkpt><trkpt lat="42.76017140510753" lon="10.31245061907263"><ele>4.0</ele><time>2026-04-25T15:51:41.952Z</time></trkpt><trkpt lat="42.76006237473788" lon="10.312474306202747"><ele>4.0</ele><time>2026-04-25T15:51:42.952Z</time></trkpt><trkpt lat="42.75995846400797" lon="10.312494909402819"><ele>4.0</ele><time>2026-04-25T15:51:43.952Z</time></trkpt><trkpt lat="42.75986190916424" lon="10.312511988608694"><ele>3.6</ele><time>2026-04-25T15:51:44.952Z</time></trkpt><trkpt lat="42.759763815333024" lon="10.312523195216174"><ele>3.2</ele><time>2026-04-25T15:51:45.952Z</time></trkpt><trkpt lat="42.759667526126385" lon="10.3125402854596"><ele>2.8000000000000003</ele><time>2026-04-25T15:51:46.952Z</time></trkpt><trkpt lat="42.759568851919205" lon="10.312559749887237"><ele>2.4000000000000004</ele><time>2026-04-25T15:51:47.952Z</time></trkpt><trkpt lat="42.759470893681616" lon="10.312582163068194"><ele>2.0</ele><time>2026-04-25T15:51:48.952Z</time></trkpt><trkpt lat="42.75937636523124" lon="10.312597600863944"><ele>2.0</ele><time>2026-04-25T15:51:49.952Z</time></trkpt><trkpt lat="42.75928328258927" lon="10.312614082882103"><ele>2.0</ele><time>2026-04-25T15:51:50.952Z</time></trkpt><trkpt lat="42.75919320343814" lon="10.312631560300904"><ele>2.0</ele><time>2026-04-25T15:51:51.952Z</time></trkpt><trkpt lat="42.75910565114481" lon="10.312647677370375"><ele>2.0</ele><time>2026-04-25T15:51:52.952Z</time></trkpt><trkpt lat="42.75903171406894" lon="10.312661652605323"><ele>2.0</ele><time>2026-04-25T15:51:53.952Z</time></trkpt><trkpt lat="42.75891912296393" lon="10.312690237576478"><ele>2.0</ele><time>2026-04-25T15:51:55.952Z</time></trkpt><trkpt lat="42.758804236331" lon="10.312712512520546"><ele>2.0</ele><time>2026-04-25T15:51:57.952Z</time></trkpt><trkpt lat="42.758700274008845" lon="10.312736914403033"><ele>2.0</ele><time>2026-04-25T15:51:59.952Z</time></trkpt><trkpt lat="42.75859949806086" lon="10.312751355782483"><ele>2.0</ele><time>2026-04-25T15:52:01.952Z</time></trkpt><trkpt lat="42.75849981835203" lon="10.312749370696032"><ele>2.0</ele><time>2026-04-25T15:52:03.952Z</time></trkpt><trkpt lat="42.758413916860405" lon="10.312732168593312"><ele>1.8333333333333333</ele><time>2026-04-25T15:52:05.952Z</time></trkpt><trkpt lat="42.75836006307177" lon="10.312679878082982"><ele>1.6666666666666665</ele><time>2026-04-25T15:52:07.952Z</time></trkpt><trkpt lat="42.75833000163174" lon="10.312596325677621"><ele>1.5</ele><time>2026-04-25T15:52:09.952Z</time></trkpt><trkpt lat="42.75829013687351" lon="10.312694731435059"><ele>1.3333333333333333</ele><time>2026-04-25T15:52:10.952Z</time></trkpt><trkpt lat="42.75822218889307" lon="10.312557328081574"><ele>1.1666666666666665</ele><time>2026-04-25T15:52:12.952Z</time></trkpt><trkpt lat="42.758164059803136" lon="10.312497335439774"><ele>1.0</ele><time>2026-04-25T15:52:15.952Z</time></trkpt><trkpt lat="42.75810024914369" lon="10.31249705946781"><ele>0.9999999999999999</ele><time>2026-04-25T15:52:24.951Z</time></trkpt><trkpt lat="42.75818810187584" lon="10.312590070750852"><ele>1.0</ele><time>2026-04-25T15:53:00.953Z</time></trkpt><trkpt lat="42.75824435690098" lon="10.312651321602813"><ele>1.0</ele><time>2026-04-25T15:53:02.953Z</time></trkpt><trkpt lat="42.758298469811585" lon="10.312709296196587"><ele>1.0</ele><time>2026-04-25T15:53:04.953Z</time></trkpt><trkpt lat="42.758382098183745" lon="10.312735266277459"><ele>0.9999999999999999</ele><time>2026-04-25T15:53:06.953Z</time></trkpt><trkpt lat="42.75848091689796" lon="10.31274633678447"><ele>1.0</ele><time>2026-04-25T15:53:08.953Z</time></trkpt><trkpt lat="42.75856857911405" lon="10.31273919024367"><ele>1.25</ele><time>2026-04-25T15:53:10.953Z</time></trkpt><trkpt lat="42.75863694792022" lon="10.312734902445888"><ele>1.5</ele><time>2026-04-25T15:53:11.953Z</time></trkpt><trkpt lat="42.75878100016353" lon="10.312723770002382"><ele>1.75</ele><time>2026-04-25T15:53:12.953Z</time></trkpt><trkpt lat="42.75891249477892" lon="10.312706190766063"><ele>2.0</ele><time>2026-04-25T15:53:13.953Z</time></trkpt><trkpt lat="42.75904965444993" lon="10.312684561488"><ele>2.0</ele><time>2026-04-25T15:53:14.953Z</time></trkpt><trkpt lat="42.759183863143825" lon="10.312661070120793"><ele>2.0</ele><time>2026-04-25T15:53:15.953Z</time></trkpt><trkpt lat="42.75932321965552" lon="10.312634438760401"><ele>2.0</ele><time>2026-04-25T15:53:16.953Z</time></trkpt><trkpt lat="42.759467429538496" lon="10.312611108705095"><ele>2.0</ele><time>2026-04-25T15:53:17.953Z</time></trkpt><trkpt lat="42.75961611490554" lon="10.312585998077097"><ele>2.0</ele><time>2026-04-25T15:53:18.953Z</time></trkpt><trkpt lat="42.759770117792186" lon="10.312557744201117"><ele>2.0</ele><time>2026-04-25T15:53:19.953Z</time></trkpt><trkpt lat="42.75990972145155" lon="10.31253205142522"><ele>2.0</ele><time>2026-04-25T15:53:20.953Z</time></trkpt><trkpt lat="42.76003858766063" lon="10.312509264543689"><ele>2.0</ele><time>2026-04-25T15:53:21.953Z</time></trkpt><trkpt lat="42.76015497261126" lon="10.312486491818486"><ele>2.4000000000000004</ele><time>2026-04-25T15:53:22.953Z</time></trkpt><trkpt lat="42.760261766051784" lon="10.312468326825737"><ele>2.8000000000000003</ele><time>2026-04-25T15:53:23.953Z</time></trkpt><trkpt lat="42.760364975189674" lon="10.312450445276173"><ele>3.2</ele><time>2026-04-25T15:53:24.953Z</time></trkpt><trkpt lat="42.76046620026989" lon="10.312435892272832"><ele>3.6</ele><time>2026-04-25T15:53:25.953Z</time></trkpt><trkpt lat="42.760548521506976" lon="10.312436533345831"><ele>4.0</ele><time>2026-04-25T15:53:26.953Z</time></trkpt><trkpt lat="42.76063349130509" lon="10.312469142289217"><ele>4.0</ele><time>2026-04-25T15:53:28.953Z</time></trkpt><trkpt lat="42.76065225855621" lon="10.312621271904709"><ele>4.0</ele><time>2026-04-25T15:54:54.954Z</time></trkpt><trkpt lat="42.760634572114434" lon="10.312764760176313"><ele>4.0</ele><time>2026-04-25T15:54:55.953Z</time></trkpt><trkpt lat="42.760614276132486" lon="10.312926292168028"><ele>4.0</ele><time>2026-04-25T15:54:56.953Z</time></trkpt><trkpt lat="42.760585862580214" lon="10.313069720044524"><ele>4.0</ele><time>2026-04-25T15:54:57.953Z</time></trkpt><trkpt lat="42.76055935115696" lon="10.313232917726943"><ele>4.0</ele><time>2026-04-25T15:54:58.954Z</time></trkpt><trkpt lat="42.7605292919464" lon="10.31342438083301"><ele>4.0</ele><time>2026-04-25T15:54:59.953Z</time></trkpt><trkpt lat="42.7604996995792" lon="10.313636066104156"><ele>4.0</ele><time>2026-04-25T15:55:00.953Z</time></trkpt><trkpt lat="42.76045693585589" lon="10.31388216941261"><ele>4.333333333333333</ele><time>2026-04-25T15:55:01.954Z</time></trkpt><trkpt lat="42.76041566776296" lon="10.314133071865374"><ele>4.666666666666667</ele><time>2026-04-25T15:55:02.954Z</time></trkpt><trkpt lat="42.76037376217601" lon="10.314410624867339"><ele>5.0</ele><time>2026-04-25T15:55:03.954Z</time></trkpt><trkpt lat="42.76034130576686" lon="10.314688650293215"><ele>5.333333333333334</ele><time>2026-04-25T15:55:04.954Z</time></trkpt><trkpt lat="42.76030757535047" lon="10.314919801526282"><ele>5.666666666666667</ele><time>2026-04-25T15:55:05.953Z</time></trkpt><trkpt lat="42.76028223009919" lon="10.31513194947585"><ele>6.0</ele><time>2026-04-25T15:55:06.953Z</time></trkpt><trkpt lat="42.760245040951276" lon="10.3153636076062"><ele>6.0</ele><time>2026-04-25T15:55:07.953Z</time></trkpt><trkpt lat="42.76020966323948" lon="10.31555583758484"><ele>6.0</ele><time>2026-04-25T15:55:08.953Z</time></trkpt><trkpt lat="42.760189271704654" lon="10.315738110018922"><ele>6.0</ele><time>2026-04-25T15:55:09.953Z</time></trkpt><trkpt lat="42.760171104633855" lon="10.315896905192211"><ele>6.0</ele><time>2026-04-25T15:55:10.953Z</time></trkpt><trkpt lat="42.76016811495605" lon="10.316025797414218"><ele>6.0</ele><time>2026-04-25T15:55:11.953Z</time></trkpt><trkpt lat="42.76017604906125" lon="10.316123758636536"><ele>6.0</ele><time>2026-04-25T15:55:12.953Z</time></trkpt><trkpt lat="42.76021626091682" lon="10.316207821683683"><ele>6.0</ele><time>2026-04-25T15:55:13.953Z</time></trkpt><trkpt lat="42.760276149823476" lon="10.316275337391835"><ele>6.0</ele><time>2026-04-25T15:55:14.953Z</time></trkpt><trkpt lat="42.76034861668788" lon="10.316330730707461"><ele>6.0</ele><time>2026-04-25T15:55:15.953Z</time></trkpt><trkpt lat="42.76043918706421" lon="10.31635510630486"><ele>6.0</ele><time>2026-04-25T15:55:16.953Z</time></trkpt><trkpt lat="42.760545253990266" lon="10.316364497792746"><ele>6.25</ele><time>2026-04-25T15:55:17.953Z</time></trkpt><trkpt lat="42.76067854950095" lon="10.31639451386973"><ele>6.5</ele><time>2026-04-25T15:55:18.953Z</time></trkpt><trkpt lat="42.760817422853755" lon="10.316427125850415"><ele>6.75</ele><time>2026-04-25T15:55:19.953Z</time></trkpt><trkpt lat="42.76096802197877" lon="10.316452582028305"><ele>7.0</ele><time>2026-04-25T15:55:20.953Z</time></trkpt><trkpt lat="42.76112025342254" lon="10.316496094255418"><ele>8.333333333333334</ele><time>2026-04-25T15:55:21.953Z</time></trkpt><trkpt lat="42.76126773512929" lon="10.316522590029713"><ele>9.666666666666666</ele><time>2026-04-25T15:55:22.953Z</time></trkpt><trkpt lat="42.761447622449694" lon="10.316566265719379"><ele>11.0</ele><time>2026-04-25T15:55:23.953Z</time></trkpt><trkpt lat="42.76162229416893" lon="10.31660934369024"><ele>11.0</ele><time>2026-04-25T15:55:24.953Z</time></trkpt><trkpt lat="42.76181601958413" lon="10.316657685067465"><ele>11.0</ele><time>2026-04-25T15:55:25.953Z</time></trkpt><trkpt lat="42.76200521811419" lon="10.31671264759113"><ele>11.0</ele><time>2026-04-25T15:55:26.953Z</time></trkpt><trkpt lat="42.7621973548005" lon="10.316751739231021"><ele>12.333333333333332</ele><time>2026-04-25T15:55:27.953Z</time></trkpt><trkpt lat="42.76237259973135" lon="10.316774042324456"><ele>13.666666666666666</ele><time>2026-04-25T15:55:28.953Z</time></trkpt><trkpt lat="42.76254699124238" lon="10.31680531560946"><ele>15.0</ele><time>2026-04-25T15:55:29.953Z</time></trkpt><trkpt lat="42.76271915886006" lon="10.316846610474224"><ele>16.0</ele><time>2026-04-25T15:55:30.953Z</time></trkpt><trkpt lat="42.76288587983227" lon="10.31687939397338"><ele>17.0</ele><time>2026-04-25T15:55:31.953Z</time></trkpt><trkpt lat="42.76304862117641" lon="10.316911642329146"><ele>18.0</ele><time>2026-04-25T15:55:32.953Z</time></trkpt><trkpt lat="42.763211016638714" lon="10.31694345072108"><ele>18.0</ele><time>2026-04-25T15:55:33.953Z</time></trkpt><trkpt lat="42.76335673686294" lon="10.316974817752303"><ele>18.0</ele><time>2026-04-25T15:55:34.953Z</time></trkpt><trkpt lat="42.76348824570912" lon="10.317001361718097"><ele>18.0</ele><time>2026-04-25T15:55:35.953Z</time></trkpt><trkpt lat="42.76361042913282" lon="10.317023212922896"><ele>18.0</ele><time>2026-04-25T15:55:36.953Z</time></trkpt><trkpt lat="42.763728783771384" lon="10.317047521972585"><ele>18.6</ele><time>2026-04-25T15:55:37.953Z</time></trkpt><trkpt lat="42.76385052540767" lon="10.31706857720335"><ele>19.200000000000003</ele><time>2026-04-25T15:55:38.953Z</time></trkpt><trkpt lat="42.76394980368274" lon="10.317094590959108"><ele>19.8</ele><time>2026-04-25T15:55:39.953Z</time></trkpt><trkpt lat="42.76404642605262" lon="10.317115362984444"><ele>20.400000000000002</ele><time>2026-04-25T15:55:40.953Z</time></trkpt><trkpt lat="42.764131928572645" lon="10.317132161863217"><ele>21.0</ele><time>2026-04-25T15:55:41.953Z</time></trkpt><trkpt lat="42.7642043201304" lon="10.317155210312091"><ele>21.0</ele><time>2026-04-25T15:55:42.953Z</time></trkpt><trkpt lat="42.76429248127142" lon="10.3171984030726"><ele>21.0</ele><time>2026-04-25T15:55:44.953Z</time></trkpt><trkpt lat="42.764347269769516" lon="10.317092250536366"><ele>21.0</ele><time>2026-04-25T15:55:47.953Z</time></trkpt><trkpt lat="42.76436760458894" lon="10.316986673468397"><ele>21.0</ele><time>2026-04-25T15:55:48.953Z</time></trkpt><trkpt lat="42.76440027155744" lon="10.316860381121677"><ele>21.0</ele><time>2026-04-25T15:55:49.953Z</time></trkpt><trkpt lat="42.76444196574863" lon="10.316710861120002"><ele>22.0</ele><time>2026-04-25T15:55:50.953Z</time></trkpt><trkpt lat="42.76449403243541" lon="10.316553364329184"><ele>23.0</ele><time>2026-04-25T15:55:51.953Z</time></trkpt><trkpt lat="42.764560319244524" lon="10.316371735336894"><ele>24.0</ele><time>2026-04-25T15:55:52.953Z</time></trkpt><trkpt lat="42.76463639702767" lon="10.316170687041097"><ele>25.0</ele><time>2026-04-25T15:55:53.953Z</time></trkpt><trkpt lat="42.764719895212465" lon="10.31595254124679"><ele>25.0</ele><time>2026-04-25T15:55:54.953Z</time></trkpt><trkpt lat="42.76480484229298" lon="10.315710387216246"><ele>25.0</ele><time>2026-04-25T15:55:55.953Z</time></trkpt><trkpt lat="42.764901817582505" lon="10.31545161023339"><ele>25.0</ele><time>2026-04-25T15:55:56.953Z</time></trkpt><trkpt lat="42.76498882421835" lon="10.315209017663085"><ele>24.0</ele><time>2026-04-25T15:55:57.953Z</time></trkpt><trkpt lat="42.76506678015169" lon="10.314994082963203"><ele>23.0</ele><time>2026-04-25T15:55:58.953Z</time></trkpt><trkpt lat="42.76514567232476" lon="10.314784948120856"><ele>22.0</ele><time>2026-04-25T15:55:59.953Z</time></trkpt><trkpt lat="42.76521726891445" lon="10.314581981990894"><ele>22.0</ele><time>2026-04-25T15:56:00.953Z</time></trkpt><trkpt lat="42.765278400502545" lon="10.314392851999681"><ele>22.0</ele><time>2026-04-25T15:56:01.953Z</time></trkpt><trkpt lat="42.7653348707001" lon="10.31421294448363"><ele>22.0</ele><time>2026-04-25T15:56:02.953Z</time></trkpt><trkpt lat="42.765401271867624" lon="10.314059964601483"><ele>22.0</ele><time>2026-04-25T15:56:03.953Z</time></trkpt><trkpt lat="42.765464925213806" lon="10.313910191321275"><ele>21.400000000000002</ele><time>2026-04-25T15:56:04.894Z</time></trkpt><trkpt lat="42.765509302135335" lon="10.313797247705626"><ele>20.8</ele><time>2026-04-25T15:56:05.894Z</time></trkpt><trkpt lat="42.76556345435541" lon="10.313719661273968"><ele>20.2</ele><time>2026-04-25T15:56:06.894Z</time></trkpt><trkpt lat="42.765696190694754" lon="10.313692003920083"><ele>19.6</ele><time>2026-04-25T15:56:08.894Z</time></trkpt><trkpt lat="42.76580600568262" lon="10.313712497464845"><ele>19.0</ele><time>2026-04-25T15:56:09.894Z</time></trkpt><trkpt lat="42.76592627773553" lon="10.313731459644126"><ele>20.333333333333332</ele><time>2026-04-25T15:56:10.894Z</time></trkpt><trkpt lat="42.76606062220689" lon="10.313738856864953"><ele>21.666666666666668</ele><time>2026-04-25T15:56:11.895Z</time></trkpt><trkpt lat="42.766210385633734" lon="10.313724060929077"><ele>23.0</ele><time>2026-04-25T15:56:12.895Z</time></trkpt><trkpt lat="42.76637931997377" lon="10.31370377627642"><ele>23.0</ele><time>2026-04-25T15:56:13.895Z</time></trkpt><trkpt lat="42.76656481272403" lon="10.313681597906116"><ele>23.0</ele><time>2026-04-25T15:56:14.895Z</time></trkpt><trkpt lat="42.766757069459324" lon="10.313660867069435"><ele>23.0</ele><time>2026-04-25T15:56:15.895Z</time></trkpt><trkpt lat="42.766935083945846" lon="10.313636651262454"><ele>24.5</ele><time>2026-04-25T15:56:16.895Z</time></trkpt><trkpt lat="42.76709492141566" lon="10.313595101276356"><ele>26.0</ele><time>2026-04-25T15:56:17.895Z</time></trkpt><trkpt lat="42.7672295673502" lon="10.313535707666118"><ele>27.5</ele><time>2026-04-25T15:56:18.895Z</time></trkpt><trkpt lat="42.76736511799759" lon="10.31348014471932"><ele>29.0</ele><time>2026-04-25T15:56:19.895Z</time></trkpt><trkpt lat="42.76748353615004" lon="10.313426306560102"><ele>29.0</ele><time>2026-04-25T15:56:20.895Z</time></trkpt><trkpt lat="42.76759638515505" lon="10.31340245433443"><ele>29.0</ele><time>2026-04-25T15:56:21.895Z</time></trkpt><trkpt lat="42.76772889101362" lon="10.313380445629477"><ele>29.0</ele><time>2026-04-25T15:56:22.895Z</time></trkpt><trkpt lat="42.767879397455964" lon="10.313364032473668"><ele>29.0</ele><time>2026-04-25T15:56:23.895Z</time></trkpt><trkpt lat="42.76803800631939" lon="10.313351682146603"><ele>30.5</ele><time>2026-04-25T15:56:24.895Z</time></trkpt><trkpt lat="42.76819099828407" lon="10.313329209331746"><ele>32.0</ele><time>2026-04-25T15:56:25.895Z</time></trkpt><trkpt lat="42.76831895501919" lon="10.31331184937717"><ele>33.5</ele><time>2026-04-25T15:56:26.895Z</time></trkpt><trkpt lat="42.7684271700069" lon="10.3132933509625"><ele>35.0</ele><time>2026-04-25T15:56:27.895Z</time></trkpt><trkpt lat="42.76852726808733" lon="10.313275717769976"><ele>35.8</ele><time>2026-04-25T15:56:28.895Z</time></trkpt><trkpt lat="42.76862617235363" lon="10.313263581126066"><ele>36.6</ele><time>2026-04-25T15:56:29.895Z</time></trkpt><trkpt lat="42.768721798204254" lon="10.313259509239975"><ele>37.4</ele><time>2026-04-25T15:56:30.895Z</time></trkpt><trkpt lat="42.7688101117216" lon="10.313250295947677"><ele>38.2</ele><time>2026-04-25T15:56:31.895Z</time></trkpt><trkpt lat="42.76889748048782" lon="10.313238361162666"><ele>39.0</ele><time>2026-04-25T15:56:32.895Z</time></trkpt><trkpt lat="42.76897773599709" lon="10.313225436419456"><ele>39.0</ele><time>2026-04-25T15:56:33.895Z</time></trkpt><trkpt lat="42.76905937945622" lon="10.313217373184496"><ele>39.0</ele><time>2026-04-25T15:56:34.895Z</time></trkpt><trkpt lat="42.76914116734632" lon="10.313202170904622"><ele>39.0</ele><time>2026-04-25T15:56:35.895Z</time></trkpt><trkpt lat="42.76921998371342" lon="10.313190609256813"><ele>39.0</ele><time>2026-04-25T15:56:36.895Z</time></trkpt><trkpt lat="42.76930900648099" lon="10.313161016138105"><ele>39.0</ele><time>2026-04-25T15:56:38.895Z</time></trkpt><trkpt lat="42.769336572352245" lon="10.313043946149751"><ele>39.0</ele><time>2026-04-25T15:56:40.895Z</time></trkpt><trkpt lat="42.76936758315874" lon="10.312938155566878"><ele>39.666666666666664</ele><time>2026-04-25T15:56:42.894Z</time></trkpt><trkpt lat="42.769430032204376" lon="10.31282633650696"><ele>40.333333333333336</ele><time>2026-04-25T15:56:45.894Z</time></trkpt><trkpt lat="42.7694782852125" lon="10.312739044806776"><ele>41.0</ele><time>2026-04-25T15:56:47.894Z</time></trkpt><trkpt lat="42.76949196440049" lon="10.312639821312555"><ele>41.66666666666667</ele><time>2026-04-25T15:56:53.894Z</time></trkpt><trkpt lat="42.76948500187028" lon="10.312521152803413"><ele>42.333333333333336</ele><time>2026-04-25T15:56:56.894Z</time></trkpt><trkpt lat="42.76948101892548" lon="10.312435041627099"><ele>43.0</ele><time>2026-04-25T15:56:59.897Z</time></trkpt><trkpt lat="42.76943963820893" lon="10.312369593788807"><ele>43.0</ele><time>2026-04-25T15:57:45.895Z</time></trkpt><trkpt lat="42.76943963820893" lon="10.312369593788807"><ele>43.0</ele><time>2026-04-25T15:57:45.895Z</time></trkpt><trkpt lat="42.76943963820893" lon="10.312369593788807"><ele>43.0</ele><time>2026-04-25T15:57:45.895Z</time></trkpt></trkseg></trk></gpx>